<?xml version='1.0' encoding='UTF-8'?><gpx version="1.1" creator="JPX - https://github.com/jenetics/jpx" xmlns="http://www.topografix.com/GPX/1/1"><trk><trkseg><trkpt lat="42.81276866974232" lon="10.427715917488733"><ele>22.0</ele><time>2026-04-25T09:51:48Z</time></trkpt><trkpt lat="42.812743083891974" lon="10.427631169824632"><ele>22.0</ele><time>2026-04-25T09:51:50Z</time></trkpt><trkpt lat="42.812692542153904" lon="10.427487811317572"><ele>22.0</ele><time>2026-04-25T09:52:01Z</time></trkpt><trkpt lat="42.8126782257125" lon="10.427385919010364"><ele>22.0</ele><time>2026-04-25T09:52:03Z</time></trkpt><trkpt lat="42.8126540708125" lon="10.427264735016514"><ele>22.0</ele><time>2026-04-25T09:52:05Z</time></trkpt><trkpt lat="42.81261539094343" lon="10.42713432360954"><ele>25.200000000000003</ele><time>2026-04-25T09:52:07Z</time></trkpt><trkpt lat="42.812552123894854" lon="10.42699224339318"><ele>28.4</ele><time>2026-04-25T09:52:09Z</time></trkpt><trkpt lat="42.81257826996301" lon="10.426891909692339"><ele>31.599999999999998</ele><time>2026-04-25T09:52:10Z</time></trkpt><trkpt lat="42.81252935686688" lon="10.42677304183073"><ele>34.8</ele><time>2026-04-25T09:52:12Z</time></trkpt><trkpt lat="42.81248304381749" lon="10.42666336784542"><ele>38.0</ele><time>2026-04-25T09:52:14Z</time></trkpt><trkpt lat="42.81243469214062" lon="10.426542941600317"><ele>38.0</ele><time>2026-04-25T09:52:16Z</time></trkpt><trkpt lat="42.812405881050026" lon="10.42645364953743"><ele>38.0</ele><time>2026-04-25T09:52:17Z</time></trkpt><trkpt lat="42.81237967377067" lon="10.42635090609576"><ele>38.0</ele><time>2026-04-25T09:52:18Z</time></trkpt><trkpt lat="42.81237322796512" lon="10.426261868957997"><ele>38.0</ele><time>2026-04-25T09:52:19Z</time></trkpt><trkpt lat="42.81237157127114" lon="10.426165733261836"><ele>38.0</ele><time>2026-04-25T09:52:20Z</time></trkpt><trkpt lat="42.81237645002004" lon="10.426057432999038"><ele>38.0</ele><time>2026-04-25T09:52:21Z</time></trkpt><trkpt lat="42.81238020201044" lon="10.425954814884678"><ele>38.0</ele><time>2026-04-25T09:52:22Z</time></trkpt><trkpt lat="42.81238348383904" lon="10.425863222038537"><ele>37.83333333333333</ele><time>2026-04-25T09:52:23Z</time></trkpt><trkpt lat="42.81238655864851" lon="10.425777406954124"><ele>37.666666666666664</ele><time>2026-04-25T09:52:24Z</time></trkpt><trkpt lat="42.81240189075483" lon="10.425646611491803"><ele>37.5</ele><time>2026-04-25T09:52:26Z</time></trkpt><trkpt lat="42.81241261628937" lon="10.425533905368692"><ele>37.333333333333336</ele><time>2026-04-25T09:53:05Z</time></trkpt><trkpt lat="42.81246038392493" lon="10.425428270233148"><ele>37.16666666666667</ele><time>2026-04-25T09:53:07Z</time></trkpt><trkpt lat="42.81251524454312" lon="10.425380694962072"><ele>37.0</ele><time>2026-04-25T09:53:08Z</time></trkpt><trkpt lat="42.81258384854694" lon="10.425341145243673"><ele>34.333333333333336</ele><time>2026-04-25T09:53:09Z</time></trkpt><trkpt lat="42.81266096325781" lon="10.425306493256718"><ele>31.666666666666668</ele><time>2026-04-25T09:53:10Z</time></trkpt><trkpt lat="42.81273590159052" lon="10.425264571962044"><ele>29.0</ele><time>2026-04-25T09:53:11Z</time></trkpt><trkpt lat="42.81280806303872" lon="10.42520699803178"><ele>26.333333333333336</ele><time>2026-04-25T09:53:12Z</time></trkpt><trkpt lat="42.81288165084254" lon="10.425140944080907"><ele>23.666666666666668</ele><time>2026-04-25T09:53:13Z</time></trkpt><trkpt lat="42.81293776177257" lon="10.425050507295897"><ele>21.0</ele><time>2026-04-25T09:53:14Z</time></trkpt><trkpt lat="42.81297433332095" lon="10.42493639625217"><ele>21.0</ele><time>2026-04-25T09:53:15Z</time></trkpt><trkpt lat="42.813004364075" lon="10.424821387993434"><ele>21.0</ele><time>2026-04-25T09:53:16Z</time></trkpt><trkpt lat="42.813029081226695" lon="10.42470921372889"><ele>21.0</ele><time>2026-04-25T09:53:17Z</time></trkpt><trkpt lat="42.81305582937002" lon="10.424570764198398"><ele>21.0</ele><time>2026-04-25T09:53:19Z</time></trkpt><trkpt lat="42.81312126951723" lon="10.424430127655878"><ele>21.0</ele><time>2026-04-25T09:53:21Z</time></trkpt><trkpt lat="42.81316792333427" lon="10.424328972109276"><ele>23.0</ele><time>2026-04-25T09:53:22Z</time></trkpt><trkpt lat="42.81320836498448" lon="10.42420109048572"><ele>25.0</ele><time>2026-04-25T09:53:23Z</time></trkpt><trkpt lat="42.81325484581733" lon="10.424069501867523"><ele>27.0</ele><time>2026-04-25T09:53:24Z</time></trkpt><trkpt lat="42.81329951356618" lon="10.423943876563646"><ele>29.0</ele><time>2026-04-25T09:53:25Z</time></trkpt><trkpt lat="42.813349231999645" lon="10.4238461275926"><ele>31.0</ele><time>2026-04-25T09:53:26Z</time></trkpt><trkpt lat="42.813397644330195" lon="10.423757804541115"><ele>31.666666666666668</ele><time>2026-04-25T09:53:27Z</time></trkpt><trkpt lat="42.81343534504726" lon="10.42367825146238"><ele>32.333333333333336</ele><time>2026-04-25T09:53:28Z</time></trkpt><trkpt lat="42.81346830744234" lon="10.423603299418712"><ele>33.0</ele><time>2026-04-25T09:53:29Z</time></trkpt><trkpt lat="42.81349572705285" lon="10.42351587489964"><ele>33.666666666666664</ele><time>2026-04-25T09:53:30Z</time></trkpt><trkpt lat="42.81352014819351" lon="10.423414298975812"><ele>34.33333333333333</ele><time>2026-04-25T09:53:31Z</time></trkpt><trkpt lat="42.813535544039304" lon="10.42329337670535"><ele>35.0</ele><time>2026-04-25T09:53:32Z</time></trkpt><trkpt lat="42.81353901835066" lon="10.423163768872246"><ele>32.0</ele><time>2026-04-25T09:53:33Z</time></trkpt><trkpt lat="42.813542414521116" lon="10.423029441333584"><ele>29.0</ele><time>2026-04-25T09:53:34Z</time></trkpt><trkpt lat="42.81354535488239" lon="10.422905388355735"><ele>26.0</ele><time>2026-04-25T09:53:35Z</time></trkpt><trkpt lat="42.81354807832103" lon="10.42278203972577"><ele>23.0</ele><time>2026-04-25T09:53:36Z</time></trkpt><trkpt lat="42.81355278795903" lon="10.422654546928406"><ele>20.0</ele><time>2026-04-25T09:53:37Z</time></trkpt><trkpt lat="42.81355441682147" lon="10.422520610011286"><ele>20.0</ele><time>2026-04-25T09:53:38Z</time></trkpt><trkpt lat="42.81355651055523" lon="10.422393610637755"><ele>20.0</ele><time>2026-04-25T09:53:39Z</time></trkpt><trkpt lat="42.81356451944043" lon="10.422275703850703"><ele>20.0</ele><time>2026-04-25T09:53:40Z</time></trkpt><trkpt lat="42.813573734117504" lon="10.422177923144044"><ele>20.0</ele><time>2026-04-25T09:53:41Z</time></trkpt><trkpt lat="42.81359839689807" lon="10.422089514486668"><ele>20.0</ele><time>2026-04-25T09:53:42Z</time></trkpt><trkpt lat="42.813637830258166" lon="10.422009091204947"><ele>20.0</ele><time>2026-04-25T09:53:43Z</time></trkpt><trkpt lat="42.81369759756849" lon="10.421947069617056"><ele>20.833333333333336</ele><time>2026-04-25T09:53:44Z</time></trkpt><trkpt lat="42.813761127144204" lon="10.421892967570885"><ele>21.666666666666668</ele><time>2026-04-25T09:53:45Z</time></trkpt><trkpt lat="42.81383612549763" lon="10.42185906130001"><ele>22.5</ele><time>2026-04-25T09:53:46Z</time></trkpt><trkpt lat="42.81392828390987" lon="10.421839683834461"><ele>23.333333333333336</ele><time>2026-04-25T09:53:47Z</time></trkpt><trkpt lat="42.814009765135886" lon="10.42182294217272"><ele>24.166666666666668</ele><time>2026-04-25T09:53:48Z</time></trkpt><trkpt lat="42.81407958773764" lon="10.42181122045056"><ele>25.0</ele><time>2026-04-25T09:53:49Z</time></trkpt><trkpt lat="42.81417296886506" lon="10.421815586866325"><ele>25.000000000000004</ele><time>2026-04-25T09:53:51Z</time></trkpt><trkpt lat="42.8142333337167" lon="10.421902326322549"><ele>25.0</ele><time>2026-04-25T09:53:55Z</time></trkpt><trkpt lat="42.814285767979776" lon="10.42203280856403"><ele>25.0</ele><time>2026-04-25T09:54:02Z</time></trkpt><trkpt lat="42.81428917850707" lon="10.422119890889949"><ele>25.0</ele><time>2026-04-25T09:54:03Z</time></trkpt><trkpt lat="42.814294493605495" lon="10.422212664680377"><ele>25.000000000000004</ele><time>2026-04-25T09:54:04Z</time></trkpt><trkpt lat="42.8142964820797" lon="10.422320597578345"><ele>25.0</ele><time>2026-04-25T09:54:05Z</time></trkpt><trkpt lat="42.81430346326919" lon="10.422434308592644"><ele>24.0</ele><time>2026-04-25T09:54:06Z</time></trkpt><trkpt lat="42.81431053921913" lon="10.422550734127315"><ele>23.0</ele><time>2026-04-25T09:54:07Z</time></trkpt><trkpt lat="42.81432009021901" lon="10.422669227509264"><ele>22.0</ele><time>2026-04-25T09:54:08Z</time></trkpt><trkpt lat="42.814335555522916" lon="10.422789742927096"><ele>21.0</ele><time>2026-04-25T09:54:09Z</time></trkpt><trkpt lat="42.81435007912994" lon="10.422916669632496"><ele>20.0</ele><time>2026-04-25T09:54:10Z</time></trkpt><trkpt lat="42.81437093251715" lon="10.42304224022805"><ele>22.0</ele><time>2026-04-25T09:54:11Z</time></trkpt><trkpt lat="42.81438973969877" lon="10.42316705250176"><ele>24.0</ele><time>2026-04-25T09:54:12Z</time></trkpt><trkpt lat="42.81441448156694" lon="10.423297195772712"><ele>26.0</ele><time>2026-04-25T09:54:13Z</time></trkpt><trkpt lat="42.81443709892665" lon="10.423424462188454"><ele>28.0</ele><time>2026-04-25T09:54:14Z</time></trkpt><trkpt lat="42.814453069333986" lon="10.423556759168516"><ele>30.0</ele><time>2026-04-25T09:54:15Z</time></trkpt><trkpt lat="42.814467692151176" lon="10.423686902529218"><ele>30.0</ele><time>2026-04-25T09:54:16Z</time></trkpt><trkpt lat="42.81448644282539" lon="10.423802378851002"><ele>30.0</ele><time>2026-04-25T09:54:17Z</time></trkpt><trkpt lat="42.81451180906562" lon="10.423898092221942"><ele>30.0</ele><time>2026-04-25T09:54:18Z</time></trkpt><trkpt lat="42.814534146848395" lon="10.42400077014662"><ele>30.0</ele><time>2026-04-25T09:54:19Z</time></trkpt><trkpt lat="42.8145498636143" lon="10.42412401252894"><ele>30.0</ele><time>2026-04-25T09:54:20Z</time></trkpt><trkpt lat="42.81457027449583" lon="10.424253015651649"><ele>30.0</ele><time>2026-04-25T09:54:21Z</time></trkpt><trkpt lat="42.81459701215371" lon="10.424384735182626"><ele>29.5</ele><time>2026-04-25T09:54:22Z</time></trkpt><trkpt lat="42.81461896092156" lon="10.42450852199702"><ele>29.0</ele><time>2026-04-25T09:54:23Z</time></trkpt><trkpt lat="42.814631308481296" lon="10.424603041201289"><ele>28.5</ele><time>2026-04-25T09:54:24Z</time></trkpt><trkpt lat="42.81465800442045" lon="10.424742110717437"><ele>28.0</ele><time>2026-04-25T09:54:26Z</time></trkpt><trkpt lat="42.81467236753171" lon="10.424827288235814"><ele>27.5</ele><time>2026-04-25T09:54:27Z</time></trkpt><trkpt lat="42.81469630101117" lon="10.424946999407439"><ele>27.0</ele><time>2026-04-25T09:54:28Z</time></trkpt><trkpt lat="42.81472691827745" lon="10.425079709648262"><ele>26.0</ele><time>2026-04-25T09:54:29Z</time></trkpt><trkpt lat="42.81475912832739" lon="10.425226509305544"><ele>25.0</ele><time>2026-04-25T09:54:30Z</time></trkpt><trkpt lat="42.81478534635303" lon="10.42535209699165"><ele>24.0</ele><time>2026-04-25T09:54:31Z</time></trkpt><trkpt lat="42.814811951804884" lon="10.425453287731075"><ele>23.0</ele><time>2026-04-25T09:54:32Z</time></trkpt><trkpt lat="42.81485408594888" lon="10.425547355468469"><ele>22.0</ele><time>2026-04-25T09:54:33Z</time></trkpt><trkpt lat="42.81488959968687" lon="10.425646833219563"><ele>21.0</ele><time>2026-04-25T09:54:34Z</time></trkpt><trkpt lat="42.81492210334546" lon="10.42577627481108"><ele>20.0</ele><time>2026-04-25T09:54:35Z</time></trkpt><trkpt lat="42.81495921578392" lon="10.425900300540544"><ele>19.0</ele><time>2026-04-25T09:54:36Z</time></trkpt><trkpt lat="42.81501653835678" lon="10.426007291980625"><ele>18.0</ele><time>2026-04-25T09:54:37Z</time></trkpt><trkpt lat="42.81505707087439" lon="10.42612483131787"><ele>17.0</ele><time>2026-04-25T09:54:38Z</time></trkpt><trkpt lat="42.81508597708704" lon="10.426235811057646"><ele>16.0</ele><time>2026-04-25T09:54:39Z</time></trkpt><trkpt lat="42.815129866117786" lon="10.426335668959311"><ele>17.0</ele><time>2026-04-25T09:54:40Z</time></trkpt><trkpt lat="42.815169862130695" lon="10.426449877217939"><ele>18.0</ele><time>2026-04-25T09:54:42Z</time></trkpt><trkpt lat="42.815224953928876" lon="10.426585532365939"><ele>19.0</ele><time>2026-04-25T09:54:44Z</time></trkpt><trkpt lat="42.81526366524607" lon="10.426673765097636"><ele>20.0</ele><time>2026-04-25T09:54:45Z</time></trkpt><trkpt lat="42.81529082435538" lon="10.426770354728244"><ele>21.0</ele><time>2026-04-25T09:54:46Z</time></trkpt><trkpt lat="42.815329587157144" lon="10.426847964815975"><ele>22.0</ele><time>2026-04-25T09:54:47Z</time></trkpt><trkpt lat="42.81539757906953" lon="10.42700034866419"><ele>22.0</ele><time>2026-04-25T09:54:49Z</time></trkpt><trkpt lat="42.815437894631195" lon="10.427093564983426"><ele>22.0</ele><time>2026-04-25T09:54:50Z</time></trkpt><trkpt lat="42.81548514457315" lon="10.42721175340131"><ele>22.0</ele><time>2026-04-25T09:54:51Z</time></trkpt><trkpt lat="42.81551021544798" lon="10.427338615935469"><ele>22.0</ele><time>2026-04-25T09:54:52Z</time></trkpt><trkpt lat="42.8155379562941" lon="10.427452264247716"><ele>22.0</ele><time>2026-04-25T09:54:53Z</time></trkpt><trkpt lat="42.8155619932842" lon="10.427558540505881"><ele>22.0</ele><time>2026-04-25T09:54:54Z</time></trkpt><trkpt lat="42.81558857621733" lon="10.427648773439314"><ele>20.6</ele><time>2026-04-25T09:54:55Z</time></trkpt><trkpt lat="42.81564248508646" lon="10.42777851598344"><ele>19.200000000000003</ele><time>2026-04-25T09:54:57Z</time></trkpt><trkpt lat="42.815748087416594" lon="10.427854977843124"><ele>17.8</ele><time>2026-04-25T09:54:59Z</time></trkpt><trkpt lat="42.81581443151156" lon="10.427883711659453"><ele>16.4</ele><time>2026-04-25T09:55:00Z</time></trkpt><trkpt lat="42.81590990583858" lon="10.427942877311253"><ele>15.0</ele><time>2026-04-25T09:55:02Z</time></trkpt><trkpt lat="42.815960783880094" lon="10.428066074761217"><ele>13.2</ele><time>2026-04-25T09:55:04Z</time></trkpt><trkpt lat="42.81603109333264" lon="10.428195362770962"><ele>11.4</ele><time>2026-04-25T09:55:06Z</time></trkpt><trkpt lat="42.81612893079344" lon="10.428290452998999"><ele>9.6</ele><time>2026-04-25T09:55:08Z</time></trkpt><trkpt lat="42.816220320660854" lon="10.428369967694913"><ele>7.8</ele><time>2026-04-25T09:55:10Z</time></trkpt><trkpt lat="42.816307360084934" lon="10.428436668483029"><ele>6.0</ele><time>2026-04-25T09:55:12Z</time></trkpt><trkpt lat="42.81639387578673" lon="10.428517351611442"><ele>6.0</ele><time>2026-04-25T09:55:14Z</time></trkpt><trkpt lat="42.816483052282926" lon="10.428591243315118"><ele>6.0</ele><time>2026-04-25T09:55:16Z</time></trkpt><trkpt lat="42.81657671142997" lon="10.428653717017728"><ele>6.0</ele><time>2026-04-25T09:55:18Z</time></trkpt><trkpt lat="42.81668067452058" lon="10.428717027826616"><ele>6.0</ele><time>2026-04-25T09:55:20Z</time></trkpt><trkpt lat="42.81678098348014" lon="10.428770498913423"><ele>6.0</ele><time>2026-04-25T09:55:22Z</time></trkpt><trkpt lat="42.81688561852704" lon="10.42880723210277"><ele>7.166666666666666</ele><time>2026-04-25T09:55:24Z</time></trkpt><trkpt lat="42.81699291363701" lon="10.428806474374849"><ele>8.333333333333332</ele><time>2026-04-25T09:55:26Z</time></trkpt><trkpt lat="42.817112520481636" lon="10.428794484933302"><ele>9.5</ele><time>2026-04-25T09:55:28Z</time></trkpt><trkpt lat="42.81718154327031" lon="10.428790927699843"><ele>10.666666666666666</ele><time>2026-04-25T09:55:29Z</time></trkpt><trkpt lat="42.817249673334544" lon="10.428787511978996"><ele>11.833333333333332</ele><time>2026-04-25T09:55:30Z</time></trkpt><trkpt lat="42.81731941593113" lon="10.428783590637106"><ele>13.0</ele><time>2026-04-25T09:55:31Z</time></trkpt><trkpt lat="42.817389389907994" lon="10.428780605880867"><ele>13.0</ele><time>2026-04-25T09:55:32Z</time></trkpt><trkpt lat="42.817460886704055" lon="10.428809182402157"><ele>13.0</ele><time>2026-04-25T09:55:33Z</time></trkpt><trkpt lat="42.81753208333982" lon="10.428833148043344"><ele>13.0</ele><time>2026-04-25T09:55:34Z</time></trkpt><trkpt lat="42.81759729005112" lon="10.428860164049667"><ele>13.0</ele><time>2026-04-25T09:55:35Z</time></trkpt><trkpt lat="42.817696181894" lon="10.428913999790499"><ele>13.0</ele><time>2026-04-25T09:55:37Z</time></trkpt><trkpt lat="42.81854551787488" lon="10.429395235747759"><ele>12.200000000000001</ele><time>2026-04-25T09:55:50Z</time></trkpt><trkpt lat="42.81864630777077" lon="10.429425348976551"><ele>11.4</ele><time>2026-04-25T09:55:52Z</time></trkpt><trkpt lat="42.818773974350414" lon="10.429409844825615"><ele>10.600000000000001</ele><time>2026-04-25T09:55:54Z</time></trkpt><trkpt lat="42.818910625015405" lon="10.429400843823316"><ele>9.8</ele><time>2026-04-25T09:55:56Z</time></trkpt><trkpt lat="42.81897763032753" lon="10.429402221413202"><ele>9.0</ele><time>2026-04-25T09:55:57Z</time></trkpt><trkpt lat="42.81904677971427" lon="10.429412997073932"><ele>9.0</ele><time>2026-04-25T09:55:58Z</time></trkpt><trkpt lat="42.81911463405663" lon="10.429428702210963"><ele>9.0</ele><time>2026-04-25T09:55:59Z</time></trkpt><trkpt lat="42.819222540769985" lon="10.429443237079719"><ele>9.0</ele><time>2026-04-25T09:56:01Z</time></trkpt><trkpt lat="42.81929577820789" lon="10.429453935523677"><ele>9.0</ele><time>2026-04-25T09:56:03Z</time></trkpt><trkpt lat="42.81936825617421" lon="10.429449911534181"><ele>9.0</ele><time>2026-04-25T09:56:06Z</time></trkpt><trkpt lat="42.81941569439081" lon="10.42937024854065"><ele>9.0</ele><time>2026-04-25T09:56:09Z</time></trkpt><trkpt lat="42.819395682172264" lon="10.429284879766135"><ele>12.0</ele><time>2026-04-25T09:56:31Z</time></trkpt><trkpt lat="42.81937775846148" lon="10.429265866478438"><ele>12.0</ele><time>2026-04-25T09:58:45Z</time></trkpt></trkseg><trkseg><trkpt lat="42.84195807853606" lon="10.46964598941159"><ele>0.0</ele><time>2026-04-25T13:16:22Z</time></trkpt><trkpt lat="42.84207206830581" lon="10.469753386988533"><ele>0.0</ele><time>2026-04-25T13:16:24Z</time></trkpt><trkpt lat="42.84212180194723" lon="10.469826144348222"><ele>0.0</ele><time>2026-04-25T13:16:25Z</time></trkpt><trkpt lat="42.84217120147685" lon="10.469897771107801"><ele>0.0</ele><time>2026-04-25T13:16:26Z</time></trkpt><trkpt lat="42.84221559048857" lon="10.469960534488004"><ele>0.0</ele><time>2026-04-25T13:16:27Z</time></trkpt><trkpt lat="42.84226358489488" lon="10.470029146659005"><ele>0.0</ele><time>2026-04-25T13:16:28Z</time></trkpt><trkpt lat="42.842312080458456" lon="10.470093338020343"><ele>0.0</ele><time>2026-04-25T13:16:29Z</time></trkpt><trkpt lat="42.84236044203201" lon="10.470165228950185"><ele>0.0</ele><time>2026-04-25T13:16:30Z</time></trkpt><trkpt lat="42.84240898303383" lon="10.470238198217782"><ele>0.0</ele><time>2026-04-25T13:16:31Z</time></trkpt><trkpt lat="42.84245743878711" lon="10.470310558814427"><ele>0.0</ele><time>2026-04-25T13:16:32Z</time></trkpt><trkpt lat="42.84250223612046" lon="10.470374621257417"><ele>0.0</ele><time>2026-04-25T13:16:33Z</time></trkpt><trkpt lat="42.84254664699999" lon="10.47044960298489"><ele>0.0</ele><time>2026-04-25T13:16:34Z</time></trkpt><trkpt lat="42.842593469339945" lon="10.470524984401607"><ele>0.0</ele><time>2026-04-25T13:16:35Z</time></trkpt><trkpt lat="42.8426447459247" lon="10.470596097104341"><ele>0.0</ele><time>2026-04-25T13:16:36Z</time></trkpt><trkpt lat="42.84269039651819" lon="10.470660377308677"><ele>0.0</ele><time>2026-04-25T13:16:37Z</time></trkpt><trkpt lat="42.842734139295786" lon="10.47072768862279"><ele>0.0</ele><time>2026-04-25T13:16:38Z</time></trkpt><trkpt lat="42.84282752119722" lon="10.470851083107789"><ele>0.0</ele><time>2026-04-25T13:16:40Z</time></trkpt><trkpt lat="42.842882981501766" lon="10.47091916416194"><ele>0.0</ele><time>2026-04-25T13:16:41Z</time></trkpt><trkpt lat="42.84293061406278" lon="10.470989191222584"><ele>0.0</ele><time>2026-04-25T13:16:42Z</time></trkpt><trkpt lat="42.84298023861571" lon="10.471060041751022"><ele>0.0</ele><time>2026-04-25T13:16:43Z</time></trkpt><trkpt lat="42.8430229573847" lon="10.471134911764828"><ele>0.0</ele><time>2026-04-25T13:16:44Z</time></trkpt><trkpt lat="42.84307241757029" lon="10.471209012170164"><ele>0.0</ele><time>2026-04-25T13:16:45Z</time></trkpt><trkpt lat="42.84311911931009" lon="10.471278442240644"><ele>0.0</ele><time>2026-04-25T13:16:46Z</time></trkpt><trkpt lat="42.843167919759814" lon="10.471352824334753"><ele>0.0</ele><time>2026-04-25T13:16:47Z</time></trkpt><trkpt lat="42.84321431507243" lon="10.471422719550333"><ele>0.0</ele><time>2026-04-25T13:16:48Z</time></trkpt><trkpt lat="42.843258360642174" lon="10.471486286656996"><ele>0.0</ele><time>2026-04-25T13:16:49Z</time></trkpt><trkpt lat="42.843302882734505" lon="10.471552964210577"><ele>0.0</ele><time>2026-04-25T13:16:50Z</time></trkpt><trkpt lat="42.84335328114167" lon="10.471615000166256"><ele>0.0</ele><time>2026-04-25T13:16:51Z</time></trkpt><trkpt lat="42.84340111030626" lon="10.47167687513243"><ele>0.0</ele><time>2026-04-25T13:16:52Z</time></trkpt><trkpt lat="42.84344272828159" lon="10.471750980063664"><ele>0.0</ele><time>2026-04-25T13:16:53Z</time></trkpt><trkpt lat="42.84349256041211" lon="10.471825482272317"><ele>0.0</ele><time>2026-04-25T13:16:54Z</time></trkpt><trkpt lat="42.843538437777696" lon="10.471896872999556"><ele>0.0</ele><time>2026-04-25T13:16:55Z</time></trkpt><trkpt lat="42.84358729726064" lon="10.47196632955562"><ele>0.0</ele><time>2026-04-25T13:16:56Z</time></trkpt><trkpt lat="42.84363610083534" lon="10.47203003298905"><ele>0.0</ele><time>2026-04-25T13:16:57Z</time></trkpt><trkpt lat="42.843684419080155" lon="10.472095705197525"><ele>0.0</ele><time>2026-04-25T13:16:58Z</time></trkpt><trkpt lat="42.84373301945919" lon="10.47216947179931"><ele>0.0</ele><time>2026-04-25T13:16:59Z</time></trkpt><trkpt lat="42.84378454629875" lon="10.472239794839505"><ele>0.0</ele><time>2026-04-25T13:17:00Z</time></trkpt><trkpt lat="42.843834392319394" lon="10.472310039738701"><ele>0.0</ele><time>2026-04-25T13:17:01Z</time></trkpt><trkpt lat="42.8438794637966" lon="10.47237764485574"><ele>0.0</ele><time>2026-04-25T13:17:02Z</time></trkpt><trkpt lat="42.84392517875945" lon="10.472447666048867"><ele>0.0</ele><time>2026-04-25T13:17:03Z</time></trkpt><trkpt lat="42.843962132643846" lon="10.472518991984558"><ele>0.0</ele><time>2026-04-25T13:17:04Z</time></trkpt><trkpt lat="42.84400457235764" lon="10.472587188346221"><ele>0.0</ele><time>2026-04-25T13:17:05Z</time></trkpt><trkpt lat="42.84404811058899" lon="10.472655160741354"><ele>0.0</ele><time>2026-04-25T13:17:06Z</time></trkpt><trkpt lat="42.844092906652456" lon="10.472722563238863"><ele>0.0</ele><time>2026-04-25T13:17:07Z</time></trkpt><trkpt lat="42.84414404283819" lon="10.472793020460813"><ele>0.0</ele><time>2026-04-25T13:17:08Z</time></trkpt><trkpt lat="42.84418952895902" lon="10.472863553096103"><ele>0.0</ele><time>2026-04-25T13:17:09Z</time></trkpt><trkpt lat="42.84423211929807" lon="10.472940353612438"><ele>0.0</ele><time>2026-04-25T13:17:10Z</time></trkpt><trkpt lat="42.84427831045555" lon="10.47300603237275"><ele>0.0</ele><time>2026-04-25T13:17:11Z</time></trkpt><trkpt lat="42.84432759848537" lon="10.473072824745232"><ele>0.0</ele><time>2026-04-25T13:17:12Z</time></trkpt><trkpt lat="42.84437551582126" lon="10.473136482436537"><ele>0.0</ele><time>2026-04-25T13:17:13Z</time></trkpt><trkpt lat="42.844421307967735" lon="10.47320021637536"><ele>0.0</ele><time>2026-04-25T13:17:14Z</time></trkpt><trkpt lat="42.84446568095496" lon="10.47326554732859"><ele>0.0</ele><time>2026-04-25T13:17:15Z</time></trkpt><trkpt lat="42.844511275597306" lon="10.473338593363955"><ele>0.0</ele><time>2026-04-25T13:17:16Z</time></trkpt><trkpt lat="42.84456038302872" lon="10.473417336477471"><ele>0.0</ele><time>2026-04-25T13:17:17Z</time></trkpt><trkpt lat="42.84460628342889" lon="10.473485277461204"><ele>0.0</ele><time>2026-04-25T13:17:18Z</time></trkpt><trkpt lat="42.84465568383094" lon="10.473545766152172"><ele>0.0</ele><time>2026-04-25T13:17:19Z</time></trkpt><trkpt lat="42.844706748338375" lon="10.473608423316442"><ele>0.0</ele><time>2026-04-25T13:17:20Z</time></trkpt><trkpt lat="42.84475930257811" lon="10.47367909304345"><ele>0.0</ele><time>2026-04-25T13:17:21Z</time></trkpt><trkpt lat="42.84480636641438" lon="10.473746582344488"><ele>0.0</ele><time>2026-04-25T13:17:22Z</time></trkpt><trkpt lat="42.84485589101188" lon="10.473806810192643"><ele>0.0</ele><time>2026-04-25T13:17:23Z</time></trkpt><trkpt lat="42.84489835291283" lon="10.47387438302809"><ele>0.0</ele><time>2026-04-25T13:17:24Z</time></trkpt><trkpt lat="42.84494226515734" lon="10.473942416927205"><ele>0.0</ele><time>2026-04-25T13:17:25Z</time></trkpt><trkpt lat="42.844987444179694" lon="10.474012233812505"><ele>0.0</ele><time>2026-04-25T13:17:26Z</time></trkpt><trkpt lat="42.845033197547316" lon="10.474080514366841"><ele>0.0</ele><time>2026-04-25T13:17:27Z</time></trkpt><trkpt lat="42.845080989537514" lon="10.47414778343752"><ele>0.0</ele><time>2026-04-25T13:17:28Z</time></trkpt><trkpt lat="42.84512893282499" lon="10.474214739171636"><ele>0.0</ele><time>2026-04-25T13:17:29Z</time></trkpt><trkpt lat="42.845176523550585" lon="10.47428448052329"><ele>0.0</ele><time>2026-04-25T13:17:30Z</time></trkpt><trkpt lat="42.845225727365026" lon="10.474352587869953"><ele>0.0</ele><time>2026-04-25T13:17:31Z</time></trkpt><trkpt lat="42.84527315550543" lon="10.474425036963888"><ele>0.0</ele><time>2026-04-25T13:17:32Z</time></trkpt><trkpt lat="42.845317907120446" lon="10.474491635732559"><ele>0.0</ele><time>2026-04-25T13:17:33Z</time></trkpt><trkpt lat="42.84536450276284" lon="10.47455895572253"><ele>0.0</ele><time>2026-04-25T13:17:34Z</time></trkpt><trkpt lat="42.84541341987117" lon="10.47462044268564"><ele>0.0</ele><time>2026-04-25T13:17:35Z</time></trkpt><trkpt lat="42.84546234740717" lon="10.474689997863695"><ele>0.0</ele><time>2026-04-25T13:17:36Z</time></trkpt><trkpt lat="42.84551239485249" lon="10.474760029217663"><ele>0.0</ele><time>2026-04-25T13:17:37Z</time></trkpt><trkpt lat="42.84555720790658" lon="10.474834220687077"><ele>0.0</ele><time>2026-04-25T13:17:38Z</time></trkpt><trkpt lat="42.84560558371612" lon="10.474900848760793"><ele>0.0</ele><time>2026-04-25T13:17:39Z</time></trkpt><trkpt lat="42.84565711320069" lon="10.474970023442449"><ele>0.0</ele><time>2026-04-25T13:17:40Z</time></trkpt><trkpt lat="42.84570444145553" lon="10.475039992679081"><ele>0.0</ele><time>2026-04-25T13:17:41Z</time></trkpt><trkpt lat="42.845752779902604" lon="10.475103982807104"><ele>0.0</ele><time>2026-04-25T13:17:42Z</time></trkpt><trkpt lat="42.84580039464584" lon="10.475167484985397"><ele>0.0</ele><time>2026-04-25T13:17:43Z</time></trkpt><trkpt lat="42.84584556171554" lon="10.475241148802258"><ele>0.0</ele><time>2026-04-25T13:17:44Z</time></trkpt><trkpt lat="42.84589308288979" lon="10.475311965637431"><ele>0.0</ele><time>2026-04-25T13:17:45Z</time></trkpt><trkpt lat="42.8459388243627" lon="10.475382665198584"><ele>0.0</ele><time>2026-04-25T13:17:46Z</time></trkpt><trkpt lat="42.84598543391776" lon="10.47545317633098"><ele>0.0</ele><time>2026-04-25T13:17:47Z</time></trkpt><trkpt lat="42.846029827203694" lon="10.475524995870659"><ele>0.0</ele><time>2026-04-25T13:17:48Z</time></trkpt><trkpt lat="42.846073648061385" lon="10.47559661435173"><ele>0.0</ele><time>2026-04-25T13:17:49Z</time></trkpt><trkpt lat="42.8461236866485" lon="10.475670560120133"><ele>0.0</ele><time>2026-04-25T13:17:50Z</time></trkpt><trkpt lat="42.84617221902481" lon="10.475745663457914"><ele>0.0</ele><time>2026-04-25T13:17:51Z</time></trkpt><trkpt lat="42.84621746392538" lon="10.47582166190899"><ele>0.0</ele><time>2026-04-25T13:17:52Z</time></trkpt><trkpt lat="42.846263613277614" lon="10.47589341431261"><ele>0.0</ele><time>2026-04-25T13:17:53Z</time></trkpt><trkpt lat="42.846315769094716" lon="10.475957942228158"><ele>0.0</ele><time>2026-04-25T13:17:54Z</time></trkpt><trkpt lat="42.846366864875115" lon="10.476027355045897"><ele>0.0</ele><time>2026-04-25T13:17:55Z</time></trkpt><trkpt lat="42.84641662629028" lon="10.476094731822423"><ele>0.0</ele><time>2026-04-25T13:17:56Z</time></trkpt><trkpt lat="42.84647020070783" lon="10.476167712144404"><ele>0.0</ele><time>2026-04-25T13:17:57Z</time></trkpt><trkpt lat="42.846518705769604" lon="10.4762343126066"><ele>0.0</ele><time>2026-04-25T13:17:58Z</time></trkpt><trkpt lat="42.846565781994954" lon="10.476304067772691"><ele>0.0</ele><time>2026-04-25T13:17:59Z</time></trkpt><trkpt lat="42.84661231631883" lon="10.47637339013724"><ele>0.0</ele><time>2026-04-25T13:18:00Z</time></trkpt><trkpt lat="42.846658228732714" lon="10.47644093823877"><ele>0.0</ele><time>2026-04-25T13:18:01Z</time></trkpt><trkpt lat="42.84670266327638" lon="10.476514396154677"><ele>0.0</ele><time>2026-04-25T13:18:02Z</time></trkpt><trkpt lat="42.84674956933814" lon="10.47658219191946"><ele>0.0</ele><time>2026-04-25T13:18:03Z</time></trkpt><trkpt lat="42.846796109329894" lon="10.476656835794255"><ele>0.0</ele><time>2026-04-25T13:18:04Z</time></trkpt><trkpt lat="42.84684317474207" lon="10.476726771286927"><ele>0.0</ele><time>2026-04-25T13:18:05Z</time></trkpt><trkpt lat="42.846887319675176" lon="10.476802656232248"><ele>0.0</ele><time>2026-04-25T13:18:06Z</time></trkpt><trkpt lat="42.8469314454287" lon="10.476879984050074"><ele>0.0</ele><time>2026-04-25T13:18:07Z</time></trkpt><trkpt lat="42.846974408046854" lon="10.476954360347285"><ele>0.0</ele><time>2026-04-25T13:18:08Z</time></trkpt><trkpt lat="42.84702276662262" lon="10.477026320332241"><ele>0.0</ele><time>2026-04-25T13:18:09Z</time></trkpt><trkpt lat="42.847063298305855" lon="10.477097732505124"><ele>0.0</ele><time>2026-04-25T13:18:10Z</time></trkpt><trkpt lat="42.84711158581583" lon="10.47717019395877"><ele>0.0</ele><time>2026-04-25T13:18:11Z</time></trkpt><trkpt lat="42.84716253147073" lon="10.477243037907073"><ele>0.0</ele><time>2026-04-25T13:18:12Z</time></trkpt><trkpt lat="42.84720637250159" lon="10.477320403564836"><ele>0.0</ele><time>2026-04-25T13:18:13Z</time></trkpt><trkpt lat="42.847247944477196" lon="10.477394579697286"><ele>0.0</ele><time>2026-04-25T13:18:14Z</time></trkpt><trkpt lat="42.84730077609946" lon="10.47746933997606"><ele>0.0</ele><time>2026-04-25T13:18:15Z</time></trkpt><trkpt lat="42.847348948788664" lon="10.477542517051853"><ele>0.0</ele><time>2026-04-25T13:18:16Z</time></trkpt><trkpt lat="42.84739933514988" lon="10.477618708717001"><ele>0.0</ele><time>2026-04-25T13:18:17Z</time></trkpt><trkpt lat="42.84745059096966" lon="10.477690478593864"><ele>0.0</ele><time>2026-04-25T13:18:18Z</time></trkpt><trkpt lat="42.847498148255255" lon="10.477760334042557"><ele>0.0</ele><time>2026-04-25T13:18:19Z</time></trkpt><trkpt lat="42.8475459913288" lon="10.477829040242723"><ele>0.0</ele><time>2026-04-25T13:18:20Z</time></trkpt><trkpt lat="42.8475939417701" lon="10.477902348941935"><ele>0.0</ele><time>2026-04-25T13:18:21Z</time></trkpt><trkpt lat="42.84763342797645" lon="10.477973936603716"><ele>0.0</ele><time>2026-04-25T13:18:22Z</time></trkpt><trkpt lat="42.84768142911884" lon="10.478047065869086"><ele>0.0</ele><time>2026-04-25T13:18:23Z</time></trkpt><trkpt lat="42.84776289490318" lon="10.478167815833228"><ele>0.0</ele><time>2026-04-25T13:18:25Z</time></trkpt><trkpt lat="42.847806455461836" lon="10.47823547042678"><ele>0.0</ele><time>2026-04-25T13:18:26Z</time></trkpt><trkpt lat="42.84786249372828" lon="10.478310189974371"><ele>0.0</ele><time>2026-04-25T13:18:27Z</time></trkpt><trkpt lat="42.84791424091807" lon="10.478378091124856"><ele>0.0</ele><time>2026-04-25T13:18:28Z</time></trkpt><trkpt lat="42.84796166385416" lon="10.478440561666611"><ele>0.0</ele><time>2026-04-25T13:18:29Z</time></trkpt><trkpt lat="42.84800522261718" lon="10.47851226257497"><ele>0.0</ele><time>2026-04-25T13:18:30Z</time></trkpt><trkpt lat="42.84804839764178" lon="10.47858028723012"><ele>0.0</ele><time>2026-04-25T13:18:31Z</time></trkpt><trkpt lat="42.84809617731361" lon="10.478639972367516"><ele>0.0</ele><time>2026-04-25T13:18:32Z</time></trkpt><trkpt lat="42.84814296918277" lon="10.478701292379265"><ele>0.0</ele><time>2026-04-25T13:18:33Z</time></trkpt><trkpt lat="42.84819084295773" lon="10.478761660645603"><ele>0.0</ele><time>2026-04-25T13:18:34Z</time></trkpt><trkpt lat="42.84823109668585" lon="10.478828846809886"><ele>0.0</ele><time>2026-04-25T13:18:35Z</time></trkpt><trkpt lat="42.848276856261286" lon="10.478903755124481"><ele>0.0</ele><time>2026-04-25T13:18:36Z</time></trkpt><trkpt lat="42.8483658314056" lon="10.479035361237994"><ele>0.0</ele><time>2026-04-25T13:18:38Z</time></trkpt><trkpt lat="42.848418615504876" lon="10.479106013072597"><ele>0.0</ele><time>2026-04-25T13:18:39Z</time></trkpt><trkpt lat="42.84846614772042" lon="10.479179837974261"><ele>0.0</ele><time>2026-04-25T13:18:40Z</time></trkpt><trkpt lat="42.84851094446384" lon="10.479245228632541"><ele>0.0</ele><time>2026-04-25T13:18:41Z</time></trkpt><trkpt lat="42.84855905566882" lon="10.479306859639008"><ele>0.0</ele><time>2026-04-25T13:18:42Z</time></trkpt><trkpt lat="42.84860756351366" lon="10.479371277513037"><ele>0.0</ele><time>2026-04-25T13:18:43Z</time></trkpt><trkpt lat="42.848656184931144" lon="10.47944118379172"><ele>0.0</ele><time>2026-04-25T13:18:44Z</time></trkpt><trkpt lat="42.84870594935062" lon="10.479514115441187"><ele>0.0</ele><time>2026-04-25T13:18:45Z</time></trkpt><trkpt lat="42.84875395954973" lon="10.479589602484578"><ele>0.0</ele><time>2026-04-25T13:18:46Z</time></trkpt><trkpt lat="42.848809445224155" lon="10.479667345791437"><ele>0.0</ele><time>2026-04-25T13:18:47Z</time></trkpt><trkpt lat="42.848855736644275" lon="10.479740646669464"><ele>0.0</ele><time>2026-04-25T13:18:48Z</time></trkpt><trkpt lat="42.848905529847414" lon="10.47981130061298"><ele>0.0</ele><time>2026-04-25T13:18:49Z</time></trkpt><trkpt lat="42.84893954759219" lon="10.479886571103894"><ele>0.0</ele><time>2026-04-25T13:18:50Z</time></trkpt><trkpt lat="42.84898346253598" lon="10.47995231002122"><ele>0.0</ele><time>2026-04-25T13:18:51Z</time></trkpt><trkpt lat="42.84902619769566" lon="10.480023065390665"><ele>0.0</ele><time>2026-04-25T13:18:52Z</time></trkpt><trkpt lat="42.84907667382959" lon="10.480095396343051"><ele>0.0</ele><time>2026-04-25T13:18:53Z</time></trkpt><trkpt lat="42.849125263408574" lon="10.480167395860862"><ele>0.0</ele><time>2026-04-25T13:18:54Z</time></trkpt><trkpt lat="42.849171140858225" lon="10.480236348954625"><ele>0.0</ele><time>2026-04-25T13:18:55Z</time></trkpt><trkpt lat="42.84921573383536" lon="10.480307203924049"><ele>0.0</ele><time>2026-04-25T13:18:56Z</time></trkpt><trkpt lat="42.84925614534499" lon="10.480377255275918"><ele>0.0</ele><time>2026-04-25T13:18:57Z</time></trkpt><trkpt lat="42.84930645665053" lon="10.480454120495024"><ele>0.0</ele><time>2026-04-25T13:18:58Z</time></trkpt><trkpt lat="42.849354138410284" lon="10.480528293885865"><ele>0.0</ele><time>2026-04-25T13:18:59Z</time></trkpt><trkpt lat="42.849406894425265" lon="10.48059415871449"><ele>0.0</ele><time>2026-04-25T13:19:00Z</time></trkpt><trkpt lat="42.84945743488618" lon="10.480659854370359"><ele>0.0</ele><time>2026-04-25T13:19:01Z</time></trkpt><trkpt lat="42.84953848600858" lon="10.480791584417853"><ele>0.0</ele><time>2026-04-25T13:19:03Z</time></trkpt><trkpt lat="42.84957813761152" lon="10.480863475555779"><ele>0.0</ele><time>2026-04-25T13:19:04Z</time></trkpt><trkpt lat="42.8496646018192" lon="10.48099669542274"><ele>0.0</ele><time>2026-04-25T13:19:06Z</time></trkpt><trkpt lat="42.849709767390344" lon="10.481067987728666"><ele>0.0</ele><time>2026-04-25T13:19:07Z</time></trkpt><trkpt lat="42.84975197837971" lon="10.481144329003763"><ele>0.0</ele><time>2026-04-25T13:19:08Z</time></trkpt><trkpt lat="42.849804560334775" lon="10.481217856268492"><ele>0.0</ele><time>2026-04-25T13:19:09Z</time></trkpt><trkpt lat="42.84985515377284" lon="10.481298281758175"><ele>0.0</ele><time>2026-04-25T13:19:10Z</time></trkpt><trkpt lat="42.849900095923786" lon="10.48137192292886"><ele>0.0</ele><time>2026-04-25T13:19:11Z</time></trkpt><trkpt lat="42.84994759239821" lon="10.481449861522472"><ele>0.0</ele><time>2026-04-25T13:19:12Z</time></trkpt><trkpt lat="42.84999421577901" lon="10.481522978509918"><ele>0.0</ele><time>2026-04-25T13:19:13Z</time></trkpt><trkpt lat="42.85004639190591" lon="10.481595004628534"><ele>0.0</ele><time>2026-04-25T13:19:14Z</time></trkpt><trkpt lat="42.85008539697236" lon="10.481666705079375"><ele>0.0</ele><time>2026-04-25T13:19:15Z</time></trkpt><trkpt lat="42.850124092379545" lon="10.48174691506503"><ele>0.0</ele><time>2026-04-25T13:19:16Z</time></trkpt><trkpt lat="42.8501694909466" lon="10.481818413138477"><ele>0.0</ele><time>2026-04-25T13:19:17Z</time></trkpt><trkpt lat="42.85021047624978" lon="10.481896799954734"><ele>0.0</ele><time>2026-04-25T13:19:18Z</time></trkpt><trkpt lat="42.85025494982464" lon="10.481965031630656"><ele>0.0</ele><time>2026-04-25T13:19:19Z</time></trkpt><trkpt lat="42.85029796786184" lon="10.482034393542186"><ele>0.0</ele><time>2026-04-25T13:19:20Z</time></trkpt><trkpt lat="42.85035116753353" lon="10.482092198442603"><ele>0.0</ele><time>2026-04-25T13:19:21Z</time></trkpt><trkpt lat="42.850408342031734" lon="10.482163685068727"><ele>0.0</ele><time>2026-04-25T13:19:22Z</time></trkpt><trkpt lat="42.85046363397788" lon="10.48223106982682"><ele>0.0</ele><time>2026-04-25T13:19:23Z</time></trkpt><trkpt lat="42.85052311615836" lon="10.482295999412385"><ele>0.0</ele><time>2026-04-25T13:19:24Z</time></trkpt><trkpt lat="42.85057891548628" lon="10.482362761152562"><ele>0.0</ele><time>2026-04-25T13:19:25Z</time></trkpt><trkpt lat="42.85062947974215" lon="10.48242756587437"><ele>0.0</ele><time>2026-04-25T13:19:26Z</time></trkpt><trkpt lat="42.850707550438635" lon="10.482564648981407"><ele>0.0</ele><time>2026-04-25T13:19:28Z</time></trkpt><trkpt lat="42.85075811219635" lon="10.482635946906354"><ele>0.0</ele><time>2026-04-25T13:19:29Z</time></trkpt><trkpt lat="42.85080303507087" lon="10.482717373324064"><ele>0.0</ele><time>2026-04-25T13:19:30Z</time></trkpt><trkpt lat="42.85084931022678" lon="10.482783272129941"><ele>0.0</ele><time>2026-04-25T13:19:31Z</time></trkpt><trkpt lat="42.850901566703406" lon="10.482855360089038"><ele>0.0</ele><time>2026-04-25T13:19:32Z</time></trkpt><trkpt lat="42.850949762558834" lon="10.48291975073815"><ele>0.0</ele><time>2026-04-25T13:19:33Z</time></trkpt><trkpt lat="42.851034097780584" lon="10.483061008882608"><ele>0.0</ele><time>2026-04-25T13:19:35Z</time></trkpt><trkpt lat="42.85107383534407" lon="10.48313510189706"><ele>0.0</ele><time>2026-04-25T13:19:36Z</time></trkpt><trkpt lat="42.85113269896959" lon="10.483211433887556"><ele>0.0</ele><time>2026-04-25T13:19:37Z</time></trkpt><trkpt lat="42.8512277796521" lon="10.48334361873528"><ele>0.0</ele><time>2026-04-25T13:19:39Z</time></trkpt><trkpt lat="42.8512791563086" lon="10.483416492121181"><ele>0.0</ele><time>2026-04-25T13:19:40Z</time></trkpt><trkpt lat="42.85133008666481" lon="10.483486613621"><ele>0.0</ele><time>2026-04-25T13:19:41Z</time></trkpt><trkpt lat="42.8513766879301" lon="10.483560488791559"><ele>0.0</ele><time>2026-04-25T13:19:42Z</time></trkpt><trkpt lat="42.851429036074805" lon="10.483629277520523"><ele>0.0</ele><time>2026-04-25T13:19:43Z</time></trkpt><trkpt lat="42.85148200526327" lon="10.483697200146205"><ele>0.0</ele><time>2026-04-25T13:19:44Z</time></trkpt><trkpt lat="42.851529201405725" lon="10.483765039039541"><ele>0.0</ele><time>2026-04-25T13:19:45Z</time></trkpt><trkpt lat="42.85157900937614" lon="10.483839752493713"><ele>0.0</ele><time>2026-04-25T13:19:46Z</time></trkpt><trkpt lat="42.85162378718988" lon="10.48390858719925"><ele>0.0</ele><time>2026-04-25T13:19:47Z</time></trkpt><trkpt lat="42.851677597283356" lon="10.48397546037098"><ele>0.0</ele><time>2026-04-25T13:19:48Z</time></trkpt><trkpt lat="42.85173451536099" lon="10.484062533978014"><ele>0.0</ele><time>2026-04-25T13:19:49Z</time></trkpt><trkpt lat="42.851781419625674" lon="10.484142175413439"><ele>0.0</ele><time>2026-04-25T13:19:50Z</time></trkpt><trkpt lat="42.85189694020195" lon="10.484282472648054"><ele>0.0</ele><time>2026-04-25T13:19:52Z</time></trkpt><trkpt lat="42.85195826581736" lon="10.484359263230466"><ele>0.0</ele><time>2026-04-25T13:19:53Z</time></trkpt><trkpt lat="42.85199884234575" lon="10.484466925813253"><ele>0.0</ele><time>2026-04-25T13:19:54Z</time></trkpt><trkpt lat="42.85205086042532" lon="10.484552709023234"><ele>0.0</ele><time>2026-04-25T13:19:55Z</time></trkpt><trkpt lat="42.85209568293355" lon="10.484635731791078"><ele>0.0</ele><time>2026-04-25T13:19:56Z</time></trkpt><trkpt lat="42.85213482215975" lon="10.484720070817785"><ele>0.0</ele><time>2026-04-25T13:19:57Z</time></trkpt><trkpt lat="42.85218620383496" lon="10.48480097370021"><ele>0.0</ele><time>2026-04-25T13:19:58Z</time></trkpt><trkpt lat="42.8522379284986" lon="10.484872966616697"><ele>0.0</ele><time>2026-04-25T13:19:59Z</time></trkpt><trkpt lat="42.85228222846849" lon="10.484949832972104"><ele>0.0</ele><time>2026-04-25T13:20:00Z</time></trkpt><trkpt lat="42.85233772546612" lon="10.485035746277635"><ele>0.0</ele><time>2026-04-25T13:20:01Z</time></trkpt><trkpt lat="42.85239009135255" lon="10.485105438669287"><ele>0.0</ele><time>2026-04-25T13:20:02Z</time></trkpt><trkpt lat="42.852437468956126" lon="10.485179372053869"><ele>0.0</ele><time>2026-04-25T13:20:03Z</time></trkpt><trkpt lat="42.85248159426927" lon="10.485256698996189"><ele>0.0</ele><time>2026-04-25T13:20:04Z</time></trkpt><trkpt lat="42.85252694875911" lon="10.485331749945917"><ele>0.0</ele><time>2026-04-25T13:20:05Z</time></trkpt><trkpt lat="42.85257215197897" lon="10.485397307065538"><ele>0.0</ele><time>2026-04-25T13:20:06Z</time></trkpt><trkpt lat="42.85262467301287" lon="10.485462666078828"><ele>0.0</ele><time>2026-04-25T13:20:07Z</time></trkpt><trkpt lat="42.852717255740416" lon="10.485576143279058"><ele>0.0</ele><time>2026-04-25T13:20:09Z</time></trkpt><trkpt lat="42.85281078361578" lon="10.485715253391309"><ele>0.0</ele><time>2026-04-25T13:20:11Z</time></trkpt><trkpt lat="42.85285372101054" lon="10.485784828883405"><ele>0.0</ele><time>2026-04-25T13:20:12Z</time></trkpt><trkpt lat="42.85290513343454" lon="10.485854578627922"><ele>0.0</ele><time>2026-04-25T13:20:13Z</time></trkpt><trkpt lat="42.85296116710147" lon="10.485921054330346"><ele>0.0</ele><time>2026-04-25T13:20:14Z</time></trkpt><trkpt lat="42.853006133965" lon="10.48601521672706"><ele>0.0</ele><time>2026-04-25T13:20:15Z</time></trkpt><trkpt lat="42.85306761053436" lon="10.486103256954198"><ele>0.0</ele><time>2026-04-25T13:20:16Z</time></trkpt><trkpt lat="42.85311941689183" lon="10.486171515188046"><ele>0.0</ele><time>2026-04-25T13:20:17Z</time></trkpt><trkpt lat="42.853172929216775" lon="10.486254180813855"><ele>0.0</ele><time>2026-04-25T13:20:18Z</time></trkpt><trkpt lat="42.85322377455702" lon="10.48634121829025"><ele>0.0</ele><time>2026-04-25T13:20:19Z</time></trkpt><trkpt lat="42.853287058252754" lon="10.486400208636041"><ele>0.0</ele><time>2026-04-25T13:20:20Z</time></trkpt><trkpt lat="42.85340877545413" lon="10.486485882492063"><ele>0.0</ele><time>2026-04-25T13:20:22Z</time></trkpt><trkpt lat="42.85345922680701" lon="10.486552172461911"><ele>0.0</ele><time>2026-04-25T13:20:23Z</time></trkpt><trkpt lat="42.85350569359323" lon="10.486617190713922"><ele>0.0</ele><time>2026-04-25T13:20:24Z</time></trkpt><trkpt lat="42.85355316317344" lon="10.486681304346614"><ele>0.0</ele><time>2026-04-25T13:20:25Z</time></trkpt><trkpt lat="42.853601107815614" lon="10.48674297826465"><ele>0.0</ele><time>2026-04-25T13:20:26Z</time></trkpt><trkpt lat="42.85364916012263" lon="10.486803414837667"><ele>0.0</ele><time>2026-04-25T13:20:27Z</time></trkpt><trkpt lat="42.853695855810024" lon="10.486864523746064"><ele>0.0</ele><time>2026-04-25T13:20:28Z</time></trkpt><trkpt lat="42.85374511746092" lon="10.48692544599081"><ele>0.0</ele><time>2026-04-25T13:20:29Z</time></trkpt><trkpt lat="42.853792739135386" lon="10.486985896710204"><ele>0.0</ele><time>2026-04-25T13:20:30Z</time></trkpt><trkpt lat="42.85389941897004" lon="10.487064933805133"><ele>0.0</ele><time>2026-04-25T13:20:31Z</time></trkpt><trkpt lat="42.85396606111136" lon="10.487267264111772"><ele>0.0</ele><time>2026-04-25T13:20:33Z</time></trkpt><trkpt lat="42.854016546918054" lon="10.487371874965175"><ele>0.0</ele><time>2026-04-25T13:20:34Z</time></trkpt><trkpt lat="42.85406803732058" lon="10.487509010843846"><ele>0.0</ele><time>2026-04-25T13:20:35Z</time></trkpt><trkpt lat="42.85411224453435" lon="10.487596220047223"><ele>0.0</ele><time>2026-04-25T13:20:37Z</time></trkpt><trkpt lat="42.854162970574166" lon="10.4876698499537"><ele>0.0</ele><time>2026-04-25T13:20:38Z</time></trkpt><trkpt lat="42.854209744120766" lon="10.487747968227326"><ele>0.0</ele><time>2026-04-25T13:20:39Z</time></trkpt><trkpt lat="42.854297574702265" lon="10.487889421155865"><ele>0.0</ele><time>2026-04-25T13:20:41Z</time></trkpt><trkpt lat="42.854379501257135" lon="10.488009602073458"><ele>0.0</ele><time>2026-04-25T13:20:43Z</time></trkpt><trkpt lat="42.8544739817262" lon="10.488145271412586"><ele>0.0</ele><time>2026-04-25T13:20:45Z</time></trkpt><trkpt lat="42.85452213781818" lon="10.488210876266589"><ele>0.0</ele><time>2026-04-25T13:20:46Z</time></trkpt><trkpt lat="42.85456911518504" lon="10.48827006103699"><ele>0.0</ele><time>2026-04-25T13:20:47Z</time></trkpt><trkpt lat="42.854653114713045" lon="10.488399597448405"><ele>0.0</ele><time>2026-04-25T13:20:49Z</time></trkpt><trkpt lat="42.854708749998345" lon="10.488469654659788"><ele>0.0</ele><time>2026-04-25T13:20:50Z</time></trkpt><trkpt lat="42.854765619123015" lon="10.488545355272498"><ele>0.0</ele><time>2026-04-25T13:20:51Z</time></trkpt><trkpt lat="42.854815365731895" lon="10.488613018959619"><ele>0.0</ele><time>2026-04-25T13:20:52Z</time></trkpt><trkpt lat="42.854870454432536" lon="10.488689466952195"><ele>0.0</ele><time>2026-04-25T13:20:53Z</time></trkpt><trkpt lat="42.85492089401054" lon="10.488764358312947"><ele>0.0</ele><time>2026-04-25T13:20:54Z</time></trkpt><trkpt lat="42.85497878172466" lon="10.488832830693541"><ele>0.0</ele><time>2026-04-25T13:20:55Z</time></trkpt><trkpt lat="42.85503032939078" lon="10.488902356268953"><ele>0.0</ele><time>2026-04-25T13:20:56Z</time></trkpt><trkpt lat="42.85508160672454" lon="10.488972185090585"><ele>0.0</ele><time>2026-04-25T13:20:57Z</time></trkpt><trkpt lat="42.85513308646295" lon="10.489042469110093"><ele>0.0</ele><time>2026-04-25T13:20:58Z</time></trkpt><trkpt lat="42.85518626883196" lon="10.489111467092696"><ele>0.0</ele><time>2026-04-25T13:20:59Z</time></trkpt><trkpt lat="42.855239645881696" lon="10.489179955116086"><ele>0.0</ele><time>2026-04-25T13:21:00Z</time></trkpt><trkpt lat="42.85529440061934" lon="10.48924800563203"><ele>0.0</ele><time>2026-04-25T13:21:01Z</time></trkpt><trkpt lat="42.855348151207075" lon="10.489315881214727"><ele>0.0</ele><time>2026-04-25T13:21:02Z</time></trkpt><trkpt lat="42.855402216190136" lon="10.489384582111567"><ele>0.0</ele><time>2026-04-25T13:21:03Z</time></trkpt><trkpt lat="42.855457761460706" lon="10.489455977304559"><ele>0.0</ele><time>2026-04-25T13:21:04Z</time></trkpt><trkpt lat="42.85562578435525" lon="10.48953855528005"><ele>0.0</ele><time>2026-04-25T13:21:05Z</time></trkpt><trkpt lat="42.8556599858411" lon="10.489641028870675"><ele>0.0</ele><time>2026-04-25T13:21:06Z</time></trkpt><trkpt lat="42.85577140889534" lon="10.489751470109692"><ele>0.0</ele><time>2026-04-25T13:21:08Z</time></trkpt><trkpt lat="42.855861407530135" lon="10.489808955550593"><ele>0.0</ele><time>2026-04-25T13:21:09Z</time></trkpt><trkpt lat="42.85588493701685" lon="10.489895903811446"><ele>0.0</ele><time>2026-04-25T13:21:10Z</time></trkpt><trkpt lat="42.85592835547531" lon="10.490050088376108"><ele>0.0</ele><time>2026-04-25T13:21:12Z</time></trkpt><trkpt lat="42.855993393803416" lon="10.49013297714981"><ele>0.0</ele><time>2026-04-25T13:21:13Z</time></trkpt><trkpt lat="42.85606038162531" lon="10.490177426865323"><ele>0.0</ele><time>2026-04-25T13:21:14Z</time></trkpt><trkpt lat="42.85611339848576" lon="10.49026993591249"><ele>0.0</ele><time>2026-04-25T13:21:15Z</time></trkpt><trkpt lat="42.85621792452825" lon="10.490397159454588"><ele>0.0</ele><time>2026-04-25T13:21:16Z</time></trkpt><trkpt lat="42.8561073686016" lon="10.490398642449685"><ele>0.0</ele><time>2026-04-25T13:21:18Z</time></trkpt><trkpt lat="42.85616162548179" lon="10.490481389087115"><ele>0.0</ele><time>2026-04-25T13:21:19Z</time></trkpt><trkpt lat="42.85620336035846" lon="10.490579505959078"><ele>0.0</ele><time>2026-04-25T13:21:21Z</time></trkpt><trkpt lat="42.85629762988952" lon="10.490719524843056"><ele>0.0</ele><time>2026-04-25T13:21:23Z</time></trkpt><trkpt lat="42.85637730596323" lon="10.490862401852276"><ele>0.0</ele><time>2026-04-25T13:21:25Z</time></trkpt><trkpt lat="42.8564501882994" lon="10.490993096694861"><ele>0.0</ele><time>2026-04-25T13:21:27Z</time></trkpt><trkpt lat="42.856499629686375" lon="10.491065938055128"><ele>0.0</ele><time>2026-04-25T13:21:28Z</time></trkpt><trkpt lat="42.85654305155113" lon="10.491134525422066"><ele>0.0</ele><time>2026-04-25T13:21:29Z</time></trkpt><trkpt lat="42.85660450868029" lon="10.49119407466672"><ele>0.0</ele><time>2026-04-25T13:21:30Z</time></trkpt><trkpt lat="42.856678043695055" lon="10.491268127675633"><ele>0.0</ele><time>2026-04-25T13:21:31Z</time></trkpt><trkpt lat="42.856722908684674" lon="10.491329313997081"><ele>0.0</ele><time>2026-04-25T13:21:32Z</time></trkpt><trkpt lat="42.856761480316294" lon="10.491397481023535"><ele>0.0</ele><time>2026-04-25T13:21:33Z</time></trkpt><trkpt lat="42.856832008335154" lon="10.49152111815698"><ele>0.0</ele><time>2026-04-25T13:21:35Z</time></trkpt><trkpt lat="42.85690224735311" lon="10.491637805865523"><ele>0.0</ele><time>2026-04-25T13:21:36Z</time></trkpt><trkpt lat="42.85695273766788" lon="10.49171414697441"><ele>0.0</ele><time>2026-04-25T13:21:37Z</time></trkpt><trkpt lat="42.85704027750924" lon="10.491858185478389"><ele>0.0</ele><time>2026-04-25T13:21:39Z</time></trkpt><trkpt lat="42.85707942551364" lon="10.491931189057013"><ele>0.0</ele><time>2026-04-25T13:21:40Z</time></trkpt><trkpt lat="42.85712219147931" lon="10.49199434912893"><ele>0.0</ele><time>2026-04-25T13:21:41Z</time></trkpt><trkpt lat="42.85716801362363" lon="10.492070420157095"><ele>0.0</ele><time>2026-04-25T13:21:42Z</time></trkpt><trkpt lat="42.857221617866855" lon="10.492145775595551"><ele>0.0</ele><time>2026-04-25T13:21:43Z</time></trkpt><trkpt lat="42.85726737060126" lon="10.492211799871495"><ele>0.0</ele><time>2026-04-25T13:21:44Z</time></trkpt><trkpt lat="42.857317383800954" lon="10.492275495698724"><ele>0.0</ele><time>2026-04-25T13:21:45Z</time></trkpt><trkpt lat="42.85737108369822" lon="10.492352066986047"><ele>0.0</ele><time>2026-04-25T13:21:46Z</time></trkpt><trkpt lat="42.85741224033034" lon="10.492421031409673"><ele>0.0</ele><time>2026-04-25T13:21:47Z</time></trkpt><trkpt lat="42.85746142677455" lon="10.492500580186027"><ele>0.0</ele><time>2026-04-25T13:21:48Z</time></trkpt><trkpt lat="42.85750839281535" lon="10.492570727234598"><ele>0.0</ele><time>2026-04-25T13:21:49Z</time></trkpt><trkpt lat="42.85759901026815" lon="10.492691494666703"><ele>0.0</ele><time>2026-04-25T13:21:51Z</time></trkpt><trkpt lat="42.85768247092072" lon="10.492811562347644"><ele>0.0</ele><time>2026-04-25T13:21:53Z</time></trkpt><trkpt lat="42.85774063132825" lon="10.492888878450726"><ele>0.0</ele><time>2026-04-25T13:21:54Z</time></trkpt><trkpt lat="42.857785265924605" lon="10.492974049402461"><ele>0.0</ele><time>2026-04-25T13:21:55Z</time></trkpt><trkpt lat="42.857853136830556" lon="10.493053235654761"><ele>0.0</ele><time>2026-04-25T13:21:56Z</time></trkpt><trkpt lat="42.857905986531506" lon="10.493110080742643"><ele>0.0</ele><time>2026-04-25T13:21:57Z</time></trkpt><trkpt lat="42.85795741341463" lon="10.493184821604533"><ele>0.0</ele><time>2026-04-25T13:21:58Z</time></trkpt><trkpt lat="42.85800902684399" lon="10.493245675998311"><ele>0.0</ele><time>2026-04-25T13:21:59Z</time></trkpt><trkpt lat="42.858058889464935" lon="10.49331174736371"><ele>0.0</ele><time>2026-04-25T13:22:00Z</time></trkpt><trkpt lat="42.858110768325666" lon="10.493386696731172"><ele>0.0</ele><time>2026-04-25T13:22:01Z</time></trkpt><trkpt lat="42.85816532078522" lon="10.493464132638284"><ele>0.0</ele><time>2026-04-25T13:22:02Z</time></trkpt><trkpt lat="42.85822047277212" lon="10.493540047646542"><ele>0.0</ele><time>2026-04-25T13:22:03Z</time></trkpt><trkpt lat="42.85826791030763" lon="10.493616655007074"><ele>0.0</ele><time>2026-04-25T13:22:04Z</time></trkpt><trkpt lat="42.85831365290882" lon="10.493687928928136"><ele>0.0</ele><time>2026-04-25T13:22:05Z</time></trkpt><trkpt lat="42.8583702910952" lon="10.493733439535326"><ele>0.0</ele><time>2026-04-25T13:22:06Z</time></trkpt><trkpt lat="42.85841407927421" lon="10.493803263221388"><ele>0.0</ele><time>2026-04-25T13:22:07Z</time></trkpt><trkpt lat="42.858462776883016" lon="10.493865790208655"><ele>0.0</ele><time>2026-04-25T13:22:08Z</time></trkpt><trkpt lat="42.85850307398512" lon="10.493937655855024"><ele>0.0</ele><time>2026-04-25T13:22:09Z</time></trkpt><trkpt lat="42.858550781544594" lon="10.494013121319464"><ele>0.0</ele><time>2026-04-25T13:22:10Z</time></trkpt><trkpt lat="42.85859840540442" lon="10.494072809015234"><ele>0.0</ele><time>2026-04-25T13:22:11Z</time></trkpt><trkpt lat="42.858683656002015" lon="10.49418752176679"><ele>0.0</ele><time>2026-04-25T13:22:13Z</time></trkpt><trkpt lat="42.85875600645315" lon="10.494318522495625"><ele>0.0</ele><time>2026-04-25T13:22:15Z</time></trkpt><trkpt lat="42.85880609733699" lon="10.49439168015231"><ele>0.0</ele><time>2026-04-25T13:22:16Z</time></trkpt><trkpt lat="42.85885302612191" lon="10.494456842736477"><ele>0.0</ele><time>2026-04-25T13:22:17Z</time></trkpt><trkpt lat="42.858897639401924" lon="10.494522052250806"><ele>0.0</ele><time>2026-04-25T13:22:18Z</time></trkpt><trkpt lat="42.85894895380606" lon="10.494589948419431"><ele>0.0</ele><time>2026-04-25T13:22:19Z</time></trkpt><trkpt lat="42.859001294311255" lon="10.494647933774743"><ele>0.0</ele><time>2026-04-25T13:22:20Z</time></trkpt><trkpt lat="42.859048902538625" lon="10.494724055391327"><ele>0.0</ele><time>2026-04-25T13:22:21Z</time></trkpt><trkpt lat="42.85909029117768" lon="10.494793108195221"><ele>0.0</ele><time>2026-04-25T13:22:22Z</time></trkpt><trkpt lat="42.85913415939158" lon="10.494868354252894"><ele>0.0</ele><time>2026-04-25T13:22:23Z</time></trkpt><trkpt lat="42.8591756517874" lon="10.494935315087398"><ele>0.0</ele><time>2026-04-25T13:22:24Z</time></trkpt><trkpt lat="42.85922997567765" lon="10.495017052918701"><ele>0.0</ele><time>2026-04-25T13:22:25Z</time></trkpt><trkpt lat="42.859270215486774" lon="10.495088370946315"><ele>0.0</ele><time>2026-04-25T13:22:26Z</time></trkpt><trkpt lat="42.85933345597737" lon="10.495165442901136"><ele>0.0</ele><time>2026-04-25T13:22:27Z</time></trkpt><trkpt lat="42.859431390930254" lon="10.495312253628532"><ele>0.0</ele><time>2026-04-25T13:22:29Z</time></trkpt><trkpt lat="42.85948034783907" lon="10.495376123492024"><ele>0.0</ele><time>2026-04-25T13:22:30Z</time></trkpt><trkpt lat="42.859569846456914" lon="10.495500624500071"><ele>0.0</ele><time>2026-04-25T13:22:32Z</time></trkpt><trkpt lat="42.859613384868624" lon="10.495564731245135"><ele>0.0</ele><time>2026-04-25T13:22:33Z</time></trkpt><trkpt lat="42.859662937192546" lon="10.49563435652007"><ele>0.0</ele><time>2026-04-25T13:22:34Z</time></trkpt><trkpt lat="42.85971336455251" lon="10.495714956928861"><ele>0.0</ele><time>2026-04-25T13:22:35Z</time></trkpt><trkpt lat="42.85976002736022" lon="10.495784800018916"><ele>0.0</ele><time>2026-04-25T13:22:36Z</time></trkpt><trkpt lat="42.859832934902705" lon="10.495880722480445"><ele>0.0</ele><time>2026-04-25T13:22:37Z</time></trkpt><trkpt lat="42.8598933822804" lon="10.49596798626341"><ele>0.0</ele><time>2026-04-25T13:22:38Z</time></trkpt><trkpt lat="42.85995137593689" lon="10.496026963447338"><ele>0.0</ele><time>2026-04-25T13:22:39Z</time></trkpt><trkpt lat="42.86001381736925" lon="10.496094884781575"><ele>0.0</ele><time>2026-04-25T13:22:40Z</time></trkpt><trkpt lat="42.8601169992453" lon="10.496211668402065"><ele>0.0</ele><time>2026-04-25T13:22:42Z</time></trkpt><trkpt lat="42.86019497535295" lon="10.49634809369785"><ele>0.0</ele><time>2026-04-25T13:22:44Z</time></trkpt><trkpt lat="42.860242367952026" lon="10.496426039195423"><ele>0.0</ele><time>2026-04-25T13:22:45Z</time></trkpt><trkpt lat="42.860277136174396" lon="10.496505613577497"><ele>0.0</ele><time>2026-04-25T13:22:46Z</time></trkpt><trkpt lat="42.86037272496967" lon="10.49662956634197"><ele>0.0</ele><time>2026-04-25T13:22:48Z</time></trkpt><trkpt lat="42.86042858065538" lon="10.49669715666234"><ele>0.0</ele><time>2026-04-25T13:22:49Z</time></trkpt><trkpt lat="42.86047994936823" lon="10.496769910185527"><ele>0.0</ele><time>2026-04-25T13:22:50Z</time></trkpt><trkpt lat="42.86053008773808" lon="10.496845068530119"><ele>0.0</ele><time>2026-04-25T13:22:51Z</time></trkpt><trkpt lat="42.8606057659875" lon="10.496980366218516"><ele>0.0</ele><time>2026-04-25T13:22:53Z</time></trkpt><trkpt lat="42.860651377034124" lon="10.497048191512556"><ele>0.0</ele><time>2026-04-25T13:22:54Z</time></trkpt><trkpt lat="42.860700087960126" lon="10.497128923525574"><ele>0.0</ele><time>2026-04-25T13:22:55Z</time></trkpt><trkpt lat="42.86079055258413" lon="10.497269753410539"><ele>0.0</ele><time>2026-04-25T13:22:57Z</time></trkpt><trkpt lat="42.86082989560427" lon="10.497341150457554"><ele>0.0</ele><time>2026-04-25T13:22:58Z</time></trkpt><trkpt lat="42.86086565948763" lon="10.49743607808858"><ele>0.0</ele><time>2026-04-25T13:22:59Z</time></trkpt><trkpt lat="42.86090799603142" lon="10.497505492880293"><ele>0.0</ele><time>2026-04-25T13:23:00Z</time></trkpt><trkpt lat="42.86098737868183" lon="10.49763328054442"><ele>0.0</ele><time>2026-04-25T13:23:02Z</time></trkpt><trkpt lat="42.86103920398784" lon="10.49771977051747"><ele>0.0</ele><time>2026-04-25T13:23:03Z</time></trkpt><trkpt lat="42.861110116938434" lon="10.497837008726501"><ele>0.0</ele><time>2026-04-25T13:23:05Z</time></trkpt><trkpt lat="42.86116111966933" lon="10.497901164704032"><ele>0.0</ele><time>2026-04-25T13:23:06Z</time></trkpt><trkpt lat="42.861248985361684" lon="10.498034110342404"><ele>0.0</ele><time>2026-04-25T13:23:08Z</time></trkpt><trkpt lat="42.861298243623644" lon="10.498107593880006"><ele>0.0</ele><time>2026-04-25T13:23:09Z</time></trkpt><trkpt lat="42.86134460789413" lon="10.498198149760217"><ele>0.0</ele><time>2026-04-25T13:23:10Z</time></trkpt><trkpt lat="42.86139069155239" lon="10.498277093940656"><ele>0.0</ele><time>2026-04-25T13:23:11Z</time></trkpt><trkpt lat="42.86146520289114" lon="10.498405259028956"><ele>0.0</ele><time>2026-04-25T13:23:13Z</time></trkpt><trkpt lat="42.861535310970595" lon="10.498531427279605"><ele>0.0</ele><time>2026-04-25T13:23:15Z</time></trkpt><trkpt lat="42.861642971443445" lon="10.498680104503016"><ele>0.0</ele><time>2026-04-25T13:23:17Z</time></trkpt><trkpt lat="42.861725974336835" lon="10.498826074046088"><ele>0.0</ele><time>2026-04-25T13:23:19Z</time></trkpt><trkpt lat="42.86180583308147" lon="10.498960419911937"><ele>0.0</ele><time>2026-04-25T13:23:21Z</time></trkpt><trkpt lat="42.86184927758224" lon="10.499024108896618"><ele>0.0</ele><time>2026-04-25T13:23:22Z</time></trkpt><trkpt lat="42.86192527957132" lon="10.499119011192551"><ele>0.0</ele><time>2026-04-25T13:23:24Z</time></trkpt><trkpt lat="42.86201673510562" lon="10.499251878244321"><ele>0.0</ele><time>2026-04-25T13:23:26Z</time></trkpt><trkpt lat="42.86206875335326" lon="10.499327128040685"><ele>0.0</ele><time>2026-04-25T13:23:27Z</time></trkpt><trkpt lat="42.86217264962719" lon="10.499453617985239"><ele>0.0</ele><time>2026-04-25T13:23:29Z</time></trkpt><trkpt lat="42.862215263419685" lon="10.499517910005656"><ele>0.0</ele><time>2026-04-25T13:23:30Z</time></trkpt><trkpt lat="42.86230316610945" lon="10.499658282573645"><ele>0.0</ele><time>2026-04-25T13:23:32Z</time></trkpt><trkpt lat="42.862338200386176" lon="10.499737814232592"><ele>0.0</ele><time>2026-04-25T13:23:33Z</time></trkpt><trkpt lat="42.86240702007577" lon="10.499839261804757"><ele>0.0</ele><time>2026-04-25T13:23:35Z</time></trkpt><trkpt lat="42.86246062381011" lon="10.499912703826872"><ele>0.0</ele><time>2026-04-25T13:23:36Z</time></trkpt><trkpt lat="42.862519621425534" lon="10.499996542860657"><ele>0.0</ele><time>2026-04-25T13:23:37Z</time></trkpt><trkpt lat="42.86257826811063" lon="10.500075018070746"><ele>0.0</ele><time>2026-04-25T13:23:38Z</time></trkpt><trkpt lat="42.86263751814097" lon="10.500155832874299"><ele>0.0</ele><time>2026-04-25T13:23:39Z</time></trkpt><trkpt lat="42.862694221860366" lon="10.500228534110063"><ele>0.0</ele><time>2026-04-25T13:23:40Z</time></trkpt><trkpt lat="42.86275063820954" lon="10.50030173939798"><ele>0.0</ele><time>2026-04-25T13:23:41Z</time></trkpt><trkpt lat="42.862789726692434" lon="10.500370141458307"><ele>0.0</ele><time>2026-04-25T13:23:42Z</time></trkpt><trkpt lat="42.86284349338157" lon="10.500443159922526"><ele>0.0</ele><time>2026-04-25T13:23:43Z</time></trkpt><trkpt lat="42.86288927964576" lon="10.500509660524063"><ele>0.0</ele><time>2026-04-25T13:23:44Z</time></trkpt><trkpt lat="42.86294261726849" lon="10.500584044873095"><ele>0.0</ele><time>2026-04-25T13:23:45Z</time></trkpt><trkpt lat="42.86302120783143" lon="10.500728085050284"><ele>0.0</ele><time>2026-04-25T13:23:47Z</time></trkpt><trkpt lat="42.86307269123802" lon="10.500807322485878"><ele>0.0</ele><time>2026-04-25T13:23:48Z</time></trkpt><trkpt lat="42.86311882269264" lon="10.500869465544222"><ele>0.0</ele><time>2026-04-25T13:23:49Z</time></trkpt><trkpt lat="42.86319941500311" lon="10.500990605867665"><ele>0.0</ele><time>2026-04-25T13:23:51Z</time></trkpt><trkpt lat="42.863285674879414" lon="10.501131538428346"><ele>0.0</ele><time>2026-04-25T13:23:53Z</time></trkpt><trkpt lat="42.86332920601918" lon="10.501204560370958"><ele>0.0</ele><time>2026-04-25T13:23:54Z</time></trkpt><trkpt lat="42.86337054057443" lon="10.501286783257212"><ele>0.0</ele><time>2026-04-25T13:23:55Z</time></trkpt><trkpt lat="42.8634212417731" lon="10.501356019758946"><ele>0.0</ele><time>2026-04-25T13:23:56Z</time></trkpt><trkpt lat="42.86347188077097" lon="10.501421321767124"><ele>0.0</ele><time>2026-04-25T13:23:57Z</time></trkpt><trkpt lat="42.86356320448051" lon="10.501566614457296"><ele>0.0</ele><time>2026-04-25T13:23:59Z</time></trkpt><trkpt lat="42.86361125188762" lon="10.501635187334522"><ele>0.0</ele><time>2026-04-25T13:24:00Z</time></trkpt><trkpt lat="42.863664598578694" lon="10.501707537614266"><ele>0.0</ele><time>2026-04-25T13:24:01Z</time></trkpt><trkpt lat="42.8637124376304" lon="10.501781023362625"><ele>0.0</ele><time>2026-04-25T13:24:02Z</time></trkpt><trkpt lat="42.86377497380032" lon="10.501863309512238"><ele>0.0</ele><time>2026-04-25T13:24:03Z</time></trkpt><trkpt lat="42.86381685605452" lon="10.501938451493555"><ele>0.0</ele><time>2026-04-25T13:24:04Z</time></trkpt><trkpt lat="42.86390923649077" lon="10.502074697520031"><ele>0.0</ele><time>2026-04-25T13:24:06Z</time></trkpt><trkpt lat="42.86400024044416" lon="10.502195177292226"><ele>0.0</ele><time>2026-04-25T13:24:08Z</time></trkpt><trkpt lat="42.86407973582693" lon="10.502305533117214"><ele>0.0</ele><time>2026-04-25T13:24:10Z</time></trkpt><trkpt lat="42.864162537802635" lon="10.502448833973146"><ele>0.0</ele><time>2026-04-25T13:24:12Z</time></trkpt><trkpt lat="42.86419790591202" lon="10.502531075321345"><ele>0.0</ele><time>2026-04-25T13:24:13Z</time></trkpt><trkpt lat="42.86424203728094" lon="10.502594664175845"><ele>0.0</ele><time>2026-04-25T13:24:14Z</time></trkpt><trkpt lat="42.86429059696363" lon="10.502670710201155"><ele>0.0</ele><time>2026-04-25T13:24:15Z</time></trkpt><trkpt lat="42.8643486815227" lon="10.502760801108282"><ele>0.0</ele><time>2026-04-25T13:24:16Z</time></trkpt><trkpt lat="42.86439362189156" lon="10.502829869331217"><ele>0.0</ele><time>2026-04-25T13:24:17Z</time></trkpt><trkpt lat="42.86448496358353" lon="10.502954130236038"><ele>0.0</ele><time>2026-04-25T13:24:19Z</time></trkpt><trkpt lat="42.86453409822462" lon="10.503023562823302"><ele>0.0</ele><time>2026-04-25T13:24:20Z</time></trkpt><trkpt lat="42.86459074337397" lon="10.503099069261316"><ele>0.0</ele><time>2026-04-25T13:24:21Z</time></trkpt><trkpt lat="42.86464127792991" lon="10.503176139197535"><ele>0.0</ele><time>2026-04-25T13:24:22Z</time></trkpt><trkpt lat="42.8647011642354" lon="10.503246303592007"><ele>0.0</ele><time>2026-04-25T13:24:23Z</time></trkpt><trkpt lat="42.86475070825005" lon="10.503310583925018"><ele>0.0</ele><time>2026-04-25T13:24:24Z</time></trkpt><trkpt lat="42.86480142240101" lon="10.503383351634929"><ele>0.0</ele><time>2026-04-25T13:24:25Z</time></trkpt><trkpt lat="42.864855148882334" lon="10.503456927708235"><ele>0.0</ele><time>2026-04-25T13:24:26Z</time></trkpt><trkpt lat="42.86492387626744" lon="10.503540869161776"><ele>0.0</ele><time>2026-04-25T13:24:27Z</time></trkpt><trkpt lat="42.864968194191334" lon="10.503605301248202"><ele>0.0</ele><time>2026-04-25T13:24:28Z</time></trkpt><trkpt lat="42.86502110379737" lon="10.503681371512869"><ele>0.0</ele><time>2026-04-25T13:24:29Z</time></trkpt><trkpt lat="42.86506197308537" lon="10.503751349914852"><ele>0.0</ele><time>2026-04-25T13:24:30Z</time></trkpt><trkpt lat="42.86511727177368" lon="10.503816673221609"><ele>0.0</ele><time>2026-04-25T13:24:31Z</time></trkpt><trkpt lat="42.865168733643394" lon="10.503888819284594"><ele>0.0</ele><time>2026-04-25T13:24:32Z</time></trkpt><trkpt lat="42.865212780920075" lon="10.503950200898519"><ele>0.0</ele><time>2026-04-25T13:24:33Z</time></trkpt><trkpt lat="42.86525277571623" lon="10.50401807898311"><ele>0.0</ele><time>2026-04-25T13:24:34Z</time></trkpt><trkpt lat="42.865301873969834" lon="10.504095394263182"><ele>0.0</ele><time>2026-04-25T13:24:35Z</time></trkpt><trkpt lat="42.865353812198165" lon="10.504175026915002"><ele>0.0</ele><time>2026-04-25T13:24:36Z</time></trkpt><trkpt lat="42.86541680648328" lon="10.504266809097254"><ele>0.0</ele><time>2026-04-25T13:24:37Z</time></trkpt><trkpt lat="42.86546819832475" lon="10.504347266207828"><ele>0.0</ele><time>2026-04-25T13:24:38Z</time></trkpt><trkpt lat="42.865517101674676" lon="10.50441338056456"><ele>0.0</ele><time>2026-04-25T13:24:39Z</time></trkpt><trkpt lat="42.86557221606255" lon="10.504479698535404"><ele>0.0</ele><time>2026-04-25T13:24:40Z</time></trkpt><trkpt lat="42.86562543933503" lon="10.504548709125658"><ele>0.0</ele><time>2026-04-25T13:24:41Z</time></trkpt><trkpt lat="42.865671279741946" lon="10.504611813853948"><ele>0.0</ele><time>2026-04-25T13:24:42Z</time></trkpt><trkpt lat="42.86573616911889" lon="10.504683170617842"><ele>0.0</ele><time>2026-04-25T13:24:43Z</time></trkpt><trkpt lat="42.86579596988849" lon="10.504767565088098"><ele>0.0</ele><time>2026-04-25T13:24:44Z</time></trkpt><trkpt lat="42.865850282410634" lon="10.504849373275995"><ele>0.0</ele><time>2026-04-25T13:24:45Z</time></trkpt><trkpt lat="42.865910820275715" lon="10.504923237698277"><ele>0.0</ele><time>2026-04-25T13:24:46Z</time></trkpt><trkpt lat="42.86594904004046" lon="10.505009896449968"><ele>0.0</ele><time>2026-04-25T13:24:47Z</time></trkpt><trkpt lat="42.86600323607933" lon="10.505104181464505"><ele>0.0</ele><time>2026-04-25T13:24:48Z</time></trkpt><trkpt lat="42.86609090914781" lon="10.505236231994832"><ele>0.0</ele><time>2026-04-25T13:24:50Z</time></trkpt><trkpt lat="42.866146741937314" lon="10.505318711756933"><ele>0.0</ele><time>2026-04-25T13:24:51Z</time></trkpt><trkpt lat="42.86623187625414" lon="10.505439614025347"><ele>0.0</ele><time>2026-04-25T13:24:53Z</time></trkpt><trkpt lat="42.86630881702793" lon="10.505548803122647"><ele>0.0</ele><time>2026-04-25T13:24:55Z</time></trkpt><trkpt lat="42.866409397647566" lon="10.50567482178995"><ele>0.0</ele><time>2026-04-25T13:24:57Z</time></trkpt><trkpt lat="42.866463173010565" lon="10.505755041186113"><ele>0.0</ele><time>2026-04-25T13:24:58Z</time></trkpt><trkpt lat="42.86651424143553" lon="10.50582803868471"><ele>0.0</ele><time>2026-04-25T13:24:59Z</time></trkpt><trkpt lat="42.86656545560781" lon="10.50590033833365"><ele>0.0</ele><time>2026-04-25T13:25:00Z</time></trkpt><trkpt lat="42.86661880606344" lon="10.50597213446298"><ele>0.0</ele><time>2026-04-25T13:25:01Z</time></trkpt><trkpt lat="42.866665760493966" lon="10.506047941725061"><ele>0.0</ele><time>2026-04-25T13:25:02Z</time></trkpt><trkpt lat="42.86670970266627" lon="10.506117925448926"><ele>0.0</ele><time>2026-04-25T13:25:03Z</time></trkpt><trkpt lat="42.86675403980584" lon="10.506184034595492"><ele>0.0</ele><time>2026-04-25T13:25:04Z</time></trkpt><trkpt lat="42.86680784055651" lon="10.506273415243946"><ele>0.0</ele><time>2026-04-25T13:25:05Z</time></trkpt><trkpt lat="42.86690493678564" lon="10.506384852794804"><ele>0.0</ele><time>2026-04-25T13:25:07Z</time></trkpt><trkpt lat="42.8670026445001" lon="10.506494532018861"><ele>0.0</ele><time>2026-04-25T13:25:09Z</time></trkpt><trkpt lat="42.86709058602823" lon="10.506642019476084"><ele>0.0</ele><time>2026-04-25T13:25:11Z</time></trkpt><trkpt lat="42.86713175091963" lon="10.506732712455124"><ele>0.0</ele><time>2026-04-25T13:25:12Z</time></trkpt><trkpt lat="42.86717746027404" lon="10.506797451027051"><ele>0.0</ele><time>2026-04-25T13:25:13Z</time></trkpt><trkpt lat="42.86727044492356" lon="10.506929834039742"><ele>0.0</ele><time>2026-04-25T13:25:15Z</time></trkpt><trkpt lat="42.86732132088271" lon="10.507005316348218"><ele>0.0</ele><time>2026-04-25T13:25:16Z</time></trkpt><trkpt lat="42.86736645039566" lon="10.507067599339463"><ele>0.0</ele><time>2026-04-25T13:25:17Z</time></trkpt><trkpt lat="42.8674119701715" lon="10.507139358684054"><ele>0.0</ele><time>2026-04-25T13:25:18Z</time></trkpt><trkpt lat="42.86745781928287" lon="10.507202633595776"><ele>0.0</ele><time>2026-04-25T13:25:19Z</time></trkpt><trkpt lat="42.867502151628585" lon="10.507273454714728"><ele>0.0</ele><time>2026-04-25T13:25:20Z</time></trkpt><trkpt lat="42.86758013953573" lon="10.507391731380592"><ele>0.0</ele><time>2026-04-25T13:25:22Z</time></trkpt><trkpt lat="42.86764238105814" lon="10.507463623737799"><ele>0.0</ele><time>2026-04-25T13:25:23Z</time></trkpt><trkpt lat="42.86770374276331" lon="10.507538276169448"><ele>0.0</ele><time>2026-04-25T13:25:24Z</time></trkpt><trkpt lat="42.86780798676181" lon="10.50765791202389"><ele>0.0</ele><time>2026-04-25T13:25:26Z</time></trkpt><trkpt lat="42.86785350516349" lon="10.507718679463721"><ele>0.0</ele><time>2026-04-25T13:25:27Z</time></trkpt><trkpt lat="42.86790537433002" lon="10.50777557875"><ele>0.0</ele><time>2026-04-25T13:25:28Z</time></trkpt><trkpt lat="42.867956499792" lon="10.507855396316918"><ele>0.0</ele><time>2026-04-25T13:25:29Z</time></trkpt><trkpt lat="42.868036932480486" lon="10.507975913221527"><ele>0.0</ele><time>2026-04-25T13:25:31Z</time></trkpt><trkpt lat="42.868098610582884" lon="10.50805642421813"><ele>0.0</ele><time>2026-04-25T13:25:32Z</time></trkpt><trkpt lat="42.868199766634845" lon="10.508185124059683"><ele>0.0</ele><time>2026-04-25T13:25:34Z</time></trkpt><trkpt lat="42.868256272057366" lon="10.508255844837603"><ele>0.0</ele><time>2026-04-25T13:25:35Z</time></trkpt><trkpt lat="42.86830532315318" lon="10.508324289593586"><ele>0.0</ele><time>2026-04-25T13:25:36Z</time></trkpt><trkpt lat="42.8683612446147" lon="10.508404690826223"><ele>0.0</ele><time>2026-04-25T13:25:37Z</time></trkpt><trkpt lat="42.868433371043245" lon="10.508517662359838"><ele>0.0</ele><time>2026-04-25T13:25:39Z</time></trkpt><trkpt lat="42.86848380313201" lon="10.508587034686466"><ele>0.0</ele><time>2026-04-25T13:25:40Z</time></trkpt><trkpt lat="42.868533866940325" lon="10.508670692440566"><ele>0.0</ele><time>2026-04-25T13:25:41Z</time></trkpt><trkpt lat="42.86858148490119" lon="10.50873633947406"><ele>0.0</ele><time>2026-04-25T13:25:42Z</time></trkpt><trkpt lat="42.86867090294435" lon="10.508876694461096"><ele>0.0</ele><time>2026-04-25T13:25:44Z</time></trkpt><trkpt lat="42.86872089376307" lon="10.508942650925697"><ele>0.0</ele><time>2026-04-25T13:25:45Z</time></trkpt><trkpt lat="42.86876963186432" lon="10.509001038179548"><ele>0.0</ele><time>2026-04-25T13:25:46Z</time></trkpt><trkpt lat="42.86884994708787" lon="10.509128377423753"><ele>0.0</ele><time>2026-04-25T13:25:48Z</time></trkpt><trkpt lat="42.86893284409666" lon="10.509231766917816"><ele>0.0</ele><time>2026-04-25T13:25:50Z</time></trkpt><trkpt lat="42.868982760336806" lon="10.5092906630572"><ele>0.0</ele><time>2026-04-25T13:25:51Z</time></trkpt><trkpt lat="42.8690386850852" lon="10.509355153081602"><ele>0.0</ele><time>2026-04-25T13:25:52Z</time></trkpt><trkpt lat="42.8690851318981" lon="10.509416666992072"><ele>0.0</ele><time>2026-04-25T13:25:53Z</time></trkpt><trkpt lat="42.86913682173969" lon="10.509478769931684"><ele>0.0</ele><time>2026-04-25T13:25:54Z</time></trkpt><trkpt lat="42.86919066591178" lon="10.509544679962998"><ele>0.0</ele><time>2026-04-25T13:25:55Z</time></trkpt><trkpt lat="42.86925387025682" lon="10.509624258851812"><ele>0.0</ele><time>2026-04-25T13:25:56Z</time></trkpt><trkpt lat="42.869308398339854" lon="10.509681947622925"><ele>0.0</ele><time>2026-04-25T13:25:57Z</time></trkpt><trkpt lat="42.8693556333284" lon="10.509743711494759"><ele>0.0</ele><time>2026-04-25T13:25:58Z</time></trkpt><trkpt lat="42.8694041501183" lon="10.509807624407204"><ele>0.0</ele><time>2026-04-25T13:25:59Z</time></trkpt><trkpt lat="42.86950296145297" lon="10.509918216126117"><ele>0.0</ele><time>2026-04-25T13:26:01Z</time></trkpt><trkpt lat="42.86954485970278" lon="10.509986065415237"><ele>0.0</ele><time>2026-04-25T13:26:02Z</time></trkpt><trkpt lat="42.869596289529404" lon="10.510052311660809"><ele>0.0</ele><time>2026-04-25T13:26:03Z</time></trkpt><trkpt lat="42.86964729858921" lon="10.510122760716996"><ele>0.0</ele><time>2026-04-25T13:26:04Z</time></trkpt><trkpt lat="42.86969642571084" lon="10.510185829487654"><ele>0.0</ele><time>2026-04-25T13:26:05Z</time></trkpt><trkpt lat="42.86975194384925" lon="10.510261747388643"><ele>0.0</ele><time>2026-04-25T13:26:06Z</time></trkpt><trkpt lat="42.869850812178285" lon="10.510388304202674"><ele>0.0</ele><time>2026-04-25T13:26:08Z</time></trkpt><trkpt lat="42.869910539050885" lon="10.510471007022387"><ele>0.0</ele><time>2026-04-25T13:26:09Z</time></trkpt><trkpt lat="42.86995543528819" lon="10.510532230725682"><ele>0.0</ele><time>2026-04-25T13:26:10Z</time></trkpt><trkpt lat="42.87001496724093" lon="10.510612393179894"><ele>0.0</ele><time>2026-04-25T13:26:11Z</time></trkpt><trkpt lat="42.870065993424745" lon="10.510685674012205"><ele>0.0</ele><time>2026-04-25T13:26:12Z</time></trkpt><trkpt lat="42.87015281550506" lon="10.510807043301751"><ele>0.0</ele><time>2026-04-25T13:26:14Z</time></trkpt><trkpt lat="42.870207661802816" lon="10.510881340018638"><ele>0.0</ele><time>2026-04-25T13:26:15Z</time></trkpt><trkpt lat="42.87029358875338" lon="10.51100027518248"><ele>0.0</ele><time>2026-04-25T13:26:17Z</time></trkpt><trkpt lat="42.8703402200592" lon="10.511061456816696"><ele>0.0</ele><time>2026-04-25T13:26:18Z</time></trkpt><trkpt lat="42.87039280307775" lon="10.511134739024074"><ele>0.0</ele><time>2026-04-25T13:26:19Z</time></trkpt><trkpt lat="42.87044818835883" lon="10.511217661109093"><ele>0.0</ele><time>2026-04-25T13:26:20Z</time></trkpt><trkpt lat="42.87050877392786" lon="10.51129482683133"><ele>0.0</ele><time>2026-04-25T13:26:21Z</time></trkpt><trkpt lat="42.87056611084772" lon="10.511373902937754"><ele>0.0</ele><time>2026-04-25T13:26:22Z</time></trkpt><trkpt lat="42.87062088551047" lon="10.51146220102867"><ele>0.0</ele><time>2026-04-25T13:26:23Z</time></trkpt><trkpt lat="42.87069049410459" lon="10.511555244969054"><ele>0.0</ele><time>2026-04-25T13:26:24Z</time></trkpt><trkpt lat="42.87076071198954" lon="10.5116262825788"><ele>0.0</ele><time>2026-04-25T13:26:25Z</time></trkpt><trkpt lat="42.870831285136695" lon="10.511747889112062"><ele>0.0</ele><time>2026-04-25T13:26:27Z</time></trkpt><trkpt lat="42.87088843590275" lon="10.51181549267153"><ele>0.0</ele><time>2026-04-25T13:26:28Z</time></trkpt><trkpt lat="42.87093732326507" lon="10.511882602799044"><ele>0.0</ele><time>2026-04-25T13:26:29Z</time></trkpt><trkpt lat="42.870998418688224" lon="10.511965370789389"><ele>0.0</ele><time>2026-04-25T13:26:30Z</time></trkpt><trkpt lat="42.87105618604689" lon="10.512024944859618"><ele>0.0</ele><time>2026-04-25T13:26:31Z</time></trkpt><trkpt lat="42.871121051026286" lon="10.512113145187131"><ele>0.0</ele><time>2026-04-25T13:26:32Z</time></trkpt><trkpt lat="42.87120437711655" lon="10.51223079815569"><ele>0.0</ele><time>2026-04-25T13:26:34Z</time></trkpt><trkpt lat="42.871253003101536" lon="10.512288720962685"><ele>0.0</ele><time>2026-04-25T13:26:35Z</time></trkpt><trkpt lat="42.87131333097331" lon="10.512367745601656"><ele>0.0</ele><time>2026-04-25T13:26:36Z</time></trkpt><trkpt lat="42.87138061177479" lon="10.512462893798945"><ele>0.0</ele><time>2026-04-25T13:26:38Z</time></trkpt><trkpt lat="42.87142976603656" lon="10.5125203349929"><ele>0.0</ele><time>2026-04-25T13:26:39Z</time></trkpt><trkpt lat="42.871476328629775" lon="10.51258821345923"><ele>0.0</ele><time>2026-04-25T13:26:40Z</time></trkpt><trkpt lat="42.87152942527367" lon="10.512652732837147"><ele>0.0</ele><time>2026-04-25T13:26:41Z</time></trkpt><trkpt lat="42.87158339786332" lon="10.512725571497963"><ele>0.0</ele><time>2026-04-25T13:26:42Z</time></trkpt><trkpt lat="42.871630645551114" lon="10.512789639477083"><ele>0.0</ele><time>2026-04-25T13:26:43Z</time></trkpt><trkpt lat="42.87167526197729" lon="10.512853593072649"><ele>0.0</ele><time>2026-04-25T13:26:44Z</time></trkpt><trkpt lat="42.87172506571735" lon="10.512912488346853"><ele>0.0</ele><time>2026-04-25T13:26:45Z</time></trkpt><trkpt lat="42.87178367813356" lon="10.512979754647459"><ele>0.0</ele><time>2026-04-25T13:26:46Z</time></trkpt><trkpt lat="42.87184172507213" lon="10.51305138665654"><ele>0.0</ele><time>2026-04-25T13:26:47Z</time></trkpt><trkpt lat="42.87191401571694" lon="10.513141945482097"><ele>0.0</ele><time>2026-04-25T13:26:48Z</time></trkpt><trkpt lat="42.87198681066439" lon="10.513232067295167"><ele>0.0</ele><time>2026-04-25T13:26:49Z</time></trkpt><trkpt lat="42.87204101840298" lon="10.513302490225055"><ele>0.0</ele><time>2026-04-25T13:26:50Z</time></trkpt><trkpt lat="42.87209400066794" lon="10.513382403478206"><ele>0.0</ele><time>2026-04-25T13:26:51Z</time></trkpt><trkpt lat="42.87215151116982" lon="10.513462052486304"><ele>0.0</ele><time>2026-04-25T13:26:52Z</time></trkpt><trkpt lat="42.87220025726941" lon="10.513528996954538"><ele>0.0</ele><time>2026-04-25T13:26:53Z</time></trkpt><trkpt lat="42.87229727228221" lon="10.513647015210088"><ele>0.0</ele><time>2026-04-25T13:26:55Z</time></trkpt><trkpt lat="42.872354438265084" lon="10.513721458240848"><ele>0.0</ele><time>2026-04-25T13:26:56Z</time></trkpt><trkpt lat="42.87241130056568" lon="10.513784659187792"><ele>0.0</ele><time>2026-04-25T13:26:57Z</time></trkpt><trkpt lat="42.87248687346848" lon="10.513878163604408"><ele>0.0</ele><time>2026-04-25T13:26:59Z</time></trkpt><trkpt lat="42.872586728883284" lon="10.513999230663394"><ele>0.0</ele><time>2026-04-25T13:27:01Z</time></trkpt><trkpt lat="42.872641925762224" lon="10.514079957754483"><ele>0.0</ele><time>2026-04-25T13:27:02Z</time></trkpt><trkpt lat="42.8726917504564" lon="10.51414096658706"><ele>0.0</ele><time>2026-04-25T13:27:03Z</time></trkpt><trkpt lat="42.872736860061245" lon="10.514207697339279"><ele>0.0</ele><time>2026-04-25T13:27:04Z</time></trkpt><trkpt lat="42.872840121576395" lon="10.514341628191568"><ele>0.0</ele><time>2026-04-25T13:27:06Z</time></trkpt><trkpt lat="42.872893289104574" lon="10.514413229517706"><ele>0.0</ele><time>2026-04-25T13:27:07Z</time></trkpt><trkpt lat="42.87294831023939" lon="10.514488691005733"><ele>0.0</ele><time>2026-04-25T13:27:08Z</time></trkpt><trkpt lat="42.873001265821415" lon="10.514553671156103"><ele>0.0</ele><time>2026-04-25T13:27:09Z</time></trkpt><trkpt lat="42.873054731838764" lon="10.514618691778693"><ele>0.0</ele><time>2026-04-25T13:27:10Z</time></trkpt><trkpt lat="42.8731131295628" lon="10.514694712267357"><ele>0.0</ele><time>2026-04-25T13:27:11Z</time></trkpt><trkpt lat="42.8732125279561" lon="10.514842108470418"><ele>0.0</ele><time>2026-04-25T13:27:13Z</time></trkpt><trkpt lat="42.87326393303556" lon="10.514920674327383"><ele>0.0</ele><time>2026-04-25T13:27:14Z</time></trkpt><trkpt lat="42.87331799000755" lon="10.514994298747512"><ele>0.0</ele><time>2026-04-25T13:27:15Z</time></trkpt><trkpt lat="42.87336937301142" lon="10.515056439323239"><ele>0.0</ele><time>2026-04-25T13:27:16Z</time></trkpt><trkpt lat="42.873441311116046" lon="10.515150367181501"><ele>0.0</ele><time>2026-04-25T13:27:18Z</time></trkpt><trkpt lat="42.87352394222686" lon="10.515256394030594"><ele>0.0</ele><time>2026-04-25T13:27:20Z</time></trkpt><trkpt lat="42.87359338369606" lon="10.515356967448598"><ele>0.0</ele><time>2026-04-25T13:27:21Z</time></trkpt><trkpt lat="42.873649802237544" lon="10.515432389066726"><ele>0.0</ele><time>2026-04-25T13:27:22Z</time></trkpt><trkpt lat="42.87369256744567" lon="10.515499037371015"><ele>0.0</ele><time>2026-04-25T13:27:23Z</time></trkpt><trkpt lat="42.873738793789286" lon="10.515563835667518"><ele>0.0</ele><time>2026-04-25T13:27:24Z</time></trkpt><trkpt lat="42.87378401746342" lon="10.515628634907769"><ele>0.0</ele><time>2026-04-25T13:27:25Z</time></trkpt><trkpt lat="42.87387037791018" lon="10.51573779277395"><ele>0.0</ele><time>2026-04-25T13:27:27Z</time></trkpt><trkpt lat="42.8739227381169" lon="10.515804650496706"><ele>0.0</ele><time>2026-04-25T13:27:28Z</time></trkpt><trkpt lat="42.87401332227833" lon="10.515911933719892"><ele>0.0</ele><time>2026-04-25T13:27:30Z</time></trkpt><trkpt lat="42.87406085746268" lon="10.515980953543638"><ele>0.0</ele><time>2026-04-25T13:27:31Z</time></trkpt><trkpt lat="42.87411522974192" lon="10.516031852749043"><ele>0.0</ele><time>2026-04-25T13:27:32Z</time></trkpt><trkpt lat="42.874189263592555" lon="10.516125770533039"><ele>0.0</ele><time>2026-04-25T13:27:33Z</time></trkpt><trkpt lat="42.874250219263864" lon="10.516202521800436"><ele>0.0</ele><time>2026-04-25T13:27:34Z</time></trkpt><trkpt lat="42.87430295202706" lon="10.51626660651807"><ele>0.0</ele><time>2026-04-25T13:27:35Z</time></trkpt><trkpt lat="42.87436190248583" lon="10.516338433353841"><ele>0.0</ele><time>2026-04-25T13:27:36Z</time></trkpt><trkpt lat="42.87441604640553" lon="10.516406954088676"><ele>0.0</ele><time>2026-04-25T13:27:37Z</time></trkpt><trkpt lat="42.87448347638947" lon="10.516490250868118"><ele>0.0</ele><time>2026-04-25T13:27:38Z</time></trkpt><trkpt lat="42.874538546456336" lon="10.516550972341511"><ele>0.0</ele><time>2026-04-25T13:27:39Z</time></trkpt><trkpt lat="42.87460347242543" lon="10.516615130137557"><ele>0.0</ele><time>2026-04-25T13:27:40Z</time></trkpt><trkpt lat="42.87467908297854" lon="10.51672826581736"><ele>0.0</ele><time>2026-04-25T13:27:42Z</time></trkpt><trkpt lat="42.874729113741196" lon="10.516780789041348"><ele>0.0</ele><time>2026-04-25T13:27:43Z</time></trkpt><trkpt lat="42.87480479388538" lon="10.516901576458029"><ele>0.0</ele><time>2026-04-25T13:27:45Z</time></trkpt><trkpt lat="42.87490471704556" lon="10.517006629697816"><ele>0.0</ele><time>2026-04-25T13:27:47Z</time></trkpt><trkpt lat="42.87495116770255" lon="10.51707064725755"><ele>0.0</ele><time>2026-04-25T13:27:48Z</time></trkpt><trkpt lat="42.875004075195214" lon="10.517124698018218"><ele>0.0</ele><time>2026-04-25T13:27:49Z</time></trkpt><trkpt lat="42.87505525687259" lon="10.517185565108003"><ele>0.0</ele><time>2026-04-25T13:27:50Z</time></trkpt><trkpt lat="42.87510469262037" lon="10.517247794973537"><ele>0.0</ele><time>2026-04-25T13:27:51Z</time></trkpt><trkpt lat="42.87515302215702" lon="10.517311689105979"><ele>0.0</ele><time>2026-04-25T13:27:52Z</time></trkpt><trkpt lat="42.875204291088494" lon="10.517370717024292"><ele>0.0</ele><time>2026-04-25T13:27:53Z</time></trkpt><trkpt lat="42.875279948796894" lon="10.517502914120584"><ele>0.0</ele><time>2026-04-25T13:27:55Z</time></trkpt><trkpt lat="42.87534202642915" lon="10.517584412427324"><ele>0.0</ele><time>2026-04-25T13:27:56Z</time></trkpt><trkpt lat="42.87541389079439" lon="10.517715849682116"><ele>0.0</ele><time>2026-04-25T13:27:57Z</time></trkpt><trkpt lat="42.87546316921055" lon="10.517777723343867"><ele>0.0</ele><time>2026-04-25T13:27:58Z</time></trkpt><trkpt lat="42.87555235750668" lon="10.517871253195759"><ele>0.0</ele><time>2026-04-25T13:28:00Z</time></trkpt><trkpt lat="42.875659282805074" lon="10.517997779451083"><ele>0.0</ele><time>2026-04-25T13:28:02Z</time></trkpt><trkpt lat="42.87570711734681" lon="10.518070947560254"><ele>0.0</ele><time>2026-04-25T13:28:03Z</time></trkpt><trkpt lat="42.87580066842023" lon="10.518199176670038"><ele>0.0</ele><time>2026-04-25T13:28:05Z</time></trkpt><trkpt lat="42.87584411209868" lon="10.518262123898753"><ele>0.0</ele><time>2026-04-25T13:28:06Z</time></trkpt><trkpt lat="42.875893216542174" lon="10.518325205354648"><ele>0.0</ele><time>2026-04-25T13:28:07Z</time></trkpt><trkpt lat="42.87593772857705" lon="10.5183866514428"><ele>0.0</ele><time>2026-04-25T13:28:08Z</time></trkpt><trkpt lat="42.87599061544526" lon="10.51845488351943"><ele>0.0</ele><time>2026-04-25T13:28:09Z</time></trkpt><trkpt lat="42.87604459999057" lon="10.5185287428767"><ele>0.0</ele><time>2026-04-25T13:28:10Z</time></trkpt><trkpt lat="42.87609490016822" lon="10.518587260612259"><ele>0.0</ele><time>2026-04-25T13:28:11Z</time></trkpt><trkpt lat="42.8761417089912" lon="10.518651705348018"><ele>0.0</ele><time>2026-04-25T13:28:12Z</time></trkpt><trkpt lat="42.87619656809181" lon="10.518719137779321"><ele>0.0</ele><time>2026-04-25T13:28:13Z</time></trkpt><trkpt lat="42.87624659262926" lon="10.518781340916908"><ele>0.0</ele><time>2026-04-25T13:28:14Z</time></trkpt><trkpt lat="42.87630085746415" lon="10.518846866528591"><ele>0.0</ele><time>2026-04-25T13:28:15Z</time></trkpt><trkpt lat="42.87635799359836" lon="10.518911800233376"><ele>0.0</ele><time>2026-04-25T13:28:16Z</time></trkpt><trkpt lat="42.87642169200129" lon="10.518990428598949"><ele>0.0</ele><time>2026-04-25T13:28:17Z</time></trkpt><trkpt lat="42.87648310210985" lon="10.519065546936854"><ele>0.0</ele><time>2026-04-25T13:28:18Z</time></trkpt><trkpt lat="42.8765721514601" lon="10.519164710552966"><ele>0.0</ele><time>2026-04-25T13:28:19Z</time></trkpt><trkpt lat="42.876670690111986" lon="10.519295716702029"><ele>0.0</ele><time>2026-04-25T13:28:21Z</time></trkpt><trkpt lat="42.87672647004998" lon="10.51936645137268"><ele>0.0</ele><time>2026-04-25T13:28:22Z</time></trkpt><trkpt lat="42.87677746854562" lon="10.519435022416864"><ele>0.0</ele><time>2026-04-25T13:28:23Z</time></trkpt><trkpt lat="42.87684356434744" lon="10.519553191512802"><ele>0.0</ele><time>2026-04-25T13:28:25Z</time></trkpt><trkpt lat="42.87689357977447" lon="10.519617119103644"><ele>0.0</ele><time>2026-04-25T13:28:27Z</time></trkpt><trkpt lat="42.876940969995395" lon="10.519692214895613"><ele>0.0</ele><time>2026-04-25T13:28:28Z</time></trkpt><trkpt lat="42.87700733951538" lon="10.519772872940713"><ele>0.0</ele><time>2026-04-25T13:28:29Z</time></trkpt><trkpt lat="42.87706189788613" lon="10.519843947674778"><ele>0.0</ele><time>2026-04-25T13:28:30Z</time></trkpt><trkpt lat="42.87711158491426" lon="10.51991317863134"><ele>0.0</ele><time>2026-04-25T13:28:31Z</time></trkpt><trkpt lat="42.87715622843229" lon="10.519979431245185"><ele>0.0</ele><time>2026-04-25T13:28:32Z</time></trkpt><trkpt lat="42.87720210816123" lon="10.520051868738081"><ele>0.0</ele><time>2026-04-25T13:28:33Z</time></trkpt><trkpt lat="42.87727310460984" lon="10.520118266532428"><ele>0.0</ele><time>2026-04-25T13:28:34Z</time></trkpt><trkpt lat="42.877321736377574" lon="10.520186900716501"><ele>0.0</ele><time>2026-04-25T13:28:35Z</time></trkpt><trkpt lat="42.877389332178495" lon="10.52030440170221"><ele>0.0</ele><time>2026-04-25T13:28:37Z</time></trkpt><trkpt lat="42.877445419658656" lon="10.520371876754142"><ele>0.0</ele><time>2026-04-25T13:28:38Z</time></trkpt><trkpt lat="42.877495278579154" lon="10.520437906666624"><ele>0.0</ele><time>2026-04-25T13:28:39Z</time></trkpt><trkpt lat="42.877572134305794" lon="10.52054463242762"><ele>0.0</ele><time>2026-04-25T13:28:41Z</time></trkpt><trkpt lat="42.877627944307235" lon="10.52061467997229"><ele>0.0</ele><time>2026-04-25T13:28:42Z</time></trkpt><trkpt lat="42.877677599051935" lon="10.520688875273772"><ele>0.0</ele><time>2026-04-25T13:28:43Z</time></trkpt><trkpt lat="42.877737027880144" lon="10.520747712818553"><ele>0.0</ele><time>2026-04-25T13:28:44Z</time></trkpt><trkpt lat="42.87778761369607" lon="10.520821573330682"><ele>0.0</ele><time>2026-04-25T13:28:45Z</time></trkpt><trkpt lat="42.877833558433316" lon="10.520881192435933"><ele>0.0</ele><time>2026-04-25T13:28:46Z</time></trkpt><trkpt lat="42.87789872000194" lon="10.520962176761106"><ele>0.0</ele><time>2026-04-25T13:28:47Z</time></trkpt><trkpt lat="42.87795462511514" lon="10.521025252132505"><ele>0.0</ele><time>2026-04-25T13:28:48Z</time></trkpt><trkpt lat="42.8780143466399" lon="10.521094848402909"><ele>0.0</ele><time>2026-04-25T13:28:49Z</time></trkpt><trkpt lat="42.87807084609415" lon="10.521165367832422"><ele>0.0</ele><time>2026-04-25T13:28:50Z</time></trkpt><trkpt lat="42.87815267157078" lon="10.521290831665969"><ele>0.0</ele><time>2026-04-25T13:28:52Z</time></trkpt><trkpt lat="42.878205314041246" lon="10.521368508180661"><ele>0.0</ele><time>2026-04-25T13:28:53Z</time></trkpt><trkpt lat="42.87824775642951" lon="10.52143530957981"><ele>0.0</ele><time>2026-04-25T13:28:54Z</time></trkpt><trkpt lat="42.878327493106966" lon="10.521554459992064"><ele>0.0</ele><time>2026-04-25T13:28:56Z</time></trkpt><trkpt lat="42.87838035801109" lon="10.521631141720759"><ele>0.0</ele><time>2026-04-25T13:28:57Z</time></trkpt><trkpt lat="42.878483345757495" lon="10.521758058546883"><ele>0.0</ele><time>2026-04-25T13:28:59Z</time></trkpt><trkpt lat="42.87857032731377" lon="10.521889333259216"><ele>0.0</ele><time>2026-04-25T13:29:01Z</time></trkpt><trkpt lat="42.87865923723612" lon="10.52199296508947"><ele>0.0</ele><time>2026-04-25T13:29:03Z</time></trkpt><trkpt lat="42.878701888024956" lon="10.522069103981146"><ele>0.0</ele><time>2026-04-25T13:29:04Z</time></trkpt><trkpt lat="42.87882123539275" lon="10.522215808603429"><ele>0.0</ele><time>2026-04-25T13:29:06Z</time></trkpt><trkpt lat="42.87888350905343" lon="10.52227808304523"><ele>0.0</ele><time>2026-04-25T13:29:07Z</time></trkpt><trkpt lat="42.87892818306486" lon="10.522342062463538"><ele>0.0</ele><time>2026-04-25T13:29:08Z</time></trkpt><trkpt lat="42.87902204597967" lon="10.522457043469867"><ele>0.0</ele><time>2026-04-25T13:29:10Z</time></trkpt><trkpt lat="42.87910325781907" lon="10.522575772879948"><ele>0.0</ele><time>2026-04-25T13:29:12Z</time></trkpt><trkpt lat="42.87916765004733" lon="10.52264365701595"><ele>0.0</ele><time>2026-04-25T13:29:13Z</time></trkpt><trkpt lat="42.8792161241815" lon="10.522708485382191"><ele>0.0</ele><time>2026-04-25T13:29:14Z</time></trkpt><trkpt lat="42.879270385374966" lon="10.52276427982634"><ele>0.0</ele><time>2026-04-25T13:29:15Z</time></trkpt><trkpt lat="42.879368957618226" lon="10.52290409560462"><ele>0.0</ele><time>2026-04-25T13:29:17Z</time></trkpt><trkpt lat="42.87948436510973" lon="10.523009661935975"><ele>0.0</ele><time>2026-04-25T13:29:19Z</time></trkpt><trkpt lat="42.87953278636547" lon="10.5231239842853"><ele>0.0</ele><time>2026-04-25T13:29:21Z</time></trkpt><trkpt lat="42.87958654504773" lon="10.523194959479646"><ele>0.0</ele><time>2026-04-25T13:29:22Z</time></trkpt><trkpt lat="42.879651837725284" lon="10.52327356809229"><ele>0.0</ele><time>2026-04-25T13:29:23Z</time></trkpt><trkpt lat="42.879719861353585" lon="10.523327697295722"><ele>0.0</ele><time>2026-04-25T13:29:24Z</time></trkpt><trkpt lat="42.879869509257624" lon="10.523479180925934"><ele>0.0</ele><time>2026-04-25T13:29:26Z</time></trkpt><trkpt lat="42.87992674003372" lon="10.523549984317171"><ele>0.0</ele><time>2026-04-25T13:29:27Z</time></trkpt><trkpt lat="42.87996832938346" lon="10.52361745886535"><ele>0.0</ele><time>2026-04-25T13:29:28Z</time></trkpt><trkpt lat="42.88002620048034" lon="10.52369481241301"><ele>0.0</ele><time>2026-04-25T13:29:29Z</time></trkpt><trkpt lat="42.88007447586002" lon="10.523768086535917"><ele>0.0</ele><time>2026-04-25T13:29:30Z</time></trkpt><trkpt lat="42.880147506908294" lon="10.52386717274837"><ele>0.0</ele><time>2026-04-25T13:29:31Z</time></trkpt><trkpt lat="42.880217886820404" lon="10.523981547520911"><ele>0.0</ele><time>2026-04-25T13:29:33Z</time></trkpt><trkpt lat="42.8803064094562" lon="10.524074588009102"><ele>0.0</ele><time>2026-04-25T13:29:35Z</time></trkpt><trkpt lat="42.88037720018182" lon="10.52418724705408"><ele>0.0</ele><time>2026-04-25T13:29:37Z</time></trkpt><trkpt lat="42.88043202670199" lon="10.52425227678362"><ele>0.0</ele><time>2026-04-25T13:29:38Z</time></trkpt><trkpt lat="42.880491804786374" lon="10.5243615579678"><ele>0.0</ele><time>2026-04-25T13:29:40Z</time></trkpt><trkpt lat="42.88055573856047" lon="10.524439437174598"><ele>0.0</ele><time>2026-04-25T13:29:41Z</time></trkpt><trkpt lat="42.880607967206416" lon="10.52451222035228"><ele>0.0</ele><time>2026-04-25T13:29:42Z</time></trkpt><trkpt lat="42.88065754804309" lon="10.524583802086303"><ele>0.0</ele><time>2026-04-25T13:29:43Z</time></trkpt><trkpt lat="42.88074851395212" lon="10.524705197028755"><ele>0.0</ele><time>2026-04-25T13:29:45Z</time></trkpt><trkpt lat="42.880800443260384" lon="10.524776366201017"><ele>0.0</ele><time>2026-04-25T13:29:46Z</time></trkpt><trkpt lat="42.880844127026116" lon="10.52484348632862"><ele>0.0</ele><time>2026-04-25T13:29:47Z</time></trkpt><trkpt lat="42.8809301146054" lon="10.524996248056812"><ele>0.0</ele><time>2026-04-25T13:29:49Z</time></trkpt><trkpt lat="42.88103546386687" lon="10.525097466525263"><ele>0.0</ele><time>2026-04-25T13:29:51Z</time></trkpt><trkpt lat="42.881088721630405" lon="10.525174574029064"><ele>0.0</ele><time>2026-04-25T13:29:52Z</time></trkpt><trkpt lat="42.88113973165276" lon="10.525241051877519"><ele>0.0</ele><time>2026-04-25T13:29:53Z</time></trkpt><trkpt lat="42.88122187533984" lon="10.5253539245729"><ele>0.0</ele><time>2026-04-25T13:29:55Z</time></trkpt><trkpt lat="42.88133643948115" lon="10.525504821800018"><ele>0.0</ele><time>2026-04-25T13:29:57Z</time></trkpt><trkpt lat="42.88140183585099" lon="10.525592531912647"><ele>0.0</ele><time>2026-04-25T13:29:58Z</time></trkpt><trkpt lat="42.881446211282" lon="10.52566925337284"><ele>0.0</ele><time>2026-04-25T13:29:59Z</time></trkpt><trkpt lat="42.88156691608658" lon="10.525811718398476"><ele>0.0</ele><time>2026-04-25T13:30:01Z</time></trkpt><trkpt lat="42.881639997660706" lon="10.525878022681278"><ele>0.0</ele><time>2026-04-25T13:30:02Z</time></trkpt><trkpt lat="42.88173809334409" lon="10.525972216331162"><ele>0.0</ele><time>2026-04-25T13:30:04Z</time></trkpt><trkpt lat="42.88179542295956" lon="10.52604067226245"><ele>0.0</ele><time>2026-04-25T13:30:05Z</time></trkpt><trkpt lat="42.88187351764811" lon="10.526157994396478"><ele>0.0</ele><time>2026-04-25T13:30:07Z</time></trkpt><trkpt lat="42.881919869390956" lon="10.526225811597412"><ele>0.0</ele><time>2026-04-25T13:30:08Z</time></trkpt><trkpt lat="42.881981600274514" lon="10.526304327380375"><ele>0.0</ele><time>2026-04-25T13:30:09Z</time></trkpt><trkpt lat="42.88203461862014" lon="10.526373139339075"><ele>0.0</ele><time>2026-04-25T13:30:10Z</time></trkpt><trkpt lat="42.882085999298766" lon="10.526443590137083"><ele>0.0</ele><time>2026-04-25T13:30:11Z</time></trkpt><trkpt lat="42.88214706501066" lon="10.526516649459317"><ele>0.0</ele><time>2026-04-25T13:30:12Z</time></trkpt><trkpt lat="42.88224244161924" lon="10.526634006626551"><ele>0.0</ele><time>2026-04-25T13:30:14Z</time></trkpt><trkpt lat="42.882338584005126" lon="10.526735458445721"><ele>0.0</ele><time>2026-04-25T13:30:16Z</time></trkpt><trkpt lat="42.88239700437261" lon="10.526802761534734"><ele>0.0</ele><time>2026-04-25T13:30:17Z</time></trkpt><trkpt lat="42.88245452508037" lon="10.52687219809885"><ele>0.0</ele><time>2026-04-25T13:30:18Z</time></trkpt><trkpt lat="42.882522560593955" lon="10.526959571111044"><ele>0.0</ele><time>2026-04-25T13:30:19Z</time></trkpt><trkpt lat="42.882584873401" lon="10.527046793519983"><ele>0.0</ele><time>2026-04-25T13:30:20Z</time></trkpt><trkpt lat="42.882657256976955" lon="10.52716908520584"><ele>0.0</ele><time>2026-04-25T13:30:22Z</time></trkpt><trkpt lat="42.88274518669842" lon="10.527294606382124"><ele>0.0</ele><time>2026-04-25T13:30:24Z</time></trkpt><trkpt lat="42.88278909817147" lon="10.527361046640419"><ele>0.0</ele><time>2026-04-25T13:30:25Z</time></trkpt><trkpt lat="42.88288337899221" lon="10.527480850425526"><ele>0.0</ele><time>2026-04-25T13:30:27Z</time></trkpt><trkpt lat="42.88296837084369" lon="10.527616302497107"><ele>0.0</ele><time>2026-04-25T13:30:29Z</time></trkpt><trkpt lat="42.88301945605901" lon="10.527699516642368"><ele>0.0</ele><time>2026-04-25T13:30:30Z</time></trkpt><trkpt lat="42.883111501896096" lon="10.527814756547107"><ele>0.0</ele><time>2026-04-25T13:30:32Z</time></trkpt><trkpt lat="42.88316887536948" lon="10.527865235876384"><ele>0.0</ele><time>2026-04-25T13:30:33Z</time></trkpt><trkpt lat="42.883224397965215" lon="10.527938663695421"><ele>0.0</ele><time>2026-04-25T13:30:34Z</time></trkpt><trkpt lat="42.88327777057068" lon="10.528013300832285"><ele>0.0</ele><time>2026-04-25T13:30:35Z</time></trkpt><trkpt lat="42.883317291273656" lon="10.52808275841093"><ele>0.0</ele><time>2026-04-25T13:30:36Z</time></trkpt><trkpt lat="42.88336193832938" lon="10.528147816842235"><ele>0.0</ele><time>2026-04-25T13:30:37Z</time></trkpt><trkpt lat="42.88340966735158" lon="10.528231891394942"><ele>0.0</ele><time>2026-04-25T13:30:38Z</time></trkpt><trkpt lat="42.8834643785985" lon="10.528305966221037"><ele>0.0</ele><time>2026-04-25T13:30:39Z</time></trkpt><trkpt lat="42.883563974573974" lon="10.528409001343404"><ele>0.0</ele><time>2026-04-25T13:30:41Z</time></trkpt><trkpt lat="42.88359698343026" lon="10.528483306369255"><ele>0.0</ele><time>2026-04-25T13:30:42Z</time></trkpt><trkpt lat="42.883646143453944" lon="10.528538908702576"><ele>0.0</ele><time>2026-04-25T13:30:43Z</time></trkpt><trkpt lat="42.88369450534475" lon="10.528604300056305"><ele>0.0</ele><time>2026-04-25T13:30:44Z</time></trkpt><trkpt lat="42.88375352427948" lon="10.528694910811193"><ele>0.0</ele><time>2026-04-25T13:30:45Z</time></trkpt><trkpt lat="42.8838115234935" lon="10.528757612410187"><ele>0.0</ele><time>2026-04-25T13:30:46Z</time></trkpt><trkpt lat="42.88385000723628" lon="10.52882722965128"><ele>0.0</ele><time>2026-04-25T13:30:47Z</time></trkpt><trkpt lat="42.88392858213498" lon="10.528937168249577"><ele>0.0</ele><time>2026-04-25T13:30:48Z</time></trkpt><trkpt lat="42.88398526992254" lon="10.529016561766"><ele>0.0</ele><time>2026-04-25T13:30:49Z</time></trkpt><trkpt lat="42.884031946026724" lon="10.529077579869478"><ele>0.0</ele><time>2026-04-25T13:30:50Z</time></trkpt><trkpt lat="42.884098170956634" lon="10.529170482663197"><ele>0.0</ele><time>2026-04-25T13:30:51Z</time></trkpt><trkpt lat="42.88418784773731" lon="10.529292759061088"><ele>0.0</ele><time>2026-04-25T13:30:53Z</time></trkpt><trkpt lat="42.88427611684783" lon="10.529401867439155"><ele>0.0</ele><time>2026-04-25T13:30:54Z</time></trkpt><trkpt lat="42.88437989464256" lon="10.529518586265713"><ele>0.0</ele><time>2026-04-25T13:30:56Z</time></trkpt><trkpt lat="42.88442207858508" lon="10.529582672347619"><ele>0.0</ele><time>2026-04-25T13:30:57Z</time></trkpt><trkpt lat="42.88450728992422" lon="10.529690841602283"><ele>0.0</ele><time>2026-04-25T13:30:59Z</time></trkpt><trkpt lat="42.884567116671704" lon="10.529755093687124"><ele>0.0</ele><time>2026-04-25T13:31:00Z</time></trkpt><trkpt lat="42.88465747993167" lon="10.529874396862889"><ele>0.0</ele><time>2026-04-25T13:31:02Z</time></trkpt><trkpt lat="42.884699830759175" lon="10.529938408926101"><ele>0.0</ele><time>2026-04-25T13:31:03Z</time></trkpt><trkpt lat="42.88478135540417" lon="10.530053616105132"><ele>0.0</ele><time>2026-04-25T13:31:05Z</time></trkpt><trkpt lat="42.88483816773735" lon="10.530127467798994"><ele>0.0</ele><time>2026-04-25T13:31:06Z</time></trkpt><trkpt lat="42.88489422494525" lon="10.530204832687707"><ele>0.0</ele><time>2026-04-25T13:31:07Z</time></trkpt><trkpt lat="42.88494000800277" lon="10.530271921311602"><ele>0.0</ele><time>2026-04-25T13:31:08Z</time></trkpt><trkpt lat="42.88501552216646" lon="10.530378919663637"><ele>0.0</ele><time>2026-04-25T13:31:10Z</time></trkpt><trkpt lat="42.88506041964063" lon="10.530441717550103"><ele>0.0</ele><time>2026-04-25T13:31:11Z</time></trkpt><trkpt lat="42.88511366433285" lon="10.530511420672527"><ele>0.0</ele><time>2026-04-25T13:31:12Z</time></trkpt><trkpt lat="42.885161359203856" lon="10.530575897083787"><ele>0.0</ele><time>2026-04-25T13:31:13Z</time></trkpt><trkpt lat="42.88524666782216" lon="10.530668936309635"><ele>0.0</ele><time>2026-04-25T13:31:15Z</time></trkpt><trkpt lat="42.885330090173724" lon="10.530768740469822"><ele>0.0</ele><time>2026-04-25T13:31:17Z</time></trkpt><trkpt lat="42.88538504352987" lon="10.530832146405011"><ele>0.0</ele><time>2026-04-25T13:31:18Z</time></trkpt><trkpt lat="42.88543625871707" lon="10.530899842670573"><ele>0.0</ele><time>2026-04-25T13:31:19Z</time></trkpt><trkpt lat="42.88549303714432" lon="10.530963714859066"><ele>0.0</ele><time>2026-04-25T13:31:20Z</time></trkpt><trkpt lat="42.88556158140984" lon="10.531048405880743"><ele>0.0</ele><time>2026-04-25T13:31:21Z</time></trkpt><trkpt lat="42.88564115193253" lon="10.531136755673787"><ele>0.0</ele><time>2026-04-25T13:31:22Z</time></trkpt><trkpt lat="42.88569136495762" lon="10.531196696256378"><ele>0.0</ele><time>2026-04-25T13:31:23Z</time></trkpt><trkpt lat="42.88573945662032" lon="10.53125308774399"><ele>0.0</ele><time>2026-04-25T13:31:24Z</time></trkpt><trkpt lat="42.88579026192922" lon="10.531319671539572"><ele>0.0</ele><time>2026-04-25T13:31:25Z</time></trkpt><trkpt lat="42.885872893143436" lon="10.531419697391854"><ele>0.0</ele><time>2026-04-25T13:31:27Z</time></trkpt><trkpt lat="42.88596638637987" lon="10.531538591602585"><ele>0.0</ele><time>2026-04-25T13:31:29Z</time></trkpt><trkpt lat="42.88608299262183" lon="10.531672100555513"><ele>0.0</ele><time>2026-04-25T13:31:31Z</time></trkpt><trkpt lat="42.88613996132761" lon="10.53174507520893"><ele>0.0</ele><time>2026-04-25T13:31:32Z</time></trkpt><trkpt lat="42.886207295231785" lon="10.531849687049858"><ele>0.0</ele><time>2026-04-25T13:31:34Z</time></trkpt><trkpt lat="42.886271733843266" lon="10.531921383976677"><ele>0.0</ele><time>2026-04-25T13:31:35Z</time></trkpt><trkpt lat="42.886331595896074" lon="10.53199799751488"><ele>0.0</ele><time>2026-04-25T13:31:36Z</time></trkpt><trkpt lat="42.88640225831522" lon="10.532084890686479"><ele>0.0</ele><time>2026-04-25T13:31:37Z</time></trkpt><trkpt lat="42.88646447342337" lon="10.53215623779062"><ele>0.0</ele><time>2026-04-25T13:31:38Z</time></trkpt><trkpt lat="42.886535504983385" lon="10.532233620729675"><ele>0.0</ele><time>2026-04-25T13:31:39Z</time></trkpt><trkpt lat="42.88657924480473" lon="10.532302139251437"><ele>0.0</ele><time>2026-04-25T13:31:40Z</time></trkpt><trkpt lat="42.88662453698613" lon="10.532392311096926"><ele>0.0</ele><time>2026-04-25T13:31:42Z</time></trkpt><trkpt lat="42.88672704226957" lon="10.53251277795483"><ele>0.0</ele><time>2026-04-25T13:31:44Z</time></trkpt><trkpt lat="42.886816413204436" lon="10.532644570532128"><ele>0.0</ele><time>2026-04-25T13:31:46Z</time></trkpt><trkpt lat="42.88691128139183" lon="10.532759604012755"><ele>0.0</ele><time>2026-04-25T13:31:48Z</time></trkpt><trkpt lat="42.8870023528592" lon="10.53287985180623"><ele>0.0</ele><time>2026-04-25T13:31:50Z</time></trkpt><trkpt lat="42.887045625068176" lon="10.532943822482515"><ele>0.0</ele><time>2026-04-25T13:31:51Z</time></trkpt><trkpt lat="42.887139112282036" lon="10.533073136603708"><ele>0.0</ele><time>2026-04-25T13:31:53Z</time></trkpt><trkpt lat="42.887227996401855" lon="10.53319755399991"><ele>0.0</ele><time>2026-04-25T13:31:55Z</time></trkpt><trkpt lat="42.887274909041366" lon="10.53326016194196"><ele>0.0</ele><time>2026-04-25T13:31:56Z</time></trkpt><trkpt lat="42.88733991811326" lon="10.53333004392629"><ele>0.0</ele><time>2026-04-25T13:31:57Z</time></trkpt><trkpt lat="42.88738797183068" lon="10.533386007765474"><ele>0.0</ele><time>2026-04-25T13:31:58Z</time></trkpt><trkpt lat="42.88744574239706" lon="10.533457827446833"><ele>0.0</ele><time>2026-04-25T13:31:59Z</time></trkpt><trkpt lat="42.88754120011026" lon="10.533579395284692"><ele>0.0</ele><time>2026-04-25T13:32:01Z</time></trkpt><trkpt lat="42.88758977457399" lon="10.533644016482883"><ele>0.0</ele><time>2026-04-25T13:32:02Z</time></trkpt><trkpt lat="42.887671621120994" lon="10.533758674878111"><ele>0.0</ele><time>2026-04-25T13:32:04Z</time></trkpt><trkpt lat="42.88773200477609" lon="10.5338279678593"><ele>0.0</ele><time>2026-04-25T13:32:05Z</time></trkpt><trkpt lat="42.8877842531442" lon="10.533898774725966"><ele>0.0</ele><time>2026-04-25T13:32:06Z</time></trkpt><trkpt lat="42.88782819722717" lon="10.53396485006502"><ele>0.0</ele><time>2026-04-25T13:32:07Z</time></trkpt><trkpt lat="42.887876651856956" lon="10.53404748849332"><ele>0.0</ele><time>2026-04-25T13:32:08Z</time></trkpt><trkpt lat="42.8879164992659" lon="10.534118406913095"><ele>0.0</ele><time>2026-04-25T13:32:09Z</time></trkpt><trkpt lat="42.887977966918015" lon="10.534208032124397"><ele>0.0</ele><time>2026-04-25T13:32:10Z</time></trkpt><trkpt lat="42.888011798935935" lon="10.534284465037555"><ele>0.0</ele><time>2026-04-25T13:32:11Z</time></trkpt><trkpt lat="42.88808372782327" lon="10.534400549088646"><ele>0.0</ele><time>2026-04-25T13:32:12Z</time></trkpt><trkpt lat="42.88813723530461" lon="10.534460624071917"><ele>0.0</ele><time>2026-04-25T13:32:13Z</time></trkpt><trkpt lat="42.888173559642446" lon="10.534540573231101"><ele>0.0</ele><time>2026-04-25T13:32:14Z</time></trkpt><trkpt lat="42.88825421686865" lon="10.534568764641099"><ele>0.0</ele><time>2026-04-25T13:32:15Z</time></trkpt><trkpt lat="42.88832819602758" lon="10.534614210315416"><ele>0.0</ele><time>2026-04-25T13:32:16Z</time></trkpt><trkpt lat="42.88838298973128" lon="10.534750610804544"><ele>0.0</ele><time>2026-04-25T13:32:18Z</time></trkpt><trkpt lat="42.8884539322851" lon="10.53480062773535"><ele>0.0</ele><time>2026-04-25T13:32:19Z</time></trkpt><trkpt lat="42.888545774648534" lon="10.534911480014236"><ele>0.0</ele><time>2026-04-25T13:32:21Z</time></trkpt><trkpt lat="42.88864167641899" lon="10.535019489027698"><ele>0.0</ele><time>2026-04-25T13:32:23Z</time></trkpt><trkpt lat="42.88872738857439" lon="10.535169501238444"><ele>0.0</ele><time>2026-04-25T13:32:25Z</time></trkpt><trkpt lat="42.88877185263126" lon="10.535238153295488"><ele>0.0</ele><time>2026-04-25T13:32:26Z</time></trkpt><trkpt lat="42.8886238442194" lon="10.535079133984107"><ele>0.0</ele><time>2026-04-25T13:32:27Z</time></trkpt><trkpt lat="42.88866715743013" lon="10.535158626352409"><ele>0.0</ele><time>2026-04-25T13:32:30Z</time></trkpt><trkpt lat="42.88874241200586" lon="10.53523009609712"><ele>0.0</ele><time>2026-04-25T13:32:31Z</time></trkpt><trkpt lat="42.888862519662396" lon="10.535351931622822"><ele>0.0</ele><time>2026-04-25T13:32:32Z</time></trkpt><trkpt lat="42.888980935710876" lon="10.535491616916667"><ele>0.0</ele><time>2026-04-25T13:32:33Z</time></trkpt><trkpt lat="42.88904166756773" lon="10.535586756868883"><ele>0.0</ele><time>2026-04-25T13:32:34Z</time></trkpt><trkpt lat="42.88909257806663" lon="10.535655677028414"><ele>0.0</ele><time>2026-04-25T13:32:35Z</time></trkpt><trkpt lat="42.88915504239576" lon="10.535732345599476"><ele>0.0</ele><time>2026-04-25T13:32:36Z</time></trkpt><trkpt lat="42.88920206170723" lon="10.535800414730783"><ele>0.0</ele><time>2026-04-25T13:32:37Z</time></trkpt><trkpt lat="42.889253719442955" lon="10.53586451731654"><ele>0.0</ele><time>2026-04-25T13:32:38Z</time></trkpt><trkpt lat="42.88931330771583" lon="10.5359258701719"><ele>0.0</ele><time>2026-04-25T13:32:39Z</time></trkpt><trkpt lat="42.88937547632201" lon="10.535999484494027"><ele>0.0</ele><time>2026-04-25T13:32:40Z</time></trkpt><trkpt lat="42.88944852613153" lon="10.536052102491075"><ele>0.0</ele><time>2026-04-25T13:32:41Z</time></trkpt><trkpt lat="42.889530834553064" lon="10.536134132904916"><ele>0.0</ele><time>2026-04-25T13:32:42Z</time></trkpt><trkpt lat="42.889591222077435" lon="10.536212260711762"><ele>0.0</ele><time>2026-04-25T13:32:43Z</time></trkpt><trkpt lat="42.889691457966975" lon="10.536298586134732"><ele>0.0</ele><time>2026-04-25T13:32:44Z</time></trkpt><trkpt lat="42.88977132123578" lon="10.536351883035561"><ele>0.0</ele><time>2026-04-25T13:32:45Z</time></trkpt><trkpt lat="42.889848654356825" lon="10.536430960285633"><ele>0.0</ele><time>2026-04-25T13:32:46Z</time></trkpt><trkpt lat="42.88990200991119" lon="10.536481735453476"><ele>0.0</ele><time>2026-04-25T13:32:47Z</time></trkpt><trkpt lat="42.88995034397362" lon="10.53654421116775"><ele>0.0</ele><time>2026-04-25T13:32:48Z</time></trkpt><trkpt lat="42.89003011427019" lon="10.536624482153277"><ele>0.0</ele><time>2026-04-25T13:32:49Z</time></trkpt><trkpt lat="42.89011730324568" lon="10.5367153918833"><ele>0.0</ele><time>2026-04-25T13:32:50Z</time></trkpt><trkpt lat="42.89019140465544" lon="10.536806400637909"><ele>0.0</ele><time>2026-04-25T13:32:52Z</time></trkpt><trkpt lat="42.89024863067418" lon="10.536876926593893"><ele>0.0</ele><time>2026-04-25T13:32:53Z</time></trkpt><trkpt lat="42.890317808326465" lon="10.536980147630999"><ele>0.0</ele><time>2026-04-25T13:32:55Z</time></trkpt><trkpt lat="42.89037901378506" lon="10.53704103763085"><ele>0.0</ele><time>2026-04-25T13:32:56Z</time></trkpt><trkpt lat="42.89043760228299" lon="10.537109952786142"><ele>0.0</ele><time>2026-04-25T13:32:57Z</time></trkpt><trkpt lat="42.890500880030395" lon="10.537175020205606"><ele>0.0</ele><time>2026-04-25T13:32:58Z</time></trkpt><trkpt lat="42.890568823035636" lon="10.537243080425421"><ele>0.0</ele><time>2026-04-25T13:32:59Z</time></trkpt><trkpt lat="42.89062216034853" lon="10.537304045985941"><ele>0.0</ele><time>2026-04-25T13:33:00Z</time></trkpt><trkpt lat="42.89066592632438" lon="10.537373031970926"><ele>0.0</ele><time>2026-04-25T13:33:01Z</time></trkpt><trkpt lat="42.89071957109097" lon="10.537442127071223"><ele>0.0</ele><time>2026-04-25T13:33:02Z</time></trkpt><trkpt lat="42.890785803611884" lon="10.537526697831627"><ele>0.0</ele><time>2026-04-25T13:33:03Z</time></trkpt><trkpt lat="42.89089674546202" lon="10.537632558307857"><ele>0.0</ele><time>2026-04-25T13:33:05Z</time></trkpt><trkpt lat="42.89094630502245" lon="10.537699552784087"><ele>0.0</ele><time>2026-04-25T13:33:06Z</time></trkpt><trkpt lat="42.891015682245545" lon="10.537775007867813"><ele>0.0</ele><time>2026-04-25T13:33:07Z</time></trkpt><trkpt lat="42.89107188698558" lon="10.537830500299293"><ele>0.0</ele><time>2026-04-25T13:33:08Z</time></trkpt><trkpt lat="42.89112513230719" lon="10.537888416017504"><ele>0.0</ele><time>2026-04-25T13:33:09Z</time></trkpt><trkpt lat="42.89117307130056" lon="10.537971290516603"><ele>0.0</ele><time>2026-04-25T13:33:10Z</time></trkpt><trkpt lat="42.891245148629515" lon="10.538033327200543"><ele>0.0</ele><time>2026-04-25T13:33:11Z</time></trkpt><trkpt lat="42.8912951465639" lon="10.538093030117002"><ele>0.0</ele><time>2026-04-25T13:33:12Z</time></trkpt><trkpt lat="42.89135035585682" lon="10.538154166354712"><ele>0.0</ele><time>2026-04-25T13:33:13Z</time></trkpt><trkpt lat="42.8913968525484" lon="10.538215665771094"><ele>0.0</ele><time>2026-04-25T13:33:14Z</time></trkpt><trkpt lat="42.89144024703709" lon="10.538278315309261"><ele>0.0</ele><time>2026-04-25T13:33:15Z</time></trkpt><trkpt lat="42.891516051918245" lon="10.538404852063914"><ele>0.0</ele><time>2026-04-25T13:33:17Z</time></trkpt><trkpt lat="42.891557137149974" lon="10.538471151590755"><ele>0.0</ele><time>2026-04-25T13:33:18Z</time></trkpt><trkpt lat="42.89163521825997" lon="10.538587996292883"><ele>0.0</ele><time>2026-04-25T13:33:20Z</time></trkpt><trkpt lat="42.89168928884101" lon="10.538642018696034"><ele>0.0</ele><time>2026-04-25T13:33:21Z</time></trkpt><trkpt lat="42.891759643808776" lon="10.538722992364114"><ele>0.0</ele><time>2026-04-25T13:33:23Z</time></trkpt><trkpt lat="42.89181674557775" lon="10.538781953704504"><ele>0.0</ele><time>2026-04-25T13:33:24Z</time></trkpt><trkpt lat="42.89186336558537" lon="10.538839789534954"><ele>0.0</ele><time>2026-04-25T13:33:25Z</time></trkpt><trkpt lat="42.89191641439121" lon="10.538917786635494"><ele>0.0</ele><time>2026-04-25T13:33:26Z</time></trkpt><trkpt lat="42.89196770068483" lon="10.53897862246821"><ele>0.0</ele><time>2026-04-25T13:33:27Z</time></trkpt><trkpt lat="42.892019118300446" lon="10.539030000488685"><ele>0.0</ele><time>2026-04-25T13:33:28Z</time></trkpt><trkpt lat="42.892111843527964" lon="10.539146796420416"><ele>0.0</ele><time>2026-04-25T13:33:30Z</time></trkpt><trkpt lat="42.89217125431321" lon="10.539218572644895"><ele>0.0</ele><time>2026-04-25T13:33:31Z</time></trkpt><trkpt lat="42.89223633921344" lon="10.539289972817285"><ele>0.0</ele><time>2026-04-25T13:33:32Z</time></trkpt><trkpt lat="42.89229481677383" lon="10.53936036564503"><ele>0.0</ele><time>2026-04-25T13:33:33Z</time></trkpt><trkpt lat="42.892357284366994" lon="10.539431834020125"><ele>0.0</ele><time>2026-04-25T13:33:34Z</time></trkpt><trkpt lat="42.892420876453606" lon="10.53950225728729"><ele>0.0</ele><time>2026-04-25T13:33:35Z</time></trkpt><trkpt lat="42.892507798916434" lon="10.539619420252741"><ele>0.0</ele><time>2026-04-25T13:33:37Z</time></trkpt><trkpt lat="42.89255747968355" lon="10.539682169559317"><ele>0.0</ele><time>2026-04-25T13:33:38Z</time></trkpt><trkpt lat="42.892609626654654" lon="10.539739751152078"><ele>0.0</ele><time>2026-04-25T13:33:39Z</time></trkpt><trkpt lat="42.89265832942239" lon="10.539803219169348"><ele>0.0</ele><time>2026-04-25T13:33:40Z</time></trkpt><trkpt lat="42.89274722985501" lon="10.53991241653421"><ele>0.0</ele><time>2026-04-25T13:33:42Z</time></trkpt><trkpt lat="42.892803522037646" lon="10.539968808438484"><ele>0.0</ele><time>2026-04-25T13:33:43Z</time></trkpt><trkpt lat="42.892860338331175" lon="10.540034994531707"><ele>0.0</ele><time>2026-04-25T13:33:44Z</time></trkpt><trkpt lat="42.892920038504435" lon="10.540111119180393"><ele>0.0</ele><time>2026-04-25T13:33:45Z</time></trkpt><trkpt lat="42.89299126608932" lon="10.54018442031784"><ele>0.0</ele><time>2026-04-25T13:33:46Z</time></trkpt><trkpt lat="42.893053149658805" lon="10.540253736735767"><ele>0.0</ele><time>2026-04-25T13:33:47Z</time></trkpt><trkpt lat="42.893108690922304" lon="10.540328316801473"><ele>0.0</ele><time>2026-04-25T13:33:48Z</time></trkpt><trkpt lat="42.893162764182996" lon="10.540397527080435"><ele>0.0</ele><time>2026-04-25T13:33:49Z</time></trkpt><trkpt lat="42.89321302752405" lon="10.54046804366002"><ele>0.0</ele><time>2026-04-25T13:33:50Z</time></trkpt><trkpt lat="42.89327407927352" lon="10.540530024920015"><ele>0.0</ele><time>2026-04-25T13:33:51Z</time></trkpt><trkpt lat="42.89334475794448" lon="10.540592309543875"><ele>0.0</ele><time>2026-04-25T13:33:52Z</time></trkpt><trkpt lat="42.89339654769514" lon="10.540651105556387"><ele>0.0</ele><time>2026-04-25T13:33:53Z</time></trkpt><trkpt lat="42.8934562107407" lon="10.540717132255425"><ele>0.0</ele><time>2026-04-25T13:33:54Z</time></trkpt><trkpt lat="42.89351569712533" lon="10.540788011382286"><ele>0.0</ele><time>2026-04-25T13:33:55Z</time></trkpt><trkpt lat="42.89357065243933" lon="10.540852348745458"><ele>0.0</ele><time>2026-04-25T13:33:56Z</time></trkpt><trkpt lat="42.89362659104786" lon="10.540910423591747"><ele>0.0</ele><time>2026-04-25T13:33:57Z</time></trkpt><trkpt lat="42.893675692130266" lon="10.540966831624148"><ele>0.0</ele><time>2026-04-25T13:33:58Z</time></trkpt><trkpt lat="42.89378163618558" lon="10.541074638139117"><ele>0.0</ele><time>2026-04-25T13:34:00Z</time></trkpt><trkpt lat="42.89383981801534" lon="10.541128006619946"><ele>0.0</ele><time>2026-04-25T13:34:01Z</time></trkpt><trkpt lat="42.89390181004267" lon="10.541186172650637"><ele>0.0</ele><time>2026-04-25T13:34:02Z</time></trkpt><trkpt lat="42.89395241245865" lon="10.541248003817673"><ele>0.0</ele><time>2026-04-25T13:34:03Z</time></trkpt><trkpt lat="42.894018036769424" lon="10.541321965747132"><ele>0.0</ele><time>2026-04-25T13:34:04Z</time></trkpt><trkpt lat="42.89407568618514" lon="10.541386670179625"><ele>0.0</ele><time>2026-04-25T13:34:05Z</time></trkpt><trkpt lat="42.894159195394394" lon="10.541493183618142"><ele>0.0</ele><time>2026-04-25T13:34:07Z</time></trkpt><trkpt lat="42.89425697184931" lon="10.541606166743481"><ele>0.0</ele><time>2026-04-25T13:34:09Z</time></trkpt><trkpt lat="42.89431952488124" lon="10.541670872254878"><ele>0.0</ele><time>2026-04-25T13:34:10Z</time></trkpt><trkpt lat="42.89438371616382" lon="10.541739682279307"><ele>0.0</ele><time>2026-04-25T13:34:11Z</time></trkpt><trkpt lat="42.89443734511248" lon="10.541799941926158"><ele>0.0</ele><time>2026-04-25T13:34:12Z</time></trkpt><trkpt lat="42.894539504291245" lon="10.541925116363577"><ele>0.0</ele><time>2026-04-25T13:34:14Z</time></trkpt><trkpt lat="42.89459789878463" lon="10.541980795738539"><ele>0.0</ele><time>2026-04-25T13:34:15Z</time></trkpt><trkpt lat="42.894650009586826" lon="10.542042625770911"><ele>0.0</ele><time>2026-04-25T13:34:16Z</time></trkpt><trkpt lat="42.89469972378778" lon="10.542101500834347"><ele>0.0</ele><time>2026-04-25T13:34:17Z</time></trkpt><trkpt lat="42.894794531358954" lon="10.542224276484962"><ele>0.0</ele><time>2026-04-25T13:34:19Z</time></trkpt><trkpt lat="42.89485257143068" lon="10.542287280334401"><ele>0.0</ele><time>2026-04-25T13:34:20Z</time></trkpt><trkpt lat="42.8949599036198" lon="10.542401934556674"><ele>0.0</ele><time>2026-04-25T13:34:22Z</time></trkpt><trkpt lat="42.89501021043212" lon="10.542464722120524"><ele>0.0</ele><time>2026-04-25T13:34:23Z</time></trkpt><trkpt lat="42.895059886452344" lon="10.542522584566617"><ele>0.0</ele><time>2026-04-25T13:34:24Z</time></trkpt><trkpt lat="42.89511022289586" lon="10.542578118809956"><ele>0.0</ele><time>2026-04-25T13:34:25Z</time></trkpt><trkpt lat="42.895157786489754" lon="10.542639652814447"><ele>0.0</ele><time>2026-04-25T13:34:26Z</time></trkpt><trkpt lat="42.89521050925812" lon="10.542701549394398"><ele>0.0</ele><time>2026-04-25T13:34:27Z</time></trkpt><trkpt lat="42.89526893895796" lon="10.54276044789937"><ele>0.0</ele><time>2026-04-25T13:34:28Z</time></trkpt><trkpt lat="42.89535418598554" lon="10.5428506881493"><ele>0.0</ele><time>2026-04-25T13:34:30Z</time></trkpt><trkpt lat="42.89540404308166" lon="10.542908948499694"><ele>0.0</ele><time>2026-04-25T13:34:31Z</time></trkpt><trkpt lat="42.89545219136185" lon="10.54297067334621"><ele>0.0</ele><time>2026-04-25T13:34:32Z</time></trkpt><trkpt lat="42.89550731882626" lon="10.543036094752381"><ele>0.0</ele><time>2026-04-25T13:34:33Z</time></trkpt><trkpt lat="42.895577821186556" lon="10.543094938140658"><ele>0.0</ele><time>2026-04-25T13:34:34Z</time></trkpt><trkpt lat="42.89564216695959" lon="10.54315424294744"><ele>0.0</ele><time>2026-04-25T13:34:35Z</time></trkpt><trkpt lat="42.89569276559514" lon="10.543212228897195"><ele>0.0</ele><time>2026-04-25T13:34:36Z</time></trkpt><trkpt lat="42.895788904666276" lon="10.543319531996923"><ele>0.0</ele><time>2026-04-25T13:34:38Z</time></trkpt><trkpt lat="42.89584411906729" lon="10.543376165412186"><ele>0.0</ele><time>2026-04-25T13:34:39Z</time></trkpt><trkpt lat="42.895900974293085" lon="10.543432885039605"><ele>0.0</ele><time>2026-04-25T13:34:40Z</time></trkpt><trkpt lat="42.895997401609954" lon="10.543548848575401"><ele>0.0</ele><time>2026-04-25T13:34:42Z</time></trkpt><trkpt lat="42.89605605158455" lon="10.543606052945359"><ele>0.0</ele><time>2026-04-25T13:34:43Z</time></trkpt><trkpt lat="42.89614659983517" lon="10.543714188201431"><ele>0.0</ele><time>2026-04-25T13:34:45Z</time></trkpt><trkpt lat="42.89620343650568" lon="10.543778660272011"><ele>0.0</ele><time>2026-04-25T13:34:46Z</time></trkpt><trkpt lat="42.896299737803865" lon="10.543889082553559"><ele>0.0</ele><time>2026-04-25T13:34:48Z</time></trkpt><trkpt lat="42.8963640871527" lon="10.543962463287409"><ele>0.0</ele><time>2026-04-25T13:34:49Z</time></trkpt><trkpt lat="42.89641992269715" lon="10.54401948025138"><ele>0.0</ele><time>2026-04-25T13:34:50Z</time></trkpt><trkpt lat="42.896477147252966" lon="10.544080753416532"><ele>0.0</ele><time>2026-04-25T13:34:51Z</time></trkpt><trkpt lat="42.89658353072462" lon="10.544188125167263"><ele>0.0</ele><time>2026-04-25T13:34:53Z</time></trkpt><trkpt lat="42.896640555119696" lon="10.544243974152794"><ele>0.0</ele><time>2026-04-25T13:34:54Z</time></trkpt><trkpt lat="42.89670271249219" lon="10.54431254826137"><ele>0.0</ele><time>2026-04-25T13:34:55Z</time></trkpt><trkpt lat="42.89675574713117" lon="10.54437453989443"><ele>0.0</ele><time>2026-04-25T13:34:56Z</time></trkpt><trkpt lat="42.89680639201926" lon="10.544426055416306"><ele>0.0</ele><time>2026-04-25T13:34:57Z</time></trkpt><trkpt lat="42.89686265934162" lon="10.544486300259878"><ele>0.0</ele><time>2026-04-25T13:34:58Z</time></trkpt><trkpt lat="42.896918139577174" lon="10.544544995240113"><ele>0.0</ele><time>2026-04-25T13:34:59Z</time></trkpt><trkpt lat="42.89698820767645" lon="10.544620912098495"><ele>0.0</ele><time>2026-04-25T13:35:00Z</time></trkpt><trkpt lat="42.897096512037656" lon="10.544740456930905"><ele>0.0</ele><time>2026-04-25T13:35:02Z</time></trkpt><trkpt lat="42.89715853295332" lon="10.544803418565953"><ele>0.0</ele><time>2026-04-25T13:35:03Z</time></trkpt><trkpt lat="42.89720997068284" lon="10.544857183857943"><ele>0.0</ele><time>2026-04-25T13:35:04Z</time></trkpt><trkpt lat="42.897268982351854" lon="10.544908514754988"><ele>0.0</ele><time>2026-04-25T13:35:05Z</time></trkpt><trkpt lat="42.897325294340895" lon="10.544960371433586"><ele>0.0</ele><time>2026-04-25T13:35:06Z</time></trkpt><trkpt lat="42.89742375473389" lon="10.545055221342105"><ele>0.0</ele><time>2026-04-25T13:35:08Z</time></trkpt><trkpt lat="42.897482754423464" lon="10.545111209287606"><ele>0.0</ele><time>2026-04-25T13:35:09Z</time></trkpt><trkpt lat="42.89754035088455" lon="10.545161986881654"><ele>0.0</ele><time>2026-04-25T13:35:10Z</time></trkpt><trkpt lat="42.897595845530994" lon="10.545217198181314"><ele>0.0</ele><time>2026-04-25T13:35:11Z</time></trkpt><trkpt lat="42.89765371908488" lon="10.54526952666144"><ele>0.0</ele><time>2026-04-25T13:35:12Z</time></trkpt><trkpt lat="42.89771402192088" lon="10.545325543891119"><ele>0.0</ele><time>2026-04-25T13:35:13Z</time></trkpt><trkpt lat="42.89776484526584" lon="10.545381409152089"><ele>0.0</ele><time>2026-04-25T13:35:14Z</time></trkpt><trkpt lat="42.897823571243045" lon="10.545436078646086"><ele>0.0</ele><time>2026-04-25T13:35:15Z</time></trkpt><trkpt lat="42.89788001501221" lon="10.545495426358043"><ele>0.0</ele><time>2026-04-25T13:35:16Z</time></trkpt><trkpt lat="42.897940492315605" lon="10.5455540763981"><ele>0.0</ele><time>2026-04-25T13:35:17Z</time></trkpt><trkpt lat="42.8979933548989" lon="10.545606682020143"><ele>0.0</ele><time>2026-04-25T13:35:18Z</time></trkpt><trkpt lat="42.89809294030539" lon="10.545708453636033"><ele>0.0</ele><time>2026-04-25T13:35:20Z</time></trkpt><trkpt lat="42.8981493733645" lon="10.545759204116868"><ele>0.0</ele><time>2026-04-25T13:35:21Z</time></trkpt><trkpt lat="42.89820757205576" lon="10.545812656611373"><ele>0.0</ele><time>2026-04-25T13:35:22Z</time></trkpt><trkpt lat="42.89827064261904" lon="10.545870868710066"><ele>0.0</ele><time>2026-04-25T13:35:23Z</time></trkpt><trkpt lat="42.898324020518295" lon="10.545918130051916"><ele>0.0</ele><time>2026-04-25T13:35:24Z</time></trkpt><trkpt lat="42.89838320172436" lon="10.54597512246958"><ele>0.0</ele><time>2026-04-25T13:35:25Z</time></trkpt><trkpt lat="42.89849243263088" lon="10.54607484009107"><ele>0.0</ele><time>2026-04-25T13:35:27Z</time></trkpt><trkpt lat="42.898600213525164" lon="10.546171743976853"><ele>0.0</ele><time>2026-04-25T13:35:29Z</time></trkpt><trkpt lat="42.89865498273486" lon="10.5462266541133"><ele>0.0</ele><time>2026-04-25T13:35:30Z</time></trkpt><trkpt lat="42.898717794890274" lon="10.546289077041287"><ele>0.0</ele><time>2026-04-25T13:35:31Z</time></trkpt><trkpt lat="42.89877863078816" lon="10.546350328661468"><ele>0.0</ele><time>2026-04-25T13:35:32Z</time></trkpt><trkpt lat="42.89883589759443" lon="10.546402378512093"><ele>0.0</ele><time>2026-04-25T13:35:33Z</time></trkpt><trkpt lat="42.89889664621888" lon="10.546456745439723"><ele>0.0</ele><time>2026-04-25T13:35:34Z</time></trkpt><trkpt lat="42.89895605636614" lon="10.546512706868322"><ele>0.0</ele><time>2026-04-25T13:35:35Z</time></trkpt><trkpt lat="42.899013472874834" lon="10.546570973166604"><ele>0.0</ele><time>2026-04-25T13:35:36Z</time></trkpt><trkpt lat="42.89906957274391" lon="10.5466317791569"><ele>0.0</ele><time>2026-04-25T13:35:37Z</time></trkpt><trkpt lat="42.89912915652743" lon="10.546685979074109"><ele>0.0</ele><time>2026-04-25T13:35:38Z</time></trkpt><trkpt lat="42.89918904935648" lon="10.546737833150601"><ele>0.0</ele><time>2026-04-25T13:35:39Z</time></trkpt><trkpt lat="42.89924884951874" lon="10.546785297308896"><ele>0.0</ele><time>2026-04-25T13:35:40Z</time></trkpt><trkpt lat="42.899361764989266" lon="10.546887125066963"><ele>0.0</ele><time>2026-04-25T13:35:42Z</time></trkpt><trkpt lat="42.899430367293945" lon="10.546942245380496"><ele>0.0</ele><time>2026-04-25T13:35:43Z</time></trkpt><trkpt lat="42.89952073897707" lon="10.547015859494259"><ele>0.0</ele><time>2026-04-25T13:35:45Z</time></trkpt><trkpt lat="42.89957127266012" lon="10.547071065108865"><ele>0.0</ele><time>2026-04-25T13:35:46Z</time></trkpt><trkpt lat="42.899671618042426" lon="10.547155574464181"><ele>0.0</ele><time>2026-04-25T13:35:48Z</time></trkpt><trkpt lat="42.89973066538546" lon="10.547197016820451"><ele>0.0</ele><time>2026-04-25T13:35:49Z</time></trkpt><trkpt lat="42.899836645345715" lon="10.547286648099863"><ele>0.0</ele><time>2026-04-25T13:35:51Z</time></trkpt><trkpt lat="42.899902551413575" lon="10.547338967633651"><ele>0.0</ele><time>2026-04-25T13:35:52Z</time></trkpt><trkpt lat="42.899962493123844" lon="10.547402181389243"><ele>0.0</ele><time>2026-04-25T13:35:53Z</time></trkpt><trkpt lat="42.900020548207515" lon="10.547441945390945"><ele>0.0</ele><time>2026-04-25T13:35:54Z</time></trkpt><trkpt lat="42.90007760527081" lon="10.547509582015707"><ele>0.0</ele><time>2026-04-25T13:35:55Z</time></trkpt><trkpt lat="42.90013731640107" lon="10.547569675509104"><ele>0.0</ele><time>2026-04-25T13:35:56Z</time></trkpt><trkpt lat="42.90020354400799" lon="10.547623270253219"><ele>0.0</ele><time>2026-04-25T13:35:57Z</time></trkpt><trkpt lat="42.90025835858743" lon="10.54766613863376"><ele>0.0</ele><time>2026-04-25T13:35:58Z</time></trkpt><trkpt lat="42.90031832586875" lon="10.54771727807595"><ele>0.0</ele><time>2026-04-25T13:35:59Z</time></trkpt><trkpt lat="42.900381954343786" lon="10.547770660269153"><ele>0.0</ele><time>2026-04-25T13:36:00Z</time></trkpt><trkpt lat="42.900495389559076" lon="10.54785331998992"><ele>0.0</ele><time>2026-04-25T13:36:02Z</time></trkpt><trkpt lat="42.90054987484019" lon="10.547896626352705"><ele>0.0</ele><time>2026-04-25T13:36:03Z</time></trkpt><trkpt lat="42.9006117107586" lon="10.54795259163214"><ele>0.0</ele><time>2026-04-25T13:36:04Z</time></trkpt><trkpt lat="42.90066890517648" lon="10.548011072440087"><ele>0.0</ele><time>2026-04-25T13:36:05Z</time></trkpt><trkpt lat="42.900734616155184" lon="10.54806153967534"><ele>0.0</ele><time>2026-04-25T13:36:06Z</time></trkpt><trkpt lat="42.90079474806413" lon="10.548111991716782"><ele>0.0</ele><time>2026-04-25T13:36:07Z</time></trkpt><trkpt lat="42.90085397948131" lon="10.548165532010346"><ele>0.0</ele><time>2026-04-25T13:36:08Z</time></trkpt><trkpt lat="42.90091618403695" lon="10.548215004352308"><ele>0.0</ele><time>2026-04-25T13:36:09Z</time></trkpt><trkpt lat="42.900979957675396" lon="10.5482659999882"><ele>0.0</ele><time>2026-04-25T13:36:10Z</time></trkpt><trkpt lat="42.9010418101879" lon="10.548310134386922"><ele>0.0</ele><time>2026-04-25T13:36:11Z</time></trkpt><trkpt lat="42.90109808836458" lon="10.548358675713756"><ele>0.0</ele><time>2026-04-25T13:36:12Z</time></trkpt><trkpt lat="42.901172812557576" lon="10.548422768012362"><ele>0.0</ele><time>2026-04-25T13:36:13Z</time></trkpt><trkpt lat="42.90124604277336" lon="10.548477685915035"><ele>0.0</ele><time>2026-04-25T13:36:14Z</time></trkpt><trkpt lat="42.90130556443266" lon="10.548538723884027"><ele>0.0</ele><time>2026-04-25T13:36:15Z</time></trkpt><trkpt lat="42.901361210299164" lon="10.548592845842771"><ele>0.0</ele><time>2026-04-25T13:36:16Z</time></trkpt><trkpt lat="42.90141679745053" lon="10.548637561698555"><ele>0.0</ele><time>2026-04-25T13:36:17Z</time></trkpt><trkpt lat="42.90152223362277" lon="10.548726934082257"><ele>0.0</ele><time>2026-04-25T13:36:19Z</time></trkpt><trkpt lat="42.90163131398384" lon="10.548819842732168"><ele>0.0</ele><time>2026-04-25T13:36:21Z</time></trkpt><trkpt lat="42.901691578816575" lon="10.548869001875024"><ele>0.0</ele><time>2026-04-25T13:36:22Z</time></trkpt><trkpt lat="42.901750660886606" lon="10.548908305338388"><ele>0.0</ele><time>2026-04-25T13:36:23Z</time></trkpt><trkpt lat="42.901811320696126" lon="10.548983938552725"><ele>0.0</ele><time>2026-04-25T13:36:24Z</time></trkpt><trkpt lat="42.90186673923599" lon="10.549025377517449"><ele>0.0</ele><time>2026-04-25T13:36:25Z</time></trkpt><trkpt lat="42.9019275618938" lon="10.54907130155236"><ele>0.0</ele><time>2026-04-25T13:36:26Z</time></trkpt><trkpt lat="42.90198896345194" lon="10.549119705104252"><ele>0.0</ele><time>2026-04-25T13:36:27.019Z</time></trkpt><trkpt lat="42.90205093154493" lon="10.549169226976527"><ele>0.0</ele><time>2026-04-25T13:36:28.015Z</time></trkpt><trkpt lat="42.90212075568686" lon="10.549218040068082"><ele>0.0</ele><time>2026-04-25T13:36:29Z</time></trkpt><trkpt lat="42.902204272406" lon="10.549293705488397"><ele>0.0</ele><time>2026-04-25T13:36:31Z</time></trkpt><trkpt lat="42.902312643109696" lon="10.549383336855847"><ele>0.0</ele><time>2026-04-25T13:36:32Z</time></trkpt><trkpt lat="42.902409275346685" lon="10.549454182968772"><ele>0.0</ele><time>2026-04-25T13:36:33Z</time></trkpt><trkpt lat="42.90246883991715" lon="10.549512784846703"><ele>0.0</ele><time>2026-04-25T13:36:34Z</time></trkpt><trkpt lat="42.90255654861943" lon="10.549614373478983"><ele>0.0</ele><time>2026-04-25T13:36:36Z</time></trkpt><trkpt lat="42.90264457615717" lon="10.54967117859588"><ele>0.0</ele><time>2026-04-25T13:36:38Z</time></trkpt><trkpt lat="42.9027081372994" lon="10.549740498241597"><ele>0.0</ele><time>2026-04-25T13:36:40Z</time></trkpt><trkpt lat="42.90281441745148" lon="10.549817657497877"><ele>0.0</ele><time>2026-04-25T13:36:42Z</time></trkpt><trkpt lat="42.90292382257808" lon="10.549914935596968"><ele>0.0</ele><time>2026-04-25T13:36:44Z</time></trkpt><trkpt lat="42.90297938129587" lon="10.549966797434529"><ele>0.0</ele><time>2026-04-25T13:36:45Z</time></trkpt><trkpt lat="42.90308890882719" lon="10.550060493302912"><ele>0.0</ele><time>2026-04-25T13:36:47Z</time></trkpt><trkpt lat="42.9031669371068" lon="10.550119664039935"><ele>0.0</ele><time>2026-04-25T13:36:48Z</time></trkpt><trkpt lat="42.9032330836406" lon="10.550167037567785"><ele>0.0</ele><time>2026-04-25T13:36:49Z</time></trkpt><trkpt lat="42.90329579293679" lon="10.550216705697427"><ele>0.0</ele><time>2026-04-25T13:36:50Z</time></trkpt><trkpt lat="42.90335633558131" lon="10.55026446217441"><ele>0.0</ele><time>2026-04-25T13:36:51Z</time></trkpt><trkpt lat="42.9034210997302" lon="10.550359102616875"><ele>0.0</ele><time>2026-04-25T13:36:52Z</time></trkpt><trkpt lat="42.90348310310948" lon="10.550404358186976"><ele>0.0</ele><time>2026-04-25T13:36:53Z</time></trkpt><trkpt lat="42.90357545035478" lon="10.550520575241974"><ele>0.0</ele><time>2026-04-25T13:36:55Z</time></trkpt><trkpt lat="42.903635167962484" lon="10.55057306406688"><ele>0.0</ele><time>2026-04-25T13:36:56Z</time></trkpt><trkpt lat="42.90374535346484" lon="10.550689681933758"><ele>0.0</ele><time>2026-04-25T13:36:58Z</time></trkpt><trkpt lat="42.903858337742015" lon="10.550785890857616"><ele>0.0</ele><time>2026-04-25T13:37:00Z</time></trkpt><trkpt lat="42.90393285536398" lon="10.550827365207516"><ele>0.0</ele><time>2026-04-25T13:37:01Z</time></trkpt><trkpt lat="42.90398619206062" lon="10.550886256383407"><ele>0.0</ele><time>2026-04-25T13:37:02Z</time></trkpt><trkpt lat="42.90404850585124" lon="10.550947993402518"><ele>0.0</ele><time>2026-04-25T13:37:03Z</time></trkpt><trkpt lat="42.90415180020755" lon="10.55103951931729"><ele>0.0</ele><time>2026-04-25T13:37:05Z</time></trkpt><trkpt lat="42.90427308222226" lon="10.551121319975005"><ele>0.0</ele><time>2026-04-25T13:37:07Z</time></trkpt><trkpt lat="42.90433052278866" lon="10.551171484030066"><ele>0.0</ele><time>2026-04-25T13:37:08Z</time></trkpt><trkpt lat="42.90438380520921" lon="10.55121830798464"><ele>0.0</ele><time>2026-04-25T13:37:09Z</time></trkpt><trkpt lat="42.904491802440795" lon="10.551313277245393"><ele>0.0</ele><time>2026-04-25T13:37:11Z</time></trkpt><trkpt lat="42.90455294843384" lon="10.551369922141415"><ele>0.0</ele><time>2026-04-25T13:37:12Z</time></trkpt><trkpt lat="42.90461005955745" lon="10.551424062715546"><ele>0.0</ele><time>2026-04-25T13:37:13Z</time></trkpt><trkpt lat="42.90467475543243" lon="10.551478060409929"><ele>0.0</ele><time>2026-04-25T13:37:14Z</time></trkpt><trkpt lat="42.904735022239095" lon="10.551523200193218"><ele>0.0</ele><time>2026-04-25T13:37:15Z</time></trkpt><trkpt lat="42.904797220682276" lon="10.551573930904004"><ele>0.0</ele><time>2026-04-25T13:37:16Z</time></trkpt><trkpt lat="42.904866942137694" lon="10.551634565311165"><ele>0.0</ele><time>2026-04-25T13:37:17Z</time></trkpt><trkpt lat="42.90492376961361" lon="10.551677646266947"><ele>0.0</ele><time>2026-04-25T13:37:18Z</time></trkpt><trkpt lat="42.9049905698112" lon="10.551727466920381"><ele>0.0</ele><time>2026-04-25T13:37:19Z</time></trkpt><trkpt lat="42.9050482258618" lon="10.551775999896641"><ele>0.0</ele><time>2026-04-25T13:37:20Z</time></trkpt><trkpt lat="42.905155092276075" lon="10.551879138086761"><ele>0.0</ele><time>2026-04-25T13:37:22Z</time></trkpt><trkpt lat="42.90521427578422" lon="10.551928250286968"><ele>0.0</ele><time>2026-04-25T13:37:23Z</time></trkpt><trkpt lat="42.90531208442431" lon="10.552051248570809"><ele>0.0</ele><time>2026-04-25T13:37:25Z</time></trkpt><trkpt lat="42.90536786946455" lon="10.55210176887218"><ele>0.0</ele><time>2026-04-25T13:37:26Z</time></trkpt><trkpt lat="42.90542556572794" lon="10.55215284774102"><ele>0.0</ele><time>2026-04-25T13:37:27Z</time></trkpt><trkpt lat="42.90548268776589" lon="10.552207744358368"><ele>0.0</ele><time>2026-04-25T13:37:28Z</time></trkpt><trkpt lat="42.9055490798453" lon="10.55226911738569"><ele>0.0</ele><time>2026-04-25T13:37:29Z</time></trkpt><trkpt lat="42.90564494630322" lon="10.552361132229366"><ele>0.0</ele><time>2026-04-25T13:37:31Z</time></trkpt><trkpt lat="42.90570915928604" lon="10.552429330706211"><ele>0.0</ele><time>2026-04-25T13:37:32Z</time></trkpt><trkpt lat="42.905758351501525" lon="10.55248723406232"><ele>0.0</ele><time>2026-04-25T13:37:33Z</time></trkpt><trkpt lat="42.90582477993735" lon="10.552542078099034"><ele>0.0</ele><time>2026-04-25T13:37:34Z</time></trkpt><trkpt lat="42.90587934234217" lon="10.55259602276036"><ele>0.0</ele><time>2026-04-25T13:37:35Z</time></trkpt><trkpt lat="42.90593312116211" lon="10.552645633635654"><ele>0.0</ele><time>2026-04-25T13:37:36Z</time></trkpt><trkpt lat="42.90604486140983" lon="10.552747221852659"><ele>0.0</ele><time>2026-04-25T13:37:38Z</time></trkpt><trkpt lat="42.9061030810896" lon="10.552808247069548"><ele>0.0</ele><time>2026-04-25T13:37:39Z</time></trkpt><trkpt lat="42.9061577525235" lon="10.552863429191067"><ele>0.0</ele><time>2026-04-25T13:37:40Z</time></trkpt><trkpt lat="42.9062127511213" lon="10.55292073075697"><ele>0.0</ele><time>2026-04-25T13:37:41Z</time></trkpt><trkpt lat="42.90626991059468" lon="10.552971869527838"><ele>0.0</ele><time>2026-04-25T13:37:42Z</time></trkpt><trkpt lat="42.906331033185225" lon="10.553027215405116"><ele>0.0</ele><time>2026-04-25T13:37:43Z</time></trkpt><trkpt lat="42.90639034930461" lon="10.553093987051563"><ele>0.0</ele><time>2026-04-25T13:37:44Z</time></trkpt><trkpt lat="42.906500799523386" lon="10.553185267528516"><ele>0.0</ele><time>2026-04-25T13:37:46Z</time></trkpt><trkpt lat="42.90656169225423" lon="10.553261622996931"><ele>0.0</ele><time>2026-04-25T13:37:47Z</time></trkpt><trkpt lat="42.9066218889262" lon="10.55331479875944"><ele>0.0</ele><time>2026-04-25T13:37:48Z</time></trkpt><trkpt lat="42.90668568053571" lon="10.553358093069434"><ele>0.0</ele><time>2026-04-25T13:37:49Z</time></trkpt><trkpt lat="42.9067987938385" lon="10.55340343048167"><ele>0.0</ele><time>2026-04-25T13:37:51Z</time></trkpt><trkpt lat="42.906923243591606" lon="10.55347559102222"><ele>0.0</ele><time>2026-04-25T13:37:53Z</time></trkpt><trkpt lat="42.90699510140374" lon="10.55352813929334"><ele>0.0</ele><time>2026-04-25T13:37:54Z</time></trkpt><trkpt lat="42.907070347784334" lon="10.553605796625328"><ele>0.0</ele><time>2026-04-25T13:37:55Z</time></trkpt><trkpt lat="42.907124078819095" lon="10.553660999241258"><ele>0.0</ele><time>2026-04-25T13:37:56Z</time></trkpt><trkpt lat="42.90717734759086" lon="10.55370912409556"><ele>0.0</ele><time>2026-04-25T13:37:57Z</time></trkpt><trkpt lat="42.90723525264282" lon="10.55376564039447"><ele>0.0</ele><time>2026-04-25T13:37:58Z</time></trkpt><trkpt lat="42.90729525297287" lon="10.553815652969224"><ele>0.0</ele><time>2026-04-25T13:37:59Z</time></trkpt><trkpt lat="42.90736019160084" lon="10.55386554708201"><ele>0.0</ele><time>2026-04-25T13:38:00Z</time></trkpt><trkpt lat="42.90742025496186" lon="10.553920321904531"><ele>0.0</ele><time>2026-04-25T13:38:01Z</time></trkpt><trkpt lat="42.90748318311783" lon="10.553974401625469"><ele>0.0</ele><time>2026-04-25T13:38:02Z</time></trkpt><trkpt lat="42.90758930701955" lon="10.554078411443154"><ele>0.0</ele><time>2026-04-25T13:38:04Z</time></trkpt><trkpt lat="42.90764567291727" lon="10.554129850102356"><ele>0.0</ele><time>2026-04-25T13:38:05Z</time></trkpt><trkpt lat="42.90771048978542" lon="10.554179315862248"><ele>0.0</ele><time>2026-04-25T13:38:06Z</time></trkpt><trkpt lat="42.907766358266215" lon="10.55424224305149"><ele>0.0</ele><time>2026-04-25T13:38:07Z</time></trkpt><trkpt lat="42.90783016215949" lon="10.554292186406258"><ele>0.0</ele><time>2026-04-25T13:38:08Z</time></trkpt><trkpt lat="42.90788812813977" lon="10.554343503777627"><ele>0.0</ele><time>2026-04-25T13:38:09Z</time></trkpt><trkpt lat="42.90794869117234" lon="10.554394354042614"><ele>0.0</ele><time>2026-04-25T13:38:10Z</time></trkpt><trkpt lat="42.90809065415845" lon="10.554495512630142"><ele>0.0</ele><time>2026-04-25T13:38:13Z</time></trkpt><trkpt lat="42.90816239541018" lon="10.554566573046193"><ele>0.0</ele><time>2026-04-25T13:38:14Z</time></trkpt><trkpt lat="42.908223746581655" lon="10.554620100174553"><ele>0.0</ele><time>2026-04-25T13:38:15Z</time></trkpt><trkpt lat="42.908278104587765" lon="10.554679108782551"><ele>0.0</ele><time>2026-04-25T13:38:16Z</time></trkpt><trkpt lat="42.908365793490624" lon="10.554792923774542"><ele>0.0</ele><time>2026-04-25T13:38:18Z</time></trkpt><trkpt lat="42.908423779695504" lon="10.554849784465983"><ele>0.0</ele><time>2026-04-25T13:38:19Z</time></trkpt><trkpt lat="42.908484656876205" lon="10.554913700811262"><ele>0.0</ele><time>2026-04-25T13:38:20Z</time></trkpt><trkpt lat="42.908536476383766" lon="10.55497091387106"><ele>0.0</ele><time>2026-04-25T13:38:21Z</time></trkpt><trkpt lat="42.908605574831206" lon="10.555016217027834"><ele>0.0</ele><time>2026-04-25T13:38:22Z</time></trkpt><trkpt lat="42.908714163084944" lon="10.55512184872187"><ele>0.0</ele><time>2026-04-25T13:38:24Z</time></trkpt><trkpt lat="42.9088280877032" lon="10.55519542768163"><ele>0.0</ele><time>2026-04-25T13:38:26Z</time></trkpt><trkpt lat="42.90891454831697" lon="10.55527923998707"><ele>0.0</ele><time>2026-04-25T13:38:28Z</time></trkpt><trkpt lat="42.90902785257179" lon="10.555373741732597"><ele>0.0</ele><time>2026-04-25T13:38:30Z</time></trkpt><trkpt lat="42.90914666057984" lon="10.555394770801604"><ele>0.0</ele><time>2026-04-25T13:38:32Z</time></trkpt><trkpt lat="42.90921215517302" lon="10.555433784733433"><ele>0.0</ele><time>2026-04-25T13:38:33Z</time></trkpt><trkpt lat="42.909317386758204" lon="10.555521628972935"><ele>0.0</ele><time>2026-04-25T13:38:35Z</time></trkpt><trkpt lat="42.909371500373304" lon="10.555570763784264"><ele>0.0</ele><time>2026-04-25T13:38:36Z</time></trkpt><trkpt lat="42.90942182010599" lon="10.55562280321859"><ele>0.0</ele><time>2026-04-25T13:38:37Z</time></trkpt><trkpt lat="42.909481166369964" lon="10.555670399334211"><ele>0.0</ele><time>2026-04-25T13:38:38Z</time></trkpt><trkpt lat="42.90954089794183" lon="10.555727630576934"><ele>0.0</ele><time>2026-04-25T13:38:39Z</time></trkpt><trkpt lat="42.90959797231272" lon="10.555775978298241"><ele>0.0</ele><time>2026-04-25T13:38:40Z</time></trkpt><trkpt lat="42.90970789442391" lon="10.55588097185057"><ele>0.0</ele><time>2026-04-25T13:38:42Z</time></trkpt><trkpt lat="42.90977472053296" lon="10.555924952229224"><ele>0.0</ele><time>2026-04-25T13:38:43Z</time></trkpt><trkpt lat="42.909829923688214" lon="10.55596942751905"><ele>0.0</ele><time>2026-04-25T13:38:44Z</time></trkpt><trkpt lat="42.90988096498323" lon="10.556032047545346"><ele>0.0</ele><time>2026-04-25T13:38:45Z</time></trkpt><trkpt lat="42.909936504476356" lon="10.5560824908096"><ele>0.0</ele><time>2026-04-25T13:38:46Z</time></trkpt><trkpt lat="42.90999265296798" lon="10.556146566748328"><ele>0.0</ele><time>2026-04-25T13:38:47Z</time></trkpt><trkpt lat="42.910042169142855" lon="10.55620631527702"><ele>0.0</ele><time>2026-04-25T13:38:48Z</time></trkpt><trkpt lat="42.9100966909126" lon="10.556262884743353"><ele>0.0</ele><time>2026-04-25T13:38:49Z</time></trkpt><trkpt lat="42.910151980125626" lon="10.556319404935243"><ele>0.0</ele><time>2026-04-25T13:38:50Z</time></trkpt><trkpt lat="42.910207275296166" lon="10.556368766212545"><ele>0.0</ele><time>2026-04-25T13:38:51Z</time></trkpt><trkpt lat="42.91025991476985" lon="10.556425181855023"><ele>0.0</ele><time>2026-04-25T13:38:52Z</time></trkpt><trkpt lat="42.91032007332704" lon="10.556470625511484"><ele>0.0</ele><time>2026-04-25T13:38:53Z</time></trkpt><trkpt lat="42.91037953599089" lon="10.556525575412085"><ele>0.0</ele><time>2026-04-25T13:38:54Z</time></trkpt><trkpt lat="42.910435490769146" lon="10.556576431134738"><ele>0.0</ele><time>2026-04-25T13:38:55Z</time></trkpt><trkpt lat="42.91049187810693" lon="10.556629254639471"><ele>0.0</ele><time>2026-04-25T13:38:56Z</time></trkpt><trkpt lat="42.91055207126881" lon="10.556679606942248"><ele>0.0</ele><time>2026-04-25T13:38:57Z</time></trkpt><trkpt lat="42.91060997196316" lon="10.55673784157201"><ele>0.0</ele><time>2026-04-25T13:38:58Z</time></trkpt><trkpt lat="42.91066868967071" lon="10.55678486974679"><ele>0.0</ele><time>2026-04-25T13:38:59Z</time></trkpt><trkpt lat="42.91072922252279" lon="10.55683814136648"><ele>0.0</ele><time>2026-04-25T13:39:00Z</time></trkpt><trkpt lat="42.91078700396107" lon="10.556889618187045"><ele>0.0</ele><time>2026-04-25T13:39:01Z</time></trkpt><trkpt lat="42.910845757924044" lon="10.556940285765505"><ele>0.0</ele><time>2026-04-25T13:39:02Z</time></trkpt><trkpt lat="42.910903004884965" lon="10.556991340282638"><ele>0.0</ele><time>2026-04-25T13:39:03Z</time></trkpt><trkpt lat="42.91096284138462" lon="10.557040877643397"><ele>0.0</ele><time>2026-04-25T13:39:04Z</time></trkpt><trkpt lat="42.91102504886381" lon="10.557095163707979"><ele>0.0</ele><time>2026-04-25T13:39:05Z</time></trkpt><trkpt lat="42.91108345924687" lon="10.557145319079455"><ele>0.0</ele><time>2026-04-25T13:39:06Z</time></trkpt><trkpt lat="42.91114088679152" lon="10.557198926147988"><ele>0.0</ele><time>2026-04-25T13:39:07Z</time></trkpt><trkpt lat="42.911199685684196" lon="10.557250611958159"><ele>0.0</ele><time>2026-04-25T13:39:08Z</time></trkpt><trkpt lat="42.91126167075509" lon="10.557301938397213"><ele>0.0</ele><time>2026-04-25T13:39:09Z</time></trkpt><trkpt lat="42.91132116560328" lon="10.557353307470331"><ele>0.0</ele><time>2026-04-25T13:39:10Z</time></trkpt><trkpt lat="42.911381045698256" lon="10.557404061204636"><ele>0.0</ele><time>2026-04-25T13:39:11Z</time></trkpt><trkpt lat="42.911440038828786" lon="10.557456631989254"><ele>0.0</ele><time>2026-04-25T13:39:12Z</time></trkpt><trkpt lat="42.9114993919401" lon="10.557507136460856"><ele>0.0</ele><time>2026-04-25T13:39:13Z</time></trkpt><trkpt lat="42.91155704658619" lon="10.557556649663637"><ele>0.0</ele><time>2026-04-25T13:39:14Z</time></trkpt><trkpt lat="42.91161451026078" lon="10.557607955337334"><ele>0.0</ele><time>2026-04-25T13:39:15Z</time></trkpt><trkpt lat="42.91167226623308" lon="10.557657242591914"><ele>0.0</ele><time>2026-04-25T13:39:16Z</time></trkpt><trkpt lat="42.91173150517221" lon="10.557708881100305"><ele>0.0</ele><time>2026-04-25T13:39:17Z</time></trkpt><trkpt lat="42.91179110494938" lon="10.55775959292229"><ele>0.0</ele><time>2026-04-25T13:39:18Z</time></trkpt><trkpt lat="42.91185106472691" lon="10.557804742497467"><ele>0.0</ele><time>2026-04-25T13:39:19Z</time></trkpt><trkpt lat="42.91191105788564" lon="10.557855811488173"><ele>0.0</ele><time>2026-04-25T13:39:20Z</time></trkpt><trkpt lat="42.91196984074377" lon="10.55790726534382"><ele>0.0</ele><time>2026-04-25T13:39:21Z</time></trkpt><trkpt lat="42.91202782434328" lon="10.557957225620154"><ele>0.0</ele><time>2026-04-25T13:39:22Z</time></trkpt><trkpt lat="42.912089321593506" lon="10.55800882999379"><ele>0.0</ele><time>2026-04-25T13:39:23Z</time></trkpt><trkpt lat="42.91214827257671" lon="10.558058248172891"><ele>0.0</ele><time>2026-04-25T13:39:24Z</time></trkpt><trkpt lat="42.91220687379847" lon="10.558107713990443"><ele>0.0</ele><time>2026-04-25T13:39:25Z</time></trkpt><trkpt lat="42.91226725225532" lon="10.558158733296901"><ele>0.0</ele><time>2026-04-25T13:39:26Z</time></trkpt><trkpt lat="42.91232589205706" lon="10.558208701770813"><ele>0.0</ele><time>2026-04-25T13:39:27Z</time></trkpt><trkpt lat="42.91238425743853" lon="10.558258565201893"><ele>0.0</ele><time>2026-04-25T13:39:28Z</time></trkpt><trkpt lat="42.912445310027316" lon="10.55830796677769"><ele>0.0</ele><time>2026-04-25T13:39:29Z</time></trkpt><trkpt lat="42.912502442297836" lon="10.558359053598496"><ele>0.0</ele><time>2026-04-25T13:39:30Z</time></trkpt><trkpt lat="42.91256149182659" lon="10.55840841993079"><ele>0.0</ele><time>2026-04-25T13:39:31Z</time></trkpt><trkpt lat="42.912620715444646" lon="10.5584584596059"><ele>0.0</ele><time>2026-04-25T13:39:32Z</time></trkpt><trkpt lat="42.912679224813374" lon="10.558507379160101"><ele>0.0</ele><time>2026-04-25T13:39:33Z</time></trkpt><trkpt lat="42.9127384296166" lon="10.558556202017515"><ele>0.0</ele><time>2026-04-25T13:39:34Z</time></trkpt><trkpt lat="42.91279853048579" lon="10.5586064543511"><ele>0.0</ele><time>2026-04-25T13:39:35Z</time></trkpt><trkpt lat="42.91285801763865" lon="10.558655609299196"><ele>0.0</ele><time>2026-04-25T13:39:36Z</time></trkpt><trkpt lat="42.91291857693879" lon="10.558699758118516"><ele>0.0</ele><time>2026-04-25T13:39:37Z</time></trkpt><trkpt lat="42.912976458089865" lon="10.558746828777444"><ele>0.0</ele><time>2026-04-25T13:39:38Z</time></trkpt><trkpt lat="42.91303283290424" lon="10.55879171835672"><ele>0.0</ele><time>2026-04-25T13:39:39Z</time></trkpt><trkpt lat="42.91309399493381" lon="10.55883666535126"><ele>0.0</ele><time>2026-04-25T13:39:40Z</time></trkpt><trkpt lat="42.913155401979886" lon="10.55888282703288"><ele>0.0</ele><time>2026-04-25T13:39:41Z</time></trkpt><trkpt lat="42.91321622328032" lon="10.558929575743457"><ele>0.0</ele><time>2026-04-25T13:39:42Z</time></trkpt><trkpt lat="42.91328064972306" lon="10.558986930922579"><ele>0.0</ele><time>2026-04-25T13:39:43Z</time></trkpt><trkpt lat="42.91334159682795" lon="10.559032891388224"><ele>0.0</ele><time>2026-04-25T13:39:44Z</time></trkpt><trkpt lat="42.91340139655165" lon="10.559071249295547"><ele>0.0</ele><time>2026-04-25T13:39:45Z</time></trkpt><trkpt lat="42.9134623409789" lon="10.559119724930778"><ele>0.0</ele><time>2026-04-25T13:39:46Z</time></trkpt><trkpt lat="42.913521073000126" lon="10.55916426049152"><ele>0.0</ele><time>2026-04-25T13:39:47Z</time></trkpt><trkpt lat="42.91358411613095" lon="10.559213505946714"><ele>0.0</ele><time>2026-04-25T13:39:48Z</time></trkpt><trkpt lat="42.913647740753824" lon="10.559262111169117"><ele>0.0</ele><time>2026-04-25T13:39:49Z</time></trkpt><trkpt lat="42.91370872054284" lon="10.559307411558656"><ele>0.0</ele><time>2026-04-25T13:39:50Z</time></trkpt><trkpt lat="42.913772893607764" lon="10.559350107626743"><ele>0.0</ele><time>2026-04-25T13:39:51Z</time></trkpt><trkpt lat="42.91383559561246" lon="10.559390964017615"><ele>0.0</ele><time>2026-04-25T13:39:52Z</time></trkpt><trkpt lat="42.91389916905456" lon="10.559436737547394"><ele>0.0</ele><time>2026-04-25T13:39:53Z</time></trkpt><trkpt lat="42.91396730538668" lon="10.55947546477655"><ele>0.0</ele><time>2026-04-25T13:39:54Z</time></trkpt><trkpt lat="42.91403010822906" lon="10.5595146063219"><ele>0.0</ele><time>2026-04-25T13:39:55Z</time></trkpt><trkpt lat="42.91409303794096" lon="10.55955148940873"><ele>0.0</ele><time>2026-04-25T13:39:56Z</time></trkpt><trkpt lat="42.914153320072494" lon="10.55958876801161"><ele>0.0</ele><time>2026-04-25T13:39:57Z</time></trkpt><trkpt lat="42.91421811572687" lon="10.559630825907483"><ele>0.0</ele><time>2026-04-25T13:39:58Z</time></trkpt><trkpt lat="42.914278478029004" lon="10.559669246374385"><ele>0.0</ele><time>2026-04-25T13:39:59Z</time></trkpt><trkpt lat="42.91434263322279" lon="10.559709942551441"><ele>0.0</ele><time>2026-04-25T13:40:00Z</time></trkpt><trkpt lat="42.91440246816849" lon="10.55975306573846"><ele>0.0</ele><time>2026-04-25T13:40:01Z</time></trkpt><trkpt lat="42.91446017227038" lon="10.559799682900918"><ele>0.0</ele><time>2026-04-25T13:40:02Z</time></trkpt><trkpt lat="42.91451765692761" lon="10.559850297196189"><ele>0.0</ele><time>2026-04-25T13:40:03Z</time></trkpt><trkpt lat="42.91457758992456" lon="10.55989900394698"><ele>0.0</ele><time>2026-04-25T13:40:04Z</time></trkpt><trkpt lat="42.91463554609129" lon="10.559946396003792"><ele>0.0</ele><time>2026-04-25T13:40:05Z</time></trkpt><trkpt lat="42.91469326585375" lon="10.559998374667984"><ele>0.0</ele><time>2026-04-25T13:40:06Z</time></trkpt><trkpt lat="42.91475195195941" lon="10.560045312146633"><ele>0.0</ele><time>2026-04-25T13:40:07Z</time></trkpt><trkpt lat="42.91480989444439" lon="10.560096320044561"><ele>0.0</ele><time>2026-04-25T13:40:08Z</time></trkpt><trkpt lat="42.91486792244056" lon="10.560144955873628"><ele>0.0</ele><time>2026-04-25T13:40:09Z</time></trkpt><trkpt lat="42.91492608638769" lon="10.560194798175214"><ele>0.0</ele><time>2026-04-25T13:40:10Z</time></trkpt><trkpt lat="42.9149838314825" lon="10.560245788569347"><ele>0.0</ele><time>2026-04-25T13:40:11Z</time></trkpt><trkpt lat="42.91504189548219" lon="10.560298149924558"><ele>0.0</ele><time>2026-04-25T13:40:12Z</time></trkpt><trkpt lat="42.91509913714792" lon="10.560351156385527"><ele>0.0</ele><time>2026-04-25T13:40:13Z</time></trkpt><trkpt lat="42.915155974808" lon="10.560404705263851"><ele>0.0</ele><time>2026-04-25T13:40:14Z</time></trkpt><trkpt lat="42.91521327474054" lon="10.560457272632831"><ele>0.0</ele><time>2026-04-25T13:40:15Z</time></trkpt><trkpt lat="42.915270691673186" lon="10.560511392835913"><ele>0.0</ele><time>2026-04-25T13:40:16Z</time></trkpt><trkpt lat="42.91532432210306" lon="10.560558954220012"><ele>0.0</ele><time>2026-04-25T13:40:17Z</time></trkpt><trkpt lat="42.9153813632408" lon="10.560611540882238"><ele>0.0</ele><time>2026-04-25T13:40:18Z</time></trkpt><trkpt lat="42.91544063964729" lon="10.560666503273435"><ele>0.0</ele><time>2026-04-25T13:40:19Z</time></trkpt><trkpt lat="42.915495272379616" lon="10.560721714488448"><ele>0.0</ele><time>2026-04-25T13:40:20Z</time></trkpt><trkpt lat="42.91555250419554" lon="10.560776289393624"><ele>0.0</ele><time>2026-04-25T13:40:21Z</time></trkpt><trkpt lat="42.91560996814808" lon="10.560831161200353"><ele>0.0</ele><time>2026-04-25T13:40:22Z</time></trkpt><trkpt lat="42.91566645006175" lon="10.560885813893664"><ele>0.0</ele><time>2026-04-25T13:40:23Z</time></trkpt><trkpt lat="42.915722542405184" lon="10.560938277319384"><ele>0.0</ele><time>2026-04-25T13:40:24Z</time></trkpt><trkpt lat="42.91578180724584" lon="10.560991405144192"><ele>0.0</ele><time>2026-04-25T13:40:25Z</time></trkpt><trkpt lat="42.915837530266174" lon="10.561037973992182"><ele>0.0</ele><time>2026-04-25T13:40:26Z</time></trkpt><trkpt lat="42.915893869848595" lon="10.561087436864932"><ele>0.0</ele><time>2026-04-25T13:40:27Z</time></trkpt><trkpt lat="42.915951441921116" lon="10.561140765899939"><ele>0.0</ele><time>2026-04-25T13:40:28Z</time></trkpt><trkpt lat="42.916012284634824" lon="10.561179801174044"><ele>0.0</ele><time>2026-04-25T13:40:29Z</time></trkpt><trkpt lat="42.91606980796878" lon="10.561231039850055"><ele>0.0</ele><time>2026-04-25T13:40:30Z</time></trkpt><trkpt lat="42.91612900337614" lon="10.561274123645447"><ele>0.0</ele><time>2026-04-25T13:40:31Z</time></trkpt><trkpt lat="42.91618569804535" lon="10.561322269984949"><ele>0.0</ele><time>2026-04-25T13:40:32Z</time></trkpt><trkpt lat="42.9162464630576" lon="10.5613711368574"><ele>0.0</ele><time>2026-04-25T13:40:33Z</time></trkpt><trkpt lat="42.91630635329754" lon="10.561423163105173"><ele>0.0</ele><time>2026-04-25T13:40:34Z</time></trkpt><trkpt lat="42.916359796769875" lon="10.561473327416001"><ele>0.0</ele><time>2026-04-25T13:40:35Z</time></trkpt><trkpt lat="42.91641796360743" lon="10.561525394045796"><ele>0.0</ele><time>2026-04-25T13:40:36Z</time></trkpt><trkpt lat="42.91647610194686" lon="10.56157203524109"><ele>0.0</ele><time>2026-04-25T13:40:37Z</time></trkpt><trkpt lat="42.91653229460914" lon="10.561614900259464"><ele>0.0</ele><time>2026-04-25T13:40:38Z</time></trkpt><trkpt lat="42.916588476359486" lon="10.561659748051357"><ele>0.0</ele><time>2026-04-25T13:40:39Z</time></trkpt><trkpt lat="42.916645116687505" lon="10.561706139489264"><ele>0.0</ele><time>2026-04-25T13:40:40Z</time></trkpt><trkpt lat="42.916704194699435" lon="10.56174951905918"><ele>0.0</ele><time>2026-04-25T13:40:41Z</time></trkpt><trkpt lat="42.91676136606094" lon="10.561798606829633"><ele>0.0</ele><time>2026-04-25T13:40:42Z</time></trkpt><trkpt lat="42.916821013975884" lon="10.561839968697537"><ele>0.0</ele><time>2026-04-25T13:40:43Z</time></trkpt><trkpt lat="42.91687804328865" lon="10.561887596603786"><ele>0.0</ele><time>2026-04-25T13:40:44Z</time></trkpt><trkpt lat="42.91693887465268" lon="10.561930261170499"><ele>0.0</ele><time>2026-04-25T13:40:45Z</time></trkpt><trkpt lat="42.91699710619642" lon="10.561979538345179"><ele>0.0</ele><time>2026-04-25T13:40:46Z</time></trkpt><trkpt lat="42.91705831752819" lon="10.562019390347485"><ele>0.0</ele><time>2026-04-25T13:40:47Z</time></trkpt><trkpt lat="42.9171258816881" lon="10.562042238122912"><ele>0.0</ele><time>2026-04-25T13:40:48Z</time></trkpt><trkpt lat="42.91718947310076" lon="10.562081837220726"><ele>0.0</ele><time>2026-04-25T13:40:49Z</time></trkpt><trkpt lat="42.91730613132408" lon="10.562159523130022"><ele>0.0</ele><time>2026-04-25T13:40:51Z</time></trkpt><trkpt lat="42.91736672068999" lon="10.562199793281227"><ele>0.0</ele><time>2026-04-25T13:40:52Z</time></trkpt><trkpt lat="42.91742980531737" lon="10.56224239664713"><ele>0.0</ele><time>2026-04-25T13:40:53Z</time></trkpt><trkpt lat="42.91749313383687" lon="10.56228419865341"><ele>0.0</ele><time>2026-04-25T13:40:54Z</time></trkpt><trkpt lat="42.9175548027543" lon="10.562325151303575"><ele>0.0</ele><time>2026-04-25T13:40:55Z</time></trkpt><trkpt lat="42.91761686534427" lon="10.56236407743444"><ele>0.0</ele><time>2026-04-25T13:40:56Z</time></trkpt><trkpt lat="42.917675263112606" lon="10.56240204001277"><ele>0.0</ele><time>2026-04-25T13:40:57Z</time></trkpt><trkpt lat="42.91773553776138" lon="10.562441777212458"><ele>0.0</ele><time>2026-04-25T13:40:58Z</time></trkpt><trkpt lat="42.9177980696262" lon="10.562479387895511"><ele>0.0</ele><time>2026-04-25T13:40:59Z</time></trkpt><trkpt lat="42.9178603376221" lon="10.562514373037056"><ele>0.0</ele><time>2026-04-25T13:41:00Z</time></trkpt><trkpt lat="42.91792300595283" lon="10.56255093808135"><ele>0.0</ele><time>2026-04-25T13:41:01Z</time></trkpt><trkpt lat="42.91798607429977" lon="10.562588433741762"><ele>0.0</ele><time>2026-04-25T13:41:02Z</time></trkpt><trkpt lat="42.9180498772037" lon="10.562624637088451"><ele>0.0</ele><time>2026-04-25T13:41:03Z</time></trkpt><trkpt lat="42.91811234504711" lon="10.562661765300671"><ele>0.0</ele><time>2026-04-25T13:41:04Z</time></trkpt><trkpt lat="42.91817507196178" lon="10.562698058259741"><ele>0.0</ele><time>2026-04-25T13:41:05Z</time></trkpt><trkpt lat="42.9182380844851" lon="10.562736948713516"><ele>0.0</ele><time>2026-04-25T13:41:06Z</time></trkpt><trkpt lat="42.918300407853046" lon="10.56277529365519"><ele>0.0</ele><time>2026-04-25T13:41:07Z</time></trkpt><trkpt lat="42.918362527593324" lon="10.562812543942968"><ele>0.0</ele><time>2026-04-25T13:41:08Z</time></trkpt><trkpt lat="42.91842468735114" lon="10.562848722875183"><ele>0.0</ele><time>2026-04-25T13:41:09Z</time></trkpt><trkpt lat="42.918485146819016" lon="10.562887381011226"><ele>0.0</ele><time>2026-04-25T13:41:10Z</time></trkpt><trkpt lat="42.918543275792096" lon="10.562922980059273"><ele>0.0</ele><time>2026-04-25T13:41:11Z</time></trkpt><trkpt lat="42.918607264369356" lon="10.562959049074172"><ele>0.0</ele><time>2026-04-25T13:41:12Z</time></trkpt><trkpt lat="42.91866961844619" lon="10.562996693548964"><ele>0.0</ele><time>2026-04-25T13:41:13Z</time></trkpt><trkpt lat="42.91873197820335" lon="10.56303339515219"><ele>0.0</ele><time>2026-04-25T13:41:14Z</time></trkpt><trkpt lat="42.91879322080762" lon="10.563072173950816"><ele>0.0</ele><time>2026-04-25T13:41:15Z</time></trkpt><trkpt lat="42.91885559293333" lon="10.56310942845836"><ele>0.0</ele><time>2026-04-25T13:41:16Z</time></trkpt><trkpt lat="42.91891760633468" lon="10.56314570430658"><ele>0.0</ele><time>2026-04-25T13:41:17Z</time></trkpt><trkpt lat="42.91898069710365" lon="10.56318107956905"><ele>0.0</ele><time>2026-04-25T13:41:18Z</time></trkpt><trkpt lat="42.91904373793684" lon="10.56321685212299"><ele>0.0</ele><time>2026-04-25T13:41:19Z</time></trkpt><trkpt lat="42.919106940139024" lon="10.563252388528769"><ele>0.0</ele><time>2026-04-25T13:41:20Z</time></trkpt><trkpt lat="42.919170786549145" lon="10.563289063014206"><ele>0.0</ele><time>2026-04-25T13:41:21Z</time></trkpt><trkpt lat="42.91923390291314" lon="10.563326446702854"><ele>0.0</ele><time>2026-04-25T13:41:22Z</time></trkpt><trkpt lat="42.91929629440584" lon="10.563362808666897"><ele>0.0</ele><time>2026-04-25T13:41:23Z</time></trkpt><trkpt lat="42.91935937324168" lon="10.563400047652543"><ele>0.0</ele><time>2026-04-25T13:41:24Z</time></trkpt><trkpt lat="42.91942226172732" lon="10.563433592473844"><ele>0.0</ele><time>2026-04-25T13:41:25Z</time></trkpt><trkpt lat="42.91948081674391" lon="10.563469170610636"><ele>0.0</ele><time>2026-04-25T13:41:26Z</time></trkpt><trkpt lat="42.91954241048603" lon="10.563504610075181"><ele>0.0</ele><time>2026-04-25T13:41:27Z</time></trkpt><trkpt lat="42.919604347337334" lon="10.563539994372126"><ele>0.0</ele><time>2026-04-25T13:41:28Z</time></trkpt><trkpt lat="42.91966785087247" lon="10.563575580176991"><ele>0.0</ele><time>2026-04-25T13:41:29Z</time></trkpt><trkpt lat="42.91973044678789" lon="10.563611114569797"><ele>0.0</ele><time>2026-04-25T13:41:30Z</time></trkpt><trkpt lat="42.91979328505333" lon="10.563646514602654"><ele>0.0</ele><time>2026-04-25T13:41:31Z</time></trkpt><trkpt lat="42.91985635933437" lon="10.563683378109834"><ele>0.0</ele><time>2026-04-25T13:41:32Z</time></trkpt><trkpt lat="42.919917315768366" lon="10.563717980694559"><ele>0.0</ele><time>2026-04-25T13:41:33Z</time></trkpt><trkpt lat="42.919979920294146" lon="10.563752380439478"><ele>0.0</ele><time>2026-04-25T13:41:34Z</time></trkpt><trkpt lat="42.92004199760184" lon="10.56378741252668"><ele>0.0</ele><time>2026-04-25T13:41:35Z</time></trkpt><trkpt lat="42.920104948135965" lon="10.563821667393034"><ele>0.0</ele><time>2026-04-25T13:41:36Z</time></trkpt><trkpt lat="42.9201678738754" lon="10.563855767992393"><ele>0.0</ele><time>2026-04-25T13:41:37Z</time></trkpt><trkpt lat="42.92023200163684" lon="10.56388999091703"><ele>0.0</ele><time>2026-04-25T13:41:38Z</time></trkpt><trkpt lat="42.920295738559616" lon="10.563924039287572"><ele>0.0</ele><time>2026-04-25T13:41:39Z</time></trkpt><trkpt lat="42.920358837452454" lon="10.563957360311942"><ele>0.0</ele><time>2026-04-25T13:41:40Z</time></trkpt><trkpt lat="42.920421763954664" lon="10.563991647311598"><ele>0.0</ele><time>2026-04-25T13:41:41Z</time></trkpt><trkpt lat="42.92048507709949" lon="10.564024762840818"><ele>0.0</ele><time>2026-04-25T13:41:42Z</time></trkpt><trkpt lat="42.92054941991794" lon="10.564058979843738"><ele>0.0</ele><time>2026-04-25T13:41:43Z</time></trkpt><trkpt lat="42.920613322962005" lon="10.56409095859038"><ele>0.0</ele><time>2026-04-25T13:41:44Z</time></trkpt><trkpt lat="42.92067694043405" lon="10.564124338069826"><ele>0.0</ele><time>2026-04-25T13:41:45Z</time></trkpt><trkpt lat="42.920741573784134" lon="10.564156361873101"><ele>0.0</ele><time>2026-04-25T13:41:46Z</time></trkpt><trkpt lat="42.920805361414736" lon="10.564188245414835"><ele>0.0</ele><time>2026-04-25T13:41:47Z</time></trkpt><trkpt lat="42.9208679926377" lon="10.564221869837413"><ele>0.0</ele><time>2026-04-25T13:41:48Z</time></trkpt><trkpt lat="42.92093200343271" lon="10.564253723609635"><ele>0.0</ele><time>2026-04-25T13:41:49Z</time></trkpt><trkpt lat="42.92099677101328" lon="10.564285251338037"><ele>0.0</ele><time>2026-04-25T13:41:50Z</time></trkpt><trkpt lat="42.92106053381431" lon="10.564317445390706"><ele>0.0</ele><time>2026-04-25T13:41:51Z</time></trkpt><trkpt lat="42.92112363897852" lon="10.564348120810855"><ele>0.0</ele><time>2026-04-25T13:41:52Z</time></trkpt><trkpt lat="42.92118678399993" lon="10.56438271133839"><ele>0.0</ele><time>2026-04-25T13:41:53Z</time></trkpt><trkpt lat="42.92124845822436" lon="10.564417382089813"><ele>0.0</ele><time>2026-04-25T13:41:54Z</time></trkpt><trkpt lat="42.921312227106306" lon="10.564447590662237"><ele>0.0</ele><time>2026-04-25T13:41:55Z</time></trkpt><trkpt lat="42.92137485511638" lon="10.564481268959588"><ele>0.0</ele><time>2026-04-25T13:41:56Z</time></trkpt><trkpt lat="42.921438069972496" lon="10.564511687543595"><ele>0.0</ele><time>2026-04-25T13:41:57Z</time></trkpt><trkpt lat="42.92150419355505" lon="10.564541835923043"><ele>0.0</ele><time>2026-04-25T13:41:58Z</time></trkpt><trkpt lat="42.921565776969864" lon="10.564576739689036"><ele>0.0</ele><time>2026-04-25T13:41:59Z</time></trkpt><trkpt lat="42.92162626497351" lon="10.564611540483709"><ele>0.0</ele><time>2026-04-25T13:42:00Z</time></trkpt><trkpt lat="42.92169314688411" lon="10.564644182601821"><ele>0.0</ele><time>2026-04-25T13:42:01Z</time></trkpt><trkpt lat="42.921761652220724" lon="10.564678649299767"><ele>0.0</ele><time>2026-04-25T13:42:02Z</time></trkpt><trkpt lat="42.92182406096284" lon="10.564711189405939"><ele>0.0</ele><time>2026-04-25T13:42:03Z</time></trkpt><trkpt lat="42.92188865673195" lon="10.564742999047317"><ele>0.0</ele><time>2026-04-25T13:42:04Z</time></trkpt><trkpt lat="42.92195470272264" lon="10.564777116606953"><ele>0.0</ele><time>2026-04-25T13:42:05Z</time></trkpt><trkpt lat="42.92201344401118" lon="10.564811276728733"><ele>0.0</ele><time>2026-04-25T13:42:06Z</time></trkpt><trkpt lat="42.92207677190027" lon="10.564846724381827"><ele>0.0</ele><time>2026-04-25T13:42:07Z</time></trkpt><trkpt lat="42.92220719420953" lon="10.564915838387162"><ele>0.0</ele><time>2026-04-25T13:42:09Z</time></trkpt><trkpt lat="42.92227298998933" lon="10.564961146232546"><ele>0.0</ele><time>2026-04-25T13:42:10Z</time></trkpt><trkpt lat="42.922394882498466" lon="10.565021114876238"><ele>0.0</ele><time>2026-04-25T13:42:12Z</time></trkpt><trkpt lat="42.92246215398775" lon="10.565058385778846"><ele>0.0</ele><time>2026-04-25T13:42:13Z</time></trkpt><trkpt lat="42.92259004413607" lon="10.56512615641598"><ele>0.0</ele><time>2026-04-25T13:42:15Z</time></trkpt><trkpt lat="42.92265267498047" lon="10.56516015604818"><ele>0.0</ele><time>2026-04-25T13:42:16Z</time></trkpt><trkpt lat="42.92272259983736" lon="10.565189578040476"><ele>0.0</ele><time>2026-04-25T13:42:17Z</time></trkpt><trkpt lat="42.92278328053847" lon="10.565230052130369"><ele>0.0</ele><time>2026-04-25T13:42:18Z</time></trkpt><trkpt lat="42.922849482758636" lon="10.56526026786668"><ele>0.0</ele><time>2026-04-25T13:42:19Z</time></trkpt><trkpt lat="42.92291560531598" lon="10.565297416217174"><ele>0.0</ele><time>2026-04-25T13:42:20Z</time></trkpt><trkpt lat="42.92297519088722" lon="10.565333669744684"><ele>0.0</ele><time>2026-04-25T13:42:21Z</time></trkpt><trkpt lat="42.9230451300324" lon="10.565362960004911"><ele>0.0</ele><time>2026-04-25T13:42:22Z</time></trkpt><trkpt lat="42.923105035908954" lon="10.565396267647797"><ele>0.0</ele><time>2026-04-25T13:42:23Z</time></trkpt><trkpt lat="42.92316941123007" lon="10.565424289248103"><ele>0.0</ele><time>2026-04-25T13:42:24Z</time></trkpt><trkpt lat="42.92323190802705" lon="10.565455801473709"><ele>0.0</ele><time>2026-04-25T13:42:25Z</time></trkpt><trkpt lat="42.92329471895358" lon="10.565489594476944"><ele>0.0</ele><time>2026-04-25T13:42:26Z</time></trkpt><trkpt lat="42.92335900305431" lon="10.565519494326773"><ele>0.0</ele><time>2026-04-25T13:42:27Z</time></trkpt><trkpt lat="42.923422991410845" lon="10.565550397721207"><ele>0.0</ele><time>2026-04-25T13:42:28Z</time></trkpt><trkpt lat="42.923488280692915" lon="10.565582640117617"><ele>0.0</ele><time>2026-04-25T13:42:29Z</time></trkpt><trkpt lat="42.92355272311811" lon="10.565613923573444"><ele>0.0</ele><time>2026-04-25T13:42:30Z</time></trkpt><trkpt lat="42.9236146152788" lon="10.56564694642946"><ele>0.0</ele><time>2026-04-25T13:42:31Z</time></trkpt><trkpt lat="42.9236805915676" lon="10.565677769089005"><ele>0.0</ele><time>2026-04-25T13:42:32Z</time></trkpt><trkpt lat="42.92374428519601" lon="10.565711265627941"><ele>0.0</ele><time>2026-04-25T13:42:33Z</time></trkpt><trkpt lat="42.923809310485524" lon="10.565744814642438"><ele>0.0</ele><time>2026-04-25T13:42:34Z</time></trkpt><trkpt lat="42.92387363267711" lon="10.56577804034764"><ele>0.0</ele><time>2026-04-25T13:42:35Z</time></trkpt><trkpt lat="42.92393642466682" lon="10.565812125028057"><ele>0.0</ele><time>2026-04-25T13:42:36Z</time></trkpt><trkpt lat="42.92399742031063" lon="10.56584600968807"><ele>0.0</ele><time>2026-04-25T13:42:37Z</time></trkpt><trkpt lat="42.924060308638076" lon="10.565879588839092"><ele>0.0</ele><time>2026-04-25T13:42:38Z</time></trkpt><trkpt lat="42.924124676446816" lon="10.565912974586873"><ele>0.0</ele><time>2026-04-25T13:42:39Z</time></trkpt><trkpt lat="42.92418769445568" lon="10.565946075271166"><ele>0.0</ele><time>2026-04-25T13:42:40Z</time></trkpt><trkpt lat="42.92425146573394" lon="10.565977685809845"><ele>0.0</ele><time>2026-04-25T13:42:41Z</time></trkpt><trkpt lat="42.924313489254935" lon="10.566010498135935"><ele>0.0</ele><time>2026-04-25T13:42:42Z</time></trkpt><trkpt lat="42.92437713227004" lon="10.566042043807972"><ele>0.0</ele><time>2026-04-25T13:42:43Z</time></trkpt><trkpt lat="42.92444028834434" lon="10.566073312544663"><ele>0.0</ele><time>2026-04-25T13:42:44Z</time></trkpt><trkpt lat="42.924502899290744" lon="10.566104612155712"><ele>0.0</ele><time>2026-04-25T13:42:45Z</time></trkpt><trkpt lat="42.92456473202862" lon="10.566135714768533"><ele>0.0</ele><time>2026-04-25T13:42:46Z</time></trkpt><trkpt lat="42.9246286017746" lon="10.5661676161425"><ele>0.0</ele><time>2026-04-25T13:42:47Z</time></trkpt><trkpt lat="42.924692159670165" lon="10.566199065145543"><ele>0.0</ele><time>2026-04-25T13:42:48Z</time></trkpt><trkpt lat="42.924755454237975" lon="10.566233121473271"><ele>0.0</ele><time>2026-04-25T13:42:49Z</time></trkpt><trkpt lat="42.92481995397096" lon="10.566262557340531"><ele>0.0</ele><time>2026-04-25T13:42:50Z</time></trkpt><trkpt lat="42.92488366943482" lon="10.566291507988815"><ele>0.0</ele><time>2026-04-25T13:42:51Z</time></trkpt><trkpt lat="42.92494638294505" lon="10.566321497034574"><ele>0.0</ele><time>2026-04-25T13:42:52Z</time></trkpt><trkpt lat="42.92501088774717" lon="10.566350514754582"><ele>0.0</ele><time>2026-04-25T13:42:53Z</time></trkpt><trkpt lat="42.9250740963006" lon="10.566378749694904"><ele>0.0</ele><time>2026-04-25T13:42:54Z</time></trkpt><trkpt lat="42.92513952022545" lon="10.56640501502364"><ele>0.0</ele><time>2026-04-25T13:42:55Z</time></trkpt><trkpt lat="42.92520524141955" lon="10.56643214999569"><ele>0.0</ele><time>2026-04-25T13:42:56Z</time></trkpt><trkpt lat="42.925269697497676" lon="10.566459958788247"><ele>0.0</ele><time>2026-04-25T13:42:57Z</time></trkpt><trkpt lat="42.925333114952075" lon="10.566489720585901"><ele>0.0</ele><time>2026-04-25T13:42:58Z</time></trkpt><trkpt lat="42.925395457570716" lon="10.566519286605589"><ele>0.0</ele><time>2026-04-25T13:42:59Z</time></trkpt><trkpt lat="42.92545780125322" lon="10.566550098545303"><ele>0.0</ele><time>2026-04-25T13:43:00Z</time></trkpt><trkpt lat="42.92552254961718" lon="10.566579923236954"><ele>0.0</ele><time>2026-04-25T13:43:01Z</time></trkpt><trkpt lat="42.925581370149914" lon="10.56661432772431"><ele>0.0</ele><time>2026-04-25T13:43:02Z</time></trkpt><trkpt lat="42.925652187990025" lon="10.566643509301885"><ele>0.0</ele><time>2026-04-25T13:43:03Z</time></trkpt><trkpt lat="42.92571232061771" lon="10.566676008911047"><ele>0.0</ele><time>2026-04-25T13:43:04Z</time></trkpt><trkpt lat="42.92577673461694" lon="10.566706088717682"><ele>0.0</ele><time>2026-04-25T13:43:05Z</time></trkpt><trkpt lat="42.9258430995517" lon="10.566737660402957"><ele>0.0</ele><time>2026-04-25T13:43:06Z</time></trkpt><trkpt lat="42.925907607557974" lon="10.566768382068936"><ele>0.0</ele><time>2026-04-25T13:43:07Z</time></trkpt><trkpt lat="42.92597471882075" lon="10.566795399068113"><ele>0.0</ele><time>2026-04-25T13:43:08Z</time></trkpt><trkpt lat="42.92603837900929" lon="10.566823942736319"><ele>0.0</ele><time>2026-04-25T13:43:09Z</time></trkpt><trkpt lat="42.92610673085708" lon="10.566852113648206"><ele>0.0</ele><time>2026-04-25T13:43:10Z</time></trkpt><trkpt lat="42.92616959014161" lon="10.56688118043599"><ele>0.0</ele><time>2026-04-25T13:43:11Z</time></trkpt><trkpt lat="42.926235338657754" lon="10.566908486908543"><ele>0.0</ele><time>2026-04-25T13:43:12Z</time></trkpt><trkpt lat="42.926299551970175" lon="10.566935429976928"><ele>0.0</ele><time>2026-04-25T13:43:13Z</time></trkpt><trkpt lat="42.92636605540078" lon="10.566962463409627"><ele>0.0</ele><time>2026-04-25T13:43:14Z</time></trkpt><trkpt lat="42.926433022850965" lon="10.56698769100962"><ele>0.0</ele><time>2026-04-25T13:43:15Z</time></trkpt><trkpt lat="42.9265001975658" lon="10.567013747317228"><ele>0.0</ele><time>2026-04-25T13:43:16Z</time></trkpt><trkpt lat="42.9265643252512" lon="10.567041316491455"><ele>0.0</ele><time>2026-04-25T13:43:17Z</time></trkpt><trkpt lat="42.926630076867255" lon="10.567066252809944"><ele>0.0</ele><time>2026-04-25T13:43:18Z</time></trkpt><trkpt lat="42.926694877027174" lon="10.567089602269993"><ele>0.0</ele><time>2026-04-25T13:43:19Z</time></trkpt><trkpt lat="42.92676022749419" lon="10.567114852797488"><ele>0.0</ele><time>2026-04-25T13:43:20Z</time></trkpt><trkpt lat="42.926824315181356" lon="10.567135981092552"><ele>0.0</ele><time>2026-04-25T13:43:21Z</time></trkpt><trkpt lat="42.926889214300616" lon="10.567161070492254"><ele>0.0</ele><time>2026-04-25T13:43:22Z</time></trkpt><trkpt lat="42.92695373652072" lon="10.567183558101261"><ele>0.0</ele><time>2026-04-25T13:43:23Z</time></trkpt><trkpt lat="42.92702052593019" lon="10.567206585709839"><ele>0.0</ele><time>2026-04-25T13:43:24Z</time></trkpt><trkpt lat="42.92708675107169" lon="10.567226782007447"><ele>0.0</ele><time>2026-04-25T13:43:25Z</time></trkpt><trkpt lat="42.92715263383003" lon="10.567248860921824"><ele>0.0</ele><time>2026-04-25T13:43:26Z</time></trkpt><trkpt lat="42.927218732357325" lon="10.567269195016703"><ele>0.0</ele><time>2026-04-25T13:43:27Z</time></trkpt><trkpt lat="42.927284769609656" lon="10.567286263782362"><ele>0.0</ele><time>2026-04-25T13:43:28Z</time></trkpt><trkpt lat="42.92735002590094" lon="10.567305731380026"><ele>0.0</ele><time>2026-04-25T13:43:29Z</time></trkpt><trkpt lat="42.92741598590391" lon="10.567322763264654"><ele>0.0</ele><time>2026-04-25T13:43:30Z</time></trkpt><trkpt lat="42.927483484137454" lon="10.56733787603421"><ele>0.0</ele><time>2026-04-25T13:43:31Z</time></trkpt><trkpt lat="42.92754971055641" lon="10.567354838616117"><ele>0.0</ele><time>2026-04-25T13:43:32Z</time></trkpt><trkpt lat="42.927616495879" lon="10.567368498974995"><ele>0.0</ele><time>2026-04-25T13:43:33Z</time></trkpt><trkpt lat="42.92768722202853" lon="10.567381142340752"><ele>0.0</ele><time>2026-04-25T13:43:34Z</time></trkpt><trkpt lat="42.92774890005502" lon="10.567399309363033"><ele>0.0</ele><time>2026-04-25T13:43:35Z</time></trkpt><trkpt lat="42.927815369274846" lon="10.5674145427664"><ele>0.0</ele><time>2026-04-25T13:43:36Z</time></trkpt><trkpt lat="42.92788047080639" lon="10.567426768306163"><ele>0.0</ele><time>2026-04-25T13:43:37Z</time></trkpt><trkpt lat="42.92794501888771" lon="10.56743903828857"><ele>0.0</ele><time>2026-04-25T13:43:38Z</time></trkpt><trkpt lat="42.92801081321607" lon="10.56744965078113"><ele>0.0</ele><time>2026-04-25T13:43:39Z</time></trkpt><trkpt lat="42.928076389851896" lon="10.567453075997369"><ele>0.0</ele><time>2026-04-25T13:43:40Z</time></trkpt><trkpt lat="42.928141134722004" lon="10.567461994455657"><ele>0.0</ele><time>2026-04-25T13:43:41Z</time></trkpt><trkpt lat="42.9282065312886" lon="10.567464958365676"><ele>0.0</ele><time>2026-04-25T13:43:42Z</time></trkpt><trkpt lat="42.928272842889704" lon="10.567466428518635"><ele>0.0</ele><time>2026-04-25T13:43:43Z</time></trkpt><trkpt lat="42.92833734025143" lon="10.567467490689632"><ele>0.0</ele><time>2026-04-25T13:43:44Z</time></trkpt><trkpt lat="42.928403048754795" lon="10.567464924554555"><ele>0.0</ele><time>2026-04-25T13:43:45Z</time></trkpt><trkpt lat="42.92846960460672" lon="10.567462783599144"><ele>0.0</ele><time>2026-04-25T13:43:46Z</time></trkpt><trkpt lat="42.9285362020864" lon="10.567461937065577"><ele>0.0</ele><time>2026-04-25T13:43:47Z</time></trkpt><trkpt lat="42.92860191744616" lon="10.56745782383563"><ele>0.0</ele><time>2026-04-25T13:43:48Z</time></trkpt><trkpt lat="42.92866776560928" lon="10.567452559310826"><ele>0.0</ele><time>2026-04-25T13:43:49Z</time></trkpt><trkpt lat="42.928733558183104" lon="10.567448852788841"><ele>0.0</ele><time>2026-04-25T13:43:50Z</time></trkpt><trkpt lat="42.92879992497902" lon="10.567441845028966"><ele>0.0</ele><time>2026-04-25T13:43:51Z</time></trkpt><trkpt lat="42.928866210443694" lon="10.567434892222114"><ele>0.0</ele><time>2026-04-25T13:43:52Z</time></trkpt><trkpt lat="42.92893283577062" lon="10.567426585509763"><ele>0.0</ele><time>2026-04-25T13:43:53Z</time></trkpt><trkpt lat="42.92899879963178" lon="10.567416830565694"><ele>0.0</ele><time>2026-04-25T13:43:54Z</time></trkpt><trkpt lat="42.929063921862856" lon="10.567405256056055"><ele>0.0</ele><time>2026-04-25T13:43:55Z</time></trkpt><trkpt lat="42.929130602223296" lon="10.56739476211465"><ele>0.0</ele><time>2026-04-25T13:43:56Z</time></trkpt><trkpt lat="42.92919596547594" lon="10.567382630255945"><ele>0.0</ele><time>2026-04-25T13:43:57Z</time></trkpt><trkpt lat="42.92926160276831" lon="10.567370725696584"><ele>0.0</ele><time>2026-04-25T13:43:58Z</time></trkpt><trkpt lat="42.92932779355794" lon="10.56735953814504"><ele>0.0</ele><time>2026-04-25T13:43:59Z</time></trkpt><trkpt lat="42.92939458259984" lon="10.567348517697667"><ele>0.0</ele><time>2026-04-25T13:44:00Z</time></trkpt><trkpt lat="42.929461330392606" lon="10.56733689802371"><ele>0.0</ele><time>2026-04-25T13:44:01Z</time></trkpt><trkpt lat="42.929527249696875" lon="10.567323767397355"><ele>0.0</ele><time>2026-04-25T13:44:02Z</time></trkpt><trkpt lat="42.92959408830863" lon="10.567311285890435"><ele>0.0</ele><time>2026-04-25T13:44:03Z</time></trkpt><trkpt lat="42.92966194197706" lon="10.567301806484656"><ele>0.0</ele><time>2026-04-25T13:44:04Z</time></trkpt><trkpt lat="42.92972891282851" lon="10.567290771381161"><ele>0.0</ele><time>2026-04-25T13:44:05Z</time></trkpt><trkpt lat="42.92979530039139" lon="10.567278542008438"><ele>0.0</ele><time>2026-04-25T13:44:06Z</time></trkpt><trkpt lat="42.929861977357476" lon="10.567268794803176"><ele>0.0</ele><time>2026-04-25T13:44:07Z</time></trkpt><trkpt lat="42.929928553811735" lon="10.567258614195882"><ele>0.0</ele><time>2026-04-25T13:44:08Z</time></trkpt><trkpt lat="42.929995330213465" lon="10.567246684617038"><ele>0.0</ele><time>2026-04-25T13:44:09Z</time></trkpt><trkpt lat="42.93006185206295" lon="10.567231506288266"><ele>0.0</ele><time>2026-04-25T13:44:10Z</time></trkpt><trkpt lat="42.93012843088947" lon="10.567220011082465"><ele>0.0</ele><time>2026-04-25T13:44:11Z</time></trkpt><trkpt lat="42.93019482096038" lon="10.567207438640056"><ele>0.0</ele><time>2026-04-25T13:44:12Z</time></trkpt><trkpt lat="42.930261305077686" lon="10.56719175211006"><ele>0.0</ele><time>2026-04-25T13:44:13Z</time></trkpt><trkpt lat="42.93032681652819" lon="10.56717562818966"><ele>0.0</ele><time>2026-04-25T13:44:14Z</time></trkpt><trkpt lat="42.93039260469835" lon="10.567160697259704"><ele>0.0</ele><time>2026-04-25T13:44:15Z</time></trkpt><trkpt lat="42.93045815574975" lon="10.567145584317563"><ele>0.0</ele><time>2026-04-25T13:44:16Z</time></trkpt><trkpt lat="42.93052472459517" lon="10.567128523877699"><ele>0.0</ele><time>2026-04-25T13:44:17Z</time></trkpt><trkpt lat="42.93058980479768" lon="10.567110617893498"><ele>0.0</ele><time>2026-04-25T13:44:18Z</time></trkpt><trkpt lat="42.93065595399311" lon="10.56709366033028"><ele>0.0</ele><time>2026-04-25T13:44:19Z</time></trkpt><trkpt lat="42.930722632246024" lon="10.567077033748799"><ele>0.0</ele><time>2026-04-25T13:44:20Z</time></trkpt><trkpt lat="42.930787117030654" lon="10.567057963599861"><ele>0.0</ele><time>2026-04-25T13:44:21Z</time></trkpt><trkpt lat="42.93085451552886" lon="10.567039711089377"><ele>0.0</ele><time>2026-04-25T13:44:22Z</time></trkpt><trkpt lat="42.93091876143543" lon="10.567017656604243"><ele>0.0</ele><time>2026-04-25T13:44:23Z</time></trkpt><trkpt lat="42.930984243216784" lon="10.566997257925939"><ele>0.0</ele><time>2026-04-25T13:44:24Z</time></trkpt><trkpt lat="42.93104984438041" lon="10.566976301738608"><ele>0.0</ele><time>2026-04-25T13:44:25Z</time></trkpt><trkpt lat="42.931113276450645" lon="10.56695057444823"><ele>0.0</ele><time>2026-04-25T13:44:26Z</time></trkpt><trkpt lat="42.9311786839457" lon="10.566925856120793"><ele>0.0</ele><time>2026-04-25T13:44:27Z</time></trkpt><trkpt lat="42.93124400593672" lon="10.566902169641438"><ele>0.0</ele><time>2026-04-25T13:44:28Z</time></trkpt><trkpt lat="42.931308776044986" lon="10.56687506107376"><ele>0.0</ele><time>2026-04-25T13:44:29Z</time></trkpt><trkpt lat="42.9313726793072" lon="10.56684748955058"><ele>0.0</ele><time>2026-04-25T13:44:30Z</time></trkpt><trkpt lat="42.931434922614535" lon="10.566817393257711"><ele>0.0</ele><time>2026-04-25T13:44:31Z</time></trkpt><trkpt lat="42.93149725076434" lon="10.566786177782276"><ele>0.0</ele><time>2026-04-25T13:44:32Z</time></trkpt><trkpt lat="42.93155849812032" lon="10.566754544673541"><ele>0.0</ele><time>2026-04-25T13:44:33Z</time></trkpt><trkpt lat="42.93162113154613" lon="10.566722288347167"><ele>0.0</ele><time>2026-04-25T13:44:34Z</time></trkpt><trkpt lat="42.9316826852782" lon="10.56668855129402"><ele>0.0</ele><time>2026-04-25T13:44:35Z</time></trkpt><trkpt lat="42.93174352497365" lon="10.566654015823014"><ele>0.0</ele><time>2026-04-25T13:44:36Z</time></trkpt><trkpt lat="42.93180460462528" lon="10.566620046461551"><ele>0.0</ele><time>2026-04-25T13:44:37Z</time></trkpt><trkpt lat="42.93186496207816" lon="10.56658775545597"><ele>0.0</ele><time>2026-04-25T13:44:38Z</time></trkpt><trkpt lat="42.9319282623757" lon="10.566554144220701"><ele>0.0</ele><time>2026-04-25T13:44:39Z</time></trkpt><trkpt lat="42.93198944606857" lon="10.566519047978023"><ele>0.0</ele><time>2026-04-25T13:44:40Z</time></trkpt><trkpt lat="42.9320486810081" lon="10.566479468682163"><ele>0.0</ele><time>2026-04-25T13:44:41Z</time></trkpt><trkpt lat="42.93210883499256" lon="10.566434674831525"><ele>0.0</ele><time>2026-04-25T13:44:42Z</time></trkpt><trkpt lat="42.932168639663864" lon="10.566397884154734"><ele>0.0</ele><time>2026-04-25T13:44:43Z</time></trkpt><trkpt lat="42.93222644677805" lon="10.56636143680505"><ele>0.0</ele><time>2026-04-25T13:44:44Z</time></trkpt><trkpt lat="42.9322858242148" lon="10.566321667705962"><ele>0.0</ele><time>2026-04-25T13:44:45Z</time></trkpt><trkpt lat="42.93234485303617" lon="10.566283153984001"><ele>0.0</ele><time>2026-04-25T13:44:46Z</time></trkpt><trkpt lat="42.93240328641299" lon="10.566242672409546"><ele>0.0</ele><time>2026-04-25T13:44:47Z</time></trkpt><trkpt lat="42.93246189951419" lon="10.566200350722065"><ele>0.0</ele><time>2026-04-25T13:44:48Z</time></trkpt><trkpt lat="42.93252113914566" lon="10.566160157409524"><ele>0.0</ele><time>2026-04-25T13:44:49Z</time></trkpt><trkpt lat="42.93257908100032" lon="10.56611599723168"><ele>0.0</ele><time>2026-04-25T13:44:50Z</time></trkpt><trkpt lat="42.93263716435139" lon="10.566072880360752"><ele>0.0</ele><time>2026-04-25T13:44:51Z</time></trkpt><trkpt lat="42.9326953604787" lon="10.566029197653862"><ele>0.0</ele><time>2026-04-25T13:44:52Z</time></trkpt><trkpt lat="42.93275248563374" lon="10.565983913076618"><ele>0.0</ele><time>2026-04-25T13:44:53Z</time></trkpt><trkpt lat="42.93281016876534" lon="10.565938910184595"><ele>0.0</ele><time>2026-04-25T13:44:54Z</time></trkpt><trkpt lat="42.93286821052956" lon="10.565893183154607"><ele>0.0</ele><time>2026-04-25T13:44:55Z</time></trkpt><trkpt lat="42.93292521555946" lon="10.565847758164203"><ele>0.0</ele><time>2026-04-25T13:44:56Z</time></trkpt><trkpt lat="42.932982594720315" lon="10.565801326257402"><ele>0.0</ele><time>2026-04-25T13:44:57Z</time></trkpt><trkpt lat="42.93303972967543" lon="10.565754374890009"><ele>0.0</ele><time>2026-04-25T13:44:58Z</time></trkpt><trkpt lat="42.93309619541871" lon="10.565706695514313"><ele>0.0</ele><time>2026-04-25T13:44:59Z</time></trkpt><trkpt lat="42.93315199757927" lon="10.565656703907596"><ele>0.0</ele><time>2026-04-25T13:45:00Z</time></trkpt><trkpt lat="42.93320777907083" lon="10.565606559369876"><ele>0.0</ele><time>2026-04-25T13:45:01Z</time></trkpt><trkpt lat="42.93326255887795" lon="10.565556020566431"><ele>0.0</ele><time>2026-04-25T13:45:02Z</time></trkpt><trkpt lat="42.933316560500316" lon="10.56550467574823"><ele>0.0</ele><time>2026-04-25T13:45:03Z</time></trkpt><trkpt lat="42.93337097172055" lon="10.565453655039267"><ele>0.0</ele><time>2026-04-25T13:45:04Z</time></trkpt><trkpt lat="42.93342501625454" lon="10.565402824105261"><ele>0.0</ele><time>2026-04-25T13:45:05Z</time></trkpt><trkpt lat="42.93347880188173" lon="10.56534931736352"><ele>0.0</ele><time>2026-04-25T13:45:06Z</time></trkpt><trkpt lat="42.93353329761112" lon="10.565296985156724"><ele>0.0</ele><time>2026-04-25T13:45:07Z</time></trkpt><trkpt lat="42.93358689337703" lon="10.565242383595901"><ele>0.0</ele><time>2026-04-25T13:45:08Z</time></trkpt><trkpt lat="42.93363994353401" lon="10.565188056832115"><ele>0.0</ele><time>2026-04-25T13:45:09Z</time></trkpt><trkpt lat="42.9336927661553" lon="10.565132106047855"><ele>0.0</ele><time>2026-04-25T13:45:10Z</time></trkpt><trkpt lat="42.93374406738992" lon="10.56507573523097"><ele>0.0</ele><time>2026-04-25T13:45:11Z</time></trkpt><trkpt lat="42.93379609509211" lon="10.565017241586759"><ele>0.0</ele><time>2026-04-25T13:45:12Z</time></trkpt><trkpt lat="42.93384716891461" lon="10.56495904644546"><ele>0.0</ele><time>2026-04-25T13:45:13Z</time></trkpt><trkpt lat="42.933896326646064" lon="10.564900186112295"><ele>0.0</ele><time>2026-04-25T13:45:14Z</time></trkpt><trkpt lat="42.93394716609043" lon="10.56484070459406"><ele>0.0</ele><time>2026-04-25T13:45:15Z</time></trkpt><trkpt lat="42.93399693604253" lon="10.564781164833636"><ele>0.0</ele><time>2026-04-25T13:45:16Z</time></trkpt><trkpt lat="42.93404521316169" lon="10.564720429394658"><ele>0.0</ele><time>2026-04-25T13:45:17Z</time></trkpt><trkpt lat="42.93409314671219" lon="10.564659156270348"><ele>0.0</ele><time>2026-04-25T13:45:18Z</time></trkpt><trkpt lat="42.93414208867639" lon="10.564598507905187"><ele>0.0</ele><time>2026-04-25T13:45:19Z</time></trkpt><trkpt lat="42.93418834734745" lon="10.564536041503404"><ele>0.0</ele><time>2026-04-25T13:45:20Z</time></trkpt><trkpt lat="42.93423413979581" lon="10.564472831414808"><ele>0.0</ele><time>2026-04-25T13:45:21Z</time></trkpt><trkpt lat="42.93427874124447" lon="10.564409222293758"><ele>0.0</ele><time>2026-04-25T13:45:22Z</time></trkpt><trkpt lat="42.934323952086594" lon="10.564345920453603"><ele>0.0</ele><time>2026-04-25T13:45:23Z</time></trkpt><trkpt lat="42.93436900454486" lon="10.564282455990002"><ele>0.0</ele><time>2026-04-25T13:45:24Z</time></trkpt><trkpt lat="42.93441276692473" lon="10.564217604868656"><ele>0.0</ele><time>2026-04-25T13:45:25Z</time></trkpt><trkpt lat="42.93445652667629" lon="10.564152109599338"><ele>0.0</ele><time>2026-04-25T13:45:26Z</time></trkpt><trkpt lat="42.93449840253584" lon="10.564085012024774"><ele>0.0</ele><time>2026-04-25T13:45:27Z</time></trkpt><trkpt lat="42.93454058710358" lon="10.56401676655666"><ele>0.0</ele><time>2026-04-25T13:45:28Z</time></trkpt><trkpt lat="42.93458188005073" lon="10.56394724660724"><ele>0.0</ele><time>2026-04-25T13:45:29Z</time></trkpt><trkpt lat="42.93462333002282" lon="10.563877416491103"><ele>0.0</ele><time>2026-04-25T13:45:30Z</time></trkpt><trkpt lat="42.93466239351637" lon="10.563806753711791"><ele>0.0</ele><time>2026-04-25T13:45:31Z</time></trkpt><trkpt lat="42.93470211997112" lon="10.563734971463925"><ele>0.0</ele><time>2026-04-25T13:45:32Z</time></trkpt><trkpt lat="42.934741359350255" lon="10.563662201640232"><ele>0.0</ele><time>2026-04-25T13:45:33Z</time></trkpt><trkpt lat="42.93478004736152" lon="10.563589226049555"><ele>0.0</ele><time>2026-04-25T13:45:34Z</time></trkpt><trkpt lat="42.93481777400165" lon="10.563515687178812"><ele>0.0</ele><time>2026-04-25T13:45:35Z</time></trkpt><trkpt lat="42.93485523785576" lon="10.563442934582088"><ele>0.0</ele><time>2026-04-25T13:45:36Z</time></trkpt><trkpt lat="42.934893740016626" lon="10.56336970126408"><ele>0.0</ele><time>2026-04-25T13:45:37Z</time></trkpt><trkpt lat="42.93493121026846" lon="10.563296688803273"><ele>0.0</ele><time>2026-04-25T13:45:38Z</time></trkpt><trkpt lat="42.93496850212996" lon="10.563221269981986"><ele>0.0</ele><time>2026-04-25T13:45:39Z</time></trkpt><trkpt lat="42.93500343385485" lon="10.563144220777188"><ele>0.0</ele><time>2026-04-25T13:45:40Z</time></trkpt><trkpt lat="42.93503667741173" lon="10.563066556416885"><ele>0.0</ele><time>2026-04-25T13:45:41Z</time></trkpt><trkpt lat="42.935069599626004" lon="10.56298767755829"><ele>0.0</ele><time>2026-04-25T13:45:42Z</time></trkpt><trkpt lat="42.93510271622315" lon="10.562909907457671"><ele>0.0</ele><time>2026-04-25T13:45:43Z</time></trkpt><trkpt lat="42.93513509748418" lon="10.562832019688377"><ele>0.0</ele><time>2026-04-25T13:45:44Z</time></trkpt><trkpt lat="42.93516796547158" lon="10.562752203163113"><ele>0.0</ele><time>2026-04-25T13:45:45Z</time></trkpt><trkpt lat="42.93520158999871" lon="10.562673236753746"><ele>0.0</ele><time>2026-04-25T13:45:46Z</time></trkpt><trkpt lat="42.935234653082055" lon="10.562593771515811"><ele>0.0</ele><time>2026-04-25T13:45:47Z</time></trkpt><trkpt lat="42.935266137912706" lon="10.562515637196366"><ele>0.0</ele><time>2026-04-25T13:45:48Z</time></trkpt><trkpt lat="42.93529820980445" lon="10.562435734367822"><ele>0.0</ele><time>2026-04-25T13:45:49Z</time></trkpt><trkpt lat="42.93532875695054" lon="10.56235400043486"><ele>0.0</ele><time>2026-04-25T13:45:50Z</time></trkpt><trkpt lat="42.93535758077962" lon="10.56227232119922"><ele>0.0</ele><time>2026-04-25T13:45:51Z</time></trkpt><trkpt lat="42.93538558176214" lon="10.562190564439021"><ele>0.0</ele><time>2026-04-25T13:45:52Z</time></trkpt><trkpt lat="42.93541214122054" lon="10.562108487799485"><ele>0.0</ele><time>2026-04-25T13:45:53Z</time></trkpt><trkpt lat="42.93543852819513" lon="10.562024824104498"><ele>0.0</ele><time>2026-04-25T13:45:54Z</time></trkpt><trkpt lat="42.935464169483694" lon="10.561941311354358"><ele>0.0</ele><time>2026-04-25T13:45:55Z</time></trkpt><trkpt lat="42.93548909954718" lon="10.561857483846838"><ele>0.0</ele><time>2026-04-25T13:45:56Z</time></trkpt><trkpt lat="42.93551519239728" lon="10.561773109566056"><ele>0.0</ele><time>2026-04-25T13:45:57Z</time></trkpt><trkpt lat="42.93553904735157" lon="10.561688813450546"><ele>0.0</ele><time>2026-04-25T13:45:58Z</time></trkpt><trkpt lat="42.93556331483509" lon="10.561602216958088"><ele>0.0</ele><time>2026-04-25T13:45:59Z</time></trkpt><trkpt lat="42.93558531091065" lon="10.56151564802202"><ele>0.0</ele><time>2026-04-25T13:46:00Z</time></trkpt><trkpt lat="42.93560700759781" lon="10.561428820627798"><ele>0.0</ele><time>2026-04-25T13:46:01Z</time></trkpt><trkpt lat="42.93562641636667" lon="10.561340038081202"><ele>0.0</ele><time>2026-04-25T13:46:02Z</time></trkpt><trkpt lat="42.93564407976331" lon="10.561252706804936"><ele>0.0</ele><time>2026-04-25T13:46:03Z</time></trkpt><trkpt lat="42.93566034568765" lon="10.561164004437217"><ele>0.0</ele><time>2026-04-25T13:46:04Z</time></trkpt><trkpt lat="42.93567763718098" lon="10.56107528691053"><ele>0.0</ele><time>2026-04-25T13:46:05Z</time></trkpt><trkpt lat="42.93569340009123" lon="10.560987498567757"><ele>0.0</ele><time>2026-04-25T13:46:06Z</time></trkpt><trkpt lat="42.935709127452135" lon="10.560898258596561"><ele>0.0</ele><time>2026-04-25T13:46:07Z</time></trkpt><trkpt lat="42.935723274018784" lon="10.560808676604406"><ele>0.0</ele><time>2026-04-25T13:46:08Z</time></trkpt><trkpt lat="42.93573608178553" lon="10.560718613064209"><ele>0.0</ele><time>2026-04-25T13:46:09Z</time></trkpt><trkpt lat="42.93574913884752" lon="10.560628028655646"><ele>0.0</ele><time>2026-04-25T13:46:10Z</time></trkpt><trkpt lat="42.935760606782544" lon="10.56053807178661"><ele>0.0</ele><time>2026-04-25T13:46:11Z</time></trkpt><trkpt lat="42.9357709235331" lon="10.560446860799678"><ele>0.0</ele><time>2026-04-25T13:46:12Z</time></trkpt><trkpt lat="42.935779772232486" lon="10.560356030404456"><ele>0.0</ele><time>2026-04-25T13:46:13Z</time></trkpt><trkpt lat="42.93578857971398" lon="10.560265099017482"><ele>0.0</ele><time>2026-04-25T13:46:14Z</time></trkpt><trkpt lat="42.935797244572456" lon="10.560174471340536"><ele>0.0</ele><time>2026-04-25T13:46:15Z</time></trkpt><trkpt lat="42.935804032105544" lon="10.560082850744601"><ele>0.0</ele><time>2026-04-25T13:46:16Z</time></trkpt><trkpt lat="42.9358104667593" lon="10.559992157271445"><ele>0.0</ele><time>2026-04-25T13:46:17Z</time></trkpt><trkpt lat="42.935816584189475" lon="10.559901371641187"><ele>0.0</ele><time>2026-04-25T13:46:18Z</time></trkpt><trkpt lat="42.93581964303371" lon="10.559810117342435"><ele>0.0</ele><time>2026-04-25T13:46:19Z</time></trkpt><trkpt lat="42.93582338194283" lon="10.559718077528885"><ele>0.0</ele><time>2026-04-25T13:46:20Z</time></trkpt><trkpt lat="42.935826748795556" lon="10.559627468266102"><ele>0.0</ele><time>2026-04-25T13:46:21Z</time></trkpt><trkpt lat="42.9358285103474" lon="10.559536276687489"><ele>0.0</ele><time>2026-04-25T13:46:22Z</time></trkpt><trkpt lat="42.935829859393024" lon="10.559443888820573"><ele>0.0</ele><time>2026-04-25T13:46:23Z</time></trkpt><trkpt lat="42.935830768651215" lon="10.55935178061933"><ele>0.0</ele><time>2026-04-25T13:46:24Z</time></trkpt><trkpt lat="42.93583103922473" lon="10.559259652557081"><ele>0.0</ele><time>2026-04-25T13:46:25Z</time></trkpt><trkpt lat="42.93583059297194" lon="10.559168009859288"><ele>0.0</ele><time>2026-04-25T13:46:26Z</time></trkpt><trkpt lat="42.9358287790176" lon="10.55907741491246"><ele>0.0</ele><time>2026-04-25T13:46:27Z</time></trkpt><trkpt lat="42.9358270295363" lon="10.558986468140642"><ele>0.0</ele><time>2026-04-25T13:46:28Z</time></trkpt><trkpt lat="42.93582312890582" lon="10.558894302822013"><ele>0.0</ele><time>2026-04-25T13:46:29Z</time></trkpt><trkpt lat="42.935818341644485" lon="10.558803885696888"><ele>0.0</ele><time>2026-04-25T13:46:30Z</time></trkpt><trkpt lat="42.93581121630359" lon="10.55871335838708"><ele>0.0</ele><time>2026-04-25T13:46:31Z</time></trkpt><trkpt lat="42.935804370663135" lon="10.558623320788588"><ele>0.0</ele><time>2026-04-25T13:46:32Z</time></trkpt><trkpt lat="42.93579681916667" lon="10.558533942364035"><ele>0.0</ele><time>2026-04-25T13:46:33Z</time></trkpt><trkpt lat="42.93578868048471" lon="10.558443608925801"><ele>0.0</ele><time>2026-04-25T13:46:34Z</time></trkpt><trkpt lat="42.93578092744659" lon="10.558354587801286"><ele>0.0</ele><time>2026-04-25T13:46:35Z</time></trkpt><trkpt lat="42.93576910352701" lon="10.558265474379114"><ele>0.0</ele><time>2026-04-25T13:46:36Z</time></trkpt><trkpt lat="42.93576602536274" lon="10.558172158666556"><ele>0.0</ele><time>2026-04-25T13:46:37Z</time></trkpt><trkpt lat="42.93575364273612" lon="10.558083673058974"><ele>0.0</ele><time>2026-04-25T13:46:38Z</time></trkpt><trkpt lat="42.935743534756675" lon="10.557987244200321"><ele>0.0</ele><time>2026-04-25T13:46:39Z</time></trkpt><trkpt lat="42.93573554554355" lon="10.55789673759466"><ele>0.0</ele><time>2026-04-25T13:46:40Z</time></trkpt><trkpt lat="42.9357230802447" lon="10.55780171056879"><ele>0.0</ele><time>2026-04-25T13:46:41Z</time></trkpt><trkpt lat="42.93571271674627" lon="10.557713209188957"><ele>0.0</ele><time>2026-04-25T13:46:42Z</time></trkpt><trkpt lat="42.93570354581799" lon="10.557626392423046"><ele>0.0</ele><time>2026-04-25T13:46:43Z</time></trkpt><trkpt lat="42.935687016178356" lon="10.55754124096183"><ele>0.0</ele><time>2026-04-25T13:46:44Z</time></trkpt><trkpt lat="42.935674505027315" lon="10.557448678831873"><ele>0.0</ele><time>2026-04-25T13:46:45Z</time></trkpt><trkpt lat="42.93566021582037" lon="10.557359222235295"><ele>0.0</ele><time>2026-04-25T13:46:46Z</time></trkpt><trkpt lat="42.93564367454349" lon="10.557271064983057"><ele>0.0</ele><time>2026-04-25T13:46:47Z</time></trkpt><trkpt lat="42.935629133250515" lon="10.557182211540129"><ele>0.0</ele><time>2026-04-25T13:46:48Z</time></trkpt><trkpt lat="42.93561304124177" lon="10.557092740910184"><ele>0.0</ele><time>2026-04-25T13:46:49Z</time></trkpt><trkpt lat="42.935597841168374" lon="10.557005797136437"><ele>0.0</ele><time>2026-04-25T13:46:50Z</time></trkpt><trkpt lat="42.93558135878369" lon="10.556918274465914"><ele>0.0</ele><time>2026-04-25T13:46:51Z</time></trkpt><trkpt lat="42.935564027440286" lon="10.556829713937736"><ele>0.0</ele><time>2026-04-25T13:46:52Z</time></trkpt><trkpt lat="42.935548184528386" lon="10.55674124828141"><ele>0.0</ele><time>2026-04-25T13:46:53Z</time></trkpt><trkpt lat="42.93552960550158" lon="10.556652709879202"><ele>0.0</ele><time>2026-04-25T13:46:54Z</time></trkpt><trkpt lat="42.93551425656135" lon="10.556564830915782"><ele>0.0</ele><time>2026-04-25T13:46:55Z</time></trkpt><trkpt lat="42.935498894167935" lon="10.556476774988095"><ele>0.0</ele><time>2026-04-25T13:46:56Z</time></trkpt><trkpt lat="42.935482959968255" lon="10.556387110836997"><ele>0.0</ele><time>2026-04-25T13:46:57Z</time></trkpt><trkpt lat="42.93546879203963" lon="10.556298493608367"><ele>0.0</ele><time>2026-04-25T13:46:58Z</time></trkpt><trkpt lat="42.935448792245225" lon="10.55620818834857"><ele>0.0</ele><time>2026-04-25T13:46:59Z</time></trkpt><trkpt lat="42.935426334265486" lon="10.556116625201389"><ele>0.0</ele><time>2026-04-25T13:47:00Z</time></trkpt><trkpt lat="42.93540874590595" lon="10.556028316288106"><ele>0.0</ele><time>2026-04-25T13:47:01Z</time></trkpt><trkpt lat="42.93539142858666" lon="10.555940574229108"><ele>0.0</ele><time>2026-04-25T13:47:02Z</time></trkpt><trkpt lat="42.935367728562134" lon="10.555850067980167"><ele>0.0</ele><time>2026-04-25T13:47:03Z</time></trkpt><trkpt lat="42.935348481218256" lon="10.55576058649546"><ele>0.0</ele><time>2026-04-25T13:47:04Z</time></trkpt><trkpt lat="42.935328153731255" lon="10.555671831995737"><ele>0.0</ele><time>2026-04-25T13:47:05Z</time></trkpt><trkpt lat="42.93531058588879" lon="10.55558452771927"><ele>0.0</ele><time>2026-04-25T13:47:06Z</time></trkpt><trkpt lat="42.93529166803211" lon="10.55549702104354"><ele>0.0</ele><time>2026-04-25T13:47:07Z</time></trkpt><trkpt lat="42.93527223160636" lon="10.555410475399787"><ele>0.0</ele><time>2026-04-25T13:47:08Z</time></trkpt><trkpt lat="42.93525451022223" lon="10.555321756768006"><ele>0.0</ele><time>2026-04-25T13:47:09Z</time></trkpt><trkpt lat="42.935240198409595" lon="10.555237916747656"><ele>0.0</ele><time>2026-04-25T13:47:10Z</time></trkpt><trkpt lat="42.93522202482099" lon="10.555149230144533"><ele>0.0</ele><time>2026-04-25T13:47:11Z</time></trkpt><trkpt lat="42.935204511282066" lon="10.555064086979952"><ele>0.0</ele><time>2026-04-25T13:47:12Z</time></trkpt><trkpt lat="42.93518723658369" lon="10.554978838833293"><ele>0.0</ele><time>2026-04-25T13:47:13Z</time></trkpt><trkpt lat="42.93516772307495" lon="10.554895834907665"><ele>0.0</ele><time>2026-04-25T13:47:14Z</time></trkpt><trkpt lat="42.93514907179074" lon="10.554811190670167"><ele>0.0</ele><time>2026-04-25T13:47:15Z</time></trkpt><trkpt lat="42.935130942620006" lon="10.554728513426435"><ele>0.0</ele><time>2026-04-25T13:47:16Z</time></trkpt><trkpt lat="42.93511346990186" lon="10.554645874952563"><ele>0.0</ele><time>2026-04-25T13:47:17Z</time></trkpt><trkpt lat="42.9350775777703" lon="10.55448030804482"><ele>0.0</ele><time>2026-04-25T13:47:19Z</time></trkpt><trkpt lat="42.93504141481717" lon="10.554316427562645"><ele>0.0</ele><time>2026-04-25T13:47:21Z</time></trkpt><trkpt lat="42.935007035325754" lon="10.554154665284493"><ele>0.0</ele><time>2026-04-25T13:47:23Z</time></trkpt><trkpt lat="42.934974083399744" lon="10.553995245946005"><ele>0.0</ele><time>2026-04-25T13:47:25Z</time></trkpt><trkpt lat="42.934941320994696" lon="10.55383596080576"><ele>0.0</ele><time>2026-04-25T13:47:27Z</time></trkpt><trkpt lat="42.93490984823086" lon="10.55368550030225"><ele>0.0</ele><time>2026-04-25T13:47:29Z</time></trkpt><trkpt lat="42.93487823706739" lon="10.553529445124235"><ele>0.0</ele><time>2026-04-25T13:47:31Z</time></trkpt><trkpt lat="42.9348476445382" lon="10.553382833450824"><ele>0.0</ele><time>2026-04-25T13:47:33Z</time></trkpt><trkpt lat="42.93481682406665" lon="10.553231949918958"><ele>0.0</ele><time>2026-04-25T13:47:35Z</time></trkpt><trkpt lat="42.93478479462881" lon="10.55307818921139"><ele>0.0</ele><time>2026-04-25T13:47:37Z</time></trkpt><trkpt lat="42.934747070691145" lon="10.552919888343597"><ele>0.0</ele><time>2026-04-25T13:47:39Z</time></trkpt><trkpt lat="42.93471588131584" lon="10.552779029388589"><ele>0.0</ele><time>2026-04-25T13:47:41Z</time></trkpt><trkpt lat="42.934680917235156" lon="10.552634086141333"><ele>0.0</ele><time>2026-04-25T13:47:43Z</time></trkpt><trkpt lat="42.934646420634174" lon="10.552487505773605"><ele>0.0</ele><time>2026-04-25T13:47:45Z</time></trkpt><trkpt lat="42.93460975167519" lon="10.552342936767676"><ele>0.0</ele><time>2026-04-25T13:47:47Z</time></trkpt><trkpt lat="42.93457361798095" lon="10.55219915767535"><ele>0.0</ele><time>2026-04-25T13:47:49Z</time></trkpt><trkpt lat="42.93453416967579" lon="10.552058471008346"><ele>0.0</ele><time>2026-04-25T13:47:51Z</time></trkpt><trkpt lat="42.93449091867654" lon="10.551918972075596"><ele>0.0</ele><time>2026-04-25T13:47:53Z</time></trkpt><trkpt lat="42.93444718086687" lon="10.551782218272153"><ele>0.0</ele><time>2026-04-25T13:47:55Z</time></trkpt><trkpt lat="42.9344000618596" lon="10.551648777349746"><ele>0.0</ele><time>2026-04-25T13:47:57Z</time></trkpt><trkpt lat="42.93435102722712" lon="10.551518785896613"><ele>0.0</ele><time>2026-04-25T13:47:59Z</time></trkpt><trkpt lat="42.9342991200262" lon="10.551390285126946"><ele>0.0</ele><time>2026-04-25T13:48:01Z</time></trkpt><trkpt lat="42.934241201138825" lon="10.551265948708604"><ele>0.0</ele><time>2026-04-25T13:48:03Z</time></trkpt><trkpt lat="42.93418427832405" lon="10.551141351692717"><ele>0.0</ele><time>2026-04-25T13:48:05Z</time></trkpt><trkpt lat="42.93412933291837" lon="10.551018200297952"><ele>0.0</ele><time>2026-04-25T13:48:07Z</time></trkpt><trkpt lat="42.93407217670336" lon="10.55089725510514"><ele>0.0</ele><time>2026-04-25T13:48:09Z</time></trkpt><trkpt lat="42.93401269353396" lon="10.550775486322856"><ele>0.0</ele><time>2026-04-25T13:48:11Z</time></trkpt><trkpt lat="42.93395134865479" lon="10.550659097878253"><ele>0.0</ele><time>2026-04-25T13:48:13Z</time></trkpt><trkpt lat="42.933886453077726" lon="10.550543166847564"><ele>0.0</ele><time>2026-04-25T13:48:15Z</time></trkpt><trkpt lat="42.93382264088885" lon="10.550428357058609"><ele>0.0</ele><time>2026-04-25T13:48:17Z</time></trkpt><trkpt lat="42.93375688964679" lon="10.550314328428335"><ele>0.0</ele><time>2026-04-25T13:48:19Z</time></trkpt><trkpt lat="42.933690473007275" lon="10.550203631039821"><ele>0.0</ele><time>2026-04-25T13:48:21Z</time></trkpt><trkpt lat="42.93362502534175" lon="10.55009430925246"><ele>0.0</ele><time>2026-04-25T13:48:23Z</time></trkpt><trkpt lat="42.93355925800274" lon="10.54998641131244"><ele>0.0</ele><time>2026-04-25T13:48:25Z</time></trkpt><trkpt lat="42.9334944987904" lon="10.5498806123997"><ele>0.0</ele><time>2026-04-25T13:48:27Z</time></trkpt><trkpt lat="42.933429442476275" lon="10.5497756860437"><ele>0.0</ele><time>2026-04-25T13:48:29Z</time></trkpt><trkpt lat="42.93336245616646" lon="10.549672520535445"><ele>0.0</ele><time>2026-04-25T13:48:31Z</time></trkpt><trkpt lat="42.93329700351176" lon="10.549570582479324"><ele>0.0</ele><time>2026-04-25T13:48:33Z</time></trkpt><trkpt lat="42.933229553280114" lon="10.549470054002619"><ele>0.0</ele><time>2026-04-25T13:48:35Z</time></trkpt><trkpt lat="42.93316329643459" lon="10.549368772111444"><ele>0.0</ele><time>2026-04-25T13:48:37Z</time></trkpt><trkpt lat="42.93309639228732" lon="10.549267432164193"><ele>0.0</ele><time>2026-04-25T13:48:39Z</time></trkpt><trkpt lat="42.933030685012646" lon="10.549167534113739"><ele>1.6</ele><time>2026-04-25T13:48:41Z</time></trkpt><trkpt lat="42.93296450233734" lon="10.549068577763355"><ele>3.2</ele><time>2026-04-25T13:48:43Z</time></trkpt><trkpt lat="42.932897364862626" lon="10.548967458233593"><ele>4.800000000000001</ele><time>2026-04-25T13:48:45Z</time></trkpt><trkpt lat="42.932830757140145" lon="10.548864538999807"><ele>6.4</ele><time>2026-04-25T13:48:47Z</time></trkpt><trkpt lat="42.93276615966186" lon="10.548763804525969"><ele>8.0</ele><time>2026-04-25T13:48:49Z</time></trkpt><trkpt lat="42.9327022609755" lon="10.548664618696545"><ele>8.600000000000001</ele><time>2026-04-25T13:48:51Z</time></trkpt><trkpt lat="42.932637370184686" lon="10.548565628556531"><ele>9.200000000000001</ele><time>2026-04-25T13:48:53Z</time></trkpt><trkpt lat="42.932573413088036" lon="10.548467202049105"><ele>9.8</ele><time>2026-04-25T13:48:55Z</time></trkpt><trkpt lat="42.932511302702295" lon="10.548366446734136"><ele>10.4</ele><time>2026-04-25T13:48:57Z</time></trkpt><trkpt lat="42.93245026848422" lon="10.548263347122516"><ele>11.0</ele><time>2026-04-25T13:48:59Z</time></trkpt><trkpt lat="42.93239176899722" lon="10.548163486224063"><ele>8.8</ele><time>2026-04-25T13:49:01Z</time></trkpt><trkpt lat="42.9323333141028" lon="10.548064320302025"><ele>6.6000000000000005</ele><time>2026-04-25T13:49:03Z</time></trkpt><trkpt lat="42.932276854522094" lon="10.547965653778604"><ele>4.4</ele><time>2026-04-25T13:49:05Z</time></trkpt><trkpt lat="42.93221946062387" lon="10.547864992550286"><ele>2.2</ele><time>2026-04-25T13:49:07Z</time></trkpt><trkpt lat="42.932166316315126" lon="10.54776536072175"><ele>0.0</ele><time>2026-04-25T13:49:09Z</time></trkpt><trkpt lat="42.932113240759946" lon="10.547668423349736"><ele>0.0</ele><time>2026-04-25T13:49:11Z</time></trkpt><trkpt lat="42.932062894835425" lon="10.547572806273575"><ele>0.0</ele><time>2026-04-25T13:49:13Z</time></trkpt><trkpt lat="42.9320127756995" lon="10.547479244508915"><ele>0.0</ele><time>2026-04-25T13:49:15Z</time></trkpt><trkpt lat="42.93196285797587" lon="10.547385889124945"><ele>0.0</ele><time>2026-04-25T13:49:17Z</time></trkpt><trkpt lat="42.93191298236884" lon="10.547293225004859"><ele>0.0</ele><time>2026-04-25T13:49:19Z</time></trkpt><trkpt lat="42.931861309910595" lon="10.547203078196032"><ele>0.0</ele><time>2026-04-25T13:49:21Z</time></trkpt><trkpt lat="42.931810443066766" lon="10.547117881508589"><ele>0.14285714285714285</ele><time>2026-04-25T13:49:23Z</time></trkpt><trkpt lat="42.93175412203405" lon="10.54703779938256"><ele>0.2857142857142857</ele><time>2026-04-25T13:49:25Z</time></trkpt><trkpt lat="42.93169773001383" lon="10.546967322307253"><ele>0.42857142857142855</ele><time>2026-04-25T13:49:27Z</time></trkpt><trkpt lat="42.93163474973234" lon="10.546903834516508"><ele>0.5714285714285714</ele><time>2026-04-25T13:49:29Z</time></trkpt><trkpt lat="42.93157391245856" lon="10.54685112484077"><ele>0.7142857142857142</ele><time>2026-04-25T13:49:31Z</time></trkpt><trkpt lat="42.931509096621205" lon="10.546805808956588"><ele>0.8571428571428571</ele><time>2026-04-25T13:49:33Z</time></trkpt><trkpt lat="42.9314473924036" lon="10.546766130565066"><ele>1.0</ele><time>2026-04-25T13:49:35Z</time></trkpt><trkpt lat="42.93138475149688" lon="10.546734422738654"><ele>1.5</ele><time>2026-04-25T13:49:37Z</time></trkpt><trkpt lat="42.93132437903847" lon="10.546707106582925"><ele>2.0</ele><time>2026-04-25T13:49:39Z</time></trkpt><trkpt lat="42.93123272375163" lon="10.54668137643785"><ele>2.5</ele><time>2026-04-25T13:49:42Z</time></trkpt><trkpt lat="42.93114295174871" lon="10.546665876488658"><ele>3.0</ele><time>2026-04-25T13:49:45Z</time></trkpt><trkpt lat="42.9310558448329" lon="10.546658770866868"><ele>3.4999999999999996</ele><time>2026-04-25T13:49:48Z</time></trkpt><trkpt lat="42.930973964420865" lon="10.546657987740721"><ele>4.0</ele><time>2026-04-25T13:49:51Z</time></trkpt><trkpt lat="42.93089275847297" lon="10.546664953940276"><ele>3.4285714285714284</ele><time>2026-04-25T13:49:54Z</time></trkpt><trkpt lat="42.93081657347111" lon="10.54667622113069"><ele>2.8571428571428568</ele><time>2026-04-25T13:49:57Z</time></trkpt><trkpt lat="42.930739967650155" lon="10.546690895270551"><ele>2.2857142857142856</ele><time>2026-04-25T13:50:00Z</time></trkpt><trkpt lat="42.930668079323816" lon="10.54670780607382"><ele>1.7142857142857142</ele><time>2026-04-25T13:50:03Z</time></trkpt><trkpt lat="42.93059904551792" lon="10.546728666995175"><ele>1.1428571428571428</ele><time>2026-04-25T13:50:06Z</time></trkpt><trkpt lat="42.93053628846824" lon="10.546744912647275"><ele>0.5714285714285714</ele><time>2026-04-25T13:50:09Z</time></trkpt><trkpt lat="42.93046087964562" lon="10.546770422774486"><ele>0.0</ele><time>2026-04-25T13:50:13Z</time></trkpt><trkpt lat="42.93039685414422" lon="10.54679602663103"><ele>0.0</ele><time>2026-04-25T13:50:17Z</time></trkpt><trkpt lat="42.93033061267815" lon="10.546816417557032"><ele>0.0</ele><time>2026-04-25T13:50:23Z</time></trkpt><trkpt lat="42.930263672692625" lon="10.546821768158079"><ele>0.0</ele><time>2026-04-25T13:50:32Z</time></trkpt><trkpt lat="42.93014956759736" lon="10.546625710867666"><ele>0.0</ele><time>2026-04-25T13:51:14Z</time></trkpt><trkpt lat="42.930032192639416" lon="10.546489605216015"><ele>0.0</ele><time>2026-04-25T13:51:48Z</time></trkpt><trkpt lat="42.92996777207373" lon="10.546440785701249"><ele>0.0</ele><time>2026-04-25T13:52:00Z</time></trkpt><trkpt lat="42.92992369159529" lon="10.546374008288018"><ele>0.0</ele><time>2026-04-25T13:52:11Z</time></trkpt><trkpt lat="42.92987892943667" lon="10.546309379830936"><ele>0.0</ele><time>2026-04-25T13:52:21Z</time></trkpt><trkpt lat="42.929834821548944" lon="10.546245803245514"><ele>0.0</ele><time>2026-04-25T13:52:29Z</time></trkpt><trkpt lat="42.92978588041882" lon="10.546178257184831"><ele>0.0</ele><time>2026-04-25T13:52:39Z</time></trkpt><trkpt lat="42.92973425665334" lon="10.546094234393859"><ele>0.0</ele><time>2026-04-25T13:52:51Z</time></trkpt><trkpt lat="42.92967294702577" lon="10.546002859260222"><ele>0.0</ele><time>2026-04-25T13:54:21Z</time></trkpt><trkpt lat="42.929479031312205" lon="10.545826512503401"><ele>0.0</ele><time>2026-04-25T13:54:48Z</time></trkpt><trkpt lat="42.9294808387748" lon="10.546062927355951"><ele>0.0</ele><time>2026-04-25T13:55:47Z</time></trkpt><trkpt lat="42.929536221017415" lon="10.546150876583162"><ele>0.0</ele><time>2026-04-25T13:55:54Z</time></trkpt><trkpt lat="42.92960318039354" lon="10.546192744039042"><ele>0.0</ele><time>2026-04-25T13:56:02Z</time></trkpt><trkpt lat="42.929635339271435" lon="10.546312644188188"><ele>0.0</ele><time>2026-04-25T13:56:05Z</time></trkpt><trkpt lat="42.92966838341654" lon="10.546393152107468"><ele>0.0</ele><time>2026-04-25T13:56:14Z</time></trkpt><trkpt lat="42.929738658699286" lon="10.54637757573729"><ele>0.0</ele><time>2026-04-25T13:56:18Z</time></trkpt><trkpt lat="42.929850769935406" lon="10.546300313610354"><ele>0.0</ele><time>2026-04-25T13:56:19Z</time></trkpt><trkpt lat="42.929789364338575" lon="10.546356830711044"><ele>0.0</ele><time>2026-04-25T13:56:21Z</time></trkpt><trkpt lat="42.929698755044356" lon="10.546382601396015"><ele>0.0</ele><time>2026-04-25T13:56:23Z</time></trkpt><trkpt lat="42.92962621245754" lon="10.546420249076288"><ele>0.0</ele><time>2026-04-25T13:56:28Z</time></trkpt><trkpt lat="42.929554162587195" lon="10.546385580683637"><ele>0.0</ele><time>2026-04-25T13:56:32Z</time></trkpt><trkpt lat="42.92962139130281" lon="10.5462839366268"><ele>0.0</ele><time>2026-04-25T13:56:34Z</time></trkpt><trkpt lat="42.929647256278834" lon="10.546203888601644"><ele>0.0</ele><time>2026-04-25T13:56:36Z</time></trkpt><trkpt lat="42.92965453140461" lon="10.546117965801324"><ele>0.3333333333333333</ele><time>2026-04-25T13:56:39Z</time></trkpt><trkpt lat="42.92959338989404" lon="10.54628617131202"><ele>0.6666666666666666</ele><time>2026-04-25T13:56:44Z</time></trkpt><trkpt lat="42.929608686867326" lon="10.54659839720516"><ele>1.0</ele><time>2026-04-25T13:56:48Z</time></trkpt><trkpt lat="42.929591132544495" lon="10.546721063237841"><ele>1.0</ele><time>2026-04-25T13:56:50Z</time></trkpt><trkpt lat="42.92970603717004" lon="10.546422886118895"><ele>1.0</ele><time>2026-04-25T13:56:53Z</time></trkpt><trkpt lat="42.9297838575423" lon="10.54605455442307"><ele>0.8333333333333333</ele><time>2026-04-25T13:56:54Z</time></trkpt><trkpt lat="42.92972906503083" lon="10.545898266965754"><ele>0.6666666666666666</ele><time>2026-04-25T13:56:58Z</time></trkpt><trkpt lat="42.92965729873418" lon="10.545914290390142"><ele>0.5</ele><time>2026-04-25T13:57:00Z</time></trkpt><trkpt lat="42.929623550980104" lon="10.545825696514495"><ele>0.3333333333333333</ele><time>2026-04-25T13:57:03Z</time></trkpt><trkpt lat="42.92963066002327" lon="10.545740165765348"><ele>0.16666666666666666</ele><time>2026-04-25T13:57:06Z</time></trkpt><trkpt lat="42.929593289057415" lon="10.545668080219732"><ele>0.0</ele><time>2026-04-25T13:57:11Z</time></trkpt><trkpt lat="42.92956827962491" lon="10.545752813989495"><ele>0.0</ele><time>2026-04-25T13:57:15Z</time></trkpt><trkpt lat="42.92892023925034" lon="10.545592401186513"><ele>0.0</ele><time>2026-04-25T13:57:16Z</time></trkpt><trkpt lat="42.92957181651103" lon="10.54563896567105"><ele>0.0</ele><time>2026-04-25T13:57:19Z</time></trkpt><trkpt lat="42.92958100794467" lon="10.545727070082282"><ele>0.0</ele><time>2026-04-25T13:57:26Z</time></trkpt><trkpt lat="42.9291440434463" lon="10.545117582086368"><ele>0.25</ele><time>2026-04-25T13:57:34Z</time></trkpt><trkpt lat="42.929030781558644" lon="10.544978365232117"><ele>0.5</ele><time>2026-04-25T13:57:35Z</time></trkpt><trkpt lat="42.92896601283625" lon="10.544919515081956"><ele>0.75</ele><time>2026-04-25T13:57:36Z</time></trkpt><trkpt lat="42.92888090810719" lon="10.544811394316419"><ele>1.0</ele><time>2026-04-25T13:57:38Z</time></trkpt><trkpt lat="42.928886066058176" lon="10.54506803494006"><ele>1.0</ele><time>2026-04-25T13:57:40Z</time></trkpt><trkpt lat="42.9287543804494" lon="10.54504145291509"><ele>1.0</ele><time>2026-04-25T13:57:45Z</time></trkpt><trkpt lat="42.92874514533847" lon="10.544883920846653"><ele>1.0</ele><time>2026-04-25T13:57:46Z</time></trkpt><trkpt lat="42.9285152013102" lon="10.544951964887607"><ele>2.5</ele><time>2026-04-25T13:57:48Z</time></trkpt><trkpt lat="42.928355430447056" lon="10.544605024219813"><ele>4.0</ele><time>2026-04-25T13:57:49Z</time></trkpt><trkpt lat="42.92796190188025" lon="10.54454114233507"><ele>4.75</ele><time>2026-04-25T13:57:50Z</time></trkpt><trkpt lat="42.92783561439461" lon="10.544352879233163"><ele>5.5</ele><time>2026-04-25T13:57:51Z</time></trkpt><trkpt lat="42.92775141094625" lon="10.544302228723092"><ele>6.25</ele><time>2026-04-25T13:57:52Z</time></trkpt><trkpt lat="42.92766735645681" lon="10.544258576829673"><ele>7.0</ele><time>2026-04-25T13:57:53Z</time></trkpt><trkpt lat="42.92760974837704" lon="10.54406823004485"><ele>7.0</ele><time>2026-04-25T13:57:54Z</time></trkpt><trkpt lat="42.9278904865418" lon="10.54432828254013"><ele>7.0</ele><time>2026-04-25T13:57:55Z</time></trkpt><trkpt lat="42.927973458799066" lon="10.544668575719196"><ele>6.0</ele><time>2026-04-25T13:57:58Z</time></trkpt><trkpt lat="42.92796229736575" lon="10.544815693929424"><ele>5.0</ele><time>2026-04-25T13:58:06Z</time></trkpt><trkpt lat="42.92814939371703" lon="10.545102485967147"><ele>4.0</ele><time>2026-04-25T13:58:08Z</time></trkpt><trkpt lat="42.928050366422475" lon="10.54499068201046"><ele>4.0</ele><time>2026-04-25T13:58:09Z</time></trkpt><trkpt lat="42.92812613053727" lon="10.544936374433606"><ele>4.0</ele><time>2026-04-25T13:58:10Z</time></trkpt><trkpt lat="42.92814531672068" lon="10.544853466886526"><ele>4.0</ele><time>2026-04-25T13:58:11Z</time></trkpt><trkpt lat="42.92818264960025" lon="10.544724651365774"><ele>4.0</ele><time>2026-04-25T13:58:12Z</time></trkpt><trkpt lat="42.92845303686667" lon="10.544657369994106"><ele>3.4000000000000004</ele><time>2026-04-25T13:58:27Z</time></trkpt><trkpt lat="42.92856193641795" lon="10.544699364139598"><ele>2.8000000000000003</ele><time>2026-04-25T13:58:29Z</time></trkpt><trkpt lat="42.928707452763" lon="10.54476931244497"><ele>2.2</ele><time>2026-04-25T13:58:33Z</time></trkpt><trkpt lat="42.92876526854414" lon="10.54483155198847"><ele>1.6</ele><time>2026-04-25T13:58:34Z</time></trkpt><trkpt lat="42.92881936307912" lon="10.544918168855547"><ele>1.0</ele><time>2026-04-25T13:58:37Z</time></trkpt><trkpt lat="42.92900356474924" lon="10.545063873594541"><ele>0.9999999999999999</ele><time>2026-04-25T13:58:47Z</time></trkpt><trkpt lat="42.9289560827894" lon="10.544963856466456"><ele>1.0</ele><time>2026-04-25T13:58:50Z</time></trkpt><trkpt lat="42.928904267245855" lon="10.544907486244096"><ele>1.0</ele><time>2026-04-25T13:58:53Z</time></trkpt><trkpt lat="42.9288242481939" lon="10.54489923452383"><ele>1.0</ele><time>2026-04-25T13:58:55Z</time></trkpt><trkpt lat="42.92877051065818" lon="10.544959003626062"><ele>0.9999999999999999</ele><time>2026-04-25T13:58:57Z</time></trkpt><trkpt lat="42.92872205762182" lon="10.545029400306827"><ele>1.0</ele><time>2026-04-25T13:58:59Z</time></trkpt><trkpt lat="42.928655287084965" lon="10.545097947079807"><ele>1.0</ele><time>2026-04-25T13:59:01Z</time></trkpt><trkpt lat="42.92857241917785" lon="10.545133686566425"><ele>1.0</ele><time>2026-04-25T13:59:04Z</time></trkpt></trkseg><trkseg><trkpt lat="42.92836762406518" lon="10.545191229749205"><ele>3.9999999999999996</ele><time>2026-04-25T14:12:05Z</time></trkpt><trkpt lat="42.92842364344444" lon="10.545278717425848"><ele>4.0</ele><time>2026-04-25T14:14:50Z</time></trkpt><trkpt lat="42.928379393091625" lon="10.545355799806808"><ele>4.0</ele><time>2026-04-25T14:14:54Z</time></trkpt><trkpt lat="42.92830791086948" lon="10.545337708706445"><ele>4.0</ele><time>2026-04-25T14:14:56Z</time></trkpt><trkpt lat="42.928244670546064" lon="10.545258105047212"><ele>3.9999999999999996</ele><time>2026-04-25T14:14:58Z</time></trkpt><trkpt lat="42.92820669889643" lon="10.545176489194965"><ele>4.0</ele><time>2026-04-25T14:15:00Z</time></trkpt><trkpt lat="42.92818707629325" lon="10.545081338360779"><ele>4.0</ele><time>2026-04-25T14:15:02Z</time></trkpt><trkpt lat="42.92814372039301" lon="10.544965819465936"><ele>4.0</ele><time>2026-04-25T14:15:05Z</time></trkpt><trkpt lat="42.9281211826311" lon="10.54483688721731"><ele>4.0</ele><time>2026-04-25T14:15:07Z</time></trkpt><trkpt lat="42.92810757075289" lon="10.54466729318662"><ele>4.0</ele><time>2026-04-25T14:15:09Z</time></trkpt><trkpt lat="42.928092855897205" lon="10.544579955963542"><ele>4.0</ele><time>2026-04-25T14:15:10Z</time></trkpt><trkpt lat="42.92807659953834" lon="10.544490159811009"><ele>4.5</ele><time>2026-04-25T14:15:11Z</time></trkpt><trkpt lat="42.928055568442886" lon="10.544401212879983"><ele>5.0</ele><time>2026-04-25T14:15:12Z</time></trkpt><trkpt lat="42.928034148810816" lon="10.544309388298036"><ele>5.5</ele><time>2026-04-25T14:15:13Z</time></trkpt><trkpt lat="42.9280122125011" lon="10.54420543401486"><ele>6.0</ele><time>2026-04-25T14:15:14Z</time></trkpt><trkpt lat="42.92799276439131" lon="10.544093333866256"><ele>6.500000000000001</ele><time>2026-04-25T14:15:15Z</time></trkpt><trkpt lat="42.92796082860726" lon="10.543980580495692"><ele>7.0</ele><time>2026-04-25T14:15:16Z</time></trkpt><trkpt lat="42.927926219620396" lon="10.543878331048388"><ele>7.000000000000001</ele><time>2026-04-25T14:15:17Z</time></trkpt><trkpt lat="42.92789582786271" lon="10.54379004680489"><ele>7.0</ele><time>2026-04-25T14:15:18Z</time></trkpt><trkpt lat="42.92785464623471" lon="10.543698516638822"><ele>7.0</ele><time>2026-04-25T14:15:19Z</time></trkpt><trkpt lat="42.92781039461148" lon="10.543603256978276"><ele>7.0</ele><time>2026-04-25T14:15:20Z</time></trkpt><trkpt lat="42.9277599094358" lon="10.543502479830988"><ele>7.000000000000001</ele><time>2026-04-25T14:15:21Z</time></trkpt><trkpt lat="42.92770785611592" lon="10.543408719387509"><ele>7.0</ele><time>2026-04-25T14:15:22Z</time></trkpt><trkpt lat="42.9276549464168" lon="10.54332510967963"><ele>6.833333333333334</ele><time>2026-04-25T14:15:23Z</time></trkpt><trkpt lat="42.927599741215296" lon="10.543241137135865"><ele>6.666666666666667</ele><time>2026-04-25T14:15:24Z</time></trkpt><trkpt lat="42.92754006994436" lon="10.543157149742994"><ele>6.5</ele><time>2026-04-25T14:15:25Z</time></trkpt><trkpt lat="42.92748145914009" lon="10.543073520674387"><ele>6.333333333333334</ele><time>2026-04-25T14:15:26Z</time></trkpt><trkpt lat="42.92741830214313" lon="10.542984390035665"><ele>6.166666666666667</ele><time>2026-04-25T14:15:27Z</time></trkpt><trkpt lat="42.927354784021226" lon="10.542890891160006"><ele>6.0</ele><time>2026-04-25T14:15:28Z</time></trkpt><trkpt lat="42.927285923789185" lon="10.54280049153113"><ele>6.666666666666667</ele><time>2026-04-25T14:15:29Z</time></trkpt><trkpt lat="42.927214889875515" lon="10.54270525631194"><ele>7.333333333333334</ele><time>2026-04-25T14:15:30Z</time></trkpt><trkpt lat="42.92714370290348" lon="10.542604216835613"><ele>8.0</ele><time>2026-04-25T14:15:31Z</time></trkpt><trkpt lat="42.92708535221108" lon="10.542513645707151"><ele>8.666666666666668</ele><time>2026-04-25T14:15:32Z</time></trkpt><trkpt lat="42.92702991049737" lon="10.54243930430633"><ele>9.333333333333334</ele><time>2026-04-25T14:15:33Z</time></trkpt><trkpt lat="42.926976534238335" lon="10.542372060390623"><ele>10.0</ele><time>2026-04-25T14:15:34Z</time></trkpt><trkpt lat="42.92692205145827" lon="10.542301720408869"><ele>10.0</ele><time>2026-04-25T14:15:35Z</time></trkpt><trkpt lat="42.92686915117027" lon="10.542232610694002"><ele>10.0</ele><time>2026-04-25T14:15:36Z</time></trkpt><trkpt lat="42.92681442554519" lon="10.542154970471909"><ele>10.0</ele><time>2026-04-25T14:15:37Z</time></trkpt><trkpt lat="42.92676252892191" lon="10.542082883539218"><ele>10.0</ele><time>2026-04-25T14:15:38Z</time></trkpt><trkpt lat="42.926714939691806" lon="10.542017551850027"><ele>10.0</ele><time>2026-04-25T14:15:39Z</time></trkpt><trkpt lat="42.92663473770953" lon="10.541885286329089"><ele>10.0</ele><time>2026-04-25T14:15:41Z</time></trkpt><trkpt lat="42.926593303999155" lon="10.5418079231141"><ele>10.6</ele><time>2026-04-25T14:15:42Z</time></trkpt><trkpt lat="42.926552243461046" lon="10.541721846807866"><ele>11.2</ele><time>2026-04-25T14:15:43Z</time></trkpt><trkpt lat="42.92649734974383" lon="10.541608511581249"><ele>11.8</ele><time>2026-04-25T14:15:45Z</time></trkpt><trkpt lat="42.926470008031" lon="10.541519730780333"><ele>12.4</ele><time>2026-04-25T14:15:48Z</time></trkpt><trkpt lat="42.926430571629254" lon="10.541394387808916"><ele>13.0</ele><time>2026-04-25T14:16:44Z</time></trkpt><trkpt lat="42.926392876221186" lon="10.541220311449532"><ele>12.4</ele><time>2026-04-25T14:16:46Z</time></trkpt><trkpt lat="42.9263590914916" lon="10.54112211083693"><ele>11.8</ele><time>2026-04-25T14:16:47Z</time></trkpt><trkpt lat="42.926324184093595" lon="10.541012895504334"><ele>11.2</ele><time>2026-04-25T14:16:48Z</time></trkpt><trkpt lat="42.92628842348998" lon="10.54089899051011"><ele>10.6</ele><time>2026-04-25T14:16:49Z</time></trkpt><trkpt lat="42.92624278091969" lon="10.54077540882158"><ele>10.0</ele><time>2026-04-25T14:16:50Z</time></trkpt><trkpt lat="42.92620689700611" lon="10.540647124825847"><ele>10.0</ele><time>2026-04-25T14:16:51Z</time></trkpt><trkpt lat="42.9261661384293" lon="10.540512530626467"><ele>10.0</ele><time>2026-04-25T14:16:52Z</time></trkpt><trkpt lat="42.926132873736975" lon="10.540392728831886"><ele>10.0</ele><time>2026-04-25T14:16:53Z</time></trkpt><trkpt lat="42.92609523966558" lon="10.54027291131183"><ele>10.0</ele><time>2026-04-25T14:16:54Z</time></trkpt><trkpt lat="42.926073692210906" lon="10.5401478972379"><ele>10.0</ele><time>2026-04-25T14:16:55Z</time></trkpt><trkpt lat="42.92606171001776" lon="10.54000988839099"><ele>9.8</ele><time>2026-04-25T14:16:56Z</time></trkpt><trkpt lat="42.92605711420568" lon="10.53986983949006"><ele>9.6</ele><time>2026-04-25T14:16:57Z</time></trkpt><trkpt lat="42.92605059820813" lon="10.539734497276704"><ele>9.4</ele><time>2026-04-25T14:16:58Z</time></trkpt><trkpt lat="42.92604285858306" lon="10.539598865314868"><ele>9.2</ele><time>2026-04-25T14:16:59Z</time></trkpt><trkpt lat="42.92603047131281" lon="10.539460685895254"><ele>9.0</ele><time>2026-04-25T14:17:00Z</time></trkpt><trkpt lat="42.926022881469834" lon="10.539321946091382"><ele>9.0</ele><time>2026-04-25T14:17:01Z</time></trkpt><trkpt lat="42.92601777527304" lon="10.53917921699162"><ele>9.0</ele><time>2026-04-25T14:17:02Z</time></trkpt><trkpt lat="42.92600169567294" lon="10.539024041147941"><ele>9.0</ele><time>2026-04-25T14:17:03Z</time></trkpt><trkpt lat="42.92598899853718" lon="10.538877097987974"><ele>9.0</ele><time>2026-04-25T14:17:04Z</time></trkpt><trkpt lat="42.92597531143706" lon="10.538737378200112"><ele>9.0</ele><time>2026-04-25T14:17:05Z</time></trkpt><trkpt lat="42.92595980481995" lon="10.538599891352751"><ele>9.4</ele><time>2026-04-25T14:17:06Z</time></trkpt><trkpt lat="42.92593543434495" lon="10.53846344617535"><ele>9.8</ele><time>2026-04-25T14:17:07Z</time></trkpt><trkpt lat="42.92589891341243" lon="10.538331045214791"><ele>10.200000000000001</ele><time>2026-04-25T14:17:08Z</time></trkpt><trkpt lat="42.92585909665855" lon="10.53820272608444"><ele>10.600000000000001</ele><time>2026-04-25T14:17:09Z</time></trkpt><trkpt lat="42.92581596077452" lon="10.538076098389512"><ele>11.0</ele><time>2026-04-25T14:17:10Z</time></trkpt><trkpt lat="42.92578605920484" lon="10.53795605729708"><ele>11.600000000000001</ele><time>2026-04-25T14:17:11Z</time></trkpt><trkpt lat="42.92576382016005" lon="10.537835443601734"><ele>12.2</ele><time>2026-04-25T14:17:12Z</time></trkpt><trkpt lat="42.92570747918573" lon="10.537753823885563"><ele>12.799999999999999</ele><time>2026-04-25T14:17:13Z</time></trkpt><trkpt lat="42.92575282482012" lon="10.537588383639918"><ele>13.399999999999999</ele><time>2026-04-25T14:17:14Z</time></trkpt><trkpt lat="42.92576454715674" lon="10.537455870269849"><ele>14.0</ele><time>2026-04-25T14:17:15Z</time></trkpt><trkpt lat="42.925783651786595" lon="10.537321929528138"><ele>14.000000000000002</ele><time>2026-04-25T14:17:16Z</time></trkpt><trkpt lat="42.9257989215264" lon="10.537178481496241"><ele>14.0</ele><time>2026-04-25T14:17:17Z</time></trkpt><trkpt lat="42.92581346299267" lon="10.53703603163091"><ele>14.0</ele><time>2026-04-25T14:17:18Z</time></trkpt><trkpt lat="42.92582641195772" lon="10.536927344862379"><ele>14.0</ele><time>2026-04-25T14:17:19Z</time></trkpt><trkpt lat="42.925834838550436" lon="10.53683097606957"><ele>14.000000000000002</ele><time>2026-04-25T14:17:20Z</time></trkpt><trkpt lat="42.92584281850781" lon="10.536721355997752"><ele>14.0</ele><time>2026-04-25T14:17:21Z</time></trkpt><trkpt lat="42.925852900842045" lon="10.536605681334645"><ele>14.000000000000002</ele><time>2026-04-25T14:17:22Z</time></trkpt><trkpt lat="42.92586004469808" lon="10.536489242298057"><ele>14.0</ele><time>2026-04-25T14:17:23Z</time></trkpt><trkpt lat="42.92587250971231" lon="10.536379322768957"><ele>14.0</ele><time>2026-04-25T14:17:24Z</time></trkpt><trkpt lat="42.92588313250243" lon="10.536268115494584"><ele>14.0</ele><time>2026-04-25T14:17:25Z</time></trkpt><trkpt lat="42.925891073018846" lon="10.536158587354809"><ele>14.000000000000002</ele><time>2026-04-25T14:17:26Z</time></trkpt><trkpt lat="42.92590357492666" lon="10.536055262128244"><ele>14.0</ele><time>2026-04-25T14:17:27Z</time></trkpt><trkpt lat="42.92592246909483" lon="10.535956054352887"><ele>13.833333333333334</ele><time>2026-04-25T14:17:28Z</time></trkpt><trkpt lat="42.92594580087912" lon="10.53586440065712"><ele>13.666666666666668</ele><time>2026-04-25T14:17:29Z</time></trkpt><trkpt lat="42.92597255726639" lon="10.535769381599476"><ele>13.5</ele><time>2026-04-25T14:17:30Z</time></trkpt><trkpt lat="42.92600142496247" lon="10.535682854457676"><ele>13.333333333333332</ele><time>2026-04-25T14:17:31Z</time></trkpt><trkpt lat="42.92603262729586" lon="10.535582771058781"><ele>13.166666666666666</ele><time>2026-04-25T14:17:32Z</time></trkpt><trkpt lat="42.926065797347945" lon="10.535472537236643"><ele>13.0</ele><time>2026-04-25T14:17:33Z</time></trkpt><trkpt lat="42.926098705998896" lon="10.535350684476285"><ele>13.0</ele><time>2026-04-25T14:17:34Z</time></trkpt><trkpt lat="42.926138017267455" lon="10.535224273431021"><ele>13.0</ele><time>2026-04-25T14:17:35Z</time></trkpt><trkpt lat="42.926177117817794" lon="10.535105363239321"><ele>13.0</ele><time>2026-04-25T14:17:36Z</time></trkpt><trkpt lat="42.92621803951916" lon="10.534992361873707"><ele>13.0</ele><time>2026-04-25T14:17:37Z</time></trkpt><trkpt lat="42.92625760070843" lon="10.534884592452737"><ele>13.0</ele><time>2026-04-25T14:17:38Z</time></trkpt><trkpt lat="42.926295800313426" lon="10.53479179367875"><ele>13.0</ele><time>2026-04-25T14:17:39Z</time></trkpt><trkpt lat="42.92633024431178" lon="10.534716225279956"><ele>13.0</ele><time>2026-04-25T14:17:40Z</time></trkpt><trkpt lat="42.92641554607264" lon="10.534626872343594"><ele>13.0</ele><time>2026-04-25T14:17:42Z</time></trkpt><trkpt lat="42.926521414663675" lon="10.5345698521772"><ele>13.0</ele><time>2026-04-25T14:17:44Z</time></trkpt><trkpt lat="42.926632279067945" lon="10.534518110250875"><ele>13.0</ele><time>2026-04-25T14:17:46Z</time></trkpt><trkpt lat="42.926693524072874" lon="10.534492788359968"><ele>12.666666666666666</ele><time>2026-04-25T14:17:47Z</time></trkpt><trkpt lat="42.92675326197932" lon="10.534440482996438"><ele>12.333333333333332</ele><time>2026-04-25T14:17:48Z</time></trkpt><trkpt lat="42.926828799569556" lon="10.534380276123908"><ele>12.0</ele><time>2026-04-25T14:17:49Z</time></trkpt><trkpt lat="42.9268853710511" lon="10.5342807572576"><ele>11.666666666666666</ele><time>2026-04-25T14:17:50Z</time></trkpt><trkpt lat="42.92694954217732" lon="10.534215915740921"><ele>11.333333333333332</ele><time>2026-04-25T14:17:51Z</time></trkpt><trkpt lat="42.927009441670414" lon="10.53415087178093"><ele>11.0</ele><time>2026-04-25T14:17:52Z</time></trkpt><trkpt lat="42.92706816897" lon="10.534078366365188"><ele>11.0</ele><time>2026-04-25T14:17:53Z</time></trkpt><trkpt lat="42.92712844484969" lon="10.534007789323375"><ele>11.0</ele><time>2026-04-25T14:17:54Z</time></trkpt><trkpt lat="42.92720038029038" lon="10.53395485597705"><ele>11.0</ele><time>2026-04-25T14:17:55Z</time></trkpt><trkpt lat="42.927254785225145" lon="10.533885092417306"><ele>11.0</ele><time>2026-04-25T14:17:56Z</time></trkpt><trkpt lat="42.927315706277504" lon="10.533814651863095"><ele>11.0</ele><time>2026-04-25T14:17:57Z</time></trkpt><trkpt lat="42.92737569878976" lon="10.533745334225992"><ele>11.0</ele><time>2026-04-25T14:17:58Z</time></trkpt><trkpt lat="42.92743489387737" lon="10.533673826719"><ele>11.571428571428571</ele><time>2026-04-25T14:17:59Z</time></trkpt><trkpt lat="42.92748886378739" lon="10.533610783440352"><ele>12.142857142857142</ele><time>2026-04-25T14:18:00Z</time></trkpt><trkpt lat="42.92754333651392" lon="10.533549944128012"><ele>12.714285714285715</ele><time>2026-04-25T14:18:01Z</time></trkpt><trkpt lat="42.927596635706735" lon="10.53349154518071"><ele>13.285714285714285</ele><time>2026-04-25T14:18:02Z</time></trkpt><trkpt lat="42.92765313279652" lon="10.533435845857298"><ele>13.857142857142856</ele><time>2026-04-25T14:18:03Z</time></trkpt><trkpt lat="42.92771447345101" lon="10.533384612575821"><ele>14.428571428571429</ele><time>2026-04-25T14:18:04Z</time></trkpt><trkpt lat="42.927773073040996" lon="10.53334490676109"><ele>15.0</ele><time>2026-04-25T14:18:05Z</time></trkpt><trkpt lat="42.92788472717479" lon="10.533273844804816"><ele>15.4</ele><time>2026-04-25T14:18:07Z</time></trkpt><trkpt lat="42.9279886604883" lon="10.533191780216494"><ele>15.8</ele><time>2026-04-25T14:18:09Z</time></trkpt><trkpt lat="42.928078112044716" lon="10.533116313081186"><ele>16.2</ele><time>2026-04-25T14:18:11Z</time></trkpt><trkpt lat="42.92814603173379" lon="10.533005875158674"><ele>16.6</ele><time>2026-04-25T14:18:13Z</time></trkpt><trkpt lat="42.928187778149706" lon="10.532891441381492"><ele>17.0</ele><time>2026-04-25T14:18:15Z</time></trkpt><trkpt lat="42.92813315389343" lon="10.532799626207389"><ele>17.0</ele><time>2026-04-25T14:18:16Z</time></trkpt><trkpt lat="42.92808101131441" lon="10.532656284476898"><ele>17.0</ele><time>2026-04-25T14:18:18Z</time></trkpt><trkpt lat="42.92804642322941" lon="10.532551308440633"><ele>17.0</ele><time>2026-04-25T14:18:20Z</time></trkpt><trkpt lat="42.92796853458765" lon="10.532491075122621"><ele>17.0</ele><time>2026-04-25T14:19:46Z</time></trkpt><trkpt lat="42.927908493126345" lon="10.532396041380112"><ele>17.0</ele><time>2026-04-25T14:19:48Z</time></trkpt><trkpt lat="42.92783785380422" lon="10.532258627116144"><ele>16.999999999999996</ele><time>2026-04-25T14:19:50Z</time></trkpt><trkpt lat="42.92779733330082" lon="10.53217538270563"><ele>17.0</ele><time>2026-04-25T14:19:51Z</time></trkpt><trkpt lat="42.927771263081134" lon="10.532076859342506"><ele>17.0</ele><time>2026-04-25T14:19:52Z</time></trkpt><trkpt lat="42.92773009061613" lon="10.532000983814253"><ele>17.0</ele><time>2026-04-25T14:19:53Z</time></trkpt><trkpt lat="42.927705804907376" lon="10.531914031499129"><ele>17.0</ele><time>2026-04-25T14:19:54Z</time></trkpt><trkpt lat="42.927685910273745" lon="10.531825858247391"><ele>16.999999999999996</ele><time>2026-04-25T14:19:55Z</time></trkpt><trkpt lat="42.92767013130645" lon="10.531736725679387"><ele>17.0</ele><time>2026-04-25T14:19:56Z</time></trkpt><trkpt lat="42.92766903891332" lon="10.531637736634467"><ele>16.8</ele><time>2026-04-25T14:19:57Z</time></trkpt><trkpt lat="42.92767900035754" lon="10.531530262674128"><ele>16.6</ele><time>2026-04-25T14:19:58Z</time></trkpt><trkpt lat="42.92769138761128" lon="10.531405643654562"><ele>16.400000000000002</ele><time>2026-04-25T14:19:59Z</time></trkpt><trkpt lat="42.927699388621235" lon="10.531274487941959"><ele>16.2</ele><time>2026-04-25T14:20:00Z</time></trkpt><trkpt lat="42.92771464171455" lon="10.531147558743884"><ele>16.0</ele><time>2026-04-25T14:20:01Z</time></trkpt><trkpt lat="42.92776224911005" lon="10.531026577659622"><ele>16.0</ele><time>2026-04-25T14:20:02Z</time></trkpt><trkpt lat="42.927806466951594" lon="10.530905967417993"><ele>16.0</ele><time>2026-04-25T14:20:03Z</time></trkpt><trkpt lat="42.927850842357515" lon="10.530779013289987"><ele>16.0</ele><time>2026-04-25T14:20:04Z</time></trkpt><trkpt lat="42.92789761640924" lon="10.53065175139275"><ele>16.0</ele><time>2026-04-25T14:20:05Z</time></trkpt><trkpt lat="42.92794276849449" lon="10.53052127217096"><ele>16.0</ele><time>2026-04-25T14:20:06Z</time></trkpt><trkpt lat="42.927983300160214" lon="10.530402115602149"><ele>16.8</ele><time>2026-04-25T14:20:07Z</time></trkpt><trkpt lat="42.92801696312971" lon="10.530311044393581"><ele>17.6</ele><time>2026-04-25T14:20:08Z</time></trkpt><trkpt lat="42.92807311180714" lon="10.530146734289424"><ele>18.4</ele><time>2026-04-25T14:20:10Z</time></trkpt><trkpt lat="42.92810655686595" lon="10.530040316763266"><ele>19.2</ele><time>2026-04-25T14:20:11Z</time></trkpt><trkpt lat="42.92814555653759" lon="10.529927185266477"><ele>20.0</ele><time>2026-04-25T14:20:12Z</time></trkpt><trkpt lat="42.928200392051295" lon="10.5298164726598"><ele>20.0</ele><time>2026-04-25T14:20:13Z</time></trkpt><trkpt lat="42.92823143286418" lon="10.529685307945241"><ele>20.0</ele><time>2026-04-25T14:20:14Z</time></trkpt><trkpt lat="42.92827679035472" lon="10.529556622291398"><ele>20.0</ele><time>2026-04-25T14:20:15Z</time></trkpt><trkpt lat="42.92831718734005" lon="10.529444844796542"><ele>20.0</ele><time>2026-04-25T14:20:16Z</time></trkpt><trkpt lat="42.928358214872354" lon="10.529326957588934"><ele>20.0</ele><time>2026-04-25T14:20:17Z</time></trkpt><trkpt lat="42.92839576985154" lon="10.529218114095025"><ele>20.2</ele><time>2026-04-25T14:20:18Z</time></trkpt><trkpt lat="42.92842196777886" lon="10.529131410894676"><ele>20.4</ele><time>2026-04-25T14:20:19Z</time></trkpt><trkpt lat="42.92846357509788" lon="10.528956414387196"><ele>20.6</ele><time>2026-04-25T14:20:21Z</time></trkpt><trkpt lat="42.92851067585608" lon="10.528854273209824"><ele>20.8</ele><time>2026-04-25T14:20:22Z</time></trkpt><trkpt lat="42.9285454212916" lon="10.528751731093553"><ele>21.0</ele><time>2026-04-25T14:20:23Z</time></trkpt><trkpt lat="42.928587874840886" lon="10.528634396353064"><ele>19.75</ele><time>2026-04-25T14:20:24Z</time></trkpt><trkpt lat="42.92862827729978" lon="10.52849708124951"><ele>18.5</ele><time>2026-04-25T14:20:25Z</time></trkpt><trkpt lat="42.928665686360944" lon="10.528337662178087"><ele>17.25</ele><time>2026-04-25T14:20:26Z</time></trkpt><trkpt lat="42.92870980927841" lon="10.528197189292927"><ele>16.0</ele><time>2026-04-25T14:20:27Z</time></trkpt><trkpt lat="42.92875426704217" lon="10.528056636825763"><ele>15.999999999999998</ele><time>2026-04-25T14:20:28Z</time></trkpt><trkpt lat="42.92879602201734" lon="10.527929989668527"><ele>16.0</ele><time>2026-04-25T14:20:29Z</time></trkpt><trkpt lat="42.928831911027714" lon="10.527813139687122"><ele>16.0</ele><time>2026-04-25T14:20:30Z</time></trkpt><trkpt lat="42.928865653257645" lon="10.52769626429357"><ele>16.0</ele><time>2026-04-25T14:20:31Z</time></trkpt><trkpt lat="42.928891414936416" lon="10.527597430485985"><ele>15.999999999999998</ele><time>2026-04-25T14:20:32Z</time></trkpt><trkpt lat="42.92891798997197" lon="10.527509261393163"><ele>16.0</ele><time>2026-04-25T14:20:33Z</time></trkpt><trkpt lat="42.92894707318257" lon="10.527424612157832"><ele>16.5</ele><time>2026-04-25T14:20:34Z</time></trkpt><trkpt lat="42.928987594827106" lon="10.527338789381046"><ele>17.0</ele><time>2026-04-25T14:20:35Z</time></trkpt><trkpt lat="42.92902632725257" lon="10.527229569377319"><ele>17.5</ele><time>2026-04-25T14:20:36Z</time></trkpt><trkpt lat="42.92906172774172" lon="10.52711067070066"><ele>18.0</ele><time>2026-04-25T14:20:37Z</time></trkpt><trkpt lat="42.92909733619182" lon="10.526991897171271"><ele>18.5</ele><time>2026-04-25T14:20:38Z</time></trkpt><trkpt lat="42.92912772776456" lon="10.526870683183807"><ele>19.0</ele><time>2026-04-25T14:20:39Z</time></trkpt><trkpt lat="42.92916643756447" lon="10.52675409588868"><ele>20.0</ele><time>2026-04-25T14:20:40Z</time></trkpt><trkpt lat="42.929201522761375" lon="10.526627542166432"><ele>21.0</ele><time>2026-04-25T14:20:41Z</time></trkpt><trkpt lat="42.92924338191234" lon="10.526509055137742"><ele>22.0</ele><time>2026-04-25T14:20:42Z</time></trkpt><trkpt lat="42.9292951878596" lon="10.52640167382462"><ele>23.0</ele><time>2026-04-25T14:20:43Z</time></trkpt><trkpt lat="42.92935141528074" lon="10.526290047417376"><ele>24.0</ele><time>2026-04-25T14:20:44Z</time></trkpt><trkpt lat="42.929373060902385" lon="10.526134052131063"><ele>25.2</ele><time>2026-04-25T14:20:45Z</time></trkpt><trkpt lat="42.929435864321" lon="10.526040203524733"><ele>26.4</ele><time>2026-04-25T14:20:46Z</time></trkpt><trkpt lat="42.92949769542814" lon="10.525943866499796"><ele>27.6</ele><time>2026-04-25T14:20:47Z</time></trkpt><trkpt lat="42.92963243655246" lon="10.525927438562997"><ele>28.8</ele><time>2026-04-25T14:20:48Z</time></trkpt><trkpt lat="42.92971716437094" lon="10.525905915326767"><ele>30.0</ele><time>2026-04-25T14:20:49Z</time></trkpt><trkpt lat="42.92978957228677" lon="10.525845017889418"><ele>30.0</ele><time>2026-04-25T14:20:50Z</time></trkpt><trkpt lat="42.929866641129905" lon="10.525810485650464"><ele>30.0</ele><time>2026-04-25T14:20:51Z</time></trkpt><trkpt lat="42.9299479071376" lon="10.525788339199122"><ele>30.0</ele><time>2026-04-25T14:20:52Z</time></trkpt><trkpt lat="42.93001832615879" lon="10.525775339748368"><ele>30.0</ele><time>2026-04-25T14:20:53Z</time></trkpt><trkpt lat="42.93011651379602" lon="10.525767915124975"><ele>30.0</ele><time>2026-04-25T14:20:55Z</time></trkpt><trkpt lat="42.930187334280625" lon="10.525752222422728"><ele>30.0</ele><time>2026-04-25T14:21:00Z</time></trkpt><trkpt lat="42.93029359226436" lon="10.525782068537376"><ele>30.2</ele><time>2026-04-25T14:21:02Z</time></trkpt><trkpt lat="42.93036151171467" lon="10.525815853769911"><ele>30.4</ele><time>2026-04-25T14:21:03Z</time></trkpt><trkpt lat="42.93044479001428" lon="10.525857320058911"><ele>30.6</ele><time>2026-04-25T14:21:04Z</time></trkpt><trkpt lat="42.930531940944114" lon="10.525908761918462"><ele>30.8</ele><time>2026-04-25T14:21:05Z</time></trkpt><trkpt lat="42.93062783438772" lon="10.525971493180963"><ele>31.0</ele><time>2026-04-25T14:21:06Z</time></trkpt><trkpt lat="42.9307283688407" lon="10.526034122742598"><ele>31.0</ele><time>2026-04-25T14:21:07Z</time></trkpt><trkpt lat="42.93083220460092" lon="10.526100379696322"><ele>31.0</ele><time>2026-04-25T14:21:08Z</time></trkpt><trkpt lat="42.93093664209557" lon="10.526170151739523"><ele>31.0</ele><time>2026-04-25T14:21:09Z</time></trkpt><trkpt lat="42.93104177869818" lon="10.526237791212655"><ele>31.0</ele><time>2026-04-25T14:21:10Z</time></trkpt><trkpt lat="42.931146055434944" lon="10.526302583399554"><ele>31.8</ele><time>2026-04-25T14:21:11Z</time></trkpt><trkpt lat="42.931239363480366" lon="10.52635938294002"><ele>32.6</ele><time>2026-04-25T14:21:12Z</time></trkpt><trkpt lat="42.931324670846124" lon="10.526406376930062"><ele>33.4</ele><time>2026-04-25T14:21:13Z</time></trkpt><trkpt lat="42.93140745075326" lon="10.526456369782013"><ele>34.2</ele><time>2026-04-25T14:21:14Z</time></trkpt><trkpt lat="42.93150009827815" lon="10.526516862313187"><ele>35.0</ele><time>2026-04-25T14:21:15Z</time></trkpt><trkpt lat="42.93158574240028" lon="10.52656617615978"><ele>35.0</ele><time>2026-04-25T14:21:16Z</time></trkpt><trkpt lat="42.93168873856302" lon="10.52663477315328"><ele>35.0</ele><time>2026-04-25T14:21:17Z</time></trkpt><trkpt lat="42.931791474934826" lon="10.526700414951005"><ele>35.0</ele><time>2026-04-25T14:21:18Z</time></trkpt><trkpt lat="42.9318994072418" lon="10.526766299219227"><ele>35.0</ele><time>2026-04-25T14:21:19Z</time></trkpt><trkpt lat="42.93201015966845" lon="10.52683507393593"><ele>33.8</ele><time>2026-04-25T14:21:20Z</time></trkpt><trkpt lat="42.93211938149145" lon="10.526899640717392"><ele>32.6</ele><time>2026-04-25T14:21:21Z</time></trkpt><trkpt lat="42.93223107012741" lon="10.526965213826394"><ele>31.4</ele><time>2026-04-25T14:21:22Z</time></trkpt><trkpt lat="42.93232866109378" lon="10.527021685894914"><ele>30.2</ele><time>2026-04-25T14:21:23Z</time></trkpt><trkpt lat="42.93241837913843" lon="10.527076729559937"><ele>29.0</ele><time>2026-04-25T14:21:24Z</time></trkpt><trkpt lat="42.93250172021021" lon="10.527129723799641"><ele>31.4</ele><time>2026-04-25T14:21:25Z</time></trkpt><trkpt lat="42.932587276962764" lon="10.527180235830345"><ele>33.8</ele><time>2026-04-25T14:21:26Z</time></trkpt><trkpt lat="42.932677995190424" lon="10.527232723743897"><ele>36.199999999999996</ele><time>2026-04-25T14:21:27Z</time></trkpt><trkpt lat="42.93276807028736" lon="10.527287830329264"><ele>38.599999999999994</ele><time>2026-04-25T14:21:28Z</time></trkpt><trkpt lat="42.932863204541896" lon="10.527344712627235"><ele>41.0</ele><time>2026-04-25T14:21:29Z</time></trkpt><trkpt lat="42.932953916413496" lon="10.527396989006997"><ele>41.0</ele><time>2026-04-25T14:21:30Z</time></trkpt><trkpt lat="42.93304101473631" lon="10.527447800733258"><ele>41.0</ele><time>2026-04-25T14:21:31Z</time></trkpt><trkpt lat="42.933134787304475" lon="10.527506505932207"><ele>41.0</ele><time>2026-04-25T14:21:32Z</time></trkpt><trkpt lat="42.93322759221959" lon="10.527560740878032"><ele>41.0</ele><time>2026-04-25T14:21:33Z</time></trkpt><trkpt lat="42.93332204247135" lon="10.527616507314624"><ele>41.0</ele><time>2026-04-25T14:21:34Z</time></trkpt><trkpt lat="42.933410440118365" lon="10.527667729559768"><ele>41.8</ele><time>2026-04-25T14:21:35Z</time></trkpt><trkpt lat="42.93349515333887" lon="10.527720277924027"><ele>42.599999999999994</ele><time>2026-04-25T14:21:36Z</time></trkpt><trkpt lat="42.933583839838555" lon="10.52777338589256"><ele>43.4</ele><time>2026-04-25T14:21:37Z</time></trkpt><trkpt lat="42.933674431234316" lon="10.527827224105602"><ele>44.2</ele><time>2026-04-25T14:21:38Z</time></trkpt><trkpt lat="42.93376677649383" lon="10.527881240797685"><ele>45.0</ele><time>2026-04-25T14:21:39Z</time></trkpt><trkpt lat="42.93385454992441" lon="10.527932492407672"><ele>44.2</ele><time>2026-04-25T14:21:40Z</time></trkpt><trkpt lat="42.933936426946225" lon="10.52798228715407"><ele>43.4</ele><time>2026-04-25T14:21:41Z</time></trkpt><trkpt lat="42.93402327131949" lon="10.528036783011533"><ele>42.599999999999994</ele><time>2026-04-25T14:21:42Z</time></trkpt><trkpt lat="42.93410836386819" lon="10.528088038980153"><ele>41.8</ele><time>2026-04-25T14:21:43Z</time></trkpt><trkpt lat="42.934195302323346" lon="10.52814060125972"><ele>41.0</ele><time>2026-04-25T14:21:44Z</time></trkpt><trkpt lat="42.93428314348404" lon="10.528193320587878"><ele>41.0</ele><time>2026-04-25T14:21:45Z</time></trkpt><trkpt lat="42.934373311943354" lon="10.528239278272384"><ele>41.0</ele><time>2026-04-25T14:21:46Z</time></trkpt><trkpt lat="42.934457780835515" lon="10.528284386007801"><ele>41.0</ele><time>2026-04-25T14:21:47Z</time></trkpt><trkpt lat="42.93453115207606" lon="10.528326274453784"><ele>41.0</ele><time>2026-04-25T14:21:48Z</time></trkpt><trkpt lat="42.934607950232824" lon="10.528370607621472"><ele>41.0</ele><time>2026-04-25T14:21:49Z</time></trkpt><trkpt lat="42.93469391964239" lon="10.528413035017273"><ele>41.0</ele><time>2026-04-25T14:21:50Z</time></trkpt><trkpt lat="42.93477701143575" lon="10.528461738310563"><ele>41.0</ele><time>2026-04-25T14:21:51Z</time></trkpt><trkpt lat="42.93486003545427" lon="10.52851917970555"><ele>41.0</ele><time>2026-04-25T14:21:52Z</time></trkpt><trkpt lat="42.93494277844085" lon="10.52857108729162"><ele>41.0</ele><time>2026-04-25T14:21:53Z</time></trkpt><trkpt lat="42.93501986026617" lon="10.528617426792623"><ele>41.0</ele><time>2026-04-25T14:21:54Z</time></trkpt><trkpt lat="42.9350866182604" lon="10.528667650644985"><ele>41.0</ele><time>2026-04-25T14:21:55Z</time></trkpt><trkpt lat="42.935156084421784" lon="10.528714147442566"><ele>41.0</ele><time>2026-04-25T14:21:56Z</time></trkpt><trkpt lat="42.935230961409985" lon="10.52876088985344"><ele>40.166666666666664</ele><time>2026-04-25T14:21:57Z</time></trkpt><trkpt lat="42.93531015760966" lon="10.528807388192012"><ele>39.33333333333333</ele><time>2026-04-25T14:21:58Z</time></trkpt><trkpt lat="42.93539391946932" lon="10.528855124045796"><ele>38.5</ele><time>2026-04-25T14:21:59Z</time></trkpt><trkpt lat="42.935483125863776" lon="10.528904152602813"><ele>37.666666666666664</ele><time>2026-04-25T14:22:00Z</time></trkpt><trkpt lat="42.93555857182214" lon="10.528949984141788"><ele>36.833333333333336</ele><time>2026-04-25T14:22:01Z</time></trkpt><trkpt lat="42.935634181709204" lon="10.528994553208777"><ele>36.0</ele><time>2026-04-25T14:22:02Z</time></trkpt><trkpt lat="42.93571054182593" lon="10.529035061640263"><ele>36.0</ele><time>2026-04-25T14:22:03Z</time></trkpt><trkpt lat="42.93579144026653" lon="10.529072606159664"><ele>36.0</ele><time>2026-04-25T14:22:04Z</time></trkpt><trkpt lat="42.93587366878686" lon="10.529112480338599"><ele>36.0</ele><time>2026-04-25T14:22:05Z</time></trkpt><trkpt lat="42.93594987037117" lon="10.529147446891855"><ele>36.0</ele><time>2026-04-25T14:22:06Z</time></trkpt><trkpt lat="42.93601626792316" lon="10.52918706488305"><ele>36.0</ele><time>2026-04-25T14:22:07Z</time></trkpt><trkpt lat="42.9360831604909" lon="10.529226018930089"><ele>36.0</ele><time>2026-04-25T14:22:08Z</time></trkpt><trkpt lat="42.93614903962406" lon="10.529266844200531"><ele>35.6</ele><time>2026-04-25T14:22:09Z</time></trkpt><trkpt lat="42.93621633905223" lon="10.529309224435865"><ele>35.2</ele><time>2026-04-25T14:22:10Z</time></trkpt><trkpt lat="42.93628037681368" lon="10.529345876660091"><ele>34.8</ele><time>2026-04-25T14:22:11Z</time></trkpt><trkpt lat="42.93638106672649" lon="10.529424632461676"><ele>34.4</ele><time>2026-04-25T14:22:13Z</time></trkpt><trkpt lat="42.93647966394832" lon="10.529539786482573"><ele>34.0</ele><time>2026-04-25T14:22:15Z</time></trkpt><trkpt lat="42.93653447671212" lon="10.529599042975516"><ele>34.0</ele><time>2026-04-25T14:22:16Z</time></trkpt><trkpt lat="42.936590115349695" lon="10.529667020717635"><ele>34.0</ele><time>2026-04-25T14:22:17Z</time></trkpt><trkpt lat="42.93667505386702" lon="10.529667831633754"><ele>34.0</ele><time>2026-04-25T14:22:18Z</time></trkpt><trkpt lat="42.93675069056701" lon="10.529692471107658"><ele>34.0</ele><time>2026-04-25T14:22:19Z</time></trkpt><trkpt lat="42.936826273727384" lon="10.52971682245824"><ele>34.0</ele><time>2026-04-25T14:22:20Z</time></trkpt><trkpt lat="42.93690108414138" lon="10.529749838669842"><ele>34.0</ele><time>2026-04-25T14:22:21Z</time></trkpt><trkpt lat="42.936975367843246" lon="10.529789390552907"><ele>34.66666666666667</ele><time>2026-04-25T14:22:22Z</time></trkpt><trkpt lat="42.93705460129276" lon="10.529824395471977"><ele>35.333333333333336</ele><time>2026-04-25T14:22:23Z</time></trkpt><trkpt lat="42.93713426804781" lon="10.529858642073844"><ele>36.0</ele><time>2026-04-25T14:22:24Z</time></trkpt><trkpt lat="42.93721400797844" lon="10.529904033807904"><ele>36.666666666666664</ele><time>2026-04-25T14:22:25Z</time></trkpt><trkpt lat="42.93728587569868" lon="10.529977803037724"><ele>37.33333333333333</ele><time>2026-04-25T14:22:26Z</time></trkpt><trkpt lat="42.93735575094093" lon="10.530058827090242"><ele>38.0</ele><time>2026-04-25T14:22:27Z</time></trkpt><trkpt lat="42.93742723059306" lon="10.530157185552683"><ele>38.0</ele><time>2026-04-25T14:22:28Z</time></trkpt><trkpt lat="42.93751378310728" lon="10.530234801879846"><ele>38.0</ele><time>2026-04-25T14:22:29Z</time></trkpt><trkpt lat="42.93758891900202" lon="10.530318692793449"><ele>38.0</ele><time>2026-04-25T14:22:30Z</time></trkpt><trkpt lat="42.937661180787586" lon="10.530396808158972"><ele>38.0</ele><time>2026-04-25T14:22:31Z</time></trkpt><trkpt lat="42.937735674597384" lon="10.530480274426717"><ele>38.0</ele><time>2026-04-25T14:22:32Z</time></trkpt><trkpt lat="42.93781421680659" lon="10.530569399592927"><ele>38.8</ele><time>2026-04-25T14:22:33Z</time></trkpt><trkpt lat="42.93789687527252" lon="10.530658052042028"><ele>39.599999999999994</ele><time>2026-04-25T14:22:34Z</time></trkpt><trkpt lat="42.93797526341009" lon="10.530752053520743"><ele>40.400000000000006</ele><time>2026-04-25T14:22:35Z</time></trkpt><trkpt lat="42.93805068858976" lon="10.530850654516756"><ele>41.2</ele><time>2026-04-25T14:22:36Z</time></trkpt><trkpt lat="42.93812276048781" lon="10.530949946489372"><ele>42.0</ele><time>2026-04-25T14:22:37Z</time></trkpt><trkpt lat="42.938201127774065" lon="10.531063924090716"><ele>42.0</ele><time>2026-04-25T14:22:38Z</time></trkpt><trkpt lat="42.93827228676508" lon="10.531169821243767"><ele>42.0</ele><time>2026-04-25T14:22:39Z</time></trkpt><trkpt lat="42.93834765670888" lon="10.531276829096825"><ele>42.0</ele><time>2026-04-25T14:22:40Z</time></trkpt><trkpt lat="42.9384221683162" lon="10.531383693629646"><ele>42.0</ele><time>2026-04-25T14:22:41Z</time></trkpt><trkpt lat="42.9384947578322" lon="10.531488396105448"><ele>42.0</ele><time>2026-04-25T14:22:42Z</time></trkpt><trkpt lat="42.93857061194271" lon="10.531594463714965"><ele>42.2</ele><time>2026-04-25T14:22:43Z</time></trkpt><trkpt lat="42.938649646463176" lon="10.531703087787948"><ele>42.400000000000006</ele><time>2026-04-25T14:22:44Z</time></trkpt><trkpt lat="42.93872455810822" lon="10.531809770107744"><ele>42.599999999999994</ele><time>2026-04-25T14:22:45Z</time></trkpt><trkpt lat="42.938804482115934" lon="10.53191806591363"><ele>42.8</ele><time>2026-04-25T14:22:46Z</time></trkpt><trkpt lat="42.938879752412134" lon="10.532027278841428"><ele>43.0</ele><time>2026-04-25T14:22:47Z</time></trkpt><trkpt lat="42.93895052730272" lon="10.532145879479492"><ele>43.0</ele><time>2026-04-25T14:22:48Z</time></trkpt><trkpt lat="42.939028210398206" lon="10.532258532812167"><ele>43.0</ele><time>2026-04-25T14:22:49Z</time></trkpt><trkpt lat="42.93910774441171" lon="10.532371324893424"><ele>43.0</ele><time>2026-04-25T14:22:50Z</time></trkpt><trkpt lat="42.9391783125775" lon="10.532484884141004"><ele>43.0</ele><time>2026-04-25T14:22:51Z</time></trkpt><trkpt lat="42.93925592994298" lon="10.532598760250455"><ele>43.0</ele><time>2026-04-25T14:22:52Z</time></trkpt><trkpt lat="42.93933843720016" lon="10.532708719096863"><ele>43.0</ele><time>2026-04-25T14:22:53Z</time></trkpt><trkpt lat="42.93942004636416" lon="10.53282095622781"><ele>43.0</ele><time>2026-04-25T14:22:54Z</time></trkpt><trkpt lat="42.93949345575057" lon="10.532924683827375"><ele>43.0</ele><time>2026-04-25T14:22:55Z</time></trkpt><trkpt lat="42.93957004085324" lon="10.533028630164296"><ele>43.0</ele><time>2026-04-25T14:22:56Z</time></trkpt><trkpt lat="42.939649906980065" lon="10.533135241221105"><ele>43.0</ele><time>2026-04-25T14:22:57Z</time></trkpt><trkpt lat="42.93973297549238" lon="10.533240849635977"><ele>43.0</ele><time>2026-04-25T14:22:58Z</time></trkpt><trkpt lat="42.93982144032032" lon="10.533337383731153"><ele>43.0</ele><time>2026-04-25T14:22:59Z</time></trkpt><trkpt lat="42.9399045001527" lon="10.533426605647172"><ele>43.0</ele><time>2026-04-25T14:23:00Z</time></trkpt><trkpt lat="42.93998836253227" lon="10.533520323217758"><ele>43.0</ele><time>2026-04-25T14:23:01Z</time></trkpt><trkpt lat="42.94007577447417" lon="10.533621578461684"><ele>42.0</ele><time>2026-04-25T14:23:02Z</time></trkpt><trkpt lat="42.940164134717776" lon="10.533729944927002"><ele>41.0</ele><time>2026-04-25T14:23:03Z</time></trkpt><trkpt lat="42.940260770380974" lon="10.533839438146918"><ele>40.0</ele><time>2026-04-25T14:23:04Z</time></trkpt><trkpt lat="42.940354579376894" lon="10.53394792314267"><ele>39.0</ele><time>2026-04-25T14:23:05Z</time></trkpt><trkpt lat="42.9404517450952" lon="10.534053423229047"><ele>39.0</ele><time>2026-04-25T14:23:06Z</time></trkpt><trkpt lat="42.940539681656176" lon="10.534153748688096"><ele>39.0</ele><time>2026-04-25T14:23:07Z</time></trkpt><trkpt lat="42.94063000276097" lon="10.534255448563494"><ele>39.0</ele><time>2026-04-25T14:23:08Z</time></trkpt><trkpt lat="42.940717084073405" lon="10.534356926731062"><ele>39.0</ele><time>2026-04-25T14:23:09Z</time></trkpt><trkpt lat="42.94080320336687" lon="10.534461876008947"><ele>38.5</ele><time>2026-04-25T14:23:10Z</time></trkpt><trkpt lat="42.94089732778524" lon="10.534571692984679"><ele>38.0</ele><time>2026-04-25T14:23:11Z</time></trkpt><trkpt lat="42.94098679853499" lon="10.534676196488721"><ele>37.5</ele><time>2026-04-25T14:23:12Z</time></trkpt><trkpt lat="42.94107631905082" lon="10.534774645951423"><ele>37.0</ele><time>2026-04-25T14:23:13Z</time></trkpt><trkpt lat="42.94116859091913" lon="10.53487957274616"><ele>37.0</ele><time>2026-04-25T14:23:14Z</time></trkpt><trkpt lat="42.9412618387865" lon="10.534979084524485"><ele>37.0</ele><time>2026-04-25T14:23:15Z</time></trkpt><trkpt lat="42.94135170306027" lon="10.535083648402345"><ele>37.0</ele><time>2026-04-25T14:23:16Z</time></trkpt><trkpt lat="42.94143667720887" lon="10.535187064386673"><ele>37.0</ele><time>2026-04-25T14:23:17Z</time></trkpt><trkpt lat="42.94152506003167" lon="10.535287257992707"><ele>37.0</ele><time>2026-04-25T14:23:18Z</time></trkpt><trkpt lat="42.94160869580636" lon="10.535385908064436"><ele>37.0</ele><time>2026-04-25T14:23:19Z</time></trkpt><trkpt lat="42.941691907037125" lon="10.535482614875054"><ele>37.0</ele><time>2026-04-25T14:23:20Z</time></trkpt><trkpt lat="42.94177483693521" lon="10.535578674630793"><ele>37.0</ele><time>2026-04-25T14:23:21Z</time></trkpt><trkpt lat="42.941858863506404" lon="10.535680548530769"><ele>37.0</ele><time>2026-04-25T14:23:22Z</time></trkpt><trkpt lat="42.94194210380866" lon="10.535778048051714"><ele>35.800000000000004</ele><time>2026-04-25T14:23:23Z</time></trkpt><trkpt lat="42.94202120056668" lon="10.535868208665056"><ele>34.6</ele><time>2026-04-25T14:23:24Z</time></trkpt><trkpt lat="42.94210103522284" lon="10.535953798384968"><ele>33.400000000000006</ele><time>2026-04-25T14:23:25Z</time></trkpt><trkpt lat="42.94216880805846" lon="10.536038853763385"><ele>32.2</ele><time>2026-04-25T14:23:26Z</time></trkpt><trkpt lat="42.94222240224626" lon="10.536118368363683"><ele>31.0</ele><time>2026-04-25T14:23:27Z</time></trkpt><trkpt lat="42.942270349623925" lon="10.536211438636073"><ele>30.833333333333336</ele><time>2026-04-25T14:23:28Z</time></trkpt><trkpt lat="42.942310652208114" lon="10.53631260276959"><ele>30.666666666666668</ele><time>2026-04-25T14:23:29Z</time></trkpt><trkpt lat="42.94234918125413" lon="10.536409285834544"><ele>30.5</ele><time>2026-04-25T14:23:30Z</time></trkpt><trkpt lat="42.94239850787001" lon="10.536477511585582"><ele>30.333333333333336</ele><time>2026-04-25T14:23:31Z</time></trkpt><trkpt lat="42.942460189087114" lon="10.536532061913286"><ele>30.166666666666668</ele><time>2026-04-25T14:23:32Z</time></trkpt><trkpt lat="42.94253253139007" lon="10.536567658583959"><ele>30.0</ele><time>2026-04-25T14:23:33Z</time></trkpt><trkpt lat="42.9426212550338" lon="10.536613301295217"><ele>30.0</ele><time>2026-04-25T14:23:34Z</time></trkpt><trkpt lat="42.94270250584004" lon="10.536682538182314"><ele>30.0</ele><time>2026-04-25T14:23:35Z</time></trkpt><trkpt lat="42.942789409529254" lon="10.53676879537019"><ele>30.0</ele><time>2026-04-25T14:23:36Z</time></trkpt><trkpt lat="42.94287600804051" lon="10.5368616685902"><ele>30.0</ele><time>2026-04-25T14:23:37Z</time></trkpt><trkpt lat="42.94296133849317" lon="10.536972443693804"><ele>30.0</ele><time>2026-04-25T14:23:38Z</time></trkpt><trkpt lat="42.94305306250281" lon="10.537075421941932"><ele>30.5</ele><time>2026-04-25T14:23:39Z</time></trkpt><trkpt lat="42.943140885745926" lon="10.537175217389782"><ele>31.0</ele><time>2026-04-25T14:23:40Z</time></trkpt><trkpt lat="42.94322893737324" lon="10.537277070657048"><ele>31.5</ele><time>2026-04-25T14:23:41Z</time></trkpt><trkpt lat="42.94331494490895" lon="10.537381536765013"><ele>32.0</ele><time>2026-04-25T14:23:42Z</time></trkpt><trkpt lat="42.943411394401465" lon="10.537469638251713"><ele>31.999999999999996</ele><time>2026-04-25T14:23:43Z</time></trkpt><trkpt lat="42.94347229926543" lon="10.537562178989509"><ele>32.0</ele><time>2026-04-25T14:23:44Z</time></trkpt><trkpt lat="42.943533368930105" lon="10.537644955905975"><ele>32.0</ele><time>2026-04-25T14:23:45Z</time></trkpt><trkpt lat="42.94358339545409" lon="10.5377040286595"><ele>32.0</ele><time>2026-04-25T14:23:46Z</time></trkpt><trkpt lat="42.94363596284672" lon="10.537761002018492"><ele>31.999999999999996</ele><time>2026-04-25T14:23:47Z</time></trkpt><trkpt lat="42.943699383736934" lon="10.537926029788263"><ele>32.0</ele><time>2026-04-25T14:23:49Z</time></trkpt><trkpt lat="42.94377028397219" lon="10.538012200331483"><ele>31.6</ele><time>2026-04-25T14:23:51Z</time></trkpt><trkpt lat="42.943814182722605" lon="10.538102063670452"><ele>31.200000000000003</ele><time>2026-04-25T14:23:54Z</time></trkpt><trkpt lat="42.94377157869845" lon="10.53820178311875"><ele>30.8</ele><time>2026-04-25T14:23:57Z</time></trkpt><trkpt lat="42.94373060543335" lon="10.53830896721382"><ele>30.4</ele><time>2026-04-25T14:23:59Z</time></trkpt><trkpt lat="42.943698769800356" lon="10.538392247673944"><ele>30.0</ele><time>2026-04-25T14:24:01Z</time></trkpt><trkpt lat="42.943845349839314" lon="10.538616196991414"><ele>30.0</ele><time>2026-04-25T14:24:03Z</time></trkpt><trkpt lat="42.94394417718312" lon="10.538680142540237"><ele>30.0</ele><time>2026-04-25T14:24:06Z</time></trkpt><trkpt lat="42.94403387715447" lon="10.538719578008061"><ele>30.0</ele><time>2026-04-25T14:24:08Z</time></trkpt><trkpt lat="42.944125529645184" lon="10.53877594582394"><ele>30.0</ele><time>2026-04-25T14:24:10Z</time></trkpt><trkpt lat="42.944199766178976" lon="10.53884165095745"><ele>30.0</ele><time>2026-04-25T14:24:12Z</time></trkpt><trkpt lat="42.94426658386533" lon="10.538884544568976"><ele>30.0</ele><time>2026-04-25T14:24:14Z</time></trkpt><trkpt lat="42.94432917987725" lon="10.53892997011423"><ele>30.0</ele><time>2026-04-25T14:26:40Z</time></trkpt><trkpt lat="42.94425056698629" lon="10.538874942264624"><ele>30.0</ele><time>2026-04-25T14:26:43Z</time></trkpt><trkpt lat="42.944104908375785" lon="10.538797979008889"><ele>30.0</ele><time>2026-04-25T14:26:46Z</time></trkpt><trkpt lat="42.94399869572163" lon="10.53871064571583"><ele>30.0</ele><time>2026-04-25T14:26:48Z</time></trkpt><trkpt lat="42.94393380523062" lon="10.538669184457264"><ele>30.0</ele><time>2026-04-25T14:26:49Z</time></trkpt><trkpt lat="42.94386992105636" lon="10.53862588697723"><ele>30.0</ele><time>2026-04-25T14:26:50Z</time></trkpt><trkpt lat="42.94380971253585" lon="10.538588975272452"><ele>30.0</ele><time>2026-04-25T14:26:51Z</time></trkpt><trkpt lat="42.94370616871529" lon="10.538533732121813"><ele>30.0</ele><time>2026-04-25T14:26:53Z</time></trkpt><trkpt lat="42.94361088636264" lon="10.538507540277456"><ele>30.0</ele><time>2026-04-25T14:26:55Z</time></trkpt><trkpt lat="42.9435450874234" lon="10.538502176516703"><ele>30.0</ele><time>2026-04-25T14:26:58Z</time></trkpt><trkpt lat="42.94349132696395" lon="10.538560397922"><ele>30.0</ele><time>2026-04-25T14:27:01Z</time></trkpt><trkpt lat="42.94345410619287" lon="10.538703512762732"><ele>30.0</ele><time>2026-04-25T14:27:03Z</time></trkpt><trkpt lat="42.9434202489972" lon="10.538835406687129"><ele>30.0</ele><time>2026-04-25T14:27:05Z</time></trkpt><trkpt lat="42.943379943246015" lon="10.538966049674894"><ele>30.0</ele><time>2026-04-25T14:27:07Z</time></trkpt><trkpt lat="42.94333552558497" lon="10.53908860067489"><ele>30.0</ele><time>2026-04-25T14:27:09Z</time></trkpt><trkpt lat="42.94331453306108" lon="10.539176658147776"><ele>29.0</ele><time>2026-04-25T14:27:11Z</time></trkpt><trkpt lat="42.94330692605264" lon="10.53926817082171"><ele>28.0</ele><time>2026-04-25T14:27:16Z</time></trkpt><trkpt lat="42.94337445173448" lon="10.539346259350415"><ele>27.0</ele><time>2026-04-25T14:27:18Z</time></trkpt><trkpt lat="42.94343533658719" lon="10.539372805386767"><ele>26.0</ele><time>2026-04-25T14:27:19Z</time></trkpt><trkpt lat="42.94349912034615" lon="10.539398377852738"><ele>25.0</ele><time>2026-04-25T14:27:20Z</time></trkpt><trkpt lat="42.94360281414006" lon="10.539452785352614"><ele>24.0</ele><time>2026-04-25T14:27:22Z</time></trkpt><trkpt lat="42.94370733216707" lon="10.539504496177795"><ele>23.999999999999996</ele><time>2026-04-25T14:27:24Z</time></trkpt><trkpt lat="42.943769623075134" lon="10.53953141261521"><ele>24.0</ele><time>2026-04-25T14:27:25Z</time></trkpt><trkpt lat="42.943838722327236" lon="10.539568908846162"><ele>24.0</ele><time>2026-04-25T14:27:26Z</time></trkpt><trkpt lat="42.943908366717416" lon="10.539604613730404"><ele>24.0</ele><time>2026-04-25T14:27:27Z</time></trkpt><trkpt lat="42.94398755737589" lon="10.53964609742422"><ele>24.0</ele><time>2026-04-25T14:27:28Z</time></trkpt><trkpt lat="42.94405515654233" lon="10.539686987260323"><ele>23.999999999999996</ele><time>2026-04-25T14:27:29Z</time></trkpt><trkpt lat="42.94412371176725" lon="10.539727740859405"><ele>24.0</ele><time>2026-04-25T14:27:30Z</time></trkpt><trkpt lat="42.94419879712509" lon="10.53976566517328"><ele>25.0</ele><time>2026-04-25T14:27:31Z</time></trkpt><trkpt lat="42.944273006565346" lon="10.539808763034234"><ele>26.0</ele><time>2026-04-25T14:27:32Z</time></trkpt><trkpt lat="42.94434204791051" lon="10.539850694822897"><ele>27.0</ele><time>2026-04-25T14:27:33Z</time></trkpt><trkpt lat="42.94444500955459" lon="10.539913078446121"><ele>28.0</ele><time>2026-04-25T14:27:35Z</time></trkpt><trkpt lat="42.944534662709884" lon="10.539972685936906"><ele>29.0</ele><time>2026-04-25T14:27:37Z</time></trkpt><trkpt lat="42.94463031403102" lon="10.540046961838282"><ele>29.0</ele><time>2026-04-25T14:27:39Z</time></trkpt><trkpt lat="42.94470757331059" lon="10.540198250366169"><ele>29.0</ele><time>2026-04-25T14:27:41Z</time></trkpt><trkpt lat="42.94475574465257" lon="10.54028326003842"><ele>29.0</ele><time>2026-04-25T14:27:42Z</time></trkpt><trkpt lat="42.944800798799676" lon="10.540361789862242"><ele>29.0</ele><time>2026-04-25T14:27:43Z</time></trkpt><trkpt lat="42.94484465414122" lon="10.540454399580037"><ele>29.0</ele><time>2026-04-25T14:27:44Z</time></trkpt><trkpt lat="42.94489408239666" lon="10.540550880487926"><ele>28.999999999999996</ele><time>2026-04-25T14:27:45Z</time></trkpt><trkpt lat="42.944941182933626" lon="10.5406383258576"><ele>29.0</ele><time>2026-04-25T14:27:46Z</time></trkpt><trkpt lat="42.94498556643409" lon="10.540711666648935"><ele>29.0</ele><time>2026-04-25T14:27:47Z</time></trkpt><trkpt lat="42.945036644453594" lon="10.540764814266577"><ele>29.0</ele><time>2026-04-25T14:27:48Z</time></trkpt><trkpt lat="42.94515278926535" lon="10.54082783245067"><ele>28.999999999999996</ele><time>2026-04-25T14:27:50Z</time></trkpt><trkpt lat="42.94522394106552" lon="10.54084806972473"><ele>29.0</ele><time>2026-04-25T14:27:51Z</time></trkpt><trkpt lat="42.94528998017481" lon="10.540860014711967"><ele>29.499999999999996</ele><time>2026-04-25T14:27:52Z</time></trkpt><trkpt lat="42.945381718852694" lon="10.540859134522872"><ele>30.0</ele><time>2026-04-25T14:27:54Z</time></trkpt><trkpt lat="42.945443763729166" lon="10.540795199823028"><ele>30.5</ele><time>2026-04-25T14:28:02Z</time></trkpt><trkpt lat="42.94554039444175" lon="10.540779887514725"><ele>31.0</ele><time>2026-04-25T14:28:04Z</time></trkpt><trkpt lat="42.94560350455362" lon="10.540808864593071"><ele>31.499999999999996</ele><time>2026-04-25T14:28:05Z</time></trkpt><trkpt lat="42.9456752275721" lon="10.540845022500791"><ele>32.0</ele><time>2026-04-25T14:28:06Z</time></trkpt><trkpt lat="42.94574026159164" lon="10.540889057656083"><ele>32.0</ele><time>2026-04-25T14:28:07Z</time></trkpt><trkpt lat="42.94582312265227" lon="10.54102170690191"><ele>32.0</ele><time>2026-04-25T14:28:09Z</time></trkpt><trkpt lat="42.94586474955161" lon="10.541099907003032"><ele>32.0</ele><time>2026-04-25T14:28:10Z</time></trkpt><trkpt lat="42.94595340182621" lon="10.541216525578385"><ele>32.0</ele><time>2026-04-25T14:28:12Z</time></trkpt><trkpt lat="42.94602109357963" lon="10.541237765437309"><ele>32.0</ele><time>2026-04-25T14:28:13Z</time></trkpt><trkpt lat="42.94609147639061" lon="10.541225450688094"><ele>30.999999999999996</ele><time>2026-04-25T14:28:14Z</time></trkpt><trkpt lat="42.946149547659466" lon="10.541174314647435"><ele>30.0</ele><time>2026-04-25T14:28:15Z</time></trkpt><trkpt lat="42.94619194353429" lon="10.541110359580415"><ele>29.0</ele><time>2026-04-25T14:28:16Z</time></trkpt><trkpt lat="42.946224587427" lon="10.541010732663874"><ele>28.0</ele><time>2026-04-25T14:28:17Z</time></trkpt><trkpt lat="42.946332984340096" lon="10.540919949436683"><ele>26.999999999999996</ele><time>2026-04-25T14:28:19Z</time></trkpt><trkpt lat="42.94640210375331" lon="10.540893678147981"><ele>26.0</ele><time>2026-04-25T14:28:20Z</time></trkpt><trkpt lat="42.94648441484891" lon="10.540896337133928"><ele>25.999999999999996</ele><time>2026-04-25T14:28:21Z</time></trkpt><trkpt lat="42.94657058993269" lon="10.540909549197597"><ele>26.0</ele><time>2026-04-25T14:28:22Z</time></trkpt><trkpt lat="42.946663909951404" lon="10.540920432919844"><ele>26.0</ele><time>2026-04-25T14:28:23Z</time></trkpt><trkpt lat="42.9467561592802" lon="10.5409241955901"><ele>26.0</ele><time>2026-04-25T14:28:24Z</time></trkpt><trkpt lat="42.94684191702965" lon="10.540912585883753"><ele>25.999999999999996</ele><time>2026-04-25T14:28:25Z</time></trkpt><trkpt lat="42.94692723744781" lon="10.540892243103405"><ele>26.0</ele><time>2026-04-25T14:28:26Z</time></trkpt><trkpt lat="42.94701359953113" lon="10.540860898294653"><ele>25.166666666666664</ele><time>2026-04-25T14:28:27Z</time></trkpt><trkpt lat="42.94709468274137" lon="10.540820689007663"><ele>24.333333333333332</ele><time>2026-04-25T14:28:28Z</time></trkpt><trkpt lat="42.94717718379219" lon="10.540769531410808"><ele>23.5</ele><time>2026-04-25T14:28:29Z</time></trkpt><trkpt lat="42.947252642844575" lon="10.54071986819321"><ele>22.666666666666664</ele><time>2026-04-25T14:28:30Z</time></trkpt><trkpt lat="42.94733461646321" lon="10.540674154625204"><ele>21.833333333333332</ele><time>2026-04-25T14:28:31Z</time></trkpt><trkpt lat="42.94741428063015" lon="10.54063510493745"><ele>21.0</ele><time>2026-04-25T14:28:32Z</time></trkpt><trkpt lat="42.94749209809941" lon="10.540596596577965"><ele>20.166666666666668</ele><time>2026-04-25T14:28:33Z</time></trkpt><trkpt lat="42.94756729018202" lon="10.54055714588795"><ele>19.333333333333332</ele><time>2026-04-25T14:28:34Z</time></trkpt><trkpt lat="42.94764587021267" lon="10.54051403252144"><ele>18.5</ele><time>2026-04-25T14:28:35Z</time></trkpt><trkpt lat="42.947731164111566" lon="10.54046411817957"><ele>17.666666666666664</ele><time>2026-04-25T14:28:36Z</time></trkpt><trkpt lat="42.94781803282096" lon="10.54041521476833"><ele>16.833333333333332</ele><time>2026-04-25T14:28:37Z</time></trkpt><trkpt lat="42.94790186589707" lon="10.54036622514295"><ele>16.0</ele><time>2026-04-25T14:28:38Z</time></trkpt><trkpt lat="42.94798519690609" lon="10.540315865436707"><ele>16.0</ele><time>2026-04-25T14:28:39Z</time></trkpt><trkpt lat="42.948081072931465" lon="10.540262453451602"><ele>16.0</ele><time>2026-04-25T14:28:40Z</time></trkpt><trkpt lat="42.94818473640292" lon="10.54021027292144"><ele>16.0</ele><time>2026-04-25T14:28:41Z</time></trkpt><trkpt lat="42.94830218241311" lon="10.540151093943377"><ele>16.0</ele><time>2026-04-25T14:28:42Z</time></trkpt><trkpt lat="42.94842563357622" lon="10.540089710283125"><ele>14.75</ele><time>2026-04-25T14:28:43Z</time></trkpt><trkpt lat="42.948548981803874" lon="10.54002993078749"><ele>13.5</ele><time>2026-04-25T14:28:44Z</time></trkpt><trkpt lat="42.94867302404372" lon="10.539977831830841"><ele>12.25</ele><time>2026-04-25T14:28:45Z</time></trkpt><trkpt lat="42.94880335983635" lon="10.539940577538069"><ele>11.0</ele><time>2026-04-25T14:28:46Z</time></trkpt><trkpt lat="42.94894181231457" lon="10.539912413899723"><ele>11.0</ele><time>2026-04-25T14:28:47Z</time></trkpt><trkpt lat="42.94908121834729" lon="10.539888111217044"><ele>11.0</ele><time>2026-04-25T14:28:48Z</time></trkpt><trkpt lat="42.94922442164694" lon="10.539863164992068"><ele>11.0</ele><time>2026-04-25T14:28:49Z</time></trkpt><trkpt lat="42.949359830123804" lon="10.539840144810023"><ele>11.0</ele><time>2026-04-25T14:28:50Z</time></trkpt><trkpt lat="42.949487692324894" lon="10.539812823579911"><ele>10.0</ele><time>2026-04-25T14:28:51Z</time></trkpt><trkpt lat="42.94961683107515" lon="10.539787619805841"><ele>9.0</ele><time>2026-04-25T14:28:52Z</time></trkpt><trkpt lat="42.949744356766146" lon="10.53976448261395"><ele>8.0</ele><time>2026-04-25T14:28:53Z</time></trkpt><trkpt lat="42.94986993795028" lon="10.539736135195065"><ele>7.0</ele><time>2026-04-25T14:28:54Z</time></trkpt><trkpt lat="42.949997343773205" lon="10.539713014406171"><ele>7.0</ele><time>2026-04-25T14:28:55Z</time></trkpt><trkpt lat="42.95012630310208" lon="10.539685932748142"><ele>7.0</ele><time>2026-04-25T14:28:56Z</time></trkpt><trkpt lat="42.9502531763802" lon="10.539663762400684"><ele>7.0</ele><time>2026-04-25T14:28:57Z</time></trkpt><trkpt lat="42.95038072659471" lon="10.539639614356773"><ele>7.0</ele><time>2026-04-25T14:28:58Z</time></trkpt><trkpt lat="42.95050798292713" lon="10.539615637736567"><ele>7.0</ele><time>2026-04-25T14:28:59Z</time></trkpt><trkpt lat="42.950638373030536" lon="10.53959283053285"><ele>7.0</ele><time>2026-04-25T14:29:00Z</time></trkpt><trkpt lat="42.950770856926" lon="10.539565251106657"><ele>7.0</ele><time>2026-04-25T14:29:01Z</time></trkpt><trkpt lat="42.9509071310333" lon="10.5395374077016"><ele>7.0</ele><time>2026-04-25T14:29:02Z</time></trkpt><trkpt lat="42.951051411380625" lon="10.539519464749757"><ele>7.75</ele><time>2026-04-25T14:29:03Z</time></trkpt><trkpt lat="42.95119835697715" lon="10.539491910509962"><ele>8.5</ele><time>2026-04-25T14:29:04Z</time></trkpt><trkpt lat="42.95134106326372" lon="10.539465007077643"><ele>9.25</ele><time>2026-04-25T14:29:05Z</time></trkpt><trkpt lat="42.95148293600737" lon="10.539438260801006"><ele>10.0</ele><time>2026-04-25T14:29:06Z</time></trkpt><trkpt lat="42.951625335377734" lon="10.53941131295495"><ele>9.5</ele><time>2026-04-25T14:29:07Z</time></trkpt><trkpt lat="42.95176977287735" lon="10.539383193929066"><ele>9.0</ele><time>2026-04-25T14:29:08Z</time></trkpt><trkpt lat="42.95191590994583" lon="10.5393547457435"><ele>8.5</ele><time>2026-04-25T14:29:09Z</time></trkpt><trkpt lat="42.95205189091516" lon="10.539324997756056"><ele>8.0</ele><time>2026-04-25T14:29:10Z</time></trkpt><trkpt lat="42.952177396287496" lon="10.539290566406203"><ele>8.0</ele><time>2026-04-25T14:29:11Z</time></trkpt><trkpt lat="42.9522824125228" lon="10.539225127346539"><ele>8.0</ele><time>2026-04-25T14:29:12Z</time></trkpt><trkpt lat="42.95238090877013" lon="10.539188093741426"><ele>8.0</ele><time>2026-04-25T14:29:13Z</time></trkpt><trkpt lat="42.952466224265514" lon="10.539163548631267"><ele>8.0</ele><time>2026-04-25T14:29:14Z</time></trkpt><trkpt lat="42.95255492375707" lon="10.53916162105013"><ele>8.0</ele><time>2026-04-25T14:29:15Z</time></trkpt><trkpt lat="42.95264755464791" lon="10.53917680856272"><ele>8.8</ele><time>2026-04-25T14:29:16Z</time></trkpt><trkpt lat="42.95273767197132" lon="10.539192139505218"><ele>9.600000000000001</ele><time>2026-04-25T14:29:17Z</time></trkpt><trkpt lat="42.952827089451674" lon="10.53918351585556"><ele>10.399999999999999</ele><time>2026-04-25T14:29:18Z</time></trkpt><trkpt lat="42.95291587777736" lon="10.539150587498515"><ele>11.2</ele><time>2026-04-25T14:29:19Z</time></trkpt><trkpt lat="42.95301170165981" lon="10.539095929740379"><ele>12.0</ele><time>2026-04-25T14:29:20Z</time></trkpt><trkpt lat="42.9531147580514" lon="10.539057711278357"><ele>12.0</ele><time>2026-04-25T14:29:21Z</time></trkpt><trkpt lat="42.95321027061356" lon="10.538988790243957"><ele>12.0</ele><time>2026-04-25T14:29:22Z</time></trkpt><trkpt lat="42.95334736384939" lon="10.539031228525621"><ele>12.0</ele><time>2026-04-25T14:29:23Z</time></trkpt><trkpt lat="42.9534731142678" lon="10.539030593620085"><ele>12.0</ele><time>2026-04-25T14:29:24Z</time></trkpt><trkpt lat="42.95359602597372" lon="10.539020610137433"><ele>14.0</ele><time>2026-04-25T14:29:25Z</time></trkpt><trkpt lat="42.953723580625976" lon="10.538999400900003"><ele>16.0</ele><time>2026-04-25T14:29:26Z</time></trkpt><trkpt lat="42.95385288654405" lon="10.538970802224453"><ele>18.0</ele><time>2026-04-25T14:29:27Z</time></trkpt><trkpt lat="42.953986404707294" lon="10.538930957979835"><ele>20.0</ele><time>2026-04-25T14:29:28Z</time></trkpt><trkpt lat="42.9541161921916" lon="10.53889416121454"><ele>23.0</ele><time>2026-04-25T14:29:29Z</time></trkpt><trkpt lat="42.95424563214775" lon="10.5388531425214"><ele>26.0</ele><time>2026-04-25T14:29:30Z</time></trkpt><trkpt lat="42.954375691765364" lon="10.538815009166088"><ele>29.0</ele><time>2026-04-25T14:29:31Z</time></trkpt><trkpt lat="42.954506275365915" lon="10.538774370048177"><ele>32.0</ele><time>2026-04-25T14:29:32Z</time></trkpt><trkpt lat="42.95464074101811" lon="10.538735281992375"><ele>30.75</ele><time>2026-04-25T14:29:33Z</time></trkpt><trkpt lat="42.9547823678068" lon="10.538686651951217"><ele>29.5</ele><time>2026-04-25T14:29:34Z</time></trkpt><trkpt lat="42.954922154641984" lon="10.538643469900546"><ele>28.25</ele><time>2026-04-25T14:29:35Z</time></trkpt><trkpt lat="42.955062228956514" lon="10.53860588688333"><ele>27.0</ele><time>2026-04-25T14:29:36Z</time></trkpt><trkpt lat="42.955199622248706" lon="10.538562610012235"><ele>25.75</ele><time>2026-04-25T14:29:37Z</time></trkpt><trkpt lat="42.955343245492536" lon="10.538516707345924"><ele>24.5</ele><time>2026-04-25T14:29:38Z</time></trkpt><trkpt lat="42.95548726198798" lon="10.538467642636176"><ele>23.25</ele><time>2026-04-25T14:29:39Z</time></trkpt><trkpt lat="42.95563088396754" lon="10.538426320817086"><ele>22.0</ele><time>2026-04-25T14:29:40Z</time></trkpt><trkpt lat="42.95577029495606" lon="10.538385539664445"><ele>20.25</ele><time>2026-04-25T14:29:41Z</time></trkpt><trkpt lat="42.95590320097017" lon="10.538351390493565"><ele>18.5</ele><time>2026-04-25T14:29:42Z</time></trkpt><trkpt lat="42.95603554173919" lon="10.53831259156371"><ele>16.75</ele><time>2026-04-25T14:29:43Z</time></trkpt><trkpt lat="42.9561744145251" lon="10.538269187921873"><ele>15.0</ele><time>2026-04-25T14:29:44Z</time></trkpt><trkpt lat="42.95632188927326" lon="10.538225075172008"><ele>15.0</ele><time>2026-04-25T14:29:45Z</time></trkpt><trkpt lat="42.95662524122692" lon="10.538136741475034"><ele>15.0</ele><time>2026-04-25T14:29:47Z</time></trkpt><trkpt lat="42.956771017177395" lon="10.538098427852184"><ele>13.75</ele><time>2026-04-25T14:29:48Z</time></trkpt><trkpt lat="42.9569131353242" lon="10.538055974488234"><ele>12.5</ele><time>2026-04-25T14:29:49Z</time></trkpt><trkpt lat="42.957042768820216" lon="10.53801374339634"><ele>11.25</ele><time>2026-04-25T14:29:50Z</time></trkpt><trkpt lat="42.9571506240659" lon="10.537983252048337"><ele>10.0</ele><time>2026-04-25T14:29:51Z</time></trkpt><trkpt lat="42.957259504256555" lon="10.5379575419509"><ele>10.0</ele><time>2026-04-25T14:29:52Z</time></trkpt><trkpt lat="42.95737310461541" lon="10.537940534420907"><ele>10.0</ele><time>2026-04-25T14:29:53Z</time></trkpt><trkpt lat="42.95747805700135" lon="10.537938023627573"><ele>10.0</ele><time>2026-04-25T14:29:54Z</time></trkpt><trkpt lat="42.95756986653307" lon="10.537955128747328"><ele>10.0</ele><time>2026-04-25T14:29:55Z</time></trkpt><trkpt lat="42.95764903549119" lon="10.53798291801945"><ele>10.0</ele><time>2026-04-25T14:29:56Z</time></trkpt><trkpt lat="42.95771623876304" lon="10.538036857595284"><ele>9.714285714285714</ele><time>2026-04-25T14:29:57Z</time></trkpt><trkpt lat="42.957780333410646" lon="10.538088463575601"><ele>9.428571428571429</ele><time>2026-04-25T14:29:58Z</time></trkpt><trkpt lat="42.957839470738776" lon="10.538121718944792"><ele>9.142857142857142</ele><time>2026-04-25T14:29:59Z</time></trkpt><trkpt lat="42.957903129241465" lon="10.538125460248006"><ele>8.857142857142858</ele><time>2026-04-25T14:30:00Z</time></trkpt><trkpt lat="42.957971376008366" lon="10.538123464835133"><ele>8.571428571428571</ele><time>2026-04-25T14:30:01Z</time></trkpt><trkpt lat="42.958040247317875" lon="10.538059014791905"><ele>8.285714285714285</ele><time>2026-04-25T14:30:02Z</time></trkpt><trkpt lat="42.958085081016826" lon="10.537949322833361"><ele>8.0</ele><time>2026-04-25T14:30:03Z</time></trkpt><trkpt lat="42.958149428137325" lon="10.53785613395714"><ele>8.0</ele><time>2026-04-25T14:30:04Z</time></trkpt><trkpt lat="42.95824265603804" lon="10.537774036977003"><ele>8.0</ele><time>2026-04-25T14:30:05Z</time></trkpt><trkpt lat="42.95836938992825" lon="10.537704121175269"><ele>8.0</ele><time>2026-04-25T14:30:06Z</time></trkpt><trkpt lat="42.95848125158407" lon="10.537667420551086"><ele>8.0</ele><time>2026-04-25T14:30:07Z</time></trkpt><trkpt lat="42.95859444625105" lon="10.537637602446372"><ele>7.75</ele><time>2026-04-25T14:30:08Z</time></trkpt><trkpt lat="42.9587023141936" lon="10.537608849098373"><ele>7.5</ele><time>2026-04-25T14:30:09Z</time></trkpt><trkpt lat="42.95881306947003" lon="10.53757557397115"><ele>7.25</ele><time>2026-04-25T14:30:10Z</time></trkpt><trkpt lat="42.958926084412354" lon="10.537551572348445"><ele>7.0</ele><time>2026-04-25T14:30:11Z</time></trkpt><trkpt lat="42.959043140963644" lon="10.537529576606154"><ele>7.0</ele><time>2026-04-25T14:30:12Z</time></trkpt><trkpt lat="42.95916354626675" lon="10.537501512412181"><ele>7.0</ele><time>2026-04-25T14:30:13Z</time></trkpt><trkpt lat="42.959282795049" lon="10.537474131375452"><ele>7.0</ele><time>2026-04-25T14:30:14Z</time></trkpt><trkpt lat="42.95940323032227" lon="10.53744363908168"><ele>7.0</ele><time>2026-04-25T14:30:15Z</time></trkpt><trkpt lat="42.95952177804748" lon="10.537418088240063"><ele>7.25</ele><time>2026-04-25T14:30:16Z</time></trkpt><trkpt lat="42.95964720645833" lon="10.537385887730158"><ele>7.5</ele><time>2026-04-25T14:30:17Z</time></trkpt><trkpt lat="42.95976937572167" lon="10.537365308548763"><ele>7.75</ele><time>2026-04-25T14:30:18Z</time></trkpt><trkpt lat="42.959879588528835" lon="10.537340325334569"><ele>8.0</ele><time>2026-04-25T14:30:19Z</time></trkpt><trkpt lat="42.95999086068161" lon="10.537318590010507"><ele>7.75</ele><time>2026-04-25T14:30:20Z</time></trkpt><trkpt lat="42.960105102357936" lon="10.537298588125969"><ele>7.5</ele><time>2026-04-25T14:30:21Z</time></trkpt><trkpt lat="42.96022576532961" lon="10.53727618021051"><ele>7.25</ele><time>2026-04-25T14:30:22Z</time></trkpt><trkpt lat="42.960352691353464" lon="10.537269413226236"><ele>7.0</ele><time>2026-04-25T14:30:23Z</time></trkpt><trkpt lat="42.96048401075287" lon="10.537271138517802"><ele>7.0</ele><time>2026-04-25T14:30:24Z</time></trkpt><trkpt lat="42.96061641915836" lon="10.537286653784006"><ele>7.0</ele><time>2026-04-25T14:30:25Z</time></trkpt><trkpt lat="42.9607469776359" lon="10.537310742875265"><ele>7.0</ele><time>2026-04-25T14:30:26Z</time></trkpt><trkpt lat="42.96086870630223" lon="10.537335441999076"><ele>7.0</ele><time>2026-04-25T14:30:27Z</time></trkpt><trkpt lat="42.96099419557944" lon="10.53735333245034"><ele>7.5</ele><time>2026-04-25T14:30:28Z</time></trkpt><trkpt lat="42.961120363112954" lon="10.53737741759276"><ele>8.0</ele><time>2026-04-25T14:30:29Z</time></trkpt><trkpt lat="42.961241829127374" lon="10.537403499476262"><ele>8.5</ele><time>2026-04-25T14:30:30Z</time></trkpt><trkpt lat="42.96135293269547" lon="10.537425979779487"><ele>9.0</ele><time>2026-04-25T14:30:31Z</time></trkpt><trkpt lat="42.96147017749549" lon="10.537444996258653"><ele>9.0</ele><time>2026-04-25T14:30:32Z</time></trkpt><trkpt lat="42.961593721917836" lon="10.537467701099954"><ele>9.0</ele><time>2026-04-25T14:30:33Z</time></trkpt><trkpt lat="42.96171598040714" lon="10.537492936398175"><ele>9.0</ele><time>2026-04-25T14:30:34Z</time></trkpt><trkpt lat="42.961843832869455" lon="10.537513253652852"><ele>9.0</ele><time>2026-04-25T14:30:35Z</time></trkpt><trkpt lat="42.96196941173179" lon="10.537538278240799"><ele>9.5</ele><time>2026-04-25T14:30:36Z</time></trkpt><trkpt lat="42.96208724681818" lon="10.537561390608172"><ele>10.0</ele><time>2026-04-25T14:30:37Z</time></trkpt><trkpt lat="42.96220189017043" lon="10.537586622180541"><ele>10.5</ele><time>2026-04-25T14:30:38Z</time></trkpt><trkpt lat="42.96232449387862" lon="10.537616789143257"><ele>11.0</ele><time>2026-04-25T14:30:39Z</time></trkpt><trkpt lat="42.962449670302114" lon="10.537646020008996"><ele>11.5</ele><time>2026-04-25T14:30:40Z</time></trkpt><trkpt lat="42.96257224629114" lon="10.537673403509432"><ele>12.0</ele><time>2026-04-25T14:30:41Z</time></trkpt><trkpt lat="42.96269340165815" lon="10.537697515376827"><ele>12.5</ele><time>2026-04-25T14:30:42Z</time></trkpt><trkpt lat="42.96281321391096" lon="10.537716970684103"><ele>13.0</ele><time>2026-04-25T14:30:43Z</time></trkpt><trkpt lat="42.962928111479634" lon="10.537736674491494"><ele>13.0</ele><time>2026-04-25T14:30:44Z</time></trkpt><trkpt lat="42.963047088038586" lon="10.53775963104145"><ele>13.0</ele><time>2026-04-25T14:30:45Z</time></trkpt><trkpt lat="42.96316686893822" lon="10.53778510997689"><ele>13.0</ele><time>2026-04-25T14:30:46Z</time></trkpt><trkpt lat="42.96328960343375" lon="10.537809339177391"><ele>13.0</ele><time>2026-04-25T14:30:47Z</time></trkpt><trkpt lat="42.963416888693295" lon="10.537832318943943"><ele>13.25</ele><time>2026-04-25T14:30:48Z</time></trkpt><trkpt lat="42.963536122875134" lon="10.537854038469415"><ele>13.5</ele><time>2026-04-25T14:30:49Z</time></trkpt><trkpt lat="42.96364971032068" lon="10.537877903508203"><ele>13.75</ele><time>2026-04-25T14:30:50Z</time></trkpt><trkpt lat="42.96375963673459" lon="10.537903724255676"><ele>14.0</ele><time>2026-04-25T14:30:51Z</time></trkpt><trkpt lat="42.963870667015286" lon="10.537934153280212"><ele>13.5</ele><time>2026-04-25T14:30:52Z</time></trkpt><trkpt lat="42.96398476537361" lon="10.537967365349777"><ele>13.0</ele><time>2026-04-25T14:30:53Z</time></trkpt><trkpt lat="42.964102581284884" lon="10.538010832550585"><ele>12.5</ele><time>2026-04-25T14:30:54Z</time></trkpt><trkpt lat="42.96422177438087" lon="10.538076020329045"><ele>12.0</ele><time>2026-04-25T14:30:55Z</time></trkpt><trkpt lat="42.964329699396714" lon="10.53816184231019"><ele>11.75</ele><time>2026-04-25T14:30:56Z</time></trkpt><trkpt lat="42.96443217024441" lon="10.538261861954656"><ele>11.5</ele><time>2026-04-25T14:30:57Z</time></trkpt><trkpt lat="42.964533708105094" lon="10.53836937104606"><ele>11.25</ele><time>2026-04-25T14:30:58Z</time></trkpt><trkpt lat="42.96462623993019" lon="10.538481784229026"><ele>11.0</ele><time>2026-04-25T14:30:59Z</time></trkpt><trkpt lat="42.96472659103255" lon="10.538580523750248"><ele>11.0</ele><time>2026-04-25T14:31:00Z</time></trkpt><trkpt lat="42.964780846073076" lon="10.538741874271086"><ele>11.0</ele><time>2026-04-25T14:31:01Z</time></trkpt><trkpt lat="42.96484857535607" lon="10.538881371152756"><ele>11.0</ele><time>2026-04-25T14:31:02Z</time></trkpt><trkpt lat="42.964910170338115" lon="10.539026306757703"><ele>11.0</ele><time>2026-04-25T14:31:03Z</time></trkpt><trkpt lat="42.96496702125215" lon="10.539176449141955"><ele>10.0</ele><time>2026-04-25T14:31:04Z</time></trkpt><trkpt lat="42.96503308861916" lon="10.539328516696576"><ele>9.0</ele><time>2026-04-25T14:31:05Z</time></trkpt><trkpt lat="42.965086236644765" lon="10.539482109644629"><ele>8.0</ele><time>2026-04-25T14:31:06Z</time></trkpt><trkpt lat="42.965144271617184" lon="10.539621938956246"><ele>7.0</ele><time>2026-04-25T14:31:07Z</time></trkpt><trkpt lat="42.965206442022605" lon="10.539768669533139"><ele>6.75</ele><time>2026-04-25T14:31:08Z</time></trkpt><trkpt lat="42.96527458746447" lon="10.539916189382534"><ele>6.5</ele><time>2026-04-25T14:31:09Z</time></trkpt><trkpt lat="42.96533757707646" lon="10.540064981856327"><ele>6.25</ele><time>2026-04-25T14:31:10Z</time></trkpt><trkpt lat="42.96541248266051" lon="10.540218620789526"><ele>6.0</ele><time>2026-04-25T14:31:11Z</time></trkpt><trkpt lat="42.9654776594771" lon="10.540370062321315"><ele>6.25</ele><time>2026-04-25T14:31:12Z</time></trkpt><trkpt lat="42.96553866133884" lon="10.54052114355621"><ele>6.5</ele><time>2026-04-25T14:31:13Z</time></trkpt><trkpt lat="42.965597828264514" lon="10.540664508608746"><ele>6.75</ele><time>2026-04-25T14:31:14Z</time></trkpt><trkpt lat="42.96565596702253" lon="10.54080864466244"><ele>7.0</ele><time>2026-04-25T14:31:15Z</time></trkpt><trkpt lat="42.96570893001935" lon="10.540961589791218"><ele>7.0</ele><time>2026-04-25T14:31:16Z</time></trkpt><trkpt lat="42.96576238967414" lon="10.541116367688968"><ele>7.0</ele><time>2026-04-25T14:31:17Z</time></trkpt><trkpt lat="42.96582173429517" lon="10.541275079793472"><ele>7.0</ele><time>2026-04-25T14:31:18Z</time></trkpt><trkpt lat="42.96587919305357" lon="10.541431574997926"><ele>7.0</ele><time>2026-04-25T14:31:19Z</time></trkpt><trkpt lat="42.965929454322385" lon="10.541593865108043"><ele>6.75</ele><time>2026-04-25T14:31:20Z</time></trkpt><trkpt lat="42.9659771179709" lon="10.541747468114513"><ele>6.5</ele><time>2026-04-25T14:31:21Z</time></trkpt><trkpt lat="42.96603280045776" lon="10.541901112686407"><ele>6.25</ele><time>2026-04-25T14:31:22Z</time></trkpt><trkpt lat="42.96607993330631" lon="10.542056766871216"><ele>6.0</ele><time>2026-04-25T14:31:23Z</time></trkpt><trkpt lat="42.966124016489296" lon="10.542209407458442"><ele>6.0</ele><time>2026-04-25T14:31:24Z</time></trkpt><trkpt lat="42.96617415379974" lon="10.54236632338201"><ele>6.0</ele><time>2026-04-25T14:31:25Z</time></trkpt><trkpt lat="42.9662208537266" lon="10.542523684528813"><ele>6.0</ele><time>2026-04-25T14:31:26Z</time></trkpt><trkpt lat="42.966271104029815" lon="10.542681057933654"><ele>6.0</ele><time>2026-04-25T14:31:27Z</time></trkpt><trkpt lat="42.96632001647615" lon="10.542842490268995"><ele>5.5</ele><time>2026-04-25T14:31:28Z</time></trkpt><trkpt lat="42.96636886905853" lon="10.543010450727918"><ele>5.0</ele><time>2026-04-25T14:31:29Z</time></trkpt><trkpt lat="42.966411210275695" lon="10.543167004450906"><ele>4.5</ele><time>2026-04-25T14:31:30Z</time></trkpt><trkpt lat="42.96645643983775" lon="10.54331376768344"><ele>4.0</ele><time>2026-04-25T14:31:31Z</time></trkpt><trkpt lat="42.966502918843695" lon="10.54345935608999"><ele>4.0</ele><time>2026-04-25T14:31:32Z</time></trkpt><trkpt lat="42.96654815958885" lon="10.543615451516526"><ele>4.0</ele><time>2026-04-25T14:31:33Z</time></trkpt><trkpt lat="42.966588636353514" lon="10.543794442501808"><ele>4.0</ele><time>2026-04-25T14:31:34Z</time></trkpt><trkpt lat="42.966625613807274" lon="10.543960754135618"><ele>4.0</ele><time>2026-04-25T14:31:35Z</time></trkpt><trkpt lat="42.966660942129565" lon="10.544123174888364"><ele>4.0</ele><time>2026-04-25T14:31:36Z</time></trkpt><trkpt lat="42.9666852141363" lon="10.544279307222109"><ele>4.0</ele><time>2026-04-25T14:31:37Z</time></trkpt><trkpt lat="42.96671144187355" lon="10.544431905856696"><ele>4.0</ele><time>2026-04-25T14:31:38Z</time></trkpt><trkpt lat="42.96673873523683" lon="10.544590133217607"><ele>4.0</ele><time>2026-04-25T14:31:39Z</time></trkpt><trkpt lat="42.96676332654834" lon="10.544756954402525"><ele>3.5</ele><time>2026-04-25T14:31:40Z</time></trkpt><trkpt lat="42.96678804897189" lon="10.5449289293673"><ele>3.0</ele><time>2026-04-25T14:31:41Z</time></trkpt><trkpt lat="42.966796076710885" lon="10.545109807345671"><ele>2.5</ele><time>2026-04-25T14:31:42Z</time></trkpt><trkpt lat="42.96682515297133" lon="10.545290883479199"><ele>2.0</ele><time>2026-04-25T14:31:43Z</time></trkpt><trkpt lat="42.96685167241966" lon="10.545479902652417"><ele>2.0</ele><time>2026-04-25T14:31:44Z</time></trkpt><trkpt lat="42.966879170037494" lon="10.545681266337526"><ele>2.0</ele><time>2026-04-25T14:31:45Z</time></trkpt><trkpt lat="42.96690740570429" lon="10.545886367600056"><ele>2.0</ele><time>2026-04-25T14:31:46Z</time></trkpt><trkpt lat="42.966934699684195" lon="10.546099156315526"><ele>2.333333333333333</ele><time>2026-04-25T14:31:47Z</time></trkpt><trkpt lat="42.96696175347861" lon="10.546313796666965"><ele>2.6666666666666665</ele><time>2026-04-25T14:31:48Z</time></trkpt><trkpt lat="42.96698966816665" lon="10.546531498261558"><ele>3.0</ele><time>2026-04-25T14:31:49Z</time></trkpt><trkpt lat="42.96701805624223" lon="10.546749693179448"><ele>3.0</ele><time>2026-04-25T14:31:50Z</time></trkpt><trkpt lat="42.96704788308605" lon="10.546969862278926"><ele>3.0</ele><time>2026-04-25T14:31:51Z</time></trkpt><trkpt lat="42.967078766491504" lon="10.54719174924893"><ele>3.0</ele><time>2026-04-25T14:31:52Z</time></trkpt><trkpt lat="42.96710847154773" lon="10.54740874838296"><ele>3.0</ele><time>2026-04-25T14:31:53Z</time></trkpt><trkpt lat="42.96713866811436" lon="10.547608925402226"><ele>3.0</ele><time>2026-04-25T14:31:54Z</time></trkpt><trkpt lat="42.96716351831121" lon="10.547802555934451"><ele>3.0</ele><time>2026-04-25T14:31:55Z</time></trkpt><trkpt lat="42.967186928720935" lon="10.54799535010415"><ele>3.0</ele><time>2026-04-25T14:31:56Z</time></trkpt><trkpt lat="42.967207845209145" lon="10.548188448905993"><ele>2.75</ele><time>2026-04-25T14:31:57Z</time></trkpt><trkpt lat="42.967231290201084" lon="10.54838443736032"><ele>2.5</ele><time>2026-04-25T14:31:58Z</time></trkpt><trkpt lat="42.967259145374875" lon="10.548580589875339"><ele>2.25</ele><time>2026-04-25T14:31:59Z</time></trkpt><trkpt lat="42.96728973465294" lon="10.54878401756857"><ele>2.0</ele><time>2026-04-25T14:32:00Z</time></trkpt><trkpt lat="42.96731715213032" lon="10.548983823899245"><ele>2.0</ele><time>2026-04-25T14:32:01Z</time></trkpt><trkpt lat="42.96734426270784" lon="10.549182130693609"><ele>2.0</ele><time>2026-04-25T14:32:02Z</time></trkpt><trkpt lat="42.96736933605446" lon="10.549389853798148"><ele>2.0</ele><time>2026-04-25T14:32:03Z</time></trkpt><trkpt lat="42.967395959673986" lon="10.54959616694268"><ele>2.0</ele><time>2026-04-25T14:32:04Z</time></trkpt><trkpt lat="42.96742339120214" lon="10.549802914610249"><ele>2.0</ele><time>2026-04-25T14:32:05Z</time></trkpt><trkpt lat="42.96745310684891" lon="10.55001010218623"><ele>2.0</ele><time>2026-04-25T14:32:06Z</time></trkpt><trkpt lat="42.96748039189932" lon="10.55021703795169"><ele>2.25</ele><time>2026-04-25T14:32:07Z</time></trkpt><trkpt lat="42.967505165584136" lon="10.550413930425572"><ele>2.5</ele><time>2026-04-25T14:32:08Z</time></trkpt><trkpt lat="42.96752912477372" lon="10.55060321279532"><ele>2.75</ele><time>2026-04-25T14:32:09Z</time></trkpt><trkpt lat="42.967553627606726" lon="10.550794066765544"><ele>3.0</ele><time>2026-04-25T14:32:10Z</time></trkpt><trkpt lat="42.96757687553019" lon="10.550988686563741"><ele>3.0</ele><time>2026-04-25T14:32:11Z</time></trkpt><trkpt lat="42.96760106694804" lon="10.551186477163709"><ele>3.0</ele><time>2026-04-25T14:32:12Z</time></trkpt><trkpt lat="42.96762523396812" lon="10.55138016907744"><ele>3.0</ele><time>2026-04-25T14:32:13Z</time></trkpt><trkpt lat="42.96764974990519" lon="10.551560019001096"><ele>3.0</ele><time>2026-04-25T14:32:14Z</time></trkpt><trkpt lat="42.967681485242856" lon="10.55173527347653"><ele>2.75</ele><time>2026-04-25T14:32:15Z</time></trkpt><trkpt lat="42.96770544036324" lon="10.551913104655046"><ele>2.5</ele><time>2026-04-25T14:32:16Z</time></trkpt><trkpt lat="42.9677300962148" lon="10.552103410841513"><ele>2.25</ele><time>2026-04-25T14:32:17Z</time></trkpt><trkpt lat="42.967754039345394" lon="10.55229133102002"><ele>2.0</ele><time>2026-04-25T14:32:18Z</time></trkpt><trkpt lat="42.96777783128838" lon="10.552487131701168"><ele>2.0</ele><time>2026-04-25T14:32:19Z</time></trkpt><trkpt lat="42.96779990065173" lon="10.552665560338635"><ele>2.0</ele><time>2026-04-25T14:32:20Z</time></trkpt><trkpt lat="42.967819502019054" lon="10.552822848943755"><ele>2.0</ele><time>2026-04-25T14:32:21Z</time></trkpt><trkpt lat="42.967847608677495" lon="10.552975722646996"><ele>2.0</ele><time>2026-04-25T14:32:22Z</time></trkpt><trkpt lat="42.96787456160279" lon="10.553129843264042"><ele>2.0</ele><time>2026-04-25T14:32:23Z</time></trkpt><trkpt lat="42.96790470399491" lon="10.553282426927327"><ele>2.0</ele><time>2026-04-25T14:32:24Z</time></trkpt><trkpt lat="42.96793269001912" lon="10.553437345633625"><ele>2.0</ele><time>2026-04-25T14:32:25Z</time></trkpt><trkpt lat="42.96796423791649" lon="10.55357941528711"><ele>2.0</ele><time>2026-04-25T14:32:26Z</time></trkpt><trkpt lat="42.967989069315564" lon="10.553705740271027"><ele>2.0</ele><time>2026-04-25T14:32:27Z</time></trkpt><trkpt lat="42.96801008010907" lon="10.553810785525652"><ele>2.0</ele><time>2026-04-25T14:32:28Z</time></trkpt><trkpt lat="42.96802454269692" lon="10.553897528711108"><ele>2.0</ele><time>2026-04-25T14:32:29Z</time></trkpt><trkpt lat="42.96800616118724" lon="10.5540626234846"><ele>2.0</ele><time>2026-04-25T14:32:31Z</time></trkpt><trkpt lat="42.96798450922565" lon="10.55415083542503"><ele>2.0</ele><time>2026-04-25T14:32:32Z</time></trkpt><trkpt lat="42.9679588785325" lon="10.554302277616186"><ele>2.0</ele><time>2026-04-25T14:32:34Z</time></trkpt><trkpt lat="42.967995148442604" lon="10.554436299126554"><ele>1.9999999999999998</ele><time>2026-04-25T14:32:36Z</time></trkpt><trkpt lat="42.96807651858709" lon="10.55452066413534"><ele>2.0</ele><time>2026-04-25T14:32:38Z</time></trkpt><trkpt lat="42.968137349158795" lon="10.554554716405502"><ele>2.0</ele><time>2026-04-25T14:32:39Z</time></trkpt><trkpt lat="42.96821291821457" lon="10.554589813472967"><ele>2.0</ele><time>2026-04-25T14:32:40Z</time></trkpt><trkpt lat="42.96829422976642" lon="10.55463131742827"><ele>1.9999999999999998</ele><time>2026-04-25T14:32:41Z</time></trkpt><trkpt lat="42.96838422056956" lon="10.55467904647515"><ele>2.0</ele><time>2026-04-25T14:32:42Z</time></trkpt><trkpt lat="42.968475759656705" lon="10.55473103197847"><ele>2.25</ele><time>2026-04-25T14:32:43Z</time></trkpt><trkpt lat="42.968566299650334" lon="10.554788876801908"><ele>2.5</ele><time>2026-04-25T14:32:44Z</time></trkpt><trkpt lat="42.96866953921739" lon="10.554851852477126"><ele>2.75</ele><time>2026-04-25T14:32:45Z</time></trkpt><trkpt lat="42.968789299623275" lon="10.554918665472863"><ele>3.0</ele><time>2026-04-25T14:32:46Z</time></trkpt><trkpt lat="42.96890802980098" lon="10.55498762747462"><ele>3.0</ele><time>2026-04-25T14:32:47Z</time></trkpt><trkpt lat="42.969032404711" lon="10.555057410835238"><ele>3.0</ele><time>2026-04-25T14:32:48Z</time></trkpt><trkpt lat="42.96916110698412" lon="10.555129479010624"><ele>3.0</ele><time>2026-04-25T14:32:49Z</time></trkpt><trkpt lat="42.969289780626085" lon="10.55520867910404"><ele>3.0</ele><time>2026-04-25T14:32:50Z</time></trkpt><trkpt lat="42.96942533808165" lon="10.555283235402337"><ele>2.75</ele><time>2026-04-25T14:32:51Z</time></trkpt><trkpt lat="42.96956211070837" lon="10.55535556807443"><ele>2.5</ele><time>2026-04-25T14:32:52Z</time></trkpt><trkpt lat="42.96969546714908" lon="10.555429882189232"><ele>2.25</ele><time>2026-04-25T14:32:53Z</time></trkpt><trkpt lat="42.96981900875335" lon="10.555502210265916"><ele>2.0</ele><time>2026-04-25T14:32:54Z</time></trkpt><trkpt lat="42.969945088557544" lon="10.555572741769607"><ele>2.0</ele><time>2026-04-25T14:32:55Z</time></trkpt><trkpt lat="42.97007956178946" lon="10.555649789861162"><ele>2.0</ele><time>2026-04-25T14:32:56Z</time></trkpt><trkpt lat="42.9702181959556" lon="10.555727166023644"><ele>2.0</ele><time>2026-04-25T14:32:57Z</time></trkpt><trkpt lat="42.970359605426786" lon="10.555808781635239"><ele>2.0</ele><time>2026-04-25T14:32:58Z</time></trkpt><trkpt lat="42.970495792058806" lon="10.55588662073013"><ele>2.0</ele><time>2026-04-25T14:32:59Z</time></trkpt><trkpt lat="42.97062888054716" lon="10.555963042574232"><ele>2.0</ele><time>2026-04-25T14:33:00Z</time></trkpt><trkpt lat="42.9707635227593" lon="10.556040766120823"><ele>2.0</ele><time>2026-04-25T14:33:01Z</time></trkpt><trkpt lat="42.97090315785165" lon="10.556118602153473"><ele>2.0</ele><time>2026-04-25T14:33:02Z</time></trkpt><trkpt lat="42.97103882818384" lon="10.556197046119918"><ele>2.0</ele><time>2026-04-25T14:33:03Z</time></trkpt><trkpt lat="42.9711776832001" lon="10.55627777431702"><ele>2.0</ele><time>2026-04-25T14:33:04Z</time></trkpt><trkpt lat="42.97131589655823" lon="10.556360103895011"><ele>2.0</ele><time>2026-04-25T14:33:05Z</time></trkpt><trkpt lat="42.97146086811905" lon="10.556441640197168"><ele>2.0</ele><time>2026-04-25T14:33:06Z</time></trkpt><trkpt lat="42.9716082940286" lon="10.556527020032792"><ele>2.0</ele><time>2026-04-25T14:33:07Z</time></trkpt><trkpt lat="42.971756073682904" lon="10.556614433536282"><ele>2.0</ele><time>2026-04-25T14:33:08Z</time></trkpt><trkpt lat="42.97190525903939" lon="10.556700094655524"><ele>2.0</ele><time>2026-04-25T14:33:09Z</time></trkpt><trkpt lat="42.97205955841786" lon="10.556786547209878"><ele>2.0</ele><time>2026-04-25T14:33:10Z</time></trkpt><trkpt lat="42.972215819313085" lon="10.556877615182868"><ele>2.0</ele><time>2026-04-25T14:33:11Z</time></trkpt><trkpt lat="42.97238068666695" lon="10.556967900648557"><ele>1.6666666666666665</ele><time>2026-04-25T14:33:12Z</time></trkpt><trkpt lat="42.97254552394821" lon="10.557063769910313"><ele>1.3333333333333333</ele><time>2026-04-25T14:33:13Z</time></trkpt><trkpt lat="42.97271061707438" lon="10.557160885668528"><ele>1.0</ele><time>2026-04-25T14:33:14Z</time></trkpt><trkpt lat="42.97287362388224" lon="10.557256185494376"><ele>1.0</ele><time>2026-04-25T14:33:15Z</time></trkpt><trkpt lat="42.97303884831398" lon="10.557348989888641"><ele>1.0</ele><time>2026-04-25T14:33:16Z</time></trkpt><trkpt lat="42.973203359901234" lon="10.557437075587833"><ele>1.0</ele><time>2026-04-25T14:33:17Z</time></trkpt><trkpt lat="42.9733683666535" lon="10.557524516986167"><ele>1.6666666666666665</ele><time>2026-04-25T14:33:18Z</time></trkpt><trkpt lat="42.97352588857683" lon="10.557605418407103"><ele>2.3333333333333335</ele><time>2026-04-25T14:33:19Z</time></trkpt><trkpt lat="42.97367773293413" lon="10.55768259260607"><ele>3.0</ele><time>2026-04-25T14:33:20Z</time></trkpt><trkpt lat="42.97382646039216" lon="10.557754344111117"><ele>3.0</ele><time>2026-04-25T14:33:21Z</time></trkpt><trkpt lat="42.97397737965689" lon="10.557830581790617"><ele>3.0</ele><time>2026-04-25T14:33:22Z</time></trkpt><trkpt lat="42.974134170834645" lon="10.55790913812394"><ele>3.0</ele><time>2026-04-25T14:33:23Z</time></trkpt><trkpt lat="42.97429128474138" lon="10.557985692471407"><ele>3.333333333333333</ele><time>2026-04-25T14:33:24Z</time></trkpt><trkpt lat="42.97445363608113" lon="10.558061122725745"><ele>3.6666666666666665</ele><time>2026-04-25T14:33:25Z</time></trkpt><trkpt lat="42.97461372583469" lon="10.558136469932471"><ele>4.0</ele><time>2026-04-25T14:33:26Z</time></trkpt><trkpt lat="42.97477800572346" lon="10.558208810223176"><ele>4.0</ele><time>2026-04-25T14:33:27Z</time></trkpt><trkpt lat="42.974937078490264" lon="10.558278618609844"><ele>4.0</ele><time>2026-04-25T14:33:28Z</time></trkpt><trkpt lat="42.97509819188524" lon="10.558344600585043"><ele>4.0</ele><time>2026-04-25T14:33:29Z</time></trkpt><trkpt lat="42.97525853658076" lon="10.558410306447941"><ele>3.333333333333333</ele><time>2026-04-25T14:33:30Z</time></trkpt><trkpt lat="42.97541680060834" lon="10.558478869447114"><ele>2.6666666666666665</ele><time>2026-04-25T14:33:31Z</time></trkpt><trkpt lat="42.975575998438146" lon="10.55854759760601"><ele>2.0</ele><time>2026-04-25T14:33:32Z</time></trkpt><trkpt lat="42.975733268391814" lon="10.558616920462436"><ele>2.333333333333333</ele><time>2026-04-25T14:33:33Z</time></trkpt><trkpt lat="42.97589692024024" lon="10.558681902836819"><ele>2.6666666666666665</ele><time>2026-04-25T14:33:34Z</time></trkpt><trkpt lat="42.97605856092304" lon="10.55874490306928"><ele>3.0</ele><time>2026-04-25T14:33:35Z</time></trkpt><trkpt lat="42.97621833945568" lon="10.55881036563336"><ele>3.0</ele><time>2026-04-25T14:33:36Z</time></trkpt><trkpt lat="42.976377228800544" lon="10.5588769983337"><ele>3.0</ele><time>2026-04-25T14:33:37Z</time></trkpt><trkpt lat="42.976533649634014" lon="10.558941649127505"><ele>3.0</ele><time>2026-04-25T14:33:38Z</time></trkpt><trkpt lat="42.97668706826747" lon="10.559004466628423"><ele>3.0</ele><time>2026-04-25T14:33:39Z</time></trkpt><trkpt lat="42.97685209511905" lon="10.55906608595666"><ele>3.0</ele><time>2026-04-25T14:33:40Z</time></trkpt><trkpt lat="42.977009275694" lon="10.559129312041293"><ele>3.0</ele><time>2026-04-25T14:33:41Z</time></trkpt><trkpt lat="42.97716701491542" lon="10.559194958502628"><ele>3.0</ele><time>2026-04-25T14:33:42Z</time></trkpt><trkpt lat="42.97732395888165" lon="10.559257756671784"><ele>3.0</ele><time>2026-04-25T14:33:43Z</time></trkpt><trkpt lat="42.97748649020315" lon="10.55932034512632"><ele>3.0</ele><time>2026-04-25T14:33:44Z</time></trkpt><trkpt lat="42.97765453080486" lon="10.55938259013081"><ele>2.6666666666666665</ele><time>2026-04-25T14:33:45Z</time></trkpt><trkpt lat="42.97782143156501" lon="10.559446417602993"><ele>2.333333333333333</ele><time>2026-04-25T14:33:46Z</time></trkpt><trkpt lat="42.97798744461037" lon="10.55951130583272"><ele>2.0</ele><time>2026-04-25T14:33:47Z</time></trkpt><trkpt lat="42.978150052466034" lon="10.559572831159105"><ele>2.0</ele><time>2026-04-25T14:33:48Z</time></trkpt><trkpt lat="42.97831679972546" lon="10.559633990897025"><ele>2.0</ele><time>2026-04-25T14:33:49Z</time></trkpt><trkpt lat="42.978479048463875" lon="10.559697554549853"><ele>2.0</ele><time>2026-04-25T14:33:50Z</time></trkpt><trkpt lat="42.97864801436286" lon="10.55976306412213"><ele>2.0</ele><time>2026-04-25T14:33:51Z</time></trkpt><trkpt lat="42.978816772630836" lon="10.559827368523672"><ele>2.0</ele><time>2026-04-25T14:33:52Z</time></trkpt><trkpt lat="42.9789858999418" lon="10.559896525416033"><ele>2.0</ele><time>2026-04-25T14:33:53Z</time></trkpt><trkpt lat="42.97915431428672" lon="10.559960060276662"><ele>2.0</ele><time>2026-04-25T14:33:54Z</time></trkpt><trkpt lat="42.97932600121615" lon="10.560026607628636"><ele>2.0</ele><time>2026-04-25T14:33:55Z</time></trkpt><trkpt lat="42.97949969263942" lon="10.560093646111735"><ele>2.0</ele><time>2026-04-25T14:33:56Z</time></trkpt><trkpt lat="42.979673413356096" lon="10.560161654329706"><ele>2.0</ele><time>2026-04-25T14:33:57Z</time></trkpt><trkpt lat="42.97984798105144" lon="10.560227849526472"><ele>2.0</ele><time>2026-04-25T14:33:58Z</time></trkpt><trkpt lat="42.98001942182299" lon="10.560295572632414"><ele>2.0</ele><time>2026-04-25T14:33:59Z</time></trkpt><trkpt lat="42.980192139842245" lon="10.560365518490658"><ele>2.333333333333333</ele><time>2026-04-25T14:34:00Z</time></trkpt><trkpt lat="42.980364752164576" lon="10.560433450910637"><ele>2.6666666666666665</ele><time>2026-04-25T14:34:01Z</time></trkpt><trkpt lat="42.98053982868589" lon="10.56050035406417"><ele>3.0</ele><time>2026-04-25T14:34:02Z</time></trkpt><trkpt lat="42.98071155559876" lon="10.56056920189232"><ele>2.3333333333333335</ele><time>2026-04-25T14:34:03Z</time></trkpt><trkpt lat="42.98088660974764" lon="10.560638043143205"><ele>1.6666666666666665</ele><time>2026-04-25T14:34:04Z</time></trkpt><trkpt lat="42.981066863628634" lon="10.560697319038606"><ele>1.0</ele><time>2026-04-25T14:34:05Z</time></trkpt><trkpt lat="42.98124446146919" lon="10.560767774045118"><ele>1.0</ele><time>2026-04-25T14:34:06Z</time></trkpt><trkpt lat="42.98142226406713" lon="10.56084183135046"><ele>1.0</ele><time>2026-04-25T14:34:07Z</time></trkpt><trkpt lat="42.98159860360848" lon="10.560920979717629"><ele>1.0</ele><time>2026-04-25T14:34:08Z</time></trkpt><trkpt lat="42.98177648145238" lon="10.56099505528513"><ele>0.6666666666666666</ele><time>2026-04-25T14:34:09Z</time></trkpt><trkpt lat="42.98195715834763" lon="10.56107267962353"><ele>0.3333333333333333</ele><time>2026-04-25T14:34:10Z</time></trkpt><trkpt lat="42.98213951690468" lon="10.561155723585703"><ele>0.0</ele><time>2026-04-25T14:34:11Z</time></trkpt><trkpt lat="42.98232028029959" lon="10.56124193576946"><ele>0.6666666666666666</ele><time>2026-04-25T14:34:12Z</time></trkpt><trkpt lat="42.98250229084394" lon="10.561333249671874"><ele>1.3333333333333333</ele><time>2026-04-25T14:34:13Z</time></trkpt><trkpt lat="42.98268328775575" lon="10.56143362104858"><ele>2.0</ele><time>2026-04-25T14:34:14Z</time></trkpt><trkpt lat="42.98286458935234" lon="10.561538690876674"><ele>2.0</ele><time>2026-04-25T14:34:15Z</time></trkpt><trkpt lat="42.98304852403567" lon="10.561645630715585"><ele>2.0</ele><time>2026-04-25T14:34:16Z</time></trkpt><trkpt lat="42.983233206646325" lon="10.561756589702867"><ele>2.0</ele><time>2026-04-25T14:34:17Z</time></trkpt><trkpt lat="42.98341555682032" lon="10.561874131484517"><ele>2.0</ele><time>2026-04-25T14:34:18Z</time></trkpt><trkpt lat="42.98359280298951" lon="10.561991392655179"><ele>2.0</ele><time>2026-04-25T14:34:19Z</time></trkpt><trkpt lat="42.98376737062103" lon="10.562115514591728"><ele>2.0</ele><time>2026-04-25T14:34:20Z</time></trkpt><trkpt lat="42.983938312872105" lon="10.562239247431615"><ele>2.333333333333333</ele><time>2026-04-25T14:34:21Z</time></trkpt><trkpt lat="42.98410117858656" lon="10.562368345702012"><ele>2.6666666666666665</ele><time>2026-04-25T14:34:22Z</time></trkpt><trkpt lat="42.98426255293292" lon="10.562498258626238"><ele>3.0</ele><time>2026-04-25T14:34:23Z</time></trkpt><trkpt lat="42.98442237193096" lon="10.562624141302638"><ele>3.0</ele><time>2026-04-25T14:34:24Z</time></trkpt><trkpt lat="42.984578123236886" lon="10.562753589172404"><ele>3.0</ele><time>2026-04-25T14:34:25Z</time></trkpt><trkpt lat="42.984732099391515" lon="10.562884450837087"><ele>3.0</ele><time>2026-04-25T14:34:26Z</time></trkpt><trkpt lat="42.98488711643936" lon="10.563016920154224"><ele>2.6666666666666665</ele><time>2026-04-25T14:34:27Z</time></trkpt><trkpt lat="42.98504086616036" lon="10.563151277703303"><ele>2.333333333333333</ele><time>2026-04-25T14:34:28Z</time></trkpt><trkpt lat="42.98518401397035" lon="10.563281615870547"><ele>2.0</ele><time>2026-04-25T14:34:29Z</time></trkpt><trkpt lat="42.98533685082414" lon="10.56342599090922"><ele>2.0</ele><time>2026-04-25T14:34:30Z</time></trkpt><trkpt lat="42.985487288489686" lon="10.563579240193391"><ele>2.0</ele><time>2026-04-25T14:34:31Z</time></trkpt><trkpt lat="42.985635292453125" lon="10.563735062225144"><ele>2.0</ele><time>2026-04-25T14:34:32Z</time></trkpt><trkpt lat="42.98578164565444" lon="10.56389456380123"><ele>2.0</ele><time>2026-04-25T14:34:33Z</time></trkpt><trkpt lat="42.985924142143155" lon="10.56405572633346"><ele>2.0</ele><time>2026-04-25T14:34:34Z</time></trkpt><trkpt lat="42.98606009816427" lon="10.564218536162723"><ele>2.0</ele><time>2026-04-25T14:34:35Z</time></trkpt><trkpt lat="42.98619907559115" lon="10.564379552295813"><ele>1.3333333333333333</ele><time>2026-04-25T14:34:36Z</time></trkpt><trkpt lat="42.986329239198646" lon="10.564545031378719"><ele>0.6666666666666666</ele><time>2026-04-25T14:34:37Z</time></trkpt><trkpt lat="42.98645578307263" lon="10.564712128232076"><ele>0.0</ele><time>2026-04-25T14:34:38Z</time></trkpt><trkpt lat="42.98658167826561" lon="10.564887655627189"><ele>0.0</ele><time>2026-04-25T14:34:39Z</time></trkpt><trkpt lat="42.98670597085134" lon="10.565066635822005"><ele>0.0</ele><time>2026-04-25T14:34:40Z</time></trkpt><trkpt lat="42.986828417984114" lon="10.565253017337081"><ele>0.0</ele><time>2026-04-25T14:34:41Z</time></trkpt><trkpt lat="42.98695313254524" lon="10.565439816982524"><ele>0.0</ele><time>2026-04-25T14:34:42Z</time></trkpt><trkpt lat="42.987076824810124" lon="10.565631480881121"><ele>0.0</ele><time>2026-04-25T14:34:43Z</time></trkpt><trkpt lat="42.987196094265215" lon="10.56582620571364"><ele>0.0</ele><time>2026-04-25T14:34:44Z</time></trkpt><trkpt lat="42.98732020874626" lon="10.566024157643596"><ele>0.3333333333333333</ele><time>2026-04-25T14:34:45Z</time></trkpt><trkpt lat="42.98743737872049" lon="10.566218226722288"><ele>0.6666666666666666</ele><time>2026-04-25T14:34:46Z</time></trkpt><trkpt lat="42.98755216119746" lon="10.56640487930516"><ele>1.0</ele><time>2026-04-25T14:34:47Z</time></trkpt><trkpt lat="42.98765689309891" lon="10.566586597675188"><ele>0.6666666666666666</ele><time>2026-04-25T14:34:48Z</time></trkpt><trkpt lat="42.9877626966426" lon="10.56676266669498"><ele>0.3333333333333333</ele><time>2026-04-25T14:34:49Z</time></trkpt><trkpt lat="42.98785996026102" lon="10.566926539640244"><ele>0.0</ele><time>2026-04-25T14:34:50Z</time></trkpt><trkpt lat="42.98794627393201" lon="10.56707688660223"><ele>0.0</ele><time>2026-04-25T14:34:51Z</time></trkpt><trkpt lat="42.98802345221943" lon="10.567216803263243"><ele>0.0</ele><time>2026-04-25T14:34:52Z</time></trkpt><trkpt lat="42.988092394389895" lon="10.567343518217394"><ele>0.0</ele><time>2026-04-25T14:34:53Z</time></trkpt><trkpt lat="42.988152626148775" lon="10.567466504309689"><ele>0.0</ele><time>2026-04-25T14:34:54Z</time></trkpt><trkpt lat="42.988203837918235" lon="10.567581762576655"><ele>0.0</ele><time>2026-04-25T14:34:55Z</time></trkpt><trkpt lat="42.98825598347579" lon="10.567687470020594"><ele>0.0</ele><time>2026-04-25T14:34:56Z</time></trkpt><trkpt lat="42.98831815146752" lon="10.567762234389926"><ele>0.0</ele><time>2026-04-25T14:34:57Z</time></trkpt><trkpt lat="42.98835096411126" lon="10.567855734772277"><ele>0.0</ele><time>2026-04-25T14:34:58Z</time></trkpt><trkpt lat="42.98841290461868" lon="10.56793101343762"><ele>0.0</ele><time>2026-04-25T14:35:00Z</time></trkpt><trkpt lat="42.988447350618614" lon="10.568020548497177"><ele>0.0</ele><time>2026-04-25T14:37:23Z</time></trkpt><trkpt lat="42.98849477373134" lon="10.568079130700644"><ele>0.4</ele><time>2026-04-25T14:37:24Z</time></trkpt><trkpt lat="42.98854398245214" lon="10.568149775617831"><ele>0.8</ele><time>2026-04-25T14:37:25Z</time></trkpt><trkpt lat="42.988604227606295" lon="10.568238539006042"><ele>1.2000000000000002</ele><time>2026-04-25T14:37:26Z</time></trkpt><trkpt lat="42.98867112283246" lon="10.56835230521521"><ele>1.6</ele><time>2026-04-25T14:37:27Z</time></trkpt><trkpt lat="42.98873893218049" lon="10.568474923047434"><ele>2.0</ele><time>2026-04-25T14:37:28Z</time></trkpt><trkpt lat="42.988812519203655" lon="10.568613880141474"><ele>2.0</ele><time>2026-04-25T14:37:29Z</time></trkpt><trkpt lat="42.98889757794765" lon="10.568764262096625"><ele>2.0</ele><time>2026-04-25T14:37:30Z</time></trkpt><trkpt lat="42.9889899502539" lon="10.568920745949638"><ele>2.0</ele><time>2026-04-25T14:37:31Z</time></trkpt><trkpt lat="42.98908520852215" lon="10.56907799196401"><ele>2.0</ele><time>2026-04-25T14:37:32Z</time></trkpt><trkpt lat="42.989187850766285" lon="10.569241392133222"><ele>2.0</ele><time>2026-04-25T14:37:33Z</time></trkpt><trkpt lat="42.98928766478811" lon="10.569411390338097"><ele>2.0</ele><time>2026-04-25T14:37:34Z</time></trkpt><trkpt lat="42.989401485418554" lon="10.569584321759603"><ele>2.0</ele><time>2026-04-25T14:37:35Z</time></trkpt><trkpt lat="42.98952461607235" lon="10.569759829454334"><ele>2.333333333333333</ele><time>2026-04-25T14:37:36Z</time></trkpt><trkpt lat="42.98964770359192" lon="10.569925739947086"><ele>2.6666666666666665</ele><time>2026-04-25T14:37:37Z</time></trkpt><trkpt lat="42.98977665221203" lon="10.570090701065983"><ele>3.0</ele><time>2026-04-25T14:37:38Z</time></trkpt><trkpt lat="42.98990701382877" lon="10.570260758194994"><ele>3.333333333333333</ele><time>2026-04-25T14:37:39Z</time></trkpt><trkpt lat="42.99003851628699" lon="10.570430244141614"><ele>3.6666666666666665</ele><time>2026-04-25T14:37:40Z</time></trkpt><trkpt lat="42.99017077824456" lon="10.570602031711076"><ele>4.0</ele><time>2026-04-25T14:37:41Z</time></trkpt><trkpt lat="42.99030313194917" lon="10.57077248610031"><ele>4.0</ele><time>2026-04-25T14:37:42Z</time></trkpt><trkpt lat="42.990438029521854" lon="10.570942997736264"><ele>4.0</ele><time>2026-04-25T14:37:43Z</time></trkpt><trkpt lat="42.99056947411743" lon="10.571117162997071"><ele>4.0</ele><time>2026-04-25T14:37:44Z</time></trkpt><trkpt lat="42.990703206845865" lon="10.571290881808133"><ele>3.6666666666666665</ele><time>2026-04-25T14:37:45Z</time></trkpt><trkpt lat="42.99083833442431" lon="10.571465914989993"><ele>3.333333333333333</ele><time>2026-04-25T14:37:46Z</time></trkpt><trkpt lat="42.990974268359196" lon="10.571642304113222"><ele>3.0</ele><time>2026-04-25T14:37:47Z</time></trkpt><trkpt lat="42.99111212548931" lon="10.57182039206907"><ele>3.0</ele><time>2026-04-25T14:37:48Z</time></trkpt><trkpt lat="42.99125261777094" lon="10.571999549762637"><ele>3.0</ele><time>2026-04-25T14:37:49Z</time></trkpt><trkpt lat="42.99139182861985" lon="10.572185052421878"><ele>3.0</ele><time>2026-04-25T14:37:50Z</time></trkpt><trkpt lat="42.99153643252184" lon="10.572372906620622"><ele>2.6666666666666665</ele><time>2026-04-25T14:37:51Z</time></trkpt><trkpt lat="42.991681264984194" lon="10.572561668728241"><ele>2.333333333333333</ele><time>2026-04-25T14:37:52Z</time></trkpt><trkpt lat="42.99182986257489" lon="10.572749695491932"><ele>2.0</ele><time>2026-04-25T14:37:53Z</time></trkpt><trkpt lat="42.99197849640199" lon="10.572937408014882"><ele>2.0</ele><time>2026-04-25T14:37:54Z</time></trkpt><trkpt lat="42.99212636145818" lon="10.573122100073018"><ele>2.0</ele><time>2026-04-25T14:37:55Z</time></trkpt><trkpt lat="42.99227250732741" lon="10.573308857151027"><ele>2.0</ele><time>2026-04-25T14:37:56Z</time></trkpt><trkpt lat="42.99241705580449" lon="10.573499638441845"><ele>2.0</ele><time>2026-04-25T14:37:57Z</time></trkpt><trkpt lat="42.99256235552918" lon="10.573689244559592"><ele>2.0</ele><time>2026-04-25T14:37:58Z</time></trkpt><trkpt lat="42.99270861432477" lon="10.573876363578677"><ele>2.0</ele><time>2026-04-25T14:37:59Z</time></trkpt><trkpt lat="42.99285670620788" lon="10.57406512298559"><ele>2.0</ele><time>2026-04-25T14:38:00Z</time></trkpt><trkpt lat="42.99300591195355" lon="10.574255542064034"><ele>2.0</ele><time>2026-04-25T14:38:01Z</time></trkpt><trkpt lat="42.99315722058738" lon="10.574446832279314"><ele>2.0</ele><time>2026-04-25T14:38:02Z</time></trkpt><trkpt lat="42.99330669133043" lon="10.574642457240666"><ele>2.333333333333333</ele><time>2026-04-25T14:38:03Z</time></trkpt><trkpt lat="42.993455345877976" lon="10.574836311504322"><ele>2.6666666666666665</ele><time>2026-04-25T14:38:04Z</time></trkpt><trkpt lat="42.99360750486453" lon="10.575028620795544"><ele>3.0</ele><time>2026-04-25T14:38:05Z</time></trkpt><trkpt lat="42.99375725239545" lon="10.575222747048532"><ele>3.0</ele><time>2026-04-25T14:38:06Z</time></trkpt><trkpt lat="42.99390529755598" lon="10.575415932072866"><ele>3.0</ele><time>2026-04-25T14:38:07Z</time></trkpt><trkpt lat="42.99405608159234" lon="10.57560515906604"><ele>3.0</ele><time>2026-04-25T14:38:08Z</time></trkpt><trkpt lat="42.99420545620272" lon="10.575796817641068"><ele>3.0</ele><time>2026-04-25T14:38:09Z</time></trkpt><trkpt lat="42.994353336615234" lon="10.575990133676337"><ele>3.0</ele><time>2026-04-25T14:38:10Z</time></trkpt><trkpt lat="42.994499218115514" lon="10.576181725165641"><ele>3.0</ele><time>2026-04-25T14:38:11Z</time></trkpt><trkpt lat="42.99464314766152" lon="10.576372252872103"><ele>3.333333333333333</ele><time>2026-04-25T14:38:12Z</time></trkpt><trkpt lat="42.99478612812852" lon="10.576564067322968"><ele>3.6666666666666665</ele><time>2026-04-25T14:38:13Z</time></trkpt><trkpt lat="42.99493302467948" lon="10.576754503295437"><ele>4.0</ele><time>2026-04-25T14:38:14Z</time></trkpt><trkpt lat="42.99508157890011" lon="10.576943466469665"><ele>3.333333333333333</ele><time>2026-04-25T14:38:15Z</time></trkpt><trkpt lat="42.99522911769453" lon="10.577135078911637"><ele>2.6666666666666665</ele><time>2026-04-25T14:38:16Z</time></trkpt><trkpt lat="42.99537735672949" lon="10.577328202133765"><ele>2.0</ele><time>2026-04-25T14:38:17Z</time></trkpt><trkpt lat="42.995526193310035" lon="10.577519977060225"><ele>2.0</ele><time>2026-04-25T14:38:18Z</time></trkpt><trkpt lat="42.995676013605255" lon="10.577711354600428"><ele>2.0</ele><time>2026-04-25T14:38:19Z</time></trkpt><trkpt lat="42.99582712498429" lon="10.577904496312042"><ele>2.0</ele><time>2026-04-25T14:38:20Z</time></trkpt><trkpt lat="42.99597745004767" lon="10.578098465806379"><ele>2.6666666666666665</ele><time>2026-04-25T14:38:21Z</time></trkpt><trkpt lat="42.996127866074374" lon="10.578293321662443"><ele>3.333333333333333</ele><time>2026-04-25T14:38:22Z</time></trkpt><trkpt lat="42.99628089754254" lon="10.578487680002166"><ele>4.0</ele><time>2026-04-25T14:38:23Z</time></trkpt><trkpt lat="42.99643195455908" lon="10.5786823590202"><ele>4.0</ele><time>2026-04-25T14:38:24Z</time></trkpt><trkpt lat="42.996583955669635" lon="10.578877245596658"><ele>4.0</ele><time>2026-04-25T14:38:25Z</time></trkpt><trkpt lat="42.99673284139567" lon="10.579071918916103"><ele>4.0</ele><time>2026-04-25T14:38:26Z</time></trkpt><trkpt lat="42.99688495071027" lon="10.579265106555114"><ele>4.0</ele><time>2026-04-25T14:38:27Z</time></trkpt><trkpt lat="42.99703900427614" lon="10.579458792919526"><ele>4.0</ele><time>2026-04-25T14:38:28Z</time></trkpt><trkpt lat="42.99719340739323" lon="10.57965216819834"><ele>4.0</ele><time>2026-04-25T14:38:29Z</time></trkpt><trkpt lat="42.99734519136182" lon="10.57984584907475"><ele>4.0</ele><time>2026-04-25T14:38:30Z</time></trkpt><trkpt lat="42.9974955867643" lon="10.58003975607403"><ele>4.0</ele><time>2026-04-25T14:38:31Z</time></trkpt><trkpt lat="42.99764574860151" lon="10.580234512178174"><ele>4.0</ele><time>2026-04-25T14:38:32Z</time></trkpt><trkpt lat="42.99779707752579" lon="10.580427309618054"><ele>4.333333333333333</ele><time>2026-04-25T14:38:33Z</time></trkpt><trkpt lat="42.99795078097884" lon="10.580619294917962"><ele>4.666666666666667</ele><time>2026-04-25T14:38:34Z</time></trkpt><trkpt lat="42.998101630868156" lon="10.580811353346943"><ele>5.0</ele><time>2026-04-25T14:38:35Z</time></trkpt><trkpt lat="42.998255377138506" lon="10.58100394688752"><ele>4.666666666666667</ele><time>2026-04-25T14:38:36Z</time></trkpt><trkpt lat="42.998409870562455" lon="10.5811967918553"><ele>4.333333333333333</ele><time>2026-04-25T14:38:37Z</time></trkpt><trkpt lat="42.99856170982596" lon="10.581391464211299"><ele>4.0</ele><time>2026-04-25T14:38:38Z</time></trkpt><trkpt lat="42.998713782640785" lon="10.581588418770485"><ele>4.0</ele><time>2026-04-25T14:38:39Z</time></trkpt><trkpt lat="42.99886476712558" lon="10.581783981918404"><ele>4.0</ele><time>2026-04-25T14:38:40Z</time></trkpt><trkpt lat="42.99901518044429" lon="10.581979680221178"><ele>4.0</ele><time>2026-04-25T14:38:41Z</time></trkpt><trkpt lat="42.999167558884075" lon="10.582175571387937"><ele>4.0</ele><time>2026-04-25T14:38:42Z</time></trkpt><trkpt lat="42.99931875061013" lon="10.582371023259192"><ele>4.0</ele><time>2026-04-25T14:38:43Z</time></trkpt><trkpt lat="42.99946656862056" lon="10.582563226006217"><ele>4.0</ele><time>2026-04-25T14:38:44Z</time></trkpt><trkpt lat="42.99961750091072" lon="10.582751345657934"><ele>4.333333333333333</ele><time>2026-04-25T14:38:45Z</time></trkpt><trkpt lat="42.99976278332845" lon="10.582942778073479"><ele>4.666666666666667</ele><time>2026-04-25T14:38:46Z</time></trkpt><trkpt lat="42.99990786872445" lon="10.583130777695704"><ele>5.0</ele><time>2026-04-25T14:38:47Z</time></trkpt><trkpt lat="43.000051821100534" lon="10.58331795500553"><ele>5.0</ele><time>2026-04-25T14:38:48Z</time></trkpt><trkpt lat="43.00019619600341" lon="10.58350442934594"><ele>5.0</ele><time>2026-04-25T14:38:49Z</time></trkpt><trkpt lat="43.00034239050322" lon="10.58368944332142"><ele>5.0</ele><time>2026-04-25T14:38:50Z</time></trkpt><trkpt lat="43.00048734728658" lon="10.583876735072234"><ele>5.0</ele><time>2026-04-25T14:38:51Z</time></trkpt><trkpt lat="43.00063822830955" lon="10.584062507963374"><ele>5.0</ele><time>2026-04-25T14:38:52Z</time></trkpt><trkpt lat="43.0007803939519" lon="10.584252083091993"><ele>5.0</ele><time>2026-04-25T14:38:53Z</time></trkpt><trkpt lat="43.0009260365808" lon="10.584438701301702"><ele>5.333333333333334</ele><time>2026-04-25T14:38:54Z</time></trkpt><trkpt lat="43.001068206079374" lon="10.584624395554204"><ele>5.666666666666667</ele><time>2026-04-25T14:38:55Z</time></trkpt><trkpt lat="43.00121451642372" lon="10.584808414170924"><ele>6.0</ele><time>2026-04-25T14:38:56Z</time></trkpt><trkpt lat="43.00135752996665" lon="10.584992498454355"><ele>6.0</ele><time>2026-04-25T14:38:57Z</time></trkpt><trkpt lat="43.0015009646545" lon="10.58517880539971"><ele>6.0</ele><time>2026-04-25T14:38:58Z</time></trkpt><trkpt lat="43.00164447259373" lon="10.585366109572647"><ele>6.0</ele><time>2026-04-25T14:38:59Z</time></trkpt><trkpt lat="43.00178654544562" lon="10.58556012677615"><ele>6.0</ele><time>2026-04-25T14:39:00Z</time></trkpt><trkpt lat="43.001925201936274" lon="10.585763451949456"><ele>6.0</ele><time>2026-04-25T14:39:01Z</time></trkpt><trkpt lat="43.00206161197303" lon="10.58597446800707"><ele>6.0</ele><time>2026-04-25T14:39:02Z</time></trkpt><trkpt lat="43.00219504952421" lon="10.586187808066024"><ele>6.333333333333334</ele><time>2026-04-25T14:39:03Z</time></trkpt><trkpt lat="43.00232951510344" lon="10.58640299103766"><ele>6.666666666666667</ele><time>2026-04-25T14:39:04Z</time></trkpt><trkpt lat="43.00246662674869" lon="10.586619157365027"><ele>7.0</ele><time>2026-04-25T14:39:05Z</time></trkpt><trkpt lat="43.00260156325469" lon="10.586836693970001"><ele>7.0</ele><time>2026-04-25T14:39:06Z</time></trkpt><trkpt lat="43.00273021414941" lon="10.587055022165156"><ele>7.0</ele><time>2026-04-25T14:39:07Z</time></trkpt><trkpt lat="43.002865350333536" lon="10.587271351499217"><ele>7.0</ele><time>2026-04-25T14:39:08Z</time></trkpt><trkpt lat="43.002998009629145" lon="10.587488654328354"><ele>7.0</ele><time>2026-04-25T14:39:09Z</time></trkpt><trkpt lat="43.00313067623924" lon="10.587700382369105"><ele>7.0</ele><time>2026-04-25T14:39:10Z</time></trkpt><trkpt lat="43.003268539774204" lon="10.587906996364888"><ele>7.0</ele><time>2026-04-25T14:39:11Z</time></trkpt><trkpt lat="43.00340980848161" lon="10.58810528549266"><ele>7.0</ele><time>2026-04-25T14:39:12Z</time></trkpt><trkpt lat="43.00356089750122" lon="10.588293869516828"><ele>7.0</ele><time>2026-04-25T14:39:13Z</time></trkpt><trkpt lat="43.003719476868106" lon="10.588471359657674"><ele>7.0</ele><time>2026-04-25T14:39:14Z</time></trkpt><trkpt lat="43.003884556350954" lon="10.588644275103032"><ele>7.0</ele><time>2026-04-25T14:39:15Z</time></trkpt><trkpt lat="43.004055292039084" lon="10.588808613195145"><ele>7.0</ele><time>2026-04-25T14:39:16Z</time></trkpt><trkpt lat="43.00422729580879" lon="10.588969548337172"><ele>7.0</ele><time>2026-04-25T14:39:17Z</time></trkpt><trkpt lat="43.004399368957564" lon="10.589128017257426"><ele>7.0</ele><time>2026-04-25T14:39:18Z</time></trkpt><trkpt lat="43.00457027948863" lon="10.589283193771843"><ele>7.0</ele><time>2026-04-25T14:39:19Z</time></trkpt><trkpt lat="43.004738724977805" lon="10.589439150690312"><ele>7.0</ele><time>2026-04-25T14:39:20Z</time></trkpt><trkpt lat="43.00490639854514" lon="10.589593122242686"><ele>7.333333333333334</ele><time>2026-04-25T14:39:21Z</time></trkpt><trkpt lat="43.005068352083995" lon="10.589746731829964"><ele>7.666666666666666</ele><time>2026-04-25T14:39:22Z</time></trkpt><trkpt lat="43.005230818489764" lon="10.589897091099278"><ele>8.0</ele><time>2026-04-25T14:39:23Z</time></trkpt><trkpt lat="43.005400865858675" lon="10.590042134464351"><ele>8.0</ele><time>2026-04-25T14:39:24Z</time></trkpt><trkpt lat="43.00556735049594" lon="10.590187623709909"><ele>8.0</ele><time>2026-04-25T14:39:25Z</time></trkpt><trkpt lat="43.00573310654811" lon="10.59033808237375"><ele>8.0</ele><time>2026-04-25T14:39:26Z</time></trkpt><trkpt lat="43.005893197350815" lon="10.590482533286309"><ele>8.0</ele><time>2026-04-25T14:39:27Z</time></trkpt><trkpt lat="43.006054639389724" lon="10.590627045974827"><ele>8.0</ele><time>2026-04-25T14:39:28Z</time></trkpt><trkpt lat="43.00621466681329" lon="10.590773946188488"><ele>8.0</ele><time>2026-04-25T14:39:29Z</time></trkpt><trkpt lat="43.006375092065305" lon="10.590924345871125"><ele>8.0</ele><time>2026-04-25T14:39:30Z</time></trkpt><trkpt lat="43.00653891926675" lon="10.591074920047406"><ele>8.0</ele><time>2026-04-25T14:39:31Z</time></trkpt><trkpt lat="43.00670514217497" lon="10.591225361406437"><ele>8.0</ele><time>2026-04-25T14:39:32Z</time></trkpt><trkpt lat="43.00687084624235" lon="10.591376398611537"><ele>9.333333333333332</ele><time>2026-04-25T14:39:33Z</time></trkpt><trkpt lat="43.007037514432966" lon="10.59152335059909"><ele>10.666666666666666</ele><time>2026-04-25T14:39:34Z</time></trkpt><trkpt lat="43.00720539530727" lon="10.59166675829148"><ele>12.0</ele><time>2026-04-25T14:39:35Z</time></trkpt><trkpt lat="43.0073759219872" lon="10.591810352154896"><ele>11.666666666666666</ele><time>2026-04-25T14:39:36Z</time></trkpt><trkpt lat="43.007545813168186" lon="10.59194785613265"><ele>11.333333333333332</ele><time>2026-04-25T14:39:37Z</time></trkpt><trkpt lat="43.00771753067531" lon="10.592080767449868"><ele>11.0</ele><time>2026-04-25T14:39:38Z</time></trkpt><trkpt lat="43.00788913857781" lon="10.592212714883944"><ele>11.0</ele><time>2026-04-25T14:39:39Z</time></trkpt><trkpt lat="43.008060992588334" lon="10.59234506093124"><ele>11.0</ele><time>2026-04-25T14:39:40Z</time></trkpt><trkpt lat="43.008235763238886" lon="10.592473635197685"><ele>11.0</ele><time>2026-04-25T14:39:41Z</time></trkpt><trkpt lat="43.008413333084725" lon="10.592602921893924"><ele>9.666666666666666</ele><time>2026-04-25T14:39:42Z</time></trkpt><trkpt lat="43.00859462159309" lon="10.592726319960093"><ele>8.333333333333334</ele><time>2026-04-25T14:39:43Z</time></trkpt><trkpt lat="43.00878011654595" lon="10.592848122638028"><ele>7.0</ele><time>2026-04-25T14:39:44Z</time></trkpt><trkpt lat="43.00896342206629" lon="10.592970629008022"><ele>7.0</ele><time>2026-04-25T14:39:45Z</time></trkpt><trkpt lat="43.00914934086745" lon="10.593091028948134"><ele>7.0</ele><time>2026-04-25T14:39:46Z</time></trkpt><trkpt lat="43.00933825328923" lon="10.593206988362017"><ele>7.0</ele><time>2026-04-25T14:39:47Z</time></trkpt><trkpt lat="43.009527827831725" lon="10.59332216450076"><ele>7.333333333333334</ele><time>2026-04-25T14:39:48Z</time></trkpt><trkpt lat="43.009718101079244" lon="10.593436566616086"><ele>7.666666666666666</ele><time>2026-04-25T14:39:49Z</time></trkpt><trkpt lat="43.0099073949111" lon="10.593552720401135"><ele>8.0</ele><time>2026-04-25T14:39:50Z</time></trkpt><trkpt lat="43.01009604923032" lon="10.593670313459949"><ele>8.333333333333332</ele><time>2026-04-25T14:39:51Z</time></trkpt><trkpt lat="43.0102839004242" lon="10.593787941102239"><ele>8.666666666666666</ele><time>2026-04-25T14:39:52Z</time></trkpt><trkpt lat="43.01047022055575" lon="10.593904474059594"><ele>9.0</ele><time>2026-04-25T14:39:53Z</time></trkpt><trkpt lat="43.01065287185893" lon="10.594022988036738"><ele>9.333333333333334</ele><time>2026-04-25T14:39:54Z</time></trkpt><trkpt lat="43.01083503150303" lon="10.594142114260706"><ele>9.666666666666668</ele><time>2026-04-25T14:39:55Z</time></trkpt><trkpt lat="43.011015154744776" lon="10.59426173658484"><ele>10.0</ele><time>2026-04-25T14:39:56Z</time></trkpt><trkpt lat="43.01119084995951" lon="10.59438204345495"><ele>10.0</ele><time>2026-04-25T14:39:57Z</time></trkpt><trkpt lat="43.0113650003095" lon="10.594503402940433"><ele>10.0</ele><time>2026-04-25T14:39:58Z</time></trkpt><trkpt lat="43.0115369382551" lon="10.5946250655795"><ele>10.0</ele><time>2026-04-25T14:39:59Z</time></trkpt><trkpt lat="43.011708824551135" lon="10.59474558773"><ele>10.0</ele><time>2026-04-25T14:40:00Z</time></trkpt><trkpt lat="43.01187886644233" lon="10.594865986714645"><ele>10.0</ele><time>2026-04-25T14:40:01Z</time></trkpt><trkpt lat="43.01204907867025" lon="10.594986427620508"><ele>10.0</ele><time>2026-04-25T14:40:02Z</time></trkpt><trkpt lat="43.01221670175512" lon="10.595108901151217"><ele>10.0</ele><time>2026-04-25T14:40:03Z</time></trkpt><trkpt lat="43.012378159873364" lon="10.595232698623501"><ele>10.0</ele><time>2026-04-25T14:40:04Z</time></trkpt><trkpt lat="43.01253921171375" lon="10.59535793750113"><ele>10.0</ele><time>2026-04-25T14:40:05Z</time></trkpt><trkpt lat="43.01270087402648" lon="10.595487550595736"><ele>9.333333333333334</ele><time>2026-04-25T14:40:06Z</time></trkpt><trkpt lat="43.01286484208316" lon="10.59562112511604"><ele>8.666666666666666</ele><time>2026-04-25T14:40:07Z</time></trkpt><trkpt lat="43.0130301228083" lon="10.595757520742037"><ele>8.0</ele><time>2026-04-25T14:40:08Z</time></trkpt><trkpt lat="43.01319514451981" lon="10.595897007182334"><ele>8.333333333333332</ele><time>2026-04-25T14:40:09Z</time></trkpt><trkpt lat="43.013359831999104" lon="10.596038085743778"><ele>8.666666666666666</ele><time>2026-04-25T14:40:10Z</time></trkpt><trkpt lat="43.01352441846187" lon="10.5961785635766"><ele>9.0</ele><time>2026-04-25T14:40:11Z</time></trkpt><trkpt lat="43.01368981202325" lon="10.59631931275151"><ele>9.333333333333334</ele><time>2026-04-25T14:40:12Z</time></trkpt><trkpt lat="43.01385776637401" lon="10.596462344439281"><ele>9.666666666666668</ele><time>2026-04-25T14:40:13Z</time></trkpt><trkpt lat="43.01402895026529" lon="10.596609994192846"><ele>10.0</ele><time>2026-04-25T14:40:14Z</time></trkpt><trkpt lat="43.01420190870479" lon="10.596757174211977"><ele>10.333333333333334</ele><time>2026-04-25T14:40:15Z</time></trkpt><trkpt lat="43.0143709039743" lon="10.596903936762763"><ele>10.666666666666666</ele><time>2026-04-25T14:40:16Z</time></trkpt><trkpt lat="43.01454231087664" lon="10.597049293409542"><ele>11.0</ele><time>2026-04-25T14:40:17Z</time></trkpt><trkpt lat="43.014711595572464" lon="10.59719333561203"><ele>10.333333333333332</ele><time>2026-04-25T14:40:18Z</time></trkpt><trkpt lat="43.0148799004474" lon="10.59733786383866"><ele>9.666666666666666</ele><time>2026-04-25T14:40:19Z</time></trkpt><trkpt lat="43.01504661936979" lon="10.597481048215371"><ele>9.0</ele><time>2026-04-25T14:40:20Z</time></trkpt><trkpt lat="43.01521278844581" lon="10.59762395580814"><ele>9.333333333333334</ele><time>2026-04-25T14:40:21Z</time></trkpt><trkpt lat="43.015378174358865" lon="10.59776946404167"><ele>9.666666666666668</ele><time>2026-04-25T14:40:22Z</time></trkpt><trkpt lat="43.015542730092015" lon="10.59791565165716"><ele>10.0</ele><time>2026-04-25T14:40:23Z</time></trkpt><trkpt lat="43.01570680243947" lon="10.59806071239493"><ele>11.0</ele><time>2026-04-25T14:40:24Z</time></trkpt><trkpt lat="43.015874303350365" lon="10.598204079923692"><ele>12.0</ele><time>2026-04-25T14:40:25Z</time></trkpt><trkpt lat="43.01604033097025" lon="10.598347946321116"><ele>13.0</ele><time>2026-04-25T14:40:26Z</time></trkpt><trkpt lat="43.01620173992019" lon="10.598493104560102"><ele>13.0</ele><time>2026-04-25T14:40:27Z</time></trkpt><trkpt lat="43.01636630007073" lon="10.59863558652898"><ele>13.0</ele><time>2026-04-25T14:40:28Z</time></trkpt><trkpt lat="43.0165308218695" lon="10.598777050411286"><ele>13.0</ele><time>2026-04-25T14:40:29Z</time></trkpt><trkpt lat="43.01669596247952" lon="10.598915952126106"><ele>12.0</ele><time>2026-04-25T14:40:30Z</time></trkpt><trkpt lat="43.01685719317904" lon="10.599054190483498"><ele>11.0</ele><time>2026-04-25T14:40:31Z</time></trkpt><trkpt lat="43.01701489388143" lon="10.599192696573295"><ele>10.0</ele><time>2026-04-25T14:40:32Z</time></trkpt><trkpt lat="43.01717318077902" lon="10.599332196266012"><ele>10.0</ele><time>2026-04-25T14:40:33Z</time></trkpt><trkpt lat="43.01733179535736" lon="10.599471689680263"><ele>10.0</ele><time>2026-04-25T14:40:34Z</time></trkpt><trkpt lat="43.01748933613812" lon="10.59961365939072"><ele>10.0</ele><time>2026-04-25T14:40:35Z</time></trkpt><trkpt lat="43.01765012878109" lon="10.599751858022454"><ele>9.333333333333334</ele><time>2026-04-25T14:40:36Z</time></trkpt><trkpt lat="43.017811357523186" lon="10.599890597176849"><ele>8.666666666666666</ele><time>2026-04-25T14:40:37Z</time></trkpt><trkpt lat="43.01797354865179" lon="10.600032198706286"><ele>8.0</ele><time>2026-04-25T14:40:38Z</time></trkpt><trkpt lat="43.01813756538523" lon="10.600173233945416"><ele>8.0</ele><time>2026-04-25T14:40:39Z</time></trkpt><trkpt lat="43.018302109222276" lon="10.60031748809535"><ele>8.0</ele><time>2026-04-25T14:40:40Z</time></trkpt><trkpt lat="43.018467717593204" lon="10.600464418375322"><ele>8.0</ele><time>2026-04-25T14:40:41Z</time></trkpt><trkpt lat="43.0186338363024" lon="10.600614438055198"><ele>8.0</ele><time>2026-04-25T14:40:42Z</time></trkpt><trkpt lat="43.0187994583418" lon="10.600767930286484"><ele>8.0</ele><time>2026-04-25T14:40:43Z</time></trkpt><trkpt lat="43.018966517948776" lon="10.600922593910663"><ele>8.0</ele><time>2026-04-25T14:40:44Z</time></trkpt><trkpt lat="43.019132450814936" lon="10.601071035584297"><ele>8.333333333333332</ele><time>2026-04-25T14:40:45Z</time></trkpt><trkpt lat="43.01929714457385" lon="10.601222405509933"><ele>8.666666666666666</ele><time>2026-04-25T14:40:46Z</time></trkpt><trkpt lat="43.01945766444516" lon="10.601379529987339"><ele>9.0</ele><time>2026-04-25T14:40:47Z</time></trkpt><trkpt lat="43.01961668098217" lon="10.601538187065973"><ele>9.0</ele><time>2026-04-25T14:40:48Z</time></trkpt><trkpt lat="43.019770075706425" lon="10.601702116492252"><ele>9.0</ele><time>2026-04-25T14:40:49Z</time></trkpt><trkpt lat="43.01991653956928" lon="10.601855429059622"><ele>9.0</ele><time>2026-04-25T14:40:50Z</time></trkpt><trkpt lat="43.02005168496781" lon="10.602035047992254"><ele>9.333333333333334</ele><time>2026-04-25T14:40:51Z</time></trkpt><trkpt lat="43.0201886854909" lon="10.602208341841948"><ele>9.666666666666668</ele><time>2026-04-25T14:40:52Z</time></trkpt><trkpt lat="43.02032435143177" lon="10.602382008030585"><ele>10.0</ele><time>2026-04-25T14:40:53Z</time></trkpt><trkpt lat="43.020462066301505" lon="10.602561232290084"><ele>10.0</ele><time>2026-04-25T14:40:54Z</time></trkpt><trkpt lat="43.02060111184698" lon="10.602745511185098"><ele>10.0</ele><time>2026-04-25T14:40:55Z</time></trkpt><trkpt lat="43.020739029133225" lon="10.602930504927144"><ele>10.0</ele><time>2026-04-25T14:40:56Z</time></trkpt><trkpt lat="43.020878838194946" lon="10.603116725108887"><ele>9.666666666666668</ele><time>2026-04-25T14:40:57Z</time></trkpt><trkpt lat="43.0210322460684" lon="10.6032896424069"><ele>9.333333333333334</ele><time>2026-04-25T14:40:58Z</time></trkpt><trkpt lat="43.02116036046607" lon="10.603491701733324"><ele>9.0</ele><time>2026-04-25T14:40:59Z</time></trkpt><trkpt lat="43.02129843939339" lon="10.603675617442097"><ele>9.0</ele><time>2026-04-25T14:41:00Z</time></trkpt><trkpt lat="43.02144612460091" lon="10.603842055101962"><ele>9.0</ele><time>2026-04-25T14:41:01Z</time></trkpt><trkpt lat="43.02158021365324" lon="10.604021714277211"><ele>9.0</ele><time>2026-04-25T14:41:02Z</time></trkpt><trkpt lat="43.021713793424006" lon="10.604201296568041"><ele>9.0</ele><time>2026-04-25T14:41:03Z</time></trkpt><trkpt lat="43.02184558330983" lon="10.604377154576502"><ele>9.0</ele><time>2026-04-25T14:41:04Z</time></trkpt><trkpt lat="43.021974376135866" lon="10.604546870142322"><ele>9.0</ele><time>2026-04-25T14:41:05Z</time></trkpt><trkpt lat="43.022098784106255" lon="10.604715098083533"><ele>9.0</ele><time>2026-04-25T14:41:06Z</time></trkpt><trkpt lat="43.022218364838544" lon="10.604873472281067"><ele>9.0</ele><time>2026-04-25T14:41:07Z</time></trkpt><trkpt lat="43.02233395253928" lon="10.605021567499637"><ele>9.0</ele><time>2026-04-25T14:41:08Z</time></trkpt><trkpt lat="43.022443725057116" lon="10.605168212213265"><ele>9.0</ele><time>2026-04-25T14:41:09Z</time></trkpt><trkpt lat="43.02255244115031" lon="10.605315583662717"><ele>9.0</ele><time>2026-04-25T14:41:10Z</time></trkpt><trkpt lat="43.02265814303107" lon="10.605459468813237"><ele>9.0</ele><time>2026-04-25T14:41:11Z</time></trkpt><trkpt lat="43.02276456734124" lon="10.605611451117316"><ele>9.0</ele><time>2026-04-25T14:41:12Z</time></trkpt><trkpt lat="43.02287395629868" lon="10.605754371554868"><ele>9.0</ele><time>2026-04-25T14:41:13Z</time></trkpt><trkpt lat="43.02296560505954" lon="10.605918809707493"><ele>9.0</ele><time>2026-04-25T14:41:14Z</time></trkpt><trkpt lat="43.02306447703448" lon="10.606065170066799"><ele>9.0</ele><time>2026-04-25T14:41:15Z</time></trkpt><trkpt lat="43.0231569735547" lon="10.606208648830759"><ele>9.0</ele><time>2026-04-25T14:41:16Z</time></trkpt><trkpt lat="43.02324850170672" lon="10.606354500576899"><ele>9.0</ele><time>2026-04-25T14:41:17Z</time></trkpt><trkpt lat="43.023335374503645" lon="10.606495427696897"><ele>9.0</ele><time>2026-04-25T14:41:18Z</time></trkpt><trkpt lat="43.02342031158777" lon="10.606636359664348"><ele>9.0</ele><time>2026-04-25T14:41:19Z</time></trkpt><trkpt lat="43.02350051693794" lon="10.606769494716506"><ele>9.0</ele><time>2026-04-25T14:41:20Z</time></trkpt><trkpt lat="43.0235767219897" lon="10.606896156826691"><ele>9.0</ele><time>2026-04-25T14:41:21Z</time></trkpt><trkpt lat="43.023649674398726" lon="10.6070174126404"><ele>9.0</ele><time>2026-04-25T14:41:22Z</time></trkpt><trkpt lat="43.02371619666875" lon="10.607128794439129"><ele>9.0</ele><time>2026-04-25T14:41:23Z</time></trkpt><trkpt lat="43.02377726593967" lon="10.60723105313498"><ele>9.0</ele><time>2026-04-25T14:41:24Z</time></trkpt><trkpt lat="43.02382978942814" lon="10.607319002159409"><ele>9.166666666666666</ele><time>2026-04-25T14:41:25Z</time></trkpt><trkpt lat="43.023872207651664" lon="10.607391105092551"><ele>9.333333333333334</ele><time>2026-04-25T14:41:26Z</time></trkpt><trkpt lat="43.0239482006617" lon="10.607494646157416"><ele>9.5</ele><time>2026-04-25T14:41:28Z</time></trkpt><trkpt lat="43.02399212876874" lon="10.607573987229106"><ele>9.666666666666668</ele><time>2026-04-25T14:41:42Z</time></trkpt><trkpt lat="43.024027759077455" lon="10.607652268449305"><ele>9.833333333333334</ele><time>2026-04-25T14:41:56Z</time></trkpt><trkpt lat="43.024080178644105" lon="10.607714646962341"><ele>10.0</ele><time>2026-04-25T14:41:59Z</time></trkpt><trkpt lat="43.02421227744589" lon="10.607563487253687"><ele>10.333333333333334</ele><time>2026-04-25T14:42:00Z</time></trkpt><trkpt lat="43.02425767582404" lon="10.607485719461536"><ele>10.666666666666668</ele><time>2026-04-25T14:42:01Z</time></trkpt><trkpt lat="43.02430621489277" lon="10.607406969255086"><ele>11.0</ele><time>2026-04-25T14:42:02Z</time></trkpt><trkpt lat="43.024362935156844" lon="10.607331836914478"><ele>11.333333333333334</ele><time>2026-04-25T14:42:03Z</time></trkpt><trkpt lat="43.02442522919557" lon="10.607251192564435"><ele>11.666666666666666</ele><time>2026-04-25T14:42:04Z</time></trkpt><trkpt lat="43.024486629846365" lon="10.60716646374334"><ele>12.0</ele><time>2026-04-25T14:42:05Z</time></trkpt><trkpt lat="43.02454377553454" lon="10.607090739124097"><ele>11.999999999999998</ele><time>2026-04-25T14:42:06Z</time></trkpt><trkpt lat="43.02459978008871" lon="10.607035047414026"><ele>12.0</ele><time>2026-04-25T14:42:07Z</time></trkpt><trkpt lat="43.02466501941831" lon="10.607000027953516"><ele>12.0</ele><time>2026-04-25T14:42:08Z</time></trkpt><trkpt lat="43.02473387317416" lon="10.6069837741068"><ele>12.0</ele><time>2026-04-25T14:42:09Z</time></trkpt><trkpt lat="43.02480722478372" lon="10.606991490465685"><ele>12.0</ele><time>2026-04-25T14:42:10Z</time></trkpt><trkpt lat="43.024876494647756" lon="10.607036290870145"><ele>11.999999999999998</ele><time>2026-04-25T14:42:11Z</time></trkpt><trkpt lat="43.02494297324758" lon="10.607109363513569"><ele>12.0</ele><time>2026-04-25T14:42:12Z</time></trkpt><trkpt lat="43.02500465731504" lon="10.607198959605523"><ele>11.6</ele><time>2026-04-25T14:42:13Z</time></trkpt><trkpt lat="43.025072213500685" lon="10.607295910540255"><ele>11.2</ele><time>2026-04-25T14:42:14Z</time></trkpt><trkpt lat="43.02514891171057" lon="10.607394437276495"><ele>10.8</ele><time>2026-04-25T14:42:15Z</time></trkpt><trkpt lat="43.0252282730149" lon="10.607499146736409"><ele>10.4</ele><time>2026-04-25T14:42:16Z</time></trkpt><trkpt lat="43.02530947185654" lon="10.607607664323227"><ele>10.0</ele><time>2026-04-25T14:42:17Z</time></trkpt><trkpt lat="43.025399769782574" lon="10.607724090379104"><ele>10.5</ele><time>2026-04-25T14:42:18Z</time></trkpt><trkpt lat="43.025491502404215" lon="10.607847673081027"><ele>11.0</ele><time>2026-04-25T14:42:19Z</time></trkpt><trkpt lat="43.02558519475065" lon="10.607975105294242"><ele>11.5</ele><time>2026-04-25T14:42:20Z</time></trkpt><trkpt lat="43.0256765172515" lon="10.608099274593549"><ele>12.0</ele><time>2026-04-25T14:42:21Z</time></trkpt><trkpt lat="43.02576344698393" lon="10.60821067848408"><ele>11.4</ele><time>2026-04-25T14:42:22Z</time></trkpt><trkpt lat="43.02584538028886" lon="10.60832147280961"><ele>10.799999999999999</ele><time>2026-04-25T14:42:23Z</time></trkpt><trkpt lat="43.025918784791095" lon="10.608435779854528"><ele>10.2</ele><time>2026-04-25T14:42:24Z</time></trkpt><trkpt lat="43.025982362143544" lon="10.608545397618721"><ele>9.6</ele><time>2026-04-25T14:42:25Z</time></trkpt><trkpt lat="43.026054876186414" lon="10.60865266989807"><ele>9.0</ele><time>2026-04-25T14:42:26Z</time></trkpt><trkpt lat="43.026136567004244" lon="10.608760935472668"><ele>9.0</ele><time>2026-04-25T14:42:27Z</time></trkpt><trkpt lat="43.026222927534974" lon="10.608873547652902"><ele>9.0</ele><time>2026-04-25T14:42:28Z</time></trkpt><trkpt lat="43.02630683585838" lon="10.608998217568608"><ele>9.0</ele><time>2026-04-25T14:42:29Z</time></trkpt><trkpt lat="43.026390592488895" lon="10.60912842490137"><ele>9.0</ele><time>2026-04-25T14:42:30Z</time></trkpt><trkpt lat="43.02648200455588" lon="10.60925842612647"><ele>9.0</ele><time>2026-04-25T14:42:31Z</time></trkpt><trkpt lat="43.026577971302736" lon="10.609387681359559"><ele>9.0</ele><time>2026-04-25T14:42:32Z</time></trkpt><trkpt lat="43.026662187604444" lon="10.609535169363424"><ele>9.0</ele><time>2026-04-25T14:42:33Z</time></trkpt><trkpt lat="43.02675577153262" lon="10.609666730339248"><ele>9.0</ele><time>2026-04-25T14:42:34Z</time></trkpt><trkpt lat="43.02685905309653" lon="10.609772309839933"><ele>9.25</ele><time>2026-04-25T14:42:35Z</time></trkpt><trkpt lat="43.02694860163038" lon="10.609900142183347"><ele>9.5</ele><time>2026-04-25T14:42:36Z</time></trkpt><trkpt lat="43.027038878037445" lon="10.610027295225356"><ele>9.75</ele><time>2026-04-25T14:42:37Z</time></trkpt><trkpt lat="43.02713025602786" lon="10.610153686808962"><ele>10.0</ele><time>2026-04-25T14:42:38Z</time></trkpt><trkpt lat="43.02721886184385" lon="10.610274132710947"><ele>10.0</ele><time>2026-04-25T14:42:39Z</time></trkpt><trkpt lat="43.02730539986813" lon="10.61039573101842"><ele>10.0</ele><time>2026-04-25T14:42:40Z</time></trkpt><trkpt lat="43.027393627595785" lon="10.610520369508349"><ele>10.0</ele><time>2026-04-25T14:42:41Z</time></trkpt><trkpt lat="43.02748154755503" lon="10.610648468199605"><ele>10.0</ele><time>2026-04-25T14:42:42Z</time></trkpt><trkpt lat="43.0275672397152" lon="10.610779183381073"><ele>10.0</ele><time>2026-04-25T14:42:43Z</time></trkpt><trkpt lat="43.02765786342902" lon="10.610906155999707"><ele>10.0</ele><time>2026-04-25T14:42:44Z</time></trkpt><trkpt lat="43.0277491416592" lon="10.611028824998646"><ele>10.0</ele><time>2026-04-25T14:42:45Z</time></trkpt><trkpt lat="43.02784143740794" lon="10.611152651237777"><ele>10.0</ele><time>2026-04-25T14:42:46Z</time></trkpt><trkpt lat="43.02793538628257" lon="10.61127992409172"><ele>10.25</ele><time>2026-04-25T14:42:47Z</time></trkpt><trkpt lat="43.02802383587477" lon="10.611411840535558"><ele>10.5</ele><time>2026-04-25T14:42:48Z</time></trkpt><trkpt lat="43.028117017368515" lon="10.611543708117239"><ele>10.75</ele><time>2026-04-25T14:42:49Z</time></trkpt><trkpt lat="43.02821136357805" lon="10.611674792481143"><ele>11.0</ele><time>2026-04-25T14:42:50Z</time></trkpt><trkpt lat="43.02830124739218" lon="10.611800335266755"><ele>11.0</ele><time>2026-04-25T14:42:51Z</time></trkpt><trkpt lat="43.028386378585644" lon="10.61191417441773"><ele>11.0</ele><time>2026-04-25T14:42:52Z</time></trkpt><trkpt lat="43.02846404450953" lon="10.612019993387905"><ele>11.0</ele><time>2026-04-25T14:42:53Z</time></trkpt><trkpt lat="43.02855026182182" lon="10.612113451957523"><ele>11.0</ele><time>2026-04-25T14:42:54Z</time></trkpt><trkpt lat="43.02865129433251" lon="10.612192138166472"><ele>11.0</ele><time>2026-04-25T14:42:55Z</time></trkpt><trkpt lat="43.02876190935291" lon="10.61224804139655"><ele>11.0</ele><time>2026-04-25T14:42:56Z</time></trkpt><trkpt lat="43.028883284807414" lon="10.612286214669668"><ele>11.0</ele><time>2026-04-25T14:42:57Z</time></trkpt><trkpt lat="43.02901108800193" lon="10.612304587756832"><ele>11.0</ele><time>2026-04-25T14:42:58Z</time></trkpt><trkpt lat="43.02914564162069" lon="10.612316775687775"><ele>11.0</ele><time>2026-04-25T14:42:59Z</time></trkpt><trkpt lat="43.02928621128075" lon="10.612318346901672"><ele>11.0</ele><time>2026-04-25T14:43:00Z</time></trkpt><trkpt lat="43.02942632607485" lon="10.612324797054036"><ele>11.0</ele><time>2026-04-25T14:43:01Z</time></trkpt><trkpt lat="43.02956701915475" lon="10.612332502852531"><ele>11.0</ele><time>2026-04-25T14:43:02Z</time></trkpt><trkpt lat="43.02970991201983" lon="10.612338798993298"><ele>11.0</ele><time>2026-04-25T14:43:03Z</time></trkpt><trkpt lat="43.029848976277215" lon="10.612346994147412"><ele>11.0</ele><time>2026-04-25T14:43:04Z</time></trkpt><trkpt lat="43.02998755671752" lon="10.612355870739844"><ele>11.0</ele><time>2026-04-25T14:43:05Z</time></trkpt><trkpt lat="43.03012756827041" lon="10.612359949134245"><ele>11.0</ele><time>2026-04-25T14:43:06Z</time></trkpt><trkpt lat="43.03026585495238" lon="10.612394580744406"><ele>10.75</ele><time>2026-04-25T14:43:07Z</time></trkpt><trkpt lat="43.030406408946654" lon="10.612384203097285"><ele>10.5</ele><time>2026-04-25T14:43:08Z</time></trkpt><trkpt lat="43.03054892325458" lon="10.612411717066895"><ele>10.25</ele><time>2026-04-25T14:43:09Z</time></trkpt><trkpt lat="43.03068260551566" lon="10.612419809894408"><ele>10.0</ele><time>2026-04-25T14:43:10Z</time></trkpt><trkpt lat="43.03081712913958" lon="10.612427643690694"><ele>10.0</ele><time>2026-04-25T14:43:11Z</time></trkpt><trkpt lat="43.03095049673816" lon="10.612435243102638"><ele>10.0</ele><time>2026-04-25T14:43:12Z</time></trkpt><trkpt lat="43.031081344078245" lon="10.612442698909039"><ele>10.0</ele><time>2026-04-25T14:43:13Z</time></trkpt><trkpt lat="43.03121439594379" lon="10.612450280330826"><ele>10.0</ele><time>2026-04-25T14:43:14Z</time></trkpt><trkpt lat="43.03134954845393" lon="10.612457981450454"><ele>10.0</ele><time>2026-04-25T14:43:15Z</time></trkpt><trkpt lat="43.03148519679001" lon="10.612467070343735"><ele>10.0</ele><time>2026-04-25T14:43:16Z</time></trkpt><trkpt lat="43.03161945975577" lon="10.612476242377264"><ele>10.0</ele><time>2026-04-25T14:43:17Z</time></trkpt><trkpt lat="43.03175745997099" lon="10.612485669716932"><ele>10.0</ele><time>2026-04-25T14:43:18Z</time></trkpt><trkpt lat="43.03189501309651" lon="10.612494013434711"><ele>10.0</ele><time>2026-04-25T14:43:19Z</time></trkpt><trkpt lat="43.032033584710135" lon="10.61248326109284"><ele>10.0</ele><time>2026-04-25T14:43:20Z</time></trkpt><trkpt lat="43.032171010574125" lon="10.612489186828439"><ele>10.0</ele><time>2026-04-25T14:43:21Z</time></trkpt><trkpt lat="43.03231491897937" lon="10.612496232505615"><ele>10.0</ele><time>2026-04-25T14:43:22Z</time></trkpt><trkpt lat="43.03245461581866" lon="10.612527961492342"><ele>10.25</ele><time>2026-04-25T14:43:23Z</time></trkpt><trkpt lat="43.032595597926345" lon="10.612536881955574"><ele>10.5</ele><time>2026-04-25T14:43:24Z</time></trkpt><trkpt lat="43.032738501825136" lon="10.612545924017823"><ele>10.75</ele><time>2026-04-25T14:43:25Z</time></trkpt><trkpt lat="43.032879657529165" lon="10.612554912510996"><ele>11.0</ele><time>2026-04-25T14:43:26Z</time></trkpt><trkpt lat="43.03301879690121" lon="10.612563783511483"><ele>11.0</ele><time>2026-04-25T14:43:27Z</time></trkpt><trkpt lat="43.0331579639521" lon="10.612572656274525"><ele>11.0</ele><time>2026-04-25T14:43:28Z</time></trkpt><trkpt lat="43.0332947846146" lon="10.61255912438505"><ele>11.0</ele><time>2026-04-25T14:43:29Z</time></trkpt><trkpt lat="43.03342892418444" lon="10.612572005176624"><ele>11.0</ele><time>2026-04-25T14:43:30Z</time></trkpt><trkpt lat="43.0335645613371" lon="10.61258376940368"><ele>11.25</ele><time>2026-04-25T14:43:31Z</time></trkpt><trkpt lat="43.033696728424054" lon="10.612593177165573"><ele>11.5</ele><time>2026-04-25T14:43:32Z</time></trkpt><trkpt lat="43.033827356160224" lon="10.612600467355566"><ele>11.75</ele><time>2026-04-25T14:43:33Z</time></trkpt><trkpt lat="43.03396044962305" lon="10.612606562121897"><ele>12.0</ele><time>2026-04-25T14:43:34Z</time></trkpt><trkpt lat="43.034094185959106" lon="10.612619187718606"><ele>11.8</ele><time>2026-04-25T14:43:35Z</time></trkpt><trkpt lat="43.03421258411571" lon="10.612654503463686"><ele>11.6</ele><time>2026-04-25T14:43:36Z</time></trkpt><trkpt lat="43.034321921758696" lon="10.612638039568157"><ele>11.4</ele><time>2026-04-25T14:43:37Z</time></trkpt><trkpt lat="43.03441283092847" lon="10.6126547153498"><ele>11.200000000000001</ele><time>2026-04-25T14:43:38Z</time></trkpt><trkpt lat="43.034485905007735" lon="10.612670939819795"><ele>11.0</ele><time>2026-04-25T14:43:39Z</time></trkpt><trkpt lat="43.034548286842245" lon="10.61269643607087"><ele>11.0</ele><time>2026-04-25T14:43:40Z</time></trkpt><trkpt lat="43.03462677481404" lon="10.612787310299156"><ele>11.0</ele><time>2026-04-25T14:43:42Z</time></trkpt><trkpt lat="43.03467221225006" lon="10.612857178332982"><ele>11.0</ele><time>2026-04-25T14:43:43Z</time></trkpt><trkpt lat="43.03472575857573" lon="10.612937639758924"><ele>11.0</ele><time>2026-04-25T14:43:44Z</time></trkpt><trkpt lat="43.03477545395106" lon="10.613015445774066"><ele>11.0</ele><time>2026-04-25T14:43:45Z</time></trkpt><trkpt lat="43.03483267845362" lon="10.613098481385807"><ele>11.0</ele><time>2026-04-25T14:43:46Z</time></trkpt><trkpt lat="43.034856443626815" lon="10.613186862724751"><ele>11.4</ele><time>2026-04-25T14:43:47Z</time></trkpt><trkpt lat="43.03483577005668" lon="10.613298831223785"><ele>11.8</ele><time>2026-04-25T14:43:48Z</time></trkpt><trkpt lat="43.0348285052729" lon="10.613427574035445"><ele>12.200000000000001</ele><time>2026-04-25T14:43:49Z</time></trkpt><trkpt lat="43.034831543722355" lon="10.613569324072586"><ele>12.600000000000001</ele><time>2026-04-25T14:43:50Z</time></trkpt><trkpt lat="43.03480573654675" lon="10.613729315572089"><ele>13.0</ele><time>2026-04-25T14:43:51Z</time></trkpt><trkpt lat="43.03479866658077" lon="10.613891609092294"><ele>13.5</ele><time>2026-04-25T14:43:52Z</time></trkpt><trkpt lat="43.03479466494964" lon="10.614058601947235"><ele>14.0</ele><time>2026-04-25T14:43:53Z</time></trkpt><trkpt lat="43.034793547393505" lon="10.614237594680421"><ele>14.5</ele><time>2026-04-25T14:43:54Z</time></trkpt><trkpt lat="43.03479638436811" lon="10.614422916071334"><ele>15.0</ele><time>2026-04-25T14:43:55Z</time></trkpt><trkpt lat="43.03480207868219" lon="10.614610542583614"><ele>15.0</ele><time>2026-04-25T14:43:56Z</time></trkpt><trkpt lat="43.034824874578064" lon="10.61479645207056"><ele>15.0</ele><time>2026-04-25T14:43:57Z</time></trkpt><trkpt lat="43.034826010620186" lon="10.614991225694945"><ele>15.0</ele><time>2026-04-25T14:43:58Z</time></trkpt><trkpt lat="43.03484117048924" lon="10.615184546069507"><ele>15.0</ele><time>2026-04-25T14:43:59Z</time></trkpt><trkpt lat="43.03484823822951" lon="10.61537251364261"><ele>14.75</ele><time>2026-04-25T14:44:00Z</time></trkpt><trkpt lat="43.03486190292485" lon="10.615550472966756"><ele>14.5</ele><time>2026-04-25T14:44:01Z</time></trkpt><trkpt lat="43.034878877398924" lon="10.615731452324228"><ele>14.25</ele><time>2026-04-25T14:44:02Z</time></trkpt><trkpt lat="43.03490429861852" lon="10.615910618145707"><ele>14.0</ele><time>2026-04-25T14:44:03Z</time></trkpt><trkpt lat="43.03491898204824" lon="10.616088589110445"><ele>14.0</ele><time>2026-04-25T14:44:04Z</time></trkpt><trkpt lat="43.03492615399265" lon="10.616263109105281"><ele>14.0</ele><time>2026-04-25T14:44:05Z</time></trkpt><trkpt lat="43.034943369628635" lon="10.616446672329502"><ele>14.0</ele><time>2026-04-25T14:44:06Z</time></trkpt><trkpt lat="43.03495976414218" lon="10.616629905973618"><ele>14.0</ele><time>2026-04-25T14:44:07Z</time></trkpt><trkpt lat="43.034976277519405" lon="10.616816596836626"><ele>14.0</ele><time>2026-04-25T14:44:08Z</time></trkpt><trkpt lat="43.03499281271206" lon="10.617004061584225"><ele>14.0</ele><time>2026-04-25T14:44:09Z</time></trkpt><trkpt lat="43.03499807018169" lon="10.617192630756335"><ele>14.0</ele><time>2026-04-25T14:44:10Z</time></trkpt><trkpt lat="43.03501655106156" lon="10.617383594988041"><ele>14.0</ele><time>2026-04-25T14:44:11Z</time></trkpt><trkpt lat="43.03503409238684" lon="10.617574595650796"><ele>14.0</ele><time>2026-04-25T14:44:12Z</time></trkpt><trkpt lat="43.03505048040835" lon="10.617761145533018"><ele>14.0</ele><time>2026-04-25T14:44:13Z</time></trkpt><trkpt lat="43.03507033516586" lon="10.617943647712812"><ele>14.0</ele><time>2026-04-25T14:44:14Z</time></trkpt><trkpt lat="43.03509362748678" lon="10.618131036437457"><ele>14.0</ele><time>2026-04-25T14:44:15Z</time></trkpt><trkpt lat="43.03509999627958" lon="10.618319216532992"><ele>14.0</ele><time>2026-04-25T14:44:16Z</time></trkpt><trkpt lat="43.035129718272955" lon="10.618510149634206"><ele>14.0</ele><time>2026-04-25T14:44:17Z</time></trkpt><trkpt lat="43.0351570329025" lon="10.618711396518686"><ele>14.0</ele><time>2026-04-25T14:44:18Z</time></trkpt><trkpt lat="43.03518809831489" lon="10.618909355256388"><ele>14.0</ele><time>2026-04-25T14:44:19Z</time></trkpt><trkpt lat="43.0352262552757" lon="10.619107426966243"><ele>14.0</ele><time>2026-04-25T14:44:20Z</time></trkpt><trkpt lat="43.03526785447997" lon="10.619308146670901"><ele>14.0</ele><time>2026-04-25T14:44:21Z</time></trkpt><trkpt lat="43.035317498181776" lon="10.619507554049903"><ele>14.0</ele><time>2026-04-25T14:44:22Z</time></trkpt><trkpt lat="43.03537244803179" lon="10.619708415168068"><ele>14.0</ele><time>2026-04-25T14:44:23Z</time></trkpt><trkpt lat="43.03542918120879" lon="10.619909982337912"><ele>14.0</ele><time>2026-04-25T14:44:24Z</time></trkpt><trkpt lat="43.03549274680605" lon="10.620105609818548"><ele>14.0</ele><time>2026-04-25T14:44:25Z</time></trkpt><trkpt lat="43.03555528066179" lon="10.620302222576145"><ele>14.333333333333334</ele><time>2026-04-25T14:44:26Z</time></trkpt><trkpt lat="43.03562093645123" lon="10.62049090728045"><ele>14.666666666666668</ele><time>2026-04-25T14:44:27Z</time></trkpt><trkpt lat="43.03569197534253" lon="10.620676368257556"><ele>15.0</ele><time>2026-04-25T14:44:28Z</time></trkpt><trkpt lat="43.03576367209712" lon="10.620857622611336"><ele>15.0</ele><time>2026-04-25T14:44:29Z</time></trkpt><trkpt lat="43.03583680581693" lon="10.62103558294279"><ele>15.0</ele><time>2026-04-25T14:44:30Z</time></trkpt><trkpt lat="43.03590440183582" lon="10.621215512070034"><ele>15.0</ele><time>2026-04-25T14:44:31Z</time></trkpt><trkpt lat="43.03597438850313" lon="10.62139740105897"><ele>15.0</ele><time>2026-04-25T14:44:32Z</time></trkpt><trkpt lat="43.03603762792557" lon="10.621592293808797"><ele>15.333333333333332</ele><time>2026-04-25T14:44:33Z</time></trkpt><trkpt lat="43.036103833985024" lon="10.621790490610437"><ele>15.666666666666666</ele><time>2026-04-25T14:44:34Z</time></trkpt><trkpt lat="43.036165980651546" lon="10.621987201592761"><ele>16.0</ele><time>2026-04-25T14:44:35Z</time></trkpt><trkpt lat="43.036231676418105" lon="10.62218625920385"><ele>16.333333333333332</ele><time>2026-04-25T14:44:36Z</time></trkpt><trkpt lat="43.03629539752739" lon="10.622386032603641"><ele>16.666666666666668</ele><time>2026-04-25T14:44:37Z</time></trkpt><trkpt lat="43.03636528054439" lon="10.622582831847227"><ele>17.0</ele><time>2026-04-25T14:44:38Z</time></trkpt><trkpt lat="43.03643239266476" lon="10.622783411609738"><ele>18.0</ele><time>2026-04-25T14:44:39Z</time></trkpt><trkpt lat="43.03648388493766" lon="10.622983388935792"><ele>19.0</ele><time>2026-04-25T14:44:40Z</time></trkpt><trkpt lat="43.03655336434594" lon="10.623183037418816"><ele>20.0</ele><time>2026-04-25T14:44:41Z</time></trkpt><trkpt lat="43.0366203058467" lon="10.623380690180836"><ele>20.0</ele><time>2026-04-25T14:44:42Z</time></trkpt><trkpt lat="43.03668391959018" lon="10.623576073356466"><ele>20.0</ele><time>2026-04-25T14:44:43Z</time></trkpt><trkpt lat="43.03674792454598" lon="10.623768718810625"><ele>20.0</ele><time>2026-04-25T14:44:44Z</time></trkpt><trkpt lat="43.03680970113544" lon="10.623961386994177"><ele>19.333333333333336</ele><time>2026-04-25T14:44:45Z</time></trkpt><trkpt lat="43.03687519307377" lon="10.624151614207992"><ele>18.666666666666668</ele><time>2026-04-25T14:44:46Z</time></trkpt><trkpt lat="43.03693882315337" lon="10.624342366197986"><ele>18.0</ele><time>2026-04-25T14:44:47Z</time></trkpt><trkpt lat="43.037013265704324" lon="10.624531269571788"><ele>17.333333333333332</ele><time>2026-04-25T14:44:48Z</time></trkpt><trkpt lat="43.03708791545771" lon="10.624724277281654"><ele>16.666666666666664</ele><time>2026-04-25T14:44:49Z</time></trkpt><trkpt lat="43.03715391976484" lon="10.62492758772796"><ele>16.0</ele><time>2026-04-25T14:44:50Z</time></trkpt><trkpt lat="43.03726200241131" lon="10.625100507459159"><ele>16.0</ele><time>2026-04-25T14:44:51Z</time></trkpt><trkpt lat="43.037349672784224" lon="10.62529741762942"><ele>16.0</ele><time>2026-04-25T14:44:52Z</time></trkpt><trkpt lat="43.03745107216806" lon="10.625478604391853"><ele>16.0</ele><time>2026-04-25T14:44:53Z</time></trkpt><trkpt lat="43.03755156275024" lon="10.6256611052837"><ele>16.0</ele><time>2026-04-25T14:44:54Z</time></trkpt><trkpt lat="43.03765981772596" lon="10.625832386851505"><ele>16.0</ele><time>2026-04-25T14:44:55Z</time></trkpt><trkpt lat="43.03775103225708" lon="10.626018639111123"><ele>16.0</ele><time>2026-04-25T14:44:56Z</time></trkpt><trkpt lat="43.037837002589775" lon="10.626214479350608"><ele>16.0</ele><time>2026-04-25T14:44:57Z</time></trkpt><trkpt lat="43.03791949844378" lon="10.626409338397812"><ele>16.0</ele><time>2026-04-25T14:44:58Z</time></trkpt><trkpt lat="43.03798864483696" lon="10.62659638408234"><ele>16.0</ele><time>2026-04-25T14:44:59Z</time></trkpt><trkpt lat="43.038065882011054" lon="10.626782547071208"><ele>16.0</ele><time>2026-04-25T14:45:00Z</time></trkpt><trkpt lat="43.038144256325964" lon="10.626965181674944"><ele>16.0</ele><time>2026-04-25T14:45:01Z</time></trkpt><trkpt lat="43.03820557509987" lon="10.627158921894651"><ele>16.0</ele><time>2026-04-25T14:45:02Z</time></trkpt><trkpt lat="43.03829317250715" lon="10.62733033484519"><ele>16.666666666666664</ele><time>2026-04-25T14:45:03Z</time></trkpt><trkpt lat="43.03836639511039" lon="10.627511406771912"><ele>17.333333333333332</ele><time>2026-04-25T14:45:04Z</time></trkpt><trkpt lat="43.03842842424935" lon="10.627706697856413"><ele>18.0</ele><time>2026-04-25T14:45:05Z</time></trkpt><trkpt lat="43.03850320531363" lon="10.627890744227901"><ele>18.0</ele><time>2026-04-25T14:45:06Z</time></trkpt><trkpt lat="43.038579948219905" lon="10.628065268595368"><ele>18.0</ele><time>2026-04-25T14:45:07Z</time></trkpt><trkpt lat="43.038654566461425" lon="10.62825068373121"><ele>18.0</ele><time>2026-04-25T14:45:08Z</time></trkpt><trkpt lat="43.03872714379337" lon="10.628436539238994"><ele>18.0</ele><time>2026-04-25T14:45:09Z</time></trkpt><trkpt lat="43.038793454979725" lon="10.6286295791934"><ele>18.0</ele><time>2026-04-25T14:45:10Z</time></trkpt><trkpt lat="43.038850181376795" lon="10.628832845460003"><ele>18.0</ele><time>2026-04-25T14:45:11Z</time></trkpt><trkpt lat="43.03888887285001" lon="10.629044793368477"><ele>18.0</ele><time>2026-04-25T14:45:12Z</time></trkpt><trkpt lat="43.03892477026009" lon="10.62925721163235"><ele>18.0</ele><time>2026-04-25T14:45:13Z</time></trkpt><trkpt lat="43.0389613714839" lon="10.62947009265471"><ele>18.0</ele><time>2026-04-25T14:45:14Z</time></trkpt><trkpt lat="43.03899382416729" lon="10.629687144915454"><ele>18.0</ele><time>2026-04-25T14:45:15Z</time></trkpt><trkpt lat="43.03903467441221" lon="10.629899720589325"><ele>18.0</ele><time>2026-04-25T14:45:16Z</time></trkpt><trkpt lat="43.03905869832491" lon="10.630116595834986"><ele>18.0</ele><time>2026-04-25T14:45:17Z</time></trkpt><trkpt lat="43.03909368693064" lon="10.630323712698605"><ele>18.0</ele><time>2026-04-25T14:45:18Z</time></trkpt><trkpt lat="43.0391247313177" lon="10.630519211161333"><ele>18.0</ele><time>2026-04-25T14:45:19Z</time></trkpt><trkpt lat="43.03915896612752" lon="10.630714023292853"><ele>18.0</ele><time>2026-04-25T14:45:20Z</time></trkpt><trkpt lat="43.03919895048362" lon="10.630914934472104"><ele>18.0</ele><time>2026-04-25T14:45:21Z</time></trkpt><trkpt lat="43.03924587464869" lon="10.63111940044396"><ele>19.0</ele><time>2026-04-25T14:45:22Z</time></trkpt><trkpt lat="43.03929554159806" lon="10.63132126112761"><ele>20.0</ele><time>2026-04-25T14:45:23Z</time></trkpt><trkpt lat="43.03935233770349" lon="10.631522863104346"><ele>21.0</ele><time>2026-04-25T14:45:24Z</time></trkpt><trkpt lat="43.03942267662518" lon="10.631712565734912"><ele>21.0</ele><time>2026-04-25T14:45:25Z</time></trkpt><trkpt lat="43.03950120306047" lon="10.631895468667473"><ele>21.0</ele><time>2026-04-25T14:45:26Z</time></trkpt><trkpt lat="43.03959594867082" lon="10.632073087381372"><ele>21.0</ele><time>2026-04-25T14:45:27Z</time></trkpt><trkpt lat="43.03968560320965" lon="10.632245635408367"><ele>20.666666666666668</ele><time>2026-04-25T14:45:28Z</time></trkpt><trkpt lat="43.039773920451545" lon="10.632422524313236"><ele>20.333333333333336</ele><time>2026-04-25T14:45:29Z</time></trkpt><trkpt lat="43.039861584970645" lon="10.632600292375548"><ele>20.0</ele><time>2026-04-25T14:45:30Z</time></trkpt><trkpt lat="43.039951199767714" lon="10.63277576172401"><ele>20.666666666666668</ele><time>2026-04-25T14:45:31Z</time></trkpt><trkpt lat="43.04004159326604" lon="10.632949146082431"><ele>21.333333333333332</ele><time>2026-04-25T14:45:32Z</time></trkpt><trkpt lat="43.04013550093297" lon="10.63311612215244"><ele>22.0</ele><time>2026-04-25T14:45:33Z</time></trkpt><trkpt lat="43.04023430234856" lon="10.633280832935249"><ele>22.0</ele><time>2026-04-25T14:45:34Z</time></trkpt><trkpt lat="43.04032745805229" lon="10.633444973268594"><ele>22.0</ele><time>2026-04-25T14:45:35Z</time></trkpt><trkpt lat="43.04042227344292" lon="10.633613734127396"><ele>22.0</ele><time>2026-04-25T14:45:36Z</time></trkpt><trkpt lat="43.04051539018183" lon="10.633789899495733"><ele>21.333333333333332</ele><time>2026-04-25T14:45:37Z</time></trkpt><trkpt lat="43.04061209323638" lon="10.633964693068368"><ele>20.666666666666668</ele><time>2026-04-25T14:45:38Z</time></trkpt><trkpt lat="43.04070351173084" lon="10.63414433591577"><ele>20.0</ele><time>2026-04-25T14:45:39Z</time></trkpt><trkpt lat="43.040776449853055" lon="10.63433928075118"><ele>21.0</ele><time>2026-04-25T14:45:40Z</time></trkpt><trkpt lat="43.04087061546519" lon="10.63452253201413"><ele>22.0</ele><time>2026-04-25T14:45:41Z</time></trkpt><trkpt lat="43.040962796711334" lon="10.63470218653794"><ele>23.0</ele><time>2026-04-25T14:45:42Z</time></trkpt><trkpt lat="43.041047656706205" lon="10.634872264408424"><ele>23.0</ele><time>2026-04-25T14:45:43Z</time></trkpt><trkpt lat="43.041131001055035" lon="10.635048373825558"><ele>23.0</ele><time>2026-04-25T14:45:44Z</time></trkpt><trkpt lat="43.04121121698968" lon="10.63522237575941"><ele>23.0</ele><time>2026-04-25T14:45:45Z</time></trkpt><trkpt lat="43.041286972781876" lon="10.635390153326417"><ele>23.0</ele><time>2026-04-25T14:45:46Z</time></trkpt><trkpt lat="43.041355364229084" lon="10.635545041301176"><ele>23.0</ele><time>2026-04-25T14:45:47Z</time></trkpt><trkpt lat="43.04142135022351" lon="10.635693376830245"><ele>23.0</ele><time>2026-04-25T14:45:48Z</time></trkpt><trkpt lat="43.04147682496007" lon="10.63582660383616"><ele>23.0</ele><time>2026-04-25T14:45:49Z</time></trkpt><trkpt lat="43.04152248229807" lon="10.635947967099002"><ele>23.0</ele><time>2026-04-25T14:45:50Z</time></trkpt><trkpt lat="43.04157162225364" lon="10.6360678628528"><ele>23.0</ele><time>2026-04-25T14:45:51Z</time></trkpt><trkpt lat="43.041622165350574" lon="10.636188717961728"><ele>23.599999999999998</ele><time>2026-04-25T14:45:52Z</time></trkpt><trkpt lat="43.041669694018694" lon="10.636310316146844"><ele>24.2</ele><time>2026-04-25T14:45:53Z</time></trkpt><trkpt lat="43.041718708282986" lon="10.636433200487968"><ele>24.8</ele><time>2026-04-25T14:45:54Z</time></trkpt><trkpt lat="43.041766862057486" lon="10.636557013987312"><ele>25.4</ele><time>2026-04-25T14:45:55Z</time></trkpt><trkpt lat="43.04181987575953" lon="10.636682390502504"><ele>26.0</ele><time>2026-04-25T14:45:56Z</time></trkpt><trkpt lat="43.04187281167617" lon="10.636798181534768"><ele>26.0</ele><time>2026-04-25T14:45:57Z</time></trkpt><trkpt lat="43.041914097563605" lon="10.636911128392981"><ele>26.0</ele><time>2026-04-25T14:45:58Z</time></trkpt><trkpt lat="43.041954293867796" lon="10.637028201163822"><ele>26.0</ele><time>2026-04-25T14:45:59Z</time></trkpt><trkpt lat="43.041981626158005" lon="10.637161975511217"><ele>26.0</ele><time>2026-04-25T14:46:00Z</time></trkpt><trkpt lat="43.042026406412106" lon="10.637284014930067"><ele>26.0</ele><time>2026-04-25T14:46:01Z</time></trkpt><trkpt lat="43.04207510121826" lon="10.637412105214667"><ele>26.0</ele><time>2026-04-25T14:46:02Z</time></trkpt><trkpt lat="43.04212661946307" lon="10.637537231110723"><ele>26.0</ele><time>2026-04-25T14:46:03Z</time></trkpt><trkpt lat="43.042177489214446" lon="10.63764947994012"><ele>26.0</ele><time>2026-04-25T14:46:04Z</time></trkpt><trkpt lat="43.04223374484971" lon="10.637760061213552"><ele>26.0</ele><time>2026-04-25T14:46:05Z</time></trkpt><trkpt lat="43.04228441416827" lon="10.637856831857171"><ele>26.0</ele><time>2026-04-25T14:46:06Z</time></trkpt><trkpt lat="43.04232364041037" lon="10.637930225351901"><ele>25.833333333333332</ele><time>2026-04-25T14:46:07Z</time></trkpt><trkpt lat="43.04236672612943" lon="10.638010418942484"><ele>25.666666666666664</ele><time>2026-04-25T14:46:08Z</time></trkpt><trkpt lat="43.04241474608275" lon="10.638094696963968"><ele>25.5</ele><time>2026-04-25T14:46:09Z</time></trkpt><trkpt lat="43.04246218335707" lon="10.638181328174468"><ele>25.333333333333336</ele><time>2026-04-25T14:46:10Z</time></trkpt><trkpt lat="43.042512187707864" lon="10.638274766640697"><ele>25.166666666666668</ele><time>2026-04-25T14:46:11Z</time></trkpt><trkpt lat="43.04255483005144" lon="10.63837501070051"><ele>25.0</ele><time>2026-04-25T14:46:12Z</time></trkpt><trkpt lat="43.042599732047144" lon="10.638484490057447"><ele>25.0</ele><time>2026-04-25T14:46:13Z</time></trkpt><trkpt lat="43.042640595827336" lon="10.638600110240487"><ele>25.0</ele><time>2026-04-25T14:46:14Z</time></trkpt><trkpt lat="43.04268183249992" lon="10.63872361015598"><ele>25.0</ele><time>2026-04-25T14:46:15Z</time></trkpt><trkpt lat="43.04272223788507" lon="10.638850865554085"><ele>25.0</ele><time>2026-04-25T14:46:16Z</time></trkpt><trkpt lat="43.04276070577098" lon="10.638972018672886"><ele>25.0</ele><time>2026-04-25T14:46:17Z</time></trkpt><trkpt lat="43.04280080720721" lon="10.639095630755708"><ele>25.0</ele><time>2026-04-25T14:46:18Z</time></trkpt><trkpt lat="43.04284167557484" lon="10.63922183019045"><ele>25.0</ele><time>2026-04-25T14:46:19Z</time></trkpt><trkpt lat="43.042882007247" lon="10.639343887211517"><ele>25.0</ele><time>2026-04-25T14:46:20Z</time></trkpt><trkpt lat="43.04292807248586" lon="10.63946931206545"><ele>25.0</ele><time>2026-04-25T14:46:21Z</time></trkpt><trkpt lat="43.04298376383853" lon="10.639594362449627"><ele>25.0</ele><time>2026-04-25T14:46:22Z</time></trkpt><trkpt lat="43.0430425980431" lon="10.639712958000242"><ele>25.0</ele><time>2026-04-25T14:46:23Z</time></trkpt><trkpt lat="43.04311904097969" lon="10.639810308009901"><ele>25.0</ele><time>2026-04-25T14:46:24Z</time></trkpt><trkpt lat="43.043184509625966" lon="10.639908766898506"><ele>25.0</ele><time>2026-04-25T14:46:25Z</time></trkpt><trkpt lat="43.04325953102356" lon="10.640003884841269"><ele>25.0</ele><time>2026-04-25T14:46:26Z</time></trkpt><trkpt lat="43.04334049892931" lon="10.640096471084163"><ele>25.0</ele><time>2026-04-25T14:46:27Z</time></trkpt><trkpt lat="43.04342417943701" lon="10.64018907474354"><ele>25.0</ele><time>2026-04-25T14:46:28Z</time></trkpt><trkpt lat="43.04350817364011" lon="10.64027745140332"><ele>25.0</ele><time>2026-04-25T14:46:29Z</time></trkpt><trkpt lat="43.043597720450414" lon="10.6403695077018"><ele>25.0</ele><time>2026-04-25T14:46:30Z</time></trkpt><trkpt lat="43.04369227706185" lon="10.640466136954421"><ele>25.0</ele><time>2026-04-25T14:46:31Z</time></trkpt><trkpt lat="43.0437811272592" lon="10.640572554088369"><ele>24.75</ele><time>2026-04-25T14:46:32Z</time></trkpt><trkpt lat="43.043861938454725" lon="10.640677169312685"><ele>24.5</ele><time>2026-04-25T14:46:33Z</time></trkpt><trkpt lat="43.04393947597085" lon="10.640800176663623"><ele>24.25</ele><time>2026-04-25T14:46:34Z</time></trkpt><trkpt lat="43.04401841119634" lon="10.640915216400902"><ele>24.0</ele><time>2026-04-25T14:46:35Z</time></trkpt><trkpt lat="43.04409560852487" lon="10.641030586342742"><ele>23.0</ele><time>2026-04-25T14:46:36Z</time></trkpt><trkpt lat="43.04417362970369" lon="10.641147293170516"><ele>22.0</ele><time>2026-04-25T14:46:37Z</time></trkpt><trkpt lat="43.04426137595957" lon="10.641249508969675"><ele>21.0</ele><time>2026-04-25T14:46:38Z</time></trkpt><trkpt lat="43.04434108241434" lon="10.641369988029254"><ele>20.0</ele><time>2026-04-25T14:46:39Z</time></trkpt><trkpt lat="43.044416548244456" lon="10.641493184671083"><ele>20.0</ele><time>2026-04-25T14:46:40Z</time></trkpt><trkpt lat="43.04449425608784" lon="10.641610097254844"><ele>20.0</ele><time>2026-04-25T14:46:41Z</time></trkpt><trkpt lat="43.0445502712695" lon="10.64173089286559"><ele>20.0</ele><time>2026-04-25T14:46:42Z</time></trkpt><trkpt lat="43.04462380652134" lon="10.641849390597546"><ele>20.0</ele><time>2026-04-25T14:46:43Z</time></trkpt><trkpt lat="43.04470259534872" lon="10.641970949457173"><ele>20.0</ele><time>2026-04-25T14:46:44Z</time></trkpt><trkpt lat="43.044788211437506" lon="10.642107889708457"><ele>20.0</ele><time>2026-04-25T14:46:45Z</time></trkpt><trkpt lat="43.04487487126402" lon="10.642245627816076"><ele>20.0</ele><time>2026-04-25T14:46:46Z</time></trkpt><trkpt lat="43.04496660257404" lon="10.642379598569825"><ele>20.0</ele><time>2026-04-25T14:46:47Z</time></trkpt><trkpt lat="43.045059421229425" lon="10.642520140600716"><ele>20.0</ele><time>2026-04-25T14:46:48Z</time></trkpt><trkpt lat="43.04515188380673" lon="10.642662163897821"><ele>20.0</ele><time>2026-04-25T14:46:49Z</time></trkpt><trkpt lat="43.04524576443444" lon="10.642803323530405"><ele>20.0</ele><time>2026-04-25T14:46:50Z</time></trkpt><trkpt lat="43.04534123261757" lon="10.642940153282993"><ele>20.0</ele><time>2026-04-25T14:46:51Z</time></trkpt><trkpt lat="43.04543501095418" lon="10.64308195877591"><ele>19.75</ele><time>2026-04-25T14:46:52Z</time></trkpt><trkpt lat="43.045536786262446" lon="10.643224916964307"><ele>19.5</ele><time>2026-04-25T14:46:53Z</time></trkpt><trkpt lat="43.04563241346718" lon="10.643370127268126"><ele>19.25</ele><time>2026-04-25T14:46:54Z</time></trkpt><trkpt lat="43.045729760158345" lon="10.643513061757716"><ele>19.0</ele><time>2026-04-25T14:46:55Z</time></trkpt><trkpt lat="43.04582418568135" lon="10.643654419216087"><ele>19.5</ele><time>2026-04-25T14:46:56Z</time></trkpt><trkpt lat="43.04591402490539" lon="10.643795669890254"><ele>20.0</ele><time>2026-04-25T14:46:57Z</time></trkpt><trkpt lat="43.046002973500975" lon="10.643935544768198"><ele>20.5</ele><time>2026-04-25T14:46:58Z</time></trkpt><trkpt lat="43.04608469831858" lon="10.644085620853119"><ele>21.0</ele><time>2026-04-25T14:46:59Z</time></trkpt><trkpt lat="43.046156051702994" lon="10.644242109953213"><ele>21.0</ele><time>2026-04-25T14:47:00Z</time></trkpt><trkpt lat="43.04621952262935" lon="10.64440714182389"><ele>21.0</ele><time>2026-04-25T14:47:01Z</time></trkpt><trkpt lat="43.04627569487801" lon="10.644579466683041"><ele>21.0</ele><time>2026-04-25T14:47:02Z</time></trkpt><trkpt lat="43.046331795015895" lon="10.64474849975472"><ele>21.0</ele><time>2026-04-25T14:47:03Z</time></trkpt><trkpt lat="43.04639337890056" lon="10.644923373737951"><ele>20.25</ele><time>2026-04-25T14:47:04Z</time></trkpt><trkpt lat="43.04645217867002" lon="10.64509604698512"><ele>19.5</ele><time>2026-04-25T14:47:05Z</time></trkpt><trkpt lat="43.046507802706955" lon="10.64526179121047"><ele>18.75</ele><time>2026-04-25T14:47:06Z</time></trkpt><trkpt lat="43.04655852131093" lon="10.645427069876986"><ele>18.0</ele><time>2026-04-25T14:47:07Z</time></trkpt><trkpt lat="43.046613762983775" lon="10.645590909513055"><ele>18.5</ele><time>2026-04-25T14:47:08Z</time></trkpt><trkpt lat="43.04666952623304" lon="10.645758016860837"><ele>19.0</ele><time>2026-04-25T14:47:09Z</time></trkpt><trkpt lat="43.04672491223729" lon="10.645927784607364"><ele>19.5</ele><time>2026-04-25T14:47:10Z</time></trkpt><trkpt lat="43.04678274991212" lon="10.646092734861792"><ele>20.0</ele><time>2026-04-25T14:47:11Z</time></trkpt><trkpt lat="43.04685250833445" lon="10.646250530793896"><ele>20.0</ele><time>2026-04-25T14:47:12Z</time></trkpt><trkpt lat="43.046931559763344" lon="10.646401073440872"><ele>20.0</ele><time>2026-04-25T14:47:13Z</time></trkpt><trkpt lat="43.0470223276611" lon="10.646544266789425"><ele>20.0</ele><time>2026-04-25T14:47:14Z</time></trkpt><trkpt lat="43.04712090991904" lon="10.64668300996694"><ele>20.0</ele><time>2026-04-25T14:47:15Z</time></trkpt><trkpt lat="43.04722929009291" lon="10.646810949388497"><ele>20.0</ele><time>2026-04-25T14:47:16Z</time></trkpt><trkpt lat="43.04734179116421" lon="10.646936124096525"><ele>20.0</ele><time>2026-04-25T14:47:17Z</time></trkpt><trkpt lat="43.04745986023749" lon="10.647065234415688"><ele>20.0</ele><time>2026-04-25T14:47:18Z</time></trkpt><trkpt lat="43.0475666631233" lon="10.64719891885577"><ele>20.0</ele><time>2026-04-25T14:47:19Z</time></trkpt><trkpt lat="43.04767714189632" lon="10.647330729063862"><ele>20.333333333333336</ele><time>2026-04-25T14:47:20Z</time></trkpt><trkpt lat="43.0477877867097" lon="10.647466115039418"><ele>20.666666666666668</ele><time>2026-04-25T14:47:21Z</time></trkpt><trkpt lat="43.047900814781464" lon="10.647613472819817"><ele>21.0</ele><time>2026-04-25T14:47:22Z</time></trkpt><trkpt lat="43.048013827498615" lon="10.647747963531815"><ele>21.0</ele><time>2026-04-25T14:47:23Z</time></trkpt><trkpt lat="43.04812848292923" lon="10.647894751212108"><ele>21.0</ele><time>2026-04-25T14:47:24Z</time></trkpt><trkpt lat="43.048248241597086" lon="10.648044144561709"><ele>21.0</ele><time>2026-04-25T14:47:25Z</time></trkpt><trkpt lat="43.048365971530664" lon="10.648194963823682"><ele>21.0</ele><time>2026-04-25T14:47:26Z</time></trkpt><trkpt lat="43.048487541154046" lon="10.64834369332889"><ele>21.0</ele><time>2026-04-25T14:47:27Z</time></trkpt><trkpt lat="43.0486017142128" lon="10.648497104941049"><ele>21.0</ele><time>2026-04-25T14:47:28Z</time></trkpt><trkpt lat="43.04872057846815" lon="10.648644658268392"><ele>20.333333333333332</ele><time>2026-04-25T14:47:29Z</time></trkpt><trkpt lat="43.04884378263913" lon="10.648789897529566"><ele>19.666666666666664</ele><time>2026-04-25T14:47:30Z</time></trkpt><trkpt lat="43.048969826405546" lon="10.648931385980568"><ele>19.0</ele><time>2026-04-25T14:47:31Z</time></trkpt><trkpt lat="43.049097682910734" lon="10.649067287931006"><ele>19.333333333333332</ele><time>2026-04-25T14:47:32Z</time></trkpt><trkpt lat="43.04922595259283" lon="10.649199845830852"><ele>19.666666666666668</ele><time>2026-04-25T14:47:33Z</time></trkpt><trkpt lat="43.049351254023804" lon="10.649330204519554"><ele>20.0</ele><time>2026-04-25T14:47:34Z</time></trkpt><trkpt lat="43.049476000735204" lon="10.64945998136374"><ele>20.0</ele><time>2026-04-25T14:47:35Z</time></trkpt><trkpt lat="43.04960101231606" lon="10.64958450135089"><ele>20.0</ele><time>2026-04-25T14:47:36Z</time></trkpt><trkpt lat="43.04973141069009" lon="10.649710171710108"><ele>20.0</ele><time>2026-04-25T14:47:37Z</time></trkpt><trkpt lat="43.04986012618271" lon="10.649844232661094"><ele>21.0</ele><time>2026-04-25T14:47:38Z</time></trkpt><trkpt lat="43.04998768563684" lon="10.649983574655723"><ele>22.0</ele><time>2026-04-25T14:47:39Z</time></trkpt><trkpt lat="43.050109404554874" lon="10.65012891557391"><ele>23.0</ele><time>2026-04-25T14:47:40Z</time></trkpt><trkpt lat="43.05022637860198" lon="10.650283808256228"><ele>23.0</ele><time>2026-04-25T14:47:41Z</time></trkpt><trkpt lat="43.050342574535875" lon="10.650441364109222"><ele>23.0</ele><time>2026-04-25T14:47:42Z</time></trkpt><trkpt lat="43.05045655971685" lon="10.650603972617269"><ele>23.0</ele><time>2026-04-25T14:47:43Z</time></trkpt><trkpt lat="43.05057754974578" lon="10.650764456653462"><ele>23.0</ele><time>2026-04-25T14:47:44Z</time></trkpt><trkpt lat="43.050700248811665" lon="10.650919758598887"><ele>23.0</ele><time>2026-04-25T14:47:45Z</time></trkpt><trkpt lat="43.05082685767897" lon="10.65107271563342"><ele>23.0</ele><time>2026-04-25T14:47:46Z</time></trkpt><trkpt lat="43.050963086959726" lon="10.651217806142723"><ele>22.666666666666668</ele><time>2026-04-25T14:47:47Z</time></trkpt><trkpt lat="43.05109515170111" lon="10.651352736829102"><ele>22.333333333333332</ele><time>2026-04-25T14:47:48Z</time></trkpt><trkpt lat="43.05121820870502" lon="10.651482091424851"><ele>22.0</ele><time>2026-04-25T14:47:49Z</time></trkpt><trkpt lat="43.051332076705265" lon="10.651608414143146"><ele>22.0</ele><time>2026-04-25T14:47:50Z</time></trkpt><trkpt lat="43.05144507863055" lon="10.651730833977188"><ele>22.0</ele><time>2026-04-25T14:47:51Z</time></trkpt><trkpt lat="43.05154266113415" lon="10.651854681308693"><ele>22.0</ele><time>2026-04-25T14:47:52Z</time></trkpt><trkpt lat="43.05165131479904" lon="10.652019314160968"><ele>22.0</ele><time>2026-04-25T14:47:53Z</time></trkpt><trkpt lat="43.05175215814488" lon="10.65218036898526"><ele>23.0</ele><time>2026-04-25T14:47:54Z</time></trkpt><trkpt lat="43.051828293519364" lon="10.652374872181465"><ele>24.0</ele><time>2026-04-25T14:47:55Z</time></trkpt><trkpt lat="43.05190735757944" lon="10.652558759453774"><ele>25.0</ele><time>2026-04-25T14:47:56Z</time></trkpt><trkpt lat="43.05199890232741" lon="10.652723778988918"><ele>24.333333333333336</ele><time>2026-04-25T14:47:57Z</time></trkpt><trkpt lat="43.05210423859333" lon="10.652882103589372"><ele>23.666666666666668</ele><time>2026-04-25T14:47:58Z</time></trkpt><trkpt lat="43.05222405912398" lon="10.653025939387907"><ele>23.0</ele><time>2026-04-25T14:47:59Z</time></trkpt><trkpt lat="43.05234931673507" lon="10.653162821556933"><ele>23.666666666666668</ele><time>2026-04-25T14:48:00Z</time></trkpt><trkpt lat="43.052470626322396" lon="10.653313578539384"><ele>24.333333333333336</ele><time>2026-04-25T14:48:01Z</time></trkpt><trkpt lat="43.052593261132316" lon="10.65347304847536"><ele>25.0</ele><time>2026-04-25T14:48:02Z</time></trkpt><trkpt lat="43.05271035973142" lon="10.653642511877184"><ele>25.0</ele><time>2026-04-25T14:48:03Z</time></trkpt><trkpt lat="43.0528070883311" lon="10.653838167884665"><ele>25.0</ele><time>2026-04-25T14:48:04Z</time></trkpt><trkpt lat="43.0529087090829" lon="10.654022406949945"><ele>25.0</ele><time>2026-04-25T14:48:05Z</time></trkpt><trkpt lat="43.053009707871354" lon="10.654206894603867"><ele>25.0</ele><time>2026-04-25T14:48:06Z</time></trkpt><trkpt lat="43.053113117665326" lon="10.654384696718392"><ele>25.0</ele><time>2026-04-25T14:48:07Z</time></trkpt><trkpt lat="43.05321400827046" lon="10.654557007806918"><ele>25.0</ele><time>2026-04-25T14:48:08Z</time></trkpt><trkpt lat="43.05331797010618" lon="10.654732622992618"><ele>26.0</ele><time>2026-04-25T14:48:09Z</time></trkpt><trkpt lat="43.05344062163575" lon="10.654892609545978"><ele>27.0</ele><time>2026-04-25T14:48:10Z</time></trkpt><trkpt lat="43.05355473342958" lon="10.655065807648938"><ele>28.0</ele><time>2026-04-25T14:48:11Z</time></trkpt><trkpt lat="43.05366910823483" lon="10.655238078310882"><ele>27.0</ele><time>2026-04-25T14:48:12Z</time></trkpt><trkpt lat="43.053783768421226" lon="10.655407019616112"><ele>26.0</ele><time>2026-04-25T14:48:13Z</time></trkpt><trkpt lat="43.05389266647883" lon="10.655581010151653"><ele>25.0</ele><time>2026-04-25T14:48:14Z</time></trkpt><trkpt lat="43.05399003246981" lon="10.655763452200416"><ele>25.0</ele><time>2026-04-25T14:48:15Z</time></trkpt><trkpt lat="43.054083836046416" lon="10.655964552529026"><ele>25.0</ele><time>2026-04-25T14:48:16Z</time></trkpt><trkpt lat="43.05416937461892" lon="10.65616164307523"><ele>25.0</ele><time>2026-04-25T14:48:17Z</time></trkpt><trkpt lat="43.05425828240465" lon="10.656354795832746"><ele>25.333333333333336</ele><time>2026-04-25T14:48:18Z</time></trkpt><trkpt lat="43.0543290766959" lon="10.656556574776573"><ele>25.666666666666664</ele><time>2026-04-25T14:48:19Z</time></trkpt><trkpt lat="43.05442211692395" lon="10.656748233260798"><ele>26.0</ele><time>2026-04-25T14:48:20Z</time></trkpt><trkpt lat="43.05452096806393" lon="10.656934131104517"><ele>25.666666666666664</ele><time>2026-04-25T14:48:21Z</time></trkpt><trkpt lat="43.054630782213636" lon="10.65711401198871"><ele>25.333333333333336</ele><time>2026-04-25T14:48:22Z</time></trkpt><trkpt lat="43.05475207118871" lon="10.657288655895037"><ele>25.0</ele><time>2026-04-25T14:48:23Z</time></trkpt><trkpt lat="43.05486792476713" lon="10.657451565681905"><ele>25.333333333333336</ele><time>2026-04-25T14:48:24Z</time></trkpt><trkpt lat="43.05498483553131" lon="10.65761364163655"><ele>25.666666666666664</ele><time>2026-04-25T14:48:25Z</time></trkpt><trkpt lat="43.05510138290764" lon="10.657768615937124"><ele>26.0</ele><time>2026-04-25T14:48:26Z</time></trkpt><trkpt lat="43.05522901169142" lon="10.657923726204501"><ele>26.333333333333332</ele><time>2026-04-25T14:48:27Z</time></trkpt><trkpt lat="43.05537451466126" lon="10.658044322925305"><ele>26.666666666666664</ele><time>2026-04-25T14:48:28Z</time></trkpt><trkpt lat="43.05551460094886" lon="10.658174990704811"><ele>27.0</ele><time>2026-04-25T14:48:29Z</time></trkpt><trkpt lat="43.05565745579866" lon="10.658294065797971"><ele>27.0</ele><time>2026-04-25T14:48:30Z</time></trkpt><trkpt lat="43.05580094330075" lon="10.658422513416149"><ele>27.0</ele><time>2026-04-25T14:48:31Z</time></trkpt><trkpt lat="43.0559437197459" lon="10.658552310286263"><ele>27.0</ele><time>2026-04-25T14:48:32Z</time></trkpt><trkpt lat="43.056085707325" lon="10.658689957707528"><ele>27.0</ele><time>2026-04-25T14:48:33Z</time></trkpt><trkpt lat="43.056219159752125" lon="10.658853107235252"><ele>27.0</ele><time>2026-04-25T14:48:34Z</time></trkpt><trkpt lat="43.05636403374137" lon="10.659008989148614"><ele>27.0</ele><time>2026-04-25T14:48:35Z</time></trkpt><trkpt lat="43.056496228451124" lon="10.659153659626366"><ele>27.666666666666664</ele><time>2026-04-25T14:48:36Z</time></trkpt><trkpt lat="43.056634469942196" lon="10.659293157445408"><ele>28.333333333333332</ele><time>2026-04-25T14:48:37Z</time></trkpt><trkpt lat="43.056778306189784" lon="10.659427595195409"><ele>29.0</ele><time>2026-04-25T14:48:38Z</time></trkpt><trkpt lat="43.05691974213944" lon="10.659556366208047"><ele>29.0</ele><time>2026-04-25T14:48:39Z</time></trkpt><trkpt lat="43.05706592650188" lon="10.659681805305341"><ele>29.0</ele><time>2026-04-25T14:48:40Z</time></trkpt><trkpt lat="43.05721643975493" lon="10.659810991646117"><ele>29.0</ele><time>2026-04-25T14:48:41Z</time></trkpt><trkpt lat="43.057364977805896" lon="10.659940205294747"><ele>28.666666666666664</ele><time>2026-04-25T14:48:42Z</time></trkpt><trkpt lat="43.057515510977424" lon="10.660071154453131"><ele>28.333333333333336</ele><time>2026-04-25T14:48:43Z</time></trkpt><trkpt lat="43.05766326115258" lon="10.660199682745576"><ele>28.0</ele><time>2026-04-25T14:48:44Z</time></trkpt><trkpt lat="43.057817061610855" lon="10.660331168095146"><ele>28.0</ele><time>2026-04-25T14:48:45Z</time></trkpt><trkpt lat="43.057968702635655" lon="10.660460696616246"><ele>28.0</ele><time>2026-04-25T14:48:46Z</time></trkpt><trkpt lat="43.05811286676134" lon="10.660590937095147"><ele>28.0</ele><time>2026-04-25T14:48:47Z</time></trkpt><trkpt lat="43.0582527243004" lon="10.660736511914495"><ele>29.333333333333336</ele><time>2026-04-25T14:48:48Z</time></trkpt><trkpt lat="43.05837933344047" lon="10.660893250719106"><ele>30.666666666666664</ele><time>2026-04-25T14:48:49Z</time></trkpt><trkpt lat="43.05850105637641" lon="10.661064775725032"><ele>32.0</ele><time>2026-04-25T14:48:50Z</time></trkpt><trkpt lat="43.05862314740933" lon="10.661242973272747"><ele>32.0</ele><time>2026-04-25T14:48:51Z</time></trkpt><trkpt lat="43.058743663903066" lon="10.661419254885367"><ele>32.0</ele><time>2026-04-25T14:48:52Z</time></trkpt><trkpt lat="43.058864506943074" lon="10.661591758347424"><ele>32.0</ele><time>2026-04-25T14:48:53Z</time></trkpt><trkpt lat="43.05898840697053" lon="10.661768571111203"><ele>32.0</ele><time>2026-04-25T14:48:54Z</time></trkpt><trkpt lat="43.059104516337534" lon="10.661934264487877"><ele>32.0</ele><time>2026-04-25T14:48:55Z</time></trkpt><trkpt lat="43.05922362369298" lon="10.662095756180225"><ele>32.0</ele><time>2026-04-25T14:48:56Z</time></trkpt><trkpt lat="43.05935886605049" lon="10.66224834867102"><ele>31.666666666666664</ele><time>2026-04-25T14:48:57Z</time></trkpt><trkpt lat="43.05951908548465" lon="10.662387844905611"><ele>31.333333333333336</ele><time>2026-04-25T14:48:58Z</time></trkpt><trkpt lat="43.059669542378856" lon="10.6625015743765"><ele>31.0</ele><time>2026-04-25T14:48:59Z</time></trkpt><trkpt lat="43.059826944723234" lon="10.662618019490852"><ele>31.0</ele><time>2026-04-25T14:49:00Z</time></trkpt><trkpt lat="43.059986147912824" lon="10.662737456863027"><ele>31.0</ele><time>2026-04-25T14:49:01Z</time></trkpt><trkpt lat="43.060143755446106" lon="10.662855697317148"><ele>31.0</ele><time>2026-04-25T14:49:02Z</time></trkpt><trkpt lat="43.06030419063524" lon="10.662976058808308"><ele>31.0</ele><time>2026-04-25T14:49:03Z</time></trkpt><trkpt lat="43.06046296597627" lon="10.663095176558496"><ele>31.0</ele><time>2026-04-25T14:49:04Z</time></trkpt><trkpt lat="43.06062142748589" lon="10.663212367672548"><ele>31.0</ele><time>2026-04-25T14:49:05Z</time></trkpt><trkpt lat="43.06078007060881" lon="10.663330013564506"><ele>31.666666666666668</ele><time>2026-04-25T14:49:06Z</time></trkpt><trkpt lat="43.060936858162066" lon="10.663446406863047"><ele>32.333333333333336</ele><time>2026-04-25T14:49:07Z</time></trkpt><trkpt lat="43.061090655078615" lon="10.663561378313146"><ele>33.0</ele><time>2026-04-25T14:49:08Z</time></trkpt><trkpt lat="43.061246361411285" lon="10.66365880120693"><ele>33.0</ele><time>2026-04-25T14:49:09Z</time></trkpt><trkpt lat="43.06139332679862" lon="10.66376884148557"><ele>33.0</ele><time>2026-04-25T14:49:10Z</time></trkpt><trkpt lat="43.06153923688091" lon="10.66387748817095"><ele>33.0</ele><time>2026-04-25T14:49:11Z</time></trkpt><trkpt lat="43.06168518618758" lon="10.663985286967488"><ele>33.666666666666664</ele><time>2026-04-25T14:49:12Z</time></trkpt><trkpt lat="43.061823003158786" lon="10.664111599503874"><ele>34.33333333333333</ele><time>2026-04-25T14:49:13Z</time></trkpt><trkpt lat="43.06196846652897" lon="10.66421980218079"><ele>35.0</ele><time>2026-04-25T14:49:14Z</time></trkpt><trkpt lat="43.062114770775125" lon="10.664328630352397"><ele>35.0</ele><time>2026-04-25T14:49:15Z</time></trkpt><trkpt lat="43.062263096863404" lon="10.664438970035317"><ele>35.0</ele><time>2026-04-25T14:49:16Z</time></trkpt><trkpt lat="43.062410787033734" lon="10.664549078593424"><ele>35.0</ele><time>2026-04-25T14:49:17Z</time></trkpt><trkpt lat="43.06255954761564" lon="10.664659985191367"><ele>35.33333333333333</ele><time>2026-04-25T14:49:18Z</time></trkpt><trkpt lat="43.06270970279505" lon="10.66477193150814"><ele>35.666666666666664</ele><time>2026-04-25T14:49:19Z</time></trkpt><trkpt lat="43.06285841599149" lon="10.664882802784012"><ele>36.0</ele><time>2026-04-25T14:49:20Z</time></trkpt><trkpt lat="43.06300610808399" lon="10.664992912782436"><ele>36.0</ele><time>2026-04-25T14:49:21Z</time></trkpt><trkpt lat="43.063151521060206" lon="10.665079265571658"><ele>36.0</ele><time>2026-04-25T14:49:22Z</time></trkpt><trkpt lat="43.06329044969857" lon="10.665180987636337"><ele>36.0</ele><time>2026-04-25T14:49:23Z</time></trkpt><trkpt lat="43.063423344607" lon="10.665303978254665"><ele>37.333333333333336</ele><time>2026-04-25T14:49:24Z</time></trkpt><trkpt lat="43.06355907282094" lon="10.665402910614393"><ele>38.66666666666667</ele><time>2026-04-25T14:49:25Z</time></trkpt><trkpt lat="43.06369354213071" lon="10.665524656327898"><ele>40.0</ele><time>2026-04-25T14:49:26Z</time></trkpt><trkpt lat="43.06382625436726" lon="10.665657643754539"><ele>40.0</ele><time>2026-04-25T14:49:27Z</time></trkpt><trkpt lat="43.06395449486181" lon="10.665805051816296"><ele>40.0</ele><time>2026-04-25T14:49:28Z</time></trkpt><trkpt lat="43.064081945701005" lon="10.665961510213652"><ele>40.0</ele><time>2026-04-25T14:49:29Z</time></trkpt><trkpt lat="43.0642112759807" lon="10.666118178068537"><ele>39.0</ele><time>2026-04-25T14:49:30Z</time></trkpt><trkpt lat="43.06433726251929" lon="10.666288721729796"><ele>38.0</ele><time>2026-04-25T14:49:31Z</time></trkpt><trkpt lat="43.0644641255871" lon="10.666445536089201"><ele>37.0</ele><time>2026-04-25T14:49:32Z</time></trkpt><trkpt lat="43.06458906753802" lon="10.666600188768959"><ele>37.0</ele><time>2026-04-25T14:49:33Z</time></trkpt><trkpt lat="43.06471468486592" lon="10.66675300497008"><ele>37.0</ele><time>2026-04-25T14:49:34Z</time></trkpt><trkpt lat="43.06484324992873" lon="10.66690876638343"><ele>37.0</ele><time>2026-04-25T14:49:35Z</time></trkpt><trkpt lat="43.064976156802935" lon="10.667063936402057"><ele>37.0</ele><time>2026-04-25T14:49:36Z</time></trkpt><trkpt lat="43.06511174132159" lon="10.667215002904888"><ele>37.0</ele><time>2026-04-25T14:49:37Z</time></trkpt><trkpt lat="43.06525251835163" lon="10.667356066042023"><ele>37.0</ele><time>2026-04-25T14:49:38Z</time></trkpt><trkpt lat="43.06539378909799" lon="10.667492609189335"><ele>37.0</ele><time>2026-04-25T14:49:39Z</time></trkpt><trkpt lat="43.065536719366364" lon="10.667628132026563"><ele>37.0</ele><time>2026-04-25T14:49:40Z</time></trkpt><trkpt lat="43.06567877179249" lon="10.667761610663492"><ele>37.0</ele><time>2026-04-25T14:49:41Z</time></trkpt><trkpt lat="43.065815475937214" lon="10.667897838101824"><ele>37.66666666666667</ele><time>2026-04-25T14:49:42Z</time></trkpt><trkpt lat="43.06594963424788" lon="10.668039670070199"><ele>38.333333333333336</ele><time>2026-04-25T14:49:43Z</time></trkpt><trkpt lat="43.06607918404623" lon="10.668188057438613"><ele>39.0</ele><time>2026-04-25T14:49:44Z</time></trkpt><trkpt lat="43.06620645357297" lon="10.668343291954207"><ele>39.0</ele><time>2026-04-25T14:49:45Z</time></trkpt><trkpt lat="43.06633197794467" lon="10.668505201533826"><ele>39.0</ele><time>2026-04-25T14:49:46Z</time></trkpt><trkpt lat="43.066457622482055" lon="10.668668765841765"><ele>39.0</ele><time>2026-04-25T14:49:47Z</time></trkpt><trkpt lat="43.06658519398313" lon="10.668833098179803"><ele>39.333333333333336</ele><time>2026-04-25T14:49:48Z</time></trkpt><trkpt lat="43.06671409533151" lon="10.668999560832425"><ele>39.66666666666667</ele><time>2026-04-25T14:49:49Z</time></trkpt><trkpt lat="43.06684256896769" lon="10.669165449541138"><ele>40.0</ele><time>2026-04-25T14:49:50Z</time></trkpt><trkpt lat="43.06697333192641" lon="10.669334202657641"><ele>39.66666666666667</ele><time>2026-04-25T14:49:51Z</time></trkpt><trkpt lat="43.067100425078955" lon="10.66950098025086"><ele>39.333333333333336</ele><time>2026-04-25T14:49:52Z</time></trkpt><trkpt lat="43.06722833371284" lon="10.669668914245053"><ele>39.0</ele><time>2026-04-25T14:49:53Z</time></trkpt><trkpt lat="43.06735607927533" lon="10.669833980312902"><ele>39.333333333333336</ele><time>2026-04-25T14:49:54Z</time></trkpt><trkpt lat="43.06748428644103" lon="10.670001645685046"><ele>39.66666666666667</ele><time>2026-04-25T14:49:55Z</time></trkpt><trkpt lat="43.067614104784674" lon="10.670171669303436"><ele>40.0</ele><time>2026-04-25T14:49:56Z</time></trkpt><trkpt lat="43.067747633668226" lon="10.670346552665457"><ele>40.0</ele><time>2026-04-25T14:49:57Z</time></trkpt><trkpt lat="43.067880262601555" lon="10.670520257323707"><ele>40.0</ele><time>2026-04-25T14:49:58Z</time></trkpt><trkpt lat="43.068014244375895" lon="10.670695733799167"><ele>40.0</ele><time>2026-04-25T14:49:59Z</time></trkpt><trkpt lat="43.068146774027625" lon="10.670869308475838"><ele>40.0</ele><time>2026-04-25T14:50:00Z</time></trkpt><trkpt lat="43.06827511500596" lon="10.671040905649418"><ele>40.0</ele><time>2026-04-25T14:50:01Z</time></trkpt><trkpt lat="43.06840153897715" lon="10.671215966920865"><ele>40.0</ele><time>2026-04-25T14:50:02Z</time></trkpt><trkpt lat="43.068523963866845" lon="10.6713886540577"><ele>39.333333333333336</ele><time>2026-04-25T14:50:03Z</time></trkpt><trkpt lat="43.06863530085007" lon="10.671550769081035"><ele>38.666666666666664</ele><time>2026-04-25T14:50:04Z</time></trkpt><trkpt lat="43.06874309137175" lon="10.671714013221077"><ele>38.0</ele><time>2026-04-25T14:50:05Z</time></trkpt><trkpt lat="43.06885759033456" lon="10.671873742011806"><ele>38.0</ele><time>2026-04-25T14:50:06Z</time></trkpt><trkpt lat="43.06898075120286" lon="10.672015148217397"><ele>38.0</ele><time>2026-04-25T14:50:07Z</time></trkpt><trkpt lat="43.06911844491733" lon="10.672144427128421"><ele>38.0</ele><time>2026-04-25T14:50:08Z</time></trkpt><trkpt lat="43.06927146532026" lon="10.672250483656354"><ele>38.666666666666664</ele><time>2026-04-25T14:50:09Z</time></trkpt><trkpt lat="43.06943085883342" lon="10.672328625386818"><ele>39.333333333333336</ele><time>2026-04-25T14:50:10Z</time></trkpt><trkpt lat="43.069592976245026" lon="10.672392466390221"><ele>40.0</ele><time>2026-04-25T14:50:11Z</time></trkpt><trkpt lat="43.0697547484793" lon="10.672455602652196"><ele>40.0</ele><time>2026-04-25T14:50:12Z</time></trkpt><trkpt lat="43.0699091470753" lon="10.672522159564984"><ele>40.0</ele><time>2026-04-25T14:50:13Z</time></trkpt><trkpt lat="43.07006050635639" lon="10.672603762817655"><ele>40.0</ele><time>2026-04-25T14:50:14Z</time></trkpt><trkpt lat="43.07021240271104" lon="10.672702195288199"><ele>40.66666666666667</ele><time>2026-04-25T14:50:15Z</time></trkpt><trkpt lat="43.07035760969996" lon="10.672822472200927"><ele>41.333333333333336</ele><time>2026-04-25T14:50:16Z</time></trkpt><trkpt lat="43.07049761678354" lon="10.672962355747119"><ele>42.0</ele><time>2026-04-25T14:50:17Z</time></trkpt><trkpt lat="43.07063745565486" lon="10.673110913608161"><ele>42.666666666666664</ele><time>2026-04-25T14:50:18Z</time></trkpt><trkpt lat="43.070776896108036" lon="10.673259641001438"><ele>43.33333333333333</ele><time>2026-04-25T14:50:19Z</time></trkpt><trkpt lat="43.07091569027903" lon="10.673407468148966"><ele>44.0</ele><time>2026-04-25T14:50:20Z</time></trkpt><trkpt lat="43.0710549490099" lon="10.673555597564215"><ele>43.33333333333333</ele><time>2026-04-25T14:50:21Z</time></trkpt><trkpt lat="43.07119485821734" lon="10.673704418836062"><ele>42.666666666666664</ele><time>2026-04-25T14:50:22Z</time></trkpt><trkpt lat="43.07133515664217" lon="10.67385288762818"><ele>42.0</ele><time>2026-04-25T14:50:23Z</time></trkpt><trkpt lat="43.07147667015927" lon="10.674003688863609"><ele>42.0</ele><time>2026-04-25T14:50:24Z</time></trkpt><trkpt lat="43.07163427099035" lon="10.674121041300168"><ele>42.0</ele><time>2026-04-25T14:50:25Z</time></trkpt><trkpt lat="43.07176482771396" lon="10.674262045257082"><ele>42.0</ele><time>2026-04-25T14:50:26Z</time></trkpt><trkpt lat="43.0718896395654" lon="10.674392074546294"><ele>43.666666666666664</ele><time>2026-04-25T14:50:27Z</time></trkpt><trkpt lat="43.072022996823435" lon="10.674525087336656"><ele>45.33333333333333</ele><time>2026-04-25T14:50:28Z</time></trkpt><trkpt lat="43.07214834504906" lon="10.674666404700059"><ele>47.0</ele><time>2026-04-25T14:50:29Z</time></trkpt><trkpt lat="43.07227733285802" lon="10.674807182178595"><ele>47.0</ele><time>2026-04-25T14:50:30Z</time></trkpt><trkpt lat="43.07240858842588" lon="10.674949331761228"><ele>47.0</ele><time>2026-04-25T14:50:31Z</time></trkpt><trkpt lat="43.072546554378185" lon="10.675080780344453"><ele>47.0</ele><time>2026-04-25T14:50:32Z</time></trkpt><trkpt lat="43.07268095838672" lon="10.675210457760715"><ele>47.33333333333333</ele><time>2026-04-25T14:50:33Z</time></trkpt><trkpt lat="43.07280812506846" lon="10.675358388424952"><ele>47.666666666666664</ele><time>2026-04-25T14:50:34Z</time></trkpt><trkpt lat="43.07294210358277" lon="10.67546840202879"><ele>48.0</ele><time>2026-04-25T14:50:35Z</time></trkpt><trkpt lat="43.07306751430369" lon="10.675569678473806"><ele>48.0</ele><time>2026-04-25T14:50:36Z</time></trkpt><trkpt lat="43.07318429485741" lon="10.675663424580284"><ele>48.0</ele><time>2026-04-25T14:50:37Z</time></trkpt><trkpt lat="43.07330665517298" lon="10.675755333586025"><ele>48.0</ele><time>2026-04-25T14:50:38Z</time></trkpt><trkpt lat="43.073434346192016" lon="10.675833852572136"><ele>48.0</ele><time>2026-04-25T14:50:39Z</time></trkpt><trkpt lat="43.0735582542692" lon="10.675893143205139"><ele>48.5</ele><time>2026-04-25T14:50:40Z</time></trkpt><trkpt lat="43.073672260315945" lon="10.675945338875765"><ele>49.0</ele><time>2026-04-25T14:50:41Z</time></trkpt><trkpt lat="43.07379553671887" lon="10.676001382646819"><ele>49.5</ele><time>2026-04-25T14:50:42Z</time></trkpt><trkpt lat="43.0739115582422" lon="10.676053857922765"><ele>50.0</ele><time>2026-04-25T14:50:43Z</time></trkpt><trkpt lat="43.07403046132661" lon="10.676122235024737"><ele>51.25</ele><time>2026-04-25T14:50:44Z</time></trkpt><trkpt lat="43.074140542986335" lon="10.676218226427833"><ele>52.5</ele><time>2026-04-25T14:50:45Z</time></trkpt><trkpt lat="43.074243186654215" lon="10.676341808445027"><ele>53.75</ele><time>2026-04-25T14:50:46Z</time></trkpt><trkpt lat="43.07434555765059" lon="10.676477417947105"><ele>55.0</ele><time>2026-04-25T14:50:47Z</time></trkpt><trkpt lat="43.07444763680302" lon="10.67661718277016"><ele>55.0</ele><time>2026-04-25T14:50:48Z</time></trkpt><trkpt lat="43.07455490689367" lon="10.67674167912545"><ele>55.0</ele><time>2026-04-25T14:50:49Z</time></trkpt><trkpt lat="43.07467266665803" lon="10.676846807645362"><ele>55.0</ele><time>2026-04-25T14:50:50Z</time></trkpt><trkpt lat="43.074807194244485" lon="10.676934505642572"><ele>55.0</ele><time>2026-04-25T14:50:51Z</time></trkpt><trkpt lat="43.07495276759291" lon="10.677007487787408"><ele>56.0</ele><time>2026-04-25T14:50:52Z</time></trkpt><trkpt lat="43.07510640193961" lon="10.677069251402324"><ele>57.0</ele><time>2026-04-25T14:50:53Z</time></trkpt><trkpt lat="43.07523535787826" lon="10.677146807459167"><ele>58.0</ele><time>2026-04-25T14:50:54Z</time></trkpt><trkpt lat="43.0754924793386" lon="10.67722036246927"><ele>58.0</ele><time>2026-04-25T14:50:56Z</time></trkpt><trkpt lat="43.075606818756924" lon="10.677279752584143"><ele>58.0</ele><time>2026-04-25T14:50:57Z</time></trkpt><trkpt lat="43.07572404089424" lon="10.677314999134833"><ele>58.0</ele><time>2026-04-25T14:50:58Z</time></trkpt><trkpt lat="43.07583042856902" lon="10.677367781627856"><ele>58.0</ele><time>2026-04-25T14:50:59Z</time></trkpt><trkpt lat="43.07592125264797" lon="10.677431096349142"><ele>58.83333333333333</ele><time>2026-04-25T14:51:00Z</time></trkpt><trkpt lat="43.07598525749791" lon="10.67750266531823"><ele>59.666666666666664</ele><time>2026-04-25T14:51:01Z</time></trkpt><trkpt lat="43.076091863937165" lon="10.677606136483837"><ele>60.5</ele><time>2026-04-25T14:51:03Z</time></trkpt><trkpt lat="43.07613733052719" lon="10.677688035013894"><ele>61.33333333333333</ele><time>2026-04-25T14:51:04Z</time></trkpt><trkpt lat="43.07619436410066" lon="10.677744441299277"><ele>62.166666666666664</ele><time>2026-04-25T14:51:05Z</time></trkpt><trkpt lat="43.076243229063465" lon="10.677821368423528"><ele>63.0</ele><time>2026-04-25T14:51:06Z</time></trkpt><trkpt lat="43.07629264318567" lon="10.677898689746227"><ele>63.0</ele><time>2026-04-25T14:51:07Z</time></trkpt><trkpt lat="43.076336868026615" lon="10.677966478590458"><ele>63.0</ele><time>2026-04-25T14:51:08Z</time></trkpt><trkpt lat="43.07637948533262" lon="10.67803192971874"><ele>63.0</ele><time>2026-04-25T14:51:09Z</time></trkpt><trkpt lat="43.07643183751559" lon="10.678094457325038"><ele>63.0</ele><time>2026-04-25T14:51:10Z</time></trkpt><trkpt lat="43.07648753975635" lon="10.678145917044542"><ele>63.0</ele><time>2026-04-25T14:51:11Z</time></trkpt><trkpt lat="43.076537686677916" lon="10.678239643258037"><ele>63.0</ele><time>2026-04-25T14:51:13Z</time></trkpt><trkpt lat="43.076625174617895" lon="10.67833600475295"><ele>64.0</ele><time>2026-04-25T14:51:16Z</time></trkpt><trkpt lat="43.07668084237075" lon="10.678384630444787"><ele>65.0</ele><time>2026-04-25T14:51:17Z</time></trkpt><trkpt lat="43.07676379148816" lon="10.6784323872356"><ele>66.0</ele><time>2026-04-25T14:51:18Z</time></trkpt><trkpt lat="43.07682857483526" lon="10.678511188603078"><ele>67.0</ele><time>2026-04-25T14:51:19Z</time></trkpt><trkpt lat="43.07689579564947" lon="10.678571109915381"><ele>68.0</ele><time>2026-04-25T14:51:20Z</time></trkpt><trkpt lat="43.07695778224577" lon="10.678623456784365"><ele>69.0</ele><time>2026-04-25T14:51:21Z</time></trkpt><trkpt lat="43.077020309182394" lon="10.678644153977325"><ele>69.0</ele><time>2026-04-25T14:51:22Z</time></trkpt><trkpt lat="43.077083629261985" lon="10.67868003930591"><ele>69.0</ele><time>2026-04-25T14:51:23Z</time></trkpt><trkpt lat="43.077154376638134" lon="10.678693811140237"><ele>69.0</ele><time>2026-04-25T14:51:24Z</time></trkpt><trkpt lat="43.07722108237057" lon="10.67869716890241"><ele>69.0</ele><time>2026-04-25T14:51:25Z</time></trkpt><trkpt lat="43.07728802716208" lon="10.678698819846005"><ele>69.0</ele><time>2026-04-25T14:51:26Z</time></trkpt><trkpt lat="43.077368380548776" lon="10.678686910963279"><ele>69.0</ele><time>2026-04-25T14:51:27Z</time></trkpt><trkpt lat="43.07744720211895" lon="10.67868490287711"><ele>69.0</ele><time>2026-04-25T14:51:28Z</time></trkpt><trkpt lat="43.07752293390657" lon="10.678673272894878"><ele>70.8</ele><time>2026-04-25T14:51:29Z</time></trkpt><trkpt lat="43.077593813223416" lon="10.678664023804297"><ele>72.60000000000001</ele><time>2026-04-25T14:51:30Z</time></trkpt><trkpt lat="43.077660446034805" lon="10.67865212873339"><ele>74.4</ele><time>2026-04-25T14:51:31Z</time></trkpt><trkpt lat="43.077772426750876" lon="10.678639314109311"><ele>76.2</ele><time>2026-04-25T14:51:33Z</time></trkpt><trkpt lat="43.07788842524165" lon="10.678633326077936"><ele>78.0</ele><time>2026-04-25T14:51:35Z</time></trkpt><trkpt lat="43.07798194427616" lon="10.678632607296453"><ele>78.0</ele><time>2026-04-25T14:51:37Z</time></trkpt><trkpt lat="43.07805816862394" lon="10.678640830394643"><ele>78.0</ele><time>2026-04-25T14:51:45Z</time></trkpt><trkpt lat="43.077987772230664" lon="10.678634414996985"><ele>78.0</ele><time>2026-04-25T14:51:51Z</time></trkpt><trkpt lat="43.07791037208939" lon="10.678635704048283"><ele>78.0</ele><time>2026-04-25T14:53:20Z</time></trkpt><trkpt lat="43.077834984074634" lon="10.678619639210817"><ele>78.0</ele><time>2026-04-25T14:53:22Z</time></trkpt><trkpt lat="43.07772694261942" lon="10.67863638966464"><ele>78.0</ele><time>2026-04-25T14:53:24Z</time></trkpt><trkpt lat="43.07765699636905" lon="10.678639633477106"><ele>78.0</ele><time>2026-04-25T14:53:25Z</time></trkpt><trkpt lat="43.077588572042814" lon="10.678665547441398"><ele>78.0</ele><time>2026-04-25T14:53:26Z</time></trkpt><trkpt lat="43.07749512204196" lon="10.678676177783641"><ele>78.0</ele><time>2026-04-25T14:53:27Z</time></trkpt><trkpt lat="43.077352305917564" lon="10.678691734310215"><ele>78.0</ele><time>2026-04-25T14:53:28Z</time></trkpt><trkpt lat="43.077260166331286" lon="10.678680334226275"><ele>78.0</ele><time>2026-04-25T14:53:29Z</time></trkpt><trkpt lat="43.07718915079148" lon="10.678684273973532"><ele>76.8</ele><time>2026-04-25T14:53:30Z</time></trkpt><trkpt lat="43.07705909497994" lon="10.67867027623299"><ele>75.6</ele><time>2026-04-25T14:53:32Z</time></trkpt><trkpt lat="43.07695409298741" lon="10.678583716954483"><ele>74.4</ele><time>2026-04-25T14:53:34Z</time></trkpt><trkpt lat="43.07689849967478" lon="10.678536252409197"><ele>73.2</ele><time>2026-04-25T14:53:35Z</time></trkpt><trkpt lat="43.07684004340579" lon="10.67848606488286"><ele>72.0</ele><time>2026-04-25T14:53:36Z</time></trkpt><trkpt lat="43.076749639194226" lon="10.678401073738355"><ele>72.0</ele><time>2026-04-25T14:53:38Z</time></trkpt><trkpt lat="43.07669675604252" lon="10.678350480162267"><ele>72.0</ele><time>2026-04-25T14:53:40Z</time></trkpt><trkpt lat="43.07662364395042" lon="10.67834629085346"><ele>72.0</ele><time>2026-04-25T14:53:43Z</time></trkpt><trkpt lat="43.07660482144045" lon="10.678480976010308"><ele>72.0</ele><time>2026-04-25T14:53:46Z</time></trkpt><trkpt lat="43.07664271074288" lon="10.678649668436396"><ele>72.0</ele><time>2026-04-25T14:53:48Z</time></trkpt><trkpt lat="43.07666204485098" lon="10.678754854692675"><ele>72.0</ele><time>2026-04-25T14:53:49Z</time></trkpt><trkpt lat="43.07667842757465" lon="10.678863619467593"><ele>71.4</ele><time>2026-04-25T14:53:50Z</time></trkpt><trkpt lat="43.076697221170754" lon="10.678954791268785"><ele>70.80000000000001</ele><time>2026-04-25T14:53:51Z</time></trkpt><trkpt lat="43.07671441037282" lon="10.679046074304537"><ele>70.2</ele><time>2026-04-25T14:53:52Z</time></trkpt><trkpt lat="43.07676071100928" lon="10.679193493712717"><ele>69.60000000000001</ele><time>2026-04-25T14:53:54Z</time></trkpt><trkpt lat="43.07678605168423" lon="10.679342012403135"><ele>69.0</ele><time>2026-04-25T14:53:56Z</time></trkpt><trkpt lat="43.07683041173525" lon="10.679487633618985"><ele>68.4</ele><time>2026-04-25T14:53:58Z</time></trkpt><trkpt lat="43.076867798392335" lon="10.679624843818157"><ele>67.80000000000001</ele><time>2026-04-25T14:54:00Z</time></trkpt><trkpt lat="43.07690721363304" lon="10.679802625988922"><ele>67.19999999999999</ele><time>2026-04-25T14:54:02Z</time></trkpt><trkpt lat="43.076935824452576" lon="10.679905357160106"><ele>66.6</ele><time>2026-04-25T14:54:03Z</time></trkpt><trkpt lat="43.07696818108864" lon="10.680021537905262"><ele>66.0</ele><time>2026-04-25T14:54:04Z</time></trkpt><trkpt lat="43.07700744382247" lon="10.680149230400941"><ele>66.0</ele><time>2026-04-25T14:54:05Z</time></trkpt><trkpt lat="43.07703217150378" lon="10.68026134553674"><ele>66.0</ele><time>2026-04-25T14:54:06Z</time></trkpt><trkpt lat="43.07704836624081" lon="10.680370083893283"><ele>66.0</ele><time>2026-04-25T14:54:07Z</time></trkpt><trkpt lat="43.077036746437926" lon="10.680477513267641"><ele>66.0</ele><time>2026-04-25T14:54:08Z</time></trkpt><trkpt lat="43.07699943705783" lon="10.680577102767247"><ele>66.0</ele><time>2026-04-25T14:54:09Z</time></trkpt><trkpt lat="43.07695370558164" lon="10.680669707288338"><ele>66.0</ele><time>2026-04-25T14:54:10Z</time></trkpt><trkpt lat="43.076893159981914" lon="10.680756115522254"><ele>66.0</ele><time>2026-04-25T14:54:11Z</time></trkpt><trkpt lat="43.076821506419826" lon="10.680842362020348"><ele>66.0</ele><time>2026-04-25T14:54:12Z</time></trkpt><trkpt lat="43.07674926445115" lon="10.68089730134872"><ele>66.0</ele><time>2026-04-25T14:54:13Z</time></trkpt><trkpt lat="43.07668015642974" lon="10.68098256649412"><ele>66.0</ele><time>2026-04-25T14:54:14Z</time></trkpt><trkpt lat="43.076611568059825" lon="10.6810502223154"><ele>66.0</ele><time>2026-04-25T14:54:15Z</time></trkpt><trkpt lat="43.07653033127302" lon="10.68111538549349"><ele>66.66666666666667</ele><time>2026-04-25T14:54:16Z</time></trkpt><trkpt lat="43.07643787584309" lon="10.681151486385467"><ele>67.33333333333333</ele><time>2026-04-25T14:54:17Z</time></trkpt><trkpt lat="43.07634310052594" lon="10.68114947641309"><ele>68.0</ele><time>2026-04-25T14:54:18Z</time></trkpt><trkpt lat="43.076249131958875" lon="10.681156990669157"><ele>68.66666666666666</ele><time>2026-04-25T14:54:19Z</time></trkpt><trkpt lat="43.076167454909836" lon="10.681158701782616"><ele>69.33333333333333</ele><time>2026-04-25T14:54:20Z</time></trkpt><trkpt lat="43.07610420817094" lon="10.681165385587365"><ele>70.0</ele><time>2026-04-25T14:54:21Z</time></trkpt><trkpt lat="43.07603145877343" lon="10.681169375332257"><ele>70.0</ele><time>2026-04-25T14:54:23Z</time></trkpt><trkpt lat="43.07597694425553" lon="10.681223464941308"><ele>70.0</ele><time>2026-04-25T14:55:09Z</time></trkpt><trkpt lat="43.07591359898701" lon="10.681300112987469"><ele>70.0</ele><time>2026-04-25T14:55:11Z</time></trkpt><trkpt lat="43.075821280468794" lon="10.681397465953339"><ele>70.0</ele><time>2026-04-25T14:55:13Z</time></trkpt><trkpt lat="43.07574628319939" lon="10.68145607313052"><ele>70.0</ele><time>2026-04-25T14:55:14Z</time></trkpt><trkpt lat="43.07568479977674" lon="10.681524167885005"><ele>70.0</ele><time>2026-04-25T14:55:15Z</time></trkpt><trkpt lat="43.07563403539885" lon="10.68158020016485"><ele>69.5</ele><time>2026-04-25T14:55:16Z</time></trkpt><trkpt lat="43.07558345423819" lon="10.68164041249615"><ele>69.0</ele><time>2026-04-25T14:55:17Z</time></trkpt><trkpt lat="43.075531349924" lon="10.681706825840381"><ele>68.5</ele><time>2026-04-25T14:55:18Z</time></trkpt><trkpt lat="43.07548148309682" lon="10.681771133947416"><ele>68.0</ele><time>2026-04-25T14:55:19Z</time></trkpt><trkpt lat="43.07542539033959" lon="10.681850806150313"><ele>67.5</ele><time>2026-04-25T14:55:20Z</time></trkpt><trkpt lat="43.07538107170293" lon="10.681925898153827"><ele>67.0</ele><time>2026-04-25T14:55:21Z</time></trkpt><trkpt lat="43.075326024860324" lon="10.682072676768906"><ele>67.0</ele><time>2026-04-25T14:55:23Z</time></trkpt><trkpt lat="43.0753054928168" lon="10.682177804410166"><ele>67.0</ele><time>2026-04-25T14:55:24Z</time></trkpt><trkpt lat="43.07529155175126" lon="10.682296888022705"><ele>67.0</ele><time>2026-04-25T14:55:25Z</time></trkpt><trkpt lat="43.0752948884098" lon="10.682430021319705"><ele>67.0</ele><time>2026-04-25T14:55:26Z</time></trkpt><trkpt lat="43.075299607934504" lon="10.682558992319624"><ele>67.0</ele><time>2026-04-25T14:55:27Z</time></trkpt><trkpt lat="43.07530688995074" lon="10.68270933763698"><ele>67.0</ele><time>2026-04-25T14:55:28Z</time></trkpt><trkpt lat="43.07531530662086" lon="10.682863671908374"><ele>67.0</ele><time>2026-04-25T14:55:29Z</time></trkpt><trkpt lat="43.07534044592776" lon="10.68302093177998"><ele>67.0</ele><time>2026-04-25T14:55:30Z</time></trkpt><trkpt lat="43.075351714690854" lon="10.68318975566653"><ele>67.0</ele><time>2026-04-25T14:55:31Z</time></trkpt><trkpt lat="43.075365271207524" lon="10.683362425214764"><ele>67.0</ele><time>2026-04-25T14:55:32Z</time></trkpt><trkpt lat="43.07537819068765" lon="10.68353667152886"><ele>67.0</ele><time>2026-04-25T14:55:33Z</time></trkpt><trkpt lat="43.07537818208525" lon="10.68373037212105"><ele>67.0</ele><time>2026-04-25T14:55:34Z</time></trkpt><trkpt lat="43.07540456058824" lon="10.683918202224206"><ele>67.0</ele><time>2026-04-25T14:55:35Z</time></trkpt><trkpt lat="43.07543675818522" lon="10.684110225779754"><ele>67.0</ele><time>2026-04-25T14:55:36Z</time></trkpt><trkpt lat="43.075472264977606" lon="10.684308680962232"><ele>67.0</ele><time>2026-04-25T14:55:37Z</time></trkpt><trkpt lat="43.075505620575775" lon="10.684486985916523"><ele>67.0</ele><time>2026-04-25T14:55:38Z</time></trkpt><trkpt lat="43.07553884996596" lon="10.684664615333853"><ele>67.0</ele><time>2026-04-25T14:55:39Z</time></trkpt><trkpt lat="43.07557503015522" lon="10.684843857413446"><ele>67.0</ele><time>2026-04-25T14:55:40Z</time></trkpt><trkpt lat="43.07561460086001" lon="10.685028373163357"><ele>67.0</ele><time>2026-04-25T14:55:41Z</time></trkpt><trkpt lat="43.07565763421971" lon="10.68521625124733"><ele>67.0</ele><time>2026-04-25T14:55:42Z</time></trkpt><trkpt lat="43.07570978574876" lon="10.685405247402139"><ele>67.0</ele><time>2026-04-25T14:55:43Z</time></trkpt><trkpt lat="43.07577379440862" lon="10.685592082425162"><ele>66.66666666666666</ele><time>2026-04-25T14:55:44Z</time></trkpt><trkpt lat="43.07584236259715" lon="10.68578275346451"><ele>66.33333333333333</ele><time>2026-04-25T14:55:45Z</time></trkpt><trkpt lat="43.0759152295806" lon="10.685980656568338"><ele>66.0</ele><time>2026-04-25T14:55:46Z</time></trkpt><trkpt lat="43.0759891590778" lon="10.68618144537733"><ele>66.0</ele><time>2026-04-25T14:55:47Z</time></trkpt><trkpt lat="43.076061916009756" lon="10.686378859272132"><ele>66.0</ele><time>2026-04-25T14:55:48Z</time></trkpt><trkpt lat="43.07613405907566" lon="10.686573660911115"><ele>66.0</ele><time>2026-04-25T14:55:49Z</time></trkpt><trkpt lat="43.076218476098575" lon="10.686758066668313"><ele>63.66666666666667</ele><time>2026-04-25T14:55:50Z</time></trkpt><trkpt lat="43.07627307190993" lon="10.68696031916599"><ele>61.333333333333336</ele><time>2026-04-25T14:55:51Z</time></trkpt><trkpt lat="43.07634498512963" lon="10.687154180058338"><ele>59.0</ele><time>2026-04-25T14:55:52Z</time></trkpt><trkpt lat="43.07641733899328" lon="10.687347614022704"><ele>59.0</ele><time>2026-04-25T14:55:53Z</time></trkpt><trkpt lat="43.076494166886754" lon="10.687542039749912"><ele>59.0</ele><time>2026-04-25T14:55:54Z</time></trkpt><trkpt lat="43.07656887269591" lon="10.687734807875197"><ele>59.0</ele><time>2026-04-25T14:55:55Z</time></trkpt><trkpt lat="43.0766476038541" lon="10.687923753361257"><ele>60.0</ele><time>2026-04-25T14:55:56Z</time></trkpt><trkpt lat="43.07672150724943" lon="10.68811509423336"><ele>61.0</ele><time>2026-04-25T14:55:57Z</time></trkpt><trkpt lat="43.076783167569424" lon="10.688309661600266"><ele>62.0</ele><time>2026-04-25T14:55:58Z</time></trkpt><trkpt lat="43.07685515323965" lon="10.688496953767496"><ele>61.75</ele><time>2026-04-25T14:55:59Z</time></trkpt><trkpt lat="43.076926971672" lon="10.688680879901934"><ele>61.5</ele><time>2026-04-25T14:56:00Z</time></trkpt><trkpt lat="43.07699805938981" lon="10.688858539295326"><ele>61.25</ele><time>2026-04-25T14:56:01Z</time></trkpt><trkpt lat="43.07707295056433" lon="10.68901460273838"><ele>61.0</ele><time>2026-04-25T14:56:02Z</time></trkpt><trkpt lat="43.07712090167045" lon="10.689192235965162"><ele>61.0</ele><time>2026-04-25T14:56:03Z</time></trkpt><trkpt lat="43.07714939517831" lon="10.689387387613491"><ele>61.0</ele><time>2026-04-25T14:56:04Z</time></trkpt><trkpt lat="43.07717333979034" lon="10.689583986872869"><ele>61.0</ele><time>2026-04-25T14:56:05Z</time></trkpt><trkpt lat="43.07719552089628" lon="10.689785505855326"><ele>61.0</ele><time>2026-04-25T14:56:06Z</time></trkpt><trkpt lat="43.07720838252137" lon="10.689996516459406"><ele>60.0</ele><time>2026-04-25T14:56:07Z</time></trkpt><trkpt lat="43.077253897981635" lon="10.690208347669367"><ele>59.0</ele><time>2026-04-25T14:56:08Z</time></trkpt><trkpt lat="43.07730789112984" lon="10.690421685731257"><ele>58.0</ele><time>2026-04-25T14:56:09Z</time></trkpt><trkpt lat="43.07738166922152" lon="10.690627098506374"><ele>58.666666666666664</ele><time>2026-04-25T14:56:10Z</time></trkpt><trkpt lat="43.077441177697594" lon="10.690843591323372"><ele>59.33333333333333</ele><time>2026-04-25T14:56:11Z</time></trkpt><trkpt lat="43.07750408293819" lon="10.691055489328624"><ele>60.0</ele><time>2026-04-25T14:56:12Z</time></trkpt><trkpt lat="43.077567145716756" lon="10.691270835191311"><ele>60.0</ele><time>2026-04-25T14:56:13Z</time></trkpt><trkpt lat="43.077622790300616" lon="10.691491609051345"><ele>60.0</ele><time>2026-04-25T14:56:14Z</time></trkpt><trkpt lat="43.077682031084116" lon="10.69169473542185"><ele>60.0</ele><time>2026-04-25T14:56:15Z</time></trkpt><trkpt lat="43.077742730726584" lon="10.691894216725391"><ele>59.0</ele><time>2026-04-25T14:56:16Z</time></trkpt><trkpt lat="43.077804534552385" lon="10.692096332982395"><ele>58.0</ele><time>2026-04-25T14:56:17Z</time></trkpt><trkpt lat="43.077864997282326" lon="10.69229192776753"><ele>57.0</ele><time>2026-04-25T14:56:18Z</time></trkpt><trkpt lat="43.077967803840465" lon="10.692454159193264"><ele>57.0</ele><time>2026-04-25T14:56:19Z</time></trkpt><trkpt lat="43.078073841866804" lon="10.692622794999336"><ele>57.0</ele><time>2026-04-25T14:56:20Z</time></trkpt><trkpt lat="43.07817919272365" lon="10.692803558765549"><ele>57.0</ele><time>2026-04-25T14:56:21Z</time></trkpt><trkpt lat="43.07830245959635" lon="10.692953782570495"><ele>58.33333333333333</ele><time>2026-04-25T14:56:22Z</time></trkpt><trkpt lat="43.078395951272704" lon="10.69311986191823"><ele>59.666666666666664</ele><time>2026-04-25T14:56:23Z</time></trkpt><trkpt lat="43.07849866438162" lon="10.693271504908338"><ele>61.0</ele><time>2026-04-25T14:56:24Z</time></trkpt><trkpt lat="43.07860411518978" lon="10.693426177575969"><ele>61.0</ele><time>2026-04-25T14:56:25Z</time></trkpt><trkpt lat="43.078682683616954" lon="10.693608210971766"><ele>61.0</ele><time>2026-04-25T14:56:26Z</time></trkpt><trkpt lat="43.07874075539" lon="10.693792711790183"><ele>61.0</ele><time>2026-04-25T14:56:27Z</time></trkpt><trkpt lat="43.07878372007955" lon="10.693988312789537"><ele>61.0</ele><time>2026-04-25T14:56:28Z</time></trkpt><trkpt lat="43.078789811560775" lon="10.694194948589882"><ele>61.0</ele><time>2026-04-25T14:56:29Z</time></trkpt><trkpt lat="43.07878926759351" lon="10.694404921746493"><ele>61.0</ele><time>2026-04-25T14:56:30Z</time></trkpt><trkpt lat="43.07877017697199" lon="10.694619489933663"><ele>60.33333333333333</ele><time>2026-04-25T14:56:31Z</time></trkpt><trkpt lat="43.07875069205009" lon="10.694847665533706"><ele>59.66666666666667</ele><time>2026-04-25T14:56:32Z</time></trkpt><trkpt lat="43.07871347640791" lon="10.695069660376062"><ele>59.0</ele><time>2026-04-25T14:56:33Z</time></trkpt><trkpt lat="43.07867968635401" lon="10.695287882450556"><ele>57.333333333333336</ele><time>2026-04-25T14:56:34Z</time></trkpt><trkpt lat="43.0786423450813" lon="10.69550714783131"><ele>55.66666666666667</ele><time>2026-04-25T14:56:35Z</time></trkpt><trkpt lat="43.078603449310194" lon="10.695728314113232"><ele>54.0</ele><time>2026-04-25T14:56:36Z</time></trkpt><trkpt lat="43.07856806280748" lon="10.695954118090956"><ele>53.66666666666667</ele><time>2026-04-25T14:56:37Z</time></trkpt><trkpt lat="43.078532825557815" lon="10.696180317419294"><ele>53.333333333333336</ele><time>2026-04-25T14:56:38Z</time></trkpt><trkpt lat="43.078512875226714" lon="10.69640574913939"><ele>53.0</ele><time>2026-04-25T14:56:39Z</time></trkpt><trkpt lat="43.07847154144285" lon="10.696634287363313"><ele>53.0</ele><time>2026-04-25T14:56:40Z</time></trkpt><trkpt lat="43.07843606029816" lon="10.696865609526304"><ele>53.0</ele><time>2026-04-25T14:56:41Z</time></trkpt><trkpt lat="43.07839734422411" lon="10.697096265165026"><ele>53.0</ele><time>2026-04-25T14:56:42Z</time></trkpt><trkpt lat="43.078359018718885" lon="10.697328755532176"><ele>53.0</ele><time>2026-04-25T14:56:43Z</time></trkpt><trkpt lat="43.078323850020446" lon="10.697563018098274"><ele>53.0</ele><time>2026-04-25T14:56:44Z</time></trkpt><trkpt lat="43.07828801919309" lon="10.69779792573296"><ele>53.0</ele><time>2026-04-25T14:56:45Z</time></trkpt><trkpt lat="43.078250743755234" lon="10.698034379038436"><ele>52.66666666666667</ele><time>2026-04-25T14:56:46Z</time></trkpt><trkpt lat="43.078214855816746" lon="10.69827451065852"><ele>52.33333333333333</ele><time>2026-04-25T14:56:47Z</time></trkpt><trkpt lat="43.07818060606661" lon="10.698511625188399"><ele>52.0</ele><time>2026-04-25T14:56:48Z</time></trkpt><trkpt lat="43.0781429415243" lon="10.69875273468664"><ele>52.0</ele><time>2026-04-25T14:56:49Z</time></trkpt><trkpt lat="43.07810538437943" lon="10.698995069863821"><ele>52.0</ele><time>2026-04-25T14:56:50Z</time></trkpt><trkpt lat="43.078067650583655" lon="10.699236879512734"><ele>52.0</ele><time>2026-04-25T14:56:51Z</time></trkpt><trkpt lat="43.07803114352069" lon="10.699491498603166"><ele>52.666666666666664</ele><time>2026-04-25T14:56:52Z</time></trkpt><trkpt lat="43.07799324774546" lon="10.69972158914731"><ele>53.33333333333333</ele><time>2026-04-25T14:56:53Z</time></trkpt><trkpt lat="43.07795803073848" lon="10.699948849354522"><ele>54.0</ele><time>2026-04-25T14:56:54Z</time></trkpt><trkpt lat="43.07792207617267" lon="10.700178964712014"><ele>55.0</ele><time>2026-04-25T14:56:55Z</time></trkpt><trkpt lat="43.077887722573905" lon="10.700404407357471"><ele>56.0</ele><time>2026-04-25T14:56:56Z</time></trkpt><trkpt lat="43.07785445407954" lon="10.700629256253734"><ele>57.0</ele><time>2026-04-25T14:56:57Z</time></trkpt><trkpt lat="43.07782314625923" lon="10.70085460033241"><ele>57.0</ele><time>2026-04-25T14:56:58Z</time></trkpt><trkpt lat="43.077789714455484" lon="10.701079213570187"><ele>57.0</ele><time>2026-04-25T14:56:59Z</time></trkpt><trkpt lat="43.07775471065136" lon="10.701299432941704"><ele>57.0</ele><time>2026-04-25T14:57:00Z</time></trkpt><trkpt lat="43.07771978924214" lon="10.70150285423164"><ele>57.66666666666667</ele><time>2026-04-25T14:57:01Z</time></trkpt><trkpt lat="43.077679192834104" lon="10.701704898120378"><ele>58.333333333333336</ele><time>2026-04-25T14:57:02Z</time></trkpt><trkpt lat="43.077628037059775" lon="10.70190182655"><ele>59.0</ele><time>2026-04-25T14:57:03Z</time></trkpt><trkpt lat="43.07757080640088" lon="10.702098587802503"><ele>59.0</ele><time>2026-04-25T14:57:04Z</time></trkpt><trkpt lat="43.07750518927089" lon="10.702290186748531"><ele>59.0</ele><time>2026-04-25T14:57:05Z</time></trkpt><trkpt lat="43.07743306795455" lon="10.702488555986085"><ele>59.0</ele><time>2026-04-25T14:57:06Z</time></trkpt><trkpt lat="43.07736256448057" lon="10.702690119149144"><ele>59.333333333333336</ele><time>2026-04-25T14:57:07Z</time></trkpt><trkpt lat="43.07727495476518" lon="10.702884770754567"><ele>59.66666666666667</ele><time>2026-04-25T14:57:08Z</time></trkpt><trkpt lat="43.077200821403025" lon="10.703092023444968"><ele>60.0</ele><time>2026-04-25T14:57:09Z</time></trkpt><trkpt lat="43.07712636443265" lon="10.703300180926297"><ele>60.0</ele><time>2026-04-25T14:57:10Z</time></trkpt><trkpt lat="43.077054863955254" lon="10.703500072846706"><ele>60.0</ele><time>2026-04-25T14:57:11Z</time></trkpt><trkpt lat="43.07697903488081" lon="10.703712066159193"><ele>60.0</ele><time>2026-04-25T14:57:12Z</time></trkpt><trkpt lat="43.07690229862789" lon="10.703926595732334"><ele>59.33333333333333</ele><time>2026-04-25T14:57:13Z</time></trkpt><trkpt lat="43.0768292197595" lon="10.704130047392088"><ele>58.666666666666664</ele><time>2026-04-25T14:57:14Z</time></trkpt><trkpt lat="43.07675563034296" lon="10.704335832455033"><ele>58.0</ele><time>2026-04-25T14:57:15Z</time></trkpt><trkpt lat="43.076687384334534" lon="10.704526626658925"><ele>57.666666666666664</ele><time>2026-04-25T14:57:16Z</time></trkpt><trkpt lat="43.07662723099305" lon="10.704739468982478"><ele>57.33333333333333</ele><time>2026-04-25T14:57:17Z</time></trkpt><trkpt lat="43.076555322244246" lon="10.704934316968265"><ele>57.0</ele><time>2026-04-25T14:57:18Z</time></trkpt><trkpt lat="43.07648668112693" lon="10.705133115648021"><ele>57.0</ele><time>2026-04-25T14:57:19Z</time></trkpt><trkpt lat="43.076414391483105" lon="10.70533381323678"><ele>57.0</ele><time>2026-04-25T14:57:20Z</time></trkpt><trkpt lat="43.07633338122773" lon="10.705556098198056"><ele>57.0</ele><time>2026-04-25T14:57:21Z</time></trkpt><trkpt lat="43.07625843566269" lon="10.705754873412559"><ele>57.0</ele><time>2026-04-25T14:57:22Z</time></trkpt><trkpt lat="43.076185105756046" lon="10.705982665125594"><ele>57.0</ele><time>2026-04-25T14:57:23Z</time></trkpt><trkpt lat="43.076108517440325" lon="10.706181475427622"><ele>57.0</ele><time>2026-04-25T14:57:24Z</time></trkpt><trkpt lat="43.07604193465444" lon="10.706367021880812"><ele>56.0</ele><time>2026-04-25T14:57:25Z</time></trkpt><trkpt lat="43.07597450629538" lon="10.706544980199403"><ele>55.0</ele><time>2026-04-25T14:57:26Z</time></trkpt><trkpt lat="43.075911510372386" lon="10.706724186062166"><ele>54.0</ele><time>2026-04-25T14:57:27Z</time></trkpt><trkpt lat="43.07585028919206" lon="10.706910882970817"><ele>53.0</ele><time>2026-04-25T14:57:28Z</time></trkpt><trkpt lat="43.07578437525763" lon="10.707100200709109"><ele>55.66666666666667</ele><time>2026-04-25T14:57:29Z</time></trkpt><trkpt lat="43.0757002441287" lon="10.707287067480651"><ele>58.33333333333333</ele><time>2026-04-25T14:57:30Z</time></trkpt><trkpt lat="43.07563164617195" lon="10.707478907254544"><ele>61.0</ele><time>2026-04-25T14:57:31Z</time></trkpt><trkpt lat="43.075575428434526" lon="10.707676548342294"><ele>59.666666666666664</ele><time>2026-04-25T14:57:32Z</time></trkpt><trkpt lat="43.07550169053803" lon="10.707865983990244"><ele>58.33333333333333</ele><time>2026-04-25T14:57:33Z</time></trkpt><trkpt lat="43.075424427608745" lon="10.708066787396524"><ele>57.0</ele><time>2026-04-25T14:57:34Z</time></trkpt><trkpt lat="43.0753630704946" lon="10.708269343431814"><ele>57.0</ele><time>2026-04-25T14:57:35Z</time></trkpt><trkpt lat="43.07528510158658" lon="10.708467701157554"><ele>57.0</ele><time>2026-04-25T14:57:36Z</time></trkpt><trkpt lat="43.07521788820241" lon="10.708649906405146"><ele>57.0</ele><time>2026-04-25T14:57:37Z</time></trkpt><trkpt lat="43.075144298264945" lon="10.708835594150468"><ele>57.0</ele><time>2026-04-25T14:57:38Z</time></trkpt><trkpt lat="43.07506157264551" lon="10.709016751538865"><ele>57.0</ele><time>2026-04-25T14:57:39Z</time></trkpt><trkpt lat="43.07497054401742" lon="10.70919690666047"><ele>57.0</ele><time>2026-04-25T14:57:40Z</time></trkpt><trkpt lat="43.07486469527007" lon="10.709375983485776"><ele>54.33333333333333</ele><time>2026-04-25T14:57:41Z</time></trkpt><trkpt lat="43.07474648249376" lon="10.709545208846563"><ele>51.666666666666664</ele><time>2026-04-25T14:57:42Z</time></trkpt><trkpt lat="43.07462017303498" lon="10.709700897721746"><ele>49.0</ele><time>2026-04-25T14:57:43Z</time></trkpt><trkpt lat="43.074492102655206" lon="10.709860699108265"><ele>49.0</ele><time>2026-04-25T14:57:44Z</time></trkpt><trkpt lat="43.074365070691854" lon="10.710017855513172"><ele>49.0</ele><time>2026-04-25T14:57:45Z</time></trkpt><trkpt lat="43.0742440558068" lon="10.710183408355306"><ele>49.0</ele><time>2026-04-25T14:57:46Z</time></trkpt><trkpt lat="43.074124726365675" lon="10.71035721326374"><ele>48.33333333333333</ele><time>2026-04-25T14:57:47Z</time></trkpt><trkpt lat="43.07400369256028" lon="10.710537933822332"><ele>47.666666666666664</ele><time>2026-04-25T14:57:48Z</time></trkpt><trkpt lat="43.07388211002713" lon="10.710712393063952"><ele>47.0</ele><time>2026-04-25T14:57:49Z</time></trkpt><trkpt lat="43.07376711374577" lon="10.71087788295485"><ele>47.0</ele><time>2026-04-25T14:57:50Z</time></trkpt><trkpt lat="43.073651580102506" lon="10.711046768409059"><ele>47.0</ele><time>2026-04-25T14:57:51Z</time></trkpt><trkpt lat="43.07353552544106" lon="10.711217134019966"><ele>47.0</ele><time>2026-04-25T14:57:52Z</time></trkpt><trkpt lat="43.07342349005895" lon="10.711385949828392"><ele>46.33333333333333</ele><time>2026-04-25T14:57:53Z</time></trkpt><trkpt lat="43.07331326202563" lon="10.711550248022817"><ele>45.666666666666664</ele><time>2026-04-25T14:57:54Z</time></trkpt><trkpt lat="43.07320555580669" lon="10.71169941942846"><ele>45.0</ele><time>2026-04-25T14:57:55Z</time></trkpt><trkpt lat="43.073100649768456" lon="10.71184876136308"><ele>45.0</ele><time>2026-04-25T14:57:56Z</time></trkpt><trkpt lat="43.07299879132788" lon="10.71199751293774"><ele>45.0</ele><time>2026-04-25T14:57:57Z</time></trkpt><trkpt lat="43.072896541956595" lon="10.712144068314121"><ele>45.0</ele><time>2026-04-25T14:57:58Z</time></trkpt><trkpt lat="43.072796544745586" lon="10.712289951585964"><ele>45.0</ele><time>2026-04-25T14:57:59Z</time></trkpt><trkpt lat="43.07269913532613" lon="10.712430577576916"><ele>45.0</ele><time>2026-04-25T14:58:00Z</time></trkpt><trkpt lat="43.07259932666402" lon="10.712576919471626"><ele>45.0</ele><time>2026-04-25T14:58:01Z</time></trkpt><trkpt lat="43.07250190970529" lon="10.71271981136541"><ele>45.0</ele><time>2026-04-25T14:58:02Z</time></trkpt><trkpt lat="43.07239888035125" lon="10.712842592813354"><ele>45.0</ele><time>2026-04-25T14:58:03Z</time></trkpt><trkpt lat="43.07230091121348" lon="10.71298887747183"><ele>45.0</ele><time>2026-04-25T14:58:04Z</time></trkpt><trkpt lat="43.072206354445946" lon="10.71312833426694"><ele>45.0</ele><time>2026-04-25T14:58:05Z</time></trkpt><trkpt lat="43.07210834916749" lon="10.713266097363277"><ele>45.0</ele><time>2026-04-25T14:58:06Z</time></trkpt><trkpt lat="43.07201733638965" lon="10.713405113722654"><ele>45.0</ele><time>2026-04-25T14:58:07Z</time></trkpt><trkpt lat="43.071939987236156" lon="10.713529476507848"><ele>45.0</ele><time>2026-04-25T14:58:08Z</time></trkpt><trkpt lat="43.071877772751215" lon="10.713645679674684"><ele>45.0</ele><time>2026-04-25T14:58:09Z</time></trkpt><trkpt lat="43.071831602093084" lon="10.713758679494951"><ele>45.0</ele><time>2026-04-25T14:58:10Z</time></trkpt><trkpt lat="43.07180332976809" lon="10.713882982256619"><ele>45.0</ele><time>2026-04-25T14:58:11Z</time></trkpt><trkpt lat="43.07179245925124" lon="10.714014380329607"><ele>45.0</ele><time>2026-04-25T14:58:12Z</time></trkpt><trkpt lat="43.07180259308147" lon="10.71413785233683"><ele>45.0</ele><time>2026-04-25T14:58:13Z</time></trkpt><trkpt lat="43.07181562231485" lon="10.714268731029772"><ele>45.0</ele><time>2026-04-25T14:58:14Z</time></trkpt><trkpt lat="43.07186601373667" lon="10.714406320393806"><ele>45.0</ele><time>2026-04-25T14:58:15Z</time></trkpt><trkpt lat="43.071955371609015" lon="10.714511427855498"><ele>45.0</ele><time>2026-04-25T14:58:16Z</time></trkpt><trkpt lat="43.07203855827115" lon="10.71462436491296"><ele>45.0</ele><time>2026-04-25T14:58:17Z</time></trkpt><trkpt lat="43.07213150390124" lon="10.71473386457522"><ele>44.75</ele><time>2026-04-25T14:58:18Z</time></trkpt><trkpt lat="43.07221713752507" lon="10.71486989907907"><ele>44.5</ele><time>2026-04-25T14:58:19Z</time></trkpt><trkpt lat="43.07231404450377" lon="10.714990854800721"><ele>44.25</ele><time>2026-04-25T14:58:20Z</time></trkpt><trkpt lat="43.07242505012173" lon="10.71509786896683"><ele>44.0</ele><time>2026-04-25T14:58:21Z</time></trkpt><trkpt lat="43.07252484000079" lon="10.715221451090999"><ele>44.25</ele><time>2026-04-25T14:58:22Z</time></trkpt><trkpt lat="43.07261731082165" lon="10.715346534067153"><ele>44.5</ele><time>2026-04-25T14:58:23Z</time></trkpt><trkpt lat="43.07271167100463" lon="10.715472132637109"><ele>44.75</ele><time>2026-04-25T14:58:24Z</time></trkpt><trkpt lat="43.072814870110015" lon="10.71559637607101"><ele>45.0</ele><time>2026-04-25T14:58:25Z</time></trkpt><trkpt lat="43.07291832019502" lon="10.715725011063945"><ele>45.0</ele><time>2026-04-25T14:58:26Z</time></trkpt><trkpt lat="43.07302329358619" lon="10.715853641028394"><ele>45.0</ele><time>2026-04-25T14:58:27Z</time></trkpt><trkpt lat="43.07312578752868" lon="10.715986975548164"><ele>45.0</ele><time>2026-04-25T14:58:28Z</time></trkpt><trkpt lat="43.073233581488644" lon="10.716117765629122"><ele>45.0</ele><time>2026-04-25T14:58:29Z</time></trkpt><trkpt lat="43.07334168591908" lon="10.716251628679213"><ele>45.0</ele><time>2026-04-25T14:58:30Z</time></trkpt><trkpt lat="43.07345256503522" lon="10.716385404127253"><ele>45.0</ele><time>2026-04-25T14:58:31Z</time></trkpt><trkpt lat="43.073571183415865" lon="10.716524356969478"><ele>45.0</ele><time>2026-04-25T14:58:32Z</time></trkpt><trkpt lat="43.073680834643355" lon="10.716689972736228"><ele>45.0</ele><time>2026-04-25T14:58:33Z</time></trkpt><trkpt lat="43.07381302965192" lon="10.716824973733168"><ele>45.0</ele><time>2026-04-25T14:58:34Z</time></trkpt><trkpt lat="43.073937296176" lon="10.716978418817513"><ele>45.0</ele><time>2026-04-25T14:58:35Z</time></trkpt><trkpt lat="43.0740537923877" lon="10.717152193007475"><ele>45.0</ele><time>2026-04-25T14:58:36Z</time></trkpt><trkpt lat="43.07418207808062" lon="10.717311181959799"><ele>45.0</ele><time>2026-04-25T14:58:37Z</time></trkpt><trkpt lat="43.07432295868215" lon="10.71745515109133"><ele>45.0</ele><time>2026-04-25T14:58:38Z</time></trkpt><trkpt lat="43.074443595683825" lon="10.717636033825121"><ele>45.0</ele><time>2026-04-25T14:58:39Z</time></trkpt><trkpt lat="43.074577910404905" lon="10.717802599352524"><ele>45.0</ele><time>2026-04-25T14:58:40Z</time></trkpt><trkpt lat="43.07471266533851" lon="10.717969908777505"><ele>45.0</ele><time>2026-04-25T14:58:41Z</time></trkpt><trkpt lat="43.07484918687737" lon="10.71813991404021"><ele>45.333333333333336</ele><time>2026-04-25T14:58:42Z</time></trkpt><trkpt lat="43.07499438142604" lon="10.718290434298845"><ele>45.66666666666667</ele><time>2026-04-25T14:58:43Z</time></trkpt><trkpt lat="43.07513028382884" lon="10.718463644694443"><ele>46.0</ele><time>2026-04-25T14:58:44Z</time></trkpt><trkpt lat="43.075266038017276" lon="10.718636824697453"><ele>46.0</ele><time>2026-04-25T14:58:45Z</time></trkpt><trkpt lat="43.07540275756347" lon="10.718808614529292"><ele>46.0</ele><time>2026-04-25T14:58:46Z</time></trkpt><trkpt lat="43.075541420404555" lon="10.718975204293988"><ele>46.0</ele><time>2026-04-25T14:58:47Z</time></trkpt><trkpt lat="43.07567745871147" lon="10.719144513676033"><ele>46.333333333333336</ele><time>2026-04-25T14:58:48Z</time></trkpt><trkpt lat="43.075812749285056" lon="10.719314141808029"><ele>46.666666666666664</ele><time>2026-04-25T14:58:49Z</time></trkpt><trkpt lat="43.075946634108334" lon="10.719482742391635"><ele>47.0</ele><time>2026-04-25T14:58:50Z</time></trkpt><trkpt lat="43.07608108122348" lon="10.719651526976646"><ele>47.0</ele><time>2026-04-25T14:58:51Z</time></trkpt><trkpt lat="43.07621517468312" lon="10.719819857110837"><ele>47.0</ele><time>2026-04-25T14:58:52Z</time></trkpt><trkpt lat="43.076350316401786" lon="10.71998793389018"><ele>47.0</ele><time>2026-04-25T14:58:53Z</time></trkpt><trkpt lat="43.07648226785445" lon="10.720159477243552"><ele>46.33333333333333</ele><time>2026-04-25T14:58:54Z</time></trkpt><trkpt lat="43.076622530448475" lon="10.720330943121988"><ele>45.666666666666664</ele><time>2026-04-25T14:58:55Z</time></trkpt><trkpt lat="43.07675761272973" lon="10.720500036447614"><ele>45.0</ele><time>2026-04-25T14:58:56Z</time></trkpt><trkpt lat="43.076892867015935" lon="10.72066745629073"><ele>45.0</ele><time>2026-04-25T14:58:57Z</time></trkpt><trkpt lat="43.07702821550032" lon="10.720836004475306"><ele>45.0</ele><time>2026-04-25T14:58:58Z</time></trkpt><trkpt lat="43.07716482752246" lon="10.721003041261072"><ele>45.0</ele><time>2026-04-25T14:58:59Z</time></trkpt><trkpt lat="43.077301903948275" lon="10.721165056714371"><ele>45.333333333333336</ele><time>2026-04-25T14:59:00Z</time></trkpt><trkpt lat="43.077434797900004" lon="10.72133108430112"><ele>45.66666666666667</ele><time>2026-04-25T14:59:01Z</time></trkpt><trkpt lat="43.077566878346026" lon="10.721497443343411"><ele>46.0</ele><time>2026-04-25T14:59:02Z</time></trkpt><trkpt lat="43.077701038714274" lon="10.721666570660807"><ele>46.0</ele><time>2026-04-25T14:59:03Z</time></trkpt><trkpt lat="43.07783433963592" lon="10.721844447878366"><ele>46.0</ele><time>2026-04-25T14:59:04Z</time></trkpt><trkpt lat="43.07796878058285" lon="10.722012088866407"><ele>46.0</ele><time>2026-04-25T14:59:05Z</time></trkpt><trkpt lat="43.0781040554684" lon="10.722181020659521"><ele>46.333333333333336</ele><time>2026-04-25T14:59:06Z</time></trkpt><trkpt lat="43.07824074441822" lon="10.722353492309733"><ele>46.666666666666664</ele><time>2026-04-25T14:59:07Z</time></trkpt><trkpt lat="43.07837969664783" lon="10.722526242118043"><ele>47.0</ele><time>2026-04-25T14:59:08Z</time></trkpt><trkpt lat="43.0785218898539" lon="10.722702651056062"><ele>47.0</ele><time>2026-04-25T14:59:09Z</time></trkpt><trkpt lat="43.078666294182355" lon="10.72288332399132"><ele>47.0</ele><time>2026-04-25T14:59:10Z</time></trkpt><trkpt lat="43.078812329864505" lon="10.723062316743476"><ele>47.0</ele><time>2026-04-25T14:59:11Z</time></trkpt><trkpt lat="43.0789569170679" lon="10.723239916595064"><ele>47.0</ele><time>2026-04-25T14:59:12Z</time></trkpt><trkpt lat="43.07909497841363" lon="10.723433411011536"><ele>47.0</ele><time>2026-04-25T14:59:13Z</time></trkpt><trkpt lat="43.079235162062105" lon="10.723607752464442"><ele>47.0</ele><time>2026-04-25T14:59:14Z</time></trkpt><trkpt lat="43.07938574458688" lon="10.723764714448718"><ele>47.33333333333333</ele><time>2026-04-25T14:59:15Z</time></trkpt><trkpt lat="43.07952196219058" lon="10.723937944147998"><ele>47.666666666666664</ele><time>2026-04-25T14:59:16Z</time></trkpt><trkpt lat="43.0796611492547" lon="10.724112456550689"><ele>48.0</ele><time>2026-04-25T14:59:17Z</time></trkpt><trkpt lat="43.07979711690242" lon="10.72428571177535"><ele>48.0</ele><time>2026-04-25T14:59:18Z</time></trkpt><trkpt lat="43.07992872229263" lon="10.724472925567039"><ele>48.0</ele><time>2026-04-25T14:59:19Z</time></trkpt><trkpt lat="43.08006201064243" lon="10.724639582254053"><ele>48.0</ele><time>2026-04-25T14:59:20Z</time></trkpt><trkpt lat="43.08020320067998" lon="10.724794001341323"><ele>48.0</ele><time>2026-04-25T14:59:21Z</time></trkpt><trkpt lat="43.08033169786095" lon="10.72496508907209"><ele>48.0</ele><time>2026-04-25T14:59:22Z</time></trkpt><trkpt lat="43.08046719755563" lon="10.725137074121264"><ele>48.0</ele><time>2026-04-25T14:59:23Z</time></trkpt><trkpt lat="43.08060571238815" lon="10.725307377110108"><ele>48.0</ele><time>2026-04-25T14:59:24Z</time></trkpt><trkpt lat="43.08074591019902" lon="10.725482656191035"><ele>48.0</ele><time>2026-04-25T14:59:25Z</time></trkpt><trkpt lat="43.080882719705336" lon="10.72565348373523"><ele>48.0</ele><time>2026-04-25T14:59:26Z</time></trkpt><trkpt lat="43.08102121996802" lon="10.725822190383512"><ele>48.33333333333333</ele><time>2026-04-25T14:59:27Z</time></trkpt><trkpt lat="43.08116246171146" lon="10.72598963681649"><ele>48.666666666666664</ele><time>2026-04-25T14:59:28Z</time></trkpt><trkpt lat="43.08130061745662" lon="10.726159379350701"><ele>49.0</ele><time>2026-04-25T14:59:29Z</time></trkpt><trkpt lat="43.08143815224343" lon="10.726333595162282"><ele>49.0</ele><time>2026-04-25T14:59:30Z</time></trkpt><trkpt lat="43.08156678555853" lon="10.726513627654729"><ele>49.0</ele><time>2026-04-25T14:59:31Z</time></trkpt><trkpt lat="43.081707919063895" lon="10.726687375101346"><ele>49.0</ele><time>2026-04-25T14:59:32Z</time></trkpt><trkpt lat="43.081846656475676" lon="10.726862719523622"><ele>48.666666666666664</ele><time>2026-04-25T14:59:33Z</time></trkpt><trkpt lat="43.08199305475627" lon="10.727039301403615"><ele>48.33333333333333</ele><time>2026-04-25T14:59:34Z</time></trkpt><trkpt lat="43.0821347448262" lon="10.727217600493866"><ele>48.0</ele><time>2026-04-25T14:59:35Z</time></trkpt><trkpt lat="43.08227734958537" lon="10.727396017841597"><ele>48.0</ele><time>2026-04-25T14:59:36Z</time></trkpt><trkpt lat="43.082422780425574" lon="10.727573518275669"><ele>48.0</ele><time>2026-04-25T14:59:37Z</time></trkpt><trkpt lat="43.082566353362076" lon="10.727753269090998"><ele>48.0</ele><time>2026-04-25T14:59:38Z</time></trkpt><trkpt lat="43.08271445399542" lon="10.727929166947492"><ele>48.66666666666667</ele><time>2026-04-25T14:59:39Z</time></trkpt><trkpt lat="43.08285222168145" lon="10.728106652547748"><ele>49.333333333333336</ele><time>2026-04-25T14:59:40Z</time></trkpt><trkpt lat="43.08298629173253" lon="10.728264804516328"><ele>50.0</ele><time>2026-04-25T14:59:41Z</time></trkpt><trkpt lat="43.08311304411146" lon="10.7284168865382"><ele>50.333333333333336</ele><time>2026-04-25T14:59:42Z</time></trkpt><trkpt lat="43.083227919016" lon="10.728564359414984"><ele>50.66666666666667</ele><time>2026-04-25T14:59:43Z</time></trkpt><trkpt lat="43.0833287368013" lon="10.728715123101503"><ele>51.0</ele><time>2026-04-25T14:59:44Z</time></trkpt><trkpt lat="43.08343811046923" lon="10.728844380167489"><ele>51.25</ele><time>2026-04-25T14:59:45Z</time></trkpt><trkpt lat="43.08355492763822" lon="10.728959010144765"><ele>51.5</ele><time>2026-04-25T14:59:46Z</time></trkpt><trkpt lat="43.08367541921411" lon="10.729042118939798"><ele>51.75</ele><time>2026-04-25T14:59:47Z</time></trkpt><trkpt lat="43.08380468617926" lon="10.729095282069746"><ele>52.0</ele><time>2026-04-25T14:59:48Z</time></trkpt><trkpt lat="43.083940605654334" lon="10.729108402342753"><ele>52.0</ele><time>2026-04-25T14:59:49Z</time></trkpt><trkpt lat="43.084074792347955" lon="10.729141263392547"><ele>52.0</ele><time>2026-04-25T14:59:50Z</time></trkpt><trkpt lat="43.08422240758311" lon="10.729169895670513"><ele>52.0</ele><time>2026-04-25T14:59:51Z</time></trkpt><trkpt lat="43.08437236414935" lon="10.729202815915542"><ele>52.0</ele><time>2026-04-25T14:59:52Z</time></trkpt><trkpt lat="43.0845256553919" lon="10.72924306706451"><ele>52.33333333333333</ele><time>2026-04-25T14:59:53Z</time></trkpt><trkpt lat="43.08468260890974" lon="10.729273006842538"><ele>52.66666666666667</ele><time>2026-04-25T14:59:54Z</time></trkpt><trkpt lat="43.08483991497474" lon="10.729310089021602"><ele>53.0</ele><time>2026-04-25T14:59:55Z</time></trkpt><trkpt lat="43.08499667452416" lon="10.72934467128506"><ele>53.0</ele><time>2026-04-25T14:59:56Z</time></trkpt><trkpt lat="43.085155509753314" lon="10.72937882522052"><ele>53.0</ele><time>2026-04-25T14:59:57Z</time></trkpt><trkpt lat="43.085321162699515" lon="10.729412135791694"><ele>53.0</ele><time>2026-04-25T14:59:58Z</time></trkpt><trkpt lat="43.08548427743068" lon="10.729446293020626"><ele>53.66666666666667</ele><time>2026-04-25T14:59:59Z</time></trkpt><trkpt lat="43.08565163799922" lon="10.72948139880609"><ele>54.33333333333333</ele><time>2026-04-25T15:00:00Z</time></trkpt><trkpt lat="43.08582078551084" lon="10.72951509486394"><ele>55.0</ele><time>2026-04-25T15:00:01Z</time></trkpt><trkpt lat="43.085988037446945" lon="10.729571935527566"><ele>55.666666666666664</ele><time>2026-04-25T15:00:02Z</time></trkpt><trkpt lat="43.086155319129695" lon="10.72960803364837"><ele>56.33333333333333</ele><time>2026-04-25T15:00:03Z</time></trkpt><trkpt lat="43.08632422918142" lon="10.729644410635512"><ele>57.0</ele><time>2026-04-25T15:00:04Z</time></trkpt><trkpt lat="43.086492359108405" lon="10.72967967222335"><ele>56.66666666666667</ele><time>2026-04-25T15:00:05Z</time></trkpt><trkpt lat="43.08665326906456" lon="10.729712949454024"><ele>56.333333333333336</ele><time>2026-04-25T15:00:06Z</time></trkpt><trkpt lat="43.086802741460986" lon="10.729743861237374"><ele>56.0</ele><time>2026-04-25T15:00:07Z</time></trkpt><trkpt lat="43.08695953136287" lon="10.72975331116818"><ele>56.0</ele><time>2026-04-25T15:00:08Z</time></trkpt><trkpt lat="43.08712170764387" lon="10.729787668360931"><ele>56.0</ele><time>2026-04-25T15:00:09Z</time></trkpt><trkpt lat="43.087278339602" lon="10.729827412649598"><ele>56.0</ele><time>2026-04-25T15:00:10Z</time></trkpt><trkpt lat="43.087423859403856" lon="10.729863517829893"><ele>56.0</ele><time>2026-04-25T15:00:11Z</time></trkpt><trkpt lat="43.08755776286062" lon="10.72988697886467"><ele>56.0</ele><time>2026-04-25T15:00:12Z</time></trkpt><trkpt lat="43.08768945789466" lon="10.729917819644209"><ele>56.0</ele><time>2026-04-25T15:00:13Z</time></trkpt><trkpt lat="43.08782741395253" lon="10.729908214711664"><ele>56.0</ele><time>2026-04-25T15:00:14Z</time></trkpt><trkpt lat="43.08796685242152" lon="10.729875662157902"><ele>56.0</ele><time>2026-04-25T15:00:15Z</time></trkpt><trkpt lat="43.08811481493007" lon="10.729836907261726"><ele>56.0</ele><time>2026-04-25T15:00:16Z</time></trkpt><trkpt lat="43.0882648108374" lon="10.729797572184221"><ele>56.0</ele><time>2026-04-25T15:00:17Z</time></trkpt><trkpt lat="43.08841677811133" lon="10.729756687115668"><ele>56.0</ele><time>2026-04-25T15:00:18Z</time></trkpt><trkpt lat="43.088575763132226" lon="10.729713913970022"><ele>56.0</ele><time>2026-04-25T15:00:19Z</time></trkpt><trkpt lat="43.088736616974224" lon="10.729670637950207"><ele>56.0</ele><time>2026-04-25T15:00:20Z</time></trkpt><trkpt lat="43.0888956674671" lon="10.729608169645903"><ele>56.0</ele><time>2026-04-25T15:00:21Z</time></trkpt><trkpt lat="43.08906002123019" lon="10.729567393365494"><ele>56.0</ele><time>2026-04-25T15:00:22Z</time></trkpt><trkpt lat="43.08922451323122" lon="10.729524360072597"><ele>56.0</ele><time>2026-04-25T15:00:23Z</time></trkpt><trkpt lat="43.08938702440909" lon="10.729478993191075"><ele>56.0</ele><time>2026-04-25T15:00:24Z</time></trkpt><trkpt lat="43.089554385059245" lon="10.729432475056335"><ele>56.0</ele><time>2026-04-25T15:00:25Z</time></trkpt><trkpt lat="43.08972073700341" lon="10.72939117762182"><ele>56.0</ele><time>2026-04-25T15:00:26Z</time></trkpt><trkpt lat="43.08988970474087" lon="10.72934485772467"><ele>56.66666666666667</ele><time>2026-04-25T15:00:27Z</time></trkpt><trkpt lat="43.09006263037852" lon="10.729301499318764"><ele>57.33333333333333</ele><time>2026-04-25T15:00:28Z</time></trkpt><trkpt lat="43.09023288672168" lon="10.7292520621387"><ele>58.0</ele><time>2026-04-25T15:00:29Z</time></trkpt><trkpt lat="43.09040248265062" lon="10.729207125296384"><ele>58.0</ele><time>2026-04-25T15:00:30Z</time></trkpt><trkpt lat="43.090577687212544" lon="10.729178668009874"><ele>58.0</ele><time>2026-04-25T15:00:31Z</time></trkpt><trkpt lat="43.0907338724266" lon="10.729136594603304"><ele>58.0</ele><time>2026-04-25T15:00:32Z</time></trkpt><trkpt lat="43.09089310713353" lon="10.729072272893035"><ele>58.666666666666664</ele><time>2026-04-25T15:00:33Z</time></trkpt><trkpt lat="43.091057413734276" lon="10.729034141130002"><ele>59.33333333333333</ele><time>2026-04-25T15:00:34Z</time></trkpt><trkpt lat="43.09122343807237" lon="10.728994303806083"><ele>60.0</ele><time>2026-04-25T15:00:35Z</time></trkpt><trkpt lat="43.09138905979889" lon="10.728955818495766"><ele>60.0</ele><time>2026-04-25T15:00:36Z</time></trkpt><trkpt lat="43.091561918982514" lon="10.728905313477641"><ele>60.0</ele><time>2026-04-25T15:00:37Z</time></trkpt><trkpt lat="43.09173044513584" lon="10.72886427447326"><ele>60.0</ele><time>2026-04-25T15:00:38Z</time></trkpt><trkpt lat="43.09189960458749" lon="10.728818025216396"><ele>59.66666666666667</ele><time>2026-04-25T15:00:39Z</time></trkpt><trkpt lat="43.09206899122093" lon="10.728770564830253"><ele>59.333333333333336</ele><time>2026-04-25T15:00:40Z</time></trkpt><trkpt lat="43.092241237925464" lon="10.72872250556343"><ele>59.0</ele><time>2026-04-25T15:00:41Z</time></trkpt><trkpt lat="43.0924116369169" lon="10.728676629572849"><ele>59.333333333333336</ele><time>2026-04-25T15:00:42Z</time></trkpt><trkpt lat="43.092590135150104" lon="10.728630916632948"><ele>59.66666666666667</ele><time>2026-04-25T15:00:43Z</time></trkpt><trkpt lat="43.09276851629396" lon="10.728580778426851"><ele>60.0</ele><time>2026-04-25T15:00:44Z</time></trkpt><trkpt lat="43.09294223075748" lon="10.72853387375734"><ele>60.0</ele><time>2026-04-25T15:00:45Z</time></trkpt><trkpt lat="43.09311618714582" lon="10.72849199796797"><ele>60.0</ele><time>2026-04-25T15:00:46Z</time></trkpt><trkpt lat="43.093291875028214" lon="10.728445449285411"><ele>60.0</ele><time>2026-04-25T15:00:47Z</time></trkpt><trkpt lat="43.093464346652944" lon="10.728396896102062"><ele>61.0</ele><time>2026-04-25T15:00:48Z</time></trkpt><trkpt lat="43.09363820071683" lon="10.72836958091499"><ele>62.0</ele><time>2026-04-25T15:00:49Z</time></trkpt><trkpt lat="43.093809916230086" lon="10.72832075196502"><ele>63.0</ele><time>2026-04-25T15:00:50Z</time></trkpt><trkpt lat="43.09397938943436" lon="10.72825671147588"><ele>62.0</ele><time>2026-04-25T15:00:51Z</time></trkpt><trkpt lat="43.094148438942746" lon="10.728185455206205"><ele>61.0</ele><time>2026-04-25T15:00:52Z</time></trkpt><trkpt lat="43.09430848529219" lon="10.728090518600645"><ele>60.0</ele><time>2026-04-25T15:00:53Z</time></trkpt><trkpt lat="43.09447853294322" lon="10.728016132706413"><ele>60.0</ele><time>2026-04-25T15:00:54Z</time></trkpt><trkpt lat="43.09464811742693" lon="10.727937925368296"><ele>60.0</ele><time>2026-04-25T15:00:55Z</time></trkpt><trkpt lat="43.09481783889563" lon="10.72786641349638"><ele>60.0</ele><time>2026-04-25T15:00:56Z</time></trkpt><trkpt lat="43.09498876397273" lon="10.727791238722347"><ele>59.33333333333333</ele><time>2026-04-25T15:00:57Z</time></trkpt><trkpt lat="43.09515605524306" lon="10.72771858690013"><ele>58.666666666666664</ele><time>2026-04-25T15:00:58Z</time></trkpt><trkpt lat="43.095320328724604" lon="10.727646025738915"><ele>58.0</ele><time>2026-04-25T15:00:59Z</time></trkpt><trkpt lat="43.095485140872" lon="10.727569414836585"><ele>58.0</ele><time>2026-04-25T15:01:00Z</time></trkpt><trkpt lat="43.09565272584807" lon="10.727495032429522"><ele>58.0</ele><time>2026-04-25T15:01:01Z</time></trkpt><trkpt lat="43.09581938312886" lon="10.727417132643938"><ele>58.0</ele><time>2026-04-25T15:01:02Z</time></trkpt><trkpt lat="43.09598342817763" lon="10.727341168781242"><ele>59.33333333333333</ele><time>2026-04-25T15:01:03Z</time></trkpt><trkpt lat="43.096151222617145" lon="10.727269702171785"><ele>60.66666666666667</ele><time>2026-04-25T15:01:04Z</time></trkpt><trkpt lat="43.09631996489125" lon="10.727189571597075"><ele>62.0</ele><time>2026-04-25T15:01:05Z</time></trkpt><trkpt lat="43.09649050213685" lon="10.727113497517681"><ele>62.0</ele><time>2026-04-25T15:01:06Z</time></trkpt><trkpt lat="43.09666391523399" lon="10.727032186120711"><ele>62.0</ele><time>2026-04-25T15:01:07Z</time></trkpt><trkpt lat="43.096837414092306" lon="10.726956646434436"><ele>62.0</ele><time>2026-04-25T15:01:08Z</time></trkpt><trkpt lat="43.09700769429632" lon="10.726878934455929"><ele>61.66666666666667</ele><time>2026-04-25T15:01:09Z</time></trkpt><trkpt lat="43.09717916016659" lon="10.726799739313774"><ele>61.33333333333333</ele><time>2026-04-25T15:01:10Z</time></trkpt><trkpt lat="43.09734608894991" lon="10.72671914536614"><ele>61.0</ele><time>2026-04-25T15:01:11Z</time></trkpt><trkpt lat="43.097517383652615" lon="10.726649278756756"><ele>61.0</ele><time>2026-04-25T15:01:12Z</time></trkpt><trkpt lat="43.0976840998116" lon="10.726577762800634"><ele>61.0</ele><time>2026-04-25T15:01:13Z</time></trkpt><trkpt lat="43.09784987893992" lon="10.726499724121044"><ele>61.0</ele><time>2026-04-25T15:01:14Z</time></trkpt><trkpt lat="43.09800853595791" lon="10.726415976670813"><ele>61.0</ele><time>2026-04-25T15:01:15Z</time></trkpt><trkpt lat="43.09817145434992" lon="10.726341374705964"><ele>61.0</ele><time>2026-04-25T15:01:16Z</time></trkpt><trkpt lat="43.098336086221835" lon="10.72626215044685"><ele>61.0</ele><time>2026-04-25T15:01:17Z</time></trkpt><trkpt lat="43.09848726281784" lon="10.726195646343674"><ele>61.33333333333333</ele><time>2026-04-25T15:01:18Z</time></trkpt><trkpt lat="43.09863783147936" lon="10.726129008948986"><ele>61.66666666666667</ele><time>2026-04-25T15:01:19Z</time></trkpt><trkpt lat="43.098785633588335" lon="10.726064919368515"><ele>62.0</ele><time>2026-04-25T15:01:20Z</time></trkpt><trkpt lat="43.09894753857576" lon="10.726017765907036"><ele>64.0</ele><time>2026-04-25T15:01:21Z</time></trkpt><trkpt lat="43.09911128257726" lon="10.725993218355205"><ele>66.0</ele><time>2026-04-25T15:01:22Z</time></trkpt><trkpt lat="43.099276951991605" lon="10.725980129360133"><ele>68.0</ele><time>2026-04-25T15:01:23Z</time></trkpt><trkpt lat="43.099444774829124" lon="10.72598132626978"><ele>68.0</ele><time>2026-04-25T15:01:24Z</time></trkpt><trkpt lat="43.09962068321106" lon="10.725991408163276"><ele>68.0</ele><time>2026-04-25T15:01:25Z</time></trkpt><trkpt lat="43.09979441846887" lon="10.726002673785105"><ele>68.0</ele><time>2026-04-25T15:01:26Z</time></trkpt><trkpt lat="43.09997299556054" lon="10.726004247653272"><ele>70.0</ele><time>2026-04-25T15:01:27Z</time></trkpt><trkpt lat="43.100149774744224" lon="10.72603482392797"><ele>72.0</ele><time>2026-04-25T15:01:28Z</time></trkpt><trkpt lat="43.100320419559615" lon="10.726034069516164"><ele>74.0</ele><time>2026-04-25T15:01:29Z</time></trkpt><trkpt lat="43.10049159771093" lon="10.726029072159008"><ele>74.0</ele><time>2026-04-25T15:01:30Z</time></trkpt><trkpt lat="43.10066205905412" lon="10.726001676361744"><ele>74.0</ele><time>2026-04-25T15:01:31Z</time></trkpt><trkpt lat="43.1008291237209" lon="10.725998822535562"><ele>74.0</ele><time>2026-04-25T15:01:32Z</time></trkpt><trkpt lat="43.10099653017987" lon="10.725995617357833"><ele>71.66666666666667</ele><time>2026-04-25T15:01:33Z</time></trkpt><trkpt lat="43.10117367006513" lon="10.725987025100386"><ele>69.33333333333333</ele><time>2026-04-25T15:01:34Z</time></trkpt><trkpt lat="43.10134979194951" lon="10.725984319247619"><ele>67.0</ele><time>2026-04-25T15:01:35Z</time></trkpt><trkpt lat="43.10152299331504" lon="10.725980604652552"><ele>66.66666666666666</ele><time>2026-04-25T15:01:36Z</time></trkpt><trkpt lat="43.10170135387139" lon="10.72597101905558"><ele>66.33333333333333</ele><time>2026-04-25T15:01:37Z</time></trkpt><trkpt lat="43.1018837909729" lon="10.725967341886298"><ele>66.0</ele><time>2026-04-25T15:01:38Z</time></trkpt><trkpt lat="43.102063969277744" lon="10.725964018643056"><ele>66.0</ele><time>2026-04-25T15:01:39Z</time></trkpt><trkpt lat="43.102241260920806" lon="10.725962329969594"><ele>66.0</ele><time>2026-04-25T15:01:40Z</time></trkpt><trkpt lat="43.10241599467856" lon="10.725954948657225"><ele>66.0</ele><time>2026-04-25T15:01:41Z</time></trkpt><trkpt lat="43.10258836025392" lon="10.72595016973763"><ele>66.33333333333333</ele><time>2026-04-25T15:01:42Z</time></trkpt><trkpt lat="43.10276447923397" lon="10.72594643821738"><ele>66.66666666666666</ele><time>2026-04-25T15:01:43Z</time></trkpt><trkpt lat="43.10293638260632" lon="10.72593859047605"><ele>67.0</ele><time>2026-04-25T15:01:44Z</time></trkpt><trkpt lat="43.10309558703655" lon="10.72593274470687"><ele>67.33333333333333</ele><time>2026-04-25T15:01:45Z</time></trkpt><trkpt lat="43.10325693828786" lon="10.7259289249627"><ele>67.66666666666667</ele><time>2026-04-25T15:01:46Z</time></trkpt><trkpt lat="43.10341577044993" lon="10.725926297488096"><ele>68.0</ele><time>2026-04-25T15:01:47Z</time></trkpt><trkpt lat="43.103575187899786" lon="10.725923400723326"><ele>68.0</ele><time>2026-04-25T15:01:48Z</time></trkpt><trkpt lat="43.10373727989264" lon="10.725936396149848"><ele>68.0</ele><time>2026-04-25T15:01:49Z</time></trkpt><trkpt lat="43.10390266865016" lon="10.725968210277387"><ele>68.0</ele><time>2026-04-25T15:01:50Z</time></trkpt><trkpt lat="43.10407098625401" lon="10.726002018236581"><ele>67.0</ele><time>2026-04-25T15:01:51Z</time></trkpt><trkpt lat="43.10423796231238" lon="10.726038711099331"><ele>66.0</ele><time>2026-04-25T15:01:52Z</time></trkpt><trkpt lat="43.10441367184435" lon="10.726071302464991"><ele>65.0</ele><time>2026-04-25T15:01:53Z</time></trkpt><trkpt lat="43.10458795598105" lon="10.726107466899327"><ele>67.0</ele><time>2026-04-25T15:01:54Z</time></trkpt><trkpt lat="43.10476026603215" lon="10.726145791693227"><ele>69.0</ele><time>2026-04-25T15:01:55Z</time></trkpt><trkpt lat="43.10493430887995" lon="10.726185124988639"><ele>71.0</ele><time>2026-04-25T15:01:56Z</time></trkpt><trkpt lat="43.10510795401482" lon="10.726223114369473"><ele>71.0</ele><time>2026-04-25T15:01:57Z</time></trkpt><trkpt lat="43.105280907353205" lon="10.726258293304316"><ele>71.0</ele><time>2026-04-25T15:01:58Z</time></trkpt><trkpt lat="43.10545505305933" lon="10.726298451400618"><ele>71.0</ele><time>2026-04-25T15:01:59Z</time></trkpt><trkpt lat="43.10562846167742" lon="10.726334352968802"><ele>71.0</ele><time>2026-04-25T15:02:00Z</time></trkpt><trkpt lat="43.10580184197487" lon="10.726371323842404"><ele>71.0</ele><time>2026-04-25T15:02:01Z</time></trkpt><trkpt lat="43.105978056198" lon="10.726412094928447"><ele>71.0</ele><time>2026-04-25T15:02:02Z</time></trkpt><trkpt lat="43.10615009869074" lon="10.726450941680786"><ele>71.0</ele><time>2026-04-25T15:02:03Z</time></trkpt><trkpt lat="43.106323163646415" lon="10.726493666904075"><ele>71.0</ele><time>2026-04-25T15:02:04Z</time></trkpt><trkpt lat="43.10649203902975" lon="10.726539278068389"><ele>71.0</ele><time>2026-04-25T15:02:05Z</time></trkpt><trkpt lat="43.10666511186907" lon="10.726582129962601"><ele>71.33333333333334</ele><time>2026-04-25T15:02:06Z</time></trkpt><trkpt lat="43.10682872592029" lon="10.726625359313942"><ele>71.66666666666667</ele><time>2026-04-25T15:02:07Z</time></trkpt><trkpt lat="43.10698281114103" lon="10.726666313608492"><ele>72.0</ele><time>2026-04-25T15:02:08Z</time></trkpt><trkpt lat="43.10713217422956" lon="10.726707233597855"><ele>72.0</ele><time>2026-04-25T15:02:09Z</time></trkpt><trkpt lat="43.10727051460909" lon="10.726753055204775"><ele>72.0</ele><time>2026-04-25T15:02:10Z</time></trkpt><trkpt lat="43.10740135297179" lon="10.726782661275134"><ele>72.0</ele><time>2026-04-25T15:02:11Z</time></trkpt><trkpt lat="43.10752343602672" lon="10.726818273335052"><ele>72.0</ele><time>2026-04-25T15:02:12Z</time></trkpt><trkpt lat="43.10764393876305" lon="10.72685549678149"><ele>72.75</ele><time>2026-04-25T15:02:13Z</time></trkpt><trkpt lat="43.10775945091948" lon="10.726907043807662"><ele>73.5</ele><time>2026-04-25T15:02:14Z</time></trkpt><trkpt lat="43.10788892189635" lon="10.72694921819405"><ele>74.25</ele><time>2026-04-25T15:02:15Z</time></trkpt><trkpt lat="43.108020394371415" lon="10.727000426253772"><ele>75.0</ele><time>2026-04-25T15:02:16Z</time></trkpt><trkpt lat="43.10813918135269" lon="10.727049830336131"><ele>75.2</ele><time>2026-04-25T15:02:17Z</time></trkpt><trkpt lat="43.10825836056893" lon="10.7270892863032"><ele>75.4</ele><time>2026-04-25T15:02:18Z</time></trkpt><trkpt lat="43.10836904921469" lon="10.727140385226257"><ele>75.6</ele><time>2026-04-25T15:02:19Z</time></trkpt><trkpt lat="43.108467441506214" lon="10.727189200625345"><ele>75.8</ele><time>2026-04-25T15:02:20Z</time></trkpt><trkpt lat="43.10855408808219" lon="10.727235137146096"><ele>76.0</ele><time>2026-04-25T15:02:21Z</time></trkpt><trkpt lat="43.10861957114461" lon="10.727277403196725"><ele>76.0</ele><time>2026-04-25T15:02:22Z</time></trkpt><trkpt lat="43.10870780469603" lon="10.727325977842016"><ele>76.0</ele><time>2026-04-25T15:02:24Z</time></trkpt><trkpt lat="43.10881564865518" lon="10.727220453076503"><ele>76.0</ele><time>2026-04-25T15:02:27Z</time></trkpt><trkpt lat="43.108847433910256" lon="10.727140377837776"><ele>76.0</ele><time>2026-04-25T15:02:28Z</time></trkpt><trkpt lat="43.10888895665351" lon="10.727056509408895"><ele>76.0</ele><time>2026-04-25T15:02:29Z</time></trkpt><trkpt lat="43.10893801116678" lon="10.726963458692893"><ele>75.0</ele><time>2026-04-25T15:02:30Z</time></trkpt><trkpt lat="43.10899435162128" lon="10.726861626828482"><ele>74.0</ele><time>2026-04-25T15:02:31Z</time></trkpt><trkpt lat="43.1090596694391" lon="10.726739683298861"><ele>73.0</ele><time>2026-04-25T15:02:32Z</time></trkpt><trkpt lat="43.1091309977329" lon="10.726616706441241"><ele>72.0</ele><time>2026-04-25T15:02:33Z</time></trkpt><trkpt lat="43.10920312848754" lon="10.726489733111302"><ele>71.0</ele><time>2026-04-25T15:02:34Z</time></trkpt><trkpt lat="43.10927546844459" lon="10.726355741707485"><ele>70.5</ele><time>2026-04-25T15:02:35Z</time></trkpt><trkpt lat="43.10935309418806" lon="10.726214555135165"><ele>70.0</ele><time>2026-04-25T15:02:36Z</time></trkpt><trkpt lat="43.109444221220016" lon="10.726083751974096"><ele>69.5</ele><time>2026-04-25T15:02:37Z</time></trkpt><trkpt lat="43.109528597040985" lon="10.725934344719107"><ele>69.0</ele><time>2026-04-25T15:02:38Z</time></trkpt><trkpt lat="43.10961724112099" lon="10.725779685903104"><ele>69.0</ele><time>2026-04-25T15:02:39Z</time></trkpt><trkpt lat="43.10970581645936" lon="10.725638491719657"><ele>69.0</ele><time>2026-04-25T15:02:40Z</time></trkpt><trkpt lat="43.10980055044572" lon="10.725501668807889"><ele>69.0</ele><time>2026-04-25T15:02:41Z</time></trkpt><trkpt lat="43.10989693247314" lon="10.725367584208641"><ele>69.0</ele><time>2026-04-25T15:02:42Z</time></trkpt><trkpt lat="43.10999394561484" lon="10.725241496939365"><ele>69.25</ele><time>2026-04-25T15:02:43Z</time></trkpt><trkpt lat="43.110094937668876" lon="10.725120347071833"><ele>69.5</ele><time>2026-04-25T15:02:44Z</time></trkpt><trkpt lat="43.11019822732232" lon="10.725006899685875"><ele>69.75</ele><time>2026-04-25T15:02:45Z</time></trkpt><trkpt lat="43.11030602878994" lon="10.724909773408612"><ele>70.0</ele><time>2026-04-25T15:02:46Z</time></trkpt><trkpt lat="43.11041500520583" lon="10.724812667611646"><ele>70.0</ele><time>2026-04-25T15:02:47Z</time></trkpt><trkpt lat="43.11053221266616" lon="10.724721328833592"><ele>70.0</ele><time>2026-04-25T15:02:48Z</time></trkpt><trkpt lat="43.110651468122256" lon="10.724631208946906"><ele>70.0</ele><time>2026-04-25T15:02:49Z</time></trkpt><trkpt lat="43.110775091328264" lon="10.724551432874998"><ele>70.0</ele><time>2026-04-25T15:02:50Z</time></trkpt><trkpt lat="43.11089790373641" lon="10.724474020607143"><ele>70.0</ele><time>2026-04-25T15:02:51Z</time></trkpt><trkpt lat="43.11102298926202" lon="10.724404244251216"><ele>70.0</ele><time>2026-04-25T15:02:52Z</time></trkpt><trkpt lat="43.111138818398835" lon="10.72434291159111"><ele>70.0</ele><time>2026-04-25T15:02:53Z</time></trkpt><trkpt lat="43.11124587175156" lon="10.724283114863985"><ele>70.0</ele><time>2026-04-25T15:02:54Z</time></trkpt><trkpt lat="43.111337048275246" lon="10.7242260249494"><ele>70.0</ele><time>2026-04-25T15:02:55Z</time></trkpt><trkpt lat="43.11141227611082" lon="10.724180163312965"><ele>70.0</ele><time>2026-04-25T15:02:56Z</time></trkpt><trkpt lat="43.11148376299078" lon="10.724137626810812"><ele>70.0</ele><time>2026-04-25T15:02:57Z</time></trkpt><trkpt lat="43.11155375075067" lon="10.724093019421062"><ele>70.0</ele><time>2026-04-25T15:02:58Z</time></trkpt><trkpt lat="43.11161570076964" lon="10.724054654159396"><ele>70.0</ele><time>2026-04-25T15:02:59Z</time></trkpt><trkpt lat="43.11168228728431" lon="10.724016855358265"><ele>70.0</ele><time>2026-04-25T15:03:00Z</time></trkpt><trkpt lat="43.11175386341378" lon="10.72397654738494"><ele>69.4</ele><time>2026-04-25T15:03:01Z</time></trkpt><trkpt lat="43.111828845051434" lon="10.72393530920604"><ele>68.8</ele><time>2026-04-25T15:03:02Z</time></trkpt><trkpt lat="43.111908968468654" lon="10.723892008411951"><ele>68.2</ele><time>2026-04-25T15:03:03Z</time></trkpt><trkpt lat="43.11199498391868" lon="10.723841181692384"><ele>67.6</ele><time>2026-04-25T15:03:04Z</time></trkpt><trkpt lat="43.11208716283096" lon="10.723792456628615"><ele>67.0</ele><time>2026-04-25T15:03:05Z</time></trkpt><trkpt lat="43.11217533181162" lon="10.723741405673087"><ele>67.0</ele><time>2026-04-25T15:03:06Z</time></trkpt><trkpt lat="43.11226203339081" lon="10.72371037992718"><ele>67.0</ele><time>2026-04-25T15:03:07Z</time></trkpt><trkpt lat="43.11233798568329" lon="10.723640964151642"><ele>67.0</ele><time>2026-04-25T15:03:08Z</time></trkpt><trkpt lat="43.11240768545038" lon="10.723553809340864"><ele>67.0</ele><time>2026-04-25T15:03:09Z</time></trkpt><trkpt lat="43.11247105915297" lon="10.72344930420717"><ele>67.0</ele><time>2026-04-25T15:03:10Z</time></trkpt><trkpt lat="43.11252518778819" lon="10.723328327412172"><ele>67.6</ele><time>2026-04-25T15:03:11Z</time></trkpt><trkpt lat="43.112569937114806" lon="10.723195213079117"><ele>68.2</ele><time>2026-04-25T15:03:12Z</time></trkpt><trkpt lat="43.112600849244394" lon="10.723050019760228"><ele>68.8</ele><time>2026-04-25T15:03:13Z</time></trkpt><trkpt lat="43.11261339843981" lon="10.722892733640657"><ele>69.4</ele><time>2026-04-25T15:03:14Z</time></trkpt><trkpt lat="43.11262234980403" lon="10.72273858241467"><ele>70.0</ele><time>2026-04-25T15:03:15Z</time></trkpt><trkpt lat="43.11262957330959" lon="10.722572231139916"><ele>70.5</ele><time>2026-04-25T15:03:16Z</time></trkpt><trkpt lat="43.112639674154195" lon="10.722403011276704"><ele>71.0</ele><time>2026-04-25T15:03:17Z</time></trkpt><trkpt lat="43.1126449804139" lon="10.72223300892138"><ele>71.5</ele><time>2026-04-25T15:03:18Z</time></trkpt><trkpt lat="43.11265328157819" lon="10.72205957343814"><ele>72.0</ele><time>2026-04-25T15:03:19Z</time></trkpt><trkpt lat="43.112661390967176" lon="10.72190011688296"><ele>72.5</ele><time>2026-04-25T15:03:20Z</time></trkpt><trkpt lat="43.112677745895326" lon="10.721750037327388"><ele>73.0</ele><time>2026-04-25T15:03:21Z</time></trkpt><trkpt lat="43.11271620203746" lon="10.721594638278491"><ele>73.5</ele><time>2026-04-25T15:03:22Z</time></trkpt><trkpt lat="43.112767099562184" lon="10.7214391645496"><ele>74.0</ele><time>2026-04-25T15:03:23Z</time></trkpt><trkpt lat="43.11283117590858" lon="10.721281528163418"><ele>74.0</ele><time>2026-04-25T15:03:24Z</time></trkpt><trkpt lat="43.11290220320827" lon="10.721121272822227"><ele>74.0</ele><time>2026-04-25T15:03:25Z</time></trkpt><trkpt lat="43.11298860735537" lon="10.720975612227605"><ele>74.0</ele><time>2026-04-25T15:03:26Z</time></trkpt><trkpt lat="43.11308970942844" lon="10.720841873670917"><ele>74.0</ele><time>2026-04-25T15:03:27Z</time></trkpt><trkpt lat="43.11320375292084" lon="10.720723414389747"><ele>75.0</ele><time>2026-04-25T15:03:28Z</time></trkpt><trkpt lat="43.113328588198335" lon="10.720623324535296"><ele>76.0</ele><time>2026-04-25T15:03:29Z</time></trkpt><trkpt lat="43.11344992046053" lon="10.720543895160311"><ele>77.0</ele><time>2026-04-25T15:03:30Z</time></trkpt><trkpt lat="43.11357230271353" lon="10.720487812642789"><ele>78.0</ele><time>2026-04-25T15:03:31Z</time></trkpt><trkpt lat="43.113701220702424" lon="10.72044419515039"><ele>78.0</ele><time>2026-04-25T15:03:32Z</time></trkpt><trkpt lat="43.11383146331323" lon="10.72040379242444"><ele>78.0</ele><time>2026-04-25T15:03:33Z</time></trkpt><trkpt lat="43.1139656737491" lon="10.720369657895331"><ele>78.0</ele><time>2026-04-25T15:03:34Z</time></trkpt><trkpt lat="43.1141061426449" lon="10.720340513026162"><ele>78.0</ele><time>2026-04-25T15:03:35Z</time></trkpt><trkpt lat="43.11425102448887" lon="10.720321069830362"><ele>80.5</ele><time>2026-04-25T15:03:36Z</time></trkpt><trkpt lat="43.11439502551881" lon="10.720304159736708"><ele>83.0</ele><time>2026-04-25T15:03:37Z</time></trkpt><trkpt lat="43.11454328123863" lon="10.720296386078056"><ele>85.5</ele><time>2026-04-25T15:03:38Z</time></trkpt><trkpt lat="43.114690246703816" lon="10.720287122185036"><ele>88.0</ele><time>2026-04-25T15:03:39Z</time></trkpt><trkpt lat="43.114836978174566" lon="10.720269213912191"><ele>88.75</ele><time>2026-04-25T15:03:40Z</time></trkpt><trkpt lat="43.11498076611314" lon="10.720243518183775"><ele>89.5</ele><time>2026-04-25T15:03:41Z</time></trkpt><trkpt lat="43.11512609657829" lon="10.720206107050357"><ele>90.25</ele><time>2026-04-25T15:03:42Z</time></trkpt><trkpt lat="43.1152692870033" lon="10.720166495291698"><ele>91.0</ele><time>2026-04-25T15:03:43Z</time></trkpt><trkpt lat="43.11541155185041" lon="10.720122336216814"><ele>88.0</ele><time>2026-04-25T15:03:44Z</time></trkpt><trkpt lat="43.115557715408144" lon="10.720073606448986"><ele>85.0</ele><time>2026-04-25T15:03:45Z</time></trkpt><trkpt lat="43.115690454909185" lon="10.72003132677522"><ele>82.0</ele><time>2026-04-25T15:03:46Z</time></trkpt><trkpt lat="43.1158229696356" lon="10.719984772084505"><ele>79.0</ele><time>2026-04-25T15:03:47Z</time></trkpt><trkpt lat="43.115951285842854" lon="10.719931072372052"><ele>79.0</ele><time>2026-04-25T15:03:48Z</time></trkpt><trkpt lat="43.11607665641178" lon="10.719892044947976"><ele>79.0</ele><time>2026-04-25T15:03:49Z</time></trkpt><trkpt lat="43.11619794593974" lon="10.719848766216273"><ele>79.0</ele><time>2026-04-25T15:03:50Z</time></trkpt><trkpt lat="43.1163249200595" lon="10.719801847940593"><ele>79.0</ele><time>2026-04-25T15:03:51Z</time></trkpt><trkpt lat="43.11645037858785" lon="10.719756951953096"><ele>79.0</ele><time>2026-04-25T15:03:52Z</time></trkpt><trkpt lat="43.11656689749068" lon="10.719698341197613"><ele>79.0</ele><time>2026-04-25T15:03:53Z</time></trkpt><trkpt lat="43.1166886134253" lon="10.719635815940245"><ele>79.0</ele><time>2026-04-25T15:03:54Z</time></trkpt><trkpt lat="43.116812762270946" lon="10.719596189064788"><ele>79.0</ele><time>2026-04-25T15:03:55Z</time></trkpt><trkpt lat="43.116928196183615" lon="10.719534504030635"><ele>79.25</ele><time>2026-04-25T15:03:56Z</time></trkpt><trkpt lat="43.117044667646894" lon="10.71946757807311"><ele>79.5</ele><time>2026-04-25T15:03:57Z</time></trkpt><trkpt lat="43.11715841570429" lon="10.719420781397975"><ele>79.75</ele><time>2026-04-25T15:03:58Z</time></trkpt><trkpt lat="43.117279213092196" lon="10.719356792138639"><ele>80.0</ele><time>2026-04-25T15:03:59Z</time></trkpt><trkpt lat="43.11738887078754" lon="10.719301137695775"><ele>80.2</ele><time>2026-04-25T15:04:00Z</time></trkpt><trkpt lat="43.11749068398807" lon="10.719249551135281"><ele>80.4</ele><time>2026-04-25T15:04:01Z</time></trkpt><trkpt lat="43.11758861611433" lon="10.719216097439132"><ele>80.6</ele><time>2026-04-25T15:04:02Z</time></trkpt><trkpt lat="43.11768000961154" lon="10.719183722357501"><ele>80.8</ele><time>2026-04-25T15:04:03Z</time></trkpt><trkpt lat="43.1177819320914" lon="10.719184816115593"><ele>81.0</ele><time>2026-04-25T15:04:04Z</time></trkpt><trkpt lat="43.11785775766954" lon="10.719174173796109"><ele>81.0</ele><time>2026-04-25T15:04:05Z</time></trkpt><trkpt lat="43.11794041451569" lon="10.71919081028988"><ele>81.0</ele><time>2026-04-25T15:04:06Z</time></trkpt><trkpt lat="43.11803404079366" lon="10.719218487731677"><ele>81.0</ele><time>2026-04-25T15:04:07Z</time></trkpt><trkpt lat="43.11812455828901" lon="10.719271085567563"><ele>81.0</ele><time>2026-04-25T15:04:08Z</time></trkpt><trkpt lat="43.11821435700704" lon="10.719337223999492"><ele>81.0</ele><time>2026-04-25T15:04:09Z</time></trkpt><trkpt lat="43.118299394011814" lon="10.719414512565894"><ele>83.0</ele><time>2026-04-25T15:04:10Z</time></trkpt><trkpt lat="43.11838392645123" lon="10.71949304871586"><ele>85.0</ele><time>2026-04-25T15:04:11Z</time></trkpt><trkpt lat="43.11846879804917" lon="10.7195756976415"><ele>87.0</ele><time>2026-04-25T15:04:12Z</time></trkpt><trkpt lat="43.11855753432839" lon="10.71965246551245"><ele>89.0</ele><time>2026-04-25T15:04:13Z</time></trkpt><trkpt lat="43.11865240701412" lon="10.719730848745407"><ele>91.0</ele><time>2026-04-25T15:04:14Z</time></trkpt><trkpt lat="43.118749717034866" lon="10.719813174663871"><ele>91.0</ele><time>2026-04-25T15:04:15Z</time></trkpt><trkpt lat="43.11883494835258" lon="10.71990531435864"><ele>91.0</ele><time>2026-04-25T15:04:16Z</time></trkpt><trkpt lat="43.11892883734361" lon="10.719988762190281"><ele>91.0</ele><time>2026-04-25T15:04:17Z</time></trkpt><trkpt lat="43.11902786343835" lon="10.720078889440105"><ele>91.0</ele><time>2026-04-25T15:04:18Z</time></trkpt><trkpt lat="43.11911636002772" lon="10.720168034109717"><ele>91.0</ele><time>2026-04-25T15:04:19Z</time></trkpt><trkpt lat="43.11921225252635" lon="10.720256305716442"><ele>91.25</ele><time>2026-04-25T15:04:20Z</time></trkpt><trkpt lat="43.11931283125597" lon="10.720337291598218"><ele>91.5</ele><time>2026-04-25T15:04:21Z</time></trkpt><trkpt lat="43.11940836242389" lon="10.720426007247166"><ele>91.75</ele><time>2026-04-25T15:04:22Z</time></trkpt><trkpt lat="43.11950795000966" lon="10.720517611843453"><ele>92.0</ele><time>2026-04-25T15:04:23Z</time></trkpt><trkpt lat="43.11961015658649" lon="10.720610960224509"><ele>92.0</ele><time>2026-04-25T15:04:24Z</time></trkpt><trkpt lat="43.11971059104503" lon="10.720703122586714"><ele>92.0</ele><time>2026-04-25T15:04:25Z</time></trkpt><trkpt lat="43.11981554518618" lon="10.720798474539066"><ele>92.0</ele><time>2026-04-25T15:04:26Z</time></trkpt><trkpt lat="43.11992227256046" lon="10.720896250167716"><ele>92.0</ele><time>2026-04-25T15:04:27Z</time></trkpt><trkpt lat="43.12002923040321" lon="10.72099309649524"><ele>92.75</ele><time>2026-04-25T15:04:28Z</time></trkpt><trkpt lat="43.12013468705682" lon="10.721077130193237"><ele>93.5</ele><time>2026-04-25T15:04:29Z</time></trkpt><trkpt lat="43.12024649523318" lon="10.721150533182078"><ele>94.25</ele><time>2026-04-25T15:04:30Z</time></trkpt><trkpt lat="43.120360958062925" lon="10.721222802305281"><ele>95.0</ele><time>2026-04-25T15:04:31Z</time></trkpt><trkpt lat="43.12048102772503" lon="10.721283200860796"><ele>95.0</ele><time>2026-04-25T15:04:32Z</time></trkpt><trkpt lat="43.12061491896212" lon="10.72132504843591"><ele>95.0</ele><time>2026-04-25T15:04:33Z</time></trkpt><trkpt lat="43.120749940957545" lon="10.721353632710022"><ele>95.0</ele><time>2026-04-25T15:04:34Z</time></trkpt><trkpt lat="43.120888573354705" lon="10.721380311588783"><ele>95.0</ele><time>2026-04-25T15:04:35Z</time></trkpt><trkpt lat="43.121027504404076" lon="10.721407580704394"><ele>94.0</ele><time>2026-04-25T15:04:36Z</time></trkpt><trkpt lat="43.12117337068823" lon="10.721434302133353"><ele>93.0</ele><time>2026-04-25T15:04:37Z</time></trkpt><trkpt lat="43.121323034426" lon="10.721459350329813"><ele>92.0</ele><time>2026-04-25T15:04:38Z</time></trkpt><trkpt lat="43.12147098786414" lon="10.72148588290213"><ele>91.0</ele><time>2026-04-25T15:04:39Z</time></trkpt><trkpt lat="43.12161121968924" lon="10.721514554344441"><ele>89.0</ele><time>2026-04-25T15:04:40Z</time></trkpt><trkpt lat="43.121742824823194" lon="10.721541362372138"><ele>87.0</ele><time>2026-04-25T15:04:41Z</time></trkpt><trkpt lat="43.12187529017378" lon="10.72156312960718"><ele>85.0</ele><time>2026-04-25T15:04:42Z</time></trkpt><trkpt lat="43.12200685184984" lon="10.721584595109817"><ele>83.0</ele><time>2026-04-25T15:04:43Z</time></trkpt><trkpt lat="43.12214004634555" lon="10.721595578694043"><ele>83.0</ele><time>2026-04-25T15:04:44Z</time></trkpt><trkpt lat="43.12227176151445" lon="10.721588522800815"><ele>83.0</ele><time>2026-04-25T15:04:45Z</time></trkpt><trkpt lat="43.122405129726964" lon="10.721562465254127"><ele>83.0</ele><time>2026-04-25T15:04:46Z</time></trkpt><trkpt lat="43.12253758279613" lon="10.721515810561042"><ele>83.0</ele><time>2026-04-25T15:04:47Z</time></trkpt><trkpt lat="43.12267138603784" lon="10.721446211802085"><ele>81.75</ele><time>2026-04-25T15:04:48Z</time></trkpt><trkpt lat="43.12280483339846" lon="10.721363728772005"><ele>80.5</ele><time>2026-04-25T15:04:49Z</time></trkpt><trkpt lat="43.12293969951651" lon="10.721273507688617"><ele>79.25</ele><time>2026-04-25T15:04:50Z</time></trkpt><trkpt lat="43.12307237244848" lon="10.72118163727536"><ele>78.0</ele><time>2026-04-25T15:04:51Z</time></trkpt><trkpt lat="43.12320399462318" lon="10.72109294266921"><ele>77.75</ele><time>2026-04-25T15:04:52Z</time></trkpt><trkpt lat="43.1233331160287" lon="10.721007786512503"><ele>77.5</ele><time>2026-04-25T15:04:53Z</time></trkpt><trkpt lat="43.123464725765025" lon="10.720923070744984"><ele>77.25</ele><time>2026-04-25T15:04:54Z</time></trkpt><trkpt lat="43.123598408332214" lon="10.720834505357454"><ele>77.0</ele><time>2026-04-25T15:04:55Z</time></trkpt><trkpt lat="43.12373072578773" lon="10.720748326524419"><ele>77.0</ele><time>2026-04-25T15:04:56Z</time></trkpt><trkpt lat="43.12386570555214" lon="10.720660279350543"><ele>77.0</ele><time>2026-04-25T15:04:57Z</time></trkpt><trkpt lat="43.12399962922983" lon="10.720571190574823"><ele>77.0</ele><time>2026-04-25T15:04:58Z</time></trkpt><trkpt lat="43.12413241914853" lon="10.720483635431194"><ele>77.0</ele><time>2026-04-25T15:04:59Z</time></trkpt><trkpt lat="43.124257642608626" lon="10.720403488375547"><ele>76.75</ele><time>2026-04-25T15:05:00Z</time></trkpt><trkpt lat="43.12437762260871" lon="10.72032880753157"><ele>76.5</ele><time>2026-04-25T15:05:01Z</time></trkpt><trkpt lat="43.12449812178612" lon="10.720243246833798"><ele>76.25</ele><time>2026-04-25T15:05:02Z</time></trkpt><trkpt lat="43.124610263949485" lon="10.720144577097063"><ele>76.0</ele><time>2026-04-25T15:05:03Z</time></trkpt><trkpt lat="43.12471310947921" lon="10.720025184538192"><ele>76.0</ele><time>2026-04-25T15:05:04Z</time></trkpt><trkpt lat="43.12480494643731" lon="10.719893354738758"><ele>76.0</ele><time>2026-04-25T15:05:05Z</time></trkpt><trkpt lat="43.12488720390714" lon="10.71974810728932"><ele>76.0</ele><time>2026-04-25T15:05:06Z</time></trkpt><trkpt lat="43.12495527142627" lon="10.719589361112003"><ele>76.0</ele><time>2026-04-25T15:05:07Z</time></trkpt><trkpt lat="43.125008344907044" lon="10.719415085209041"><ele>76.0</ele><time>2026-04-25T15:05:08Z</time></trkpt><trkpt lat="43.125047168192765" lon="10.719227383541785"><ele>76.0</ele><time>2026-04-25T15:05:09Z</time></trkpt><trkpt lat="43.12508150302658" lon="10.719035509090624"><ele>76.0</ele><time>2026-04-25T15:05:10Z</time></trkpt><trkpt lat="43.12511738120113" lon="10.718840219639507"><ele>76.0</ele><time>2026-04-25T15:05:11Z</time></trkpt><trkpt lat="43.125148743992476" lon="10.718649848118266"><ele>76.0</ele><time>2026-04-25T15:05:12Z</time></trkpt><trkpt lat="43.12517662394967" lon="10.718469773724022"><ele>76.0</ele><time>2026-04-25T15:05:13Z</time></trkpt><trkpt lat="43.12520574927125" lon="10.718301237634826"><ele>76.0</ele><time>2026-04-25T15:05:14Z</time></trkpt><trkpt lat="43.125230660952404" lon="10.718154281511062"><ele>76.0</ele><time>2026-04-25T15:05:15Z</time></trkpt><trkpt lat="43.12525486790374" lon="10.718025681156243"><ele>76.0</ele><time>2026-04-25T15:05:16Z</time></trkpt><trkpt lat="43.12527712547794" lon="10.717906542697536"><ele>76.0</ele><time>2026-04-25T15:05:17Z</time></trkpt><trkpt lat="43.125296490334016" lon="10.717806007205297"><ele>76.0</ele><time>2026-04-25T15:05:18Z</time></trkpt><trkpt lat="43.12531331593676" lon="10.717703804895034"><ele>76.0</ele><time>2026-04-25T15:05:19Z</time></trkpt><trkpt lat="43.12533423917824" lon="10.71759671480175"><ele>76.0</ele><time>2026-04-25T15:05:20Z</time></trkpt><trkpt lat="43.12535227939572" lon="10.717483547579777"><ele>76.0</ele><time>2026-04-25T15:05:21Z</time></trkpt><trkpt lat="43.125371567286855" lon="10.71737417966067"><ele>76.0</ele><time>2026-04-25T15:05:22Z</time></trkpt><trkpt lat="43.12539225972187" lon="10.717276157014211"><ele>76.0</ele><time>2026-04-25T15:05:23Z</time></trkpt><trkpt lat="43.125420932906216" lon="10.717181693283491"><ele>76.0</ele><time>2026-04-25T15:05:24Z</time></trkpt><trkpt lat="43.125432373349454" lon="10.7170898929187"><ele>76.0</ele><time>2026-04-25T15:05:25Z</time></trkpt><trkpt lat="43.12545672586265" lon="10.716994756625336"><ele>76.0</ele><time>2026-04-25T15:05:27Z</time></trkpt><trkpt lat="43.12563898465458" lon="10.717054187120473"><ele>76.0</ele><time>2026-04-25T15:05:28Z</time></trkpt><trkpt lat="43.1257079600934" lon="10.717063356693409"><ele>76.0</ele><time>2026-04-25T15:05:29Z</time></trkpt><trkpt lat="43.12578461699648" lon="10.71707628002542"><ele>76.0</ele><time>2026-04-25T15:05:30Z</time></trkpt><trkpt lat="43.12587052717765" lon="10.717081301258279"><ele>76.0</ele><time>2026-04-25T15:05:31Z</time></trkpt><trkpt lat="43.125961012475415" lon="10.717098631991576"><ele>76.0</ele><time>2026-04-25T15:05:32Z</time></trkpt><trkpt lat="43.12604890408135" lon="10.717113001465867"><ele>76.0</ele><time>2026-04-25T15:05:33Z</time></trkpt><trkpt lat="43.12614054698501" lon="10.717130170383584"><ele>76.2</ele><time>2026-04-25T15:05:34Z</time></trkpt><trkpt lat="43.12623801626756" lon="10.717147793297002"><ele>76.39999999999999</ele><time>2026-04-25T15:05:35Z</time></trkpt><trkpt lat="43.126335802052424" lon="10.71716843156739"><ele>76.6</ele><time>2026-04-25T15:05:36Z</time></trkpt><trkpt lat="43.126432252210044" lon="10.717218427039306"><ele>76.8</ele><time>2026-04-25T15:05:37Z</time></trkpt><trkpt lat="43.12653707015223" lon="10.717255506570345"><ele>77.0</ele><time>2026-04-25T15:05:38Z</time></trkpt><trkpt lat="43.12665616366657" lon="10.717282997316238"><ele>77.25</ele><time>2026-04-25T15:05:39Z</time></trkpt><trkpt lat="43.12677560925455" lon="10.71733639010609"><ele>77.5</ele><time>2026-04-25T15:05:40Z</time></trkpt><trkpt lat="43.126895417811156" lon="10.71739030543258"><ele>77.75</ele><time>2026-04-25T15:05:41Z</time></trkpt><trkpt lat="43.127013490856264" lon="10.717452929231843"><ele>78.0</ele><time>2026-04-25T15:05:42Z</time></trkpt><trkpt lat="43.127140447138814" lon="10.717516701412542"><ele>78.0</ele><time>2026-04-25T15:05:43Z</time></trkpt><trkpt lat="43.12727353432402" lon="10.717582350165367"><ele>78.0</ele><time>2026-04-25T15:05:44Z</time></trkpt><trkpt lat="43.12741013223841" lon="10.717652884266636"><ele>78.0</ele><time>2026-04-25T15:05:45Z</time></trkpt><trkpt lat="43.127549305244585" lon="10.717723367631166"><ele>78.0</ele><time>2026-04-25T15:05:46Z</time></trkpt><trkpt lat="43.12769167476389" lon="10.717795169401507"><ele>78.33333333333333</ele><time>2026-04-25T15:05:47Z</time></trkpt><trkpt lat="43.127834137881976" lon="10.717869113183873"><ele>78.66666666666666</ele><time>2026-04-25T15:05:48Z</time></trkpt><trkpt lat="43.12797712110684" lon="10.717941141052112"><ele>79.0</ele><time>2026-04-25T15:05:49Z</time></trkpt><trkpt lat="43.12812152427586" lon="10.71800815253711"><ele>79.33333333333333</ele><time>2026-04-25T15:05:50Z</time></trkpt><trkpt lat="43.128264995701215" lon="10.718079355441471"><ele>79.66666666666667</ele><time>2026-04-25T15:05:51Z</time></trkpt><trkpt lat="43.1284035859052" lon="10.718173578970333"><ele>80.0</ele><time>2026-04-25T15:05:52Z</time></trkpt><trkpt lat="43.128555199607696" lon="10.718226641904685"><ele>80.0</ele><time>2026-04-25T15:05:53Z</time></trkpt><trkpt lat="43.12870245966743" lon="10.718301202569997"><ele>80.0</ele><time>2026-04-25T15:05:54Z</time></trkpt><trkpt lat="43.12885191166467" lon="10.718375101345183"><ele>80.0</ele><time>2026-04-25T15:05:55Z</time></trkpt><trkpt lat="43.1290018980825" lon="10.718449744612771"><ele>80.25</ele><time>2026-04-25T15:05:56Z</time></trkpt><trkpt lat="43.129149210401366" lon="10.71852470969547"><ele>80.5</ele><time>2026-04-25T15:05:57Z</time></trkpt><trkpt lat="43.129282332824005" lon="10.71859240017599"><ele>80.75</ele><time>2026-04-25T15:05:58Z</time></trkpt><trkpt lat="43.129407345955656" lon="10.718655191523304"><ele>81.0</ele><time>2026-04-25T15:05:59Z</time></trkpt><trkpt lat="43.129522732725924" lon="10.718735910218236"><ele>81.0</ele><time>2026-04-25T15:06:00Z</time></trkpt><trkpt lat="43.12962741057698" lon="10.718795913772746"><ele>81.0</ele><time>2026-04-25T15:06:01Z</time></trkpt><trkpt lat="43.129737048878766" lon="10.718836181171186"><ele>81.0</ele><time>2026-04-25T15:06:02Z</time></trkpt><trkpt lat="43.12983916958289" lon="10.718905304121355"><ele>81.0</ele><time>2026-04-25T15:06:03Z</time></trkpt><trkpt lat="43.12994310383315" lon="10.718979049693711"><ele>81.75</ele><time>2026-04-25T15:06:04Z</time></trkpt><trkpt lat="43.13004932907574" lon="10.71904953121925"><ele>82.5</ele><time>2026-04-25T15:06:05Z</time></trkpt><trkpt lat="43.1301494321593" lon="10.71912897029666"><ele>83.25</ele><time>2026-04-25T15:06:06Z</time></trkpt><trkpt lat="43.13024818751296" lon="10.719209614509296"><ele>84.0</ele><time>2026-04-25T15:06:07Z</time></trkpt><trkpt lat="43.13034505694184" lon="10.719300465306652"><ele>83.5</ele><time>2026-04-25T15:06:08Z</time></trkpt><trkpt lat="43.13042821436926" lon="10.719416661025422"><ele>83.0</ele><time>2026-04-25T15:06:09Z</time></trkpt><trkpt lat="43.13052311269031" lon="10.719519477160654"><ele>82.5</ele><time>2026-04-25T15:06:10Z</time></trkpt><trkpt lat="43.13060973344798" lon="10.719627971496479"><ele>82.0</ele><time>2026-04-25T15:06:11Z</time></trkpt><trkpt lat="43.130697361403875" lon="10.719736620974468"><ele>82.75</ele><time>2026-04-25T15:06:12Z</time></trkpt><trkpt lat="43.13079577022094" lon="10.719835886342928"><ele>83.5</ele><time>2026-04-25T15:06:13Z</time></trkpt><trkpt lat="43.130885683973744" lon="10.719949504546761"><ele>84.25</ele><time>2026-04-25T15:06:14Z</time></trkpt><trkpt lat="43.13096435727998" lon="10.720081118964483"><ele>85.0</ele><time>2026-04-25T15:06:15Z</time></trkpt><trkpt lat="43.131061673840236" lon="10.720179119353586"><ele>85.0</ele><time>2026-04-25T15:06:16Z</time></trkpt><trkpt lat="43.13114737796504" lon="10.7202986918762"><ele>85.0</ele><time>2026-04-25T15:06:17Z</time></trkpt><trkpt lat="43.13123674781139" lon="10.720416140625924"><ele>85.0</ele><time>2026-04-25T15:06:18Z</time></trkpt><trkpt lat="43.131312564789006" lon="10.720552614044799"><ele>85.0</ele><time>2026-04-25T15:06:19Z</time></trkpt><trkpt lat="43.13140300486064" lon="10.720665769326088"><ele>85.0</ele><time>2026-04-25T15:06:20Z</time></trkpt><trkpt lat="43.1314931264" lon="10.720795546478078"><ele>85.0</ele><time>2026-04-25T15:06:21Z</time></trkpt><trkpt lat="43.131577745568315" lon="10.720923832406472"><ele>85.0</ele><time>2026-04-25T15:06:22Z</time></trkpt><trkpt lat="43.1316611372641" lon="10.721048544627823"><ele>85.0</ele><time>2026-04-25T15:06:23Z</time></trkpt><trkpt lat="43.13173846396584" lon="10.721162945769505"><ele>85.2</ele><time>2026-04-25T15:06:24Z</time></trkpt><trkpt lat="43.1317944217902" lon="10.721257459396666"><ele>85.4</ele><time>2026-04-25T15:06:25Z</time></trkpt><trkpt lat="43.131860559112596" lon="10.72137724304998"><ele>85.6</ele><time>2026-04-25T15:06:27Z</time></trkpt><trkpt lat="43.131917742450796" lon="10.721419539473672"><ele>85.8</ele><time>2026-04-25T15:07:31Z</time></trkpt><trkpt lat="43.13197300273515" lon="10.721561268843024"><ele>86.0</ele><time>2026-04-25T15:07:38Z</time></trkpt><trkpt lat="43.132029708585854" lon="10.721623107604383"><ele>86.0</ele><time>2026-04-25T15:07:39Z</time></trkpt><trkpt lat="43.13208992574391" lon="10.721690187357739"><ele>86.0</ele><time>2026-04-25T15:07:40Z</time></trkpt><trkpt lat="43.13215783228149" lon="10.721771288485105"><ele>86.0</ele><time>2026-04-25T15:07:41Z</time></trkpt><trkpt lat="43.13222741217297" lon="10.721857099353997"><ele>86.0</ele><time>2026-04-25T15:07:42Z</time></trkpt><trkpt lat="43.13229812378123" lon="10.721961713043346"><ele>86.0</ele><time>2026-04-25T15:07:43Z</time></trkpt><trkpt lat="43.13239869733938" lon="10.722049776074872"><ele>86.5</ele><time>2026-04-25T15:07:44Z</time></trkpt><trkpt lat="43.13250141524744" lon="10.722137187926378"><ele>87.0</ele><time>2026-04-25T15:07:45Z</time></trkpt><trkpt lat="43.13260457082464" lon="10.72222443999887"><ele>87.5</ele><time>2026-04-25T15:07:46Z</time></trkpt><trkpt lat="43.1327136424732" lon="10.722309520951345"><ele>88.0</ele><time>2026-04-25T15:07:47Z</time></trkpt><trkpt lat="43.13283328520431" lon="10.722384441394174"><ele>88.0</ele><time>2026-04-25T15:07:48Z</time></trkpt><trkpt lat="43.132947527679754" lon="10.722484928079904"><ele>88.0</ele><time>2026-04-25T15:07:49Z</time></trkpt><trkpt lat="43.13305412592539" lon="10.722585397946267"><ele>88.0</ele><time>2026-04-25T15:07:50Z</time></trkpt><trkpt lat="43.133169768211324" lon="10.72267852541788"><ele>88.0</ele><time>2026-04-25T15:07:51Z</time></trkpt><trkpt lat="43.13328830153051" lon="10.722774029861172"><ele>87.75</ele><time>2026-04-25T15:07:52Z</time></trkpt><trkpt lat="43.133401245812564" lon="10.722882295852108"><ele>87.5</ele><time>2026-04-25T15:07:53Z</time></trkpt><trkpt lat="43.13350796146148" lon="10.723012182921654"><ele>87.25</ele><time>2026-04-25T15:07:54Z</time></trkpt><trkpt lat="43.13361042605752" lon="10.723156837641135"><ele>87.0</ele><time>2026-04-25T15:07:55Z</time></trkpt><trkpt lat="43.13371562113559" lon="10.723312337008736"><ele>87.0</ele><time>2026-04-25T15:07:56Z</time></trkpt><trkpt lat="43.133825196213735" lon="10.723470336994449"><ele>87.0</ele><time>2026-04-25T15:07:57Z</time></trkpt><trkpt lat="43.1339356003354" lon="10.72362844118821"><ele>87.0</ele><time>2026-04-25T15:07:58Z</time></trkpt><trkpt lat="43.13402956259128" lon="10.723806087086118"><ele>87.33333333333333</ele><time>2026-04-25T15:07:59Z</time></trkpt><trkpt lat="43.13413870269444" lon="10.723973458789525"><ele>87.66666666666666</ele><time>2026-04-25T15:08:00Z</time></trkpt><trkpt lat="43.134253417886484" lon="10.724138804212144"><ele>88.0</ele><time>2026-04-25T15:08:01Z</time></trkpt><trkpt lat="43.13436522512667" lon="10.724306966160485"><ele>87.0</ele><time>2026-04-25T15:08:02Z</time></trkpt><trkpt lat="43.13448404335875" lon="10.724477073969796"><ele>86.0</ele><time>2026-04-25T15:08:03Z</time></trkpt><trkpt lat="43.13460242784186" lon="10.724638218895796"><ele>85.0</ele><time>2026-04-25T15:08:04Z</time></trkpt><trkpt lat="43.134722485972055" lon="10.724800825023664"><ele>85.0</ele><time>2026-04-25T15:08:05Z</time></trkpt><trkpt lat="43.13484588909023" lon="10.724961730147845"><ele>85.0</ele><time>2026-04-25T15:08:06Z</time></trkpt><trkpt lat="43.13496989180317" lon="10.725122118398229"><ele>85.0</ele><time>2026-04-25T15:08:07Z</time></trkpt><trkpt lat="43.13509003467721" lon="10.72527914297805"><ele>85.33333333333333</ele><time>2026-04-25T15:08:08Z</time></trkpt><trkpt lat="43.13520788744566" lon="10.725427894052789"><ele>85.66666666666667</ele><time>2026-04-25T15:08:09Z</time></trkpt><trkpt lat="43.135323135856474" lon="10.725579435692607"><ele>86.0</ele><time>2026-04-25T15:08:10Z</time></trkpt><trkpt lat="43.13544079836709" lon="10.725735667116338"><ele>86.0</ele><time>2026-04-25T15:08:11Z</time></trkpt><trkpt lat="43.13556005975205" lon="10.725894021514812"><ele>86.0</ele><time>2026-04-25T15:08:12Z</time></trkpt><trkpt lat="43.1356812267757" lon="10.726054906205391"><ele>86.0</ele><time>2026-04-25T15:08:13Z</time></trkpt><trkpt lat="43.13580401484711" lon="10.726212844841662"><ele>87.33333333333334</ele><time>2026-04-25T15:08:14Z</time></trkpt><trkpt lat="43.135928468506734" lon="10.726365808688643"><ele>88.66666666666667</ele><time>2026-04-25T15:08:15Z</time></trkpt><trkpt lat="43.136049703920854" lon="10.72652378371045"><ele>90.0</ele><time>2026-04-25T15:08:16Z</time></trkpt><trkpt lat="43.13617231628708" lon="10.726686343021884"><ele>90.0</ele><time>2026-04-25T15:08:17Z</time></trkpt><trkpt lat="43.1362944862541" lon="10.726848315801357"><ele>90.0</ele><time>2026-04-25T15:08:18Z</time></trkpt><trkpt lat="43.13641740187264" lon="10.72701293479734"><ele>90.0</ele><time>2026-04-25T15:08:19Z</time></trkpt><trkpt lat="43.13653956242479" lon="10.72717605138253"><ele>90.0</ele><time>2026-04-25T15:08:20Z</time></trkpt><trkpt lat="43.13666089934921" lon="10.727335370649486"><ele>90.0</ele><time>2026-04-25T15:08:21Z</time></trkpt><trkpt lat="43.13678311795793" lon="10.727498963484312"><ele>90.0</ele><time>2026-04-25T15:08:22Z</time></trkpt><trkpt lat="43.13690066942399" lon="10.72765769066172"><ele>88.66666666666667</ele><time>2026-04-25T15:08:23Z</time></trkpt><trkpt lat="43.13701638172878" lon="10.727813861308608"><ele>87.33333333333334</ele><time>2026-04-25T15:08:24Z</time></trkpt><trkpt lat="43.13712327431398" lon="10.727956107899482"><ele>86.0</ele><time>2026-04-25T15:08:25Z</time></trkpt><trkpt lat="43.137222076776126" lon="10.728091009368791"><ele>86.0</ele><time>2026-04-25T15:08:26Z</time></trkpt><trkpt lat="43.13731695571868" lon="10.728210511076854"><ele>86.0</ele><time>2026-04-25T15:08:27Z</time></trkpt><trkpt lat="43.1374116614727" lon="10.728321966059466"><ele>86.0</ele><time>2026-04-25T15:08:28Z</time></trkpt><trkpt lat="43.13750998537115" lon="10.72842246503011"><ele>86.0</ele><time>2026-04-25T15:08:29Z</time></trkpt><trkpt lat="43.13762453461626" lon="10.728509737881643"><ele>86.75</ele><time>2026-04-25T15:08:30Z</time></trkpt><trkpt lat="43.13775153532932" lon="10.728575643478722"><ele>87.5</ele><time>2026-04-25T15:08:31Z</time></trkpt><trkpt lat="43.13788729429933" lon="10.728619039366782"><ele>88.25</ele><time>2026-04-25T15:08:32Z</time></trkpt><trkpt lat="43.13802627816908" lon="10.728655587604816"><ele>89.0</ele><time>2026-04-25T15:08:33Z</time></trkpt><trkpt lat="43.13816156526203" lon="10.728702372666046"><ele>89.5</ele><time>2026-04-25T15:08:34Z</time></trkpt><trkpt lat="43.13828996272399" lon="10.728758832764612"><ele>90.0</ele><time>2026-04-25T15:08:35Z</time></trkpt><trkpt lat="43.138413358057676" lon="10.728838538605503"><ele>90.5</ele><time>2026-04-25T15:08:36Z</time></trkpt><trkpt lat="43.1385209311891" lon="10.728922046757107"><ele>91.0</ele><time>2026-04-25T15:08:37Z</time></trkpt><trkpt lat="43.13861817344906" lon="10.729021377015782"><ele>91.0</ele><time>2026-04-25T15:08:38Z</time></trkpt><trkpt lat="43.13870535935919" lon="10.7291450313728"><ele>91.0</ele><time>2026-04-25T15:08:39Z</time></trkpt><trkpt lat="43.13880216444231" lon="10.729276298596236"><ele>91.0</ele><time>2026-04-25T15:08:40Z</time></trkpt><trkpt lat="43.138871593104454" lon="10.729448441600175"><ele>91.0</ele><time>2026-04-25T15:08:41Z</time></trkpt><trkpt lat="43.138953806524995" lon="10.729607175719089"><ele>91.0</ele><time>2026-04-25T15:08:42Z</time></trkpt><trkpt lat="43.1390395054873" lon="10.729743849847097"><ele>91.0</ele><time>2026-04-25T15:08:43Z</time></trkpt><trkpt lat="43.139143105778174" lon="10.72987214429334"><ele>91.0</ele><time>2026-04-25T15:08:44Z</time></trkpt><trkpt lat="43.13926556920319" lon="10.729983454057676"><ele>91.0</ele><time>2026-04-25T15:08:45Z</time></trkpt><trkpt lat="43.13939509519512" lon="10.730082197577682"><ele>91.33333333333333</ele><time>2026-04-25T15:08:46Z</time></trkpt><trkpt lat="43.13952972726189" lon="10.73018186224511"><ele>91.66666666666667</ele><time>2026-04-25T15:08:47Z</time></trkpt><trkpt lat="43.139671720899564" lon="10.730286370808699"><ele>92.0</ele><time>2026-04-25T15:08:48Z</time></trkpt><trkpt lat="43.139816670567875" lon="10.730393055018697"><ele>91.33333333333334</ele><time>2026-04-25T15:08:49Z</time></trkpt><trkpt lat="43.139965195386516" lon="10.730500120158839"><ele>90.66666666666667</ele><time>2026-04-25T15:08:50Z</time></trkpt><trkpt lat="43.140115176593206" lon="10.73060740437674"><ele>90.0</ele><time>2026-04-25T15:08:51Z</time></trkpt><trkpt lat="43.14026479593069" lon="10.730718881516449"><ele>90.0</ele><time>2026-04-25T15:08:52Z</time></trkpt><trkpt lat="43.14041567779427" lon="10.730830230638478"><ele>90.0</ele><time>2026-04-25T15:08:53Z</time></trkpt><trkpt lat="43.140567275859034" lon="10.730941733137808"><ele>90.0</ele><time>2026-04-25T15:08:54Z</time></trkpt><trkpt lat="43.14071712910995" lon="10.731054414406291"><ele>90.0</ele><time>2026-04-25T15:08:55Z</time></trkpt><trkpt lat="43.140867646756206" lon="10.731169135734389"><ele>90.0</ele><time>2026-04-25T15:08:56Z</time></trkpt><trkpt lat="43.14102358125957" lon="10.731284068971734"><ele>90.0</ele><time>2026-04-25T15:08:57Z</time></trkpt><trkpt lat="43.14117644920032" lon="10.731396789494699"><ele>90.0</ele><time>2026-04-25T15:08:58Z</time></trkpt><trkpt lat="43.14131504668929" lon="10.731500395577394"><ele>90.0</ele><time>2026-04-25T15:08:59Z</time></trkpt><trkpt lat="43.141445198201595" lon="10.731599493965845"><ele>90.0</ele><time>2026-04-25T15:09:00Z</time></trkpt><trkpt lat="43.141575829424184" lon="10.731700394024148"><ele>90.25</ele><time>2026-04-25T15:09:01Z</time></trkpt><trkpt lat="43.141697472472" lon="10.73179200198217"><ele>90.5</ele><time>2026-04-25T15:09:02Z</time></trkpt><trkpt lat="43.141811091279614" lon="10.731873921842968"><ele>90.75</ele><time>2026-04-25T15:09:03Z</time></trkpt><trkpt lat="43.14193044040427" lon="10.731954110357652"><ele>91.0</ele><time>2026-04-25T15:09:04Z</time></trkpt><trkpt lat="43.14206151629152" lon="10.732019561735617"><ele>91.0</ele><time>2026-04-25T15:09:05Z</time></trkpt><trkpt lat="43.14219217012498" lon="10.732068594577088"><ele>91.0</ele><time>2026-04-25T15:09:06Z</time></trkpt><trkpt lat="43.14232280159018" lon="10.73209929129545"><ele>91.0</ele><time>2026-04-25T15:09:07Z</time></trkpt><trkpt lat="43.14244721267025" lon="10.732110754548625"><ele>91.0</ele><time>2026-04-25T15:09:08Z</time></trkpt><trkpt lat="43.142580539131814" lon="10.732103115896459"><ele>91.5</ele><time>2026-04-25T15:09:09Z</time></trkpt><trkpt lat="43.14271166355287" lon="10.732079267623206"><ele>92.0</ele><time>2026-04-25T15:09:10Z</time></trkpt><trkpt lat="43.14284018622696" lon="10.732043212212146"><ele>92.5</ele><time>2026-04-25T15:09:11Z</time></trkpt><trkpt lat="43.14297011985083" lon="10.731977676741034"><ele>93.0</ele><time>2026-04-25T15:09:12Z</time></trkpt><trkpt lat="43.14308820955297" lon="10.73188267169361"><ele>95.75</ele><time>2026-04-25T15:09:13Z</time></trkpt><trkpt lat="43.14321710662414" lon="10.731808248740872"><ele>98.5</ele><time>2026-04-25T15:09:14Z</time></trkpt><trkpt lat="43.143330807092916" lon="10.731746800850472"><ele>101.25</ele><time>2026-04-25T15:09:15Z</time></trkpt><trkpt lat="43.14344955767272" lon="10.731700849979115"><ele>104.0</ele><time>2026-04-25T15:09:16Z</time></trkpt><trkpt lat="43.14357140136405" lon="10.731668788301644"><ele>104.0</ele><time>2026-04-25T15:09:17Z</time></trkpt><trkpt lat="43.143702605399376" lon="10.731646576452928"><ele>104.0</ele><time>2026-04-25T15:09:18Z</time></trkpt><trkpt lat="43.14384902419635" lon="10.731657084964304"><ele>104.0</ele><time>2026-04-25T15:09:19Z</time></trkpt><trkpt lat="43.14398122140573" lon="10.731654054841464"><ele>104.0</ele><time>2026-04-25T15:09:20Z</time></trkpt><trkpt lat="43.14410744296067" lon="10.731651161688832"><ele>103.5</ele><time>2026-04-25T15:09:21Z</time></trkpt><trkpt lat="43.14423275384356" lon="10.731645448154797"><ele>103.0</ele><time>2026-04-25T15:09:22Z</time></trkpt><trkpt lat="43.1443403432257" lon="10.731622346529566"><ele>102.5</ele><time>2026-04-25T15:09:23Z</time></trkpt><trkpt lat="43.14447617103748" lon="10.731609201876367"><ele>102.0</ele><time>2026-04-25T15:09:24Z</time></trkpt><trkpt lat="43.14461224760513" lon="10.731599297499397"><ele>102.0</ele><time>2026-04-25T15:09:25Z</time></trkpt><trkpt lat="43.14474134465065" lon="10.731574303189603"><ele>102.0</ele><time>2026-04-25T15:09:26Z</time></trkpt><trkpt lat="43.14488979592236" lon="10.731534126630452"><ele>102.0</ele><time>2026-04-25T15:09:27Z</time></trkpt><trkpt lat="43.145031849968554" lon="10.731483121485804"><ele>102.0</ele><time>2026-04-25T15:09:28Z</time></trkpt><trkpt lat="43.14516546796777" lon="10.731438288702497"><ele>101.25</ele><time>2026-04-25T15:09:29Z</time></trkpt><trkpt lat="43.145298240754336" lon="10.731403351311242"><ele>100.5</ele><time>2026-04-25T15:09:30Z</time></trkpt><trkpt lat="43.145434754537206" lon="10.731364279819886"><ele>99.75</ele><time>2026-04-25T15:09:31Z</time></trkpt><trkpt lat="43.14557586544932" lon="10.731320300089632"><ele>99.0</ele><time>2026-04-25T15:09:32Z</time></trkpt><trkpt lat="43.14571583301671" lon="10.731277561624104"><ele>98.75</ele><time>2026-04-25T15:09:33Z</time></trkpt><trkpt lat="43.14585544489536" lon="10.731242353676905"><ele>98.5</ele><time>2026-04-25T15:09:34Z</time></trkpt><trkpt lat="43.14599044324989" lon="10.731194336367139"><ele>98.25</ele><time>2026-04-25T15:09:35Z</time></trkpt><trkpt lat="43.14612501982239" lon="10.731153621290238"><ele>98.0</ele><time>2026-04-25T15:09:36Z</time></trkpt><trkpt lat="43.14625460070291" lon="10.731112655869312"><ele>98.0</ele><time>2026-04-25T15:09:37Z</time></trkpt><trkpt lat="43.146389248060814" lon="10.731087719185492"><ele>98.0</ele><time>2026-04-25T15:09:38Z</time></trkpt><trkpt lat="43.146517184976084" lon="10.731010728863433"><ele>98.0</ele><time>2026-04-25T15:09:39Z</time></trkpt><trkpt lat="43.14664687690261" lon="10.730942511902441"><ele>98.0</ele><time>2026-04-25T15:09:40Z</time></trkpt><trkpt lat="43.14676893060679" lon="10.730855122315399"><ele>100.66666666666666</ele><time>2026-04-25T15:09:41Z</time></trkpt><trkpt lat="43.14688720031288" lon="10.73075279238505"><ele>103.33333333333334</ele><time>2026-04-25T15:09:42Z</time></trkpt><trkpt lat="43.14700132606805" lon="10.730614755271361"><ele>106.0</ele><time>2026-04-25T15:09:43Z</time></trkpt><trkpt lat="43.147125863757466" lon="10.73048004553775"><ele>106.0</ele><time>2026-04-25T15:09:44Z</time></trkpt><trkpt lat="43.14724776328879" lon="10.73035192159948"><ele>106.0</ele><time>2026-04-25T15:09:45Z</time></trkpt><trkpt lat="43.14736485905004" lon="10.730223372182316"><ele>106.0</ele><time>2026-04-25T15:09:46Z</time></trkpt><trkpt lat="43.1474915067599" lon="10.730100672851146"><ele>106.66666666666667</ele><time>2026-04-25T15:09:47Z</time></trkpt><trkpt lat="43.14762443399492" lon="10.729969416765567"><ele>107.33333333333334</ele><time>2026-04-25T15:09:48Z</time></trkpt><trkpt lat="43.14775922875785" lon="10.729851094446147"><ele>108.0</ele><time>2026-04-25T15:09:49Z</time></trkpt><trkpt lat="43.14789826774023" lon="10.72973174257194"><ele>108.0</ele><time>2026-04-25T15:09:50Z</time></trkpt><trkpt lat="43.14803641853193" lon="10.729613180922406"><ele>108.0</ele><time>2026-04-25T15:09:51Z</time></trkpt><trkpt lat="43.14818562786104" lon="10.729492838153627"><ele>108.0</ele><time>2026-04-25T15:09:52Z</time></trkpt><trkpt lat="43.14833244900906" lon="10.729380444277004"><ele>108.0</ele><time>2026-04-25T15:09:53Z</time></trkpt><trkpt lat="43.14847369352729" lon="10.729268750768272"><ele>108.0</ele><time>2026-04-25T15:09:54Z</time></trkpt><trkpt lat="43.148615197925295" lon="10.729152660480823"><ele>108.0</ele><time>2026-04-25T15:09:55Z</time></trkpt><trkpt lat="43.148756577352266" lon="10.729040798247803"><ele>108.0</ele><time>2026-04-25T15:09:56Z</time></trkpt><trkpt lat="43.14889425216453" lon="10.728924630014216"><ele>108.0</ele><time>2026-04-25T15:09:57Z</time></trkpt><trkpt lat="43.14903222950223" lon="10.728815571125262"><ele>108.0</ele><time>2026-04-25T15:09:58Z</time></trkpt><trkpt lat="43.14916155192297" lon="10.728722041494125"><ele>108.25</ele><time>2026-04-25T15:09:59Z</time></trkpt><trkpt lat="43.14927526479869" lon="10.72863772847612"><ele>108.5</ele><time>2026-04-25T15:10:00Z</time></trkpt><trkpt lat="43.149371481581674" lon="10.72855892767441"><ele>108.75</ele><time>2026-04-25T15:10:01Z</time></trkpt><trkpt lat="43.14945574485909" lon="10.728460411449444"><ele>109.0</ele><time>2026-04-25T15:10:02Z</time></trkpt><trkpt lat="43.14952843682681" lon="10.728334518240779"><ele>109.0</ele><time>2026-04-25T15:10:03Z</time></trkpt><trkpt lat="43.149584066197946" lon="10.72819619721925"><ele>109.0</ele><time>2026-04-25T15:10:04Z</time></trkpt><trkpt lat="43.14962225769996" lon="10.728034397241164"><ele>109.0</ele><time>2026-04-25T15:10:05Z</time></trkpt><trkpt lat="43.14965170409585" lon="10.727865308278972"><ele>109.0</ele><time>2026-04-25T15:10:06Z</time></trkpt><trkpt lat="43.14967290631775" lon="10.727682650696645"><ele>110.25</ele><time>2026-04-25T15:10:07Z</time></trkpt><trkpt lat="43.149694288702506" lon="10.727496279648088"><ele>111.5</ele><time>2026-04-25T15:10:08Z</time></trkpt><trkpt lat="43.149719518104696" lon="10.727304268927433"><ele>112.75</ele><time>2026-04-25T15:10:09Z</time></trkpt><trkpt lat="43.14974813224575" lon="10.727111241553269"><ele>114.0</ele><time>2026-04-25T15:10:10Z</time></trkpt><trkpt lat="43.14977903972463" lon="10.726912577422212"><ele>115.5</ele><time>2026-04-25T15:10:11Z</time></trkpt><trkpt lat="43.14980822005123" lon="10.726716812048265"><ele>117.0</ele><time>2026-04-25T15:10:12Z</time></trkpt><trkpt lat="43.14983705178364" lon="10.726531821567031"><ele>118.5</ele><time>2026-04-25T15:10:13Z</time></trkpt><trkpt lat="43.149863258751" lon="10.726343898051864"><ele>120.0</ele><time>2026-04-25T15:10:14Z</time></trkpt><trkpt lat="43.149890283531704" lon="10.726154678042613"><ele>116.5</ele><time>2026-04-25T15:10:15Z</time></trkpt><trkpt lat="43.14991810579435" lon="10.725962290048606"><ele>113.0</ele><time>2026-04-25T15:10:16Z</time></trkpt><trkpt lat="43.14994084184002" lon="10.725777714307753"><ele>109.5</ele><time>2026-04-25T15:10:17Z</time></trkpt><trkpt lat="43.14996489838963" lon="10.725587436492951"><ele>106.0</ele><time>2026-04-25T15:10:18Z</time></trkpt><trkpt lat="43.14999273758376" lon="10.725415406909656"><ele>106.0</ele><time>2026-04-25T15:10:19Z</time></trkpt><trkpt lat="43.15001467315102" lon="10.72524673478457"><ele>106.0</ele><time>2026-04-25T15:10:20Z</time></trkpt><trkpt lat="43.150047531695535" lon="10.72508669922329"><ele>106.0</ele><time>2026-04-25T15:10:21Z</time></trkpt><trkpt lat="43.15009152083749" lon="10.724950559188333"><ele>106.0</ele><time>2026-04-25T15:10:22Z</time></trkpt><trkpt lat="43.15015013437811" lon="10.72482835395703"><ele>107.33333333333334</ele><time>2026-04-25T15:10:23Z</time></trkpt><trkpt lat="43.15022154756577" lon="10.724718402776974"><ele>108.66666666666667</ele><time>2026-04-25T15:10:24Z</time></trkpt><trkpt lat="43.15029059804067" lon="10.724644113724816"><ele>110.0</ele><time>2026-04-25T15:10:25Z</time></trkpt><trkpt lat="43.150371006146656" lon="10.724628492150046"><ele>111.33333333333334</ele><time>2026-04-25T15:10:26Z</time></trkpt><trkpt lat="43.15044496738127" lon="10.724615221631042"><ele>112.66666666666667</ele><time>2026-04-25T15:10:27Z</time></trkpt><trkpt lat="43.15053072211643" lon="10.724603535546702"><ele>114.0</ele><time>2026-04-25T15:10:28Z</time></trkpt><trkpt lat="43.15063232642815" lon="10.72458656661317"><ele>111.80000000000001</ele><time>2026-04-25T15:10:29Z</time></trkpt><trkpt lat="43.15073595481376" lon="10.724546706177042"><ele>109.60000000000001</ele><time>2026-04-25T15:10:30Z</time></trkpt><trkpt lat="43.15084592809188" lon="10.724539335578026"><ele>107.4</ele><time>2026-04-25T15:10:31Z</time></trkpt><trkpt lat="43.15095528189443" lon="10.724520804519376"><ele>105.2</ele><time>2026-04-25T15:10:32Z</time></trkpt><trkpt lat="43.151068249011516" lon="10.724497198326569"><ele>103.0</ele><time>2026-04-25T15:10:33Z</time></trkpt><trkpt lat="43.15118490939037" lon="10.724473557904911"><ele>103.0</ele><time>2026-04-25T15:10:34Z</time></trkpt><trkpt lat="43.151301617667556" lon="10.724450122581999"><ele>103.0</ele><time>2026-04-25T15:10:35Z</time></trkpt><trkpt lat="43.15141810571089" lon="10.72442910266372"><ele>103.0</ele><time>2026-04-25T15:10:36Z</time></trkpt><trkpt lat="43.15154040155702" lon="10.724412624605106"><ele>103.0</ele><time>2026-04-25T15:10:37Z</time></trkpt><trkpt lat="43.15167243089928" lon="10.724401836718071"><ele>103.0</ele><time>2026-04-25T15:10:38Z</time></trkpt><trkpt lat="43.15181124485452" lon="10.72440545794407"><ele>103.0</ele><time>2026-04-25T15:10:39Z</time></trkpt><trkpt lat="43.15194486229116" lon="10.72442756047836"><ele>103.0</ele><time>2026-04-25T15:10:40Z</time></trkpt><trkpt lat="43.152063734305756" lon="10.72448561100138"><ele>103.0</ele><time>2026-04-25T15:10:41Z</time></trkpt><trkpt lat="43.152181066836214" lon="10.724537716678507"><ele>103.0</ele><time>2026-04-25T15:10:42Z</time></trkpt><trkpt lat="43.152292673929615" lon="10.72457303398097"><ele>103.0</ele><time>2026-04-25T15:10:43Z</time></trkpt><trkpt lat="43.15238404487609" lon="10.724641482273876"><ele>103.0</ele><time>2026-04-25T15:10:44Z</time></trkpt><trkpt lat="43.15248380766966" lon="10.724702320668301"><ele>103.0</ele><time>2026-04-25T15:10:45Z</time></trkpt><trkpt lat="43.1525797988422" lon="10.724761995287967"><ele>103.0</ele><time>2026-04-25T15:10:46Z</time></trkpt><trkpt lat="43.15265933879844" lon="10.724815666021204"><ele>103.80000000000001</ele><time>2026-04-25T15:10:47Z</time></trkpt><trkpt lat="43.152739939006956" lon="10.724869739715178"><ele>104.6</ele><time>2026-04-25T15:10:48Z</time></trkpt><trkpt lat="43.152825925424885" lon="10.72492707278458"><ele>105.39999999999999</ele><time>2026-04-25T15:10:49Z</time></trkpt><trkpt lat="43.15291745999002" lon="10.724987360555117"><ele>106.19999999999999</ele><time>2026-04-25T15:10:50Z</time></trkpt><trkpt lat="43.15301163507215" lon="10.725048632990505"><ele>107.0</ele><time>2026-04-25T15:10:51Z</time></trkpt><trkpt lat="43.15309834751723" lon="10.725124248608477"><ele>107.0</ele><time>2026-04-25T15:10:52Z</time></trkpt><trkpt lat="43.153197092490764" lon="10.725194496193465"><ele>106.99999999999999</ele><time>2026-04-25T15:10:53Z</time></trkpt><trkpt lat="43.153296939653956" lon="10.725265979635077"><ele>106.99999999999999</ele><time>2026-04-25T15:10:54Z</time></trkpt><trkpt lat="43.1533954432644" lon="10.725332609526925"><ele>107.0</ele><time>2026-04-25T15:10:55Z</time></trkpt><trkpt lat="43.15349448674912" lon="10.725393042768946"><ele>107.0</ele><time>2026-04-25T15:10:56Z</time></trkpt><trkpt lat="43.15359130199995" lon="10.725455690936604"><ele>107.39999999999999</ele><time>2026-04-25T15:10:57Z</time></trkpt><trkpt lat="43.15368448663418" lon="10.725521446555302"><ele>107.79999999999998</ele><time>2026-04-25T15:10:58Z</time></trkpt><trkpt lat="43.153782532452034" lon="10.725584295292776"><ele>108.2</ele><time>2026-04-25T15:10:59Z</time></trkpt><trkpt lat="43.15388129645162" lon="10.725645203293396"><ele>108.6</ele><time>2026-04-25T15:11:00Z</time></trkpt><trkpt lat="43.15398143732979" lon="10.725705762117636"><ele>109.0</ele><time>2026-04-25T15:11:01Z</time></trkpt><trkpt lat="43.154076769262424" lon="10.725774930798835"><ele>108.6</ele><time>2026-04-25T15:11:02Z</time></trkpt><trkpt lat="43.15417968199584" lon="10.725837141396916"><ele>108.2</ele><time>2026-04-25T15:11:03Z</time></trkpt><trkpt lat="43.15428396625331" lon="10.725899767239502"><ele>107.79999999999998</ele><time>2026-04-25T15:11:04Z</time></trkpt><trkpt lat="43.1543673266669" lon="10.725975709338067"><ele>107.39999999999999</ele><time>2026-04-25T15:11:05Z</time></trkpt><trkpt lat="43.154463900443744" lon="10.72604160118793"><ele>107.0</ele><time>2026-04-25T15:11:06Z</time></trkpt><trkpt lat="43.15456589525597" lon="10.72610850997058"><ele>107.0</ele><time>2026-04-25T15:11:07Z</time></trkpt><trkpt lat="43.154665828591746" lon="10.726178955693376"><ele>106.99999999999999</ele><time>2026-04-25T15:11:08Z</time></trkpt><trkpt lat="43.154767822628436" lon="10.726247608083405"><ele>106.99999999999999</ele><time>2026-04-25T15:11:09Z</time></trkpt><trkpt lat="43.15486364616111" lon="10.726311135528565"><ele>107.0</ele><time>2026-04-25T15:11:10Z</time></trkpt><trkpt lat="43.15496335404741" lon="10.726373983308502"><ele>107.0</ele><time>2026-04-25T15:11:11Z</time></trkpt><trkpt lat="43.15506441924048" lon="10.726435811319359"><ele>107.25</ele><time>2026-04-25T15:11:12Z</time></trkpt><trkpt lat="43.155165821252496" lon="10.726503230538645"><ele>107.5</ele><time>2026-04-25T15:11:13Z</time></trkpt><trkpt lat="43.15527022098715" lon="10.726571909118467"><ele>107.75</ele><time>2026-04-25T15:11:14Z</time></trkpt><trkpt lat="43.15537296645407" lon="10.726648139302895"><ele>108.0</ele><time>2026-04-25T15:11:15Z</time></trkpt><trkpt lat="43.155478351282326" lon="10.726710867416093"><ele>108.0</ele><time>2026-04-25T15:11:16Z</time></trkpt><trkpt lat="43.155585464193656" lon="10.726775402704368"><ele>108.0</ele><time>2026-04-25T15:11:17Z</time></trkpt><trkpt lat="43.15569124489313" lon="10.726844209192285"><ele>108.0</ele><time>2026-04-25T15:11:18Z</time></trkpt><trkpt lat="43.15580253708597" lon="10.726909505245816"><ele>108.0</ele><time>2026-04-25T15:11:19Z</time></trkpt><trkpt lat="43.155900908466144" lon="10.726979674189614"><ele>108.5</ele><time>2026-04-25T15:11:20Z</time></trkpt><trkpt lat="43.156003138208455" lon="10.727049975201922"><ele>109.0</ele><time>2026-04-25T15:11:21Z</time></trkpt><trkpt lat="43.15610437111327" lon="10.727121758150652"><ele>109.5</ele><time>2026-04-25T15:11:22Z</time></trkpt><trkpt lat="43.15619697199703" lon="10.727195099361632"><ele>110.0</ele><time>2026-04-25T15:11:23Z</time></trkpt><trkpt lat="43.156313166088545" lon="10.727252898071471"><ele>110.0</ele><time>2026-04-25T15:11:24Z</time></trkpt><trkpt lat="43.15641371831646" lon="10.727330263668666"><ele>110.0</ele><time>2026-04-25T15:11:25Z</time></trkpt><trkpt lat="43.15651487095976" lon="10.72739566109729"><ele>110.0</ele><time>2026-04-25T15:11:26Z</time></trkpt><trkpt lat="43.156615980308175" lon="10.72744693370747"><ele>110.0</ele><time>2026-04-25T15:11:27Z</time></trkpt><trkpt lat="43.156714309749816" lon="10.727512907070665"><ele>110.0</ele><time>2026-04-25T15:11:28Z</time></trkpt><trkpt lat="43.156813667565864" lon="10.727578323465888"><ele>110.2</ele><time>2026-04-25T15:11:29Z</time></trkpt><trkpt lat="43.15691484228645" lon="10.72764762596008"><ele>110.4</ele><time>2026-04-25T15:11:30Z</time></trkpt><trkpt lat="43.15701720447417" lon="10.727712348494434"><ele>110.6</ele><time>2026-04-25T15:11:31Z</time></trkpt><trkpt lat="43.157106125261116" lon="10.72778472414878"><ele>110.8</ele><time>2026-04-25T15:11:32Z</time></trkpt><trkpt lat="43.15720518950055" lon="10.727846919585344"><ele>111.0</ele><time>2026-04-25T15:11:33Z</time></trkpt><trkpt lat="43.157303738186336" lon="10.727910782843816"><ele>112.0</ele><time>2026-04-25T15:11:34Z</time></trkpt><trkpt lat="43.15739919516353" lon="10.72797325223593"><ele>113.0</ele><time>2026-04-25T15:11:35Z</time></trkpt><trkpt lat="43.157498447359075" lon="10.72803444171987"><ele>114.0</ele><time>2026-04-25T15:11:36Z</time></trkpt><trkpt lat="43.157594951848225" lon="10.72810092511282"><ele>115.0</ele><time>2026-04-25T15:11:37Z</time></trkpt><trkpt lat="43.1576931925566" lon="10.72816625157169"><ele>116.0</ele><time>2026-04-25T15:11:38Z</time></trkpt><trkpt lat="43.15779265695703" lon="10.728229754927574"><ele>116.0</ele><time>2026-04-25T15:11:39Z</time></trkpt><trkpt lat="43.15789287381158" lon="10.728291345709996"><ele>116.0</ele><time>2026-04-25T15:11:40Z</time></trkpt><trkpt lat="43.15799190384428" lon="10.728350334270079"><ele>116.0</ele><time>2026-04-25T15:11:41Z</time></trkpt><trkpt lat="43.158090188742996" lon="10.728412521698916"><ele>116.0</ele><time>2026-04-25T15:11:42Z</time></trkpt><trkpt lat="43.158189535627415" lon="10.7284768474262"><ele>116.0</ele><time>2026-04-25T15:11:43Z</time></trkpt><trkpt lat="43.15827854272425" lon="10.72854929293992"><ele>118.6</ele><time>2026-04-25T15:11:44Z</time></trkpt><trkpt lat="43.15837742461699" lon="10.728612414087713"><ele>121.19999999999999</ele><time>2026-04-25T15:11:45Z</time></trkpt><trkpt lat="43.158479357464465" lon="10.728678357541494"><ele>123.80000000000001</ele><time>2026-04-25T15:11:46Z</time></trkpt><trkpt lat="43.158580539317676" lon="10.728748014044688"><ele>126.4</ele><time>2026-04-25T15:11:47Z</time></trkpt><trkpt lat="43.1586811953129" lon="10.728817176823693"><ele>129.0</ele><time>2026-04-25T15:11:48Z</time></trkpt><trkpt lat="43.15878191965528" lon="10.728888849952622"><ele>129.0</ele><time>2026-04-25T15:11:49Z</time></trkpt><trkpt lat="43.15887704387236" lon="10.72897144206442"><ele>129.0</ele><time>2026-04-25T15:11:50Z</time></trkpt><trkpt lat="43.158969159793635" lon="10.729065048452433"><ele>129.0</ele><time>2026-04-25T15:11:51Z</time></trkpt><trkpt lat="43.15905629757099" lon="10.729168310996558"><ele>129.0</ele><time>2026-04-25T15:11:52Z</time></trkpt><trkpt lat="43.15913919977903" lon="10.729278146767301"><ele>128.25</ele><time>2026-04-25T15:11:53Z</time></trkpt><trkpt lat="43.159226173297384" lon="10.729387842230503"><ele>127.5</ele><time>2026-04-25T15:11:54Z</time></trkpt><trkpt lat="43.159316288730736" lon="10.72949430695306"><ele>126.75</ele><time>2026-04-25T15:11:55Z</time></trkpt><trkpt lat="43.1594068126111" lon="10.729593297325152"><ele>126.0</ele><time>2026-04-25T15:11:56Z</time></trkpt><trkpt lat="43.15950430841477" lon="10.7296783044227"><ele>128.75</ele><time>2026-04-25T15:11:57Z</time></trkpt><trkpt lat="43.15960850059886" lon="10.729746161691917"><ele>131.5</ele><time>2026-04-25T15:11:58Z</time></trkpt><trkpt lat="43.15972030147475" lon="10.729795144734322"><ele>134.25</ele><time>2026-04-25T15:11:59Z</time></trkpt><trkpt lat="43.15983301312453" lon="10.729835048897232"><ele>137.0</ele><time>2026-04-25T15:12:00Z</time></trkpt><trkpt lat="43.159947974348526" lon="10.72987858581465"><ele>137.0</ele><time>2026-04-25T15:12:01Z</time></trkpt><trkpt lat="43.16006298669761" lon="10.729920164945929"><ele>137.0</ele><time>2026-04-25T15:12:02Z</time></trkpt><trkpt lat="43.16017767057296" lon="10.729956956017082"><ele>137.0</ele><time>2026-04-25T15:12:03Z</time></trkpt><trkpt lat="43.16028218868033" lon="10.730008181927158"><ele>137.0</ele><time>2026-04-25T15:12:04Z</time></trkpt><trkpt lat="43.160383449419314" lon="10.730082151577113"><ele>137.0</ele><time>2026-04-25T15:12:05Z</time></trkpt><trkpt lat="43.160479897903535" lon="10.730176877425418"><ele>137.0</ele><time>2026-04-25T15:12:06Z</time></trkpt><trkpt lat="43.16056445008709" lon="10.7302933477877"><ele>137.0</ele><time>2026-04-25T15:12:07Z</time></trkpt><trkpt lat="43.16064983209114" lon="10.730409919982016"><ele>137.0</ele><time>2026-04-25T15:12:08Z</time></trkpt><trkpt lat="43.16072814109541" lon="10.7305337013298"><ele>139.25</ele><time>2026-04-25T15:12:09Z</time></trkpt><trkpt lat="43.16084204527974" lon="10.730600009510956"><ele>141.5</ele><time>2026-04-25T15:12:10Z</time></trkpt><trkpt lat="43.16095511805051" lon="10.73066819906264"><ele>143.75</ele><time>2026-04-25T15:12:11Z</time></trkpt><trkpt lat="43.161076364603844" lon="10.730714400544398"><ele>146.0</ele><time>2026-04-25T15:12:12Z</time></trkpt><trkpt lat="43.16120238708851" lon="10.730750816735036"><ele>146.0</ele><time>2026-04-25T15:12:13Z</time></trkpt><trkpt lat="43.161328663885605" lon="10.730786976039278"><ele>146.0</ele><time>2026-04-25T15:12:14Z</time></trkpt><trkpt lat="43.161447183334" lon="10.730820003663"><ele>146.0</ele><time>2026-04-25T15:12:15Z</time></trkpt><trkpt lat="43.161574129927075" lon="10.730862476357098"><ele>146.0</ele><time>2026-04-25T15:12:16Z</time></trkpt><trkpt lat="43.161697398935665" lon="10.730906733252695"><ele>145.75</ele><time>2026-04-25T15:12:17Z</time></trkpt><trkpt lat="43.161821055666834" lon="10.730942281911679"><ele>145.5</ele><time>2026-04-25T15:12:18Z</time></trkpt><trkpt lat="43.16194804725921" lon="10.730976918856873"><ele>145.25</ele><time>2026-04-25T15:12:19Z</time></trkpt><trkpt lat="43.16207309958559" lon="10.731011555054298"><ele>145.0</ele><time>2026-04-25T15:12:20Z</time></trkpt><trkpt lat="43.16219500399324" lon="10.731049761800042"><ele>148.0</ele><time>2026-04-25T15:12:21Z</time></trkpt><trkpt lat="43.16232066918533" lon="10.731086759353833"><ele>151.0</ele><time>2026-04-25T15:12:22Z</time></trkpt><trkpt lat="43.16244868007006" lon="10.731121894483994"><ele>154.0</ele><time>2026-04-25T15:12:23Z</time></trkpt><trkpt lat="43.16257593332856" lon="10.731161840840793"><ele>157.0</ele><time>2026-04-25T15:12:24Z</time></trkpt><trkpt lat="43.16270418493665" lon="10.73120446204334"><ele>157.75</ele><time>2026-04-25T15:12:25Z</time></trkpt><trkpt lat="43.16283141048716" lon="10.731244571199227"><ele>158.5</ele><time>2026-04-25T15:12:26Z</time></trkpt><trkpt lat="43.16295749878797" lon="10.731282344089982"><ele>159.25</ele><time>2026-04-25T15:12:27Z</time></trkpt><trkpt lat="43.16306905676853" lon="10.731328863672118"><ele>160.0</ele><time>2026-04-25T15:12:28Z</time></trkpt><trkpt lat="43.16320256398582" lon="10.731349500099475"><ele>160.5</ele><time>2026-04-25T15:12:29Z</time></trkpt><trkpt lat="43.16332477308155" lon="10.731390979777853"><ele>161.0</ele><time>2026-04-25T15:12:30Z</time></trkpt><trkpt lat="43.16343326876304" lon="10.731454489354444"><ele>161.5</ele><time>2026-04-25T15:12:31Z</time></trkpt><trkpt lat="43.163552705897615" lon="10.731497520691445"><ele>162.0</ele><time>2026-04-25T15:12:32Z</time></trkpt><trkpt lat="43.163676811808614" lon="10.731533395870317"><ele>162.0</ele><time>2026-04-25T15:12:33Z</time></trkpt><trkpt lat="43.163805740261864" lon="10.73156615319036"><ele>162.0</ele><time>2026-04-25T15:12:34Z</time></trkpt><trkpt lat="43.16392828487412" lon="10.731597672044"><ele>162.0</ele><time>2026-04-25T15:12:35Z</time></trkpt><trkpt lat="43.16405339794028" lon="10.731636667130855"><ele>162.0</ele><time>2026-04-25T15:12:36Z</time></trkpt><trkpt lat="43.16417732315758" lon="10.731670466321594"><ele>163.0</ele><time>2026-04-25T15:12:37Z</time></trkpt><trkpt lat="43.16430131593043" lon="10.731707528256699"><ele>164.0</ele><time>2026-04-25T15:12:38Z</time></trkpt><trkpt lat="43.164431346169096" lon="10.731734097897386"><ele>165.0</ele><time>2026-04-25T15:12:39Z</time></trkpt><trkpt lat="43.16454890223344" lon="10.731779771594544"><ele>166.0</ele><time>2026-04-25T15:12:40Z</time></trkpt><trkpt lat="43.16467649574045" lon="10.731811158413729"><ele>166.0</ele><time>2026-04-25T15:12:41Z</time></trkpt><trkpt lat="43.16479450086581" lon="10.73184979833774"><ele>166.0</ele><time>2026-04-25T15:12:42Z</time></trkpt><trkpt lat="43.16491304174849" lon="10.731885924277542"><ele>166.0</ele><time>2026-04-25T15:12:43Z</time></trkpt><trkpt lat="43.16503755762824" lon="10.73192300639323"><ele>166.0</ele><time>2026-04-25T15:12:44Z</time></trkpt><trkpt lat="43.16516087693365" lon="10.731956102584178"><ele>171.25</ele><time>2026-04-25T15:12:45Z</time></trkpt><trkpt lat="43.16528651665503" lon="10.731991944961417"><ele>176.5</ele><time>2026-04-25T15:12:46Z</time></trkpt><trkpt lat="43.165417416108205" lon="10.73202793954348"><ele>181.75</ele><time>2026-04-25T15:12:47Z</time></trkpt><trkpt lat="43.16554801169463" lon="10.73206760342635"><ele>187.0</ele><time>2026-04-25T15:12:48Z</time></trkpt><trkpt lat="43.16568347766065" lon="10.732107646855175"><ele>185.5</ele><time>2026-04-25T15:12:49Z</time></trkpt><trkpt lat="43.16581423595378" lon="10.732149182150254"><ele>184.0</ele><time>2026-04-25T15:12:50Z</time></trkpt><trkpt lat="43.1659403618834" lon="10.7321877128935"><ele>182.5</ele><time>2026-04-25T15:12:51Z</time></trkpt><trkpt lat="43.16605347230417" lon="10.732233278663953"><ele>181.0</ele><time>2026-04-25T15:12:52Z</time></trkpt><trkpt lat="43.166163540471246" lon="10.73229580858146"><ele>181.0</ele><time>2026-04-25T15:12:53Z</time></trkpt><trkpt lat="43.16626709831184" lon="10.732371820110064"><ele>181.0</ele><time>2026-04-25T15:12:54Z</time></trkpt><trkpt lat="43.16636023526361" lon="10.73247068132639"><ele>181.0</ele><time>2026-04-25T15:12:55Z</time></trkpt><trkpt lat="43.1664476842702" lon="10.732594581788609"><ele>181.0</ele><time>2026-04-25T15:12:56Z</time></trkpt><trkpt lat="43.16652602347454" lon="10.732720258223496"><ele>186.25</ele><time>2026-04-25T15:12:57Z</time></trkpt><trkpt lat="43.16659964605694" lon="10.732832790151589"><ele>191.5</ele><time>2026-04-25T15:12:58Z</time></trkpt><trkpt lat="43.16669860439284" lon="10.732921458628313"><ele>196.75</ele><time>2026-04-25T15:12:59Z</time></trkpt><trkpt lat="43.16680936182408" lon="10.732985012427683"><ele>202.0</ele><time>2026-04-25T15:13:00Z</time></trkpt><trkpt lat="43.166924803076554" lon="10.733033020231101"><ele>202.0</ele><time>2026-04-25T15:13:01Z</time></trkpt><trkpt lat="43.16703644462492" lon="10.733084933866508"><ele>202.0</ele><time>2026-04-25T15:13:02Z</time></trkpt><trkpt lat="43.167129745507495" lon="10.733147651093267"><ele>202.0</ele><time>2026-04-25T15:13:03Z</time></trkpt><trkpt lat="43.16720415045623" lon="10.733215606748841"><ele>202.0</ele><time>2026-04-25T15:13:04Z</time></trkpt><trkpt lat="43.16726093231129" lon="10.733308200241034"><ele>202.0</ele><time>2026-04-25T15:13:05Z</time></trkpt><trkpt lat="43.16730351471884" lon="10.733424605137294"><ele>202.0</ele><time>2026-04-25T15:13:06Z</time></trkpt><trkpt lat="43.167338533106" lon="10.733554167201671"><ele>202.0</ele><time>2026-04-25T15:13:07Z</time></trkpt><trkpt lat="43.16736774591789" lon="10.733696654018019"><ele>202.0</ele><time>2026-04-25T15:13:08Z</time></trkpt><trkpt lat="43.16739889241832" lon="10.733841137318054"><ele>202.0</ele><time>2026-04-25T15:13:09Z</time></trkpt><trkpt lat="43.16742668983952" lon="10.733992528918478"><ele>202.0</ele><time>2026-04-25T15:13:10Z</time></trkpt><trkpt lat="43.16745408624851" lon="10.734140730950285"><ele>202.6</ele><time>2026-04-25T15:13:11Z</time></trkpt><trkpt lat="43.167469895137295" lon="10.734279388265335"><ele>203.2</ele><time>2026-04-25T15:13:12Z</time></trkpt><trkpt lat="43.16752168030755" lon="10.734407582597482"><ele>203.8</ele><time>2026-04-25T15:13:13Z</time></trkpt><trkpt lat="43.16758335693422" lon="10.73452724655901"><ele>204.4</ele><time>2026-04-25T15:13:14Z</time></trkpt><trkpt lat="43.16765409710751" lon="10.734623426585754"><ele>205.0</ele><time>2026-04-25T15:13:15Z</time></trkpt><trkpt lat="43.16773313770714" lon="10.734697481950137"><ele>205.0</ele><time>2026-04-25T15:13:16Z</time></trkpt><trkpt lat="43.16782284495613" lon="10.734743294613203"><ele>205.0</ele><time>2026-04-25T15:13:17Z</time></trkpt><trkpt lat="43.16792066718659" lon="10.734767078589584"><ele>205.0</ele><time>2026-04-25T15:13:18Z</time></trkpt><trkpt lat="43.16802747470484" lon="10.734765454985604"><ele>205.0</ele><time>2026-04-25T15:13:19Z</time></trkpt><trkpt lat="43.16813202846764" lon="10.734743102701175"><ele>205.0</ele><time>2026-04-25T15:13:20Z</time></trkpt><trkpt lat="43.168235402487035" lon="10.734721900796721"><ele>203.0</ele><time>2026-04-25T15:13:21Z</time></trkpt><trkpt lat="43.1683287439151" lon="10.734713892407763"><ele>201.0</ele><time>2026-04-25T15:13:22Z</time></trkpt><trkpt lat="43.16842627297532" lon="10.734750938446117"><ele>199.0</ele><time>2026-04-25T15:13:23Z</time></trkpt><trkpt lat="43.168513413719424" lon="10.734823036774458"><ele>197.0</ele><time>2026-04-25T15:13:24Z</time></trkpt><trkpt lat="43.16859023418173" lon="10.734919510417384"><ele>195.0</ele><time>2026-04-25T15:13:25Z</time></trkpt><trkpt lat="43.168661310554434" lon="10.735032213139968"><ele>195.0</ele><time>2026-04-25T15:13:26Z</time></trkpt><trkpt lat="43.16873092576131" lon="10.735138175081836"><ele>195.0</ele><time>2026-04-25T15:13:27Z</time></trkpt><trkpt lat="43.1688040099924" lon="10.735219876706257"><ele>195.0</ele><time>2026-04-25T15:13:28Z</time></trkpt><trkpt lat="43.16889023379667" lon="10.735279878011491"><ele>195.0</ele><time>2026-04-25T15:13:29Z</time></trkpt><trkpt lat="43.168979843266854" lon="10.735312312552468"><ele>195.0</ele><time>2026-04-25T15:13:30Z</time></trkpt><trkpt lat="43.169075647091645" lon="10.735314919889667"><ele>195.2</ele><time>2026-04-25T15:13:31Z</time></trkpt><trkpt lat="43.16916153622641" lon="10.735285467607872"><ele>195.4</ele><time>2026-04-25T15:13:32Z</time></trkpt><trkpt lat="43.16925136014373" lon="10.735221629795339"><ele>195.60000000000002</ele><time>2026-04-25T15:13:33Z</time></trkpt><trkpt lat="43.16933725885748" lon="10.735133415214493"><ele>195.8</ele><time>2026-04-25T15:13:34Z</time></trkpt><trkpt lat="43.16941588394834" lon="10.735023162710467"><ele>196.0</ele><time>2026-04-25T15:13:35Z</time></trkpt><trkpt lat="43.169489850071095" lon="10.734905182743459"><ele>196.0</ele><time>2026-04-25T15:13:36Z</time></trkpt><trkpt lat="43.1695668456963" lon="10.734778601651122"><ele>196.0</ele><time>2026-04-25T15:13:37Z</time></trkpt><trkpt lat="43.169646530181275" lon="10.73465157465246"><ele>196.0</ele><time>2026-04-25T15:13:38Z</time></trkpt><trkpt lat="43.16972272110858" lon="10.734521177559408"><ele>196.0</ele><time>2026-04-25T15:13:39Z</time></trkpt><trkpt lat="43.16980329156998" lon="10.734389625702141"><ele>196.4</ele><time>2026-04-25T15:13:40Z</time></trkpt><trkpt lat="43.169884568712014" lon="10.734258689717059"><ele>196.8</ele><time>2026-04-25T15:13:41Z</time></trkpt><trkpt lat="43.16995923049445" lon="10.73414540548535"><ele>197.20000000000002</ele><time>2026-04-25T15:13:42Z</time></trkpt><trkpt lat="43.1700257411112" lon="10.73404124447926"><ele>197.60000000000002</ele><time>2026-04-25T15:13:43Z</time></trkpt><trkpt lat="43.17009270208574" lon="10.73395565972629"><ele>198.0</ele><time>2026-04-25T15:13:44Z</time></trkpt><trkpt lat="43.170168213203674" lon="10.733893300942595"><ele>198.0</ele><time>2026-04-25T15:13:45Z</time></trkpt><trkpt lat="43.17025608840105" lon="10.733858633290053"><ele>198.0</ele><time>2026-04-25T15:13:46Z</time></trkpt><trkpt lat="43.17034008726459" lon="10.733859340259432"><ele>198.0</ele><time>2026-04-25T15:13:47Z</time></trkpt><trkpt lat="43.17041949524012" lon="10.733900429740514"><ele>198.0</ele><time>2026-04-25T15:13:48Z</time></trkpt><trkpt lat="43.170497305720204" lon="10.733963911762432"><ele>198.0</ele><time>2026-04-25T15:13:49Z</time></trkpt><trkpt lat="43.17055603975012" lon="10.734076205680008"><ele>198.0</ele><time>2026-04-25T15:13:50Z</time></trkpt><trkpt lat="43.17063764699428" lon="10.734169248616126"><ele>198.0</ele><time>2026-04-25T15:13:51Z</time></trkpt><trkpt lat="43.17070109157133" lon="10.73428373354589"><ele>198.0</ele><time>2026-04-25T15:13:52Z</time></trkpt><trkpt lat="43.17077372678379" lon="10.734396963249422"><ele>198.0</ele><time>2026-04-25T15:13:53Z</time></trkpt><trkpt lat="43.17085081539647" lon="10.734511804204994"><ele>198.0</ele><time>2026-04-25T15:13:54Z</time></trkpt><trkpt lat="43.1709302948588" lon="10.734628412657264"><ele>200.5</ele><time>2026-04-25T15:13:55Z</time></trkpt><trkpt lat="43.17101131944549" lon="10.734749187591799"><ele>203.0</ele><time>2026-04-25T15:13:56Z</time></trkpt><trkpt lat="43.17109850499455" lon="10.734878498651826"><ele>205.5</ele><time>2026-04-25T15:13:57Z</time></trkpt><trkpt lat="43.17118627219466" lon="10.735008483583181"><ele>208.0</ele><time>2026-04-25T15:13:58Z</time></trkpt><trkpt lat="43.17127458136498" lon="10.735142310950984"><ele>206.0</ele><time>2026-04-25T15:13:59Z</time></trkpt><trkpt lat="43.17135343171041" lon="10.7352701695115"><ele>204.0</ele><time>2026-04-25T15:14:00Z</time></trkpt><trkpt lat="43.17141575787303" lon="10.735411167077233"><ele>202.0</ele><time>2026-04-25T15:14:01Z</time></trkpt><trkpt lat="43.171476825921275" lon="10.735550979365174"><ele>200.0</ele><time>2026-04-25T15:14:02Z</time></trkpt><trkpt lat="43.17154494164117" lon="10.735689887339667"><ele>200.0</ele><time>2026-04-25T15:14:03Z</time></trkpt><trkpt lat="43.171587480835484" lon="10.73584566655353"><ele>200.0</ele><time>2026-04-25T15:14:04Z</time></trkpt><trkpt lat="43.171604686971314" lon="10.736008069061004"><ele>200.0</ele><time>2026-04-25T15:14:05Z</time></trkpt><trkpt lat="43.17163526124667" lon="10.736167193121927"><ele>200.0</ele><time>2026-04-25T15:14:06Z</time></trkpt><trkpt lat="43.171663222117346" lon="10.736310594798601"><ele>201.5</ele><time>2026-04-25T15:14:07Z</time></trkpt><trkpt lat="43.171708693082905" lon="10.73645749791738"><ele>203.0</ele><time>2026-04-25T15:14:08Z</time></trkpt><trkpt lat="43.17173072560179" lon="10.736615927069197"><ele>204.5</ele><time>2026-04-25T15:14:09Z</time></trkpt><trkpt lat="43.171771689525094" lon="10.73677117764819"><ele>206.0</ele><time>2026-04-25T15:14:10Z</time></trkpt><trkpt lat="43.171818312841204" lon="10.736911948604044"><ele>209.25</ele><time>2026-04-25T15:14:11Z</time></trkpt><trkpt lat="43.1718823016195" lon="10.73704362472681"><ele>212.5</ele><time>2026-04-25T15:14:12Z</time></trkpt><trkpt lat="43.1719471963343" lon="10.737176009431616"><ele>215.75</ele><time>2026-04-25T15:14:13Z</time></trkpt><trkpt lat="43.17205942399178" lon="10.737239192302075"><ele>219.0</ele><time>2026-04-25T15:14:14Z</time></trkpt><trkpt lat="43.172177875798944" lon="10.737300427025517"><ele>219.0</ele><time>2026-04-25T15:14:15Z</time></trkpt><trkpt lat="43.172295435857464" lon="10.737339229476333"><ele>219.0</ele><time>2026-04-25T15:14:16Z</time></trkpt><trkpt lat="43.17240234523522" lon="10.737385070279597"><ele>219.0</ele><time>2026-04-25T15:14:17Z</time></trkpt><trkpt lat="43.172501380425516" lon="10.737464438121457"><ele>219.0</ele><time>2026-04-25T15:14:18Z</time></trkpt><trkpt lat="43.17259374715316" lon="10.737570541175733"><ele>218.25</ele><time>2026-04-25T15:14:19Z</time></trkpt><trkpt lat="43.17267560609786" lon="10.737694364381582"><ele>217.5</ele><time>2026-04-25T15:14:20Z</time></trkpt><trkpt lat="43.172741543663" lon="10.737835118871375"><ele>216.75</ele><time>2026-04-25T15:14:21Z</time></trkpt><trkpt lat="43.17280766988237" lon="10.737979551394112"><ele>216.0</ele><time>2026-04-25T15:14:22Z</time></trkpt><trkpt lat="43.17288776911203" lon="10.738108685052431"><ele>216.0</ele><time>2026-04-25T15:14:23Z</time></trkpt><trkpt lat="43.17298423596477" lon="10.738219260599875"><ele>216.0</ele><time>2026-04-25T15:14:24Z</time></trkpt><trkpt lat="43.17309279932748" lon="10.738311751800401"><ele>216.0</ele><time>2026-04-25T15:14:25Z</time></trkpt><trkpt lat="43.17320704277019" lon="10.73838875342557"><ele>216.0</ele><time>2026-04-25T15:14:26Z</time></trkpt><trkpt lat="43.17331247957064" lon="10.738460633841482"><ele>217.25</ele><time>2026-04-25T15:14:27Z</time></trkpt><trkpt lat="43.17340960121599" lon="10.738537934787646"><ele>218.5</ele><time>2026-04-25T15:14:28Z</time></trkpt><trkpt lat="43.173495591366525" lon="10.738646031325816"><ele>219.75</ele><time>2026-04-25T15:14:29Z</time></trkpt><trkpt lat="43.173569961113664" lon="10.738782774167564"><ele>221.0</ele><time>2026-04-25T15:14:30Z</time></trkpt><trkpt lat="43.173642255060585" lon="10.738922147793387"><ele>221.0</ele><time>2026-04-25T15:14:31Z</time></trkpt><trkpt lat="43.173718893555865" lon="10.739058903077197"><ele>221.00000000000003</ele><time>2026-04-25T15:14:32Z</time></trkpt><trkpt lat="43.17378846737057" lon="10.739179192491095"><ele>221.00000000000003</ele><time>2026-04-25T15:14:33Z</time></trkpt><trkpt lat="43.173866663355085" lon="10.739279247602841"><ele>221.0</ele><time>2026-04-25T15:14:34Z</time></trkpt><trkpt lat="43.173951713364076" lon="10.739351463737579"><ele>221.0</ele><time>2026-04-25T15:14:35Z</time></trkpt><trkpt lat="43.17404520229203" lon="10.739389648150068"><ele>221.20000000000002</ele><time>2026-04-25T15:14:36Z</time></trkpt><trkpt lat="43.17414305815482" lon="10.73939397571439"><ele>221.40000000000003</ele><time>2026-04-25T15:14:37Z</time></trkpt><trkpt lat="43.174239397947986" lon="10.739361738830178"><ele>221.6</ele><time>2026-04-25T15:14:38Z</time></trkpt><trkpt lat="43.174327836961446" lon="10.739297508355019"><ele>221.8</ele><time>2026-04-25T15:14:39Z</time></trkpt><trkpt lat="43.17440908854893" lon="10.739197470213616"><ele>222.0</ele><time>2026-04-25T15:14:40Z</time></trkpt><trkpt lat="43.17447296107303" lon="10.739071111730471"><ele>219.2</ele><time>2026-04-25T15:14:41Z</time></trkpt><trkpt lat="43.174519391835624" lon="10.738924787766328"><ele>216.39999999999998</ele><time>2026-04-25T15:14:42Z</time></trkpt><trkpt lat="43.17454800495459" lon="10.738771028486628"><ele>213.60000000000002</ele><time>2026-04-25T15:14:43Z</time></trkpt><trkpt lat="43.17457372490277" lon="10.738631151417732"><ele>210.8</ele><time>2026-04-25T15:14:44Z</time></trkpt><trkpt lat="43.174619449421336" lon="10.738514769241078"><ele>208.0</ele><time>2026-04-25T15:14:45Z</time></trkpt><trkpt lat="43.17468949192603" lon="10.738420645778854"><ele>208.8</ele><time>2026-04-25T15:14:46Z</time></trkpt><trkpt lat="43.17477132511538" lon="10.73834776961738"><ele>209.60000000000002</ele><time>2026-04-25T15:14:47Z</time></trkpt><trkpt lat="43.17486956952985" lon="10.738322232292573"><ele>210.39999999999998</ele><time>2026-04-25T15:14:48Z</time></trkpt><trkpt lat="43.17497078436163" lon="10.738329129108429"><ele>211.2</ele><time>2026-04-25T15:14:49Z</time></trkpt><trkpt lat="43.1750737111254" lon="10.738343737998568"><ele>212.0</ele><time>2026-04-25T15:14:50Z</time></trkpt><trkpt lat="43.1751880430751" lon="10.738362241408607"><ele>212.0</ele><time>2026-04-25T15:14:51Z</time></trkpt><trkpt lat="43.175295722021865" lon="10.738372164211848"><ele>212.0</ele><time>2026-04-25T15:14:52Z</time></trkpt><trkpt lat="43.17539660154957" lon="10.738350465067"><ele>212.0</ele><time>2026-04-25T15:14:53Z</time></trkpt><trkpt lat="43.175491751060314" lon="10.7383029633261"><ele>212.0</ele><time>2026-04-25T15:14:54Z</time></trkpt><trkpt lat="43.17557734518129" lon="10.738216032466132"><ele>212.0</ele><time>2026-04-25T15:14:55Z</time></trkpt><trkpt lat="43.175654814513926" lon="10.738098806711768"><ele>211.8</ele><time>2026-04-25T15:14:56Z</time></trkpt><trkpt lat="43.17572050540259" lon="10.73796797734773"><ele>211.6</ele><time>2026-04-25T15:14:57Z</time></trkpt><trkpt lat="43.1757774992814" lon="10.737835935001861"><ele>211.4</ele><time>2026-04-25T15:14:58Z</time></trkpt><trkpt lat="43.175836182941445" lon="10.737720893782619"><ele>211.20000000000002</ele><time>2026-04-25T15:14:59Z</time></trkpt><trkpt lat="43.17591269773402" lon="10.73762215072205"><ele>211.0</ele><time>2026-04-25T15:15:00Z</time></trkpt><trkpt lat="43.17600059570402" lon="10.73755811535149"><ele>211.0</ele><time>2026-04-25T15:15:01Z</time></trkpt><trkpt lat="43.1760870703582" lon="10.73753118445653"><ele>211.0</ele><time>2026-04-25T15:15:02Z</time></trkpt><trkpt lat="43.17617906989422" lon="10.737546651005687"><ele>211.0</ele><time>2026-04-25T15:15:03Z</time></trkpt><trkpt lat="43.17627825066396" lon="10.737595501454871"><ele>211.0</ele><time>2026-04-25T15:15:04Z</time></trkpt><trkpt lat="43.17638003718961" lon="10.737650527338381"><ele>211.0</ele><time>2026-04-25T15:15:05Z</time></trkpt><trkpt lat="43.17648559265845" lon="10.737719048308879"><ele>211.4</ele><time>2026-04-25T15:15:06Z</time></trkpt><trkpt lat="43.17657928452424" lon="10.737776554689779"><ele>211.8</ele><time>2026-04-25T15:15:07Z</time></trkpt><trkpt lat="43.17667693665882" lon="10.737801465946902"><ele>212.20000000000002</ele><time>2026-04-25T15:15:08Z</time></trkpt><trkpt lat="43.17677819373602" lon="10.737791589770518"><ele>212.60000000000002</ele><time>2026-04-25T15:15:09Z</time></trkpt><trkpt lat="43.17688070548127" lon="10.737750352811764"><ele>213.0</ele><time>2026-04-25T15:15:10Z</time></trkpt><trkpt lat="43.17697644299326" lon="10.737670942322596"><ele>213.0</ele><time>2026-04-25T15:15:11Z</time></trkpt><trkpt lat="43.17706876516922" lon="10.737570133085264"><ele>213.0</ele><time>2026-04-25T15:15:12Z</time></trkpt><trkpt lat="43.17715084268199" lon="10.737449120798091"><ele>213.0</ele><time>2026-04-25T15:15:13Z</time></trkpt><trkpt lat="43.177230434704285" lon="10.737316381201326"><ele>213.0</ele><time>2026-04-25T15:15:14Z</time></trkpt><trkpt lat="43.17730465552715" lon="10.737183877123204"><ele>212.8</ele><time>2026-04-25T15:15:15Z</time></trkpt><trkpt lat="43.17737662951251" lon="10.737056306728835"><ele>212.60000000000002</ele><time>2026-04-25T15:15:16Z</time></trkpt><trkpt lat="43.177453131288836" lon="10.736944236096864"><ele>212.39999999999998</ele><time>2026-04-25T15:15:17Z</time></trkpt><trkpt lat="43.177526128446935" lon="10.73683088207057"><ele>212.2</ele><time>2026-04-25T15:15:18Z</time></trkpt><trkpt lat="43.177594469976846" lon="10.736726324972514"><ele>212.0</ele><time>2026-04-25T15:15:19Z</time></trkpt><trkpt lat="43.17765947156693" lon="10.736630221314607"><ele>212.00000000000003</ele><time>2026-04-25T15:15:20Z</time></trkpt><trkpt lat="43.17773033087864" lon="10.736552874900356"><ele>212.0</ele><time>2026-04-25T15:15:21Z</time></trkpt><trkpt lat="43.177803171189986" lon="10.736501518464589"><ele>212.0</ele><time>2026-04-25T15:15:22Z</time></trkpt><trkpt lat="43.17787744729585" lon="10.736482871097174"><ele>212.0</ele><time>2026-04-25T15:15:23Z</time></trkpt><trkpt lat="43.177951257808694" lon="10.736497549515303"><ele>212.00000000000003</ele><time>2026-04-25T15:15:24Z</time></trkpt><trkpt lat="43.178029184948386" lon="10.7365418797463"><ele>212.0</ele><time>2026-04-25T15:15:25Z</time></trkpt><trkpt lat="43.17810584803761" lon="10.736626886760588"><ele>212.0</ele><time>2026-04-25T15:15:26Z</time></trkpt><trkpt lat="43.17819134254525" lon="10.7367083378826"><ele>212.0</ele><time>2026-04-25T15:15:27Z</time></trkpt><trkpt lat="43.17828342015475" lon="10.736787119814315"><ele>212.0</ele><time>2026-04-25T15:15:28Z</time></trkpt><trkpt lat="43.17838786915219" lon="10.736851837719191"><ele>212.0</ele><time>2026-04-25T15:15:29Z</time></trkpt><trkpt lat="43.17850169330014" lon="10.736877720031154"><ele>212.0</ele><time>2026-04-25T15:15:30Z</time></trkpt><trkpt lat="43.17860513037439" lon="10.736915774804457"><ele>218.8</ele><time>2026-04-25T15:15:31Z</time></trkpt><trkpt lat="43.17869356803686" lon="10.736961018153035"><ele>225.6</ele><time>2026-04-25T15:15:32Z</time></trkpt><trkpt lat="43.17877430053921" lon="10.737032931028638"><ele>232.40000000000003</ele><time>2026-04-25T15:15:33Z</time></trkpt><trkpt lat="43.178846578786526" lon="10.737129467716986"><ele>239.20000000000002</ele><time>2026-04-25T15:15:34Z</time></trkpt><trkpt lat="43.17891656240486" lon="10.73722987704665"><ele>246.0</ele><time>2026-04-25T15:15:35Z</time></trkpt><trkpt lat="43.17899542705335" lon="10.737322915550276"><ele>246.4</ele><time>2026-04-25T15:15:36Z</time></trkpt><trkpt lat="43.17907824264046" lon="10.737419230798837"><ele>246.8</ele><time>2026-04-25T15:15:37Z</time></trkpt><trkpt lat="43.179164355136834" lon="10.737517467941409"><ele>247.20000000000002</ele><time>2026-04-25T15:15:38Z</time></trkpt><trkpt lat="43.179246087394134" lon="10.73760939223663"><ele>247.60000000000002</ele><time>2026-04-25T15:15:39Z</time></trkpt><trkpt lat="43.179319872239226" lon="10.73770382041759"><ele>248.0</ele><time>2026-04-25T15:15:40Z</time></trkpt><trkpt lat="43.17939630135525" lon="10.737807548977674"><ele>248.0</ele><time>2026-04-25T15:15:41Z</time></trkpt><trkpt lat="43.17945942126689" lon="10.737931452124135"><ele>248.0</ele><time>2026-04-25T15:15:42Z</time></trkpt><trkpt lat="43.17950857114367" lon="10.738067517354084"><ele>248.0</ele><time>2026-04-25T15:15:43Z</time></trkpt><trkpt lat="43.179561769599154" lon="10.738198253272966"><ele>248.0</ele><time>2026-04-25T15:15:44Z</time></trkpt><trkpt lat="43.17962158416703" lon="10.738324898586761"><ele>248.0</ele><time>2026-04-25T15:15:45Z</time></trkpt><trkpt lat="43.179683495108144" lon="10.738450678254866"><ele>250.4</ele><time>2026-04-25T15:15:46Z</time></trkpt><trkpt lat="43.179741144074995" lon="10.738571289862087"><ele>252.8</ele><time>2026-04-25T15:15:47Z</time></trkpt><trkpt lat="43.17978673691956" lon="10.738684821461085"><ele>255.2</ele><time>2026-04-25T15:15:48Z</time></trkpt><trkpt lat="43.17982956434039" lon="10.738797547800397"><ele>257.6</ele><time>2026-04-25T15:15:49Z</time></trkpt><trkpt lat="43.17988643292131" lon="10.738896655277035"><ele>260.0</ele><time>2026-04-25T15:15:50Z</time></trkpt><trkpt lat="43.17995849251392" lon="10.738977161688734"><ele>255.00000000000003</ele><time>2026-04-25T15:15:51Z</time></trkpt><trkpt lat="43.18004246027516" lon="10.739032326777828"><ele>250.0</ele><time>2026-04-25T15:15:52Z</time></trkpt><trkpt lat="43.180119093205185" lon="10.739050181604117"><ele>245.0</ele><time>2026-04-25T15:15:53Z</time></trkpt><trkpt lat="43.1801961586488" lon="10.739044080567801"><ele>240.0</ele><time>2026-04-25T15:15:54Z</time></trkpt><trkpt lat="43.180284280262946" lon="10.73900550680179"><ele>235.00000000000003</ele><time>2026-04-25T15:15:55Z</time></trkpt><trkpt lat="43.18036079625894" lon="10.73893353302713"><ele>230.0</ele><time>2026-04-25T15:15:56Z</time></trkpt><trkpt lat="43.18042738476436" lon="10.738829537049767"><ele>230.0</ele><time>2026-04-25T15:15:57Z</time></trkpt><trkpt lat="43.18048103568646" lon="10.7386978989365"><ele>230.0</ele><time>2026-04-25T15:15:58Z</time></trkpt><trkpt lat="43.18052644812564" lon="10.738553390404983"><ele>230.0</ele><time>2026-04-25T15:15:59Z</time></trkpt><trkpt lat="43.1805700642477" lon="10.738406092222048"><ele>230.0</ele><time>2026-04-25T15:16:00Z</time></trkpt><trkpt lat="43.18061301732273" lon="10.738250080511603"><ele>229.75</ele><time>2026-04-25T15:16:01Z</time></trkpt><trkpt lat="43.180658144972604" lon="10.738089045949568"><ele>229.5</ele><time>2026-04-25T15:16:02Z</time></trkpt><trkpt lat="43.18070645446916" lon="10.737922862571546"><ele>229.25</ele><time>2026-04-25T15:16:03Z</time></trkpt><trkpt lat="43.18075567095061" lon="10.737754247464014"><ele>229.0</ele><time>2026-04-25T15:16:04Z</time></trkpt><trkpt lat="43.18080816926311" lon="10.73758453293265"><ele>227.25</ele><time>2026-04-25T15:16:05Z</time></trkpt><trkpt lat="43.18085758200333" lon="10.737413046701503"><ele>225.5</ele><time>2026-04-25T15:16:06Z</time></trkpt><trkpt lat="43.18090695676268" lon="10.737243226296297"><ele>223.75</ele><time>2026-04-25T15:16:07Z</time></trkpt><trkpt lat="43.180957861761954" lon="10.737072553176999"><ele>222.0</ele><time>2026-04-25T15:16:08Z</time></trkpt><trkpt lat="43.181005742263544" lon="10.736916748374538"><ele>220.5</ele><time>2026-04-25T15:16:09Z</time></trkpt><trkpt lat="43.18105602580399" lon="10.736777105252058"><ele>219.0</ele><time>2026-04-25T15:16:10Z</time></trkpt><trkpt lat="43.18111765045602" lon="10.73665127421419"><ele>217.5</ele><time>2026-04-25T15:16:11Z</time></trkpt><trkpt lat="43.181195072963476" lon="10.736539344109108"><ele>216.0</ele><time>2026-04-25T15:16:12Z</time></trkpt><trkpt lat="43.18128788165335" lon="10.736448440957442"><ele>216.0</ele><time>2026-04-25T15:16:13Z</time></trkpt><trkpt lat="43.181389056727156" lon="10.736381228930325"><ele>216.0</ele><time>2026-04-25T15:16:14Z</time></trkpt><trkpt lat="43.181497783968524" lon="10.736332928477692"><ele>216.0</ele><time>2026-04-25T15:16:15Z</time></trkpt><trkpt lat="43.1816157917464" lon="10.736308522632223"><ele>216.0</ele><time>2026-04-25T15:16:16Z</time></trkpt><trkpt lat="43.18173843803799" lon="10.736299517099694"><ele>219.25</ele><time>2026-04-25T15:16:17Z</time></trkpt><trkpt lat="43.18186286712512" lon="10.736299115635402"><ele>222.5</ele><time>2026-04-25T15:16:18Z</time></trkpt><trkpt lat="43.181978992365" lon="10.736312039736083"><ele>225.75</ele><time>2026-04-25T15:16:19Z</time></trkpt><trkpt lat="43.1820991542107" lon="10.736335543654294"><ele>229.0</ele><time>2026-04-25T15:16:20Z</time></trkpt><trkpt lat="43.18222151240193" lon="10.736377122768626"><ele>229.0</ele><time>2026-04-25T15:16:21Z</time></trkpt><trkpt lat="43.18234944867331" lon="10.736435448186556"><ele>229.0</ele><time>2026-04-25T15:16:22Z</time></trkpt><trkpt lat="43.18247489142798" lon="10.73649749328885"><ele>229.0</ele><time>2026-04-25T15:16:23Z</time></trkpt><trkpt lat="43.182600326109686" lon="10.736560303768098"><ele>229.0</ele><time>2026-04-25T15:16:24Z</time></trkpt><trkpt lat="43.182725821382625" lon="10.736622147939503"><ele>229.0</ele><time>2026-04-25T15:16:25Z</time></trkpt><trkpt lat="43.182845388484665" lon="10.73668450269859"><ele>229.0</ele><time>2026-04-25T15:16:26Z</time></trkpt><trkpt lat="43.182957136913814" lon="10.736743097104302"><ele>229.0</ele><time>2026-04-25T15:16:27Z</time></trkpt><trkpt lat="43.1830707157629" lon="10.736803150509434"><ele>229.0</ele><time>2026-04-25T15:16:28Z</time></trkpt><trkpt lat="43.18317590744027" lon="10.736847467857421"><ele>229.79999999999998</ele><time>2026-04-25T15:16:29Z</time></trkpt><trkpt lat="43.1832896709236" lon="10.736895667194384"><ele>230.59999999999997</ele><time>2026-04-25T15:16:30Z</time></trkpt><trkpt lat="43.18339411464047" lon="10.736884771945531"><ele>231.4</ele><time>2026-04-25T15:16:31Z</time></trkpt><trkpt lat="43.18348063410888" lon="10.73682443716521"><ele>232.2</ele><time>2026-04-25T15:16:32Z</time></trkpt><trkpt lat="43.183560383870706" lon="10.736756309103775"><ele>233.0</ele><time>2026-04-25T15:16:33Z</time></trkpt><trkpt lat="43.183626069004106" lon="10.73665763687112"><ele>231.2</ele><time>2026-04-25T15:16:34Z</time></trkpt><trkpt lat="43.18367691629944" lon="10.736530003036489"><ele>229.4</ele><time>2026-04-25T15:16:35Z</time></trkpt><trkpt lat="43.18371275721126" lon="10.736386870333371"><ele>227.59999999999997</ele><time>2026-04-25T15:16:36Z</time></trkpt><trkpt lat="43.18374812477641" lon="10.736240007795107"><ele>225.79999999999998</ele><time>2026-04-25T15:16:37Z</time></trkpt><trkpt lat="43.18379543492225" lon="10.73609749262121"><ele>224.0</ele><time>2026-04-25T15:16:38Z</time></trkpt><trkpt lat="43.183862413536936" lon="10.735991726766096"><ele>224.0</ele><time>2026-04-25T15:16:39Z</time></trkpt><trkpt lat="43.1839455080748" lon="10.735899421789785"><ele>223.99999999999997</ele><time>2026-04-25T15:16:40Z</time></trkpt><trkpt lat="43.18404399372774" lon="10.735835777889912"><ele>223.99999999999997</ele><time>2026-04-25T15:16:41Z</time></trkpt><trkpt lat="43.1841517598285" lon="10.735798823951873"><ele>224.0</ele><time>2026-04-25T15:16:42Z</time></trkpt><trkpt lat="43.18426401188564" lon="10.73579244257974"><ele>224.0</ele><time>2026-04-25T15:16:43Z</time></trkpt><trkpt lat="43.18438180958394" lon="10.735812295585054"><ele>224.0</ele><time>2026-04-25T15:16:44Z</time></trkpt><trkpt lat="43.18449978536222" lon="10.735855399556467"><ele>224.0</ele><time>2026-04-25T15:16:45Z</time></trkpt><trkpt lat="43.184617051355474" lon="10.735916918491311"><ele>224.0</ele><time>2026-04-25T15:16:46Z</time></trkpt><trkpt lat="43.18472642429319" lon="10.736001982588622"><ele>224.0</ele><time>2026-04-25T15:16:47Z</time></trkpt><trkpt lat="43.1848307101668" lon="10.7361031589616"><ele>226.25</ele><time>2026-04-25T15:16:48Z</time></trkpt><trkpt lat="43.184922682561506" lon="10.736216367403417"><ele>228.5</ele><time>2026-04-25T15:16:49Z</time></trkpt><trkpt lat="43.18500195046361" lon="10.736340749478469"><ele>230.75</ele><time>2026-04-25T15:16:50Z</time></trkpt><trkpt lat="43.18507132394869" lon="10.736481291493172"><ele>233.0</ele><time>2026-04-25T15:16:51Z</time></trkpt><trkpt lat="43.18513211185831" lon="10.736632968749985"><ele>233.0</ele><time>2026-04-25T15:16:52Z</time></trkpt><trkpt lat="43.185159801901136" lon="10.736808355958825"><ele>233.0</ele><time>2026-04-25T15:16:53Z</time></trkpt><trkpt lat="43.18520715177069" lon="10.736979455354966"><ele>233.0</ele><time>2026-04-25T15:16:54Z</time></trkpt><trkpt lat="43.18523153990375" lon="10.737159348412757"><ele>233.0</ele><time>2026-04-25T15:16:55Z</time></trkpt><trkpt lat="43.18526036195171" lon="10.737336604183927"><ele>233.75</ele><time>2026-04-25T15:16:56Z</time></trkpt><trkpt lat="43.185291020424984" lon="10.737513793385189"><ele>234.5</ele><time>2026-04-25T15:16:57Z</time></trkpt><trkpt lat="43.1853226084666" lon="10.737691839225032"><ele>235.25</ele><time>2026-04-25T15:16:58Z</time></trkpt><trkpt lat="43.18534843426041" lon="10.73787218289181"><ele>236.0</ele><time>2026-04-25T15:16:59Z</time></trkpt><trkpt lat="43.18537933656811" lon="10.738050278497454"><ele>237.25</ele><time>2026-04-25T15:17:00Z</time></trkpt><trkpt lat="43.185411505197166" lon="10.738212391212208"><ele>238.5</ele><time>2026-04-25T15:17:01Z</time></trkpt><trkpt lat="43.18545547386348" lon="10.7383686980075"><ele>239.75</ele><time>2026-04-25T15:17:02Z</time></trkpt><trkpt lat="43.18551312267422" lon="10.73852256780937"><ele>241.0</ele><time>2026-04-25T15:17:03Z</time></trkpt><trkpt lat="43.185574323894855" lon="10.73866111477438"><ele>242.60000000000002</ele><time>2026-04-25T15:17:04Z</time></trkpt><trkpt lat="43.18562772905232" lon="10.738786160049958"><ele>244.20000000000002</ele><time>2026-04-25T15:17:05Z</time></trkpt><trkpt lat="43.18567023007584" lon="10.73891032341138"><ele>245.79999999999998</ele><time>2026-04-25T15:17:06Z</time></trkpt><trkpt lat="43.18569831368638" lon="10.739047685850377"><ele>247.39999999999998</ele><time>2026-04-25T15:17:07Z</time></trkpt><trkpt lat="43.185705584478626" lon="10.739192397115257"><ele>249.0</ele><time>2026-04-25T15:17:08Z</time></trkpt><trkpt lat="43.185677665497614" lon="10.73933288615688"><ele>249.2</ele><time>2026-04-25T15:17:09Z</time></trkpt><trkpt lat="43.185652723718675" lon="10.739481269459183"><ele>249.39999999999998</ele><time>2026-04-25T15:17:10Z</time></trkpt><trkpt lat="43.185624114900705" lon="10.73962524805883"><ele>249.6</ele><time>2026-04-25T15:17:11Z</time></trkpt><trkpt lat="43.185606484916356" lon="10.739769333593587"><ele>249.8</ele><time>2026-04-25T15:17:12Z</time></trkpt><trkpt lat="43.18560427032297" lon="10.739919090483818"><ele>250.0</ele><time>2026-04-25T15:17:13Z</time></trkpt><trkpt lat="43.18562247116841" lon="10.74007144292147"><ele>251.75</ele><time>2026-04-25T15:17:14Z</time></trkpt><trkpt lat="43.18566627928554" lon="10.740218776419821"><ele>253.5</ele><time>2026-04-25T15:17:15Z</time></trkpt><trkpt lat="43.18572927783203" lon="10.740354879994634"><ele>255.25</ele><time>2026-04-25T15:17:16Z</time></trkpt><trkpt lat="43.185800340578105" lon="10.740473121120347"><ele>257.0</ele><time>2026-04-25T15:17:17Z</time></trkpt><trkpt lat="43.185883581978146" lon="10.74058888585917"><ele>253.0</ele><time>2026-04-25T15:17:18Z</time></trkpt><trkpt lat="43.18598178924676" lon="10.740686468559606"><ele>249.0</ele><time>2026-04-25T15:17:19Z</time></trkpt><trkpt lat="43.18609761524932" lon="10.740744444066044"><ele>245.0</ele><time>2026-04-25T15:17:20Z</time></trkpt><trkpt lat="43.18621173572594" lon="10.740805771153118"><ele>241.0</ele><time>2026-04-25T15:17:21Z</time></trkpt><trkpt lat="43.18632713435179" lon="10.74085346829453"><ele>241.0</ele><time>2026-04-25T15:17:22Z</time></trkpt><trkpt lat="43.18644323017833" lon="10.740897515142638"><ele>241.0</ele><time>2026-04-25T15:17:23Z</time></trkpt><trkpt lat="43.186550372047435" lon="10.740940478751716"><ele>241.0</ele><time>2026-04-25T15:17:24Z</time></trkpt><trkpt lat="43.186655322141625" lon="10.740989074058422"><ele>241.0</ele><time>2026-04-25T15:17:25Z</time></trkpt><trkpt lat="43.18675350520313" lon="10.741046862419543"><ele>241.25</ele><time>2026-04-25T15:17:26Z</time></trkpt><trkpt lat="43.186846585289246" lon="10.74112469283892"><ele>241.5</ele><time>2026-04-25T15:17:27Z</time></trkpt><trkpt lat="43.1869287287011" lon="10.7412300793932"><ele>241.75</ele><time>2026-04-25T15:17:28Z</time></trkpt><trkpt lat="43.186997760913435" lon="10.741353172449205"><ele>242.0</ele><time>2026-04-25T15:17:29Z</time></trkpt><trkpt lat="43.18705009484817" lon="10.741493343099377"><ele>242.0</ele><time>2026-04-25T15:17:30Z</time></trkpt><trkpt lat="43.187096853695735" lon="10.741638401659749"><ele>242.0</ele><time>2026-04-25T15:17:31Z</time></trkpt><trkpt lat="43.18714175194954" lon="10.741786117265251"><ele>242.0</ele><time>2026-04-25T15:17:32Z</time></trkpt><trkpt lat="43.187186274548125" lon="10.741926733140579"><ele>242.0</ele><time>2026-04-25T15:17:33Z</time></trkpt><trkpt lat="43.187234528032036" lon="10.742051186713383"><ele>242.0</ele><time>2026-04-25T15:17:34Z</time></trkpt><trkpt lat="43.187286585523964" lon="10.74215734425419"><ele>242.16666666666669</ele><time>2026-04-25T15:17:35Z</time></trkpt><trkpt lat="43.18735186778272" lon="10.742243362690218"><ele>242.33333333333334</ele><time>2026-04-25T15:17:36Z</time></trkpt><trkpt lat="43.18742499156936" lon="10.742313411955546"><ele>242.5</ele><time>2026-04-25T15:17:37Z</time></trkpt><trkpt lat="43.18750963757754" lon="10.742357857747628"><ele>242.66666666666669</ele><time>2026-04-25T15:17:38Z</time></trkpt><trkpt lat="43.1875950170427" lon="10.742373803901161"><ele>242.83333333333334</ele><time>2026-04-25T15:17:39Z</time></trkpt><trkpt lat="43.18767783848266" lon="10.742359641266539"><ele>243.0</ele><time>2026-04-25T15:17:40Z</time></trkpt><trkpt lat="43.187759947716096" lon="10.742326858778979"><ele>243.0</ele><time>2026-04-25T15:17:41Z</time></trkpt><trkpt lat="43.18784331324452" lon="10.742279419024097"><ele>243.0</ele><time>2026-04-25T15:17:42Z</time></trkpt><trkpt lat="43.18792507654425" lon="10.742213385395372"><ele>243.0</ele><time>2026-04-25T15:17:43Z</time></trkpt><trkpt lat="43.18799889330407" lon="10.742129771809124"><ele>243.0</ele><time>2026-04-25T15:17:44Z</time></trkpt><trkpt lat="43.188068993387915" lon="10.7420407360008"><ele>243.0</ele><time>2026-04-25T15:17:45Z</time></trkpt><trkpt lat="43.18814056348256" lon="10.74195569350309"><ele>242.8</ele><time>2026-04-25T15:17:46Z</time></trkpt><trkpt lat="43.18821764528241" lon="10.741862630626345"><ele>242.60000000000002</ele><time>2026-04-25T15:17:47Z</time></trkpt><trkpt lat="43.18829984073492" lon="10.741769097795592"><ele>242.39999999999998</ele><time>2026-04-25T15:17:48Z</time></trkpt><trkpt lat="43.188388484994235" lon="10.741674055533398"><ele>242.2</ele><time>2026-04-25T15:17:49Z</time></trkpt><trkpt lat="43.18847669729653" lon="10.741572528565982"><ele>242.0</ele><time>2026-04-25T15:17:50Z</time></trkpt><trkpt lat="43.188565694242946" lon="10.74146693709175"><ele>242.0</ele><time>2026-04-25T15:17:51Z</time></trkpt><trkpt lat="43.18865128389371" lon="10.741369882477587"><ele>242.0</ele><time>2026-04-25T15:17:52Z</time></trkpt><trkpt lat="43.1887279900477" lon="10.74126646462086"><ele>242.0</ele><time>2026-04-25T15:17:53Z</time></trkpt><trkpt lat="43.18880663022049" lon="10.74116222740762"><ele>242.0</ele><time>2026-04-25T15:17:54Z</time></trkpt><trkpt lat="43.18889275833882" lon="10.74105792184724"><ele>242.0</ele><time>2026-04-25T15:17:55Z</time></trkpt><trkpt lat="43.188968738983995" lon="10.740929680690547"><ele>243.25</ele><time>2026-04-25T15:17:56Z</time></trkpt><trkpt lat="43.18904600653599" lon="10.740799899741297"><ele>244.5</ele><time>2026-04-25T15:17:57Z</time></trkpt><trkpt lat="43.189120738831996" lon="10.740665878570256"><ele>245.75</ele><time>2026-04-25T15:17:58Z</time></trkpt><trkpt lat="43.18919446268105" lon="10.740528094318313"><ele>247.0</ele><time>2026-04-25T15:17:59Z</time></trkpt><trkpt lat="43.189268664136016" lon="10.740381272853234"><ele>247.0</ele><time>2026-04-25T15:18:00Z</time></trkpt><trkpt lat="43.18934797288249" lon="10.740232514351279"><ele>247.0</ele><time>2026-04-25T15:18:01Z</time></trkpt><trkpt lat="43.18942664458434" lon="10.740083477064555"><ele>247.0</ele><time>2026-04-25T15:18:02Z</time></trkpt><trkpt lat="43.18950083731343" lon="10.73993204922407"><ele>247.0</ele><time>2026-04-25T15:18:03Z</time></trkpt><trkpt lat="43.189572904984615" lon="10.739784426302105"><ele>246.75</ele><time>2026-04-25T15:18:04Z</time></trkpt><trkpt lat="43.18964659068922" lon="10.739638327638303"><ele>246.5</ele><time>2026-04-25T15:18:05Z</time></trkpt><trkpt lat="43.189722201736956" lon="10.739496120538252"><ele>246.25</ele><time>2026-04-25T15:18:06Z</time></trkpt><trkpt lat="43.189797062932655" lon="10.739349606113532"><ele>246.0</ele><time>2026-04-25T15:18:07Z</time></trkpt><trkpt lat="43.189869281933305" lon="10.739210495665738"><ele>246.0</ele><time>2026-04-25T15:18:08Z</time></trkpt><trkpt lat="43.1899412538014" lon="10.739075615516105"><ele>246.0</ele><time>2026-04-25T15:18:09Z</time></trkpt><trkpt lat="43.19000955418446" lon="10.738945423812453"><ele>246.0</ele><time>2026-04-25T15:18:10Z</time></trkpt><trkpt lat="43.19008314384204" lon="10.73882327675958"><ele>246.0</ele><time>2026-04-25T15:18:11Z</time></trkpt><trkpt lat="43.19016875180974" lon="10.73871649558154"><ele>246.0</ele><time>2026-04-25T15:18:12Z</time></trkpt><trkpt lat="43.19026283387998" lon="10.738621154858778"><ele>246.0</ele><time>2026-04-25T15:18:13Z</time></trkpt><trkpt lat="43.19036349412998" lon="10.73854078272403"><ele>246.0</ele><time>2026-04-25T15:18:14Z</time></trkpt><trkpt lat="43.19047174509378" lon="10.738472724385916"><ele>246.0</ele><time>2026-04-25T15:18:15Z</time></trkpt><trkpt lat="43.19058813079234" lon="10.738416678716765"><ele>247.0</ele><time>2026-04-25T15:18:16Z</time></trkpt><trkpt lat="43.19070701077259" lon="10.738367529169059"><ele>248.0</ele><time>2026-04-25T15:18:17Z</time></trkpt><trkpt lat="43.19082599756573" lon="10.738324472969058"><ele>249.0</ele><time>2026-04-25T15:18:18Z</time></trkpt><trkpt lat="43.19094209299891" lon="10.738286213437041"><ele>250.0</ele><time>2026-04-25T15:18:19Z</time></trkpt><trkpt lat="43.191060347217906" lon="10.73825055874276"><ele>250.0</ele><time>2026-04-25T15:18:20Z</time></trkpt><trkpt lat="43.19118221522684" lon="10.738217254417767"><ele>250.0</ele><time>2026-04-25T15:18:21Z</time></trkpt><trkpt lat="43.19130660778543" lon="10.738197255109121"><ele>250.0</ele><time>2026-04-25T15:18:22Z</time></trkpt><trkpt lat="43.19142387189779" lon="10.738192576375251"><ele>250.0</ele><time>2026-04-25T15:18:23Z</time></trkpt><trkpt lat="43.19153431200021" lon="10.738201563824925"><ele>251.6</ele><time>2026-04-25T15:18:24Z</time></trkpt><trkpt lat="43.19164114469957" lon="10.738203769090392"><ele>253.2</ele><time>2026-04-25T15:18:25Z</time></trkpt><trkpt lat="43.1917386626951" lon="10.73818815548362"><ele>254.8</ele><time>2026-04-25T15:18:26Z</time></trkpt><trkpt lat="43.191828554767824" lon="10.73815999569216"><ele>256.4</ele><time>2026-04-25T15:18:27Z</time></trkpt><trkpt lat="43.19191032548957" lon="10.738105484332173"><ele>258.0</ele><time>2026-04-25T15:18:28Z</time></trkpt><trkpt lat="43.191983845035054" lon="10.738032467803853"><ele>258.0</ele><time>2026-04-25T15:18:29Z</time></trkpt><trkpt lat="43.19204628887822" lon="10.737932928135496"><ele>258.0</ele><time>2026-04-25T15:18:30Z</time></trkpt><trkpt lat="43.1920972247496" lon="10.737820350680412"><ele>258.0</ele><time>2026-04-25T15:18:31Z</time></trkpt><trkpt lat="43.192142280430815" lon="10.737692775921786"><ele>258.0</ele><time>2026-04-25T15:18:32Z</time></trkpt><trkpt lat="43.19218622927609" lon="10.737555565776946"><ele>258.0</ele><time>2026-04-25T15:18:33Z</time></trkpt><trkpt lat="43.19223460710775" lon="10.73741630339804"><ele>258.2</ele><time>2026-04-25T15:18:34Z</time></trkpt><trkpt lat="43.1922766700151" lon="10.737277646644875"><ele>258.4</ele><time>2026-04-25T15:18:35Z</time></trkpt><trkpt lat="43.192319364893315" lon="10.737156563926119"><ele>258.59999999999997</ele><time>2026-04-25T15:18:36Z</time></trkpt><trkpt lat="43.192364620062385" lon="10.737022749210507"><ele>258.8</ele><time>2026-04-25T15:18:37Z</time></trkpt><trkpt lat="43.192414827056304" lon="10.736924828405565"><ele>259.0</ele><time>2026-04-25T15:18:38Z</time></trkpt><trkpt lat="43.19248691773426" lon="10.736821723716451"><ele>257.0</ele><time>2026-04-25T15:18:39Z</time></trkpt><trkpt lat="43.19256083649601" lon="10.736751096363944"><ele>254.99999999999997</ele><time>2026-04-25T15:18:40Z</time></trkpt><trkpt lat="43.19264106126064" lon="10.736700900422091"><ele>252.99999999999997</ele><time>2026-04-25T15:18:41Z</time></trkpt><trkpt lat="43.192730816118626" lon="10.736682541330145"><ele>251.0</ele><time>2026-04-25T15:18:42Z</time></trkpt><trkpt lat="43.19282515012097" lon="10.736680373142335"><ele>249.0</ele><time>2026-04-25T15:18:43Z</time></trkpt><trkpt lat="43.192919814690555" lon="10.736670217504539"><ele>249.0</ele><time>2026-04-25T15:18:44Z</time></trkpt><trkpt lat="43.19301556463442" lon="10.73666148691786"><ele>248.99999999999997</ele><time>2026-04-25T15:18:45Z</time></trkpt><trkpt lat="43.193101009117754" lon="10.736648036008754"><ele>248.99999999999997</ele><time>2026-04-25T15:18:46Z</time></trkpt><trkpt lat="43.19318425231898" lon="10.736610021105669"><ele>249.0</ele><time>2026-04-25T15:18:47Z</time></trkpt><trkpt lat="43.193261458532774" lon="10.736542877421753"><ele>249.0</ele><time>2026-04-25T15:18:48Z</time></trkpt><trkpt lat="43.19332669795844" lon="10.736437659895895"><ele>249.2</ele><time>2026-04-25T15:18:49Z</time></trkpt><trkpt lat="43.1933771441272" lon="10.736317939488774"><ele>249.39999999999998</ele><time>2026-04-25T15:18:50Z</time></trkpt><trkpt lat="43.193419293732816" lon="10.736182601908396"><ele>249.6</ele><time>2026-04-25T15:18:51Z</time></trkpt><trkpt lat="43.193451484324314" lon="10.736036262165394"><ele>249.8</ele><time>2026-04-25T15:18:52Z</time></trkpt><trkpt lat="43.19348272744336" lon="10.735892322297994"><ele>250.0</ele><time>2026-04-25T15:18:53Z</time></trkpt><trkpt lat="43.19351406560972" lon="10.735748657414554"><ele>250.0</ele><time>2026-04-25T15:18:54Z</time></trkpt><trkpt lat="43.193542216453274" lon="10.735605033051929"><ele>250.0</ele><time>2026-04-25T15:18:55Z</time></trkpt><trkpt lat="43.19356880054177" lon="10.735458175080844"><ele>250.0</ele><time>2026-04-25T15:18:56Z</time></trkpt><trkpt lat="43.193596439678245" lon="10.735313425024533"><ele>250.0</ele><time>2026-04-25T15:18:57Z</time></trkpt><trkpt lat="43.19362388590366" lon="10.735170492224817"><ele>250.0</ele><time>2026-04-25T15:18:58Z</time></trkpt><trkpt lat="43.193649576391635" lon="10.73502346416343"><ele>249.8</ele><time>2026-04-25T15:18:59Z</time></trkpt><trkpt lat="43.19367847905046" lon="10.734898909095467"><ele>249.6</ele><time>2026-04-25T15:19:00Z</time></trkpt><trkpt lat="43.19370323259876" lon="10.73478012906336"><ele>249.39999999999998</ele><time>2026-04-25T15:19:01Z</time></trkpt><trkpt lat="43.19373611932876" lon="10.734651887236309"><ele>249.2</ele><time>2026-04-25T15:19:02Z</time></trkpt><trkpt lat="43.193770646246676" lon="10.73452211552591"><ele>249.0</ele><time>2026-04-25T15:19:03Z</time></trkpt><trkpt lat="43.19382100856972" lon="10.734400109224373"><ele>249.39999999999998</ele><time>2026-04-25T15:19:04Z</time></trkpt><trkpt lat="43.19386526267269" lon="10.734266624463196"><ele>249.79999999999998</ele><time>2026-04-25T15:19:05Z</time></trkpt><trkpt lat="43.19391610502482" lon="10.734131420476933"><ele>250.20000000000002</ele><time>2026-04-25T15:19:06Z</time></trkpt><trkpt lat="43.19396678633777" lon="10.734006003823866"><ele>250.60000000000002</ele><time>2026-04-25T15:19:07Z</time></trkpt><trkpt lat="43.19400717032643" lon="10.733913967533324"><ele>251.0</ele><time>2026-04-25T15:19:08Z</time></trkpt><trkpt lat="43.19408113229247" lon="10.733802869332782"><ele>253.4</ele><time>2026-04-25T15:19:10Z</time></trkpt><trkpt lat="43.19409762526623" lon="10.733717255065379"><ele>255.8</ele><time>2026-04-25T15:19:12Z</time></trkpt><trkpt lat="43.19422512173038" lon="10.733778214818686"><ele>258.20000000000005</ele><time>2026-04-25T15:19:13Z</time></trkpt><trkpt lat="43.194294820414825" lon="10.733821814932286"><ele>260.6</ele><time>2026-04-25T15:19:14Z</time></trkpt><trkpt lat="43.19436989605284" lon="10.733883718702753"><ele>263.0</ele><time>2026-04-25T15:19:15Z</time></trkpt><trkpt lat="43.19444806857044" lon="10.733959005194462"><ele>263.0</ele><time>2026-04-25T15:19:16Z</time></trkpt><trkpt lat="43.194526630489904" lon="10.734038468091379"><ele>263.0</ele><time>2026-04-25T15:19:17Z</time></trkpt><trkpt lat="43.19462015405957" lon="10.734120094432628"><ele>263.0</ele><time>2026-04-25T15:19:18Z</time></trkpt><trkpt lat="43.19471350236806" lon="10.734201169429847"><ele>263.0</ele><time>2026-04-25T15:19:19Z</time></trkpt><trkpt lat="43.19479288824132" lon="10.73427702831246"><ele>263.0</ele><time>2026-04-25T15:19:20Z</time></trkpt><trkpt lat="43.1948644933368" lon="10.734362409308469"><ele>262.8</ele><time>2026-04-25T15:19:21Z</time></trkpt><trkpt lat="43.1949200107876" lon="10.734462380524228"><ele>262.6</ele><time>2026-04-25T15:19:22Z</time></trkpt><trkpt lat="43.194936997909394" lon="10.734583472544028"><ele>262.4</ele><time>2026-04-25T15:19:23Z</time></trkpt><trkpt lat="43.19491192287934" lon="10.734694317654794"><ele>262.2</ele><time>2026-04-25T15:19:24Z</time></trkpt><trkpt lat="43.19488670499673" lon="10.734818783886137"><ele>262.0</ele><time>2026-04-25T15:19:25Z</time></trkpt><trkpt lat="43.19485484436181" lon="10.734953364161731"><ele>262.4</ele><time>2026-04-25T15:19:26Z</time></trkpt><trkpt lat="43.194835501880725" lon="10.735099232238406"><ele>262.79999999999995</ele><time>2026-04-25T15:19:27Z</time></trkpt><trkpt lat="43.19485944415901" lon="10.735250785455396"><ele>263.2</ele><time>2026-04-25T15:19:28Z</time></trkpt><trkpt lat="43.19488175165349" lon="10.735401001951589"><ele>263.59999999999997</ele><time>2026-04-25T15:19:29Z</time></trkpt><trkpt lat="43.194923458181485" lon="10.735545868838294"><ele>264.0</ele><time>2026-04-25T15:19:30Z</time></trkpt><trkpt lat="43.19497252082641" lon="10.735692023122661"><ele>265.0</ele><time>2026-04-25T15:19:31Z</time></trkpt><trkpt lat="43.19502661264059" lon="10.735842636844149"><ele>266.0</ele><time>2026-04-25T15:19:32Z</time></trkpt><trkpt lat="43.1950968406109" lon="10.735996056962055"><ele>267.0</ele><time>2026-04-25T15:19:33Z</time></trkpt><trkpt lat="43.1951580847425" lon="10.736133248973589"><ele>268.0</ele><time>2026-04-25T15:19:34Z</time></trkpt><trkpt lat="43.19520228216132" lon="10.73626322893764"><ele>269.2</ele><time>2026-04-25T15:19:35Z</time></trkpt><trkpt lat="43.195264709911" lon="10.73637586934898"><ele>270.4</ele><time>2026-04-25T15:19:36Z</time></trkpt><trkpt lat="43.19534420338004" lon="10.736466954023745"><ele>271.59999999999997</ele><time>2026-04-25T15:19:37Z</time></trkpt><trkpt lat="43.195440108767684" lon="10.73653756375952"><ele>272.8</ele><time>2026-04-25T15:19:38Z</time></trkpt><trkpt lat="43.195536973794766" lon="10.736589434147387"><ele>274.0</ele><time>2026-04-25T15:19:39Z</time></trkpt><trkpt lat="43.19564417783488" lon="10.736627970056013"><ele>273.0</ele><time>2026-04-25T15:19:40Z</time></trkpt><trkpt lat="43.19574906683074" lon="10.736665879154218"><ele>272.0</ele><time>2026-04-25T15:19:41Z</time></trkpt><trkpt lat="43.19584409428811" lon="10.736706897249288"><ele>271.0</ele><time>2026-04-25T15:19:42Z</time></trkpt><trkpt lat="43.19593350055885" lon="10.736745734151725"><ele>270.0</ele><time>2026-04-25T15:19:43Z</time></trkpt><trkpt lat="43.196027624659806" lon="10.736782779362237"><ele>269.0</ele><time>2026-04-25T15:19:44Z</time></trkpt><trkpt lat="43.196126232408524" lon="10.736823909572031"><ele>269.0</ele><time>2026-04-25T15:19:45Z</time></trkpt><trkpt lat="43.196228515613996" lon="10.736868211997237"><ele>269.0</ele><time>2026-04-25T15:19:46Z</time></trkpt><trkpt lat="43.1963317510925" lon="10.736911345988192"><ele>269.0</ele><time>2026-04-25T15:19:47Z</time></trkpt><trkpt lat="43.19643020637105" lon="10.736946021391624"><ele>269.0</ele><time>2026-04-25T15:19:48Z</time></trkpt><trkpt lat="43.19650838846195" lon="10.736975418370447"><ele>269.0</ele><time>2026-04-25T15:19:49Z</time></trkpt><trkpt lat="43.19657317702259" lon="10.737014534649715"><ele>270.0</ele><time>2026-04-25T15:19:50Z</time></trkpt><trkpt lat="43.1966293936242" lon="10.737078881491245"><ele>271.0</ele><time>2026-04-25T15:19:51Z</time></trkpt><trkpt lat="43.19666958096884" lon="10.737156843535386"><ele>272.0</ele><time>2026-04-25T15:19:52Z</time></trkpt><trkpt lat="43.196698578488" lon="10.737254596524599"><ele>273.0</ele><time>2026-04-25T15:19:53Z</time></trkpt><trkpt lat="43.19669807680003" lon="10.737372165741697"><ele>274.0</ele><time>2026-04-25T15:19:54Z</time></trkpt><trkpt lat="43.19672795512999" lon="10.737490344994976"><ele>275.0</ele><time>2026-04-25T15:19:55Z</time></trkpt><trkpt lat="43.19674167877481" lon="10.737601998979775"><ele>275.0</ele><time>2026-04-25T15:19:56Z</time></trkpt><trkpt lat="43.19676381998525" lon="10.73770185621305"><ele>275.0</ele><time>2026-04-25T15:19:57Z</time></trkpt><trkpt lat="43.19682886427933" lon="10.737783458641063"><ele>275.0</ele><time>2026-04-25T15:19:58Z</time></trkpt><trkpt lat="43.19689064733167" lon="10.737848086916705"><ele>275.0</ele><time>2026-04-25T15:19:59Z</time></trkpt><trkpt lat="43.19695474753965" lon="10.737880614557465"><ele>275.0</ele><time>2026-04-25T15:20:00Z</time></trkpt><trkpt lat="43.19702816794028" lon="10.737896227436707"><ele>275.0</ele><time>2026-04-25T15:20:01Z</time></trkpt><trkpt lat="43.1971162238488" lon="10.737902771378383"><ele>275.8</ele><time>2026-04-25T15:20:02Z</time></trkpt><trkpt lat="43.19720810506947" lon="10.737915099135826"><ele>276.6</ele><time>2026-04-25T15:20:03Z</time></trkpt><trkpt lat="43.197309281807364" lon="10.737925957176353"><ele>277.4</ele><time>2026-04-25T15:20:04Z</time></trkpt><trkpt lat="43.197426278077984" lon="10.73793506140847"><ele>278.2</ele><time>2026-04-25T15:20:05Z</time></trkpt><trkpt lat="43.197519896139475" lon="10.737943066066162"><ele>279.0</ele><time>2026-04-25T15:20:06Z</time></trkpt><trkpt lat="43.197622337760265" lon="10.737964432125251"><ele>279.0</ele><time>2026-04-25T15:20:07Z</time></trkpt><trkpt lat="43.19772687146571" lon="10.73793705641775"><ele>279.0</ele><time>2026-04-25T15:20:08Z</time></trkpt><trkpt lat="43.19783470647327" lon="10.7379226285865"><ele>279.0</ele><time>2026-04-25T15:20:09Z</time></trkpt><trkpt lat="43.19794232850874" lon="10.737911448027694"><ele>279.0</ele><time>2026-04-25T15:20:10Z</time></trkpt><trkpt lat="43.19803774846156" lon="10.737882732056839"><ele>279.0</ele><time>2026-04-25T15:20:11Z</time></trkpt><trkpt lat="43.19812042203355" lon="10.737865691037833"><ele>279.6666666666667</ele><time>2026-04-25T15:20:12Z</time></trkpt><trkpt lat="43.198188680392406" lon="10.737856652697555"><ele>280.3333333333333</ele><time>2026-04-25T15:20:13Z</time></trkpt><trkpt lat="43.19825787897794" lon="10.73786767715155"><ele>281.0</ele><time>2026-04-25T15:20:14Z</time></trkpt><trkpt lat="43.198328822300276" lon="10.737812004002487"><ele>281.66666666666663</ele><time>2026-04-25T15:20:15Z</time></trkpt><trkpt lat="43.198401035636735" lon="10.737781842724711"><ele>282.3333333333333</ele><time>2026-04-25T15:20:16Z</time></trkpt><trkpt lat="43.19847710014455" lon="10.737746989147947"><ele>283.0</ele><time>2026-04-25T15:20:17Z</time></trkpt><trkpt lat="43.19855882880496" lon="10.737708261778485"><ele>281.4</ele><time>2026-04-25T15:20:18Z</time></trkpt><trkpt lat="43.19864226257876" lon="10.737668399778835"><ele>279.8</ele><time>2026-04-25T15:20:19Z</time></trkpt><trkpt lat="43.19872833180879" lon="10.737630966455407"><ele>278.2</ele><time>2026-04-25T15:20:20Z</time></trkpt><trkpt lat="43.19881779574622" lon="10.737586003112318"><ele>276.6</ele><time>2026-04-25T15:20:21Z</time></trkpt><trkpt lat="43.19890839055285" lon="10.737545959063437"><ele>275.0</ele><time>2026-04-25T15:20:22Z</time></trkpt><trkpt lat="43.19900087610573" lon="10.737505243904174"><ele>276.1666666666667</ele><time>2026-04-25T15:20:23Z</time></trkpt><trkpt lat="43.19909642188762" lon="10.737449849166744"><ele>277.33333333333337</ele><time>2026-04-25T15:20:24Z</time></trkpt><trkpt lat="43.199185369123185" lon="10.737410552645235"><ele>278.5</ele><time>2026-04-25T15:20:25Z</time></trkpt><trkpt lat="43.199270407734325" lon="10.737369774422348"><ele>279.6666666666667</ele><time>2026-04-25T15:20:26Z</time></trkpt><trkpt lat="43.19934782986401" lon="10.737321845446516"><ele>280.8333333333333</ele><time>2026-04-25T15:20:27Z</time></trkpt><trkpt lat="43.19942291431524" lon="10.73730533857373"><ele>282.0</ele><time>2026-04-25T15:20:28Z</time></trkpt><trkpt lat="43.199485467926245" lon="10.737275887994013"><ele>282.0</ele><time>2026-04-25T15:20:29Z</time></trkpt><trkpt lat="43.19954716967646" lon="10.737242233770194"><ele>282.0</ele><time>2026-04-25T15:20:30Z</time></trkpt><trkpt lat="43.199675224200085" lon="10.737193585190603"><ele>282.0</ele><time>2026-04-25T15:20:32Z</time></trkpt><trkpt lat="43.19975572680727" lon="10.737194581914917"><ele>282.0</ele><time>2026-04-25T15:20:33Z</time></trkpt><trkpt lat="43.19982476229778" lon="10.737204290654917"><ele>282.0</ele><time>2026-04-25T15:20:34Z</time></trkpt><trkpt lat="43.19989344808435" lon="10.737233996056121"><ele>282.0</ele><time>2026-04-25T15:20:35Z</time></trkpt><trkpt lat="43.19995842752056" lon="10.737254410903487"><ele>282.14285714285717</ele><time>2026-04-25T15:20:36Z</time></trkpt><trkpt lat="43.20002224015996" lon="10.737299934168872"><ele>282.2857142857143</ele><time>2026-04-25T15:20:37Z</time></trkpt><trkpt lat="43.200084063071664" lon="10.73735362297981"><ele>282.42857142857144</ele><time>2026-04-25T15:20:38Z</time></trkpt><trkpt lat="43.20013059668192" lon="10.737437834490622"><ele>282.57142857142856</ele><time>2026-04-25T15:20:39Z</time></trkpt><trkpt lat="43.20018576800219" lon="10.737505563163396"><ele>282.7142857142857</ele><time>2026-04-25T15:20:40Z</time></trkpt><trkpt lat="43.200247159849276" lon="10.737552063400523"><ele>282.8571428571429</ele><time>2026-04-25T15:20:41Z</time></trkpt><trkpt lat="43.20030330300433" lon="10.737610426729336"><ele>283.0</ele><time>2026-04-25T15:20:42Z</time></trkpt><trkpt lat="43.200365944349706" lon="10.737661843359042"><ele>283.0</ele><time>2026-04-25T15:20:43Z</time></trkpt><trkpt lat="43.200444601808734" lon="10.73768226381295"><ele>283.0</ele><time>2026-04-25T15:20:44Z</time></trkpt><trkpt lat="43.20052896242507" lon="10.737690732764046"><ele>283.0</ele><time>2026-04-25T15:20:45Z</time></trkpt><trkpt lat="43.20061135388718" lon="10.737691205294112"><ele>283.0</ele><time>2026-04-25T15:20:46Z</time></trkpt><trkpt lat="43.200695778408104" lon="10.73767643486205"><ele>283.0</ele><time>2026-04-25T15:20:47Z</time></trkpt><trkpt lat="43.20076648334224" lon="10.737666791175801"><ele>283.0</ele><time>2026-04-25T15:20:48Z</time></trkpt><trkpt lat="43.2008327233464" lon="10.73767355423498"><ele>283.8</ele><time>2026-04-25T15:20:49Z</time></trkpt><trkpt lat="43.200921643292446" lon="10.737738339597607"><ele>284.6</ele><time>2026-04-25T15:20:51Z</time></trkpt><trkpt lat="43.20098012818428" lon="10.737860824071761"><ele>285.4</ele><time>2026-04-25T15:20:53Z</time></trkpt><trkpt lat="43.20104612969037" lon="10.73799828407651"><ele>286.2</ele><time>2026-04-25T15:20:55Z</time></trkpt><trkpt lat="43.20110794882584" lon="10.738117599074105"><ele>287.0</ele><time>2026-04-25T15:20:57Z</time></trkpt><trkpt lat="43.2011637090817" lon="10.738163103115077"><ele>287.0</ele><time>2026-04-25T15:21:21Z</time></trkpt><trkpt lat="43.20123166752099" lon="10.738175827700442"><ele>287.0</ele><time>2026-04-25T15:22:02Z</time></trkpt><trkpt lat="43.20130986854971" lon="10.738171140457789"><ele>287.0</ele><time>2026-04-25T15:22:04Z</time></trkpt><trkpt lat="43.201387254653994" lon="10.738153274913273"><ele>287.0</ele><time>2026-04-25T15:22:06Z</time></trkpt><trkpt lat="43.20135174014245" lon="10.738022357584295"><ele>287.0</ele><time>2026-04-25T15:22:31Z</time></trkpt><trkpt lat="43.2013992027594" lon="10.738097689310678"><ele>287.0</ele><time>2026-04-25T15:22:57Z</time></trkpt><trkpt lat="43.20145960398244" lon="10.738063933013635"><ele>286.1666666666667</ele><time>2026-04-25T15:23:27Z</time></trkpt><trkpt lat="43.20150587991278" lon="10.73800314011443"><ele>285.33333333333337</ele><time>2026-04-25T15:23:36Z</time></trkpt><trkpt lat="43.20153538468284" lon="10.737901476307869"><ele>284.5</ele><time>2026-04-25T15:26:44Z</time></trkpt><trkpt lat="43.20153260194923" lon="10.737787902516414"><ele>283.6666666666667</ele><time>2026-04-25T15:26:46Z</time></trkpt><trkpt lat="43.20156217428565" lon="10.737623298353839"><ele>282.8333333333333</ele><time>2026-04-25T15:26:48Z</time></trkpt><trkpt lat="43.20159227532715" lon="10.737521213163019"><ele>282.0</ele><time>2026-04-25T15:26:49Z</time></trkpt><trkpt lat="43.20160816267846" lon="10.73740894524785"><ele>281.0</ele><time>2026-04-25T15:26:50Z</time></trkpt><trkpt lat="43.201624112272874" lon="10.737296237529298"><ele>280.0</ele><time>2026-04-25T15:26:51Z</time></trkpt><trkpt lat="43.201631162452486" lon="10.737171706476017"><ele>279.0</ele><time>2026-04-25T15:26:52Z</time></trkpt><trkpt lat="43.20164545655959" lon="10.737060197790436"><ele>278.0</ele><time>2026-04-25T15:26:53Z</time></trkpt><trkpt lat="43.201659653009294" lon="10.736947486751665"><ele>277.0</ele><time>2026-04-25T15:26:54Z</time></trkpt><trkpt lat="43.20167753853317" lon="10.73682572012606"><ele>276.0</ele><time>2026-04-25T15:26:55Z</time></trkpt><trkpt lat="43.20169747013537" lon="10.736694610874169"><ele>275.40000000000003</ele><time>2026-04-25T15:26:56Z</time></trkpt><trkpt lat="43.201717329043205" lon="10.73655460232559"><ele>274.8</ele><time>2026-04-25T15:26:57Z</time></trkpt><trkpt lat="43.20173700532848" lon="10.736409628592668"><ele>274.20000000000005</ele><time>2026-04-25T15:26:58Z</time></trkpt><trkpt lat="43.20175326799243" lon="10.736273429703044"><ele>273.6</ele><time>2026-04-25T15:26:59Z</time></trkpt><trkpt lat="43.20177293562434" lon="10.736143873140177"><ele>273.0</ele><time>2026-04-25T15:27:00Z</time></trkpt><trkpt lat="43.20179143194017" lon="10.736020988830061"><ele>272.0</ele><time>2026-04-25T15:27:01Z</time></trkpt><trkpt lat="43.20181379798606" lon="10.735912751054503"><ele>271.0</ele><time>2026-04-25T15:27:02Z</time></trkpt><trkpt lat="43.20185659326193" lon="10.735806982721423"><ele>270.0</ele><time>2026-04-25T15:27:03Z</time></trkpt><trkpt lat="43.20191249255297" lon="10.735704607425355"><ele>269.0</ele><time>2026-04-25T15:27:04Z</time></trkpt><trkpt lat="43.20198077902129" lon="10.735592664970131"><ele>268.0</ele><time>2026-04-25T15:27:05Z</time></trkpt><trkpt lat="43.20205297982618" lon="10.73549614463498"><ele>268.0</ele><time>2026-04-25T15:27:06Z</time></trkpt><trkpt lat="43.20213748658265" lon="10.735393512637986"><ele>268.0</ele><time>2026-04-25T15:27:07Z</time></trkpt><trkpt lat="43.20221482988107" lon="10.735296553039548"><ele>268.0</ele><time>2026-04-25T15:27:08Z</time></trkpt><trkpt lat="43.20229407044293" lon="10.735206435673973"><ele>268.0</ele><time>2026-04-25T15:27:09Z</time></trkpt><trkpt lat="43.20237017439235" lon="10.735123598738369"><ele>268.0</ele><time>2026-04-25T15:27:10Z</time></trkpt><trkpt lat="43.202450767997966" lon="10.735045764590279"><ele>265.5</ele><time>2026-04-25T15:27:11Z</time></trkpt><trkpt lat="43.202544531354384" lon="10.7349934157585"><ele>263.0</ele><time>2026-04-25T15:27:12Z</time></trkpt><trkpt lat="43.20264867197006" lon="10.734964619077344"><ele>260.5</ele><time>2026-04-25T15:27:13Z</time></trkpt><trkpt lat="43.20273916233451" lon="10.734946479560406"><ele>258.0</ele><time>2026-04-25T15:27:14Z</time></trkpt><trkpt lat="43.202819242544194" lon="10.734936450452562"><ele>255.49999999999997</ele><time>2026-04-25T15:27:15Z</time></trkpt><trkpt lat="43.20288575116985" lon="10.734930138571775"><ele>253.0</ele><time>2026-04-25T15:27:16Z</time></trkpt><trkpt lat="43.20297451995328" lon="10.734926614485474"><ele>252.99999999999997</ele><time>2026-04-25T15:27:18Z</time></trkpt><trkpt lat="43.203044234000195" lon="10.73491406649664"><ele>253.0</ele><time>2026-04-25T15:28:18Z</time></trkpt><trkpt lat="43.20315245763212" lon="10.734860490223136"><ele>253.0</ele><time>2026-04-25T15:28:20Z</time></trkpt><trkpt lat="43.20322839040118" lon="10.734840227322312"><ele>253.0</ele><time>2026-04-25T15:28:21Z</time></trkpt><trkpt lat="43.20332073893054" lon="10.734811226368517"><ele>252.99999999999997</ele><time>2026-04-25T15:28:22Z</time></trkpt><trkpt lat="43.20340659844871" lon="10.734791149999879"><ele>253.0</ele><time>2026-04-25T15:28:23Z</time></trkpt><trkpt lat="43.20348327511778" lon="10.734782359574073"><ele>252.66666666666666</ele><time>2026-04-25T15:28:24Z</time></trkpt><trkpt lat="43.20356123950701" lon="10.734763070104655"><ele>252.33333333333331</ele><time>2026-04-25T15:28:25Z</time></trkpt><trkpt lat="43.20363413274979" lon="10.734744430317336"><ele>252.0</ele><time>2026-04-25T15:28:26Z</time></trkpt><trkpt lat="43.2036980834565" lon="10.734726196878805"><ele>251.66666666666669</ele><time>2026-04-25T15:28:27Z</time></trkpt><trkpt lat="43.203827714668336" lon="10.734688288518011"><ele>251.33333333333334</ele><time>2026-04-25T15:28:29Z</time></trkpt><trkpt lat="43.20390148367109" lon="10.734659676453573"><ele>251.0</ele><time>2026-04-25T15:28:30Z</time></trkpt><trkpt lat="43.203969757229004" lon="10.734647447521564"><ele>250.83333333333334</ele><time>2026-04-25T15:28:31Z</time></trkpt><trkpt lat="43.20405054376685" lon="10.73463888057285"><ele>250.66666666666669</ele><time>2026-04-25T15:28:32Z</time></trkpt><trkpt lat="43.204133128565196" lon="10.734627145647824"><ele>250.5</ele><time>2026-04-25T15:28:33Z</time></trkpt><trkpt lat="43.20421176992242" lon="10.734606484075723"><ele>250.33333333333331</ele><time>2026-04-25T15:28:34Z</time></trkpt><trkpt lat="43.20429408816449" lon="10.734585132598884"><ele>250.16666666666666</ele><time>2026-04-25T15:28:35Z</time></trkpt><trkpt lat="43.20438607008521" lon="10.73455447008041"><ele>250.0</ele><time>2026-04-25T15:28:36Z</time></trkpt><trkpt lat="43.20446738085585" lon="10.734537114473211"><ele>250.0</ele><time>2026-04-25T15:28:37Z</time></trkpt><trkpt lat="43.204554158241685" lon="10.734511936061889"><ele>250.0</ele><time>2026-04-25T15:28:38Z</time></trkpt><trkpt lat="43.20464672062946" lon="10.734474647713908"><ele>250.0</ele><time>2026-04-25T15:28:39Z</time></trkpt><trkpt lat="43.20474473659149" lon="10.734413958317814"><ele>250.0</ele><time>2026-04-25T15:28:40Z</time></trkpt><trkpt lat="43.20484166839098" lon="10.734338037371934"><ele>250.0</ele><time>2026-04-25T15:28:41Z</time></trkpt><trkpt lat="43.20494306685184" lon="10.734255329592507"><ele>247.0</ele><time>2026-04-25T15:28:42Z</time></trkpt><trkpt lat="43.20504437021204" lon="10.734161822607426"><ele>244.0</ele><time>2026-04-25T15:28:43Z</time></trkpt><trkpt lat="43.20513416668241" lon="10.73407271382024"><ele>241.0</ele><time>2026-04-25T15:28:44Z</time></trkpt><trkpt lat="43.205231494299326" lon="10.733975034248248"><ele>238.0</ele><time>2026-04-25T15:28:45Z</time></trkpt><trkpt lat="43.205324098629944" lon="10.733878659712325"><ele>238.0</ele><time>2026-04-25T15:28:46Z</time></trkpt><trkpt lat="43.205417367133705" lon="10.733782122493166"><ele>238.0</ele><time>2026-04-25T15:28:47Z</time></trkpt><trkpt lat="43.20551001602852" lon="10.733669861123678"><ele>238.0</ele><time>2026-04-25T15:28:48Z</time></trkpt><trkpt lat="43.20560211698682" lon="10.733551543635091"><ele>238.0</ele><time>2026-04-25T15:28:49Z</time></trkpt><trkpt lat="43.20569480899238" lon="10.733431849662203"><ele>236.8</ele><time>2026-04-25T15:28:50Z</time></trkpt><trkpt lat="43.20578576803139" lon="10.733319951351678"><ele>235.60000000000002</ele><time>2026-04-25T15:28:51Z</time></trkpt><trkpt lat="43.20586615652487" lon="10.733226012263328"><ele>234.39999999999998</ele><time>2026-04-25T15:28:52Z</time></trkpt><trkpt lat="43.205936659732714" lon="10.733134988866784"><ele>233.2</ele><time>2026-04-25T15:28:53Z</time></trkpt><trkpt lat="43.206008472812876" lon="10.733054956398101"><ele>232.0</ele><time>2026-04-25T15:28:54Z</time></trkpt><trkpt lat="43.2060731731658" lon="10.73301357573816"><ele>231.99999999999997</ele><time>2026-04-25T15:28:55Z</time></trkpt><trkpt lat="43.206143299167245" lon="10.73299493197322"><ele>232.0</ele><time>2026-04-25T15:28:56Z</time></trkpt><trkpt lat="43.206214252708804" lon="10.73300813320358"><ele>232.0</ele><time>2026-04-25T15:28:57Z</time></trkpt><trkpt lat="43.206290747827346" lon="10.73304376696046"><ele>232.0</ele><time>2026-04-25T15:28:58Z</time></trkpt><trkpt lat="43.20637698742599" lon="10.733111411013692"><ele>231.99999999999997</ele><time>2026-04-25T15:28:59Z</time></trkpt><trkpt lat="43.206462697208956" lon="10.73317471921064"><ele>232.0</ele><time>2026-04-25T15:29:00Z</time></trkpt><trkpt lat="43.20653257576794" lon="10.733241734383832"><ele>229.8</ele><time>2026-04-25T15:29:01Z</time></trkpt><trkpt lat="43.20660408691998" lon="10.733332560937573"><ele>227.6</ele><time>2026-04-25T15:29:02Z</time></trkpt><trkpt lat="43.206665654463016" lon="10.733441946025405"><ele>225.40000000000003</ele><time>2026-04-25T15:29:03Z</time></trkpt><trkpt lat="43.206721787641605" lon="10.733560108561834"><ele>223.20000000000002</ele><time>2026-04-25T15:29:04Z</time></trkpt><trkpt lat="43.206762730036274" lon="10.733685750218418"><ele>221.0</ele><time>2026-04-25T15:29:05Z</time></trkpt><trkpt lat="43.206811887548085" lon="10.73379831584154"><ele>224.14285714285717</ele><time>2026-04-25T15:29:06Z</time></trkpt><trkpt lat="43.206852479660384" lon="10.733905224635226"><ele>227.28571428571428</ele><time>2026-04-25T15:29:07Z</time></trkpt><trkpt lat="43.206894723292066" lon="10.733986966421574"><ele>230.42857142857144</ele><time>2026-04-25T15:29:08Z</time></trkpt><trkpt lat="43.2069414212464" lon="10.734047910265796"><ele>233.57142857142858</ele><time>2026-04-25T15:29:09Z</time></trkpt><trkpt lat="43.207001567942086" lon="10.734075419638199"><ele>236.71428571428572</ele><time>2026-04-25T15:29:10Z</time></trkpt><trkpt lat="43.20706759867924" lon="10.734080433820294"><ele>239.85714285714286</ele><time>2026-04-25T15:29:11Z</time></trkpt><trkpt lat="43.20713699069499" lon="10.73405499039836"><ele>243.0</ele><time>2026-04-25T15:29:12Z</time></trkpt><trkpt lat="43.207205020132875" lon="10.733996798233441"><ele>243.0</ele><time>2026-04-25T15:29:13Z</time></trkpt><trkpt lat="43.207251297782584" lon="10.733911795839278"><ele>243.0</ele><time>2026-04-25T15:29:14Z</time></trkpt><trkpt lat="43.20728459308833" lon="10.733799266055879"><ele>243.0</ele><time>2026-04-25T15:29:15Z</time></trkpt><trkpt lat="43.207297838472165" lon="10.733672440413535"><ele>243.0</ele><time>2026-04-25T15:29:16Z</time></trkpt><trkpt lat="43.20731027604039" lon="10.733528410954515"><ele>243.0</ele><time>2026-04-25T15:29:17Z</time></trkpt><trkpt lat="43.207331411114154" lon="10.733378782289266"><ele>239.4</ele><time>2026-04-25T15:29:18Z</time></trkpt><trkpt lat="43.20734864428158" lon="10.733227743081926"><ele>235.8</ele><time>2026-04-25T15:29:19Z</time></trkpt><trkpt lat="43.207357134970955" lon="10.733081354033859"><ele>232.2</ele><time>2026-04-25T15:29:20Z</time></trkpt><trkpt lat="43.20735640423035" lon="10.73295148485799"><ele>228.6</ele><time>2026-04-25T15:29:21Z</time></trkpt><trkpt lat="43.207350572451546" lon="10.732837076396045"><ele>225.0</ele><time>2026-04-25T15:29:22Z</time></trkpt><trkpt lat="43.20734718123277" lon="10.732740177835215"><ele>223.33333333333334</ele><time>2026-04-25T15:29:23Z</time></trkpt><trkpt lat="43.20735957694574" lon="10.732654262910026"><ele>221.66666666666669</ele><time>2026-04-25T15:29:24Z</time></trkpt><trkpt lat="43.2074435259674" lon="10.73252325272454"><ele>220.0</ele><time>2026-04-25T15:29:26Z</time></trkpt><trkpt lat="43.20751161179687" lon="10.732506384137766"><ele>218.33333333333334</ele><time>2026-04-25T15:29:27Z</time></trkpt><trkpt lat="43.20758776072739" lon="10.732517107885414"><ele>216.66666666666669</ele><time>2026-04-25T15:29:28Z</time></trkpt><trkpt lat="43.207679363221224" lon="10.732548125074132"><ele>215.0</ele><time>2026-04-25T15:29:29Z</time></trkpt><trkpt lat="43.20777232652839" lon="10.732589519239957"><ele>215.0</ele><time>2026-04-25T15:29:30Z</time></trkpt><trkpt lat="43.20787178802826" lon="10.732638091772825"><ele>215.0</ele><time>2026-04-25T15:29:31Z</time></trkpt><trkpt lat="43.207971684507996" lon="10.73268586089904"><ele>215.0</ele><time>2026-04-25T15:29:32Z</time></trkpt><trkpt lat="43.20807557495154" lon="10.732734738238307"><ele>215.0</ele><time>2026-04-25T15:29:33Z</time></trkpt><trkpt lat="43.20818067300433" lon="10.732777822397113"><ele>215.0</ele><time>2026-04-25T15:29:34Z</time></trkpt><trkpt lat="43.20828875854788" lon="10.732823588120636"><ele>220.6</ele><time>2026-04-25T15:29:35Z</time></trkpt><trkpt lat="43.20839540060271" lon="10.732873511865938"><ele>226.2</ele><time>2026-04-25T15:29:36Z</time></trkpt><trkpt lat="43.2084992958623" lon="10.732915419743687"><ele>231.8</ele><time>2026-04-25T15:29:37Z</time></trkpt><trkpt lat="43.20859473625251" lon="10.732950995283343"><ele>237.4</ele><time>2026-04-25T15:29:38Z</time></trkpt><trkpt lat="43.208681941505674" lon="10.73297313064524"><ele>243.0</ele><time>2026-04-25T15:29:39Z</time></trkpt><trkpt lat="43.208779360555376" lon="10.732994978353805"><ele>243.0</ele><time>2026-04-25T15:29:40Z</time></trkpt><trkpt lat="43.20887983496056" lon="10.733002279241084"><ele>243.0</ele><time>2026-04-25T15:29:41Z</time></trkpt><trkpt lat="43.208982440934776" lon="10.732993268991383"><ele>243.0</ele><time>2026-04-25T15:29:42Z</time></trkpt><trkpt lat="43.20908806869895" lon="10.732963282590383"><ele>243.0</ele><time>2026-04-25T15:29:43Z</time></trkpt><trkpt lat="43.20918904350908" lon="10.732914787430683"><ele>243.0</ele><time>2026-04-25T15:29:44Z</time></trkpt><trkpt lat="43.20930051162473" lon="10.732875873457257"><ele>240.75</ele><time>2026-04-25T15:29:45Z</time></trkpt><trkpt lat="43.20941535480089" lon="10.732832892446513"><ele>238.5</ele><time>2026-04-25T15:29:46Z</time></trkpt><trkpt lat="43.209536382660616" lon="10.732783232139225"><ele>236.25</ele><time>2026-04-25T15:29:47Z</time></trkpt><trkpt lat="43.209657128262556" lon="10.732736486526717"><ele>234.0</ele><time>2026-04-25T15:29:48Z</time></trkpt><trkpt lat="43.20977563919156" lon="10.732689696780325"><ele>230.25</ele><time>2026-04-25T15:29:49Z</time></trkpt><trkpt lat="43.20989093615622" lon="10.732643730279067"><ele>226.5</ele><time>2026-04-25T15:29:50Z</time></trkpt><trkpt lat="43.21000134200414" lon="10.732601647532658"><ele>222.75</ele><time>2026-04-25T15:29:51Z</time></trkpt><trkpt lat="43.21010914139967" lon="10.732563178782092"><ele>219.0</ele><time>2026-04-25T15:29:52Z</time></trkpt><trkpt lat="43.21021213376177" lon="10.73253101414154"><ele>219.0</ele><time>2026-04-25T15:29:53Z</time></trkpt><trkpt lat="43.21030953936542" lon="10.732497352921223"><ele>218.99999999999997</ele><time>2026-04-25T15:29:54Z</time></trkpt><trkpt lat="43.21040542700533" lon="10.732460334609573"><ele>218.99999999999997</ele><time>2026-04-25T15:29:55Z</time></trkpt><trkpt lat="43.21049380423647" lon="10.73242033839202"><ele>219.0</ele><time>2026-04-25T15:29:56Z</time></trkpt><trkpt lat="43.21058333683029" lon="10.732384746274384"><ele>219.0</ele><time>2026-04-25T15:29:57Z</time></trkpt><trkpt lat="43.210681961591334" lon="10.732347865345611"><ele>219.25</ele><time>2026-04-25T15:29:58Z</time></trkpt><trkpt lat="43.21078257914945" lon="10.732315753606677"><ele>219.5</ele><time>2026-04-25T15:29:59Z</time></trkpt><trkpt lat="43.210895142547514" lon="10.732298883976604"><ele>219.75</ele><time>2026-04-25T15:30:00Z</time></trkpt><trkpt lat="43.21101323060533" lon="10.73228399644123"><ele>220.0</ele><time>2026-04-25T15:30:01Z</time></trkpt><trkpt lat="43.211135391014906" lon="10.73226761840227"><ele>220.0</ele><time>2026-04-25T15:30:02Z</time></trkpt><trkpt lat="43.211259276453696" lon="10.732248110032762"><ele>220.0</ele><time>2026-04-25T15:30:03Z</time></trkpt><trkpt lat="43.21137904176704" lon="10.732231813435925"><ele>220.0</ele><time>2026-04-25T15:30:04Z</time></trkpt><trkpt lat="43.21149925413178" lon="10.73221699003769"><ele>220.0</ele><time>2026-04-25T15:30:05Z</time></trkpt><trkpt lat="43.2116236056856" lon="10.732192827961672"><ele>220.25</ele><time>2026-04-25T15:30:06Z</time></trkpt><trkpt lat="43.21175738738313" lon="10.732167562386074"><ele>220.5</ele><time>2026-04-25T15:30:07Z</time></trkpt><trkpt lat="43.21189507877345" lon="10.732150984341928"><ele>220.75</ele><time>2026-04-25T15:30:08Z</time></trkpt><trkpt lat="43.21202113258601" lon="10.7321442618818"><ele>221.0</ele><time>2026-04-25T15:30:09Z</time></trkpt><trkpt lat="43.21214217397202" lon="10.732147835897178"><ele>221.0</ele><time>2026-04-25T15:30:10Z</time></trkpt><trkpt lat="43.212258383991575" lon="10.732155925102427"><ele>221.0</ele><time>2026-04-25T15:30:11Z</time></trkpt><trkpt lat="43.212369569945665" lon="10.73216679295826"><ele>221.0</ele><time>2026-04-25T15:30:12Z</time></trkpt><trkpt lat="43.212488720971635" lon="10.732181104365553"><ele>221.0</ele><time>2026-04-25T15:30:13Z</time></trkpt><trkpt lat="43.21259577143776" lon="10.732220326356597"><ele>219.8</ele><time>2026-04-25T15:30:14Z</time></trkpt><trkpt lat="43.21269624139431" lon="10.732277407830919"><ele>218.60000000000002</ele><time>2026-04-25T15:30:15Z</time></trkpt><trkpt lat="43.21278667132917" lon="10.732349306351484"><ele>217.4</ele><time>2026-04-25T15:30:16Z</time></trkpt><trkpt lat="43.21287633473291" lon="10.73244501686752"><ele>216.2</ele><time>2026-04-25T15:30:17Z</time></trkpt><trkpt lat="43.21296010939436" lon="10.732546917451204"><ele>215.0</ele><time>2026-04-25T15:30:18Z</time></trkpt><trkpt lat="43.213041840954176" lon="10.732659088464978"><ele>215.75</ele><time>2026-04-25T15:30:19Z</time></trkpt><trkpt lat="43.21314012913388" lon="10.732755213433181"><ele>216.5</ele><time>2026-04-25T15:30:20Z</time></trkpt><trkpt lat="43.21324369917561" lon="10.732829908444911"><ele>217.25</ele><time>2026-04-25T15:30:21Z</time></trkpt><trkpt lat="43.21334785385647" lon="10.7328799255942"><ele>218.0</ele><time>2026-04-25T15:30:22Z</time></trkpt><trkpt lat="43.21344930380707" lon="10.732910963361974"><ele>218.0</ele><time>2026-04-25T15:30:23Z</time></trkpt><trkpt lat="43.21354563593018" lon="10.732919032221231"><ele>218.0</ele><time>2026-04-25T15:30:24Z</time></trkpt><trkpt lat="43.21364483847197" lon="10.732902672855387"><ele>218.0</ele><time>2026-04-25T15:30:25Z</time></trkpt><trkpt lat="43.213744802923976" lon="10.73285705620288"><ele>218.0</ele><time>2026-04-25T15:30:26Z</time></trkpt><trkpt lat="43.213841747612484" lon="10.73278028022383"><ele>218.0</ele><time>2026-04-25T15:30:27Z</time></trkpt><trkpt lat="43.21393253979046" lon="10.7326769732275"><ele>216.75</ele><time>2026-04-25T15:30:28Z</time></trkpt><trkpt lat="43.214013395061045" lon="10.732549027683218"><ele>215.5</ele><time>2026-04-25T15:30:29Z</time></trkpt><trkpt lat="43.21408912404071" lon="10.732403538051837"><ele>214.25</ele><time>2026-04-25T15:30:30Z</time></trkpt><trkpt lat="43.21414959246629" lon="10.732259632272383"><ele>213.0</ele><time>2026-04-25T15:30:31Z</time></trkpt><trkpt lat="43.21421511389095" lon="10.732136830693777"><ele>213.0</ele><time>2026-04-25T15:30:32Z</time></trkpt><trkpt lat="43.214277078408905" lon="10.73201657687815"><ele>213.0</ele><time>2026-04-25T15:30:33Z</time></trkpt><trkpt lat="43.21434822668179" lon="10.731911522087584"><ele>213.0</ele><time>2026-04-25T15:30:34Z</time></trkpt><trkpt lat="43.21442605407919" lon="10.731821517989362"><ele>213.0</ele><time>2026-04-25T15:30:35Z</time></trkpt><trkpt lat="43.214517883527236" lon="10.731745533889105"><ele>213.0</ele><time>2026-04-25T15:30:36Z</time></trkpt><trkpt lat="43.21463125719312" lon="10.731689906720604"><ele>211.0</ele><time>2026-04-25T15:30:37Z</time></trkpt><trkpt lat="43.21474521508099" lon="10.731650435918425"><ele>209.0</ele><time>2026-04-25T15:30:38Z</time></trkpt><trkpt lat="43.21486517373081" lon="10.731607165304359"><ele>207.0</ele><time>2026-04-25T15:30:39Z</time></trkpt><trkpt lat="43.21497790351177" lon="10.731565468621303"><ele>205.0</ele><time>2026-04-25T15:30:40Z</time></trkpt><trkpt lat="43.21508574740546" lon="10.731522696482097"><ele>205.0</ele><time>2026-04-25T15:30:41Z</time></trkpt><trkpt lat="43.215191552791296" lon="10.731481120886952"><ele>205.0</ele><time>2026-04-25T15:30:42Z</time></trkpt><trkpt lat="43.21529136162411" lon="10.73147108102616"><ele>205.0</ele><time>2026-04-25T15:30:43Z</time></trkpt><trkpt lat="43.215386316057824" lon="10.731484762059567"><ele>205.0</ele><time>2026-04-25T15:30:44Z</time></trkpt><trkpt lat="43.21547298501546" lon="10.73153159932208"><ele>205.0</ele><time>2026-04-25T15:30:45Z</time></trkpt><trkpt lat="43.21554709287923" lon="10.731607564297542"><ele>205.0</ele><time>2026-04-25T15:30:46Z</time></trkpt><trkpt lat="43.21560455648231" lon="10.73170903515379"><ele>205.0</ele><time>2026-04-25T15:30:47Z</time></trkpt><trkpt lat="43.21565487856783" lon="10.731826841339114"><ele>205.0</ele><time>2026-04-25T15:30:48Z</time></trkpt><trkpt lat="43.21570474656955" lon="10.73193617497775"><ele>205.0</ele><time>2026-04-25T15:30:49Z</time></trkpt><trkpt lat="43.215757098627954" lon="10.73203696100353"><ele>205.0</ele><time>2026-04-25T15:30:50Z</time></trkpt><trkpt lat="43.21582234571437" lon="10.732117097879128"><ele>204.99999999999997</ele><time>2026-04-25T15:30:51Z</time></trkpt><trkpt lat="43.21590517287599" lon="10.732179802331373"><ele>205.0</ele><time>2026-04-25T15:30:52Z</time></trkpt><trkpt lat="43.215988072742036" lon="10.732243147882656"><ele>205.0</ele><time>2026-04-25T15:30:53Z</time></trkpt><trkpt lat="43.216055383278245" lon="10.732234371184353"><ele>205.0</ele><time>2026-04-25T15:30:54Z</time></trkpt><trkpt lat="43.21612443359264" lon="10.732245206395271"><ele>204.99999999999997</ele><time>2026-04-25T15:30:55Z</time></trkpt><trkpt lat="43.21620330199677" lon="10.732246462198788"><ele>205.0</ele><time>2026-04-25T15:30:56Z</time></trkpt><trkpt lat="43.21629151782017" lon="10.732235588188168"><ele>205.0</ele><time>2026-04-25T15:30:57Z</time></trkpt><trkpt lat="43.216387582879456" lon="10.732220582204757"><ele>205.0</ele><time>2026-04-25T15:30:58Z</time></trkpt><trkpt lat="43.21649310392433" lon="10.732190135915753"><ele>205.0</ele><time>2026-04-25T15:30:59Z</time></trkpt><trkpt lat="43.21660026483979" lon="10.732160724490218"><ele>205.0</ele><time>2026-04-25T15:31:00Z</time></trkpt><trkpt lat="43.216688561580085" lon="10.73213316236521"><ele>205.0</ele><time>2026-04-25T15:31:01Z</time></trkpt><trkpt lat="43.216776042186545" lon="10.732105014193403"><ele>205.83333333333331</ele><time>2026-04-25T15:31:02Z</time></trkpt><trkpt lat="43.21685601692832" lon="10.732083387534807"><ele>206.66666666666666</ele><time>2026-04-25T15:31:03Z</time></trkpt><trkpt lat="43.216926206699135" lon="10.732076470890622"><ele>207.5</ele><time>2026-04-25T15:31:04Z</time></trkpt><trkpt lat="43.216994382111764" lon="10.73208220119752"><ele>208.33333333333331</ele><time>2026-04-25T15:31:05Z</time></trkpt><trkpt lat="43.21707267687135" lon="10.73210260731968"><ele>209.16666666666666</ele><time>2026-04-25T15:31:06Z</time></trkpt><trkpt lat="43.21715862520802" lon="10.732154596469373"><ele>210.0</ele><time>2026-04-25T15:31:07Z</time></trkpt><trkpt lat="43.21724777345282" lon="10.732220498415064"><ele>208.2</ele><time>2026-04-25T15:31:08Z</time></trkpt><trkpt lat="43.21733831435986" lon="10.732301577226522"><ele>206.4</ele><time>2026-04-25T15:31:09Z</time></trkpt><trkpt lat="43.21741170685927" lon="10.732399341011526"><ele>204.60000000000002</ele><time>2026-04-25T15:31:10Z</time></trkpt><trkpt lat="43.21747735848394" lon="10.732508420671762"><ele>202.8</ele><time>2026-04-25T15:31:11Z</time></trkpt><trkpt lat="43.21752748449321" lon="10.732611708386209"><ele>201.0</ele><time>2026-04-25T15:31:12Z</time></trkpt><trkpt lat="43.217555790397334" lon="10.73271749120315"><ele>201.83333333333334</ele><time>2026-04-25T15:31:13Z</time></trkpt><trkpt lat="43.2175675599012" lon="10.732839660980106"><ele>202.66666666666669</ele><time>2026-04-25T15:31:14Z</time></trkpt><trkpt lat="43.217563866900726" lon="10.732977922734083"><ele>203.5</ele><time>2026-04-25T15:31:15Z</time></trkpt><trkpt lat="43.217553606859234" lon="10.73310258260456"><ele>204.33333333333334</ele><time>2026-04-25T15:31:16Z</time></trkpt><trkpt lat="43.21755253701906" lon="10.733214798374668"><ele>205.16666666666669</ele><time>2026-04-25T15:31:17Z</time></trkpt><trkpt lat="43.21756661744723" lon="10.733317627562053"><ele>206.0</ele><time>2026-04-25T15:31:18Z</time></trkpt><trkpt lat="43.217597833276244" lon="10.733406207675753"><ele>206.0</ele><time>2026-04-25T15:31:19Z</time></trkpt><trkpt lat="43.217651196559" lon="10.733485911840123"><ele>206.0</ele><time>2026-04-25T15:31:20Z</time></trkpt><trkpt lat="43.2177281111446" lon="10.733558055891793"><ele>206.0</ele><time>2026-04-25T15:31:21Z</time></trkpt><trkpt lat="43.217819862910275" lon="10.733617352706519"><ele>206.0</ele><time>2026-04-25T15:31:22Z</time></trkpt><trkpt lat="43.21791817281452" lon="10.733668726320074"><ele>206.0</ele><time>2026-04-25T15:31:23Z</time></trkpt><trkpt lat="43.21800189825051" lon="10.733741430791186"><ele>206.8</ele><time>2026-04-25T15:31:24Z</time></trkpt><trkpt lat="43.21807634515145" lon="10.733840886683419"><ele>207.60000000000002</ele><time>2026-04-25T15:31:25Z</time></trkpt><trkpt lat="43.218147881368246" lon="10.73395352626796"><ele>208.4</ele><time>2026-04-25T15:31:26Z</time></trkpt><trkpt lat="43.21822461293096" lon="10.734056763152102"><ele>209.2</ele><time>2026-04-25T15:31:27Z</time></trkpt><trkpt lat="43.21831359099339" lon="10.734143708995436"><ele>210.0</ele><time>2026-04-25T15:31:28Z</time></trkpt><trkpt lat="43.21841525418629" lon="10.734223589622324"><ele>210.2</ele><time>2026-04-25T15:31:29Z</time></trkpt><trkpt lat="43.21851501869961" lon="10.734303437931779"><ele>210.4</ele><time>2026-04-25T15:31:30Z</time></trkpt><trkpt lat="43.21861187882045" lon="10.734360721243235"><ele>210.60000000000002</ele><time>2026-04-25T15:31:31Z</time></trkpt><trkpt lat="43.21871663556718" lon="10.734398825951263"><ele>210.8</ele><time>2026-04-25T15:31:32Z</time></trkpt><trkpt lat="43.218830244522906" lon="10.734430518457792"><ele>211.0</ele><time>2026-04-25T15:31:33Z</time></trkpt><trkpt lat="43.21894809180472" lon="10.734464354036115"><ele>208.75</ele><time>2026-04-25T15:31:34Z</time></trkpt><trkpt lat="43.219078483768016" lon="10.734497417644613"><ele>206.5</ele><time>2026-04-25T15:31:35Z</time></trkpt><trkpt lat="43.21920821164819" lon="10.73452343571102"><ele>204.25</ele><time>2026-04-25T15:31:36Z</time></trkpt><trkpt lat="43.21933108551465" lon="10.734549148828911"><ele>202.0</ele><time>2026-04-25T15:31:37Z</time></trkpt><trkpt lat="43.21945109559237" lon="10.734579302885907"><ele>202.0</ele><time>2026-04-25T15:31:38Z</time></trkpt><trkpt lat="43.21956590025528" lon="10.734608855750952"><ele>202.0</ele><time>2026-04-25T15:31:39Z</time></trkpt><trkpt lat="43.2196758983331" lon="10.734644179441585"><ele>202.0</ele><time>2026-04-25T15:31:40Z</time></trkpt><trkpt lat="43.21977216203169" lon="10.734688947477693"><ele>202.0</ele><time>2026-04-25T15:31:41Z</time></trkpt><trkpt lat="43.219865627228174" lon="10.734757871834837"><ele>202.0</ele><time>2026-04-25T15:31:42Z</time></trkpt><trkpt lat="43.21994689201537" lon="10.734848658627717"><ele>200.8</ele><time>2026-04-25T15:31:43Z</time></trkpt><trkpt lat="43.22001429447883" lon="10.734961214839561"><ele>199.6</ele><time>2026-04-25T15:31:44Z</time></trkpt><trkpt lat="43.22006473965193" lon="10.735101544874587"><ele>198.4</ele><time>2026-04-25T15:31:45Z</time></trkpt><trkpt lat="43.22013789540833" lon="10.735224372233109"><ele>197.20000000000002</ele><time>2026-04-25T15:31:46Z</time></trkpt><trkpt lat="43.220193355010394" lon="10.735345667035789"><ele>196.0</ele><time>2026-04-25T15:31:47Z</time></trkpt><trkpt lat="43.22024533382299" lon="10.735438420732446"><ele>196.0</ele><time>2026-04-25T15:31:48Z</time></trkpt><trkpt lat="43.220294364627335" lon="10.735510098178946"><ele>196.0</ele><time>2026-04-25T15:31:49Z</time></trkpt><trkpt lat="43.22041068502465" lon="10.73555643817079"><ele>196.0</ele><time>2026-04-25T15:31:51Z</time></trkpt><trkpt lat="43.22047296431788" lon="10.735528699373303"><ele>196.0</ele><time>2026-04-25T15:31:52Z</time></trkpt><trkpt lat="43.22055133624228" lon="10.735367364808392"><ele>196.0</ele><time>2026-04-25T15:31:54Z</time></trkpt><trkpt lat="43.220565242414786" lon="10.735256901679731"><ele>195.8</ele><time>2026-04-25T15:31:55Z</time></trkpt><trkpt lat="43.22056365247177" lon="10.73514071686026"><ele>195.60000000000002</ele><time>2026-04-25T15:31:56Z</time></trkpt><trkpt lat="43.220582111093734" lon="10.735015276564676"><ele>195.4</ele><time>2026-04-25T15:31:57Z</time></trkpt><trkpt lat="43.22062211863793" lon="10.73488969619934"><ele>195.2</ele><time>2026-04-25T15:31:58Z</time></trkpt><trkpt lat="43.22066512596986" lon="10.734772445587495"><ele>195.0</ele><time>2026-04-25T15:31:59Z</time></trkpt><trkpt lat="43.22072042860604" lon="10.73464648160528"><ele>195.0</ele><time>2026-04-25T15:32:00Z</time></trkpt><trkpt lat="43.22075599044163" lon="10.734502727433785"><ele>195.0</ele><time>2026-04-25T15:32:01Z</time></trkpt><trkpt lat="43.22077628447261" lon="10.73435852259134"><ele>195.0</ele><time>2026-04-25T15:32:02Z</time></trkpt><trkpt lat="43.22079285079528" lon="10.7342124925951"><ele>195.0</ele><time>2026-04-25T15:32:03Z</time></trkpt><trkpt lat="43.22080521241421" lon="10.734074815777971"><ele>195.0</ele><time>2026-04-25T15:32:04Z</time></trkpt><trkpt lat="43.220816253008536" lon="10.733936807711572"><ele>194.0</ele><time>2026-04-25T15:32:05Z</time></trkpt><trkpt lat="43.22084246496357" lon="10.7338183980944"><ele>193.0</ele><time>2026-04-25T15:32:06Z</time></trkpt><trkpt lat="43.22087138120574" lon="10.733702986362653"><ele>192.0</ele><time>2026-04-25T15:32:07Z</time></trkpt><trkpt lat="43.220910121219326" lon="10.733612058452094"><ele>191.0</ele><time>2026-04-25T15:32:08Z</time></trkpt><trkpt lat="43.22096598302029" lon="10.733533074000935"><ele>190.0</ele><time>2026-04-25T15:32:09Z</time></trkpt><trkpt lat="43.22103993279771" lon="10.733452496886432"><ele>189.0</ele><time>2026-04-25T15:32:10Z</time></trkpt><trkpt lat="43.22112287226781" lon="10.733386231535615"><ele>187.5</ele><time>2026-04-25T15:32:11Z</time></trkpt><trkpt lat="43.221186820214946" lon="10.733331061799733"><ele>186.0</ele><time>2026-04-25T15:32:12Z</time></trkpt><trkpt lat="43.22126786566545" lon="10.733217587535071"><ele>184.5</ele><time>2026-04-25T15:32:14Z</time></trkpt><trkpt lat="43.22129587617911" lon="10.733134731208045"><ele>183.0</ele><time>2026-04-25T15:32:16Z</time></trkpt><trkpt lat="43.221305612428544" lon="10.733020468419944"><ele>181.5</ele><time>2026-04-25T15:32:42Z</time></trkpt><trkpt lat="43.221261378789855" lon="10.73291264053253"><ele>180.0</ele><time>2026-04-25T15:32:44Z</time></trkpt><trkpt lat="43.22120876718007" lon="10.73273559803093"><ele>179.0</ele><time>2026-04-25T15:32:46Z</time></trkpt><trkpt lat="43.22117600122811" lon="10.732635920319957"><ele>178.0</ele><time>2026-04-25T15:32:47Z</time></trkpt><trkpt lat="43.22113936529555" lon="10.732518222497692"><ele>177.0</ele><time>2026-04-25T15:32:48Z</time></trkpt><trkpt lat="43.221098486645026" lon="10.732389073836616"><ele>176.0</ele><time>2026-04-25T15:32:49Z</time></trkpt><trkpt lat="43.22105357801213" lon="10.732249585865056"><ele>175.0</ele><time>2026-04-25T15:32:50Z</time></trkpt><trkpt lat="43.22101705805654" lon="10.732122641343906"><ele>175.0</ele><time>2026-04-25T15:32:51Z</time></trkpt><trkpt lat="43.220984590177636" lon="10.731994242787232"><ele>175.0</ele><time>2026-04-25T15:32:52Z</time></trkpt><trkpt lat="43.2209530922517" lon="10.73186011911974"><ele>175.0</ele><time>2026-04-25T15:32:53Z</time></trkpt><trkpt lat="43.22092997839987" lon="10.731724618923607"><ele>175.0</ele><time>2026-04-25T15:32:54Z</time></trkpt><trkpt lat="43.22090972852438" lon="10.731581454238551"><ele>175.0</ele><time>2026-04-25T15:32:55Z</time></trkpt><trkpt lat="43.220900257325304" lon="10.731438954797753"><ele>175.0</ele><time>2026-04-25T15:32:56Z</time></trkpt><trkpt lat="43.22089125497811" lon="10.731292768644838"><ele>175.0</ele><time>2026-04-25T15:32:57Z</time></trkpt><trkpt lat="43.22089422369977" lon="10.731130994294036"><ele>175.0</ele><time>2026-04-25T15:32:58Z</time></trkpt><trkpt lat="43.22089411704096" lon="10.730975082643216"><ele>175.0</ele><time>2026-04-25T15:32:59Z</time></trkpt><trkpt lat="43.22089225933248" lon="10.730821861506165"><ele>174.5</ele><time>2026-04-25T15:33:00Z</time></trkpt><trkpt lat="43.22088247001209" lon="10.730680801054266"><ele>174.0</ele><time>2026-04-25T15:33:01Z</time></trkpt><trkpt lat="43.22087268264792" lon="10.730573166843639"><ele>173.5</ele><time>2026-04-25T15:33:02Z</time></trkpt><trkpt lat="43.220882417423056" lon="10.730476363635548"><ele>173.0</ele><time>2026-04-25T15:33:03Z</time></trkpt><trkpt lat="43.220906448922165" lon="10.730395069090783"><ele>172.5</ele><time>2026-04-25T15:33:04Z</time></trkpt><trkpt lat="43.22094583057551" lon="10.730322153276164"><ele>172.0</ele><time>2026-04-25T15:33:05Z</time></trkpt><trkpt lat="43.221002400885766" lon="10.730240863808138"><ele>170.8</ele><time>2026-04-25T15:33:06Z</time></trkpt><trkpt lat="43.22108374796484" lon="10.730172774382623"><ele>169.6</ele><time>2026-04-25T15:33:07Z</time></trkpt><trkpt lat="43.221178720666735" lon="10.730108219060957"><ele>168.4</ele><time>2026-04-25T15:33:08Z</time></trkpt><trkpt lat="43.221274743265546" lon="10.730043116639356"><ele>167.20000000000002</ele><time>2026-04-25T15:33:09Z</time></trkpt><trkpt lat="43.221370636081986" lon="10.72996854591823"><ele>166.0</ele><time>2026-04-25T15:33:10Z</time></trkpt><trkpt lat="43.22146420448978" lon="10.729879153243775"><ele>168.75</ele><time>2026-04-25T15:33:11Z</time></trkpt><trkpt lat="43.22155484135041" lon="10.729773223995487"><ele>171.5</ele><time>2026-04-25T15:33:12Z</time></trkpt><trkpt lat="43.22164021969683" lon="10.729662565136584"><ele>174.25</ele><time>2026-04-25T15:33:13Z</time></trkpt><trkpt lat="43.22172855803872" lon="10.729566475202699"><ele>177.0</ele><time>2026-04-25T15:33:14Z</time></trkpt><trkpt lat="43.22183157872229" lon="10.729482349620179"><ele>177.0</ele><time>2026-04-25T15:33:15Z</time></trkpt><trkpt lat="43.22193607446303" lon="10.729403457006564"><ele>177.0</ele><time>2026-04-25T15:33:16Z</time></trkpt><trkpt lat="43.22203417232912" lon="10.729331379949677"><ele>177.0</ele><time>2026-04-25T15:33:17Z</time></trkpt><trkpt lat="43.22211368428107" lon="10.72928116463514"><ele>177.0</ele><time>2026-04-25T15:33:18Z</time></trkpt><trkpt lat="43.222174469672005" lon="10.729222285845013"><ele>177.0</ele><time>2026-04-25T15:33:19Z</time></trkpt><trkpt lat="43.22223022471652" lon="10.729166729943596"><ele>175.83333333333334</ele><time>2026-04-25T15:33:20Z</time></trkpt><trkpt lat="43.222277638186185" lon="10.72907898933572"><ele>174.66666666666666</ele><time>2026-04-25T15:33:21Z</time></trkpt><trkpt lat="43.22231007284425" lon="10.728973461343458"><ele>173.5</ele><time>2026-04-25T15:33:22Z</time></trkpt><trkpt lat="43.222317771691316" lon="10.728838455379657"><ele>172.33333333333331</ele><time>2026-04-25T15:33:23Z</time></trkpt><trkpt lat="43.22231389836803" lon="10.728717968819506"><ele>171.16666666666666</ele><time>2026-04-25T15:33:24Z</time></trkpt><trkpt lat="43.222332910598986" lon="10.728599617678329"><ele>170.0</ele><time>2026-04-25T15:33:25Z</time></trkpt><trkpt lat="43.222368584261936" lon="10.728485611063972"><ele>167.8</ele><time>2026-04-25T15:33:26Z</time></trkpt><trkpt lat="43.222407561197365" lon="10.728382792089254"><ele>165.6</ele><time>2026-04-25T15:33:27Z</time></trkpt><trkpt lat="43.222469877181865" lon="10.728276163496101"><ele>163.4</ele><time>2026-04-25T15:33:28Z</time></trkpt><trkpt lat="43.2225340911129" lon="10.728184584911341"><ele>161.2</ele><time>2026-04-25T15:33:29Z</time></trkpt><trkpt lat="43.22261921153603" lon="10.728125526321511"><ele>159.0</ele><time>2026-04-25T15:33:30Z</time></trkpt><trkpt lat="43.222707535608556" lon="10.728037973714901"><ele>159.0</ele><time>2026-04-25T15:33:31Z</time></trkpt><trkpt lat="43.22279168859273" lon="10.727987634329468"><ele>159.0</ele><time>2026-04-25T15:33:32Z</time></trkpt><trkpt lat="43.222875612977035" lon="10.727926769795863"><ele>159.0</ele><time>2026-04-25T15:33:33Z</time></trkpt><trkpt lat="43.22294977552065" lon="10.727857480993759"><ele>159.0</ele><time>2026-04-25T15:33:34Z</time></trkpt><trkpt lat="43.223021961268564" lon="10.727758892200617"><ele>159.0</ele><time>2026-04-25T15:33:35Z</time></trkpt><trkpt lat="43.22308569730453" lon="10.727639460698677"><ele>158.6</ele><time>2026-04-25T15:33:36Z</time></trkpt><trkpt lat="43.223126934201844" lon="10.727503930926856"><ele>158.2</ele><time>2026-04-25T15:33:37Z</time></trkpt><trkpt lat="43.22316040143587" lon="10.72738505984309"><ele>157.79999999999998</ele><time>2026-04-25T15:33:38Z</time></trkpt><trkpt lat="43.22317202346612" lon="10.727283973348092"><ele>157.4</ele><time>2026-04-25T15:33:39Z</time></trkpt><trkpt lat="43.223164685240334" lon="10.72716383500133"><ele>157.0</ele><time>2026-04-25T15:33:40Z</time></trkpt><trkpt lat="43.22312101516467" lon="10.727054553742283"><ele>156.2</ele><time>2026-04-25T15:33:41Z</time></trkpt><trkpt lat="43.22307776485943" lon="10.726947503534321"><ele>155.39999999999998</ele><time>2026-04-25T15:33:42Z</time></trkpt><trkpt lat="43.223019717017856" lon="10.726843160766915"><ele>154.60000000000002</ele><time>2026-04-25T15:33:43Z</time></trkpt><trkpt lat="43.222973226384084" lon="10.726723880941579"><ele>153.8</ele><time>2026-04-25T15:33:44Z</time></trkpt><trkpt lat="43.22294610838342" lon="10.726590457451803"><ele>153.0</ele><time>2026-04-25T15:33:45Z</time></trkpt><trkpt lat="43.22292762625886" lon="10.726446549346056"><ele>151.20000000000002</ele><time>2026-04-25T15:33:46Z</time></trkpt><trkpt lat="43.22290882383102" lon="10.726310743189694"><ele>149.4</ele><time>2026-04-25T15:33:47Z</time></trkpt><trkpt lat="43.22289075920709" lon="10.726178636191996"><ele>147.60000000000002</ele><time>2026-04-25T15:33:48Z</time></trkpt><trkpt lat="43.22287681300683" lon="10.726046780606834"><ele>145.8</ele><time>2026-04-25T15:33:49Z</time></trkpt><trkpt lat="43.222872103776055" lon="10.72591855784917"><ele>144.0</ele><time>2026-04-25T15:33:50Z</time></trkpt><trkpt lat="43.22289234919048" lon="10.725791314124319"><ele>142.16666666666666</ele><time>2026-04-25T15:33:51Z</time></trkpt><trkpt lat="43.2229429840913" lon="10.725672306947617"><ele>140.33333333333334</ele><time>2026-04-25T15:33:52Z</time></trkpt><trkpt lat="43.223006716285326" lon="10.725576258491925"><ele>138.5</ele><time>2026-04-25T15:33:53Z</time></trkpt><trkpt lat="43.223069351359705" lon="10.725494204711424"><ele>136.66666666666669</ele><time>2026-04-25T15:33:54Z</time></trkpt><trkpt lat="43.2231087675343" lon="10.725419660417929"><ele>134.83333333333334</ele><time>2026-04-25T15:33:55Z</time></trkpt><trkpt lat="43.22313023951121" lon="10.725338339562507"><ele>133.0</ele><time>2026-04-25T15:33:56Z</time></trkpt><trkpt lat="43.22313105082302" lon="10.725241428496759"><ele>133.28571428571428</ele><time>2026-04-25T15:33:57Z</time></trkpt><trkpt lat="43.223112225169174" lon="10.725149373065832"><ele>133.57142857142856</ele><time>2026-04-25T15:33:58Z</time></trkpt><trkpt lat="43.22308388096477" lon="10.725060206255996"><ele>133.85714285714286</ele><time>2026-04-25T15:33:59Z</time></trkpt><trkpt lat="43.223067215503605" lon="10.724973068677805"><ele>134.14285714285714</ele><time>2026-04-25T15:34:00Z</time></trkpt><trkpt lat="43.22308831035553" lon="10.724877755611802"><ele>134.42857142857142</ele><time>2026-04-25T15:34:01Z</time></trkpt><trkpt lat="43.22314111070019" lon="10.724807405085699"><ele>134.71428571428572</ele><time>2026-04-25T15:34:02Z</time></trkpt><trkpt lat="43.223211437935355" lon="10.724773531550815"><ele>135.0</ele><time>2026-04-25T15:34:03Z</time></trkpt><trkpt lat="43.22328077090531" lon="10.724783466309372"><ele>135.0</ele><time>2026-04-25T15:34:04Z</time></trkpt><trkpt lat="43.22333829256632" lon="10.724852203190895"><ele>135.0</ele><time>2026-04-25T15:34:05Z</time></trkpt><trkpt lat="43.22340580020898" lon="10.72490857690854"><ele>135.0</ele><time>2026-04-25T15:34:06Z</time></trkpt><trkpt lat="43.223480222153796" lon="10.724909974773194"><ele>135.0</ele><time>2026-04-25T15:34:07Z</time></trkpt><trkpt lat="43.22355363380201" lon="10.724901480307727"><ele>135.0</ele><time>2026-04-25T15:34:08Z</time></trkpt><trkpt lat="43.223628064352866" lon="10.724858649124716"><ele>135.0</ele><time>2026-04-25T15:34:09Z</time></trkpt><trkpt lat="43.223692802544235" lon="10.72479616636066"><ele>135.0</ele><time>2026-04-25T15:34:10Z</time></trkpt><trkpt lat="43.22374852333471" lon="10.724728479783334"><ele>135.0</ele><time>2026-04-25T15:34:11Z</time></trkpt><trkpt lat="43.223859545258" lon="10.724676657511427"><ele>135.0</ele><time>2026-04-25T15:34:13Z</time></trkpt><trkpt lat="43.223923208322574" lon="10.724689127867506"><ele>135.0</ele><time>2026-04-25T15:34:14Z</time></trkpt><trkpt lat="43.22397968556557" lon="10.724737388692288"><ele>135.0</ele><time>2026-04-25T15:34:15Z</time></trkpt><trkpt lat="43.22403092198261" lon="10.72479060580379"><ele>135.0</ele><time>2026-04-25T15:34:16Z</time></trkpt><trkpt lat="43.22413592595566" lon="10.724803761518345"><ele>135.0</ele><time>2026-04-25T15:34:18Z</time></trkpt><trkpt lat="43.22421458922798" lon="10.724696422365081"><ele>135.0</ele><time>2026-04-25T15:34:20Z</time></trkpt><trkpt lat="43.22423460049021" lon="10.724603481169941"><ele>135.0</ele><time>2026-04-25T15:34:21Z</time></trkpt><trkpt lat="43.22423740671518" lon="10.724501754932147"><ele>135.0</ele><time>2026-04-25T15:34:22Z</time></trkpt><trkpt lat="43.22423430723489" lon="10.724389633830274"><ele>135.0</ele><time>2026-04-25T15:34:23Z</time></trkpt><trkpt lat="43.2242223713165" lon="10.72427160388642"><ele>135.0</ele><time>2026-04-25T15:34:24Z</time></trkpt><trkpt lat="43.224223695052466" lon="10.724150978625074"><ele>133.0</ele><time>2026-04-25T15:34:25Z</time></trkpt><trkpt lat="43.2242370680725" lon="10.724020296200042"><ele>131.0</ele><time>2026-04-25T15:34:26Z</time></trkpt><trkpt lat="43.224271002916666" lon="10.723905217339993"><ele>129.0</ele><time>2026-04-25T15:34:27Z</time></trkpt><trkpt lat="43.22431885752444" lon="10.723794666747981"><ele>127.0</ele><time>2026-04-25T15:34:28Z</time></trkpt><trkpt lat="43.22437818785367" lon="10.723680299463911"><ele>125.0</ele><time>2026-04-25T15:34:29Z</time></trkpt><trkpt lat="43.2244465482817" lon="10.723563145242776"><ele>125.0</ele><time>2026-04-25T15:34:30Z</time></trkpt><trkpt lat="43.22452823479759" lon="10.723463538450451"><ele>125.0</ele><time>2026-04-25T15:34:31Z</time></trkpt><trkpt lat="43.224605526377026" lon="10.723369185584724"><ele>125.0</ele><time>2026-04-25T15:34:32Z</time></trkpt><trkpt lat="43.224681051166996" lon="10.723279869337862"><ele>125.0</ele><time>2026-04-25T15:34:33Z</time></trkpt><trkpt lat="43.22475453050875" lon="10.723194232865543"><ele>125.0</ele><time>2026-04-25T15:34:34Z</time></trkpt><trkpt lat="43.22482912945568" lon="10.723115977596189"><ele>125.0</ele><time>2026-04-25T15:34:35Z</time></trkpt><trkpt lat="43.22491362201978" lon="10.723063575147313"><ele>125.0</ele><time>2026-04-25T15:34:36Z</time></trkpt><trkpt lat="43.22500533785464" lon="10.72301408133777"><ele>125.0</ele><time>2026-04-25T15:34:37Z</time></trkpt><trkpt lat="43.22510515252863" lon="10.722975884469024"><ele>125.0</ele><time>2026-04-25T15:34:38Z</time></trkpt><trkpt lat="43.225208028627094" lon="10.722933749980198"><ele>125.0</ele><time>2026-04-25T15:34:39Z</time></trkpt><trkpt lat="43.22531516451338" lon="10.722888983195878"><ele>125.0</ele><time>2026-04-25T15:34:40Z</time></trkpt><trkpt lat="43.22542202031079" lon="10.7228595774424"><ele>125.0</ele><time>2026-04-25T15:34:41Z</time></trkpt><trkpt lat="43.225521043780425" lon="10.722819325751354"><ele>125.0</ele><time>2026-04-25T15:34:42Z</time></trkpt><trkpt lat="43.22561897450657" lon="10.722772287907365"><ele>125.0</ele><time>2026-04-25T15:34:43Z</time></trkpt><trkpt lat="43.22571558097273" lon="10.722718177353919"><ele>125.0</ele><time>2026-04-25T15:34:44Z</time></trkpt><trkpt lat="43.22581228830933" lon="10.722643354709213"><ele>123.25</ele><time>2026-04-25T15:34:45Z</time></trkpt><trkpt lat="43.22590317238676" lon="10.722554161863991"><ele>121.5</ele><time>2026-04-25T15:34:46Z</time></trkpt><trkpt lat="43.22599302280474" lon="10.722456027692711"><ele>119.75</ele><time>2026-04-25T15:34:47Z</time></trkpt><trkpt lat="43.22607736095944" lon="10.72234231402143"><ele>118.0</ele><time>2026-04-25T15:34:48Z</time></trkpt><trkpt lat="43.226163807823916" lon="10.722220776159254"><ele>118.0</ele><time>2026-04-25T15:34:49Z</time></trkpt><trkpt lat="43.22625307390068" lon="10.722101604817325"><ele>118.0</ele><time>2026-04-25T15:34:50Z</time></trkpt><trkpt lat="43.22633860782258" lon="10.721991445608278"><ele>118.0</ele><time>2026-04-25T15:34:51Z</time></trkpt><trkpt lat="43.226423025243804" lon="10.721883728019714"><ele>118.0</ele><time>2026-04-25T15:34:52Z</time></trkpt><trkpt lat="43.22650717338801" lon="10.72177909023466"><ele>118.60000000000001</ele><time>2026-04-25T15:34:53Z</time></trkpt><trkpt lat="43.226584805757" lon="10.721679936816978"><ele>119.20000000000002</ele><time>2026-04-25T15:34:54Z</time></trkpt><trkpt lat="43.22665479171559" lon="10.721592970185101"><ele>119.8</ele><time>2026-04-25T15:34:55Z</time></trkpt><trkpt lat="43.22671408846434" lon="10.72150216898781"><ele>120.4</ele><time>2026-04-25T15:34:56Z</time></trkpt><trkpt lat="43.226756470258294" lon="10.72138942446557"><ele>121.0</ele><time>2026-04-25T15:34:57Z</time></trkpt><trkpt lat="43.22678152328157" lon="10.72126344146193"><ele>121.0</ele><time>2026-04-25T15:34:58Z</time></trkpt><trkpt lat="43.2267846505967" lon="10.72112762589294"><ele>121.0</ele><time>2026-04-25T15:34:59Z</time></trkpt><trkpt lat="43.22676958373626" lon="10.720992017569781"><ele>121.0</ele><time>2026-04-25T15:35:00Z</time></trkpt><trkpt lat="43.226741062803306" lon="10.720854805953875"><ele>121.0</ele><time>2026-04-25T15:35:01Z</time></trkpt><trkpt lat="43.22670934972778" lon="10.720717441042279"><ele>121.0</ele><time>2026-04-25T15:35:02Z</time></trkpt><trkpt lat="43.226683488221184" lon="10.720599456912062"><ele>120.00000000000001</ele><time>2026-04-25T15:35:03Z</time></trkpt><trkpt lat="43.22665774676577" lon="10.720491141140545"><ele>119.0</ele><time>2026-04-25T15:35:04Z</time></trkpt><trkpt lat="43.22664777174783" lon="10.720385396977477"><ele>118.0</ele><time>2026-04-25T15:35:05Z</time></trkpt><trkpt lat="43.226663904874584" lon="10.720283244324163"><ele>117.0</ele><time>2026-04-25T15:35:06Z</time></trkpt><trkpt lat="43.22670033989738" lon="10.720186565349142"><ele>116.00000000000001</ele><time>2026-04-25T15:35:07Z</time></trkpt><trkpt lat="43.226756306967694" lon="10.720102472746666"><ele>115.0</ele><time>2026-04-25T15:35:08Z</time></trkpt><trkpt lat="43.2268285780553" lon="10.72002343866815"><ele>113.8</ele><time>2026-04-25T15:35:09Z</time></trkpt><trkpt lat="43.2269010187305" lon="10.719961566230923"><ele>112.6</ele><time>2026-04-25T15:35:10Z</time></trkpt><trkpt lat="43.22698051456298" lon="10.719918538381469"><ele>111.4</ele><time>2026-04-25T15:35:11Z</time></trkpt><trkpt lat="43.22707002704319" lon="10.71989931333669"><ele>110.2</ele><time>2026-04-25T15:35:12Z</time></trkpt><trkpt lat="43.22716474547582" lon="10.719907184284654"><ele>109.0</ele><time>2026-04-25T15:35:13Z</time></trkpt><trkpt lat="43.22725571408803" lon="10.71995436673882"><ele>109.50000000000001</ele><time>2026-04-25T15:35:14Z</time></trkpt><trkpt lat="43.22734732495859" lon="10.719961668363796"><ele>110.0</ele><time>2026-04-25T15:35:15Z</time></trkpt><trkpt lat="43.22743011367187" lon="10.71997622257932"><ele>110.5</ele><time>2026-04-25T15:35:16Z</time></trkpt><trkpt lat="43.227506958738424" lon="10.71995769356987"><ele>111.0</ele><time>2026-04-25T15:35:17Z</time></trkpt><trkpt lat="43.22757569336502" lon="10.719918262409262"><ele>111.50000000000001</ele><time>2026-04-25T15:35:18Z</time></trkpt><trkpt lat="43.227640382137814" lon="10.719859290735657"><ele>112.0</ele><time>2026-04-25T15:35:19Z</time></trkpt><trkpt lat="43.22769638889396" lon="10.719793977090237"><ele>112.00000000000001</ele><time>2026-04-25T15:35:20Z</time></trkpt><trkpt lat="43.22777135871011" lon="10.719690617217726"><ele>112.0</ele><time>2026-04-25T15:35:22Z</time></trkpt><trkpt lat="43.22783861520673" lon="10.719589918378988"><ele>112.0</ele><time>2026-04-25T15:35:24Z</time></trkpt><trkpt lat="43.227878989376656" lon="10.719521490101542"><ele>112.0</ele><time>2026-04-25T15:35:25Z</time></trkpt><trkpt lat="43.22792434734437" lon="10.719448998879274"><ele>112.00000000000001</ele><time>2026-04-25T15:35:26Z</time></trkpt><trkpt lat="43.22797673631765" lon="10.719378085395434"><ele>112.0</ele><time>2026-04-25T15:35:27Z</time></trkpt><trkpt lat="43.228050708069475" lon="10.71933140314243"><ele>112.6</ele><time>2026-04-25T15:35:28Z</time></trkpt><trkpt lat="43.228131471964794" lon="10.719310532417778"><ele>113.19999999999999</ele><time>2026-04-25T15:35:29Z</time></trkpt><trkpt lat="43.22821779831033" lon="10.71933337032644"><ele>113.8</ele><time>2026-04-25T15:35:30Z</time></trkpt><trkpt lat="43.228312942068705" lon="10.719361312393175"><ele>114.4</ele><time>2026-04-25T15:35:31Z</time></trkpt><trkpt lat="43.22841851582312" lon="10.719403339324478"><ele>115.0</ele><time>2026-04-25T15:35:32Z</time></trkpt><trkpt lat="43.22853411365773" lon="10.719451865330372"><ele>113.5</ele><time>2026-04-25T15:35:33Z</time></trkpt><trkpt lat="43.228654375422316" lon="10.719502733927339"><ele>112.0</ele><time>2026-04-25T15:35:34Z</time></trkpt><trkpt lat="43.228778476743116" lon="10.719555015103476"><ele>110.5</ele><time>2026-04-25T15:35:35Z</time></trkpt><trkpt lat="43.22890399289572" lon="10.719609915188805"><ele>109.0</ele><time>2026-04-25T15:35:36Z</time></trkpt><trkpt lat="43.22903291181476" lon="10.71966656163882"><ele>108.25</ele><time>2026-04-25T15:35:37Z</time></trkpt><trkpt lat="43.2291693363974" lon="10.719725238245289"><ele>107.5</ele><time>2026-04-25T15:35:38Z</time></trkpt><trkpt lat="43.2293011736561" lon="10.719779295163757"><ele>106.75</ele><time>2026-04-25T15:35:39Z</time></trkpt><trkpt lat="43.229435698218666" lon="10.719821994777119"><ele>106.0</ele><time>2026-04-25T15:35:40Z</time></trkpt><trkpt lat="43.22956740575356" lon="10.719856009887122"><ele>106.0</ele><time>2026-04-25T15:35:41Z</time></trkpt><trkpt lat="43.22969731175328" lon="10.719884982621783"><ele>106.0</ele><time>2026-04-25T15:35:42Z</time></trkpt><trkpt lat="43.22982469701221" lon="10.719912711371347"><ele>106.0</ele><time>2026-04-25T15:35:43Z</time></trkpt><trkpt lat="43.22995805140783" lon="10.719949463314851"><ele>106.0</ele><time>2026-04-25T15:35:44Z</time></trkpt><trkpt lat="43.23008366178616" lon="10.719978721770685"><ele>106.5</ele><time>2026-04-25T15:35:45Z</time></trkpt><trkpt lat="43.230205729751646" lon="10.72000147723763"><ele>107.0</ele><time>2026-04-25T15:35:46Z</time></trkpt><trkpt lat="43.23032885282502" lon="10.720031032371933"><ele>107.5</ele><time>2026-04-25T15:35:47Z</time></trkpt><trkpt lat="43.230454964988134" lon="10.72005442471563"><ele>108.0</ele><time>2026-04-25T15:35:48Z</time></trkpt><trkpt lat="43.230579857894114" lon="10.720096419382726"><ele>107.75</ele><time>2026-04-25T15:35:49Z</time></trkpt><trkpt lat="43.230691894184474" lon="10.720130094990683"><ele>107.5</ele><time>2026-04-25T15:35:50Z</time></trkpt><trkpt lat="43.23081766555597" lon="10.720162844695862"><ele>107.25</ele><time>2026-04-25T15:35:51Z</time></trkpt><trkpt lat="43.23094919621965" lon="10.720193534415435"><ele>107.0</ele><time>2026-04-25T15:35:52Z</time></trkpt><trkpt lat="43.23108151145289" lon="10.720220517130077"><ele>107.5</ele><time>2026-04-25T15:35:53Z</time></trkpt><trkpt lat="43.23121060322025" lon="10.720247107678551"><ele>108.0</ele><time>2026-04-25T15:35:54Z</time></trkpt><trkpt lat="43.23133905630707" lon="10.72026580284524"><ele>108.5</ele><time>2026-04-25T15:35:55Z</time></trkpt><trkpt lat="43.2314762021499" lon="10.720288807110942"><ele>109.0</ele><time>2026-04-25T15:35:56Z</time></trkpt><trkpt lat="43.231601838600085" lon="10.720313252117581"><ele>107.5</ele><time>2026-04-25T15:35:57Z</time></trkpt><trkpt lat="43.23173316484276" lon="10.720323920734163"><ele>106.0</ele><time>2026-04-25T15:35:58Z</time></trkpt><trkpt lat="43.23186062598598" lon="10.720324489247918"><ele>104.5</ele><time>2026-04-25T15:35:59Z</time></trkpt><trkpt lat="43.23199242996932" lon="10.720321202734752"><ele>103.0</ele><time>2026-04-25T15:36:00Z</time></trkpt><trkpt lat="43.23211935328066" lon="10.72028700174882"><ele>103.0</ele><time>2026-04-25T15:36:01Z</time></trkpt><trkpt lat="43.23225150510386" lon="10.720262926633144"><ele>103.0</ele><time>2026-04-25T15:36:02Z</time></trkpt><trkpt lat="43.23238262535898" lon="10.720226155295213"><ele>103.0</ele><time>2026-04-25T15:36:03Z</time></trkpt><trkpt lat="43.23251577478283" lon="10.720178954163579"><ele>103.0</ele><time>2026-04-25T15:36:04Z</time></trkpt><trkpt lat="43.23265024209401" lon="10.720132711545926"><ele>103.25</ele><time>2026-04-25T15:36:05Z</time></trkpt><trkpt lat="43.23278680837419" lon="10.72008528265479"><ele>103.5</ele><time>2026-04-25T15:36:06Z</time></trkpt><trkpt lat="43.23292551077742" lon="10.720034219224672"><ele>103.75</ele><time>2026-04-25T15:36:07Z</time></trkpt><trkpt lat="43.2330650922632" lon="10.719984343669983"><ele>104.0</ele><time>2026-04-25T15:36:08Z</time></trkpt><trkpt lat="43.23320512734596" lon="10.719934261557103"><ele>102.75</ele><time>2026-04-25T15:36:09Z</time></trkpt><trkpt lat="43.23334505053733" lon="10.719867406336965"><ele>101.5</ele><time>2026-04-25T15:36:10Z</time></trkpt><trkpt lat="43.233477087118196" lon="10.719784210610875"><ele>100.25</ele><time>2026-04-25T15:36:11Z</time></trkpt><trkpt lat="43.233607785297714" lon="10.719689544913717"><ele>99.0</ele><time>2026-04-25T15:36:12Z</time></trkpt><trkpt lat="43.23373171183131" lon="10.719587010500582"><ele>99.0</ele><time>2026-04-25T15:36:13Z</time></trkpt><trkpt lat="43.23385320141672" lon="10.719480732148979"><ele>99.0</ele><time>2026-04-25T15:36:14Z</time></trkpt><trkpt lat="43.233971535236584" lon="10.7193692305877"><ele>99.0</ele><time>2026-04-25T15:36:15Z</time></trkpt><trkpt lat="43.2340914955282" lon="10.719253574852885"><ele>99.0</ele><time>2026-04-25T15:36:16Z</time></trkpt><trkpt lat="43.234217899903676" lon="10.719135431284188"><ele>98.0</ele><time>2026-04-25T15:36:17Z</time></trkpt><trkpt lat="43.23434672417106" lon="10.719019987859172"><ele>97.0</ele><time>2026-04-25T15:36:18Z</time></trkpt><trkpt lat="43.23447246779672" lon="10.71890212745786"><ele>96.0</ele><time>2026-04-25T15:36:19Z</time></trkpt><trkpt lat="43.23459313654785" lon="10.718787661389863"><ele>96.0</ele><time>2026-04-25T15:36:20Z</time></trkpt><trkpt lat="43.234715609056074" lon="10.71867546000366"><ele>96.0</ele><time>2026-04-25T15:36:21Z</time></trkpt><trkpt lat="43.234837294953394" lon="10.718561847700865"><ele>96.0</ele><time>2026-04-25T15:36:22Z</time></trkpt><trkpt lat="43.23495943697199" lon="10.718444617147567"><ele>96.0</ele><time>2026-04-25T15:36:23Z</time></trkpt><trkpt lat="43.23508623135695" lon="10.718323909974389"><ele>96.0</ele><time>2026-04-25T15:36:24Z</time></trkpt><trkpt lat="43.235215524977676" lon="10.71820438979901"><ele>96.0</ele><time>2026-04-25T15:36:25Z</time></trkpt><trkpt lat="43.23534445671789" lon="10.718079831178386"><ele>96.0</ele><time>2026-04-25T15:36:26Z</time></trkpt><trkpt lat="43.2354769022984" lon="10.717954681560242"><ele>96.0</ele><time>2026-04-25T15:36:27Z</time></trkpt><trkpt lat="43.23559926363706" lon="10.717841767644519"><ele>96.0</ele><time>2026-04-25T15:36:28Z</time></trkpt><trkpt lat="43.23572302771968" lon="10.717732434699865"><ele>96.0</ele><time>2026-04-25T15:36:29Z</time></trkpt><trkpt lat="43.23584563913284" lon="10.71762350649391"><ele>96.0</ele><time>2026-04-25T15:36:30Z</time></trkpt><trkpt lat="43.23596308267832" lon="10.71751650621981"><ele>96.5</ele><time>2026-04-25T15:36:31Z</time></trkpt><trkpt lat="43.236073496759545" lon="10.717412179132069"><ele>97.0</ele><time>2026-04-25T15:36:32Z</time></trkpt><trkpt lat="43.236190083839006" lon="10.7173063102642"><ele>97.5</ele><time>2026-04-25T15:36:33Z</time></trkpt><trkpt lat="43.23631196663372" lon="10.71721415177442"><ele>98.0</ele><time>2026-04-25T15:36:34Z</time></trkpt><trkpt lat="43.23643746105425" lon="10.717137652536323"><ele>97.0</ele><time>2026-04-25T15:36:35Z</time></trkpt><trkpt lat="43.2365689433511" lon="10.717077531028162"><ele>96.0</ele><time>2026-04-25T15:36:36Z</time></trkpt><trkpt lat="43.236707363914675" lon="10.71703176392633"><ele>95.0</ele><time>2026-04-25T15:36:37Z</time></trkpt><trkpt lat="43.2368496365921" lon="10.717004584185878"><ele>94.0</ele><time>2026-04-25T15:36:38Z</time></trkpt><trkpt lat="43.23699412470882" lon="10.716992906254449"><ele>94.0</ele><time>2026-04-25T15:36:39Z</time></trkpt><trkpt lat="43.23713934650152" lon="10.716984243586715"><ele>94.0</ele><time>2026-04-25T15:36:40Z</time></trkpt><trkpt lat="43.237268630546254" lon="10.716990860048277"><ele>94.0</ele><time>2026-04-25T15:36:41Z</time></trkpt><trkpt lat="43.237404611426626" lon="10.716996027814398"><ele>94.0</ele><time>2026-04-25T15:36:42Z</time></trkpt><trkpt lat="43.237543388881306" lon="10.717000699511985"><ele>93.75</ele><time>2026-04-25T15:36:43Z</time></trkpt><trkpt lat="43.237685380578014" lon="10.71700634536992"><ele>93.5</ele><time>2026-04-25T15:36:44Z</time></trkpt><trkpt lat="43.237831720072116" lon="10.71701712874958"><ele>93.25</ele><time>2026-04-25T15:36:45Z</time></trkpt><trkpt lat="43.23798436030568" lon="10.717025129636992"><ele>93.0</ele><time>2026-04-25T15:36:46Z</time></trkpt><trkpt lat="43.238138627731985" lon="10.71703284738067"><ele>93.0</ele><time>2026-04-25T15:36:47Z</time></trkpt><trkpt lat="43.23829082275671" lon="10.717040842174884"><ele>93.0</ele><time>2026-04-25T15:36:48Z</time></trkpt><trkpt lat="43.23844157810655" lon="10.717049406401499"><ele>93.0</ele><time>2026-04-25T15:36:49Z</time></trkpt><trkpt lat="43.23859633400251" lon="10.717058574753684"><ele>93.0</ele><time>2026-04-25T15:36:50Z</time></trkpt><trkpt lat="43.23875259655712" lon="10.717065860146073"><ele>93.0</ele><time>2026-04-25T15:36:51Z</time></trkpt><trkpt lat="43.23890111654754" lon="10.717062250946894"><ele>93.0</ele><time>2026-04-25T15:36:52Z</time></trkpt><trkpt lat="43.23904989618663" lon="10.717036652185818"><ele>92.66666666666667</ele><time>2026-04-25T15:36:53Z</time></trkpt><trkpt lat="43.23919695137503" lon="10.717004717757119"><ele>92.33333333333334</ele><time>2026-04-25T15:36:54Z</time></trkpt><trkpt lat="43.23934351371155" lon="10.716947564867574"><ele>92.0</ele><time>2026-04-25T15:36:55Z</time></trkpt><trkpt lat="43.239488072459515" lon="10.716872468549951"><ele>91.66666666666667</ele><time>2026-04-25T15:36:56Z</time></trkpt><trkpt lat="43.23962933414909" lon="10.71677830797174"><ele>91.33333333333333</ele><time>2026-04-25T15:36:57Z</time></trkpt><trkpt lat="43.23976904888905" lon="10.716662146651892"><ele>91.0</ele><time>2026-04-25T15:36:58Z</time></trkpt><trkpt lat="43.23990870049942" lon="10.716539301494437"><ele>91.0</ele><time>2026-04-25T15:36:59Z</time></trkpt><trkpt lat="43.24004762984365" lon="10.716408438415467"><ele>91.0</ele><time>2026-04-25T15:37:00Z</time></trkpt><trkpt lat="43.24018553231296" lon="10.716270957181422"><ele>91.0</ele><time>2026-04-25T15:37:01Z</time></trkpt><trkpt lat="43.24032340139321" lon="10.716140683012346"><ele>91.0</ele><time>2026-04-25T15:37:02Z</time></trkpt><trkpt lat="43.24045428103632" lon="10.716008031781337"><ele>91.0</ele><time>2026-04-25T15:37:03Z</time></trkpt><trkpt lat="43.240588950487464" lon="10.715872481913415"><ele>91.0</ele><time>2026-04-25T15:37:04Z</time></trkpt><trkpt lat="43.24072495910613" lon="10.715734330342546"><ele>91.0</ele><time>2026-04-25T15:37:05Z</time></trkpt><trkpt lat="43.24086086384862" lon="10.715602030599724"><ele>91.0</ele><time>2026-04-25T15:37:06Z</time></trkpt><trkpt lat="43.24099872205312" lon="10.715468344454342"><ele>91.0</ele><time>2026-04-25T15:37:07Z</time></trkpt><trkpt lat="43.241139576342334" lon="10.715335759447168"><ele>90.33333333333333</ele><time>2026-04-25T15:37:08Z</time></trkpt><trkpt lat="43.24128100906082" lon="10.715207303467205"><ele>89.66666666666667</ele><time>2026-04-25T15:37:09Z</time></trkpt><trkpt lat="43.24142063710767" lon="10.715089340872945"><ele>89.0</ele><time>2026-04-25T15:37:10Z</time></trkpt><trkpt lat="43.24155859479308" lon="10.71497847664908"><ele>89.0</ele><time>2026-04-25T15:37:11Z</time></trkpt><trkpt lat="43.2416991505899" lon="10.714870042546659"><ele>89.0</ele><time>2026-04-25T15:37:12Z</time></trkpt><trkpt lat="43.24184118227101" lon="10.714765499857656"><ele>89.0</ele><time>2026-04-25T15:37:13Z</time></trkpt><trkpt lat="43.24198096362096" lon="10.714661408960561"><ele>89.0</ele><time>2026-04-25T15:37:14Z</time></trkpt><trkpt lat="43.24212362330326" lon="10.714562910184128"><ele>89.0</ele><time>2026-04-25T15:37:15Z</time></trkpt><trkpt lat="43.24226685397476" lon="10.71446102629973"><ele>89.0</ele><time>2026-04-25T15:37:16Z</time></trkpt><trkpt lat="43.24240126460692" lon="10.714364958738011"><ele>88.25</ele><time>2026-04-25T15:37:17Z</time></trkpt><trkpt lat="43.242529655870115" lon="10.714276197040402"><ele>87.5</ele><time>2026-04-25T15:37:18Z</time></trkpt><trkpt lat="43.242648386936885" lon="10.714194736673132"><ele>86.75</ele><time>2026-04-25T15:37:19Z</time></trkpt><trkpt lat="43.242760961947944" lon="10.714117425115706"><ele>86.0</ele><time>2026-04-25T15:37:20Z</time></trkpt><trkpt lat="43.24286122089886" lon="10.714045859320185"><ele>86.0</ele><time>2026-04-25T15:37:21Z</time></trkpt><trkpt lat="43.24296096442343" lon="10.713979559411184"><ele>86.0</ele><time>2026-04-25T15:37:22Z</time></trkpt><trkpt lat="43.24305101539951" lon="10.71391979986453"><ele>86.0</ele><time>2026-04-25T15:37:23Z</time></trkpt><trkpt lat="43.243130199904186" lon="10.713867895809047"><ele>86.0</ele><time>2026-04-25T15:37:24Z</time></trkpt><trkpt lat="43.24320654894578" lon="10.713812965701507"><ele>86.0</ele><time>2026-04-25T15:37:25Z</time></trkpt><trkpt lat="43.24327873999773" lon="10.713764312863297"><ele>85.6</ele><time>2026-04-25T15:37:26Z</time></trkpt><trkpt lat="43.24333826292001" lon="10.713726873331339"><ele>85.19999999999999</ele><time>2026-04-25T15:37:27Z</time></trkpt><trkpt lat="43.243431255445586" lon="10.713680957663014"><ele>84.80000000000001</ele><time>2026-04-25T15:37:29Z</time></trkpt><trkpt lat="43.243537883866665" lon="10.713594698940698"><ele>84.4</ele><time>2026-04-25T15:38:18Z</time></trkpt><trkpt lat="43.243660960462236" lon="10.7134995813993"><ele>84.0</ele><time>2026-04-25T15:38:20Z</time></trkpt><trkpt lat="43.243743078280175" lon="10.713445721702833"><ele>84.0</ele><time>2026-04-25T15:38:21Z</time></trkpt><trkpt lat="43.24383060800107" lon="10.713379515827956"><ele>84.0</ele><time>2026-04-25T15:38:22Z</time></trkpt><trkpt lat="43.24392788813804" lon="10.71330817842125"><ele>84.0</ele><time>2026-04-25T15:38:23Z</time></trkpt><trkpt lat="43.24403110422494" lon="10.713239624372857"><ele>84.0</ele><time>2026-04-25T15:38:24Z</time></trkpt><trkpt lat="43.24413830699189" lon="10.713165490713612"><ele>84.0</ele><time>2026-04-25T15:38:25Z</time></trkpt><trkpt lat="43.24424255799164" lon="10.713087754032992"><ele>84.0</ele><time>2026-04-25T15:38:26Z</time></trkpt><trkpt lat="43.24433949509279" lon="10.713018743274692"><ele>84.0</ele><time>2026-04-25T15:38:27Z</time></trkpt><trkpt lat="43.24443581936059" lon="10.712951594095596"><ele>84.0</ele><time>2026-04-25T15:38:28Z</time></trkpt><trkpt lat="43.24454371920692" lon="10.712875518079755"><ele>84.0</ele><time>2026-04-25T15:38:29Z</time></trkpt><trkpt lat="43.24465650855903" lon="10.71280025396126"><ele>84.5</ele><time>2026-04-25T15:38:30Z</time></trkpt><trkpt lat="43.24477497036103" lon="10.712719856421398"><ele>85.0</ele><time>2026-04-25T15:38:31Z</time></trkpt><trkpt lat="43.244902794447306" lon="10.712638093448236"><ele>85.5</ele><time>2026-04-25T15:38:32Z</time></trkpt><trkpt lat="43.24502941420973" lon="10.712551332250218"><ele>86.0</ele><time>2026-04-25T15:38:33Z</time></trkpt><trkpt lat="43.245157897374014" lon="10.712458366197039"><ele>86.0</ele><time>2026-04-25T15:38:34Z</time></trkpt><trkpt lat="43.245288117409736" lon="10.712371972826917"><ele>86.0</ele><time>2026-04-25T15:38:35Z</time></trkpt><trkpt lat="43.24541645454942" lon="10.71228501566576"><ele>86.0</ele><time>2026-04-25T15:38:36Z</time></trkpt><trkpt lat="43.24554240974766" lon="10.712200283395154"><ele>86.0</ele><time>2026-04-25T15:38:37Z</time></trkpt><trkpt lat="43.24566415779082" lon="10.712111769679208"><ele>86.0</ele><time>2026-04-25T15:38:38Z</time></trkpt><trkpt lat="43.245781165366644" lon="10.712017848472577"><ele>86.0</ele><time>2026-04-25T15:38:39Z</time></trkpt><trkpt lat="43.24589585785875" lon="10.711914699880099"><ele>86.0</ele><time>2026-04-25T15:38:40Z</time></trkpt><trkpt lat="43.24600484491375" lon="10.711800257347884"><ele>86.0</ele><time>2026-04-25T15:38:41Z</time></trkpt><trkpt lat="43.24611334780315" lon="10.711675061117433"><ele>86.0</ele><time>2026-04-25T15:38:42Z</time></trkpt><trkpt lat="43.246214620056364" lon="10.71154434974761"><ele>86.0</ele><time>2026-04-25T15:38:43Z</time></trkpt><trkpt lat="43.246314369856" lon="10.711407277936354"><ele>86.0</ele><time>2026-04-25T15:38:44Z</time></trkpt><trkpt lat="43.24640878054049" lon="10.71126956605878"><ele>86.0</ele><time>2026-04-25T15:38:45Z</time></trkpt><trkpt lat="43.2465124265009" lon="10.71113080497452"><ele>85.75</ele><time>2026-04-25T15:38:46Z</time></trkpt><trkpt lat="43.24661729581393" lon="10.710992768150225"><ele>85.5</ele><time>2026-04-25T15:38:47Z</time></trkpt><trkpt lat="43.246717359923075" lon="10.710854105587408"><ele>85.25</ele><time>2026-04-25T15:38:48Z</time></trkpt><trkpt lat="43.24681249786414" lon="10.710713139356622"><ele>85.0</ele><time>2026-04-25T15:38:49Z</time></trkpt><trkpt lat="43.24691010545387" lon="10.710580276343924"><ele>85.0</ele><time>2026-04-25T15:38:50Z</time></trkpt><trkpt lat="43.247008314837515" lon="10.710443171105643"><ele>85.0</ele><time>2026-04-25T15:38:51Z</time></trkpt><trkpt lat="43.24710384914904" lon="10.710305987604507"><ele>85.0</ele><time>2026-04-25T15:38:52Z</time></trkpt><trkpt lat="43.24719835276981" lon="10.710175697787346"><ele>85.0</ele><time>2026-04-25T15:38:53Z</time></trkpt><trkpt lat="43.24729992835073" lon="10.710047270519249"><ele>84.75</ele><time>2026-04-25T15:38:54Z</time></trkpt><trkpt lat="43.247395639896126" lon="10.709917492176986"><ele>84.5</ele><time>2026-04-25T15:38:55Z</time></trkpt><trkpt lat="43.247494979102235" lon="10.70979693019096"><ele>84.25</ele><time>2026-04-25T15:38:56Z</time></trkpt><trkpt lat="43.24759926282483" lon="10.709684667482367"><ele>84.0</ele><time>2026-04-25T15:38:57Z</time></trkpt><trkpt lat="43.24771239768499" lon="10.709581455185708"><ele>84.0</ele><time>2026-04-25T15:38:58Z</time></trkpt><trkpt lat="43.24783229173092" lon="10.709491235323199"><ele>84.0</ele><time>2026-04-25T15:38:59Z</time></trkpt><trkpt lat="43.24795408439951" lon="10.709407154479674"><ele>84.0</ele><time>2026-04-25T15:39:00Z</time></trkpt><trkpt lat="43.24808209800322" lon="10.70933464038879"><ele>84.0</ele><time>2026-04-25T15:39:01Z</time></trkpt><trkpt lat="43.24821701306183" lon="10.709273172630422"><ele>83.0</ele><time>2026-04-25T15:39:02Z</time></trkpt><trkpt lat="43.24836116474468" lon="10.709225172796565"><ele>82.0</ele><time>2026-04-25T15:39:03Z</time></trkpt><trkpt lat="43.248510138812335" lon="10.709185557689954"><ele>81.0</ele><time>2026-04-25T15:39:04Z</time></trkpt><trkpt lat="43.24865930586145" lon="10.70914937143685"><ele>81.0</ele><time>2026-04-25T15:39:05Z</time></trkpt><trkpt lat="43.248810477150855" lon="10.709116792762307"><ele>81.0</ele><time>2026-04-25T15:39:06Z</time></trkpt><trkpt lat="43.24896500231904" lon="10.709081870214893"><ele>81.0</ele><time>2026-04-25T15:39:07Z</time></trkpt><trkpt lat="43.24912478182948" lon="10.709045085000179"><ele>81.0</ele><time>2026-04-25T15:39:08Z</time></trkpt><trkpt lat="43.24928690062131" lon="10.709029563755815"><ele>81.0</ele><time>2026-04-25T15:39:09Z</time></trkpt><trkpt lat="43.249445022022805" lon="10.708993022606206"><ele>81.0</ele><time>2026-04-25T15:39:10Z</time></trkpt><trkpt lat="43.249602995224194" lon="10.708957181135604"><ele>81.0</ele><time>2026-04-25T15:39:11Z</time></trkpt><trkpt lat="43.24975950124201" lon="10.708914790692718"><ele>81.0</ele><time>2026-04-25T15:39:12Z</time></trkpt><trkpt lat="43.24991548289687" lon="10.708875298253316"><ele>81.0</ele><time>2026-04-25T15:39:13Z</time></trkpt><trkpt lat="43.25007141505889" lon="10.708840120941993"><ele>81.0</ele><time>2026-04-25T15:39:14Z</time></trkpt><trkpt lat="43.25022435573866" lon="10.708805916983199"><ele>81.0</ele><time>2026-04-25T15:39:15Z</time></trkpt><trkpt lat="43.2503771632129" lon="10.708774080610963"><ele>81.0</ele><time>2026-04-25T15:39:16Z</time></trkpt><trkpt lat="43.25053153892155" lon="10.708743313970688"><ele>80.33333333333333</ele><time>2026-04-25T15:39:17Z</time></trkpt><trkpt lat="43.25068354878293" lon="10.708712029136187"><ele>79.66666666666666</ele><time>2026-04-25T15:39:18Z</time></trkpt><trkpt lat="43.25083521098934" lon="10.70867605434591"><ele>79.0</ele><time>2026-04-25T15:39:19Z</time></trkpt><trkpt lat="43.25098103494509" lon="10.708641610242253"><ele>79.0</ele><time>2026-04-25T15:39:20Z</time></trkpt><trkpt lat="43.2511192012119" lon="10.708613356611293"><ele>79.0</ele><time>2026-04-25T15:39:21Z</time></trkpt><trkpt lat="43.25125141253159" lon="10.708585739223794"><ele>79.0</ele><time>2026-04-25T15:39:22Z</time></trkpt><trkpt lat="43.251381710526424" lon="10.708557169577233"><ele>79.0</ele><time>2026-04-25T15:39:23Z</time></trkpt><trkpt lat="43.25151937864116" lon="10.708523630748388"><ele>78.75</ele><time>2026-04-25T15:39:24Z</time></trkpt><trkpt lat="43.25166195745935" lon="10.708489994865703"><ele>78.5</ele><time>2026-04-25T15:39:25Z</time></trkpt><trkpt lat="43.251806586569444" lon="10.70846147448168"><ele>78.25</ele><time>2026-04-25T15:39:26Z</time></trkpt><trkpt lat="43.251959319640626" lon="10.708429661936352"><ele>78.0</ele><time>2026-04-25T15:39:27Z</time></trkpt><trkpt lat="43.2521172653066" lon="10.708398145489875"><ele>78.0</ele><time>2026-04-25T15:39:28Z</time></trkpt><trkpt lat="43.25228173701618" lon="10.708363762510945"><ele>78.0</ele><time>2026-04-25T15:39:29Z</time></trkpt><trkpt lat="43.25244414811693" lon="10.708323455775886"><ele>78.0</ele><time>2026-04-25T15:39:30Z</time></trkpt><trkpt lat="43.252606430751364" lon="10.708287909929863"><ele>78.0</ele><time>2026-04-25T15:39:31Z</time></trkpt><trkpt lat="43.25276071535847" lon="10.708251926735233"><ele>78.0</ele><time>2026-04-25T15:39:32Z</time></trkpt><trkpt lat="43.25291592493172" lon="10.708213701979266"><ele>78.0</ele><time>2026-04-25T15:39:33Z</time></trkpt><trkpt lat="43.25307131242137" lon="10.70818386282639"><ele>78.33333333333333</ele><time>2026-04-25T15:39:34Z</time></trkpt><trkpt lat="43.25323301298163" lon="10.70815884193726"><ele>78.66666666666666</ele><time>2026-04-25T15:39:35Z</time></trkpt><trkpt lat="43.25339993380663" lon="10.708147636754687"><ele>79.0</ele><time>2026-04-25T15:39:36Z</time></trkpt><trkpt lat="43.25356910862541" lon="10.708156809024745"><ele>79.0</ele><time>2026-04-25T15:39:37Z</time></trkpt><trkpt lat="43.25373318620586" lon="10.70818255550621"><ele>79.0</ele><time>2026-04-25T15:39:38Z</time></trkpt><trkpt lat="43.25390144150407" lon="10.708216689644827"><ele>79.0</ele><time>2026-04-25T15:39:39Z</time></trkpt><trkpt lat="43.25406341713593" lon="10.708265508675634"><ele>79.0</ele><time>2026-04-25T15:39:40Z</time></trkpt><trkpt lat="43.25422105549241" lon="10.708331549702892"><ele>79.0</ele><time>2026-04-25T15:39:41Z</time></trkpt><trkpt lat="43.25437773591175" lon="10.70841645823527"><ele>79.0</ele><time>2026-04-25T15:39:42Z</time></trkpt><trkpt lat="43.254533188972715" lon="10.708508086984365"><ele>81.0</ele><time>2026-04-25T15:39:43Z</time></trkpt><trkpt lat="43.25468639855761" lon="10.708622783958127"><ele>83.0</ele><time>2026-04-25T15:39:44Z</time></trkpt><trkpt lat="43.254845666583336" lon="10.708697335494458"><ele>85.0</ele><time>2026-04-25T15:39:45Z</time></trkpt><trkpt lat="43.255002098272286" lon="10.70879056389454"><ele>85.0</ele><time>2026-04-25T15:39:46Z</time></trkpt><trkpt lat="43.255156780113545" lon="10.708885912585906"><ele>85.0</ele><time>2026-04-25T15:39:47Z</time></trkpt><trkpt lat="43.25531211024896" lon="10.708979171077615"><ele>85.0</ele><time>2026-04-25T15:39:48Z</time></trkpt><trkpt lat="43.2554680219976" lon="10.709078700061653"><ele>82.66666666666666</ele><time>2026-04-25T15:39:49Z</time></trkpt><trkpt lat="43.25562635545011" lon="10.709174110499688"><ele>80.33333333333333</ele><time>2026-04-25T15:39:50Z</time></trkpt><trkpt lat="43.25578560250021" lon="10.709267641592778"><ele>78.0</ele><time>2026-04-25T15:39:51Z</time></trkpt><trkpt lat="43.255945221660866" lon="10.709363034044197"><ele>78.66666666666667</ele><time>2026-04-25T15:39:52Z</time></trkpt><trkpt lat="43.25610554821715" lon="10.709461659719642"><ele>79.33333333333334</ele><time>2026-04-25T15:39:53Z</time></trkpt><trkpt lat="43.256266243164596" lon="10.709561722599855"><ele>80.0</ele><time>2026-04-25T15:39:54Z</time></trkpt><trkpt lat="43.25642400619974" lon="10.709659262934327"><ele>78.66666666666667</ele><time>2026-04-25T15:39:55Z</time></trkpt><trkpt lat="43.256581799201825" lon="10.709752640138193"><ele>77.33333333333333</ele><time>2026-04-25T15:39:56Z</time></trkpt><trkpt lat="43.25673887817679" lon="10.709845532415411"><ele>76.0</ele><time>2026-04-25T15:39:57Z</time></trkpt><trkpt lat="43.25689596972329" lon="10.709940808332961"><ele>76.0</ele><time>2026-04-25T15:39:58Z</time></trkpt><trkpt lat="43.25705521343562" lon="10.710037899966093"><ele>76.0</ele><time>2026-04-25T15:39:59Z</time></trkpt><trkpt lat="43.257214179220746" lon="10.710133198287867"><ele>76.0</ele><time>2026-04-25T15:40:00Z</time></trkpt><trkpt lat="43.257362578281935" lon="10.710223802040579"><ele>77.33333333333333</ele><time>2026-04-25T15:40:01Z</time></trkpt><trkpt lat="43.2575072789537" lon="10.710310787848664"><ele>78.66666666666667</ele><time>2026-04-25T15:40:02Z</time></trkpt><trkpt lat="43.25765661067611" lon="10.71039333416049"><ele>80.0</ele><time>2026-04-25T15:40:03Z</time></trkpt><trkpt lat="43.25781077709999" lon="10.710461002267161"><ele>80.0</ele><time>2026-04-25T15:40:04Z</time></trkpt><trkpt lat="43.25796995759154" lon="10.710515126111899"><ele>80.0</ele><time>2026-04-25T15:40:05Z</time></trkpt><trkpt lat="43.258132457955476" lon="10.71054951054483"><ele>80.0</ele><time>2026-04-25T15:40:06Z</time></trkpt><trkpt lat="43.25829944543423" lon="10.710564311273801"><ele>78.66666666666667</ele><time>2026-04-25T15:40:07Z</time></trkpt><trkpt lat="43.258464449351536" lon="10.710559813626189"><ele>77.33333333333333</ele><time>2026-04-25T15:40:08Z</time></trkpt><trkpt lat="43.25862246808922" lon="10.71053964513724"><ele>76.0</ele><time>2026-04-25T15:40:09Z</time></trkpt><trkpt lat="43.25877545355304" lon="10.710505801257641"><ele>76.0</ele><time>2026-04-25T15:40:10Z</time></trkpt><trkpt lat="43.25893068979079" lon="10.710452406836074"><ele>76.0</ele><time>2026-04-25T15:40:11Z</time></trkpt><trkpt lat="43.259084333597876" lon="10.710379421176029"><ele>76.0</ele><time>2026-04-25T15:40:12Z</time></trkpt><trkpt lat="43.25923879840894" lon="10.710294067155008"><ele>75.33333333333333</ele><time>2026-04-25T15:40:13Z</time></trkpt><trkpt lat="43.25939736427674" lon="10.710204042696937"><ele>74.66666666666667</ele><time>2026-04-25T15:40:14Z</time></trkpt><trkpt lat="43.25955973418694" lon="10.710115812394857"><ele>74.0</ele><time>2026-04-25T15:40:15Z</time></trkpt><trkpt lat="43.25971981546977" lon="10.710027997914793"><ele>74.66666666666667</ele><time>2026-04-25T15:40:16Z</time></trkpt><trkpt lat="43.25987975052107" lon="10.709938782613788"><ele>75.33333333333333</ele><time>2026-04-25T15:40:17Z</time></trkpt><trkpt lat="43.26003891760688" lon="10.709847132738826"><ele>76.0</ele><time>2026-04-25T15:40:18Z</time></trkpt><trkpt lat="43.26019745226809" lon="10.70975835737502"><ele>76.0</ele><time>2026-04-25T15:40:19Z</time></trkpt><trkpt lat="43.260355910158026" lon="10.709670537863712"><ele>76.0</ele><time>2026-04-25T15:40:20Z</time></trkpt><trkpt lat="43.260506362982056" lon="10.70958849070589"><ele>76.0</ele><time>2026-04-25T15:40:21Z</time></trkpt><trkpt lat="43.26065161909355" lon="10.709508049014769"><ele>75.0</ele><time>2026-04-25T15:40:22Z</time></trkpt><trkpt lat="43.26079000306012" lon="10.709429194165603"><ele>74.0</ele><time>2026-04-25T15:40:23Z</time></trkpt><trkpt lat="43.26092416114081" lon="10.709353639944801"><ele>73.0</ele><time>2026-04-25T15:40:24Z</time></trkpt><trkpt lat="43.26105172790817" lon="10.709278305916268"><ele>72.0</ele><time>2026-04-25T15:40:25Z</time></trkpt><trkpt lat="43.26117839182675" lon="10.70919665063705"><ele>72.0</ele><time>2026-04-25T15:40:26Z</time></trkpt><trkpt lat="43.261305320348114" lon="10.709102720769451"><ele>72.0</ele><time>2026-04-25T15:40:27Z</time></trkpt><trkpt lat="43.261434244738325" lon="10.708996610825162"><ele>72.0</ele><time>2026-04-25T15:40:28Z</time></trkpt><trkpt lat="43.26156329847285" lon="10.708882402972295"><ele>72.0</ele><time>2026-04-25T15:40:29Z</time></trkpt><trkpt lat="43.2616918368715" lon="10.708759069130943"><ele>71.0</ele><time>2026-04-25T15:40:30Z</time></trkpt><trkpt lat="43.26182047306348" lon="10.708632471234935"><ele>70.0</ele><time>2026-04-25T15:40:31Z</time></trkpt><trkpt lat="43.26194990426684" lon="10.708507748751927"><ele>69.0</ele><time>2026-04-25T15:40:32Z</time></trkpt><trkpt lat="43.26208067908649" lon="10.708382761392972"><ele>69.0</ele><time>2026-04-25T15:40:33Z</time></trkpt><trkpt lat="43.26221127015345" lon="10.708255969277056"><ele>69.0</ele><time>2026-04-25T15:40:34Z</time></trkpt><trkpt lat="43.26234415377812" lon="10.708128366208953"><ele>69.0</ele><time>2026-04-25T15:40:35Z</time></trkpt><trkpt lat="43.262478068533724" lon="10.708000707437803"><ele>69.0</ele><time>2026-04-25T15:40:36Z</time></trkpt><trkpt lat="43.26261362323555" lon="10.707869782565623"><ele>69.0</ele><time>2026-04-25T15:40:37Z</time></trkpt><trkpt lat="43.262749188130044" lon="10.70773825196806"><ele>69.0</ele><time>2026-04-25T15:40:38Z</time></trkpt><trkpt lat="43.26288395385735" lon="10.707609831652158"><ele>68.66666666666667</ele><time>2026-04-25T15:40:39Z</time></trkpt><trkpt lat="43.26301863426454" lon="10.707480159417257"><ele>68.33333333333334</ele><time>2026-04-25T15:40:40Z</time></trkpt><trkpt lat="43.263156049388144" lon="10.707347744853113"><ele>68.0</ele><time>2026-04-25T15:40:41Z</time></trkpt><trkpt lat="43.26329406902229" lon="10.707214356246347"><ele>68.66666666666667</ele><time>2026-04-25T15:40:42Z</time></trkpt><trkpt lat="43.263428942435986" lon="10.707086725381837"><ele>69.33333333333333</ele><time>2026-04-25T15:40:43Z</time></trkpt><trkpt lat="43.263561994900364" lon="10.7069703470701"><ele>70.0</ele><time>2026-04-25T15:40:44Z</time></trkpt><trkpt lat="43.263702420680666" lon="10.70685951119697"><ele>70.33333333333333</ele><time>2026-04-25T15:40:45Z</time></trkpt><trkpt lat="43.26385136422991" lon="10.706765704877586"><ele>70.66666666666667</ele><time>2026-04-25T15:40:46Z</time></trkpt><trkpt lat="43.26401080661725" lon="10.706686041336555"><ele>71.0</ele><time>2026-04-25T15:40:47Z</time></trkpt><trkpt lat="43.264176345257155" lon="10.706627984305046"><ele>70.33333333333334</ele><time>2026-04-25T15:40:48Z</time></trkpt><trkpt lat="43.264345401387814" lon="10.706592388534949"><ele>69.66666666666667</ele><time>2026-04-25T15:40:49Z</time></trkpt><trkpt lat="43.26452099661868" lon="10.70658056074417"><ele>69.0</ele><time>2026-04-25T15:40:50Z</time></trkpt><trkpt lat="43.26469433471539" lon="10.706586497548255"><ele>68.66666666666667</ele><time>2026-04-25T15:40:51Z</time></trkpt><trkpt lat="43.26487032103088" lon="10.706609470943647"><ele>68.33333333333334</ele><time>2026-04-25T15:40:52Z</time></trkpt><trkpt lat="43.265045529135094" lon="10.706631834658314"><ele>68.0</ele><time>2026-04-25T15:40:53Z</time></trkpt><trkpt lat="43.265210735358956" lon="10.706651044090945"><ele>68.0</ele><time>2026-04-25T15:40:54Z</time></trkpt><trkpt lat="43.26536843157117" lon="10.706666765960573"><ele>68.0</ele><time>2026-04-25T15:40:55Z</time></trkpt><trkpt lat="43.26551928672403" lon="10.70668561117311"><ele>68.0</ele><time>2026-04-25T15:40:56Z</time></trkpt><trkpt lat="43.26566456938292" lon="10.706707397865259"><ele>68.5</ele><time>2026-04-25T15:40:57Z</time></trkpt><trkpt lat="43.26580422115836" lon="10.706729443488525"><ele>69.0</ele><time>2026-04-25T15:40:58Z</time></trkpt><trkpt lat="43.26593766427707" lon="10.706746653617307"><ele>69.5</ele><time>2026-04-25T15:40:59Z</time></trkpt><trkpt lat="43.26606904360017" lon="10.706763398704892"><ele>70.0</ele><time>2026-04-25T15:41:00Z</time></trkpt><trkpt lat="43.2661958465646" lon="10.706784033565906"><ele>70.0</ele><time>2026-04-25T15:41:01Z</time></trkpt><trkpt lat="43.26631970247804" lon="10.706802314878882"><ele>70.0</ele><time>2026-04-25T15:41:02Z</time></trkpt><trkpt lat="43.26644879772763" lon="10.706817407029645"><ele>70.0</ele><time>2026-04-25T15:41:03Z</time></trkpt><trkpt lat="43.26657540103907" lon="10.70683343334107"><ele>70.0</ele><time>2026-04-25T15:41:04Z</time></trkpt><trkpt lat="43.2667030366394" lon="10.706850697616197"><ele>69.5</ele><time>2026-04-25T15:41:05Z</time></trkpt><trkpt lat="43.26683203564554" lon="10.706864392747862"><ele>69.0</ele><time>2026-04-25T15:41:06Z</time></trkpt><trkpt lat="43.266954414896134" lon="10.706876233619337"><ele>68.5</ele><time>2026-04-25T15:41:07Z</time></trkpt><trkpt lat="43.26706827939579" lon="10.706890166782035"><ele>68.0</ele><time>2026-04-25T15:41:08Z</time></trkpt><trkpt lat="43.26718066961896" lon="10.706903181065261"><ele>67.6</ele><time>2026-04-25T15:41:09Z</time></trkpt><trkpt lat="43.26729056269374" lon="10.70691822046575"><ele>67.19999999999999</ele><time>2026-04-25T15:41:10Z</time></trkpt><trkpt lat="43.26740210283893" lon="10.706924529074481"><ele>66.8</ele><time>2026-04-25T15:41:11Z</time></trkpt><trkpt lat="43.2675134749791" lon="10.706920515325617"><ele>66.39999999999999</ele><time>2026-04-25T15:41:12Z</time></trkpt><trkpt lat="43.267625663050744" lon="10.706902730468006"><ele>66.0</ele><time>2026-04-25T15:41:13Z</time></trkpt><trkpt lat="43.26773992944105" lon="10.706878351133392"><ele>66.0</ele><time>2026-04-25T15:41:14Z</time></trkpt><trkpt lat="43.26785259403694" lon="10.706847341979348"><ele>66.0</ele><time>2026-04-25T15:41:15Z</time></trkpt><trkpt lat="43.267966139914876" lon="10.706807903950756"><ele>66.0</ele><time>2026-04-25T15:41:16Z</time></trkpt><trkpt lat="43.26807933066302" lon="10.706766298407574"><ele>66.0</ele><time>2026-04-25T15:41:17Z</time></trkpt><trkpt lat="43.268194993275664" lon="10.706724589310324"><ele>66.0</ele><time>2026-04-25T15:41:18Z</time></trkpt><trkpt lat="43.26831030227332" lon="10.706683087961514"><ele>66.0</ele><time>2026-04-25T15:41:19Z</time></trkpt><trkpt lat="43.26842811961991" lon="10.706639309632976"><ele>66.0</ele><time>2026-04-25T15:41:20Z</time></trkpt><trkpt lat="43.26854874926195" lon="10.706596787790744"><ele>66.0</ele><time>2026-04-25T15:41:21Z</time></trkpt><trkpt lat="43.26866940653012" lon="10.706550967056566"><ele>66.0</ele><time>2026-04-25T15:41:22Z</time></trkpt><trkpt lat="43.268793524429164" lon="10.706508056250366"><ele>66.0</ele><time>2026-04-25T15:41:23Z</time></trkpt><trkpt lat="43.26891725797957" lon="10.70646567496769"><ele>66.0</ele><time>2026-04-25T15:41:24Z</time></trkpt><trkpt lat="43.26904539803782" lon="10.706421965206399"><ele>66.0</ele><time>2026-04-25T15:41:25Z</time></trkpt><trkpt lat="43.26917555443456" lon="10.706378420665205"><ele>65.25</ele><time>2026-04-25T15:41:26Z</time></trkpt><trkpt lat="43.26930153815594" lon="10.706331783594829"><ele>64.5</ele><time>2026-04-25T15:41:27Z</time></trkpt><trkpt lat="43.26943031748277" lon="10.706283126104395"><ele>63.75</ele><time>2026-04-25T15:41:28Z</time></trkpt><trkpt lat="43.26955742041355" lon="10.706237783313293"><ele>63.0</ele><time>2026-04-25T15:41:29Z</time></trkpt><trkpt lat="43.269685515150215" lon="10.706195003334203"><ele>63.0</ele><time>2026-04-25T15:41:30Z</time></trkpt><trkpt lat="43.26981147332512" lon="10.70615035375568"><ele>63.0</ele><time>2026-04-25T15:41:31Z</time></trkpt><trkpt lat="43.26993156775041" lon="10.706106503049137"><ele>63.0</ele><time>2026-04-25T15:41:32Z</time></trkpt><trkpt lat="43.27005354259011" lon="10.7060626082115"><ele>63.0</ele><time>2026-04-25T15:41:33Z</time></trkpt><trkpt lat="43.27017669299683" lon="10.70601850373691"><ele>63.0</ele><time>2026-04-25T15:41:34Z</time></trkpt><trkpt lat="43.27030095264644" lon="10.705972880026696"><ele>63.0</ele><time>2026-04-25T15:41:35Z</time></trkpt><trkpt lat="43.27042791122969" lon="10.705931260238613"><ele>63.0</ele><time>2026-04-25T15:41:36Z</time></trkpt><trkpt lat="43.27055639944063" lon="10.705888189096129"><ele>63.0</ele><time>2026-04-25T15:41:37Z</time></trkpt><trkpt lat="43.27068749382036" lon="10.70584051223946"><ele>63.0</ele><time>2026-04-25T15:41:38Z</time></trkpt><trkpt lat="43.2708192698623" lon="10.705792620985596"><ele>63.0</ele><time>2026-04-25T15:41:39Z</time></trkpt><trkpt lat="43.27094728333949" lon="10.705748419451844"><ele>63.0</ele><time>2026-04-25T15:41:40Z</time></trkpt><trkpt lat="43.27106972848992" lon="10.7057056771922"><ele>63.0</ele><time>2026-04-25T15:41:41Z</time></trkpt><trkpt lat="43.271195083286095" lon="10.705660565406776"><ele>63.0</ele><time>2026-04-25T15:41:42Z</time></trkpt><trkpt lat="43.27132144458119" lon="10.705613853567332"><ele>63.0</ele><time>2026-04-25T15:41:43Z</time></trkpt><trkpt lat="43.27144671584815" lon="10.705569752356364"><ele>63.0</ele><time>2026-04-25T15:41:44Z</time></trkpt><trkpt lat="43.271565497807366" lon="10.705529222293247"><ele>63.0</ele><time>2026-04-25T15:41:45Z</time></trkpt><trkpt lat="43.27168219602912" lon="10.705490133117081"><ele>63.0</ele><time>2026-04-25T15:41:46Z</time></trkpt><trkpt lat="43.27179611756774" lon="10.705448833936652"><ele>63.0</ele><time>2026-04-25T15:41:47Z</time></trkpt><trkpt lat="43.27191012067889" lon="10.705405915335064"><ele>63.0</ele><time>2026-04-25T15:41:48Z</time></trkpt><trkpt lat="43.272026088138915" lon="10.705362505554906"><ele>63.0</ele><time>2026-04-25T15:41:49Z</time></trkpt><trkpt lat="43.272142091581266" lon="10.705317556651117"><ele>63.0</ele><time>2026-04-25T15:41:50Z</time></trkpt><trkpt lat="43.27225866288312" lon="10.705272137024107"><ele>63.0</ele><time>2026-04-25T15:41:51Z</time></trkpt><trkpt lat="43.27237759531835" lon="10.7052302370292"><ele>63.0</ele><time>2026-04-25T15:41:52Z</time></trkpt><trkpt lat="43.27249872921263" lon="10.705191086471203"><ele>63.0</ele><time>2026-04-25T15:41:53Z</time></trkpt><trkpt lat="43.27262204007622" lon="10.705147743311528"><ele>63.25</ele><time>2026-04-25T15:41:54Z</time></trkpt><trkpt lat="43.272744911068195" lon="10.705100972870985"><ele>63.5</ele><time>2026-04-25T15:41:55Z</time></trkpt><trkpt lat="43.272860178391475" lon="10.705058730176457"><ele>63.75</ele><time>2026-04-25T15:41:56Z</time></trkpt><trkpt lat="43.27297577649459" lon="10.70501714853759"><ele>64.0</ele><time>2026-04-25T15:41:57Z</time></trkpt><trkpt lat="43.27309503586007" lon="10.704975492916756"><ele>65.0</ele><time>2026-04-25T15:41:58Z</time></trkpt><trkpt lat="43.27321609057823" lon="10.704934505254268"><ele>66.0</ele><time>2026-04-25T15:41:59Z</time></trkpt><trkpt lat="43.273337196969926" lon="10.704899752700053"><ele>67.0</ele><time>2026-04-25T15:42:00Z</time></trkpt><trkpt lat="43.27346063130907" lon="10.704870673659743"><ele>68.0</ele><time>2026-04-25T15:42:01Z</time></trkpt><trkpt lat="43.273586527163786" lon="10.704848694589979"><ele>68.0</ele><time>2026-04-25T15:42:02Z</time></trkpt><trkpt lat="43.27371835462166" lon="10.704841466070219"><ele>68.0</ele><time>2026-04-25T15:42:03Z</time></trkpt><trkpt lat="43.27385188799179" lon="10.70485044701359"><ele>68.0</ele><time>2026-04-25T15:42:04Z</time></trkpt><trkpt lat="43.27398543334615" lon="10.704866500323465"><ele>68.0</ele><time>2026-04-25T15:42:05Z</time></trkpt><trkpt lat="43.274118672630685" lon="10.704892606974651"><ele>67.75</ele><time>2026-04-25T15:42:06Z</time></trkpt><trkpt lat="43.27425204078099" lon="10.704925343429174"><ele>67.5</ele><time>2026-04-25T15:42:07Z</time></trkpt><trkpt lat="43.27438603147519" lon="10.704960364251676"><ele>67.25</ele><time>2026-04-25T15:42:08Z</time></trkpt><trkpt lat="43.27452153781719" lon="10.704996329960913"><ele>67.0</ele><time>2026-04-25T15:42:09Z</time></trkpt><trkpt lat="43.274654892163156" lon="10.70502966643942"><ele>65.75</ele><time>2026-04-25T15:42:10Z</time></trkpt><trkpt lat="43.27478002910227" lon="10.705061276418153"><ele>64.5</ele><time>2026-04-25T15:42:11Z</time></trkpt><trkpt lat="43.27490447570024" lon="10.705103932362551"><ele>63.25</ele><time>2026-04-25T15:42:12Z</time></trkpt><trkpt lat="43.27503517505894" lon="10.705137023540791"><ele>62.0</ele><time>2026-04-25T15:42:13Z</time></trkpt><trkpt lat="43.27516792845157" lon="10.705173558294627"><ele>62.0</ele><time>2026-04-25T15:42:14Z</time></trkpt><trkpt lat="43.275297007985735" lon="10.70520976106358"><ele>62.0</ele><time>2026-04-25T15:42:15Z</time></trkpt><trkpt lat="43.27542985047038" lon="10.705243916447536"><ele>62.0</ele><time>2026-04-25T15:42:16Z</time></trkpt><trkpt lat="43.275564910123485" lon="10.705275920358448"><ele>62.0</ele><time>2026-04-25T15:42:17Z</time></trkpt><trkpt lat="43.27570029107454" lon="10.705313194458446"><ele>66.0</ele><time>2026-04-25T15:42:18Z</time></trkpt><trkpt lat="43.275835014708235" lon="10.705349907570113"><ele>70.0</ele><time>2026-04-25T15:42:19Z</time></trkpt><trkpt lat="43.27597223627245" lon="10.705384360266406"><ele>74.0</ele><time>2026-04-25T15:42:20Z</time></trkpt><trkpt lat="43.27610365798401" lon="10.705415968609325"><ele>78.0</ele><time>2026-04-25T15:42:21Z</time></trkpt><trkpt lat="43.27623569505699" lon="10.705457221074688"><ele>78.0</ele><time>2026-04-25T15:42:22Z</time></trkpt><trkpt lat="43.276371339549065" lon="10.705495221157403"><ele>78.0</ele><time>2026-04-25T15:42:23Z</time></trkpt><trkpt lat="43.27650808524061" lon="10.70553338632691"><ele>78.0</ele><time>2026-04-25T15:42:24Z</time></trkpt><trkpt lat="43.27664362393591" lon="10.705568572778404"><ele>78.0</ele><time>2026-04-25T15:42:25Z</time></trkpt><trkpt lat="43.276781450607714" lon="10.705606330118112"><ele>74.75</ele><time>2026-04-25T15:42:26Z</time></trkpt><trkpt lat="43.276921085091224" lon="10.705641927529843"><ele>71.5</ele><time>2026-04-25T15:42:27Z</time></trkpt><trkpt lat="43.27704753228399" lon="10.70567363115895"><ele>68.25</ele><time>2026-04-25T15:42:28Z</time></trkpt><trkpt lat="43.27717639803497" lon="10.70571197144778"><ele>65.0</ele><time>2026-04-25T15:42:29Z</time></trkpt><trkpt lat="43.27729691463429" lon="10.705747987730792"><ele>64.75</ele><time>2026-04-25T15:42:30Z</time></trkpt><trkpt lat="43.277421561496794" lon="10.705779972021594"><ele>64.5</ele><time>2026-04-25T15:42:31Z</time></trkpt><trkpt lat="43.27754823771044" lon="10.705813499418955"><ele>64.25</ele><time>2026-04-25T15:42:32Z</time></trkpt><trkpt lat="43.27767213757554" lon="10.705843433352669"><ele>64.0</ele><time>2026-04-25T15:42:33Z</time></trkpt><trkpt lat="43.27779720889573" lon="10.705869565389392"><ele>64.0</ele><time>2026-04-25T15:42:34Z</time></trkpt><trkpt lat="43.27792188857351" lon="10.705909592633471"><ele>64.0</ele><time>2026-04-25T15:42:35Z</time></trkpt><trkpt lat="43.27804984460967" lon="10.705913962053298"><ele>64.0</ele><time>2026-04-25T15:42:36Z</time></trkpt><trkpt lat="43.27818073833418" lon="10.70590931651257"><ele>64.0</ele><time>2026-04-25T15:42:37Z</time></trkpt><trkpt lat="43.27830914690569" lon="10.70589409109843"><ele>64.0</ele><time>2026-04-25T15:42:38Z</time></trkpt><trkpt lat="43.27843903084724" lon="10.705867819833509"><ele>64.0</ele><time>2026-04-25T15:42:39Z</time></trkpt><trkpt lat="43.278571119330266" lon="10.705835896268237"><ele>64.0</ele><time>2026-04-25T15:42:40Z</time></trkpt><trkpt lat="43.278705350118805" lon="10.705765302753711"><ele>64.0</ele><time>2026-04-25T15:42:41Z</time></trkpt><trkpt lat="43.278837546113664" lon="10.705692628929786"><ele>65.5</ele><time>2026-04-25T15:42:42Z</time></trkpt><trkpt lat="43.27896639581246" lon="10.705619647311126"><ele>67.0</ele><time>2026-04-25T15:42:43Z</time></trkpt><trkpt lat="43.27908827933445" lon="10.705546953215352"><ele>68.5</ele><time>2026-04-25T15:42:44Z</time></trkpt><trkpt lat="43.279210568182826" lon="10.705477933529146"><ele>70.0</ele><time>2026-04-25T15:42:45Z</time></trkpt><trkpt lat="43.279333004603096" lon="10.705409736499487"><ele>70.0</ele><time>2026-04-25T15:42:46Z</time></trkpt><trkpt lat="43.279456792247444" lon="10.705341070953818"><ele>70.0</ele><time>2026-04-25T15:42:47Z</time></trkpt><trkpt lat="43.279582118263505" lon="10.705272184237153"><ele>70.0</ele><time>2026-04-25T15:42:48Z</time></trkpt><trkpt lat="43.279703743334025" lon="10.70520526464613"><ele>70.0</ele><time>2026-04-25T15:42:49Z</time></trkpt><trkpt lat="43.279826930091176" lon="10.705135278739158"><ele>69.25</ele><time>2026-04-25T15:42:50Z</time></trkpt><trkpt lat="43.27994815941025" lon="10.705067841010917"><ele>68.5</ele><time>2026-04-25T15:42:51Z</time></trkpt><trkpt lat="43.28007031732062" lon="10.705000943738543"><ele>67.75</ele><time>2026-04-25T15:42:52Z</time></trkpt><trkpt lat="43.2801931434495" lon="10.704931439937392"><ele>67.0</ele><time>2026-04-25T15:42:53Z</time></trkpt><trkpt lat="43.28031343125526" lon="10.704861027588242"><ele>67.0</ele><time>2026-04-25T15:42:54Z</time></trkpt><trkpt lat="43.280436310914894" lon="10.704810512086093"><ele>67.0</ele><time>2026-04-25T15:42:55Z</time></trkpt><trkpt lat="43.28054832537513" lon="10.704735373612229"><ele>67.0</ele><time>2026-04-25T15:42:56Z</time></trkpt><trkpt lat="43.28066745285904" lon="10.704645112858952"><ele>67.0</ele><time>2026-04-25T15:42:57Z</time></trkpt><trkpt lat="43.280782269136964" lon="10.704544333614237"><ele>67.25</ele><time>2026-04-25T15:42:58Z</time></trkpt><trkpt lat="43.280896702266226" lon="10.704429996043638"><ele>67.5</ele><time>2026-04-25T15:42:59Z</time></trkpt><trkpt lat="43.28100928223919" lon="10.704305840148317"><ele>67.75</ele><time>2026-04-25T15:43:00Z</time></trkpt><trkpt lat="43.28111430414966" lon="10.704177187331279"><ele>68.0</ele><time>2026-04-25T15:43:01Z</time></trkpt><trkpt lat="43.281223897227974" lon="10.704042934567669"><ele>66.0</ele><time>2026-04-25T15:43:02Z</time></trkpt><trkpt lat="43.28133550432191" lon="10.703904687487388"><ele>64.0</ele><time>2026-04-25T15:43:03Z</time></trkpt><trkpt lat="43.28144875701312" lon="10.703764770017171"><ele>62.0</ele><time>2026-04-25T15:43:04Z</time></trkpt><trkpt lat="43.28155288854785" lon="10.703609393512775"><ele>61.0</ele><time>2026-04-25T15:43:05Z</time></trkpt><trkpt lat="43.28166165621638" lon="10.70347197649243"><ele>60.0</ele><time>2026-04-25T15:43:06Z</time></trkpt><trkpt lat="43.281775016074604" lon="10.703327550034803"><ele>59.0</ele><time>2026-04-25T15:43:07Z</time></trkpt><trkpt lat="43.28189406112571" lon="10.703179969993698"><ele>59.0</ele><time>2026-04-25T15:43:08Z</time></trkpt><trkpt lat="43.282014241466996" lon="10.703029501398959"><ele>59.0</ele><time>2026-04-25T15:43:09Z</time></trkpt><trkpt lat="43.28214085861636" lon="10.702899122102895"><ele>59.0</ele><time>2026-04-25T15:43:10Z</time></trkpt><trkpt lat="43.28224962432618" lon="10.702739757575467"><ele>60.66666666666667</ele><time>2026-04-25T15:43:11Z</time></trkpt><trkpt lat="43.282369597964845" lon="10.702590842842655"><ele>62.33333333333333</ele><time>2026-04-25T15:43:12Z</time></trkpt><trkpt lat="43.28247769525789" lon="10.702454243691593"><ele>64.0</ele><time>2026-04-25T15:43:13Z</time></trkpt><trkpt lat="43.28259358894552" lon="10.70233779328341"><ele>64.0</ele><time>2026-04-25T15:43:14Z</time></trkpt><trkpt lat="43.282701803812984" lon="10.70221055971443"><ele>64.0</ele><time>2026-04-25T15:43:15Z</time></trkpt><trkpt lat="43.282812197340405" lon="10.702094104474313"><ele>64.0</ele><time>2026-04-25T15:43:16Z</time></trkpt><trkpt lat="43.28293396722578" lon="10.701988643693701"><ele>64.0</ele><time>2026-04-25T15:43:17Z</time></trkpt><trkpt lat="43.28306102571861" lon="10.701891331898105"><ele>62.33333333333333</ele><time>2026-04-25T15:43:18Z</time></trkpt><trkpt lat="43.28319541528003" lon="10.701798656517646"><ele>60.66666666666667</ele><time>2026-04-25T15:43:19Z</time></trkpt><trkpt lat="43.28333553038866" lon="10.701702290302908"><ele>59.0</ele><time>2026-04-25T15:43:20Z</time></trkpt><trkpt lat="43.2834783945276" lon="10.701603624661544"><ele>59.0</ele><time>2026-04-25T15:43:21Z</time></trkpt><trkpt lat="43.28361929634714" lon="10.701505919815066"><ele>59.0</ele><time>2026-04-25T15:43:22Z</time></trkpt><trkpt lat="43.2837549643318" lon="10.701407626136172"><ele>59.0</ele><time>2026-04-25T15:43:23Z</time></trkpt><trkpt lat="43.283896853966134" lon="10.701317407449073"><ele>59.66666666666667</ele><time>2026-04-25T15:43:24Z</time></trkpt><trkpt lat="43.284038595199156" lon="10.701229474022393"><ele>60.33333333333333</ele><time>2026-04-25T15:43:25Z</time></trkpt><trkpt lat="43.284178098532635" lon="10.701134587824397"><ele>61.0</ele><time>2026-04-25T15:43:26Z</time></trkpt><trkpt lat="43.28432020041213" lon="10.701040740185412"><ele>59.33333333333333</ele><time>2026-04-25T15:43:27Z</time></trkpt><trkpt lat="43.284463037411875" lon="10.700947002829393"><ele>57.66666666666667</ele><time>2026-04-25T15:43:28Z</time></trkpt><trkpt lat="43.28460428288749" lon="10.700858224567648"><ele>56.0</ele><time>2026-04-25T15:43:29Z</time></trkpt><trkpt lat="43.28474550331582" lon="10.70076597679045"><ele>56.66666666666667</ele><time>2026-04-25T15:43:30Z</time></trkpt><trkpt lat="43.284881310823096" lon="10.700670729910842"><ele>57.33333333333333</ele><time>2026-04-25T15:43:31Z</time></trkpt><trkpt lat="43.28501974466655" lon="10.700578304573513"><ele>58.0</ele><time>2026-04-25T15:43:32Z</time></trkpt><trkpt lat="43.285158299517185" lon="10.700485164182373"><ele>58.0</ele><time>2026-04-25T15:43:33Z</time></trkpt><trkpt lat="43.28529928403118" lon="10.700387989095276"><ele>58.0</ele><time>2026-04-25T15:43:34Z</time></trkpt><trkpt lat="43.28544038696718" lon="10.700292586058142"><ele>58.0</ele><time>2026-04-25T15:43:35Z</time></trkpt><trkpt lat="43.28558290325588" lon="10.70019369329435"><ele>58.0</ele><time>2026-04-25T15:43:36Z</time></trkpt><trkpt lat="43.285727273027014" lon="10.700093874327905"><ele>58.0</ele><time>2026-04-25T15:43:37Z</time></trkpt><trkpt lat="43.28587574759545" lon="10.699997454019675"><ele>58.0</ele><time>2026-04-25T15:43:38Z</time></trkpt><trkpt lat="43.28601836195778" lon="10.699892538313065"><ele>58.0</ele><time>2026-04-25T15:43:39Z</time></trkpt><trkpt lat="43.28615687765588" lon="10.6997952663479"><ele>58.0</ele><time>2026-04-25T15:43:40Z</time></trkpt><trkpt lat="43.28628761910525" lon="10.699707748102465"><ele>58.0</ele><time>2026-04-25T15:43:41Z</time></trkpt><trkpt lat="43.28642003868169" lon="10.699619478104921"><ele>58.0</ele><time>2026-04-25T15:43:42Z</time></trkpt><trkpt lat="43.28655151072213" lon="10.699530781356025"><ele>57.5</ele><time>2026-04-25T15:43:43Z</time></trkpt><trkpt lat="43.28667912668235" lon="10.699445011650146"><ele>57.0</ele><time>2026-04-25T15:43:44Z</time></trkpt><trkpt lat="43.286810110373715" lon="10.699367278622532"><ele>56.5</ele><time>2026-04-25T15:43:45Z</time></trkpt><trkpt lat="43.286950111028666" lon="10.6992995251629"><ele>56.0</ele><time>2026-04-25T15:43:46Z</time></trkpt><trkpt lat="43.28709101808475" lon="10.699242441193002"><ele>56.0</ele><time>2026-04-25T15:43:47Z</time></trkpt><trkpt lat="43.28723532920851" lon="10.699195480434414"><ele>56.0</ele><time>2026-04-25T15:43:48Z</time></trkpt><trkpt lat="43.287386871706644" lon="10.699154864672684"><ele>56.0</ele><time>2026-04-25T15:43:49Z</time></trkpt><trkpt lat="43.2875414767289" lon="10.699118256953314"><ele>56.333333333333336</ele><time>2026-04-25T15:43:50Z</time></trkpt><trkpt lat="43.28770012846656" lon="10.699091557672066"><ele>56.66666666666667</ele><time>2026-04-25T15:43:51Z</time></trkpt><trkpt lat="43.28786525277432" lon="10.699083135059675"><ele>57.0</ele><time>2026-04-25T15:43:52Z</time></trkpt><trkpt lat="43.288019737811965" lon="10.69908798216623"><ele>57.0</ele><time>2026-04-25T15:43:53Z</time></trkpt><trkpt lat="43.288180167870415" lon="10.69909940976476"><ele>57.0</ele><time>2026-04-25T15:43:54Z</time></trkpt><trkpt lat="43.2883431657609" lon="10.699109573940124"><ele>57.0</ele><time>2026-04-25T15:43:55Z</time></trkpt><trkpt lat="43.288501050490055" lon="10.699123742720868"><ele>57.0</ele><time>2026-04-25T15:43:56Z</time></trkpt><trkpt lat="43.28865975706819" lon="10.699135256431035"><ele>57.0</ele><time>2026-04-25T15:43:57Z</time></trkpt><trkpt lat="43.28882035388956" lon="10.699146556406301"><ele>57.0</ele><time>2026-04-25T15:43:58Z</time></trkpt><trkpt lat="43.28898177939706" lon="10.699158169958153"><ele>56.33333333333333</ele><time>2026-04-25T15:43:59Z</time></trkpt><trkpt lat="43.28914225812367" lon="10.69916831876072"><ele>55.666666666666664</ele><time>2026-04-25T15:44:00Z</time></trkpt><trkpt lat="43.289300965168955" lon="10.699177138335225"><ele>55.0</ele><time>2026-04-25T15:44:01Z</time></trkpt><trkpt lat="43.28945830645542" lon="10.699187111766555"><ele>55.0</ele><time>2026-04-25T15:44:02Z</time></trkpt><trkpt lat="43.289618330332715" lon="10.699197668635183"><ele>55.0</ele><time>2026-04-25T15:44:03Z</time></trkpt><trkpt lat="43.28977511646856" lon="10.699209101946474"><ele>55.0</ele><time>2026-04-25T15:44:04Z</time></trkpt><trkpt lat="43.289933643936905" lon="10.69921148111811"><ele>54.33333333333333</ele><time>2026-04-25T15:44:05Z</time></trkpt><trkpt lat="43.29009435661228" lon="10.69924328661945"><ele>53.66666666666667</ele><time>2026-04-25T15:44:06Z</time></trkpt><trkpt lat="43.29025586081389" lon="10.699233811207113"><ele>53.0</ele><time>2026-04-25T15:44:07Z</time></trkpt><trkpt lat="43.29042122394951" lon="10.699243345522506"><ele>53.0</ele><time>2026-04-25T15:44:08Z</time></trkpt><trkpt lat="43.29058157808682" lon="10.699250376263244"><ele>53.0</ele><time>2026-04-25T15:44:09Z</time></trkpt><trkpt lat="43.29074246675782" lon="10.699263024559029"><ele>53.0</ele><time>2026-04-25T15:44:10Z</time></trkpt><trkpt lat="43.29089395530546" lon="10.699276581033741"><ele>52.75</ele><time>2026-04-25T15:44:11Z</time></trkpt><trkpt lat="43.291042291898236" lon="10.69928697317343"><ele>52.5</ele><time>2026-04-25T15:44:12Z</time></trkpt><trkpt lat="43.291180879495045" lon="10.699291671881385"><ele>52.25</ele><time>2026-04-25T15:44:13Z</time></trkpt><trkpt lat="43.29132701473627" lon="10.69929922305592"><ele>52.0</ele><time>2026-04-25T15:44:14Z</time></trkpt><trkpt lat="43.29147939911256" lon="10.699296396496429"><ele>52.0</ele><time>2026-04-25T15:44:15Z</time></trkpt><trkpt lat="43.291634248529846" lon="10.699287368530092"><ele>52.0</ele><time>2026-04-25T15:44:16Z</time></trkpt><trkpt lat="43.29179214130915" lon="10.699255087458646"><ele>52.0</ele><time>2026-04-25T15:44:17Z</time></trkpt><trkpt lat="43.29195306321022" lon="10.699198000242482"><ele>52.0</ele><time>2026-04-25T15:44:18Z</time></trkpt><trkpt lat="43.29211449399616" lon="10.699131761512083"><ele>52.0</ele><time>2026-04-25T15:44:19Z</time></trkpt><trkpt lat="43.29227211590949" lon="10.699060499755516"><ele>52.0</ele><time>2026-04-25T15:44:20Z</time></trkpt><trkpt lat="43.29243062201345" lon="10.698988894243765"><ele>54.0</ele><time>2026-04-25T15:44:21Z</time></trkpt><trkpt lat="43.2925888991523" lon="10.69892016671786"><ele>56.0</ele><time>2026-04-25T15:44:22Z</time></trkpt><trkpt lat="43.2927488189938" lon="10.698853083339927"><ele>58.0</ele><time>2026-04-25T15:44:23Z</time></trkpt><trkpt lat="43.29290606207739" lon="10.698784463093903"><ele>58.0</ele><time>2026-04-25T15:44:24Z</time></trkpt><trkpt lat="43.293059394861984" lon="10.698714519057042"><ele>58.0</ele><time>2026-04-25T15:44:25Z</time></trkpt><trkpt lat="43.29320397371281" lon="10.698648412687271"><ele>58.0</ele><time>2026-04-25T15:44:26Z</time></trkpt><trkpt lat="43.293344810001244" lon="10.698581488055947"><ele>55.666666666666664</ele><time>2026-04-25T15:44:27Z</time></trkpt><trkpt lat="43.2934922564579" lon="10.698514489144776"><ele>53.33333333333333</ele><time>2026-04-25T15:44:28Z</time></trkpt><trkpt lat="43.2936396969059" lon="10.698442148710402"><ele>51.0</ele><time>2026-04-25T15:44:29Z</time></trkpt><trkpt lat="43.293786728071545" lon="10.698353687070032"><ele>51.0</ele><time>2026-04-25T15:44:30Z</time></trkpt><trkpt lat="43.293933299681754" lon="10.698249958979158"><ele>51.0</ele><time>2026-04-25T15:44:31Z</time></trkpt><trkpt lat="43.29407777807448" lon="10.698131447549011"><ele>51.0</ele><time>2026-04-25T15:44:32Z</time></trkpt><trkpt lat="43.29422196249673" lon="10.69800538787017"><ele>51.0</ele><time>2026-04-25T15:44:33Z</time></trkpt><trkpt lat="43.29436940846794" lon="10.697892547686857"><ele>51.0</ele><time>2026-04-25T15:44:34Z</time></trkpt><trkpt lat="43.294503318737064" lon="10.697749266784735"><ele>51.0</ele><time>2026-04-25T15:44:35Z</time></trkpt><trkpt lat="43.294645908278845" lon="10.69762410111458"><ele>51.0</ele><time>2026-04-25T15:44:36Z</time></trkpt><trkpt lat="43.2947914898722" lon="10.697491309723482"><ele>51.0</ele><time>2026-04-25T15:44:37Z</time></trkpt><trkpt lat="43.29493456781217" lon="10.69735630921245"><ele>51.0</ele><time>2026-04-25T15:44:38Z</time></trkpt><trkpt lat="43.29508221410562" lon="10.69722741947867"><ele>51.0</ele><time>2026-04-25T15:44:39Z</time></trkpt><trkpt lat="43.29522741231985" lon="10.697095827344485"><ele>51.0</ele><time>2026-04-25T15:44:40Z</time></trkpt><trkpt lat="43.295374026837635" lon="10.69696513732329"><ele>51.0</ele><time>2026-04-25T15:44:41Z</time></trkpt><trkpt lat="43.29552200415914" lon="10.696834761810075"><ele>51.33333333333333</ele><time>2026-04-25T15:44:42Z</time></trkpt><trkpt lat="43.29566601828052" lon="10.696702713037038"><ele>51.666666666666664</ele><time>2026-04-25T15:44:43Z</time></trkpt><trkpt lat="43.2958107393754" lon="10.696572972227322"><ele>52.0</ele><time>2026-04-25T15:44:44Z</time></trkpt><trkpt lat="43.295952789205344" lon="10.696439369566901"><ele>52.0</ele><time>2026-04-25T15:44:45Z</time></trkpt><trkpt lat="43.29609665873122" lon="10.696309613481544"><ele>52.0</ele><time>2026-04-25T15:44:46Z</time></trkpt><trkpt lat="43.296240402322084" lon="10.6961865510125"><ele>52.0</ele><time>2026-04-25T15:44:47Z</time></trkpt><trkpt lat="43.29638339628749" lon="10.696067249735066"><ele>51.33333333333333</ele><time>2026-04-25T15:44:48Z</time></trkpt><trkpt lat="43.296525415454646" lon="10.695942988908214"><ele>50.66666666666667</ele><time>2026-04-25T15:44:49Z</time></trkpt><trkpt lat="43.296666850385094" lon="10.695812643987885"><ele>50.0</ele><time>2026-04-25T15:44:50Z</time></trkpt><trkpt lat="43.296809470162636" lon="10.695682944055973"><ele>50.0</ele><time>2026-04-25T15:44:51Z</time></trkpt><trkpt lat="43.29694977888401" lon="10.695553779839027"><ele>50.0</ele><time>2026-04-25T15:44:52Z</time></trkpt><trkpt lat="43.297090699969004" lon="10.695423415085168"><ele>50.0</ele><time>2026-04-25T15:44:53Z</time></trkpt><trkpt lat="43.29723272949028" lon="10.695294059730516"><ele>50.0</ele><time>2026-04-25T15:44:54Z</time></trkpt><trkpt lat="43.29737322437625" lon="10.695165754000168"><ele>50.0</ele><time>2026-04-25T15:44:55Z</time></trkpt><trkpt lat="43.29751547200745" lon="10.695035689690561"><ele>50.0</ele><time>2026-04-25T15:44:56Z</time></trkpt><trkpt lat="43.29766188782126" lon="10.694905594999407"><ele>50.0</ele><time>2026-04-25T15:44:57Z</time></trkpt><trkpt lat="43.297806378821754" lon="10.694773909017137"><ele>50.0</ele><time>2026-04-25T15:44:58Z</time></trkpt><trkpt lat="43.297949758888706" lon="10.694642554063202"><ele>50.0</ele><time>2026-04-25T15:44:59Z</time></trkpt><trkpt lat="43.298092497735624" lon="10.694513802997847"><ele>48.66666666666667</ele><time>2026-04-25T15:45:00Z</time></trkpt><trkpt lat="43.29823501695357" lon="10.694382005294864"><ele>47.333333333333336</ele><time>2026-04-25T15:45:01Z</time></trkpt><trkpt lat="43.298377985214934" lon="10.694248739205525"><ele>46.0</ele><time>2026-04-25T15:45:02Z</time></trkpt><trkpt lat="43.298522409141704" lon="10.694120551031014"><ele>46.0</ele><time>2026-04-25T15:45:03Z</time></trkpt><trkpt lat="43.29866546839954" lon="10.693990005832768"><ele>46.0</ele><time>2026-04-25T15:45:04Z</time></trkpt><trkpt lat="43.2988100666159" lon="10.69385880947001"><ele>46.0</ele><time>2026-04-25T15:45:05Z</time></trkpt><trkpt lat="43.29895019526063" lon="10.693727779638055"><ele>46.0</ele><time>2026-04-25T15:45:06Z</time></trkpt><trkpt lat="43.29909405217836" lon="10.693593190159671"><ele>46.0</ele><time>2026-04-25T15:45:07Z</time></trkpt><trkpt lat="43.299239319257886" lon="10.693470747103804"><ele>46.0</ele><time>2026-04-25T15:45:08Z</time></trkpt><trkpt lat="43.29938461138997" lon="10.693344606810502"><ele>46.0</ele><time>2026-04-25T15:45:09Z</time></trkpt><trkpt lat="43.29953017217221" lon="10.693220049754112"><ele>46.0</ele><time>2026-04-25T15:45:10Z</time></trkpt><trkpt lat="43.299673229346816" lon="10.69309349425468"><ele>46.0</ele><time>2026-04-25T15:45:11Z</time></trkpt><trkpt lat="43.2998174377501" lon="10.692961156616146"><ele>46.333333333333336</ele><time>2026-04-25T15:45:12Z</time></trkpt><trkpt lat="43.29995980222869" lon="10.69283444916917"><ele>46.666666666666664</ele><time>2026-04-25T15:45:13Z</time></trkpt><trkpt lat="43.30010155354997" lon="10.692712108627532"><ele>47.0</ele><time>2026-04-25T15:45:14Z</time></trkpt><trkpt lat="43.3002437516891" lon="10.692582804936757"><ele>47.0</ele><time>2026-04-25T15:45:15Z</time></trkpt><trkpt lat="43.300383968857965" lon="10.69244961285805"><ele>47.0</ele><time>2026-04-25T15:45:16Z</time></trkpt><trkpt lat="43.30052188859537" lon="10.692312004476861"><ele>47.0</ele><time>2026-04-25T15:45:17Z</time></trkpt><trkpt lat="43.30065439617249" lon="10.692170348495765"><ele>47.666666666666664</ele><time>2026-04-25T15:45:18Z</time></trkpt><trkpt lat="43.30077815864044" lon="10.692017682815033"><ele>48.33333333333333</ele><time>2026-04-25T15:45:19Z</time></trkpt><trkpt lat="43.300897288139126" lon="10.69184771811695"><ele>49.0</ele><time>2026-04-25T15:45:20Z</time></trkpt><trkpt lat="43.301011707401365" lon="10.6916723155761"><ele>49.0</ele><time>2026-04-25T15:45:21Z</time></trkpt><trkpt lat="43.301122436684" lon="10.691488909936323"><ele>49.0</ele><time>2026-04-25T15:45:22Z</time></trkpt><trkpt lat="43.3012347820652" lon="10.691306390033185"><ele>49.0</ele><time>2026-04-25T15:45:23Z</time></trkpt><trkpt lat="43.30134396665608" lon="10.69112500054518"><ele>48.666666666666664</ele><time>2026-04-25T15:45:24Z</time></trkpt><trkpt lat="43.30145072157439" lon="10.690941688664173"><ele>48.33333333333333</ele><time>2026-04-25T15:45:25Z</time></trkpt><trkpt lat="43.301558377259646" lon="10.69076066060367"><ele>48.0</ele><time>2026-04-25T15:45:26Z</time></trkpt><trkpt lat="43.30166714505564" lon="10.690578475771183"><ele>48.0</ele><time>2026-04-25T15:45:27Z</time></trkpt><trkpt lat="43.30177499972684" lon="10.690399044757898"><ele>48.0</ele><time>2026-04-25T15:45:28Z</time></trkpt><trkpt lat="43.30188494456768" lon="10.69021526693884"><ele>48.0</ele><time>2026-04-25T15:45:29Z</time></trkpt><trkpt lat="43.30200185280579" lon="10.690037326030643"><ele>46.666666666666664</ele><time>2026-04-25T15:45:30Z</time></trkpt><trkpt lat="43.30211739504741" lon="10.689858144249428"><ele>45.33333333333333</ele><time>2026-04-25T15:45:31Z</time></trkpt><trkpt lat="43.302231833525056" lon="10.689677802986212"><ele>44.0</ele><time>2026-04-25T15:45:32Z</time></trkpt><trkpt lat="43.302351056721065" lon="10.689502236898253"><ele>44.666666666666664</ele><time>2026-04-25T15:45:33Z</time></trkpt><trkpt lat="43.30247277293146" lon="10.689333000128844"><ele>45.333333333333336</ele><time>2026-04-25T15:45:34Z</time></trkpt><trkpt lat="43.30260381671365" lon="10.689170001817294"><ele>46.0</ele><time>2026-04-25T15:45:35Z</time></trkpt><trkpt lat="43.30273815497984" lon="10.689017961713203"><ele>46.0</ele><time>2026-04-25T15:45:36Z</time></trkpt><trkpt lat="43.30287760722875" lon="10.688869818691185"><ele>46.0</ele><time>2026-04-25T15:45:37Z</time></trkpt><trkpt lat="43.30301384346705" lon="10.688724521507684"><ele>46.0</ele><time>2026-04-25T15:45:38Z</time></trkpt><trkpt lat="43.30315106710873" lon="10.6885776748435"><ele>46.0</ele><time>2026-04-25T15:45:39Z</time></trkpt><trkpt lat="43.303288660722544" lon="10.688431574525286"><ele>46.0</ele><time>2026-04-25T15:45:40Z</time></trkpt><trkpt lat="43.30342519782663" lon="10.688287378822507"><ele>46.0</ele><time>2026-04-25T15:45:41Z</time></trkpt><trkpt lat="43.303565291404766" lon="10.688137213150833"><ele>46.0</ele><time>2026-04-25T15:45:42Z</time></trkpt><trkpt lat="43.30370343919716" lon="10.68799583153057"><ele>46.0</ele><time>2026-04-25T15:45:43Z</time></trkpt><trkpt lat="43.30383951980802" lon="10.687850505483858"><ele>46.0</ele><time>2026-04-25T15:45:44Z</time></trkpt><trkpt lat="43.30397901024087" lon="10.687702589947689"><ele>46.66666666666667</ele><time>2026-04-25T15:45:45Z</time></trkpt><trkpt lat="43.304120015468676" lon="10.687557337491178"><ele>47.333333333333336</ele><time>2026-04-25T15:45:46Z</time></trkpt><trkpt lat="43.30425808066532" lon="10.687408746856642"><ele>48.0</ele><time>2026-04-25T15:45:47Z</time></trkpt><trkpt lat="43.30439591440439" lon="10.687259859713668"><ele>48.0</ele><time>2026-04-25T15:45:48Z</time></trkpt><trkpt lat="43.30453118506478" lon="10.687114359837725"><ele>48.0</ele><time>2026-04-25T15:45:49Z</time></trkpt><trkpt lat="43.30466732908842" lon="10.686971204559136"><ele>48.0</ele><time>2026-04-25T15:45:50Z</time></trkpt><trkpt lat="43.30480346959491" lon="10.686824694284319"><ele>47.333333333333336</ele><time>2026-04-25T15:45:51Z</time></trkpt><trkpt lat="43.30493901994593" lon="10.686678007002916"><ele>46.66666666666667</ele><time>2026-04-25T15:45:52Z</time></trkpt><trkpt lat="43.305075786111516" lon="10.686532167228771"><ele>46.0</ele><time>2026-04-25T15:45:53Z</time></trkpt><trkpt lat="43.305214747887696" lon="10.686389936986654"><ele>46.0</ele><time>2026-04-25T15:45:54Z</time></trkpt><trkpt lat="43.305350394504195" lon="10.686245567454433"><ele>46.0</ele><time>2026-04-25T15:45:55Z</time></trkpt><trkpt lat="43.30548386973692" lon="10.686093737016918"><ele>46.0</ele><time>2026-04-25T15:45:56Z</time></trkpt><trkpt lat="43.30561434025749" lon="10.685932948291345"><ele>45.66666666666667</ele><time>2026-04-25T15:45:57Z</time></trkpt><trkpt lat="43.30573542979995" lon="10.685766007943341"><ele>45.333333333333336</ele><time>2026-04-25T15:45:58Z</time></trkpt><trkpt lat="43.305849501038445" lon="10.685583586997346"><ele>45.0</ele><time>2026-04-25T15:45:59Z</time></trkpt><trkpt lat="43.3059554917847" lon="10.685397173731396"><ele>44.333333333333336</ele><time>2026-04-25T15:46:00Z</time></trkpt><trkpt lat="43.30606036457514" lon="10.685205512013493"><ele>43.66666666666667</ele><time>2026-04-25T15:46:01Z</time></trkpt><trkpt lat="43.30616461011238" lon="10.685017339646855"><ele>43.0</ele><time>2026-04-25T15:46:02Z</time></trkpt><trkpt lat="43.30627362058181" lon="10.684816846981484"><ele>43.0</ele><time>2026-04-25T15:46:03Z</time></trkpt><trkpt lat="43.30637653241149" lon="10.68463113023396"><ele>43.0</ele><time>2026-04-25T15:46:04Z</time></trkpt><trkpt lat="43.306479061897825" lon="10.68443772125281"><ele>43.0</ele><time>2026-04-25T15:46:05Z</time></trkpt><trkpt lat="43.30658007183742" lon="10.684246989610527"><ele>43.333333333333336</ele><time>2026-04-25T15:46:06Z</time></trkpt><trkpt lat="43.3066820542512" lon="10.684055883749343"><ele>43.666666666666664</ele><time>2026-04-25T15:46:07Z</time></trkpt><trkpt lat="43.30678296380685" lon="10.683865022513556"><ele>44.0</ele><time>2026-04-25T15:46:08Z</time></trkpt><trkpt lat="43.30688297892703" lon="10.683676417647103"><ele>43.666666666666664</ele><time>2026-04-25T15:46:09Z</time></trkpt><trkpt lat="43.30698209657946" lon="10.683488714239077"><ele>43.333333333333336</ele><time>2026-04-25T15:46:10Z</time></trkpt><trkpt lat="43.30708381051361" lon="10.683300990979443"><ele>43.0</ele><time>2026-04-25T15:46:11Z</time></trkpt><trkpt lat="43.3071856400176" lon="10.68311075366135"><ele>45.0</ele><time>2026-04-25T15:46:12Z</time></trkpt><trkpt lat="43.30728677895356" lon="10.68291844040506"><ele>47.0</ele><time>2026-04-25T15:46:13Z</time></trkpt><trkpt lat="43.30739006820807" lon="10.682726801668643"><ele>49.0</ele><time>2026-04-25T15:46:14Z</time></trkpt><trkpt lat="43.30749311501967" lon="10.682536547344222"><ele>49.0</ele><time>2026-04-25T15:46:15Z</time></trkpt><trkpt lat="43.30759578277526" lon="10.682345271974494"><ele>49.0</ele><time>2026-04-25T15:46:16Z</time></trkpt><trkpt lat="43.30769832193869" lon="10.682157895865444"><ele>49.0</ele><time>2026-04-25T15:46:17Z</time></trkpt><trkpt lat="43.307798388068754" lon="10.68197061990551"><ele>47.0</ele><time>2026-04-25T15:46:18Z</time></trkpt><trkpt lat="43.30790101528026" lon="10.681782362545734"><ele>45.0</ele><time>2026-04-25T15:46:19Z</time></trkpt><trkpt lat="43.30801187713851" lon="10.681592697763268"><ele>43.0</ele><time>2026-04-25T15:46:20Z</time></trkpt><trkpt lat="43.30813416614117" lon="10.68142505830057"><ele>43.0</ele><time>2026-04-25T15:46:21Z</time></trkpt><trkpt lat="43.30826243104304" lon="10.681255794597964"><ele>43.0</ele><time>2026-04-25T15:46:22Z</time></trkpt><trkpt lat="43.30839093022928" lon="10.681096602810898"><ele>43.0</ele><time>2026-04-25T15:46:23Z</time></trkpt><trkpt lat="43.30852283682022" lon="10.680937470994383"><ele>43.0</ele><time>2026-04-25T15:46:24Z</time></trkpt><trkpt lat="43.308659324084346" lon="10.68077942153455"><ele>43.0</ele><time>2026-04-25T15:46:25Z</time></trkpt><trkpt lat="43.30879449666838" lon="10.68062017149054"><ele>43.0</ele><time>2026-04-25T15:46:26Z</time></trkpt><trkpt lat="43.30892697231423" lon="10.68045943683942"><ele>42.66666666666667</ele><time>2026-04-25T15:46:27Z</time></trkpt><trkpt lat="43.30905933966368" lon="10.680299076894483"><ele>42.333333333333336</ele><time>2026-04-25T15:46:28Z</time></trkpt><trkpt lat="43.30919429885492" lon="10.680143291463871"><ele>42.0</ele><time>2026-04-25T15:46:29Z</time></trkpt><trkpt lat="43.309327289304804" lon="10.679980615728764"><ele>41.333333333333336</ele><time>2026-04-25T15:46:30Z</time></trkpt><trkpt lat="43.309458689930835" lon="10.679822201016202"><ele>40.66666666666667</ele><time>2026-04-25T15:46:31Z</time></trkpt><trkpt lat="43.30959061462018" lon="10.679668273002816"><ele>40.0</ele><time>2026-04-25T15:46:32Z</time></trkpt><trkpt lat="43.30972065510661" lon="10.679513245332688"><ele>39.66666666666667</ele><time>2026-04-25T15:46:33Z</time></trkpt><trkpt lat="43.30985431949437" lon="10.679360355584016"><ele>39.333333333333336</ele><time>2026-04-25T15:46:34Z</time></trkpt><trkpt lat="43.30998894181225" lon="10.679202003358881"><ele>39.0</ele><time>2026-04-25T15:46:35Z</time></trkpt><trkpt lat="43.3101173842982" lon="10.679044900647932"><ele>39.0</ele><time>2026-04-25T15:46:36Z</time></trkpt><trkpt lat="43.310246956408726" lon="10.678889124302199"><ele>39.0</ele><time>2026-04-25T15:46:37Z</time></trkpt><trkpt lat="43.310381732185" lon="10.6787313615149"><ele>39.0</ele><time>2026-04-25T15:46:38Z</time></trkpt><trkpt lat="43.310511962912095" lon="10.678573679340445"><ele>39.0</ele><time>2026-04-25T15:46:39Z</time></trkpt><trkpt lat="43.3106440951029" lon="10.67841267994563"><ele>39.0</ele><time>2026-04-25T15:46:40Z</time></trkpt><trkpt lat="43.31077947601439" lon="10.678252970884062"><ele>39.0</ele><time>2026-04-25T15:46:41Z</time></trkpt><trkpt lat="43.31091568528978" lon="10.678094505796086"><ele>39.0</ele><time>2026-04-25T15:46:42Z</time></trkpt><trkpt lat="43.311048177616286" lon="10.677934805582481"><ele>39.0</ele><time>2026-04-25T15:46:43Z</time></trkpt><trkpt lat="43.31118242127063" lon="10.67778077142396"><ele>39.0</ele><time>2026-04-25T15:46:44Z</time></trkpt><trkpt lat="43.31131390014225" lon="10.677628543863117"><ele>38.333333333333336</ele><time>2026-04-25T15:46:45Z</time></trkpt><trkpt lat="43.31144711641307" lon="10.677473999616979"><ele>37.66666666666667</ele><time>2026-04-25T15:46:46Z</time></trkpt><trkpt lat="43.31157841866928" lon="10.677317417776054"><ele>37.0</ele><time>2026-04-25T15:46:47Z</time></trkpt><trkpt lat="43.31169900638469" lon="10.677173557161229"><ele>37.0</ele><time>2026-04-25T15:46:48Z</time></trkpt><trkpt lat="43.311812312459054" lon="10.677034331413953"><ele>37.0</ele><time>2026-04-25T15:46:49Z</time></trkpt><trkpt lat="43.31192615246724" lon="10.676900725561895"><ele>37.0</ele><time>2026-04-25T15:46:50Z</time></trkpt><trkpt lat="43.31203298632341" lon="10.676771910287389"><ele>37.0</ele><time>2026-04-25T15:46:51Z</time></trkpt><trkpt lat="43.31213993033826" lon="10.676650593218397"><ele>37.25</ele><time>2026-04-25T15:46:52Z</time></trkpt><trkpt lat="43.31224333514203" lon="10.676525429985245"><ele>37.5</ele><time>2026-04-25T15:46:53Z</time></trkpt><trkpt lat="43.31234656930335" lon="10.676403347497658"><ele>37.75</ele><time>2026-04-25T15:46:54Z</time></trkpt><trkpt lat="43.31245866216032" lon="10.676273380466858"><ele>38.0</ele><time>2026-04-25T15:46:55Z</time></trkpt><trkpt lat="43.31257319521577" lon="10.676140588182134"><ele>38.33333333333333</ele><time>2026-04-25T15:46:56Z</time></trkpt><trkpt lat="43.312687449791234" lon="10.676004740426395"><ele>38.666666666666664</ele><time>2026-04-25T15:46:57Z</time></trkpt><trkpt lat="43.312808202935855" lon="10.675860020283057"><ele>39.0</ele><time>2026-04-25T15:46:58Z</time></trkpt><trkpt lat="43.312924557493126" lon="10.67571729145373"><ele>39.0</ele><time>2026-04-25T15:46:59Z</time></trkpt><trkpt lat="43.3130465447972" lon="10.675573188122948"><ele>39.0</ele><time>2026-04-25T15:47:00Z</time></trkpt><trkpt lat="43.31317158286544" lon="10.675425266015012"><ele>39.0</ele><time>2026-04-25T15:47:01Z</time></trkpt><trkpt lat="43.31329644921111" lon="10.67527356155103"><ele>39.666666666666664</ele><time>2026-04-25T15:47:02Z</time></trkpt><trkpt lat="43.31342314106239" lon="10.675123925997392"><ele>40.33333333333333</ele><time>2026-04-25T15:47:03Z</time></trkpt><trkpt lat="43.31354942438082" lon="10.674977291118962"><ele>41.0</ele><time>2026-04-25T15:47:04Z</time></trkpt><trkpt lat="43.31367428547586" lon="10.67481818122681"><ele>41.0</ele><time>2026-04-25T15:47:05Z</time></trkpt><trkpt lat="43.313794416141604" lon="10.67467017075474"><ele>41.0</ele><time>2026-04-25T15:47:06Z</time></trkpt><trkpt lat="43.31391296336341" lon="10.674525356971861"><ele>41.0</ele><time>2026-04-25T15:47:07Z</time></trkpt><trkpt lat="43.31403531164962" lon="10.67438730952465"><ele>40.0</ele><time>2026-04-25T15:47:08Z</time></trkpt><trkpt lat="43.31415922970114" lon="10.674253930912164"><ele>39.0</ele><time>2026-04-25T15:47:09Z</time></trkpt><trkpt lat="43.31427988342592" lon="10.674115252514744"><ele>38.0</ele><time>2026-04-25T15:47:10Z</time></trkpt><trkpt lat="43.314400159449484" lon="10.673981315094833"><ele>38.0</ele><time>2026-04-25T15:47:11Z</time></trkpt><trkpt lat="43.31452737053876" lon="10.673850144728073"><ele>38.0</ele><time>2026-04-25T15:47:12Z</time></trkpt><trkpt lat="43.31465904841123" lon="10.673718030321107"><ele>38.0</ele><time>2026-04-25T15:47:13Z</time></trkpt><trkpt lat="43.314792070188496" lon="10.673587923442025"><ele>39.0</ele><time>2026-04-25T15:47:14Z</time></trkpt><trkpt lat="43.314928620158355" lon="10.673461584916051"><ele>40.0</ele><time>2026-04-25T15:47:15Z</time></trkpt><trkpt lat="43.31506832090686" lon="10.673335251925426"><ele>41.0</ele><time>2026-04-25T15:47:16Z</time></trkpt><trkpt lat="43.31521027766322" lon="10.673208127067188"><ele>41.0</ele><time>2026-04-25T15:47:17Z</time></trkpt><trkpt lat="43.31535059628417" lon="10.673081701760943"><ele>41.0</ele><time>2026-04-25T15:47:18Z</time></trkpt><trkpt lat="43.31549948704994" lon="10.672961297031902"><ele>41.0</ele><time>2026-04-25T15:47:19Z</time></trkpt><trkpt lat="43.315643763326776" lon="10.672835987169732"><ele>40.33333333333333</ele><time>2026-04-25T15:47:20Z</time></trkpt><trkpt lat="43.31578587200437" lon="10.672706879458866"><ele>39.666666666666664</ele><time>2026-04-25T15:47:21Z</time></trkpt><trkpt lat="43.31592593378652" lon="10.672579515888465"><ele>39.0</ele><time>2026-04-25T15:47:22Z</time></trkpt><trkpt lat="43.31606924026741" lon="10.672453790669174"><ele>39.0</ele><time>2026-04-25T15:47:23Z</time></trkpt><trkpt lat="43.316211198779946" lon="10.672327792307405"><ele>39.0</ele><time>2026-04-25T15:47:24Z</time></trkpt><trkpt lat="43.31635266049414" lon="10.67220395474558"><ele>39.0</ele><time>2026-04-25T15:47:25Z</time></trkpt><trkpt lat="43.31649654102221" lon="10.672080541905263"><ele>39.0</ele><time>2026-04-25T15:47:26Z</time></trkpt><trkpt lat="43.3166388674145" lon="10.67195951973302"><ele>39.0</ele><time>2026-04-25T15:47:27Z</time></trkpt><trkpt lat="43.316781072252596" lon="10.671836760054775"><ele>39.0</ele><time>2026-04-25T15:47:28Z</time></trkpt><trkpt lat="43.31691880472577" lon="10.671713913807844"><ele>39.0</ele><time>2026-04-25T15:47:29Z</time></trkpt><trkpt lat="43.31705931772771" lon="10.671596395224606"><ele>39.0</ele><time>2026-04-25T15:47:30Z</time></trkpt><trkpt lat="43.317206960265494" lon="10.671471783690937"><ele>39.0</ele><time>2026-04-25T15:47:31Z</time></trkpt><trkpt lat="43.31734969040084" lon="10.671353559510388"><ele>38.666666666666664</ele><time>2026-04-25T15:47:32Z</time></trkpt><trkpt lat="43.31749285672832" lon="10.671246785878132"><ele>38.33333333333333</ele><time>2026-04-25T15:47:33Z</time></trkpt><trkpt lat="43.317639236458824" lon="10.671141518112844"><ele>38.0</ele><time>2026-04-25T15:47:34Z</time></trkpt><trkpt lat="43.31778238423734" lon="10.671039398570823"><ele>37.666666666666664</ele><time>2026-04-25T15:47:35Z</time></trkpt><trkpt lat="43.31792061985061" lon="10.67094425478061"><ele>37.333333333333336</ele><time>2026-04-25T15:47:36Z</time></trkpt><trkpt lat="43.318057395042565" lon="10.670859605054945"><ele>37.0</ele><time>2026-04-25T15:47:37Z</time></trkpt><trkpt lat="43.31819583794633" lon="10.670775194004296"><ele>36.66666666666667</ele><time>2026-04-25T15:47:38Z</time></trkpt><trkpt lat="43.31834007043799" lon="10.670693864023745"><ele>36.333333333333336</ele><time>2026-04-25T15:47:39Z</time></trkpt><trkpt lat="43.31848575415617" lon="10.670618472740923"><ele>36.0</ele><time>2026-04-25T15:47:40Z</time></trkpt><trkpt lat="43.31863443002313" lon="10.670546564838185"><ele>36.0</ele><time>2026-04-25T15:47:41Z</time></trkpt><trkpt lat="43.31878398341969" lon="10.670477666654417"><ele>36.0</ele><time>2026-04-25T15:47:42Z</time></trkpt><trkpt lat="43.31893493336131" lon="10.670406963991473"><ele>36.0</ele><time>2026-04-25T15:47:43Z</time></trkpt><trkpt lat="43.3190854889984" lon="10.67034476891889"><ele>36.0</ele><time>2026-04-25T15:47:44Z</time></trkpt><trkpt lat="43.31924491116997" lon="10.670284077009077"><ele>36.0</ele><time>2026-04-25T15:47:45Z</time></trkpt><trkpt lat="43.319398032050465" lon="10.670224352169438"><ele>36.0</ele><time>2026-04-25T15:47:46Z</time></trkpt><trkpt lat="43.31955241292275" lon="10.670173984372251"><ele>35.666666666666664</ele><time>2026-04-25T15:47:47Z</time></trkpt><trkpt lat="43.31971098562171" lon="10.670124328837428"><ele>35.33333333333333</ele><time>2026-04-25T15:47:48Z</time></trkpt><trkpt lat="43.31986939076421" lon="10.670084314287559"><ele>35.0</ele><time>2026-04-25T15:47:49Z</time></trkpt><trkpt lat="43.32003182891182" lon="10.670046137179517"><ele>35.666666666666664</ele><time>2026-04-25T15:47:50Z</time></trkpt><trkpt lat="43.320190293040376" lon="10.670010306581542"><ele>36.333333333333336</ele><time>2026-04-25T15:47:51Z</time></trkpt><trkpt lat="43.32035483921813" lon="10.66997613701331"><ele>37.0</ele><time>2026-04-25T15:47:52Z</time></trkpt><trkpt lat="43.320519564187606" lon="10.66994508322162"><ele>37.0</ele><time>2026-04-25T15:47:53Z</time></trkpt><trkpt lat="43.32068722717506" lon="10.669920937954991"><ele>37.0</ele><time>2026-04-25T15:47:54Z</time></trkpt><trkpt lat="43.32085770016188" lon="10.669906092022785"><ele>37.0</ele><time>2026-04-25T15:47:55Z</time></trkpt><trkpt lat="43.32102661000049" lon="10.669901913312106"><ele>37.0</ele><time>2026-04-25T15:47:56Z</time></trkpt><trkpt lat="43.32120089339015" lon="10.669894245329026"><ele>37.0</ele><time>2026-04-25T15:47:57Z</time></trkpt><trkpt lat="43.32137290915401" lon="10.669885861880951"><ele>37.0</ele><time>2026-04-25T15:47:58Z</time></trkpt><trkpt lat="43.32153924988017" lon="10.669882703240418"><ele>37.0</ele><time>2026-04-25T15:47:59Z</time></trkpt><trkpt lat="43.32170544893337" lon="10.669878608317397"><ele>37.0</ele><time>2026-04-25T15:48:00Z</time></trkpt><trkpt lat="43.32187415047246" lon="10.669877153867684"><ele>37.0</ele><time>2026-04-25T15:48:01Z</time></trkpt><trkpt lat="43.322045676561714" lon="10.669875095477916"><ele>37.0</ele><time>2026-04-25T15:48:02Z</time></trkpt><trkpt lat="43.3222159938673" lon="10.669880641565479"><ele>37.0</ele><time>2026-04-25T15:48:03Z</time></trkpt><trkpt lat="43.32237552352024" lon="10.669877038607511"><ele>37.0</ele><time>2026-04-25T15:48:04Z</time></trkpt><trkpt lat="43.322527438669155" lon="10.669882245097241"><ele>37.333333333333336</ele><time>2026-04-25T15:48:05Z</time></trkpt><trkpt lat="43.3226803207402" lon="10.669883089654437"><ele>37.666666666666664</ele><time>2026-04-25T15:48:06Z</time></trkpt><trkpt lat="43.322830698657114" lon="10.66987632132967"><ele>38.0</ele><time>2026-04-25T15:48:07Z</time></trkpt><trkpt lat="43.32298569028165" lon="10.669873874169456"><ele>37.0</ele><time>2026-04-25T15:48:08Z</time></trkpt><trkpt lat="43.323137574593936" lon="10.669870757995907"><ele>36.0</ele><time>2026-04-25T15:48:09Z</time></trkpt><trkpt lat="43.32328349896881" lon="10.669867377171725"><ele>35.0</ele><time>2026-04-25T15:48:10Z</time></trkpt><trkpt lat="43.323434970044175" lon="10.66986462256991"><ele>34.0</ele><time>2026-04-25T15:48:11Z</time></trkpt><trkpt lat="43.323581362538846" lon="10.66985923222952"><ele>34.0</ele><time>2026-04-25T15:48:12Z</time></trkpt><trkpt lat="43.32372852310878" lon="10.669855920258748"><ele>34.0</ele><time>2026-04-25T15:48:13Z</time></trkpt><trkpt lat="43.32387461433717" lon="10.66985549805104"><ele>34.0</ele><time>2026-04-25T15:48:14Z</time></trkpt><trkpt lat="43.324023876831646" lon="10.66985634057481"><ele>34.0</ele><time>2026-04-25T15:48:15Z</time></trkpt><trkpt lat="43.324181610672085" lon="10.669855637619952"><ele>34.66666666666667</ele><time>2026-04-25T15:48:16Z</time></trkpt><trkpt lat="43.324338809038835" lon="10.669869408447884"><ele>35.333333333333336</ele><time>2026-04-25T15:48:17Z</time></trkpt><trkpt lat="43.32450245909623" lon="10.669878263343465"><ele>36.0</ele><time>2026-04-25T15:48:18Z</time></trkpt><trkpt lat="43.32467031180668" lon="10.66989679771929"><ele>36.0</ele><time>2026-04-25T15:48:19Z</time></trkpt><trkpt lat="43.324835802417915" lon="10.669925713619554"><ele>36.0</ele><time>2026-04-25T15:48:20Z</time></trkpt><trkpt lat="43.32499816328303" lon="10.66996216294377"><ele>36.0</ele><time>2026-04-25T15:48:21Z</time></trkpt><trkpt lat="43.325163459275316" lon="10.669992638635327"><ele>36.0</ele><time>2026-04-25T15:48:22Z</time></trkpt><trkpt lat="43.325330042266536" lon="10.670027202298147"><ele>36.0</ele><time>2026-04-25T15:48:23Z</time></trkpt><trkpt lat="43.3254945241689" lon="10.670054325569875"><ele>36.0</ele><time>2026-04-25T15:48:24Z</time></trkpt><trkpt lat="43.3256586719683" lon="10.670092184073264"><ele>36.0</ele><time>2026-04-25T15:48:25Z</time></trkpt><trkpt lat="43.32581952881402" lon="10.670123462843883"><ele>36.0</ele><time>2026-04-25T15:48:26Z</time></trkpt><trkpt lat="43.32598034495978" lon="10.670156116767341"><ele>36.0</ele><time>2026-04-25T15:48:27Z</time></trkpt><trkpt lat="43.32614029323267" lon="10.670188511028869"><ele>36.0</ele><time>2026-04-25T15:48:28Z</time></trkpt><trkpt lat="43.32630031121228" lon="10.670216700401184"><ele>36.0</ele><time>2026-04-25T15:48:29Z</time></trkpt><trkpt lat="43.32646320391367" lon="10.670245283580664"><ele>36.0</ele><time>2026-04-25T15:48:30Z</time></trkpt><trkpt lat="43.32662004112234" lon="10.6702710793131"><ele>36.5</ele><time>2026-04-25T15:48:31Z</time></trkpt><trkpt lat="43.32677158865432" lon="10.670291979367358"><ele>37.0</ele><time>2026-04-25T15:48:32Z</time></trkpt><trkpt lat="43.32690755674211" lon="10.67031991059338"><ele>37.5</ele><time>2026-04-25T15:48:33Z</time></trkpt><trkpt lat="43.32704685467553" lon="10.670345759896945"><ele>38.0</ele><time>2026-04-25T15:48:34Z</time></trkpt><trkpt lat="43.32718469922514" lon="10.670374129646687"><ele>37.8</ele><time>2026-04-25T15:48:35Z</time></trkpt><trkpt lat="43.32731776833747" lon="10.670399290786492"><ele>37.599999999999994</ele><time>2026-04-25T15:48:36Z</time></trkpt><trkpt lat="43.32742898757811" lon="10.670437349985677"><ele>37.400000000000006</ele><time>2026-04-25T15:48:37Z</time></trkpt><trkpt lat="43.32753407282227" lon="10.670451200334078"><ele>37.2</ele><time>2026-04-25T15:48:38Z</time></trkpt><trkpt lat="43.32762496727209" lon="10.67046522177808"><ele>37.0</ele><time>2026-04-25T15:48:39Z</time></trkpt><trkpt lat="43.327707901672945" lon="10.670475800180503"><ele>37.0</ele><time>2026-04-25T15:48:40Z</time></trkpt><trkpt lat="43.327785153529014" lon="10.670493763892244"><ele>37.0</ele><time>2026-04-25T15:48:41Z</time></trkpt><trkpt lat="43.32790605642604" lon="10.670512656169903"><ele>37.0</ele><time>2026-04-25T15:48:43Z</time></trkpt><trkpt lat="43.32797798529929" lon="10.670523799271795"><ele>37.0</ele><time>2026-04-25T15:48:44Z</time></trkpt><trkpt lat="43.32806019025114" lon="10.670537107214722"><ele>37.0</ele><time>2026-04-25T15:48:45Z</time></trkpt><trkpt lat="43.32813824376571" lon="10.670569735009778"><ele>37.0</ele><time>2026-04-25T15:48:46Z</time></trkpt><trkpt lat="43.32822960066269" lon="10.67059027101204"><ele>36.800000000000004</ele><time>2026-04-25T15:48:47Z</time></trkpt><trkpt lat="43.328324174744424" lon="10.670607164964792"><ele>36.6</ele><time>2026-04-25T15:48:48Z</time></trkpt><trkpt lat="43.328416002445515" lon="10.670620960400583"><ele>36.400000000000006</ele><time>2026-04-25T15:48:49Z</time></trkpt><trkpt lat="43.32850952137766" lon="10.670630318713783"><ele>36.2</ele><time>2026-04-25T15:48:50Z</time></trkpt><trkpt lat="43.328604320920405" lon="10.670623595537162"><ele>36.0</ele><time>2026-04-25T15:48:51Z</time></trkpt><trkpt lat="43.32870252665261" lon="10.670592386602657"><ele>36.0</ele><time>2026-04-25T15:48:52Z</time></trkpt><trkpt lat="43.328787725429876" lon="10.670548565496912"><ele>36.0</ele><time>2026-04-25T15:48:53Z</time></trkpt><trkpt lat="43.32887208959225" lon="10.670536332023753"><ele>36.0</ele><time>2026-04-25T15:48:54Z</time></trkpt><trkpt lat="43.32893518224365" lon="10.67050011155891"><ele>36.0</ele><time>2026-04-25T15:48:55Z</time></trkpt><trkpt lat="43.32900377106165" lon="10.670510516906603"><ele>36.0</ele><time>2026-04-25T15:48:56Z</time></trkpt><trkpt lat="43.32907192663632" lon="10.670549685539706"><ele>36.0</ele><time>2026-04-25T15:48:57Z</time></trkpt><trkpt lat="43.32913848798176" lon="10.670610880203101"><ele>36.2</ele><time>2026-04-25T15:48:58Z</time></trkpt><trkpt lat="43.32919972845816" lon="10.670685059542066"><ele>36.400000000000006</ele><time>2026-04-25T15:48:59Z</time></trkpt><trkpt lat="43.32927146093697" lon="10.67069539745199"><ele>36.6</ele><time>2026-04-25T15:49:00Z</time></trkpt><trkpt lat="43.329298602389805" lon="10.67088428740215"><ele>36.800000000000004</ele><time>2026-04-25T15:49:01Z</time></trkpt><trkpt lat="43.329326934062244" lon="10.671008847393143"><ele>37.0</ele><time>2026-04-25T15:49:02Z</time></trkpt><trkpt lat="43.3293483625001" lon="10.67114913245974"><ele>37.25</ele><time>2026-04-25T15:49:03Z</time></trkpt><trkpt lat="43.32937177562923" lon="10.671303386059572"><ele>37.5</ele><time>2026-04-25T15:49:04Z</time></trkpt><trkpt lat="43.32940069525679" lon="10.67146349295498"><ele>37.75</ele><time>2026-04-25T15:49:05Z</time></trkpt><trkpt lat="43.32942610748853" lon="10.671634004757456"><ele>38.0</ele><time>2026-04-25T15:49:06Z</time></trkpt><trkpt lat="43.32945175168033" lon="10.671807831431693"><ele>38.0</ele><time>2026-04-25T15:49:07Z</time></trkpt><trkpt lat="43.3294779505665" lon="10.6719906268701"><ele>38.0</ele><time>2026-04-25T15:49:08Z</time></trkpt><trkpt lat="43.32950527044631" lon="10.672172794968752"><ele>38.0</ele><time>2026-04-25T15:49:09Z</time></trkpt><trkpt lat="43.32953123114592" lon="10.672359961300108"><ele>38.0</ele><time>2026-04-25T15:49:10Z</time></trkpt><trkpt lat="43.32955716567087" lon="10.672547464719319"><ele>38.0</ele><time>2026-04-25T15:49:11Z</time></trkpt><trkpt lat="43.32958275573764" lon="10.672742209191167"><ele>38.0</ele><time>2026-04-25T15:49:12Z</time></trkpt><trkpt lat="43.329606123979865" lon="10.67293891352017"><ele>38.0</ele><time>2026-04-25T15:49:13Z</time></trkpt><trkpt lat="43.329626241658325" lon="10.673134968214802"><ele>38.0</ele><time>2026-04-25T15:49:14Z</time></trkpt><trkpt lat="43.32964631551159" lon="10.673336764806523"><ele>38.0</ele><time>2026-04-25T15:49:15Z</time></trkpt><trkpt lat="43.32966019936657" lon="10.673543790589257"><ele>38.0</ele><time>2026-04-25T15:49:16Z</time></trkpt><trkpt lat="43.32967932423535" lon="10.673762466465742"><ele>38.0</ele><time>2026-04-25T15:49:17Z</time></trkpt><trkpt lat="43.3296995628436" lon="10.673979752466328"><ele>38.0</ele><time>2026-04-25T15:49:18Z</time></trkpt><trkpt lat="43.32971486265269" lon="10.674205369056523"><ele>38.0</ele><time>2026-04-25T15:49:19Z</time></trkpt><trkpt lat="43.32973197354034" lon="10.674426777030751"><ele>38.0</ele><time>2026-04-25T15:49:20Z</time></trkpt><trkpt lat="43.329745480771535" lon="10.674645106931129"><ele>38.0</ele><time>2026-04-25T15:49:21Z</time></trkpt><trkpt lat="43.32976140221709" lon="10.674858693751966"><ele>38.0</ele><time>2026-04-25T15:49:22Z</time></trkpt><trkpt lat="43.329773751828355" lon="10.675075936550147"><ele>38.0</ele><time>2026-04-25T15:49:23Z</time></trkpt><trkpt lat="43.32978051680375" lon="10.675289610621277"><ele>38.0</ele><time>2026-04-25T15:49:24Z</time></trkpt><trkpt lat="43.3297851606313" lon="10.675507823527797"><ele>38.0</ele><time>2026-04-25T15:49:25Z</time></trkpt><trkpt lat="43.329792664781955" lon="10.675722882939759"><ele>38.0</ele><time>2026-04-25T15:49:26Z</time></trkpt><trkpt lat="43.32979746799642" lon="10.675945743971855"><ele>37.666666666666664</ele><time>2026-04-25T15:49:27Z</time></trkpt><trkpt lat="43.32980327580877" lon="10.676170537567495"><ele>37.333333333333336</ele><time>2026-04-25T15:49:28Z</time></trkpt><trkpt lat="43.32980161852461" lon="10.676391656165604"><ele>37.0</ele><time>2026-04-25T15:49:29Z</time></trkpt><trkpt lat="43.32980772605625" lon="10.676616007176852"><ele>37.0</ele><time>2026-04-25T15:49:30Z</time></trkpt><trkpt lat="43.32980857685449" lon="10.676831254408393"><ele>37.0</ele><time>2026-04-25T15:49:31Z</time></trkpt><trkpt lat="43.329806584691156" lon="10.677038257196337"><ele>37.0</ele><time>2026-04-25T15:49:32Z</time></trkpt><trkpt lat="43.329802270992964" lon="10.677236704179899"><ele>38.333333333333336</ele><time>2026-04-25T15:49:33Z</time></trkpt><trkpt lat="43.329796519504576" lon="10.677441579791402"><ele>39.666666666666664</ele><time>2026-04-25T15:49:34Z</time></trkpt><trkpt lat="43.32979103059301" lon="10.677649040604859"><ele>41.0</ele><time>2026-04-25T15:49:35Z</time></trkpt><trkpt lat="43.329780559229405" lon="10.67786145140892"><ele>43.666666666666664</ele><time>2026-04-25T15:49:36Z</time></trkpt><trkpt lat="43.32976691049477" lon="10.678080070665665"><ele>46.33333333333333</ele><time>2026-04-25T15:49:37Z</time></trkpt><trkpt lat="43.329753813587516" lon="10.678306921259828"><ele>49.0</ele><time>2026-04-25T15:49:38Z</time></trkpt><trkpt lat="43.3297389714091" lon="10.678536573778267"><ele>45.33333333333333</ele><time>2026-04-25T15:49:39Z</time></trkpt><trkpt lat="43.32971882057143" lon="10.67876911823656"><ele>41.666666666666664</ele><time>2026-04-25T15:49:40Z</time></trkpt><trkpt lat="43.32969988539753" lon="10.679004201156468"><ele>38.0</ele><time>2026-04-25T15:49:41Z</time></trkpt><trkpt lat="43.32968134725653" lon="10.679242171414671"><ele>38.33333333333333</ele><time>2026-04-25T15:49:42Z</time></trkpt><trkpt lat="43.32966371271692" lon="10.679482085469331"><ele>38.666666666666664</ele><time>2026-04-25T15:49:43Z</time></trkpt><trkpt lat="43.32963717986866" lon="10.679722316571018"><ele>39.0</ele><time>2026-04-25T15:49:44Z</time></trkpt><trkpt lat="43.329607288799956" lon="10.679959695042582"><ele>39.0</ele><time>2026-04-25T15:49:45Z</time></trkpt><trkpt lat="43.3295779660649" lon="10.680190672383967"><ele>39.0</ele><time>2026-04-25T15:49:46Z</time></trkpt><trkpt lat="43.32955241521692" lon="10.680423435108478"><ele>39.0</ele><time>2026-04-25T15:49:47Z</time></trkpt><trkpt lat="43.32952165420555" lon="10.68065669872919"><ele>38.666666666666664</ele><time>2026-04-25T15:49:48Z</time></trkpt><trkpt lat="43.32948344706312" lon="10.680885900572315"><ele>38.33333333333333</ele><time>2026-04-25T15:49:49Z</time></trkpt><trkpt lat="43.32944336304515" lon="10.681112897609568"><ele>38.0</ele><time>2026-04-25T15:49:50Z</time></trkpt><trkpt lat="43.32940398374049" lon="10.68134477259024"><ele>38.0</ele><time>2026-04-25T15:49:51Z</time></trkpt><trkpt lat="43.32936733494564" lon="10.681573325343438"><ele>38.0</ele><time>2026-04-25T15:49:52Z</time></trkpt><trkpt lat="43.32932853365561" lon="10.681799579438062"><ele>38.0</ele><time>2026-04-25T15:49:53Z</time></trkpt><trkpt lat="43.32928305148678" lon="10.68202943336091"><ele>38.666666666666664</ele><time>2026-04-25T15:49:54Z</time></trkpt><trkpt lat="43.32924200767335" lon="10.682260794753777"><ele>39.333333333333336</ele><time>2026-04-25T15:49:55Z</time></trkpt><trkpt lat="43.32919619051893" lon="10.682490906081687"><ele>40.0</ele><time>2026-04-25T15:49:56Z</time></trkpt><trkpt lat="43.32914726473777" lon="10.682720566150842"><ele>40.66666666666667</ele><time>2026-04-25T15:49:57Z</time></trkpt><trkpt lat="43.32909238710283" lon="10.682956795808751"><ele>41.333333333333336</ele><time>2026-04-25T15:49:58Z</time></trkpt><trkpt lat="43.32903956722852" lon="10.6831908940566"><ele>42.0</ele><time>2026-04-25T15:49:59Z</time></trkpt><trkpt lat="43.328984926785566" lon="10.68342297842508"><ele>42.0</ele><time>2026-04-25T15:50:00Z</time></trkpt><trkpt lat="43.328929048414885" lon="10.683653750293619"><ele>42.0</ele><time>2026-04-25T15:50:01Z</time></trkpt><trkpt lat="43.32887399560311" lon="10.683884173725204"><ele>42.0</ele><time>2026-04-25T15:50:02Z</time></trkpt><trkpt lat="43.328818168967395" lon="10.684109225548447"><ele>42.0</ele><time>2026-04-25T15:50:03Z</time></trkpt><trkpt lat="43.32876110093076" lon="10.684335145138128"><ele>42.0</ele><time>2026-04-25T15:50:04Z</time></trkpt><trkpt lat="43.328703722031875" lon="10.68455538094001"><ele>42.0</ele><time>2026-04-25T15:50:05Z</time></trkpt><trkpt lat="43.32864337850523" lon="10.684775933036182"><ele>42.666666666666664</ele><time>2026-04-25T15:50:06Z</time></trkpt><trkpt lat="43.32858649663226" lon="10.684998755429142"><ele>43.33333333333333</ele><time>2026-04-25T15:50:07Z</time></trkpt><trkpt lat="43.32853137137071" lon="10.685223181893855"><ele>44.0</ele><time>2026-04-25T15:50:08Z</time></trkpt><trkpt lat="43.32847935812894" lon="10.685444776424518"><ele>44.33333333333333</ele><time>2026-04-25T15:50:09Z</time></trkpt><trkpt lat="43.328432593036666" lon="10.685666256886677"><ele>44.666666666666664</ele><time>2026-04-25T15:50:10Z</time></trkpt><trkpt lat="43.32839721737108" lon="10.685891670357263"><ele>45.0</ele><time>2026-04-25T15:50:11Z</time></trkpt><trkpt lat="43.32836516679055" lon="10.686122804843576"><ele>45.0</ele><time>2026-04-25T15:50:12Z</time></trkpt><trkpt lat="43.32834447758488" lon="10.686358533490592"><ele>45.0</ele><time>2026-04-25T15:50:13Z</time></trkpt><trkpt lat="43.32833206134567" lon="10.686597461423156"><ele>45.0</ele><time>2026-04-25T15:50:14Z</time></trkpt><trkpt lat="43.32832775535334" lon="10.68683299979507"><ele>44.666666666666664</ele><time>2026-04-25T15:50:15Z</time></trkpt><trkpt lat="43.32833458102416" lon="10.687072488182812"><ele>44.33333333333333</ele><time>2026-04-25T15:50:16Z</time></trkpt><trkpt lat="43.32834876988675" lon="10.687313972876705"><ele>44.0</ele><time>2026-04-25T15:50:17Z</time></trkpt><trkpt lat="43.328377378262935" lon="10.687555003104677"><ele>43.666666666666664</ele><time>2026-04-25T15:50:18Z</time></trkpt><trkpt lat="43.32841731367829" lon="10.687799265732957"><ele>43.333333333333336</ele><time>2026-04-25T15:50:19Z</time></trkpt><trkpt lat="43.32846604412199" lon="10.688039423748071"><ele>43.0</ele><time>2026-04-25T15:50:20Z</time></trkpt><trkpt lat="43.32852530426032" lon="10.688278501373011"><ele>43.0</ele><time>2026-04-25T15:50:21Z</time></trkpt><trkpt lat="43.32859032162551" lon="10.688517952526256"><ele>43.0</ele><time>2026-04-25T15:50:22Z</time></trkpt><trkpt lat="43.32866600923775" lon="10.688753640926482"><ele>43.0</ele><time>2026-04-25T15:50:23Z</time></trkpt><trkpt lat="43.32874936138942" lon="10.688983792252492"><ele>42.66666666666667</ele><time>2026-04-25T15:50:24Z</time></trkpt><trkpt lat="43.32883573257684" lon="10.689209135257235"><ele>42.333333333333336</ele><time>2026-04-25T15:50:25Z</time></trkpt><trkpt lat="43.32891736775379" lon="10.689417840485802"><ele>42.0</ele><time>2026-04-25T15:50:26Z</time></trkpt><trkpt lat="43.32899943781854" lon="10.689622825465253"><ele>42.0</ele><time>2026-04-25T15:50:27Z</time></trkpt><trkpt lat="43.32908260274398" lon="10.689822136204038"><ele>42.0</ele><time>2026-04-25T15:50:28Z</time></trkpt><trkpt lat="43.329162541229195" lon="10.69002135884384"><ele>42.0</ele><time>2026-04-25T15:50:29Z</time></trkpt><trkpt lat="43.32923825464067" lon="10.690210396289825"><ele>41.666666666666664</ele><time>2026-04-25T15:50:30Z</time></trkpt><trkpt lat="43.32931382663303" lon="10.690403911948941"><ele>41.33333333333333</ele><time>2026-04-25T15:50:31Z</time></trkpt><trkpt lat="43.32938912578199" lon="10.690591467930695"><ele>41.0</ele><time>2026-04-25T15:50:32Z</time></trkpt><trkpt lat="43.32946415935871" lon="10.690781038847145"><ele>41.0</ele><time>2026-04-25T15:50:33Z</time></trkpt><trkpt lat="43.32954370434304" lon="10.690978227061287"><ele>41.0</ele><time>2026-04-25T15:50:34Z</time></trkpt><trkpt lat="43.329621992209624" lon="10.691177580334541"><ele>41.0</ele><time>2026-04-25T15:50:35Z</time></trkpt><trkpt lat="43.329695298966435" lon="10.691383618628006"><ele>41.33333333333333</ele><time>2026-04-25T15:50:36Z</time></trkpt><trkpt lat="43.32975973932478" lon="10.691597002577952"><ele>41.666666666666664</ele><time>2026-04-25T15:50:37Z</time></trkpt><trkpt lat="43.32982170249736" lon="10.691810219179816"><ele>42.0</ele><time>2026-04-25T15:50:38Z</time></trkpt><trkpt lat="43.329879676804964" lon="10.692025429182124"><ele>43.333333333333336</ele><time>2026-04-25T15:50:39Z</time></trkpt><trkpt lat="43.329930983067655" lon="10.6922441556477"><ele>44.66666666666667</ele><time>2026-04-25T15:50:40Z</time></trkpt><trkpt lat="43.32997961481371" lon="10.692466860635582"><ele>46.0</ele><time>2026-04-25T15:50:41Z</time></trkpt><trkpt lat="43.33002224677039" lon="10.692688326064573"><ele>46.66666666666667</ele><time>2026-04-25T15:50:42Z</time></trkpt><trkpt lat="43.330064427742826" lon="10.692908553297356"><ele>47.333333333333336</ele><time>2026-04-25T15:50:43Z</time></trkpt><trkpt lat="43.33010413008393" lon="10.693129555266182"><ele>48.0</ele><time>2026-04-25T15:50:44Z</time></trkpt><trkpt lat="43.330144516412886" lon="10.69334967587893"><ele>48.0</ele><time>2026-04-25T15:50:45Z</time></trkpt><trkpt lat="43.33018325213142" lon="10.693575955845553"><ele>48.0</ele><time>2026-04-25T15:50:46Z</time></trkpt><trkpt lat="43.33022304355954" lon="10.693807386688247"><ele>48.0</ele><time>2026-04-25T15:50:47Z</time></trkpt><trkpt lat="43.3302582021064" lon="10.694039604072952"><ele>47.333333333333336</ele><time>2026-04-25T15:50:48Z</time></trkpt><trkpt lat="43.330285658989034" lon="10.694275698639242"><ele>46.66666666666667</ele><time>2026-04-25T15:50:49Z</time></trkpt><trkpt lat="43.33030205821558" lon="10.69451624111609"><ele>46.0</ele><time>2026-04-25T15:50:50Z</time></trkpt><trkpt lat="43.33030509487246" lon="10.694757227008827"><ele>45.333333333333336</ele><time>2026-04-25T15:50:51Z</time></trkpt><trkpt lat="43.330296811644125" lon="10.69499130720606"><ele>44.666666666666664</ele><time>2026-04-25T15:50:52Z</time></trkpt><trkpt lat="43.3302781725135" lon="10.695222506206711"><ele>44.0</ele><time>2026-04-25T15:50:53Z</time></trkpt><trkpt lat="43.330255711217994" lon="10.695455537836919"><ele>44.0</ele><time>2026-04-25T15:50:54Z</time></trkpt><trkpt lat="43.33022787079015" lon="10.695690981534232"><ele>44.0</ele><time>2026-04-25T15:50:55Z</time></trkpt><trkpt lat="43.33020280872841" lon="10.69592870694792"><ele>44.0</ele><time>2026-04-25T15:50:56Z</time></trkpt><trkpt lat="43.33017765316458" lon="10.696165320220219"><ele>43.666666666666664</ele><time>2026-04-25T15:50:57Z</time></trkpt><trkpt lat="43.33014801067338" lon="10.696397775173544"><ele>43.333333333333336</ele><time>2026-04-25T15:50:58Z</time></trkpt><trkpt lat="43.33011180200087" lon="10.69663174263835"><ele>43.0</ele><time>2026-04-25T15:50:59Z</time></trkpt><trkpt lat="43.33007056302311" lon="10.696854303513593"><ele>43.0</ele><time>2026-04-25T15:51:00Z</time></trkpt><trkpt lat="43.330023634304204" lon="10.69706845668885"><ele>43.0</ele><time>2026-04-25T15:51:01Z</time></trkpt><trkpt lat="43.329975940932485" lon="10.697276218023303"><ele>43.0</ele><time>2026-04-25T15:51:02Z</time></trkpt><trkpt lat="43.3299216881041" lon="10.69747657191464"><ele>43.0</ele><time>2026-04-25T15:51:03Z</time></trkpt><trkpt lat="43.32986016024911" lon="10.697671914258121"><ele>43.0</ele><time>2026-04-25T15:51:04Z</time></trkpt><trkpt lat="43.32979103226617" lon="10.697866463115487"><ele>43.0</ele><time>2026-04-25T15:51:05Z</time></trkpt><trkpt lat="43.32971787888541" lon="10.698061802147265"><ele>43.333333333333336</ele><time>2026-04-25T15:51:06Z</time></trkpt><trkpt lat="43.329646695860966" lon="10.698254012491278"><ele>43.666666666666664</ele><time>2026-04-25T15:51:07Z</time></trkpt><trkpt lat="43.32957579194056" lon="10.698448173605192"><ele>44.0</ele><time>2026-04-25T15:51:08Z</time></trkpt><trkpt lat="43.32950554797864" lon="10.698645368616175"><ele>44.666666666666664</ele><time>2026-04-25T15:51:09Z</time></trkpt><trkpt lat="43.32943756777799" lon="10.698838260043312"><ele>45.333333333333336</ele><time>2026-04-25T15:51:10Z</time></trkpt><trkpt lat="43.329365612643244" lon="10.699025007194887"><ele>46.0</ele><time>2026-04-25T15:51:11Z</time></trkpt><trkpt lat="43.329306377817666" lon="10.699208414047453"><ele>46.0</ele><time>2026-04-25T15:51:12Z</time></trkpt><trkpt lat="43.32925163054867" lon="10.699382697580367"><ele>46.0</ele><time>2026-04-25T15:51:13Z</time></trkpt><trkpt lat="43.3292053864453" lon="10.699553692853495"><ele>46.0</ele><time>2026-04-25T15:51:14Z</time></trkpt><trkpt lat="43.329166463339625" lon="10.699729223906159"><ele>46.0</ele><time>2026-04-25T15:51:15Z</time></trkpt><trkpt lat="43.32913145586969" lon="10.699908222136798"><ele>47.5</ele><time>2026-04-25T15:51:16Z</time></trkpt><trkpt lat="43.32910660408819" lon="10.700093567643759"><ele>49.0</ele><time>2026-04-25T15:51:17Z</time></trkpt><trkpt lat="43.329087780948335" lon="10.700283289150258"><ele>50.5</ele><time>2026-04-25T15:51:18Z</time></trkpt><trkpt lat="43.32907530465989" lon="10.700474641812905"><ele>52.0</ele><time>2026-04-25T15:51:19Z</time></trkpt><trkpt lat="43.329069578808806" lon="10.700669623609034"><ele>52.0</ele><time>2026-04-25T15:51:20Z</time></trkpt><trkpt lat="43.32907106481585" lon="10.70087016413471"><ele>52.0</ele><time>2026-04-25T15:51:21Z</time></trkpt><trkpt lat="43.32908039767023" lon="10.701080413290963"><ele>52.0</ele><time>2026-04-25T15:51:22Z</time></trkpt><trkpt lat="43.329102141474195" lon="10.701300655636688"><ele>51.0</ele><time>2026-04-25T15:51:23Z</time></trkpt><trkpt lat="43.329135612289626" lon="10.701523104743202"><ele>50.0</ele><time>2026-04-25T15:51:24Z</time></trkpt><trkpt lat="43.329176612124755" lon="10.701751433007313"><ele>49.0</ele><time>2026-04-25T15:51:25Z</time></trkpt><trkpt lat="43.3292292449543" lon="10.701982292451033"><ele>48.0</ele><time>2026-04-25T15:51:26Z</time></trkpt><trkpt lat="43.32928729941516" lon="10.702215488347191"><ele>47.0</ele><time>2026-04-25T15:51:27Z</time></trkpt><trkpt lat="43.32935005302453" lon="10.702455770825713"><ele>46.0</ele><time>2026-04-25T15:51:28Z</time></trkpt><trkpt lat="43.329412864546015" lon="10.702695372514585"><ele>45.66666666666667</ele><time>2026-04-25T15:51:29Z</time></trkpt><trkpt lat="43.32947562873221" lon="10.702935402303641"><ele>45.333333333333336</ele><time>2026-04-25T15:51:30Z</time></trkpt><trkpt lat="43.32953432375964" lon="10.703167754759459"><ele>45.0</ele><time>2026-04-25T15:51:31Z</time></trkpt><trkpt lat="43.329591371032436" lon="10.703397846011065"><ele>45.0</ele><time>2026-04-25T15:51:32Z</time></trkpt><trkpt lat="43.329645519925165" lon="10.703623538638952"><ele>45.0</ele><time>2026-04-25T15:51:33Z</time></trkpt><trkpt lat="43.32969814045833" lon="10.703845031845296"><ele>45.0</ele><time>2026-04-25T15:51:34Z</time></trkpt><trkpt lat="43.329743007160026" lon="10.704071391060392"><ele>47.0</ele><time>2026-04-25T15:51:35Z</time></trkpt><trkpt lat="43.329772545605" lon="10.704310342581792"><ele>49.0</ele><time>2026-04-25T15:51:36Z</time></trkpt><trkpt lat="43.32978871833889" lon="10.7045403330246"><ele>51.0</ele><time>2026-04-25T15:51:37Z</time></trkpt><trkpt lat="43.329799521743176" lon="10.704749096417645"><ele>51.0</ele><time>2026-04-25T15:51:38Z</time></trkpt><trkpt lat="43.329808391911605" lon="10.704961082073357"><ele>51.0</ele><time>2026-04-25T15:51:39Z</time></trkpt><trkpt lat="43.3298057458156" lon="10.705172540771667"><ele>51.0</ele><time>2026-04-25T15:51:40Z</time></trkpt><trkpt lat="43.329799682029034" lon="10.705387976458116"><ele>52.33333333333333</ele><time>2026-04-25T15:51:41Z</time></trkpt><trkpt lat="43.32979951861774" lon="10.705607089048252"><ele>53.666666666666664</ele><time>2026-04-25T15:51:42Z</time></trkpt><trkpt lat="43.32980088548887" lon="10.705824647195733"><ele>55.0</ele><time>2026-04-25T15:51:43Z</time></trkpt><trkpt lat="43.32980070063163" lon="10.706047892796056"><ele>55.0</ele><time>2026-04-25T15:51:44Z</time></trkpt><trkpt lat="43.32980017022327" lon="10.7062679330266"><ele>55.0</ele><time>2026-04-25T15:51:45Z</time></trkpt><trkpt lat="43.329802034986486" lon="10.706489878186396"><ele>55.0</ele><time>2026-04-25T15:51:46Z</time></trkpt><trkpt lat="43.32980763007284" lon="10.706716763938541"><ele>54.0</ele><time>2026-04-25T15:51:47Z</time></trkpt><trkpt lat="43.329821395860485" lon="10.706939899953827"><ele>53.0</ele><time>2026-04-25T15:51:48Z</time></trkpt><trkpt lat="43.329844086511194" lon="10.707165177079165"><ele>52.0</ele><time>2026-04-25T15:51:49Z</time></trkpt><trkpt lat="43.329876947634276" lon="10.707388131046656"><ele>52.0</ele><time>2026-04-25T15:51:50Z</time></trkpt><trkpt lat="43.329921966153044" lon="10.707616589844873"><ele>52.0</ele><time>2026-04-25T15:51:51Z</time></trkpt><trkpt lat="43.3299720611554" lon="10.707841190185398"><ele>52.0</ele><time>2026-04-25T15:51:52Z</time></trkpt><trkpt lat="43.33002380664201" lon="10.708059941752103"><ele>51.0</ele><time>2026-04-25T15:51:53Z</time></trkpt><trkpt lat="43.33007184640206" lon="10.708273649395172"><ele>50.0</ele><time>2026-04-25T15:51:54Z</time></trkpt><trkpt lat="43.33012098448963" lon="10.708486698382538"><ele>49.0</ele><time>2026-04-25T15:51:55Z</time></trkpt><trkpt lat="43.3301749835426" lon="10.708704987320656"><ele>48.33333333333333</ele><time>2026-04-25T15:51:56Z</time></trkpt><trkpt lat="43.33022665952955" lon="10.708919685016207"><ele>47.666666666666664</ele><time>2026-04-25T15:51:57Z</time></trkpt><trkpt lat="43.330278722308286" lon="10.709136091344089"><ele>47.0</ele><time>2026-04-25T15:51:58Z</time></trkpt><trkpt lat="43.330334473046825" lon="10.709350881307076"><ele>46.666666666666664</ele><time>2026-04-25T15:51:59Z</time></trkpt><trkpt lat="43.330397062724586" lon="10.709563621204989"><ele>46.333333333333336</ele><time>2026-04-25T15:52:00Z</time></trkpt><trkpt lat="43.33046764852318" lon="10.709770595826347"><ele>46.0</ele><time>2026-04-25T15:52:01Z</time></trkpt><trkpt lat="43.33054613754204" lon="10.709968087465066"><ele>47.0</ele><time>2026-04-25T15:52:02Z</time></trkpt><trkpt lat="43.330633977043405" lon="10.710162381485747"><ele>48.0</ele><time>2026-04-25T15:52:03Z</time></trkpt><trkpt lat="43.33073581344473" lon="10.710349153923215"><ele>49.0</ele><time>2026-04-25T15:52:04Z</time></trkpt><trkpt lat="43.33084578260792" lon="10.710536140793995"><ele>49.0</ele><time>2026-04-25T15:52:05Z</time></trkpt><trkpt lat="43.33095574888284" lon="10.710713972763314"><ele>49.0</ele><time>2026-04-25T15:52:06Z</time></trkpt><trkpt lat="43.331062116808994" lon="10.710894785649206"><ele>49.0</ele><time>2026-04-25T15:52:07Z</time></trkpt><trkpt lat="43.33117079099934" lon="10.71106884938318"><ele>48.33333333333333</ele><time>2026-04-25T15:52:08Z</time></trkpt><trkpt lat="43.33128061927413" lon="10.711241450803904"><ele>47.666666666666664</ele><time>2026-04-25T15:52:09Z</time></trkpt><trkpt lat="43.33138876797619" lon="10.711417875086218"><ele>47.0</ele><time>2026-04-25T15:52:10Z</time></trkpt><trkpt lat="43.33149372850242" lon="10.711588761589628"><ele>47.0</ele><time>2026-04-25T15:52:11Z</time></trkpt><trkpt lat="43.33160133381367" lon="10.711758808763218"><ele>47.0</ele><time>2026-04-25T15:52:12Z</time></trkpt><trkpt lat="43.33170834826045" lon="10.711924170530901"><ele>47.0</ele><time>2026-04-25T15:52:13Z</time></trkpt><trkpt lat="43.33181494740653" lon="10.71210249690014"><ele>47.33333333333333</ele><time>2026-04-25T15:52:14Z</time></trkpt><trkpt lat="43.331922493104116" lon="10.71228397965497"><ele>47.666666666666664</ele><time>2026-04-25T15:52:15Z</time></trkpt><trkpt lat="43.33202964496895" lon="10.712465937185158"><ele>48.0</ele><time>2026-04-25T15:52:16Z</time></trkpt><trkpt lat="43.33213323536532" lon="10.712653094267896"><ele>48.0</ele><time>2026-04-25T15:52:17Z</time></trkpt><trkpt lat="43.332224203093844" lon="10.71285283276191"><ele>48.0</ele><time>2026-04-25T15:52:18Z</time></trkpt><trkpt lat="43.33230311003708" lon="10.713062540789949"><ele>48.0</ele><time>2026-04-25T15:52:19Z</time></trkpt><trkpt lat="43.33237008256912" lon="10.713282582777719"><ele>48.0</ele><time>2026-04-25T15:52:20Z</time></trkpt><trkpt lat="43.332425172218564" lon="10.713507116537961"><ele>48.0</ele><time>2026-04-25T15:52:21Z</time></trkpt><trkpt lat="43.33246390610698" lon="10.713736750441422"><ele>48.0</ele><time>2026-04-25T15:52:22Z</time></trkpt><trkpt lat="43.33248801673122" lon="10.71397047520005"><ele>47.333333333333336</ele><time>2026-04-25T15:52:23Z</time></trkpt><trkpt lat="43.33250527457294" lon="10.71420255072989"><ele>46.66666666666667</ele><time>2026-04-25T15:52:24Z</time></trkpt><trkpt lat="43.332518920720815" lon="10.714439996264577"><ele>46.0</ele><time>2026-04-25T15:52:25Z</time></trkpt><trkpt lat="43.33253626726957" lon="10.714673393328942"><ele>46.0</ele><time>2026-04-25T15:52:26Z</time></trkpt><trkpt lat="43.33255308716441" lon="10.714897950190378"><ele>46.0</ele><time>2026-04-25T15:52:27Z</time></trkpt><trkpt lat="43.332571416964875" lon="10.715127656957625"><ele>46.0</ele><time>2026-04-25T15:52:28Z</time></trkpt><trkpt lat="43.33259156924894" lon="10.715362512029074"><ele>48.333333333333336</ele><time>2026-04-25T15:52:29Z</time></trkpt><trkpt lat="43.33260966340924" lon="10.715599690962197"><ele>50.66666666666667</ele><time>2026-04-25T15:52:30Z</time></trkpt><trkpt lat="43.33262738723006" lon="10.715838517275504"><ele>53.0</ele><time>2026-04-25T15:52:31Z</time></trkpt><trkpt lat="43.33264349342812" lon="10.716076321958571"><ele>54.0</ele><time>2026-04-25T15:52:32Z</time></trkpt><trkpt lat="43.332658664009074" lon="10.71631402921288"><ele>55.0</ele><time>2026-04-25T15:52:33Z</time></trkpt><trkpt lat="43.332674175413516" lon="10.716549088669476"><ele>56.0</ele><time>2026-04-25T15:52:34Z</time></trkpt><trkpt lat="43.33269062657557" lon="10.716782222071695"><ele>55.0</ele><time>2026-04-25T15:52:35Z</time></trkpt><trkpt lat="43.33270600176154" lon="10.717011307886517"><ele>54.0</ele><time>2026-04-25T15:52:36Z</time></trkpt><trkpt lat="43.33271974472475" lon="10.717236147450166"><ele>53.0</ele><time>2026-04-25T15:52:37Z</time></trkpt><trkpt lat="43.332734109538926" lon="10.71745801371678"><ele>53.0</ele><time>2026-04-25T15:52:38Z</time></trkpt><trkpt lat="43.332744588902585" lon="10.717683871978894"><ele>53.0</ele><time>2026-04-25T15:52:39Z</time></trkpt><trkpt lat="43.33275510076228" lon="10.717905235696612"><ele>53.0</ele><time>2026-04-25T15:52:40Z</time></trkpt><trkpt lat="43.33276850907275" lon="10.718109825189204"><ele>52.75</ele><time>2026-04-25T15:52:41Z</time></trkpt><trkpt lat="43.33278249163499" lon="10.718302665759522"><ele>52.5</ele><time>2026-04-25T15:52:42Z</time></trkpt><trkpt lat="43.332796152359954" lon="10.718493854897952"><ele>52.25</ele><time>2026-04-25T15:52:43Z</time></trkpt><trkpt lat="43.332812857789634" lon="10.718691859633006"><ele>52.0</ele><time>2026-04-25T15:52:44Z</time></trkpt><trkpt lat="43.33283386468463" lon="10.71889843104126"><ele>50.75</ele><time>2026-04-25T15:52:45Z</time></trkpt><trkpt lat="43.33286350141105" lon="10.719100713748507"><ele>49.5</ele><time>2026-04-25T15:52:46Z</time></trkpt><trkpt lat="43.33289870896843" lon="10.719294972335382"><ele>48.25</ele><time>2026-04-25T15:52:47Z</time></trkpt><trkpt lat="43.33293990764387" lon="10.719485637586684"><ele>47.0</ele><time>2026-04-25T15:52:48Z</time></trkpt><trkpt lat="43.33298470299936" lon="10.719677744250601"><ele>46.75</ele><time>2026-04-25T15:52:49Z</time></trkpt><trkpt lat="43.333029539506455" lon="10.719873563722139"><ele>46.5</ele><time>2026-04-25T15:52:50Z</time></trkpt><trkpt lat="43.33307361365791" lon="10.720068993372543"><ele>46.25</ele><time>2026-04-25T15:52:51Z</time></trkpt><trkpt lat="43.333115520536694" lon="10.72026717871286"><ele>46.0</ele><time>2026-04-25T15:52:52Z</time></trkpt><trkpt lat="43.333158580905746" lon="10.720466151049013"><ele>47.0</ele><time>2026-04-25T15:52:53Z</time></trkpt><trkpt lat="43.333204430075575" lon="10.720664624116397"><ele>48.0</ele><time>2026-04-25T15:52:54Z</time></trkpt><trkpt lat="43.33324908099493" lon="10.720862398131857"><ele>49.0</ele><time>2026-04-25T15:52:55Z</time></trkpt><trkpt lat="43.33329488394887" lon="10.721057558013827"><ele>49.33333333333333</ele><time>2026-04-25T15:52:56Z</time></trkpt><trkpt lat="43.33333333142133" lon="10.721253122011293"><ele>49.66666666666667</ele><time>2026-04-25T15:52:57Z</time></trkpt><trkpt lat="43.33337723469844" lon="10.721453688221823"><ele>50.0</ele><time>2026-04-25T15:52:58Z</time></trkpt><trkpt lat="43.33342345887212" lon="10.721659928213061"><ele>50.0</ele><time>2026-04-25T15:52:59Z</time></trkpt><trkpt lat="43.33347020666722" lon="10.721866883366811"><ele>50.0</ele><time>2026-04-25T15:53:00Z</time></trkpt><trkpt lat="43.333515147203734" lon="10.72206094996254"><ele>50.0</ele><time>2026-04-25T15:53:01Z</time></trkpt><trkpt lat="43.33355747042085" lon="10.722249788802742"><ele>50.0</ele><time>2026-04-25T15:53:02Z</time></trkpt><trkpt lat="43.33360268941257" lon="10.722434825439048"><ele>50.0</ele><time>2026-04-25T15:53:03Z</time></trkpt><trkpt lat="43.33364440137653" lon="10.722611723810516"><ele>50.0</ele><time>2026-04-25T15:53:04Z</time></trkpt><trkpt lat="43.333685139392045" lon="10.722786789012325"><ele>50.0</ele><time>2026-04-25T15:53:05Z</time></trkpt><trkpt lat="43.33372386981771" lon="10.722963313927686"><ele>50.0</ele><time>2026-04-25T15:53:06Z</time></trkpt><trkpt lat="43.3337612030393" lon="10.723144384338639"><ele>50.0</ele><time>2026-04-25T15:53:07Z</time></trkpt><trkpt lat="43.33380125701353" lon="10.723330503417658"><ele>50.0</ele><time>2026-04-25T15:53:08Z</time></trkpt><trkpt lat="43.33384424303853" lon="10.723519501153842"><ele>50.0</ele><time>2026-04-25T15:53:09Z</time></trkpt><trkpt lat="43.33388706211298" lon="10.72370243222911"><ele>50.0</ele><time>2026-04-25T15:53:10Z</time></trkpt><trkpt lat="43.33393653505061" lon="10.723881420247105"><ele>50.75</ele><time>2026-04-25T15:53:11Z</time></trkpt><trkpt lat="43.33398364381646" lon="10.724068162231504"><ele>51.5</ele><time>2026-04-25T15:53:12Z</time></trkpt><trkpt lat="43.334076337153434" lon="10.724223832842068"><ele>52.25</ele><time>2026-04-25T15:53:13Z</time></trkpt><trkpt lat="43.33416531344128" lon="10.724385389089568"><ele>53.0</ele><time>2026-04-25T15:53:14Z</time></trkpt><trkpt lat="43.33425239775433" lon="10.724531838080257"><ele>53.0</ele><time>2026-04-25T15:53:15Z</time></trkpt><trkpt lat="43.33432933421688" lon="10.72466996062938"><ele>53.0</ele><time>2026-04-25T15:53:16Z</time></trkpt><trkpt lat="43.3344074813992" lon="10.724806890747022"><ele>53.0</ele><time>2026-04-25T15:53:17Z</time></trkpt><trkpt lat="43.33448421864618" lon="10.7249496521922"><ele>53.0</ele><time>2026-04-25T15:53:18Z</time></trkpt><trkpt lat="43.33454408058091" lon="10.725100824349788"><ele>52.25</ele><time>2026-04-25T15:53:19Z</time></trkpt><trkpt lat="43.334596163908586" lon="10.725264651316257"><ele>51.5</ele><time>2026-04-25T15:53:20Z</time></trkpt><trkpt lat="43.33463397035668" lon="10.725445415742547"><ele>50.75</ele><time>2026-04-25T15:53:21Z</time></trkpt><trkpt lat="43.334664045258194" lon="10.725632817699774"><ele>50.0</ele><time>2026-04-25T15:53:22Z</time></trkpt><trkpt lat="43.33469025601095" lon="10.725828754477858"><ele>50.0</ele><time>2026-04-25T15:53:23Z</time></trkpt><trkpt lat="43.33471748358777" lon="10.726027683673275"><ele>50.0</ele><time>2026-04-25T15:53:24Z</time></trkpt><trkpt lat="43.33474075948304" lon="10.726228438392878"><ele>50.0</ele><time>2026-04-25T15:53:25Z</time></trkpt><trkpt lat="43.33476503147353" lon="10.726423285559015"><ele>50.0</ele><time>2026-04-25T15:53:26Z</time></trkpt><trkpt lat="43.334794150840466" lon="10.726615652636957"><ele>52.0</ele><time>2026-04-25T15:53:27Z</time></trkpt><trkpt lat="43.334822718222064" lon="10.726809249051863"><ele>54.0</ele><time>2026-04-25T15:53:28Z</time></trkpt><trkpt lat="43.334833664472136" lon="10.727002841051325"><ele>56.0</ele><time>2026-04-25T15:53:29Z</time></trkpt><trkpt lat="43.33487541302302" lon="10.727190560733368"><ele>58.0</ele><time>2026-04-25T15:53:30Z</time></trkpt><trkpt lat="43.33489833251393" lon="10.727386016942633"><ele>58.0</ele><time>2026-04-25T15:53:31Z</time></trkpt><trkpt lat="43.33492427910875" lon="10.72758178435033"><ele>58.0</ele><time>2026-04-25T15:53:32Z</time></trkpt><trkpt lat="43.33494890379195" lon="10.727790072961858"><ele>58.0</ele><time>2026-04-25T15:53:33Z</time></trkpt><trkpt lat="43.33497428248928" lon="10.728003246096877"><ele>57.666666666666664</ele><time>2026-04-25T15:53:34Z</time></trkpt><trkpt lat="43.33500136409778" lon="10.728219307884277"><ele>57.33333333333333</ele><time>2026-04-25T15:53:35Z</time></trkpt><trkpt lat="43.335030322069166" lon="10.728434168744164"><ele>57.0</ele><time>2026-04-25T15:53:36Z</time></trkpt><trkpt lat="43.33505734808295" lon="10.728639544507534"><ele>56.66666666666667</ele><time>2026-04-25T15:53:37Z</time></trkpt><trkpt lat="43.335083670341334" lon="10.728838530738384"><ele>56.333333333333336</ele><time>2026-04-25T15:53:38Z</time></trkpt><trkpt lat="43.33511445722427" lon="10.729044158659272"><ele>56.0</ele><time>2026-04-25T15:53:39Z</time></trkpt><trkpt lat="43.33514450138256" lon="10.729256158867045"><ele>55.66666666666667</ele><time>2026-04-25T15:53:40Z</time></trkpt><trkpt lat="43.3351676702424" lon="10.72948477990145"><ele>55.33333333333333</ele><time>2026-04-25T15:53:41Z</time></trkpt><trkpt lat="43.33518663572227" lon="10.729713136350192"><ele>55.0</ele><time>2026-04-25T15:53:42Z</time></trkpt><trkpt lat="43.33518367772465" lon="10.729943337650823"><ele>55.0</ele><time>2026-04-25T15:53:43Z</time></trkpt><trkpt lat="43.33516572622437" lon="10.730169149372315"><ele>55.0</ele><time>2026-04-25T15:53:44Z</time></trkpt><trkpt lat="43.335148256606196" lon="10.730393907598723"><ele>55.0</ele><time>2026-04-25T15:53:45Z</time></trkpt><trkpt lat="43.33512711841893" lon="10.730616496981053"><ele>55.0</ele><time>2026-04-25T15:53:46Z</time></trkpt><trkpt lat="43.33511046329939" lon="10.73083540230985"><ele>55.0</ele><time>2026-04-25T15:53:47Z</time></trkpt><trkpt lat="43.335095016790795" lon="10.731057715875295"><ele>55.0</ele><time>2026-04-25T15:53:48Z</time></trkpt><trkpt lat="43.33507627780198" lon="10.731276798487292"><ele>55.0</ele><time>2026-04-25T15:53:49Z</time></trkpt><trkpt lat="43.33505163346494" lon="10.731485918235265"><ele>55.0</ele><time>2026-04-25T15:53:50Z</time></trkpt><trkpt lat="43.33503957870251" lon="10.731689633209246"><ele>55.0</ele><time>2026-04-25T15:53:51Z</time></trkpt><trkpt lat="43.335031509432454" lon="10.731876710419513"><ele>55.0</ele><time>2026-04-25T15:53:52Z</time></trkpt><trkpt lat="43.33501833064167" lon="10.732066982025843"><ele>55.0</ele><time>2026-04-25T15:53:53Z</time></trkpt><trkpt lat="43.335007927435086" lon="10.732255204975552"><ele>55.0</ele><time>2026-04-25T15:53:54Z</time></trkpt><trkpt lat="43.33502113629882" lon="10.732433656007087"><ele>55.0</ele><time>2026-04-25T15:53:55Z</time></trkpt><trkpt lat="43.335046881337945" lon="10.732604143125819"><ele>55.0</ele><time>2026-04-25T15:53:56Z</time></trkpt><trkpt lat="43.335091977266664" lon="10.73277006429821"><ele>53.75</ele><time>2026-04-25T15:53:57Z</time></trkpt><trkpt lat="43.33515602992792" lon="10.732954462127196"><ele>52.5</ele><time>2026-04-25T15:53:58Z</time></trkpt><trkpt lat="43.335220670231024" lon="10.733138852498335"><ele>51.25</ele><time>2026-04-25T15:53:59Z</time></trkpt><trkpt lat="43.33528705547464" lon="10.733324694576462"><ele>50.0</ele><time>2026-04-25T15:54:00Z</time></trkpt><trkpt lat="43.33534544278201" lon="10.733496357739531"><ele>49.25</ele><time>2026-04-25T15:54:01Z</time></trkpt><trkpt lat="43.33540776057835" lon="10.733660574145857"><ele>48.5</ele><time>2026-04-25T15:54:02Z</time></trkpt><trkpt lat="43.335480705780505" lon="10.733822201284548"><ele>47.75</ele><time>2026-04-25T15:54:03Z</time></trkpt><trkpt lat="43.33555555093043" lon="10.733982047724572"><ele>47.0</ele><time>2026-04-25T15:54:04Z</time></trkpt><trkpt lat="43.33563290867124" lon="10.734141823888473"><ele>48.5</ele><time>2026-04-25T15:54:05Z</time></trkpt><trkpt lat="43.33571017109551" lon="10.734301641419083"><ele>50.0</ele><time>2026-04-25T15:54:06Z</time></trkpt><trkpt lat="43.335791454554084" lon="10.734464696806247"><ele>51.5</ele><time>2026-04-25T15:54:07Z</time></trkpt><trkpt lat="43.335868996934344" lon="10.7346322935714"><ele>53.0</ele><time>2026-04-25T15:54:08Z</time></trkpt><trkpt lat="43.33595027159614" lon="10.734801894120613"><ele>53.0</ele><time>2026-04-25T15:54:09Z</time></trkpt><trkpt lat="43.336033718383376" lon="10.734965077843162"><ele>53.0</ele><time>2026-04-25T15:54:10Z</time></trkpt><trkpt lat="43.33610695502788" lon="10.735118918238184"><ele>53.0</ele><time>2026-04-25T15:54:11Z</time></trkpt><trkpt lat="43.33617738296198" lon="10.735275311468735"><ele>53.0</ele><time>2026-04-25T15:54:12Z</time></trkpt><trkpt lat="43.33623726423407" lon="10.735428576272039"><ele>51.75</ele><time>2026-04-25T15:54:13Z</time></trkpt><trkpt lat="43.336294848878524" lon="10.735590019278776"><ele>50.5</ele><time>2026-04-25T15:54:14Z</time></trkpt><trkpt lat="43.33633643043944" lon="10.735771059700886"><ele>49.25</ele><time>2026-04-25T15:54:15Z</time></trkpt><trkpt lat="43.33635776616739" lon="10.735970330101907"><ele>48.0</ele><time>2026-04-25T15:54:16Z</time></trkpt><trkpt lat="43.33637323758681" lon="10.736176327556075"><ele>47.75</ele><time>2026-04-25T15:54:17Z</time></trkpt><trkpt lat="43.3363838041153" lon="10.73637301452078"><ele>47.5</ele><time>2026-04-25T15:54:18Z</time></trkpt><trkpt lat="43.33639368892569" lon="10.73656927325555"><ele>47.25</ele><time>2026-04-25T15:54:19Z</time></trkpt><trkpt lat="43.336400269488585" lon="10.736767048075487"><ele>47.0</ele><time>2026-04-25T15:54:20Z</time></trkpt><trkpt lat="43.33639969618324" lon="10.73697117050172"><ele>50.5</ele><time>2026-04-25T15:54:21Z</time></trkpt><trkpt lat="43.33640062945569" lon="10.737175864624506"><ele>54.0</ele><time>2026-04-25T15:54:22Z</time></trkpt><trkpt lat="43.33640167431489" lon="10.737375327310703"><ele>57.5</ele><time>2026-04-25T15:54:23Z</time></trkpt><trkpt lat="43.33640463115183" lon="10.737580083229265"><ele>61.0</ele><time>2026-04-25T15:54:24Z</time></trkpt><trkpt lat="43.33640226805756" lon="10.7377830456611"><ele>62.25</ele><time>2026-04-25T15:54:25Z</time></trkpt><trkpt lat="43.33638932157438" lon="10.737984149452574"><ele>63.5</ele><time>2026-04-25T15:54:26Z</time></trkpt><trkpt lat="43.33636156922357" lon="10.738188447398683"><ele>64.75</ele><time>2026-04-25T15:54:27Z</time></trkpt><trkpt lat="43.336329020333835" lon="10.738374635901252"><ele>66.0</ele><time>2026-04-25T15:54:28Z</time></trkpt><trkpt lat="43.336297237898265" lon="10.738549966962273"><ele>62.25</ele><time>2026-04-25T15:54:29Z</time></trkpt><trkpt lat="43.33625731603956" lon="10.738731260557739"><ele>58.5</ele><time>2026-04-25T15:54:30Z</time></trkpt><trkpt lat="43.33621742174507" lon="10.73891041997239"><ele>54.75</ele><time>2026-04-25T15:54:31Z</time></trkpt><trkpt lat="43.336174494154655" lon="10.739091946929173"><ele>51.0</ele><time>2026-04-25T15:54:32Z</time></trkpt><trkpt lat="43.3361305766771" lon="10.739268108932796"><ele>51.5</ele><time>2026-04-25T15:54:33Z</time></trkpt><trkpt lat="43.33609346921823" lon="10.73943666998807"><ele>52.0</ele><time>2026-04-25T15:54:34Z</time></trkpt><trkpt lat="43.33604342374698" lon="10.73959667250093"><ele>52.5</ele><time>2026-04-25T15:54:35Z</time></trkpt><trkpt lat="43.3360107590513" lon="10.739754261839995"><ele>53.0</ele><time>2026-04-25T15:54:36Z</time></trkpt><trkpt lat="43.33598896690404" lon="10.739906974179647"><ele>53.0</ele><time>2026-04-25T15:54:37Z</time></trkpt><trkpt lat="43.33595653392939" lon="10.740058515284849"><ele>53.0</ele><time>2026-04-25T15:54:38Z</time></trkpt><trkpt lat="43.33593247272997" lon="10.74018427668241"><ele>53.0</ele><time>2026-04-25T15:54:39Z</time></trkpt><trkpt lat="43.33590805287005" lon="10.74028025298118"><ele>53.0</ele><time>2026-04-25T15:54:40Z</time></trkpt><trkpt lat="43.335874388436544" lon="10.74040293939628"><ele>53.0</ele><time>2026-04-25T15:54:42Z</time></trkpt><trkpt lat="43.33585118071314" lon="10.740552663555148"><ele>53.333333333333336</ele><time>2026-04-25T15:54:53Z</time></trkpt><trkpt lat="43.335817125455414" lon="10.740710196074676"><ele>53.66666666666667</ele><time>2026-04-25T15:54:55Z</time></trkpt><trkpt lat="43.335797285963864" lon="10.740800117435583"><ele>54.0</ele><time>2026-04-25T15:54:56Z</time></trkpt><trkpt lat="43.335775993357004" lon="10.740898375407868"><ele>54.33333333333333</ele><time>2026-04-25T15:54:57Z</time></trkpt><trkpt lat="43.33575286622157" lon="10.740997213476"><ele>54.666666666666664</ele><time>2026-04-25T15:54:58Z</time></trkpt><trkpt lat="43.335733964218285" lon="10.741109576763197"><ele>55.0</ele><time>2026-04-25T15:54:59Z</time></trkpt><trkpt lat="43.33571619603786" lon="10.741219918600962"><ele>55.99999999999999</ele><time>2026-04-25T15:55:00Z</time></trkpt><trkpt lat="43.33569488926249" lon="10.74133241403918"><ele>57.0</ele><time>2026-04-25T15:55:01Z</time></trkpt><trkpt lat="43.33567087108177" lon="10.741447022107277"><ele>58.0</ele><time>2026-04-25T15:55:02Z</time></trkpt><trkpt lat="43.335646536337315" lon="10.74155989351437"><ele>59.0</ele><time>2026-04-25T15:55:03Z</time></trkpt><trkpt lat="43.33562327616386" lon="10.741662356789396"><ele>59.99999999999999</ele><time>2026-04-25T15:55:04Z</time></trkpt><trkpt lat="43.335604110178906" lon="10.74175628612603"><ele>61.0</ele><time>2026-04-25T15:55:05Z</time></trkpt><trkpt lat="43.33558586856189" lon="10.741847748834587"><ele>60.99999999999999</ele><time>2026-04-25T15:55:06Z</time></trkpt><trkpt lat="43.33556929676337" lon="10.741942971233687"><ele>61.0</ele><time>2026-04-25T15:55:07Z</time></trkpt><trkpt lat="43.33554837494882" lon="10.742042519171552"><ele>61.0</ele><time>2026-04-25T15:55:08Z</time></trkpt><trkpt lat="43.33552873991489" lon="10.742147600614624"><ele>61.0</ele><time>2026-04-25T15:55:09Z</time></trkpt><trkpt lat="43.33550864074422" lon="10.74225545144848"><ele>60.99999999999999</ele><time>2026-04-25T15:55:10Z</time></trkpt><trkpt lat="43.33548788162923" lon="10.742356640657894"><ele>61.0</ele><time>2026-04-25T15:55:11Z</time></trkpt><trkpt lat="43.33547007295426" lon="10.742458928999275"><ele>59.83333333333333</ele><time>2026-04-25T15:55:12Z</time></trkpt><trkpt lat="43.33544956814804" lon="10.742562398559068"><ele>58.666666666666664</ele><time>2026-04-25T15:55:13Z</time></trkpt><trkpt lat="43.33542677287831" lon="10.742669214479989"><ele>57.5</ele><time>2026-04-25T15:55:14Z</time></trkpt><trkpt lat="43.3354630395284" lon="10.74278592861422"><ele>56.33333333333333</ele><time>2026-04-25T15:55:15Z</time></trkpt><trkpt lat="43.335455025462245" lon="10.742893397914786"><ele>55.166666666666664</ele><time>2026-04-25T15:55:16Z</time></trkpt><trkpt lat="43.33545264777674" lon="10.742994628274536"><ele>54.0</ele><time>2026-04-25T15:55:17Z</time></trkpt><trkpt lat="43.33536990751848" lon="10.743087410128107"><ele>54.0</ele><time>2026-04-25T15:55:18Z</time></trkpt><trkpt lat="43.335371169033245" lon="10.743188015235761"><ele>54.0</ele><time>2026-04-25T15:55:19Z</time></trkpt><trkpt lat="43.33538217426286" lon="10.743298562511127"><ele>54.0</ele><time>2026-04-25T15:55:20Z</time></trkpt><trkpt lat="43.335401940136435" lon="10.743407250715949"><ele>54.0</ele><time>2026-04-25T15:55:21Z</time></trkpt><trkpt lat="43.335426959146005" lon="10.743519472426627"><ele>54.0</ele><time>2026-04-25T15:55:22Z</time></trkpt><trkpt lat="43.33545681674394" lon="10.743634871917383"><ele>54.0</ele><time>2026-04-25T15:55:23Z</time></trkpt><trkpt lat="43.33549507850098" lon="10.743750751187546"><ele>54.0</ele><time>2026-04-25T15:55:24Z</time></trkpt><trkpt lat="43.33553210088405" lon="10.743873385275677"><ele>54.00000000000001</ele><time>2026-04-25T15:55:25Z</time></trkpt><trkpt lat="43.33556591765838" lon="10.74400373979789"><ele>54.00000000000001</ele><time>2026-04-25T15:55:26Z</time></trkpt><trkpt lat="43.33560765135388" lon="10.744141835440061"><ele>54.0</ele><time>2026-04-25T15:55:27Z</time></trkpt><trkpt lat="43.33564704525985" lon="10.74428248583913"><ele>54.0</ele><time>2026-04-25T15:55:28Z</time></trkpt><trkpt lat="43.33568685740901" lon="10.744414499652216"><ele>54.800000000000004</ele><time>2026-04-25T15:55:29Z</time></trkpt><trkpt lat="43.33572303816074" lon="10.74454968918228"><ele>55.60000000000001</ele><time>2026-04-25T15:55:30Z</time></trkpt><trkpt lat="43.335760554774694" lon="10.74468356602728"><ele>56.4</ele><time>2026-04-25T15:55:31Z</time></trkpt><trkpt lat="43.33579791948346" lon="10.744821659053917"><ele>57.2</ele><time>2026-04-25T15:55:32Z</time></trkpt><trkpt lat="43.33583721813192" lon="10.744955725986552"><ele>58.0</ele><time>2026-04-25T15:55:33Z</time></trkpt><trkpt lat="43.335877092766395" lon="10.745091400805261"><ele>57.4</ele><time>2026-04-25T15:55:34Z</time></trkpt><trkpt lat="43.335915111919235" lon="10.745230697757505"><ele>56.8</ele><time>2026-04-25T15:55:35Z</time></trkpt><trkpt lat="43.33595719526947" lon="10.74537383988709"><ele>56.2</ele><time>2026-04-25T15:55:36Z</time></trkpt><trkpt lat="43.33600132692897" lon="10.745510394413795"><ele>55.6</ele><time>2026-04-25T15:55:37Z</time></trkpt><trkpt lat="43.33604521182667" lon="10.74564822722331"><ele>55.0</ele><time>2026-04-25T15:55:38Z</time></trkpt><trkpt lat="43.33608347539897" lon="10.745789011505646"><ele>55.0</ele><time>2026-04-25T15:55:39Z</time></trkpt><trkpt lat="43.336123259307094" lon="10.745935945620001"><ele>55.0</ele><time>2026-04-25T15:55:40Z</time></trkpt><trkpt lat="43.33616653174458" lon="10.746077613930181"><ele>55.0</ele><time>2026-04-25T15:55:41Z</time></trkpt><trkpt lat="43.336209131627704" lon="10.746220370185585"><ele>55.0</ele><time>2026-04-25T15:55:42Z</time></trkpt><trkpt lat="43.33625911485699" lon="10.746365311300472"><ele>54.75</ele><time>2026-04-25T15:55:43Z</time></trkpt><trkpt lat="43.33632042319757" lon="10.746504948328747"><ele>54.5</ele><time>2026-04-25T15:55:44Z</time></trkpt><trkpt lat="43.336394326467655" lon="10.74663614528169"><ele>54.25</ele><time>2026-04-25T15:55:45Z</time></trkpt><trkpt lat="43.336483368588596" lon="10.746753435587951"><ele>54.0</ele><time>2026-04-25T15:55:46Z</time></trkpt><trkpt lat="43.336572055586146" lon="10.746869039257694"><ele>54.5</ele><time>2026-04-25T15:55:47Z</time></trkpt><trkpt lat="43.33666304005336" lon="10.746987793577013"><ele>55.0</ele><time>2026-04-25T15:55:48Z</time></trkpt><trkpt lat="43.336754914188035" lon="10.747104981947473"><ele>55.5</ele><time>2026-04-25T15:55:49Z</time></trkpt><trkpt lat="43.33685035350505" lon="10.74722104279099"><ele>56.0</ele><time>2026-04-25T15:55:50Z</time></trkpt><trkpt lat="43.336943307688976" lon="10.747337790501005"><ele>56.0</ele><time>2026-04-25T15:55:51Z</time></trkpt><trkpt lat="43.33703927558621" lon="10.747460219719796"><ele>56.0</ele><time>2026-04-25T15:55:52Z</time></trkpt><trkpt lat="43.33714151821693" lon="10.747573671421378"><ele>56.0</ele><time>2026-04-25T15:55:53Z</time></trkpt><trkpt lat="43.33724505235079" lon="10.747661157040838"><ele>56.0</ele><time>2026-04-25T15:55:54Z</time></trkpt><trkpt lat="43.337357180706526" lon="10.747734059004753"><ele>55.25</ele><time>2026-04-25T15:55:55Z</time></trkpt><trkpt lat="43.337475174505386" lon="10.747787975738468"><ele>54.5</ele><time>2026-04-25T15:55:56Z</time></trkpt><trkpt lat="43.33760132117233" lon="10.747825177021156"><ele>53.75</ele><time>2026-04-25T15:55:57Z</time></trkpt><trkpt lat="43.337730501760156" lon="10.747850035577683"><ele>53.0</ele><time>2026-04-25T15:55:58Z</time></trkpt><trkpt lat="43.33786257372092" lon="10.74786142335434"><ele>53.0</ele><time>2026-04-25T15:55:59Z</time></trkpt><trkpt lat="43.33799470229307" lon="10.747865251900125"><ele>53.0</ele><time>2026-04-25T15:56:00Z</time></trkpt><trkpt lat="43.33812813851743" lon="10.747859609021218"><ele>53.0</ele><time>2026-04-25T15:56:01Z</time></trkpt><trkpt lat="43.33825439903578" lon="10.74784719367838"><ele>53.0</ele><time>2026-04-25T15:56:02Z</time></trkpt><trkpt lat="43.33838290376283" lon="10.747839620366713"><ele>52.75</ele><time>2026-04-25T15:56:03Z</time></trkpt><trkpt lat="43.33851016458267" lon="10.747830929021715"><ele>52.5</ele><time>2026-04-25T15:56:04Z</time></trkpt><trkpt lat="43.33863380289265" lon="10.747827455767665"><ele>52.25</ele><time>2026-04-25T15:56:05Z</time></trkpt><trkpt lat="43.338763620548576" lon="10.74782542535711"><ele>52.0</ele><time>2026-04-25T15:56:06Z</time></trkpt><trkpt lat="43.33889811404017" lon="10.74782902480027"><ele>52.75</ele><time>2026-04-25T15:56:07Z</time></trkpt><trkpt lat="43.33903611653919" lon="10.747855227150657"><ele>53.5</ele><time>2026-04-25T15:56:08Z</time></trkpt><trkpt lat="43.339170291066026" lon="10.747898017292991"><ele>54.25</ele><time>2026-04-25T15:56:09Z</time></trkpt><trkpt lat="43.33930503664693" lon="10.747943248712843"><ele>55.0</ele><time>2026-04-25T15:56:10Z</time></trkpt><trkpt lat="43.339442866317334" lon="10.747999498456796"><ele>55.0</ele><time>2026-04-25T15:56:11Z</time></trkpt><trkpt lat="43.33958583496625" lon="10.748053543706412"><ele>55.0</ele><time>2026-04-25T15:56:12Z</time></trkpt><trkpt lat="43.33972495335267" lon="10.74811896511706"><ele>55.0</ele><time>2026-04-25T15:56:13Z</time></trkpt><trkpt lat="43.339865255445055" lon="10.748184563844122"><ele>55.0</ele><time>2026-04-25T15:56:14Z</time></trkpt><trkpt lat="43.34000834587723" lon="10.748245681161132"><ele>55.0</ele><time>2026-04-25T15:56:15Z</time></trkpt><trkpt lat="43.34014554423687" lon="10.748305082549313"><ele>55.0</ele><time>2026-04-25T15:56:16Z</time></trkpt><trkpt lat="43.340278971005205" lon="10.74837207952332"><ele>55.0</ele><time>2026-04-25T15:56:17Z</time></trkpt><trkpt lat="43.340410543746906" lon="10.74844175267531"><ele>55.0</ele><time>2026-04-25T15:56:18Z</time></trkpt><trkpt lat="43.34054168371104" lon="10.748517170456386"><ele>54.75</ele><time>2026-04-25T15:56:19Z</time></trkpt><trkpt lat="43.34067241026126" lon="10.748603282014122"><ele>54.5</ele><time>2026-04-25T15:56:20Z</time></trkpt><trkpt lat="43.34080161477731" lon="10.748699606281138"><ele>54.25</ele><time>2026-04-25T15:56:21Z</time></trkpt><trkpt lat="43.340931235443506" lon="10.748802231926097"><ele>54.0</ele><time>2026-04-25T15:56:22Z</time></trkpt><trkpt lat="43.341061733236344" lon="10.74891088584347"><ele>54.0</ele><time>2026-04-25T15:56:23Z</time></trkpt><trkpt lat="43.34119448181203" lon="10.749025951919764"><ele>54.0</ele><time>2026-04-25T15:56:24Z</time></trkpt><trkpt lat="43.3413279887703" lon="10.7491481199053"><ele>54.0</ele><time>2026-04-25T15:56:25Z</time></trkpt><trkpt lat="43.34145774655601" lon="10.749281545357109"><ele>54.33333333333333</ele><time>2026-04-25T15:56:26Z</time></trkpt><trkpt lat="43.34157894315152" lon="10.749431678162521"><ele>54.666666666666664</ele><time>2026-04-25T15:56:27Z</time></trkpt><trkpt lat="43.34169398669939" lon="10.749590682664904"><ele>55.0</ele><time>2026-04-25T15:56:28Z</time></trkpt><trkpt lat="43.34180663620427" lon="10.749752102524328"><ele>55.0</ele><time>2026-04-25T15:56:29Z</time></trkpt><trkpt lat="43.34191807653107" lon="10.7499150972567"><ele>55.0</ele><time>2026-04-25T15:56:30Z</time></trkpt><trkpt lat="43.342027039674825" lon="10.750078693849781"><ele>55.0</ele><time>2026-04-25T15:56:31Z</time></trkpt><trkpt lat="43.34213769670552" lon="10.75023748730488"><ele>55.33333333333333</ele><time>2026-04-25T15:56:32Z</time></trkpt><trkpt lat="43.342249067360555" lon="10.750395766399663"><ele>55.66666666666667</ele><time>2026-04-25T15:56:33Z</time></trkpt><trkpt lat="43.342357474014996" lon="10.75054961587752"><ele>56.0</ele><time>2026-04-25T15:56:34Z</time></trkpt><trkpt lat="43.34246635634851" lon="10.75070472528189"><ele>56.0</ele><time>2026-04-25T15:56:35Z</time></trkpt><trkpt lat="43.34257563220093" lon="10.75085893407812"><ele>56.0</ele><time>2026-04-25T15:56:36Z</time></trkpt><trkpt lat="43.342684558047495" lon="10.751012351933767"><ele>56.0</ele><time>2026-04-25T15:56:37Z</time></trkpt><trkpt lat="43.34279261771801" lon="10.751168824011687"><ele>55.66666666666667</ele><time>2026-04-25T15:56:38Z</time></trkpt><trkpt lat="43.34289893746241" lon="10.751325054589937"><ele>55.33333333333333</ele><time>2026-04-25T15:56:39Z</time></trkpt><trkpt lat="43.34300808107364" lon="10.751484575285035"><ele>55.0</ele><time>2026-04-25T15:56:40Z</time></trkpt><trkpt lat="43.34311572867361" lon="10.75164457721226"><ele>55.33333333333333</ele><time>2026-04-25T15:56:41Z</time></trkpt><trkpt lat="43.343223901025894" lon="10.751803206183423"><ele>55.66666666666667</ele><time>2026-04-25T15:56:42Z</time></trkpt><trkpt lat="43.34333279243405" lon="10.7519601934145"><ele>56.0</ele><time>2026-04-25T15:56:43Z</time></trkpt><trkpt lat="43.34343971937705" lon="10.752116747100704"><ele>56.0</ele><time>2026-04-25T15:56:44Z</time></trkpt><trkpt lat="43.34354293577868" lon="10.752266044313401"><ele>56.0</ele><time>2026-04-25T15:56:45Z</time></trkpt><trkpt lat="43.343642470834816" lon="10.75240644611232"><ele>56.0</ele><time>2026-04-25T15:56:46Z</time></trkpt><trkpt lat="43.34373625298293" lon="10.75254509157592"><ele>56.0</ele><time>2026-04-25T15:56:47Z</time></trkpt><trkpt lat="43.34382848147912" lon="10.752682476089888"><ele>56.25</ele><time>2026-04-25T15:56:48Z</time></trkpt><trkpt lat="43.343922246102586" lon="10.752819977355681"><ele>56.5</ele><time>2026-04-25T15:56:49Z</time></trkpt><trkpt lat="43.34401959099732" lon="10.752956972415706"><ele>56.75</ele><time>2026-04-25T15:56:50Z</time></trkpt><trkpt lat="43.34411743762164" lon="10.753096206794664"><ele>57.0</ele><time>2026-04-25T15:56:51Z</time></trkpt><trkpt lat="43.344217219423825" lon="10.753244270613395"><ele>57.0</ele><time>2026-04-25T15:56:52Z</time></trkpt><trkpt lat="43.34431716153113" lon="10.753393143927628"><ele>57.0</ele><time>2026-04-25T15:56:53Z</time></trkpt><trkpt lat="43.3444144854138" lon="10.753546132522603"><ele>57.0</ele><time>2026-04-25T15:56:54Z</time></trkpt><trkpt lat="43.34450079856427" lon="10.753699336061196"><ele>57.0</ele><time>2026-04-25T15:56:55Z</time></trkpt><trkpt lat="43.344577824911646" lon="10.753861952226336"><ele>56.75</ele><time>2026-04-25T15:56:56Z</time></trkpt><trkpt lat="43.34464274670852" lon="10.754032694998262"><ele>56.5</ele><time>2026-04-25T15:56:57Z</time></trkpt><trkpt lat="43.3446978865225" lon="10.754210445230207"><ele>56.25</ele><time>2026-04-25T15:56:58Z</time></trkpt><trkpt lat="43.34474657828533" lon="10.754382992824429"><ele>56.0</ele><time>2026-04-25T15:56:59Z</time></trkpt><trkpt lat="43.3447887709527" lon="10.754545260731371"><ele>56.0</ele><time>2026-04-25T15:57:00Z</time></trkpt><trkpt lat="43.34482751957757" lon="10.754695626758128"><ele>55.99999999999999</ele><time>2026-04-25T15:57:01Z</time></trkpt><trkpt lat="43.34486301369444" lon="10.75482804259386"><ele>55.99999999999999</ele><time>2026-04-25T15:57:02Z</time></trkpt><trkpt lat="43.344892138861596" lon="10.754942925275689"><ele>56.0</ele><time>2026-04-25T15:57:03Z</time></trkpt><trkpt lat="43.344920510931324" lon="10.755052605236855"><ele>56.0</ele><time>2026-04-25T15:57:04Z</time></trkpt><trkpt lat="43.344931622311634" lon="10.755165198176439"><ele>56.0</ele><time>2026-04-25T15:57:05Z</time></trkpt><trkpt lat="43.34494911285194" lon="10.755279081394676"><ele>55.99999999999999</ele><time>2026-04-25T15:57:06Z</time></trkpt><trkpt lat="43.344959523121894" lon="10.755398853985072"><ele>55.99999999999999</ele><time>2026-04-25T15:57:07Z</time></trkpt><trkpt lat="43.34498719451694" lon="10.755522241184707"><ele>56.0</ele><time>2026-04-25T15:57:08Z</time></trkpt><trkpt lat="43.34503145145265" lon="10.75565062374464"><ele>56.0</ele><time>2026-04-25T15:57:09Z</time></trkpt><trkpt lat="43.345094219999964" lon="10.755786170629449"><ele>56.0</ele><time>2026-04-25T15:57:10Z</time></trkpt><trkpt lat="43.34516421309413" lon="10.755922912284168"><ele>56.0</ele><time>2026-04-25T15:57:11Z</time></trkpt><trkpt lat="43.345250026904054" lon="10.756061943198956"><ele>56.0</ele><time>2026-04-25T15:57:12Z</time></trkpt><trkpt lat="43.345349358073385" lon="10.75619410671301"><ele>56.0</ele><time>2026-04-25T15:57:13Z</time></trkpt><trkpt lat="43.34545335527981" lon="10.756323475570872"><ele>56.25</ele><time>2026-04-25T15:57:14Z</time></trkpt><trkpt lat="43.34556007447104" lon="10.756459810312876"><ele>56.5</ele><time>2026-04-25T15:57:15Z</time></trkpt><trkpt lat="43.345667756922936" lon="10.756596356561076"><ele>56.75</ele><time>2026-04-25T15:57:16Z</time></trkpt><trkpt lat="43.34577667090882" lon="10.75673268108028"><ele>57.0</ele><time>2026-04-25T15:57:17Z</time></trkpt><trkpt lat="43.34588842268982" lon="10.756880972130215"><ele>57.0</ele><time>2026-04-25T15:57:18Z</time></trkpt><trkpt lat="43.345995042772714" lon="10.757044616004118"><ele>57.0</ele><time>2026-04-25T15:57:19Z</time></trkpt><trkpt lat="43.346097308780564" lon="10.757218185811197"><ele>57.0</ele><time>2026-04-25T15:57:20Z</time></trkpt><trkpt lat="43.34619938214136" lon="10.757400265209276"><ele>57.0</ele><time>2026-04-25T15:57:21Z</time></trkpt><trkpt lat="43.34630117816158" lon="10.757589908943242"><ele>57.0</ele><time>2026-04-25T15:57:22Z</time></trkpt><trkpt lat="43.34640061872162" lon="10.757777010320725"><ele>57.0</ele><time>2026-04-25T15:57:23Z</time></trkpt><trkpt lat="43.34650257466616" lon="10.75796386168904"><ele>58.33333333333333</ele><time>2026-04-25T15:57:24Z</time></trkpt><trkpt lat="43.34660506689874" lon="10.758150070088682"><ele>59.666666666666664</ele><time>2026-04-25T15:57:25Z</time></trkpt><trkpt lat="43.346705194632335" lon="10.75833833911798"><ele>61.0</ele><time>2026-04-25T15:57:26Z</time></trkpt><trkpt lat="43.34680624106218" lon="10.758527358514119"><ele>59.666666666666664</ele><time>2026-04-25T15:57:27Z</time></trkpt><trkpt lat="43.34690684727687" lon="10.75871532633049"><ele>58.33333333333333</ele><time>2026-04-25T15:57:28Z</time></trkpt><trkpt lat="43.3470050426182" lon="10.758898742984268"><ele>57.0</ele><time>2026-04-25T15:57:29Z</time></trkpt><trkpt lat="43.34710184408722" lon="10.759081207573693"><ele>57.0</ele><time>2026-04-25T15:57:30Z</time></trkpt><trkpt lat="43.347191633850855" lon="10.759270695153386"><ele>57.0</ele><time>2026-04-25T15:57:31Z</time></trkpt><trkpt lat="43.34727109243886" lon="10.759468826595366"><ele>57.0</ele><time>2026-04-25T15:57:32Z</time></trkpt><trkpt lat="43.34734282432188" lon="10.759672901792392"><ele>56.66666666666667</ele><time>2026-04-25T15:57:33Z</time></trkpt><trkpt lat="43.34740731892305" lon="10.759885146895552"><ele>56.333333333333336</ele><time>2026-04-25T15:57:34Z</time></trkpt><trkpt lat="43.34745818953829" lon="10.760104869779585"><ele>56.0</ele><time>2026-04-25T15:57:35Z</time></trkpt><trkpt lat="43.34749473511019" lon="10.760326242794285"><ele>56.66666666666667</ele><time>2026-04-25T15:57:36Z</time></trkpt><trkpt lat="43.34751932988319" lon="10.760551559645956"><ele>57.33333333333333</ele><time>2026-04-25T15:57:37Z</time></trkpt><trkpt lat="43.34753762910017" lon="10.760776107245107"><ele>58.0</ele><time>2026-04-25T15:57:38Z</time></trkpt><trkpt lat="43.34756175886521" lon="10.761000230390101"><ele>58.33333333333333</ele><time>2026-04-25T15:57:39Z</time></trkpt><trkpt lat="43.3475902587314" lon="10.761221017903404"><ele>58.66666666666667</ele><time>2026-04-25T15:57:40Z</time></trkpt><trkpt lat="43.34761681198882" lon="10.761441825814593"><ele>59.0</ele><time>2026-04-25T15:57:41Z</time></trkpt><trkpt lat="43.347641041109554" lon="10.761663432041969"><ele>58.66666666666667</ele><time>2026-04-25T15:57:42Z</time></trkpt><trkpt lat="43.34766576698778" lon="10.761885243116662"><ele>58.33333333333333</ele><time>2026-04-25T15:57:43Z</time></trkpt><trkpt lat="43.34770158552222" lon="10.762105865952027"><ele>58.0</ele><time>2026-04-25T15:57:44Z</time></trkpt><trkpt lat="43.34774748926183" lon="10.762325845731127"><ele>58.0</ele><time>2026-04-25T15:57:45Z</time></trkpt><trkpt lat="43.34779936105367" lon="10.76254270772652"><ele>58.0</ele><time>2026-04-25T15:57:46Z</time></trkpt><trkpt lat="43.34785851382628" lon="10.762758626140755"><ele>58.0</ele><time>2026-04-25T15:57:47Z</time></trkpt><trkpt lat="43.34792144861574" lon="10.762972738736305"><ele>58.33333333333333</ele><time>2026-04-25T15:57:48Z</time></trkpt><trkpt lat="43.347987558125475" lon="10.763185468089187"><ele>58.66666666666667</ele><time>2026-04-25T15:57:49Z</time></trkpt><trkpt lat="43.3480517831325" lon="10.763395567396946"><ele>59.0</ele><time>2026-04-25T15:57:50Z</time></trkpt><trkpt lat="43.34811851818902" lon="10.763602975427922"><ele>61.0</ele><time>2026-04-25T15:57:51Z</time></trkpt><trkpt lat="43.348186782641285" lon="10.763810995912342"><ele>63.0</ele><time>2026-04-25T15:57:52Z</time></trkpt><trkpt lat="43.34825526340176" lon="10.764025856044249"><ele>65.0</ele><time>2026-04-25T15:57:53Z</time></trkpt><trkpt lat="43.34832001703805" lon="10.76423248274007"><ele>63.333333333333336</ele><time>2026-04-25T15:57:54Z</time></trkpt><trkpt lat="43.34838367883147" lon="10.764429304440407"><ele>61.66666666666667</ele><time>2026-04-25T15:57:55Z</time></trkpt><trkpt lat="43.3484482688034" lon="10.764617035552952"><ele>60.0</ele><time>2026-04-25T15:57:56Z</time></trkpt><trkpt lat="43.34851421858164" lon="10.764795911843802"><ele>60.0</ele><time>2026-04-25T15:57:57Z</time></trkpt><trkpt lat="43.34858360568736" lon="10.764962279823795"><ele>60.0</ele><time>2026-04-25T15:57:58Z</time></trkpt><trkpt lat="43.348657373850784" lon="10.765118994302098"><ele>60.0</ele><time>2026-04-25T15:57:59Z</time></trkpt><trkpt lat="43.34873203435561" lon="10.765266732794856"><ele>60.0</ele><time>2026-04-25T15:58:00Z</time></trkpt><trkpt lat="43.34880754922774" lon="10.765407972734875"><ele>60.25</ele><time>2026-04-25T15:58:01Z</time></trkpt><trkpt lat="43.34889075069328" lon="10.765547241464217"><ele>60.5</ele><time>2026-04-25T15:58:02Z</time></trkpt><trkpt lat="43.34897385488776" lon="10.76567955606163"><ele>60.75</ele><time>2026-04-25T15:58:03Z</time></trkpt><trkpt lat="43.349057518962766" lon="10.765810146343245"><ele>61.0</ele><time>2026-04-25T15:58:04Z</time></trkpt><trkpt lat="43.34913999083781" lon="10.765936232632537"><ele>60.0</ele><time>2026-04-25T15:58:05Z</time></trkpt><trkpt lat="43.34922099555417" lon="10.766059557010696"><ele>58.99999999999999</ele><time>2026-04-25T15:58:06Z</time></trkpt><trkpt lat="43.349299625519265" lon="10.766175132646232"><ele>57.99999999999999</ele><time>2026-04-25T15:58:07Z</time></trkpt><trkpt lat="43.34936484137306" lon="10.766287160666156"><ele>57.0</ele><time>2026-04-25T15:58:08Z</time></trkpt><trkpt lat="43.349416452418666" lon="10.766397327678643"><ele>56.0</ele><time>2026-04-25T15:58:09Z</time></trkpt><trkpt lat="43.34945310708489" lon="10.766498123059852"><ele>56.00000000000001</ele><time>2026-04-25T15:58:10Z</time></trkpt><trkpt lat="43.34947872926382" lon="10.766597032281926"><ele>56.0</ele><time>2026-04-25T15:58:11Z</time></trkpt><trkpt lat="43.34948977907511" lon="10.76668349892562"><ele>56.0</ele><time>2026-04-25T15:58:12Z</time></trkpt><trkpt lat="43.34948556521898" lon="10.766808207802512"><ele>56.0</ele><time>2026-04-25T15:58:14Z</time></trkpt><trkpt lat="43.34946737577347" lon="10.766986959662445"><ele>56.00000000000001</ele><time>2026-04-25T15:58:16Z</time></trkpt><trkpt lat="43.34945902514373" lon="10.767097982160264"><ele>56.0</ele><time>2026-04-25T15:58:17Z</time></trkpt><trkpt lat="43.34945675538451" lon="10.767227590815768"><ele>55.75</ele><time>2026-04-25T15:58:18Z</time></trkpt><trkpt lat="43.34946243104948" lon="10.76737663649066"><ele>55.5</ele><time>2026-04-25T15:58:19Z</time></trkpt><trkpt lat="43.34947518526065" lon="10.767533489317927"><ele>55.25</ele><time>2026-04-25T15:58:20Z</time></trkpt><trkpt lat="43.349494543171765" lon="10.767701448816412"><ele>55.0</ele><time>2026-04-25T15:58:21Z</time></trkpt><trkpt lat="43.3495267156636" lon="10.76787344372001"><ele>55.0</ele><time>2026-04-25T15:58:22Z</time></trkpt><trkpt lat="43.349564017420036" lon="10.768052579159685"><ele>55.0</ele><time>2026-04-25T15:58:23Z</time></trkpt><trkpt lat="43.34960505850758" lon="10.768228035276747"><ele>55.0</ele><time>2026-04-25T15:58:24Z</time></trkpt><trkpt lat="43.349652269732935" lon="10.768398448040937"><ele>55.0</ele><time>2026-04-25T15:58:25Z</time></trkpt><trkpt lat="43.34971649480414" lon="10.768567930101403"><ele>55.25</ele><time>2026-04-25T15:58:26Z</time></trkpt><trkpt lat="43.3497916128866" lon="10.768729985882235"><ele>55.5</ele><time>2026-04-25T15:58:27Z</time></trkpt><trkpt lat="43.349872451217514" lon="10.768893937371585"><ele>55.75</ele><time>2026-04-25T15:58:28Z</time></trkpt><trkpt lat="43.349951255042036" lon="10.769057154928582"><ele>56.0</ele><time>2026-04-25T15:58:29Z</time></trkpt><trkpt lat="43.35003424953706" lon="10.769229065057992"><ele>56.0</ele><time>2026-04-25T15:58:30Z</time></trkpt><trkpt lat="43.35012243122123" lon="10.769405086717331"><ele>56.0</ele><time>2026-04-25T15:58:31Z</time></trkpt><trkpt lat="43.35021060291898" lon="10.769583015113893"><ele>56.0</ele><time>2026-04-25T15:58:32Z</time></trkpt><trkpt lat="43.35029829414009" lon="10.76975977962553"><ele>56.0</ele><time>2026-04-25T15:58:33Z</time></trkpt><trkpt lat="43.350388079389624" lon="10.769936351945994"><ele>56.0</ele><time>2026-04-25T15:58:34Z</time></trkpt><trkpt lat="43.35047819724815" lon="10.770115246408013"><ele>56.0</ele><time>2026-04-25T15:58:35Z</time></trkpt><trkpt lat="43.35057095159939" lon="10.770295046177683"><ele>56.333333333333336</ele><time>2026-04-25T15:58:36Z</time></trkpt><trkpt lat="43.35066078258313" lon="10.770470915992293"><ele>56.66666666666667</ele><time>2026-04-25T15:58:37Z</time></trkpt><trkpt lat="43.350750433086674" lon="10.770646644151935"><ele>57.0</ele><time>2026-04-25T15:58:38Z</time></trkpt><trkpt lat="43.35084692604677" lon="10.77082224993602"><ele>57.0</ele><time>2026-04-25T15:58:39Z</time></trkpt><trkpt lat="43.350945364855846" lon="10.77099623773799"><ele>57.0</ele><time>2026-04-25T15:58:40Z</time></trkpt><trkpt lat="43.351045173300875" lon="10.771174363944265"><ele>57.0</ele><time>2026-04-25T15:58:41Z</time></trkpt><trkpt lat="43.3511425461484" lon="10.771350704263238"><ele>56.33333333333333</ele><time>2026-04-25T15:58:42Z</time></trkpt><trkpt lat="43.35124410484674" lon="10.771525385163354"><ele>55.666666666666664</ele><time>2026-04-25T15:58:43Z</time></trkpt><trkpt lat="43.35134645358082" lon="10.77169927361268"><ele>55.0</ele><time>2026-04-25T15:58:44Z</time></trkpt><trkpt lat="43.35144947013605" lon="10.771871740940485"><ele>55.0</ele><time>2026-04-25T15:58:45Z</time></trkpt><trkpt lat="43.35155066123735" lon="10.772044296313332"><ele>55.0</ele><time>2026-04-25T15:58:46Z</time></trkpt><trkpt lat="43.35165288291696" lon="10.772217123492137"><ele>55.0</ele><time>2026-04-25T15:58:47Z</time></trkpt><trkpt lat="43.3517530561782" lon="10.772388633503027"><ele>55.0</ele><time>2026-04-25T15:58:48Z</time></trkpt><trkpt lat="43.351850999980805" lon="10.772559988819001"><ele>55.0</ele><time>2026-04-25T15:58:49Z</time></trkpt><trkpt lat="43.35195008167759" lon="10.772729846504932"><ele>55.0</ele><time>2026-04-25T15:58:50Z</time></trkpt><trkpt lat="43.35205010776105" lon="10.772905253404977"><ele>54.666666666666664</ele><time>2026-04-25T15:58:51Z</time></trkpt><trkpt lat="43.352150219893566" lon="10.773075642976805"><ele>54.33333333333333</ele><time>2026-04-25T15:58:52Z</time></trkpt><trkpt lat="43.35225031670729" lon="10.77325116994524"><ele>54.0</ele><time>2026-04-25T15:58:53Z</time></trkpt><trkpt lat="43.35234731253539" lon="10.773418182029527"><ele>54.66666666666667</ele><time>2026-04-25T15:58:54Z</time></trkpt><trkpt lat="43.3524426102372" lon="10.773581427026414"><ele>55.333333333333336</ele><time>2026-04-25T15:58:55Z</time></trkpt><trkpt lat="43.35253678968327" lon="10.773739562875962"><ele>56.0</ele><time>2026-04-25T15:58:56Z</time></trkpt><trkpt lat="43.3526320635995" lon="10.773902186628439"><ele>56.0</ele><time>2026-04-25T15:58:57Z</time></trkpt><trkpt lat="43.3527280059765" lon="10.774065036267823"><ele>56.0</ele><time>2026-04-25T15:58:58Z</time></trkpt><trkpt lat="43.35282424350301" lon="10.774229439001147"><ele>56.0</ele><time>2026-04-25T15:58:59Z</time></trkpt><trkpt lat="43.35292027893207" lon="10.774398525534043"><ele>56.333333333333336</ele><time>2026-04-25T15:59:00Z</time></trkpt><trkpt lat="43.353018256033955" lon="10.774561999062493"><ele>56.66666666666667</ele><time>2026-04-25T15:59:01Z</time></trkpt><trkpt lat="43.35311607224862" lon="10.77472960707308"><ele>57.0</ele><time>2026-04-25T15:59:02Z</time></trkpt><trkpt lat="43.353213898062386" lon="10.77489401925024"><ele>57.0</ele><time>2026-04-25T15:59:03Z</time></trkpt><trkpt lat="43.353312787401045" lon="10.775059517884158"><ele>57.0</ele><time>2026-04-25T15:59:04Z</time></trkpt><trkpt lat="43.35340957409962" lon="10.77522490462534"><ele>57.0</ele><time>2026-04-25T15:59:05Z</time></trkpt><trkpt lat="43.353500547924774" lon="10.775382844880985"><ele>56.75</ele><time>2026-04-25T15:59:06Z</time></trkpt><trkpt lat="43.35359212555814" lon="10.775519660379727"><ele>56.5</ele><time>2026-04-25T15:59:07Z</time></trkpt><trkpt lat="43.35368871096703" lon="10.775645517920019"><ele>56.25</ele><time>2026-04-25T15:59:08Z</time></trkpt><trkpt lat="43.353791451579816" lon="10.775757934418142"><ele>56.0</ele><time>2026-04-25T15:59:09Z</time></trkpt><trkpt lat="43.35389455333068" lon="10.775855392571422"><ele>56.199999999999996</ele><time>2026-04-25T15:59:10Z</time></trkpt><trkpt lat="43.35399480974319" lon="10.77593557610735"><ele>56.39999999999999</ele><time>2026-04-25T15:59:11Z</time></trkpt><trkpt lat="43.35408719945063" lon="10.775997998833772"><ele>56.6</ele><time>2026-04-25T15:59:12Z</time></trkpt><trkpt lat="43.354181808086246" lon="10.77605868339157"><ele>56.8</ele><time>2026-04-25T15:59:13Z</time></trkpt><trkpt lat="43.35427589450662" lon="10.776113997762703"><ele>57.0</ele><time>2026-04-25T15:59:14Z</time></trkpt><trkpt lat="43.35437185831595" lon="10.776168113404275"><ele>57.0</ele><time>2026-04-25T15:59:15Z</time></trkpt><trkpt lat="43.354458113810495" lon="10.776222901537016"><ele>57.0</ele><time>2026-04-25T15:59:16Z</time></trkpt><trkpt lat="43.35455951133293" lon="10.776282921058531"><ele>57.0</ele><time>2026-04-25T15:59:17Z</time></trkpt><trkpt lat="43.35466822124847" lon="10.776349554196374"><ele>57.0</ele><time>2026-04-25T15:59:18Z</time></trkpt><trkpt lat="43.35477730694213" lon="10.776420854224261"><ele>57.0</ele><time>2026-04-25T15:59:19Z</time></trkpt><trkpt lat="43.35489679349636" lon="10.776495423543532"><ele>57.5</ele><time>2026-04-25T15:59:20Z</time></trkpt><trkpt lat="43.355027589100054" lon="10.776568013093026"><ele>58.0</ele><time>2026-04-25T15:59:21Z</time></trkpt><trkpt lat="43.355148417927396" lon="10.776640127755288"><ele>58.5</ele><time>2026-04-25T15:59:22Z</time></trkpt><trkpt lat="43.35527092629638" lon="10.776727698377396"><ele>59.0</ele><time>2026-04-25T15:59:23Z</time></trkpt><trkpt lat="43.35538313754389" lon="10.776794443883789"><ele>58.5</ele><time>2026-04-25T15:59:24Z</time></trkpt><trkpt lat="43.355486989629924" lon="10.77690333331009"><ele>58.0</ele><time>2026-04-25T15:59:25Z</time></trkpt><trkpt lat="43.35559066460977" lon="10.777030682754472"><ele>57.5</ele><time>2026-04-25T15:59:26Z</time></trkpt><trkpt lat="43.35569415215481" lon="10.777162607857207"><ele>57.0</ele><time>2026-04-25T15:59:27Z</time></trkpt><trkpt lat="43.35579070674587" lon="10.777298963551509"><ele>57.25</ele><time>2026-04-25T15:59:28Z</time></trkpt><trkpt lat="43.355883036879646" lon="10.777443127817973"><ele>57.5</ele><time>2026-04-25T15:59:29Z</time></trkpt><trkpt lat="43.35596779141918" lon="10.777601258351968"><ele>57.75</ele><time>2026-04-25T15:59:30Z</time></trkpt><trkpt lat="43.35604657546444" lon="10.777773634324344"><ele>58.0</ele><time>2026-04-25T15:59:31Z</time></trkpt><trkpt lat="43.35611689016959" lon="10.777949874940472"><ele>58.0</ele><time>2026-04-25T15:59:32Z</time></trkpt><trkpt lat="43.35618191500438" lon="10.77813830484454"><ele>58.0</ele><time>2026-04-25T15:59:33Z</time></trkpt><trkpt lat="43.35624019124719" lon="10.778336179515247"><ele>58.0</ele><time>2026-04-25T15:59:34Z</time></trkpt><trkpt lat="43.356287445029274" lon="10.778547950713913"><ele>57.666666666666664</ele><time>2026-04-25T15:59:35Z</time></trkpt><trkpt lat="43.35632269975926" lon="10.778765601989358"><ele>57.33333333333333</ele><time>2026-04-25T15:59:36Z</time></trkpt><trkpt lat="43.35634634012529" lon="10.778982613763024"><ele>57.0</ele><time>2026-04-25T15:59:37Z</time></trkpt><trkpt lat="43.35636342707324" lon="10.779202939317932"><ele>58.0</ele><time>2026-04-25T15:59:38Z</time></trkpt><trkpt lat="43.356371329716225" lon="10.779421685213096"><ele>59.0</ele><time>2026-04-25T15:59:39Z</time></trkpt><trkpt lat="43.356379782065794" lon="10.779641577438522"><ele>60.0</ele><time>2026-04-25T15:59:40Z</time></trkpt><trkpt lat="43.35638632796419" lon="10.779858388692952"><ele>60.0</ele><time>2026-04-25T15:59:41Z</time></trkpt><trkpt lat="43.3563941997836" lon="10.780075043460432"><ele>60.0</ele><time>2026-04-25T15:59:42Z</time></trkpt><trkpt lat="43.35640204427604" lon="10.780289912191034"><ele>60.0</ele><time>2026-04-25T15:59:43Z</time></trkpt><trkpt lat="43.35640523290465" lon="10.780507190188796"><ele>60.0</ele><time>2026-04-25T15:59:44Z</time></trkpt><trkpt lat="43.35640998953669" lon="10.780720365641239"><ele>60.0</ele><time>2026-04-25T15:59:45Z</time></trkpt><trkpt lat="43.356414873455776" lon="10.780937169705842"><ele>60.0</ele><time>2026-04-25T15:59:46Z</time></trkpt><trkpt lat="43.35642022017019" lon="10.78115410557414"><ele>59.66666666666667</ele><time>2026-04-25T15:59:47Z</time></trkpt><trkpt lat="43.35642565794597" lon="10.781374557876257"><ele>59.333333333333336</ele><time>2026-04-25T15:59:48Z</time></trkpt><trkpt lat="43.356431274415506" lon="10.78160095357753"><ele>59.0</ele><time>2026-04-25T15:59:49Z</time></trkpt><trkpt lat="43.35643696548615" lon="10.781834700417761"><ele>58.66666666666667</ele><time>2026-04-25T15:59:50Z</time></trkpt><trkpt lat="43.35644556587295" lon="10.782069446605933"><ele>58.33333333333333</ele><time>2026-04-25T15:59:51Z</time></trkpt><trkpt lat="43.35645854537679" lon="10.782301090579828"><ele>58.0</ele><time>2026-04-25T15:59:52Z</time></trkpt><trkpt lat="43.35647630974535" lon="10.782535746673432"><ele>58.33333333333333</ele><time>2026-04-25T15:59:53Z</time></trkpt><trkpt lat="43.356502411896905" lon="10.782770064487423"><ele>58.66666666666667</ele><time>2026-04-25T15:59:54Z</time></trkpt><trkpt lat="43.356535218084574" lon="10.783011732385877"><ele>59.0</ele><time>2026-04-25T15:59:55Z</time></trkpt><trkpt lat="43.35656902991959" lon="10.783259145955505"><ele>59.0</ele><time>2026-04-25T15:59:56Z</time></trkpt><trkpt lat="43.35660613575955" lon="10.78350443891555"><ele>59.0</ele><time>2026-04-25T15:59:57Z</time></trkpt><trkpt lat="43.35664386899135" lon="10.783749409465612"><ele>59.0</ele><time>2026-04-25T15:59:58Z</time></trkpt><trkpt lat="43.35668224352301" lon="10.7839938985569"><ele>59.333333333333336</ele><time>2026-04-25T15:59:59Z</time></trkpt><trkpt lat="43.35672177739487" lon="10.784239199410871"><ele>59.66666666666667</ele><time>2026-04-25T16:00:00Z</time></trkpt><trkpt lat="43.35676005948637" lon="10.78448852045722"><ele>60.0</ele><time>2026-04-25T16:00:01Z</time></trkpt><trkpt lat="43.356797851697046" lon="10.784740688153697"><ele>60.0</ele><time>2026-04-25T16:00:02Z</time></trkpt><trkpt lat="43.356836570988854" lon="10.784993003692904"><ele>60.0</ele><time>2026-04-25T16:00:03Z</time></trkpt><trkpt lat="43.35687566323312" lon="10.785245806514203"><ele>60.0</ele><time>2026-04-25T16:00:04Z</time></trkpt><trkpt lat="43.356913199819886" lon="10.785500356012582"><ele>60.0</ele><time>2026-04-25T16:00:05Z</time></trkpt><trkpt lat="43.356950418668035" lon="10.785754139712303"><ele>60.0</ele><time>2026-04-25T16:00:06Z</time></trkpt><trkpt lat="43.35698996613204" lon="10.78600835170066"><ele>60.0</ele><time>2026-04-25T16:00:07Z</time></trkpt><trkpt lat="43.35702757558976" lon="10.786262706944909"><ele>60.0</ele><time>2026-04-25T16:00:08Z</time></trkpt><trkpt lat="43.35706407890531" lon="10.786514579267607"><ele>60.0</ele><time>2026-04-25T16:00:09Z</time></trkpt><trkpt lat="43.35710119676056" lon="10.786770039528578"><ele>60.0</ele><time>2026-04-25T16:00:10Z</time></trkpt><trkpt lat="43.35713654461861" lon="10.78702515670925"><ele>59.66666666666667</ele><time>2026-04-25T16:00:11Z</time></trkpt><trkpt lat="43.35716706151841" lon="10.787279391016636"><ele>59.333333333333336</ele><time>2026-04-25T16:00:12Z</time></trkpt><trkpt lat="43.3571940027186" lon="10.787534658593973"><ele>59.0</ele><time>2026-04-25T16:00:13Z</time></trkpt><trkpt lat="43.35721437430142" lon="10.787786784773365"><ele>61.333333333333336</ele><time>2026-04-25T16:00:14Z</time></trkpt><trkpt lat="43.35722712409604" lon="10.788041988082195"><ele>63.66666666666667</ele><time>2026-04-25T16:00:15Z</time></trkpt><trkpt lat="43.35724101600411" lon="10.788295493687302"><ele>66.0</ele><time>2026-04-25T16:00:16Z</time></trkpt><trkpt lat="43.35724861871757" lon="10.788548318195382"><ele>67.0</ele><time>2026-04-25T16:00:17Z</time></trkpt><trkpt lat="43.357251467252844" lon="10.788802797848966"><ele>68.0</ele><time>2026-04-25T16:00:18Z</time></trkpt><trkpt lat="43.35725309395374" lon="10.78905833339434"><ele>69.0</ele><time>2026-04-25T16:00:19Z</time></trkpt><trkpt lat="43.357252338872165" lon="10.789316247263931"><ele>67.0</ele><time>2026-04-25T16:00:20Z</time></trkpt><trkpt lat="43.35724410140044" lon="10.789570898798878"><ele>65.0</ele><time>2026-04-25T16:00:21Z</time></trkpt><trkpt lat="43.35723221137799" lon="10.789826616507886"><ele>63.0</ele><time>2026-04-25T16:00:22Z</time></trkpt><trkpt lat="43.35721295510184" lon="10.790082284431296"><ele>61.66666666666667</ele><time>2026-04-25T16:00:23Z</time></trkpt><trkpt lat="43.357188690332585" lon="10.790334910564924"><ele>60.333333333333336</ele><time>2026-04-25T16:00:24Z</time></trkpt><trkpt lat="43.35715893643718" lon="10.790590722321665"><ele>59.0</ele><time>2026-04-25T16:00:25Z</time></trkpt><trkpt lat="43.357127477257464" lon="10.790846144752948"><ele>59.333333333333336</ele><time>2026-04-25T16:00:26Z</time></trkpt><trkpt lat="43.35709081618114" lon="10.791098713541139"><ele>59.66666666666667</ele><time>2026-04-25T16:00:27Z</time></trkpt><trkpt lat="43.3570533420296" lon="10.791352273763383"><ele>60.0</ele><time>2026-04-25T16:00:28Z</time></trkpt><trkpt lat="43.3570095479734" lon="10.791606163296043"><ele>59.33333333333333</ele><time>2026-04-25T16:00:29Z</time></trkpt><trkpt lat="43.35695863517483" lon="10.791854918634579"><ele>58.666666666666664</ele><time>2026-04-25T16:00:30Z</time></trkpt><trkpt lat="43.35690803646738" lon="10.792103490152947"><ele>58.0</ele><time>2026-04-25T16:00:31Z</time></trkpt><trkpt lat="43.35685596106472" lon="10.792351536199279"><ele>58.0</ele><time>2026-04-25T16:00:32Z</time></trkpt><trkpt lat="43.35680176229854" lon="10.792597621136565"><ele>58.0</ele><time>2026-04-25T16:00:33Z</time></trkpt><trkpt lat="43.35674595125886" lon="10.792845377247652"><ele>58.0</ele><time>2026-04-25T16:00:34Z</time></trkpt><trkpt lat="43.35669031272725" lon="10.79309531391355"><ele>58.666666666666664</ele><time>2026-04-25T16:00:35Z</time></trkpt><trkpt lat="43.356631502956915" lon="10.793346278247656"><ele>59.33333333333333</ele><time>2026-04-25T16:00:36Z</time></trkpt><trkpt lat="43.356575517346755" lon="10.79359735256427"><ele>60.0</ele><time>2026-04-25T16:00:37Z</time></trkpt><trkpt lat="43.35652126520015" lon="10.793843575142938"><ele>60.33333333333333</ele><time>2026-04-25T16:00:38Z</time></trkpt><trkpt lat="43.35646849070025" lon="10.794090359416803"><ele>60.666666666666664</ele><time>2026-04-25T16:00:39Z</time></trkpt><trkpt lat="43.356420539564056" lon="10.794334371199731"><ele>61.0</ele><time>2026-04-25T16:00:40Z</time></trkpt><trkpt lat="43.35637794376073" lon="10.794582938318934"><ele>60.666666666666664</ele><time>2026-04-25T16:00:41Z</time></trkpt><trkpt lat="43.356346905628975" lon="10.794832604875703"><ele>60.33333333333333</ele><time>2026-04-25T16:00:42Z</time></trkpt><trkpt lat="43.356318830933475" lon="10.795085615886661"><ele>60.0</ele><time>2026-04-25T16:00:43Z</time></trkpt><trkpt lat="43.356301832409066" lon="10.795335932565347"><ele>60.66666666666667</ele><time>2026-04-25T16:00:44Z</time></trkpt><trkpt lat="43.35629688601286" lon="10.795590204296749"><ele>61.333333333333336</ele><time>2026-04-25T16:00:45Z</time></trkpt><trkpt lat="43.35630156713713" lon="10.795841859013413"><ele>62.0</ele><time>2026-04-25T16:00:46Z</time></trkpt><trkpt lat="43.35631271861988" lon="10.796091472142468"><ele>62.0</ele><time>2026-04-25T16:00:47Z</time></trkpt><trkpt lat="43.35633447597979" lon="10.796338077921874"><ele>62.0</ele><time>2026-04-25T16:00:48Z</time></trkpt><trkpt lat="43.35636881971975" lon="10.796577429480573"><ele>62.0</ele><time>2026-04-25T16:00:49Z</time></trkpt><trkpt lat="43.35641207918134" lon="10.796812506448276"><ele>64.66666666666667</ele><time>2026-04-25T16:00:50Z</time></trkpt><trkpt lat="43.356466679539935" lon="10.797036285385778"><ele>67.33333333333333</ele><time>2026-04-25T16:00:51Z</time></trkpt><trkpt lat="43.35653102501814" lon="10.797261067857711"><ele>70.0</ele><time>2026-04-25T16:00:52Z</time></trkpt><trkpt lat="43.3566040696612" lon="10.79748278060459"><ele>68.33333333333333</ele><time>2026-04-25T16:00:53Z</time></trkpt><trkpt lat="43.35668478500952" lon="10.797701296779683"><ele>66.66666666666667</ele><time>2026-04-25T16:00:54Z</time></trkpt><trkpt lat="43.35677600932932" lon="10.797912608767412"><ele>65.0</ele><time>2026-04-25T16:00:55Z</time></trkpt><trkpt lat="43.356877443890454" lon="10.79812007672517"><ele>65.0</ele><time>2026-04-25T16:00:56Z</time></trkpt><trkpt lat="43.356982864185696" lon="10.7983175430382"><ele>65.0</ele><time>2026-04-25T16:00:57Z</time></trkpt><trkpt lat="43.357093888107094" lon="10.798495752230771"><ele>65.0</ele><time>2026-04-25T16:00:58Z</time></trkpt><trkpt lat="43.35720826085007" lon="10.798667237022672"><ele>65.66666666666667</ele><time>2026-04-25T16:00:59Z</time></trkpt><trkpt lat="43.35731831944838" lon="10.798836067497806"><ele>66.33333333333333</ele><time>2026-04-25T16:01:00Z</time></trkpt><trkpt lat="43.35742344195797" lon="10.799005153521955"><ele>67.0</ele><time>2026-04-25T16:01:01Z</time></trkpt><trkpt lat="43.35752860737899" lon="10.799166306092488"><ele>66.33333333333333</ele><time>2026-04-25T16:01:02Z</time></trkpt><trkpt lat="43.357625997482685" lon="10.799340519061667"><ele>65.66666666666667</ele><time>2026-04-25T16:01:03Z</time></trkpt><trkpt lat="43.3577090362205" lon="10.79952871873775"><ele>65.0</ele><time>2026-04-25T16:01:04Z</time></trkpt><trkpt lat="43.35778623232114" lon="10.799720179195962"><ele>65.0</ele><time>2026-04-25T16:01:05Z</time></trkpt><trkpt lat="43.35785277131229" lon="10.79992184307402"><ele>65.0</ele><time>2026-04-25T16:01:06Z</time></trkpt><trkpt lat="43.35791427160034" lon="10.800128513481251"><ele>65.0</ele><time>2026-04-25T16:01:07Z</time></trkpt><trkpt lat="43.35797910840832" lon="10.800333708361132"><ele>67.33333333333334</ele><time>2026-04-25T16:01:08Z</time></trkpt><trkpt lat="43.358045381517854" lon="10.800537308523344"><ele>69.66666666666667</ele><time>2026-04-25T16:01:09Z</time></trkpt><trkpt lat="43.35811330197765" lon="10.800740291736513"><ele>72.0</ele><time>2026-04-25T16:01:10Z</time></trkpt><trkpt lat="43.35818433663856" lon="10.80093917116253"><ele>70.33333333333333</ele><time>2026-04-25T16:01:11Z</time></trkpt><trkpt lat="43.358262884188484" lon="10.80113562319601"><ele>68.66666666666666</ele><time>2026-04-25T16:01:12Z</time></trkpt><trkpt lat="43.358353536955676" lon="10.801327747269426"><ele>67.0</ele><time>2026-04-25T16:01:13Z</time></trkpt><trkpt lat="43.35845394125971" lon="10.801514421107955"><ele>67.0</ele><time>2026-04-25T16:01:14Z</time></trkpt><trkpt lat="43.358565101157815" lon="10.801694770744447"><ele>67.0</ele><time>2026-04-25T16:01:15Z</time></trkpt><trkpt lat="43.358672056263494" lon="10.801868929375635"><ele>67.0</ele><time>2026-04-25T16:01:16Z</time></trkpt><trkpt lat="43.35877457211456" lon="10.802024707286716"><ele>67.5</ele><time>2026-04-25T16:01:17Z</time></trkpt><trkpt lat="43.3588742030617" lon="10.802173178101508"><ele>68.0</ele><time>2026-04-25T16:01:18Z</time></trkpt><trkpt lat="43.35897447857175" lon="10.802325822126134"><ele>68.5</ele><time>2026-04-25T16:01:19Z</time></trkpt><trkpt lat="43.35906912493839" lon="10.802472765484286"><ele>69.0</ele><time>2026-04-25T16:01:20Z</time></trkpt><trkpt lat="43.3591551148383" lon="10.80262778832797"><ele>68.25</ele><time>2026-04-25T16:01:21Z</time></trkpt><trkpt lat="43.359227478758406" lon="10.802783160385468"><ele>67.5</ele><time>2026-04-25T16:01:22Z</time></trkpt><trkpt lat="43.359287312773056" lon="10.802943655125437"><ele>66.75</ele><time>2026-04-25T16:01:23Z</time></trkpt><trkpt lat="43.35933215771978" lon="10.803113633401393"><ele>66.0</ele><time>2026-04-25T16:01:24Z</time></trkpt><trkpt lat="43.359363469964364" lon="10.803290733109927"><ele>66.0</ele><time>2026-04-25T16:01:25Z</time></trkpt><trkpt lat="43.359389371779066" lon="10.803478004051943"><ele>66.0</ele><time>2026-04-25T16:01:26Z</time></trkpt><trkpt lat="43.359418118173735" lon="10.803652148921536"><ele>66.0</ele><time>2026-04-25T16:01:27Z</time></trkpt><trkpt lat="43.35943633572112" lon="10.803829470016296"><ele>66.0</ele><time>2026-04-25T16:01:28Z</time></trkpt><trkpt lat="43.359437221554685" lon="10.804015100374807"><ele>65.75</ele><time>2026-04-25T16:01:29Z</time></trkpt><trkpt lat="43.359421135138895" lon="10.804196972304213"><ele>65.5</ele><time>2026-04-25T16:01:30Z</time></trkpt><trkpt lat="43.35940400596448" lon="10.80437492209428"><ele>65.25</ele><time>2026-04-25T16:01:31Z</time></trkpt><trkpt lat="43.35938475896665" lon="10.804556339473729"><ele>65.0</ele><time>2026-04-25T16:01:32Z</time></trkpt><trkpt lat="43.35936543846591" lon="10.804746427320103"><ele>65.5</ele><time>2026-04-25T16:01:33Z</time></trkpt><trkpt lat="43.35934340757477" lon="10.804941300294763"><ele>66.0</ele><time>2026-04-25T16:01:34Z</time></trkpt><trkpt lat="43.35932153482768" lon="10.805131703250474"><ele>66.5</ele><time>2026-04-25T16:01:35Z</time></trkpt><trkpt lat="43.35929762130216" lon="10.805324250173106"><ele>67.0</ele><time>2026-04-25T16:01:36Z</time></trkpt><trkpt lat="43.35927486615607" lon="10.805501760762514"><ele>67.5</ele><time>2026-04-25T16:01:37Z</time></trkpt><trkpt lat="43.35925367019642" lon="10.805680301408273"><ele>68.0</ele><time>2026-04-25T16:01:38Z</time></trkpt><trkpt lat="43.35923377281752" lon="10.805860615068813"><ele>68.5</ele><time>2026-04-25T16:01:39Z</time></trkpt><trkpt lat="43.35921086222382" lon="10.806027813774946"><ele>69.0</ele><time>2026-04-25T16:01:40Z</time></trkpt><trkpt lat="43.35919375623103" lon="10.80618649951244"><ele>69.0</ele><time>2026-04-25T16:01:41Z</time></trkpt><trkpt lat="43.35918411354303" lon="10.806339153700215"><ele>69.0</ele><time>2026-04-25T16:01:42Z</time></trkpt><trkpt lat="43.359200940834945" lon="10.806498673046967"><ele>69.0</ele><time>2026-04-25T16:01:43Z</time></trkpt><trkpt lat="43.35923928750986" lon="10.806660185664228"><ele>69.0</ele><time>2026-04-25T16:01:44Z</time></trkpt><trkpt lat="43.359289050115834" lon="10.806830644635895"><ele>69.25</ele><time>2026-04-25T16:01:45Z</time></trkpt><trkpt lat="43.35934229635913" lon="10.807002090997122"><ele>69.5</ele><time>2026-04-25T16:01:46Z</time></trkpt><trkpt lat="43.35939773387968" lon="10.807183998643753"><ele>69.75</ele><time>2026-04-25T16:01:47Z</time></trkpt><trkpt lat="43.35945596320514" lon="10.807370851723686"><ele>70.0</ele><time>2026-04-25T16:01:48Z</time></trkpt><trkpt lat="43.35950931000342" lon="10.807553266037171"><ele>70.0</ele><time>2026-04-25T16:01:49Z</time></trkpt><trkpt lat="43.359557529945434" lon="10.807726941816703"><ele>70.0</ele><time>2026-04-25T16:01:50Z</time></trkpt><trkpt lat="43.35960823950875" lon="10.807889951721915"><ele>70.0</ele><time>2026-04-25T16:01:51Z</time></trkpt><trkpt lat="43.35965080727474" lon="10.80804319287109"><ele>70.0</ele><time>2026-04-25T16:01:52Z</time></trkpt><trkpt lat="43.35969886667283" lon="10.808202987142273"><ele>71.0</ele><time>2026-04-25T16:01:53Z</time></trkpt><trkpt lat="43.35975027471921" lon="10.808366502747072"><ele>72.0</ele><time>2026-04-25T16:01:54Z</time></trkpt><trkpt lat="43.359801173877415" lon="10.808532559169944"><ele>73.0</ele><time>2026-04-25T16:01:55Z</time></trkpt><trkpt lat="43.35985156853417" lon="10.808689222097527"><ele>74.0</ele><time>2026-04-25T16:01:56Z</time></trkpt><trkpt lat="43.359901170637414" lon="10.808844917775568"><ele>74.0</ele><time>2026-04-25T16:01:57Z</time></trkpt><trkpt lat="43.359949580199284" lon="10.808991744042665"><ele>74.0</ele><time>2026-04-25T16:01:58Z</time></trkpt><trkpt lat="43.35999558260798" lon="10.809129697217525"><ele>74.0</ele><time>2026-04-25T16:01:59Z</time></trkpt><trkpt lat="43.360045071612504" lon="10.809264166426333"><ele>74.0</ele><time>2026-04-25T16:02:00Z</time></trkpt><trkpt lat="43.360089376606915" lon="10.809403288133971"><ele>74.0</ele><time>2026-04-25T16:02:01Z</time></trkpt><trkpt lat="43.360133998839785" lon="10.809544267639655"><ele>73.5</ele><time>2026-04-25T16:02:02Z</time></trkpt><trkpt lat="43.36018160546132" lon="10.809695881426718"><ele>73.0</ele><time>2026-04-25T16:02:03Z</time></trkpt><trkpt lat="43.36023044297934" lon="10.809841866587236"><ele>72.5</ele><time>2026-04-25T16:02:04Z</time></trkpt><trkpt lat="43.36027705975556" lon="10.809991414633847"><ele>72.0</ele><time>2026-04-25T16:02:05Z</time></trkpt><trkpt lat="43.360321787861956" lon="10.810149246226338"><ele>71.75</ele><time>2026-04-25T16:02:06Z</time></trkpt><trkpt lat="43.360370285976906" lon="10.810307404486132"><ele>71.5</ele><time>2026-04-25T16:02:07Z</time></trkpt><trkpt lat="43.36041884262887" lon="10.810464174459819"><ele>71.25</ele><time>2026-04-25T16:02:08Z</time></trkpt><trkpt lat="43.36046554584803" lon="10.810617606411265"><ele>71.0</ele><time>2026-04-25T16:02:09Z</time></trkpt><trkpt lat="43.3605126386465" lon="10.810778141305875"><ele>72.0</ele><time>2026-04-25T16:02:10Z</time></trkpt><trkpt lat="43.36056501251778" lon="10.810935652969981"><ele>73.0</ele><time>2026-04-25T16:02:11Z</time></trkpt><trkpt lat="43.36062535974854" lon="10.811090549378733"><ele>74.0</ele><time>2026-04-25T16:02:12Z</time></trkpt><trkpt lat="43.36069080165192" lon="10.811232442833514"><ele>75.0</ele><time>2026-04-25T16:02:13Z</time></trkpt><trkpt lat="43.360758877873764" lon="10.81136786989911"><ele>75.0</ele><time>2026-04-25T16:02:14Z</time></trkpt><trkpt lat="43.360828943867865" lon="10.811502036310324"><ele>75.0</ele><time>2026-04-25T16:02:15Z</time></trkpt><trkpt lat="43.360898823696246" lon="10.81163211019935"><ele>75.0</ele><time>2026-04-25T16:02:16Z</time></trkpt><trkpt lat="43.36097241145793" lon="10.81175229984816"><ele>75.0</ele><time>2026-04-25T16:02:17Z</time></trkpt><trkpt lat="43.36104621748728" lon="10.811868672403598"><ele>75.2</ele><time>2026-04-25T16:02:18Z</time></trkpt><trkpt lat="43.36112053355107" lon="10.811984353899657"><ele>75.4</ele><time>2026-04-25T16:02:19Z</time></trkpt><trkpt lat="43.36119278028808" lon="10.812088667636289"><ele>75.6</ele><time>2026-04-25T16:02:20Z</time></trkpt><trkpt lat="43.36126757010314" lon="10.812185763389353"><ele>75.8</ele><time>2026-04-25T16:02:21Z</time></trkpt><trkpt lat="43.36135284781878" lon="10.81227371204787"><ele>76.0</ele><time>2026-04-25T16:02:22Z</time></trkpt><trkpt lat="43.361448494504764" lon="10.812349333606253"><ele>76.0</ele><time>2026-04-25T16:02:23Z</time></trkpt><trkpt lat="43.36154206320338" lon="10.812421927190174"><ele>76.0</ele><time>2026-04-25T16:02:24Z</time></trkpt><trkpt lat="43.36163739516181" lon="10.812488041143094"><ele>76.0</ele><time>2026-04-25T16:02:25Z</time></trkpt><trkpt lat="43.36174103335865" lon="10.812542522852128"><ele>76.0</ele><time>2026-04-25T16:02:26Z</time></trkpt><trkpt lat="43.361845939495225" lon="10.81258266227382"><ele>76.0</ele><time>2026-04-25T16:02:27Z</time></trkpt><trkpt lat="43.361950500263376" lon="10.81261374184793"><ele>76.0</ele><time>2026-04-25T16:02:28Z</time></trkpt><trkpt lat="43.36206019588345" lon="10.812641929726851"><ele>76.0</ele><time>2026-04-25T16:02:29Z</time></trkpt><trkpt lat="43.362174641412125" lon="10.81265781597144"><ele>76.0</ele><time>2026-04-25T16:02:30Z</time></trkpt><trkpt lat="43.362290816677984" lon="10.812670392890215"><ele>76.0</ele><time>2026-04-25T16:02:31Z</time></trkpt><trkpt lat="43.36240711538753" lon="10.812673631253789"><ele>75.25</ele><time>2026-04-25T16:02:32Z</time></trkpt><trkpt lat="43.36252397776668" lon="10.81267039476727"><ele>74.5</ele><time>2026-04-25T16:02:33Z</time></trkpt><trkpt lat="43.36264315717894" lon="10.812670979049196"><ele>73.75</ele><time>2026-04-25T16:02:34Z</time></trkpt><trkpt lat="43.362760238555325" lon="10.812670663424417"><ele>73.0</ele><time>2026-04-25T16:02:35Z</time></trkpt><trkpt lat="43.36287312349039" lon="10.812672022055384"><ele>73.0</ele><time>2026-04-25T16:02:36Z</time></trkpt><trkpt lat="43.36298855157831" lon="10.812672210748095"><ele>73.0</ele><time>2026-04-25T16:02:37Z</time></trkpt><trkpt lat="43.36310209628548" lon="10.812660963997248"><ele>73.0</ele><time>2026-04-25T16:02:38Z</time></trkpt><trkpt lat="43.36321343868297" lon="10.812662272295478"><ele>73.0</ele><time>2026-04-25T16:02:39Z</time></trkpt><trkpt lat="43.363319356053786" lon="10.81266599290029"><ele>73.0</ele><time>2026-04-25T16:02:40Z</time></trkpt><trkpt lat="43.3634164376802" lon="10.81266096466253"><ele>73.16666666666666</ele><time>2026-04-25T16:02:41Z</time></trkpt><trkpt lat="43.36350271784424" lon="10.812661844886652"><ele>73.33333333333333</ele><time>2026-04-25T16:02:42Z</time></trkpt><trkpt lat="43.363580275002775" lon="10.812668582402427"><ele>73.5</ele><time>2026-04-25T16:02:43Z</time></trkpt><trkpt lat="43.36364392527927" lon="10.812679753193002"><ele>73.66666666666667</ele><time>2026-04-25T16:02:44Z</time></trkpt><trkpt lat="43.36373460014613" lon="10.81270939085274"><ele>73.83333333333334</ele><time>2026-04-25T16:02:46Z</time></trkpt><trkpt lat="43.36380783103704" lon="10.81274737596645"><ele>74.0</ele><time>2026-04-25T16:02:48Z</time></trkpt><trkpt lat="43.363856705446224" lon="10.812807174972969"><ele>74.66666666666667</ele><time>2026-04-25T16:02:52Z</time></trkpt><trkpt lat="43.363930233735" lon="10.812886801497017"><ele>75.33333333333334</ele><time>2026-04-25T16:04:02Z</time></trkpt><trkpt lat="43.36398220267261" lon="10.81293577770418"><ele>76.0</ele><time>2026-04-25T16:04:03Z</time></trkpt><trkpt lat="43.36404058682059" lon="10.812990509671629"><ele>76.66666666666667</ele><time>2026-04-25T16:04:04Z</time></trkpt><trkpt lat="43.36411030445066" lon="10.813055768839513"><ele>77.33333333333333</ele><time>2026-04-25T16:04:05Z</time></trkpt><trkpt lat="43.36418133691444" lon="10.813122258849546"><ele>78.0</ele><time>2026-04-25T16:04:06Z</time></trkpt><trkpt lat="43.36425874149803" lon="10.81319471328685"><ele>78.0</ele><time>2026-04-25T16:04:07Z</time></trkpt><trkpt lat="43.36433914906648" lon="10.813269978761443"><ele>78.0</ele><time>2026-04-25T16:04:08Z</time></trkpt><trkpt lat="43.36441455948298" lon="10.813340566640365"><ele>78.0</ele><time>2026-04-25T16:04:09Z</time></trkpt><trkpt lat="43.36448269183834" lon="10.813404341946304"><ele>78.0</ele><time>2026-04-25T16:04:10Z</time></trkpt><trkpt lat="43.36455028088702" lon="10.81346760859462"><ele>78.0</ele><time>2026-04-25T16:04:11Z</time></trkpt><trkpt lat="43.36462453246145" lon="10.813537588789208"><ele>78.0</ele><time>2026-04-25T16:04:12Z</time></trkpt><trkpt lat="43.36471109641771" lon="10.813592098041212"><ele>78.2</ele><time>2026-04-25T16:04:13Z</time></trkpt><trkpt lat="43.36479278700188" lon="10.813669277976697"><ele>78.4</ele><time>2026-04-25T16:04:14Z</time></trkpt><trkpt lat="43.3648675383485" lon="10.813766977692898"><ele>78.60000000000001</ele><time>2026-04-25T16:04:15Z</time></trkpt><trkpt lat="43.36496181370502" lon="10.813828958635238"><ele>78.8</ele><time>2026-04-25T16:04:16Z</time></trkpt><trkpt lat="43.365038000431845" lon="10.813928529561547"><ele>79.0</ele><time>2026-04-25T16:04:17Z</time></trkpt><trkpt lat="43.36513170266791" lon="10.81401748388607"><ele>79.0</ele><time>2026-04-25T16:04:18Z</time></trkpt><trkpt lat="43.3652417813689" lon="10.81408938102103"><ele>79.0</ele><time>2026-04-25T16:04:19Z</time></trkpt><trkpt lat="43.365346084791966" lon="10.814186337182791"><ele>79.0</ele><time>2026-04-25T16:04:20Z</time></trkpt><trkpt lat="43.36543886623202" lon="10.814302192852521"><ele>79.0</ele><time>2026-04-25T16:04:21Z</time></trkpt><trkpt lat="43.365547073915046" lon="10.814385436535465"><ele>80.0</ele><time>2026-04-25T16:04:22Z</time></trkpt><trkpt lat="43.36564522466218" lon="10.814477449959103"><ele>81.0</ele><time>2026-04-25T16:04:23Z</time></trkpt><trkpt lat="43.36574552229833" lon="10.814564167419846"><ele>82.0</ele><time>2026-04-25T16:04:24Z</time></trkpt><trkpt lat="43.365848975976085" lon="10.814647008997149"><ele>83.0</ele><time>2026-04-25T16:04:25Z</time></trkpt><trkpt lat="43.36594945923551" lon="10.814729050192318"><ele>83.0</ele><time>2026-04-25T16:04:26Z</time></trkpt><trkpt lat="43.36605371605346" lon="10.814803173554358"><ele>83.0</ele><time>2026-04-25T16:04:27Z</time></trkpt><trkpt lat="43.36616344589416" lon="10.814860484471671"><ele>83.0</ele><time>2026-04-25T16:04:28Z</time></trkpt><trkpt lat="43.366276544752566" lon="10.814914542103542"><ele>83.0</ele><time>2026-04-25T16:04:29Z</time></trkpt><trkpt lat="43.36638852355117" lon="10.814966717294531"><ele>85.25</ele><time>2026-04-25T16:04:30Z</time></trkpt><trkpt lat="43.366502666152634" lon="10.815019645123778"><ele>87.5</ele><time>2026-04-25T16:04:31Z</time></trkpt><trkpt lat="43.36661703503213" lon="10.815071445494786"><ele>89.75</ele><time>2026-04-25T16:04:32Z</time></trkpt><trkpt lat="43.36672086770488" lon="10.815117403128188"><ele>92.0</ele><time>2026-04-25T16:04:33Z</time></trkpt><trkpt lat="43.36682544860509" lon="10.815141118926823"><ele>92.0</ele><time>2026-04-25T16:04:34Z</time></trkpt><trkpt lat="43.366926642019564" lon="10.81514314983747"><ele>92.0</ele><time>2026-04-25T16:04:35Z</time></trkpt><trkpt lat="43.36701592264611" lon="10.815130868818237"><ele>92.0</ele><time>2026-04-25T16:04:36Z</time></trkpt><trkpt lat="43.36709007929946" lon="10.815115381902407"><ele>92.0</ele><time>2026-04-25T16:04:37Z</time></trkpt><trkpt lat="43.36718781889793" lon="10.815079088208536"><ele>92.0</ele><time>2026-04-25T16:04:39Z</time></trkpt><trkpt lat="43.36725666107418" lon="10.8150495951167"><ele>92.0</ele><time>2026-04-25T16:04:42Z</time></trkpt><trkpt lat="43.36732072050179" lon="10.815042500638691"><ele>92.0</ele><time>2026-04-25T16:04:53Z</time></trkpt><trkpt lat="43.3673064579865" lon="10.814817067241112"><ele>92.0</ele><time>2026-04-25T16:04:55Z</time></trkpt><trkpt lat="43.367279758203836" lon="10.814736038718403"><ele>92.0</ele><time>2026-04-25T16:04:56Z</time></trkpt><trkpt lat="43.367249267706605" lon="10.81465465610714"><ele>92.0</ele><time>2026-04-25T16:04:57Z</time></trkpt><trkpt lat="43.36718930214984" lon="10.814503954962703"><ele>92.0</ele><time>2026-04-25T16:04:59Z</time></trkpt><trkpt lat="43.367143833834284" lon="10.814392319252736"><ele>92.0</ele><time>2026-04-25T16:05:01Z</time></trkpt><trkpt lat="43.36710166041547" lon="10.814285714389593"><ele>92.0</ele><time>2026-04-25T16:05:40Z</time></trkpt><trkpt lat="43.367122460139456" lon="10.814386172984086"><ele>92.0</ele><time>2026-04-25T16:05:43Z</time></trkpt><trkpt lat="43.36711466638209" lon="10.814572667433591"><ele>92.0</ele><time>2026-04-25T16:05:44Z</time></trkpt><trkpt lat="43.367107141764514" lon="10.81466491359886"><ele>92.0</ele><time>2026-04-25T16:05:45Z</time></trkpt><trkpt lat="43.367083581508744" lon="10.81480100120496"><ele>92.0</ele><time>2026-04-25T16:05:47Z</time></trkpt><trkpt lat="43.367060675797696" lon="10.81492885739655"><ele>92.0</ele><time>2026-04-25T16:05:49Z</time></trkpt><trkpt lat="43.36703375871003" lon="10.815019202864395"><ele>92.0</ele><time>2026-04-25T16:05:51Z</time></trkpt><trkpt lat="43.3669534405603" lon="10.815148652356333"><ele>92.0</ele><time>2026-04-25T16:06:18Z</time></trkpt><trkpt lat="43.366865585327375" lon="10.815112368531821"><ele>92.0</ele><time>2026-04-25T16:06:19Z</time></trkpt><trkpt lat="43.36676506195494" lon="10.81507821729367"><ele>92.0</ele><time>2026-04-25T16:06:20Z</time></trkpt><trkpt lat="43.36667938776666" lon="10.815044701756007"><ele>92.0</ele><time>2026-04-25T16:06:21Z</time></trkpt><trkpt lat="43.366594123656476" lon="10.815006163602073"><ele>92.0</ele><time>2026-04-25T16:06:22Z</time></trkpt><trkpt lat="43.366502199474546" lon="10.814960703614895"><ele>92.0</ele><time>2026-04-25T16:06:23Z</time></trkpt><trkpt lat="43.36641879078273" lon="10.814923071668769"><ele>92.0</ele><time>2026-04-25T16:06:24Z</time></trkpt><trkpt lat="43.366337341746146" lon="10.814886496396108"><ele>90.5</ele><time>2026-04-25T16:06:25Z</time></trkpt><trkpt lat="43.366255652868716" lon="10.814845263400608"><ele>89.0</ele><time>2026-04-25T16:06:26Z</time></trkpt><trkpt lat="43.36618282535858" lon="10.814807256482858"><ele>87.5</ele><time>2026-04-25T16:06:27Z</time></trkpt><trkpt lat="43.366108826795646" lon="10.814767923292955"><ele>86.0</ele><time>2026-04-25T16:06:28Z</time></trkpt><trkpt lat="43.36604113782289" lon="10.814726670225882"><ele>84.5</ele><time>2026-04-25T16:06:29Z</time></trkpt><trkpt lat="43.36597492786992" lon="10.814680798844543"><ele>83.0</ele><time>2026-04-25T16:06:30Z</time></trkpt><trkpt lat="43.36591286049396" lon="10.814637450802605"><ele>83.0</ele><time>2026-04-25T16:06:31Z</time></trkpt><trkpt lat="43.36584810519273" lon="10.814595250580002"><ele>83.0</ele><time>2026-04-25T16:06:32Z</time></trkpt><trkpt lat="43.365788587089874" lon="10.814551299446789"><ele>83.0</ele><time>2026-04-25T16:06:33Z</time></trkpt><trkpt lat="43.365730612012484" lon="10.814500047717662"><ele>83.0</ele><time>2026-04-25T16:06:34Z</time></trkpt><trkpt lat="43.36562771505125" lon="10.814411346036023"><ele>83.0</ele><time>2026-04-25T16:06:36Z</time></trkpt><trkpt lat="43.36557190782672" lon="10.814364090698584"><ele>83.0</ele><time>2026-04-25T16:06:37Z</time></trkpt><trkpt lat="43.36551490184917" lon="10.81430951392407"><ele>82.42857142857143</ele><time>2026-04-25T16:06:38Z</time></trkpt><trkpt lat="43.36545905435587" lon="10.814253132781507"><ele>81.85714285714286</ele><time>2026-04-25T16:06:39Z</time></trkpt><trkpt lat="43.3653987496613" lon="10.814196982104649"><ele>81.28571428571429</ele><time>2026-04-25T16:06:40Z</time></trkpt><trkpt lat="43.36533969540406" lon="10.814143190638951"><ele>80.71428571428572</ele><time>2026-04-25T16:06:41Z</time></trkpt><trkpt lat="43.36527859390175" lon="10.81408657887023"><ele>80.14285714285714</ele><time>2026-04-25T16:06:42Z</time></trkpt><trkpt lat="43.365217671426336" lon="10.814025886487459"><ele>79.57142857142858</ele><time>2026-04-25T16:06:43Z</time></trkpt><trkpt lat="43.3651546018092" lon="10.81396632538925"><ele>79.0</ele><time>2026-04-25T16:06:44Z</time></trkpt><trkpt lat="43.36508722726348" lon="10.813906217332706"><ele>79.0</ele><time>2026-04-25T16:06:45Z</time></trkpt><trkpt lat="43.36501425249882" lon="10.813848602373868"><ele>79.0</ele><time>2026-04-25T16:06:46Z</time></trkpt><trkpt lat="43.364947197996464" lon="10.81378187894741"><ele>79.0</ele><time>2026-04-25T16:06:47Z</time></trkpt><trkpt lat="43.36488313249453" lon="10.813720166112782"><ele>79.0</ele><time>2026-04-25T16:06:48Z</time></trkpt><trkpt lat="43.364818836868665" lon="10.81365648775192"><ele>79.0</ele><time>2026-04-25T16:06:49Z</time></trkpt><trkpt lat="43.3647492543258" lon="10.813596627339958"><ele>79.0</ele><time>2026-04-25T16:06:50Z</time></trkpt><trkpt lat="43.36468239298143" lon="10.813534303935706"><ele>78.83333333333333</ele><time>2026-04-25T16:06:51Z</time></trkpt><trkpt lat="43.36461758261073" lon="10.813470837197857"><ele>78.66666666666666</ele><time>2026-04-25T16:06:52Z</time></trkpt><trkpt lat="43.3645505456141" lon="10.813408563527346"><ele>78.5</ele><time>2026-04-25T16:06:53Z</time></trkpt><trkpt lat="43.36448288590301" lon="10.813350955708458"><ele>78.33333333333333</ele><time>2026-04-25T16:06:54Z</time></trkpt><trkpt lat="43.364417552612984" lon="10.813289134659788"><ele>78.16666666666667</ele><time>2026-04-25T16:06:55Z</time></trkpt><trkpt lat="43.36435123256773" lon="10.813223172996913"><ele>78.0</ele><time>2026-04-25T16:06:56Z</time></trkpt><trkpt lat="43.364289441643656" lon="10.813154272892486"><ele>78.0</ele><time>2026-04-25T16:06:57Z</time></trkpt><trkpt lat="43.3642185222768" lon="10.813091446938294"><ele>78.0</ele><time>2026-04-25T16:06:58Z</time></trkpt><trkpt lat="43.364148924604265" lon="10.813027417141527"><ele>78.0</ele><time>2026-04-25T16:06:59Z</time></trkpt><trkpt lat="43.36407928735557" lon="10.812961779907585"><ele>78.0</ele><time>2026-04-25T16:07:00Z</time></trkpt><trkpt lat="43.36401741480498" lon="10.812903995126042"><ele>78.0</ele><time>2026-04-25T16:07:01Z</time></trkpt><trkpt lat="43.36396478269714" lon="10.812854124324524"><ele>78.0</ele><time>2026-04-25T16:07:02Z</time></trkpt><trkpt lat="43.36389228704038" lon="10.812793485854428"><ele>78.0</ele><time>2026-04-25T16:07:04Z</time></trkpt><trkpt lat="43.363905772903266" lon="10.812680759050197"><ele>78.0</ele><time>2026-04-25T16:07:07Z</time></trkpt><trkpt lat="43.36398561192173" lon="10.812662456733605"><ele>78.0</ele><time>2026-04-25T16:07:09Z</time></trkpt><trkpt lat="43.364111192525485" lon="10.812643643222982"><ele>78.0</ele><time>2026-04-25T16:07:11Z</time></trkpt><trkpt lat="43.36418926430246" lon="10.81262442749373"><ele>78.0</ele><time>2026-04-25T16:07:12Z</time></trkpt><trkpt lat="43.364279349070344" lon="10.812608988529472"><ele>78.2</ele><time>2026-04-25T16:07:13Z</time></trkpt><trkpt lat="43.36436162677453" lon="10.81256984925998"><ele>78.4</ele><time>2026-04-25T16:07:14Z</time></trkpt><trkpt lat="43.36443587347738" lon="10.812512947233982"><ele>78.60000000000001</ele><time>2026-04-25T16:07:15Z</time></trkpt><trkpt lat="43.36451593828178" lon="10.812439850820367"><ele>78.8</ele><time>2026-04-25T16:07:16Z</time></trkpt><trkpt lat="43.364589723050884" lon="10.812356455980348"><ele>79.0</ele><time>2026-04-25T16:07:17Z</time></trkpt><trkpt lat="43.364664052273525" lon="10.812262040279323"><ele>79.2</ele><time>2026-04-25T16:07:18Z</time></trkpt><trkpt lat="43.3647380278555" lon="10.81217396904135"><ele>79.4</ele><time>2026-04-25T16:07:19Z</time></trkpt><trkpt lat="43.36481706941647" lon="10.81208869714527"><ele>79.6</ele><time>2026-04-25T16:07:20Z</time></trkpt><trkpt lat="43.36489561895539" lon="10.81200750854424"><ele>79.8</ele><time>2026-04-25T16:07:21Z</time></trkpt><trkpt lat="43.36497794725152" lon="10.811916149792456"><ele>80.0</ele><time>2026-04-25T16:07:22Z</time></trkpt><trkpt lat="43.36506715854845" lon="10.811818234697869"><ele>80.5</ele><time>2026-04-25T16:07:23Z</time></trkpt><trkpt lat="43.365157210169514" lon="10.81171686840105"><ele>81.0</ele><time>2026-04-25T16:07:24Z</time></trkpt><trkpt lat="43.365248670033054" lon="10.811610488566851"><ele>81.5</ele><time>2026-04-25T16:07:25Z</time></trkpt><trkpt lat="43.36533343165785" lon="10.811504784883441"><ele>82.0</ele><time>2026-04-25T16:07:26Z</time></trkpt><trkpt lat="43.36542494488311" lon="10.811396009520365"><ele>82.0</ele><time>2026-04-25T16:07:27Z</time></trkpt><trkpt lat="43.36550865713508" lon="10.811307982042178"><ele>82.0</ele><time>2026-04-25T16:07:28Z</time></trkpt><trkpt lat="43.36559807779607" lon="10.81120884482392"><ele>82.0</ele><time>2026-04-25T16:07:29Z</time></trkpt><trkpt lat="43.36569010036998" lon="10.811114839624432"><ele>82.0</ele><time>2026-04-25T16:07:30Z</time></trkpt><trkpt lat="43.36577165284795" lon="10.811026748530923"><ele>82.0</ele><time>2026-04-25T16:07:31Z</time></trkpt><trkpt lat="43.36584980534256" lon="10.810929800653632"><ele>83.0</ele><time>2026-04-25T16:07:32Z</time></trkpt><trkpt lat="43.36592096400333" lon="10.810817444543725"><ele>84.0</ele><time>2026-04-25T16:07:33Z</time></trkpt><trkpt lat="43.3659911658985" lon="10.81069649284195"><ele>85.0</ele><time>2026-04-25T16:07:34Z</time></trkpt><trkpt lat="43.366058581436135" lon="10.810569095091381"><ele>86.0</ele><time>2026-04-25T16:07:35Z</time></trkpt><trkpt lat="43.36612657114842" lon="10.810433863536115"><ele>86.0</ele><time>2026-04-25T16:07:36Z</time></trkpt><trkpt lat="43.36619192663088" lon="10.810296928809095"><ele>86.0</ele><time>2026-04-25T16:07:37Z</time></trkpt><trkpt lat="43.36624628785673" lon="10.810163037217823"><ele>86.0</ele><time>2026-04-25T16:07:38Z</time></trkpt><trkpt lat="43.36631131156173" lon="10.810041302520107"><ele>86.0</ele><time>2026-04-25T16:07:39Z</time></trkpt><trkpt lat="43.36636788933408" lon="10.809904758239863"><ele>86.0</ele><time>2026-04-25T16:07:40Z</time></trkpt><trkpt lat="43.36643162698468" lon="10.809771913476308"><ele>86.0</ele><time>2026-04-25T16:07:41Z</time></trkpt><trkpt lat="43.36649269467819" lon="10.809638953251621"><ele>86.0</ele><time>2026-04-25T16:07:42Z</time></trkpt><trkpt lat="43.3665479192744" lon="10.80951331296735"><ele>86.0</ele><time>2026-04-25T16:07:43Z</time></trkpt><trkpt lat="43.3666070974693" lon="10.809391254653203"><ele>86.0</ele><time>2026-04-25T16:07:44Z</time></trkpt><trkpt lat="43.366667558968985" lon="10.809265645877497"><ele>84.0</ele><time>2026-04-25T16:07:45Z</time></trkpt><trkpt lat="43.3667389496056" lon="10.8091402240887"><ele>82.0</ele><time>2026-04-25T16:07:46Z</time></trkpt><trkpt lat="43.36683700977527" lon="10.809029080767836"><ele>80.0</ele><time>2026-04-25T16:07:47Z</time></trkpt><trkpt lat="43.36694751776508" lon="10.80892297311757"><ele>78.0</ele><time>2026-04-25T16:07:48Z</time></trkpt><trkpt lat="43.36706125559997" lon="10.808822036435048"><ele>78.0</ele><time>2026-04-25T16:07:49Z</time></trkpt><trkpt lat="43.36717579048111" lon="10.808734680963084"><ele>78.0</ele><time>2026-04-25T16:07:50Z</time></trkpt><trkpt lat="43.367292634759345" lon="10.808653262522085"><ele>78.0</ele><time>2026-04-25T16:07:51Z</time></trkpt><trkpt lat="43.36740949003687" lon="10.808564004074782"><ele>78.0</ele><time>2026-04-25T16:07:52Z</time></trkpt><trkpt lat="43.36752249279908" lon="10.808475103343593"><ele>77.0</ele><time>2026-04-25T16:07:53Z</time></trkpt><trkpt lat="43.367636284586794" lon="10.808381048517761"><ele>76.0</ele><time>2026-04-25T16:07:54Z</time></trkpt><trkpt lat="43.367747007921025" lon="10.808292840571324"><ele>75.0</ele><time>2026-04-25T16:07:55Z</time></trkpt><trkpt lat="43.3678556805693" lon="10.808200013246513"><ele>74.0</ele><time>2026-04-25T16:07:56Z</time></trkpt><trkpt lat="43.367960619546025" lon="10.80808716680854"><ele>74.0</ele><time>2026-04-25T16:07:57Z</time></trkpt><trkpt lat="43.368064986283336" lon="10.807955584606654"><ele>74.0</ele><time>2026-04-25T16:07:58Z</time></trkpt><trkpt lat="43.36816830546104" lon="10.807825899289055"><ele>74.0</ele><time>2026-04-25T16:07:59Z</time></trkpt><trkpt lat="43.368276076517205" lon="10.807687527984708"><ele>74.0</ele><time>2026-04-25T16:08:00Z</time></trkpt><trkpt lat="43.36838941846434" lon="10.807545808760874"><ele>73.75</ele><time>2026-04-25T16:08:01Z</time></trkpt><trkpt lat="43.36849862843702" lon="10.807409702202431"><ele>73.5</ele><time>2026-04-25T16:08:02Z</time></trkpt><trkpt lat="43.36860573598066" lon="10.807267750988599"><ele>73.25</ele><time>2026-04-25T16:08:03Z</time></trkpt><trkpt lat="43.36870767766753" lon="10.8071313579564"><ele>73.0</ele><time>2026-04-25T16:08:04Z</time></trkpt><trkpt lat="43.36881136133393" lon="10.806995216212487"><ele>72.5</ele><time>2026-04-25T16:08:05Z</time></trkpt><trkpt lat="43.36891456312916" lon="10.806862916917302"><ele>72.0</ele><time>2026-04-25T16:08:06Z</time></trkpt><trkpt lat="43.3690162324017" lon="10.806734191529891"><ele>71.5</ele><time>2026-04-25T16:08:07Z</time></trkpt><trkpt lat="43.36911964262369" lon="10.806602262632767"><ele>71.0</ele><time>2026-04-25T16:08:08Z</time></trkpt><trkpt lat="43.36922210931009" lon="10.80647199481842"><ele>71.0</ele><time>2026-04-25T16:08:09Z</time></trkpt><trkpt lat="43.36932654367185" lon="10.806330982357442"><ele>71.0</ele><time>2026-04-25T16:08:10Z</time></trkpt><trkpt lat="43.36943930075739" lon="10.806188727845278"><ele>71.0</ele><time>2026-04-25T16:08:11Z</time></trkpt><trkpt lat="43.369548505326705" lon="10.806041932579454"><ele>71.0</ele><time>2026-04-25T16:08:12Z</time></trkpt><trkpt lat="43.36965768843006" lon="10.80589511578814"><ele>71.0</ele><time>2026-04-25T16:08:13Z</time></trkpt><trkpt lat="43.36976988074858" lon="10.805749606746378"><ele>71.0</ele><time>2026-04-25T16:08:14Z</time></trkpt><trkpt lat="43.369884633786334" lon="10.805605182863465"><ele>71.0</ele><time>2026-04-25T16:08:15Z</time></trkpt><trkpt lat="43.370002113284656" lon="10.805459964731009"><ele>71.0</ele><time>2026-04-25T16:08:16Z</time></trkpt><trkpt lat="43.37012893475105" lon="10.805326300792707"><ele>71.0</ele><time>2026-04-25T16:08:17Z</time></trkpt><trkpt lat="43.370263241105555" lon="10.805209970936138"><ele>71.66666666666667</ele><time>2026-04-25T16:08:18Z</time></trkpt><trkpt lat="43.37040065750063" lon="10.805101054641163"><ele>72.33333333333333</ele><time>2026-04-25T16:08:19Z</time></trkpt><trkpt lat="43.37053463572222" lon="10.80500248773572"><ele>73.0</ele><time>2026-04-25T16:08:20Z</time></trkpt><trkpt lat="43.370670992708725" lon="10.80490160157422"><ele>73.33333333333333</ele><time>2026-04-25T16:08:21Z</time></trkpt><trkpt lat="43.37080026202528" lon="10.804798665223887"><ele>73.66666666666667</ele><time>2026-04-25T16:08:22Z</time></trkpt><trkpt lat="43.370933745971875" lon="10.80469391977399"><ele>74.0</ele><time>2026-04-25T16:08:23Z</time></trkpt><trkpt lat="43.37106779155825" lon="10.804590201388887"><ele>74.0</ele><time>2026-04-25T16:08:24Z</time></trkpt><trkpt lat="43.371198911388376" lon="10.804489650341699"><ele>74.0</ele><time>2026-04-25T16:08:25Z</time></trkpt><trkpt lat="43.37132084702471" lon="10.804398397871472"><ele>74.0</ele><time>2026-04-25T16:08:26Z</time></trkpt><trkpt lat="43.37143580578113" lon="10.804315942701004"><ele>74.0</ele><time>2026-04-25T16:08:27Z</time></trkpt><trkpt lat="43.37155339751309" lon="10.804223920780398"><ele>73.75</ele><time>2026-04-25T16:08:28Z</time></trkpt><trkpt lat="43.37167358430198" lon="10.804127522388212"><ele>73.5</ele><time>2026-04-25T16:08:29Z</time></trkpt><trkpt lat="43.37179657238457" lon="10.804032048997328"><ele>73.25</ele><time>2026-04-25T16:08:30Z</time></trkpt><trkpt lat="43.371916786632376" lon="10.803936116761692"><ele>73.0</ele><time>2026-04-25T16:08:31Z</time></trkpt><trkpt lat="43.37202860005314" lon="10.803853862295892"><ele>73.0</ele><time>2026-04-25T16:08:32Z</time></trkpt><trkpt lat="43.37213930114388" lon="10.803773250451407"><ele>73.0</ele><time>2026-04-25T16:08:33Z</time></trkpt><trkpt lat="43.37225733232328" lon="10.803685781600322"><ele>73.0</ele><time>2026-04-25T16:08:34Z</time></trkpt><trkpt lat="43.37237728346755" lon="10.803588992194989"><ele>73.0</ele><time>2026-04-25T16:08:35Z</time></trkpt><trkpt lat="43.372503439539294" lon="10.803489534024836"><ele>74.33333333333333</ele><time>2026-04-25T16:08:36Z</time></trkpt><trkpt lat="43.37263458684438" lon="10.80339111869348"><ele>75.66666666666667</ele><time>2026-04-25T16:08:37Z</time></trkpt><trkpt lat="43.37276829951409" lon="10.803288042270703"><ele>77.0</ele><time>2026-04-25T16:08:38Z</time></trkpt><trkpt lat="43.37290174911134" lon="10.80318286052013"><ele>76.0</ele><time>2026-04-25T16:08:39Z</time></trkpt><trkpt lat="43.37304283296225" lon="10.803074989408167"><ele>75.0</ele><time>2026-04-25T16:08:40Z</time></trkpt><trkpt lat="43.37318531463561" lon="10.802968516253733"><ele>74.0</ele><time>2026-04-25T16:08:41Z</time></trkpt><trkpt lat="43.3733264062952" lon="10.802859171922476"><ele>74.0</ele><time>2026-04-25T16:08:42Z</time></trkpt><trkpt lat="43.37346670261538" lon="10.802749168189493"><ele>74.0</ele><time>2026-04-25T16:08:43Z</time></trkpt><trkpt lat="43.37360758310441" lon="10.802641898612414"><ele>74.0</ele><time>2026-04-25T16:08:44Z</time></trkpt><trkpt lat="43.37374757322047" lon="10.802533688844365"><ele>74.0</ele><time>2026-04-25T16:08:45Z</time></trkpt><trkpt lat="43.37388748371291" lon="10.802424924951314"><ele>74.0</ele><time>2026-04-25T16:08:46Z</time></trkpt><trkpt lat="43.3740334486603" lon="10.80231529028452"><ele>74.0</ele><time>2026-04-25T16:08:47Z</time></trkpt><trkpt lat="43.37417750346728" lon="10.802205664228623"><ele>74.0</ele><time>2026-04-25T16:08:48Z</time></trkpt><trkpt lat="43.37432080435597" lon="10.80209761550516"><ele>74.0</ele><time>2026-04-25T16:08:49Z</time></trkpt><trkpt lat="43.37446366501103" lon="10.801988055353712"><ele>74.0</ele><time>2026-04-25T16:08:50Z</time></trkpt><trkpt lat="43.374605982027454" lon="10.801879280391077"><ele>74.33333333333334</ele><time>2026-04-25T16:08:51Z</time></trkpt><trkpt lat="43.37474835294968" lon="10.801770602959856"><ele>74.66666666666667</ele><time>2026-04-25T16:08:52Z</time></trkpt><trkpt lat="43.37489162536621" lon="10.801655684634976"><ele>75.0</ele><time>2026-04-25T16:08:53Z</time></trkpt><trkpt lat="43.375035686999084" lon="10.801547179052328"><ele>75.0</ele><time>2026-04-25T16:08:54Z</time></trkpt><trkpt lat="43.37518023304163" lon="10.80143636496981"><ele>75.0</ele><time>2026-04-25T16:08:55Z</time></trkpt><trkpt lat="43.37532348069617" lon="10.80132711556807"><ele>75.0</ele><time>2026-04-25T16:08:56Z</time></trkpt><trkpt lat="43.37546761401751" lon="10.8012155206865"><ele>75.66666666666667</ele><time>2026-04-25T16:08:57Z</time></trkpt><trkpt lat="43.37561320020042" lon="10.801105177926955"><ele>76.33333333333334</ele><time>2026-04-25T16:08:58Z</time></trkpt><trkpt lat="43.3757597173659" lon="10.800995627655805"><ele>77.0</ele><time>2026-04-25T16:08:59Z</time></trkpt><trkpt lat="43.375903949195184" lon="10.80088597611835"><ele>77.0</ele><time>2026-04-25T16:09:00Z</time></trkpt><trkpt lat="43.37604558183234" lon="10.800780057952968"><ele>77.0</ele><time>2026-04-25T16:09:01Z</time></trkpt><trkpt lat="43.37619047588413" lon="10.800672094320959"><ele>77.0</ele><time>2026-04-25T16:09:02Z</time></trkpt><trkpt lat="43.37633594005033" lon="10.800572195207936"><ele>77.66666666666667</ele><time>2026-04-25T16:09:03Z</time></trkpt><trkpt lat="43.376489384167606" lon="10.800500710129665"><ele>78.33333333333333</ele><time>2026-04-25T16:09:04Z</time></trkpt><trkpt lat="43.376633799662294" lon="10.800425223547043"><ele>79.0</ele><time>2026-04-25T16:09:05Z</time></trkpt><trkpt lat="43.376777212514426" lon="10.800394558854576"><ele>79.0</ele><time>2026-04-25T16:09:06Z</time></trkpt><trkpt lat="43.37692951241862" lon="10.800384908817819"><ele>79.0</ele><time>2026-04-25T16:09:07Z</time></trkpt><trkpt lat="43.37708515934487" lon="10.800394744092452"><ele>79.0</ele><time>2026-04-25T16:09:08Z</time></trkpt><trkpt lat="43.37724184257908" lon="10.800420467757895"><ele>78.0</ele><time>2026-04-25T16:09:09Z</time></trkpt><trkpt lat="43.37739846784421" lon="10.800457805032586"><ele>77.0</ele><time>2026-04-25T16:09:10Z</time></trkpt><trkpt lat="43.377551424574946" lon="10.800496028679495"><ele>76.0</ele><time>2026-04-25T16:09:11Z</time></trkpt><trkpt lat="43.37770658584536" lon="10.800531930142197"><ele>76.0</ele><time>2026-04-25T16:09:12Z</time></trkpt><trkpt lat="43.37786191356235" lon="10.800565912526908"><ele>76.0</ele><time>2026-04-25T16:09:13Z</time></trkpt><trkpt lat="43.378009678306356" lon="10.800602450867347"><ele>76.0</ele><time>2026-04-25T16:09:14Z</time></trkpt><trkpt lat="43.37814218176688" lon="10.800637889334519"><ele>76.0</ele><time>2026-04-25T16:09:15Z</time></trkpt><trkpt lat="43.37826006772987" lon="10.800663263935851"><ele>78.0</ele><time>2026-04-25T16:09:16Z</time></trkpt><trkpt lat="43.37835617713208" lon="10.800686855149477"><ele>78.0</ele><time>2026-04-25T16:09:17Z</time></trkpt><trkpt lat="43.37844270482925" lon="10.800709680506554"><ele>78.0</ele><time>2026-04-25T16:09:18Z</time></trkpt><trkpt lat="43.37851509690662" lon="10.800727057841625"><ele>78.0</ele><time>2026-04-25T16:09:19Z</time></trkpt><trkpt lat="43.378589534939465" lon="10.800765943425537"><ele>78.0</ele><time>2026-04-25T16:09:21Z</time></trkpt><trkpt lat="43.37865251812221" lon="10.800773183049929"><ele>78.0</ele><time>2026-04-25T16:11:48Z</time></trkpt></trkseg><trkseg><trkpt lat="43.38883165644204" lon="10.796596327652283"><ele>100.16666666666667</ele><time>2026-04-25T16:21:01Z</time></trkpt><trkpt lat="43.388893616890726" lon="10.796683838586418"><ele>100.33333333333334</ele><time>2026-04-25T16:21:07Z</time></trkpt><trkpt lat="43.38895430014053" lon="10.79670859632553"><ele>100.5</ele><time>2026-04-25T16:21:08Z</time></trkpt><trkpt lat="43.389022784375086" lon="10.796710580239106"><ele>100.66666666666666</ele><time>2026-04-25T16:21:09Z</time></trkpt><trkpt lat="43.389104563958846" lon="10.796713766342027"><ele>100.83333333333333</ele><time>2026-04-25T16:21:10Z</time></trkpt><trkpt lat="43.389190345525485" lon="10.796724897833787"><ele>101.0</ele><time>2026-04-25T16:21:11Z</time></trkpt><trkpt lat="43.38928486674099" lon="10.796732821869341"><ele>101.0</ele><time>2026-04-25T16:21:12Z</time></trkpt><trkpt lat="43.38938786560078" lon="10.79672559909819"><ele>101.0</ele><time>2026-04-25T16:21:13Z</time></trkpt><trkpt lat="43.38949322732798" lon="10.796699065125368"><ele>101.0</ele><time>2026-04-25T16:21:14Z</time></trkpt><trkpt lat="43.38960025764674" lon="10.796664440348508"><ele>101.0</ele><time>2026-04-25T16:21:15Z</time></trkpt><trkpt lat="43.38969893070244" lon="10.796586201654028"><ele>101.0</ele><time>2026-04-25T16:21:16Z</time></trkpt><trkpt lat="43.38979091325461" lon="10.796496246347083"><ele>100.5</ele><time>2026-04-25T16:21:17Z</time></trkpt><trkpt lat="43.389879811042746" lon="10.796388181244016"><ele>100.0</ele><time>2026-04-25T16:21:18Z</time></trkpt><trkpt lat="43.38996420878248" lon="10.796276985572398"><ele>99.5</ele><time>2026-04-25T16:21:19Z</time></trkpt><trkpt lat="43.390045947565966" lon="10.796151709179767"><ele>99.0</ele><time>2026-04-25T16:21:20Z</time></trkpt><trkpt lat="43.3901117085152" lon="10.796015074685561"><ele>101.5</ele><time>2026-04-25T16:21:21Z</time></trkpt><trkpt lat="43.39019478982216" lon="10.795892828650874"><ele>104.0</ele><time>2026-04-25T16:21:22Z</time></trkpt><trkpt lat="43.39027772652335" lon="10.795751059728365"><ele>106.5</ele><time>2026-04-25T16:21:23Z</time></trkpt><trkpt lat="43.39036216483099" lon="10.7956058577273"><ele>109.0</ele><time>2026-04-25T16:21:24Z</time></trkpt><trkpt lat="43.39044699440336" lon="10.795459238003492"><ele>109.5</ele><time>2026-04-25T16:21:25Z</time></trkpt><trkpt lat="43.39053529488175" lon="10.795312030253443"><ele>110.0</ele><time>2026-04-25T16:21:26Z</time></trkpt><trkpt lat="43.3906239761439" lon="10.795166554286658"><ele>110.5</ele><time>2026-04-25T16:21:27Z</time></trkpt><trkpt lat="43.39071037876137" lon="10.795025936058886"><ele>111.0</ele><time>2026-04-25T16:21:28Z</time></trkpt><trkpt lat="43.3907891503104" lon="10.79489620944136"><ele>111.0</ele><time>2026-04-25T16:21:29Z</time></trkpt><trkpt lat="43.390857480405295" lon="10.794769300768747"><ele>111.0</ele><time>2026-04-25T16:21:30Z</time></trkpt><trkpt lat="43.39092115320116" lon="10.794642311969017"><ele>111.0</ele><time>2026-04-25T16:21:31Z</time></trkpt><trkpt lat="43.390979619632986" lon="10.794507493971539"><ele>111.0</ele><time>2026-04-25T16:21:32Z</time></trkpt><trkpt lat="43.39103646044265" lon="10.794362176957582"><ele>110.8</ele><time>2026-04-25T16:21:33Z</time></trkpt><trkpt lat="43.39109580199995" lon="10.794219108399341"><ele>110.6</ele><time>2026-04-25T16:21:34Z</time></trkpt><trkpt lat="43.39115799412937" lon="10.794096580232518"><ele>110.4</ele><time>2026-04-25T16:21:35Z</time></trkpt><trkpt lat="43.39122238081217" lon="10.793975992050441"><ele>110.2</ele><time>2026-04-25T16:21:36Z</time></trkpt><trkpt lat="43.391300387632725" lon="10.793871974320597"><ele>110.0</ele><time>2026-04-25T16:21:37Z</time></trkpt><trkpt lat="43.39139752732527" lon="10.79378635415237"><ele>110.0</ele><time>2026-04-25T16:21:38Z</time></trkpt><trkpt lat="43.391507603058685" lon="10.793720030313366"><ele>110.0</ele><time>2026-04-25T16:21:39Z</time></trkpt><trkpt lat="43.391623537624206" lon="10.793682985545733"><ele>110.0</ele><time>2026-04-25T16:21:40Z</time></trkpt><trkpt lat="43.3917460595374" lon="10.793671584969744"><ele>110.0</ele><time>2026-04-25T16:21:41Z</time></trkpt><trkpt lat="43.39187105367268" lon="10.793677465703215"><ele>110.0</ele><time>2026-04-25T16:21:42Z</time></trkpt><trkpt lat="43.391998351454845" lon="10.793696375158383"><ele>110.0</ele><time>2026-04-25T16:21:43Z</time></trkpt><trkpt lat="43.392128883882435" lon="10.793706395564392"><ele>110.0</ele><time>2026-04-25T16:21:44Z</time></trkpt><trkpt lat="43.39226156784149" lon="10.793714244290099"><ele>110.0</ele><time>2026-04-25T16:21:45Z</time></trkpt><trkpt lat="43.39239296793669" lon="10.793719162351293"><ele>110.25</ele><time>2026-04-25T16:21:46Z</time></trkpt><trkpt lat="43.39252707143724" lon="10.793723645235591"><ele>110.5</ele><time>2026-04-25T16:21:47Z</time></trkpt><trkpt lat="43.392661629123374" lon="10.793725124470566"><ele>110.75</ele><time>2026-04-25T16:21:48Z</time></trkpt><trkpt lat="43.39279683120884" lon="10.793724346725979"><ele>111.0</ele><time>2026-04-25T16:21:49Z</time></trkpt><trkpt lat="43.39293210607637" lon="10.793730964854618"><ele>111.5</ele><time>2026-04-25T16:21:50Z</time></trkpt><trkpt lat="43.393070181685474" lon="10.793736508367227"><ele>112.0</ele><time>2026-04-25T16:21:51Z</time></trkpt><trkpt lat="43.39321024363546" lon="10.793738581550658"><ele>112.5</ele><time>2026-04-25T16:21:52Z</time></trkpt><trkpt lat="43.393349934686206" lon="10.793739028147547"><ele>113.0</ele><time>2026-04-25T16:21:53Z</time></trkpt><trkpt lat="43.39348876178399" lon="10.793745680316018"><ele>113.0</ele><time>2026-04-25T16:21:54Z</time></trkpt><trkpt lat="43.393627964154604" lon="10.793750096693563"><ele>113.0</ele><time>2026-04-25T16:21:55Z</time></trkpt><trkpt lat="43.39376420054714" lon="10.793754821430866"><ele>113.0</ele><time>2026-04-25T16:21:56Z</time></trkpt><trkpt lat="43.39389792635289" lon="10.79376927368666"><ele>113.0</ele><time>2026-04-25T16:21:57Z</time></trkpt><trkpt lat="43.394032639907415" lon="10.7938000042433"><ele>114.25</ele><time>2026-04-25T16:21:58Z</time></trkpt><trkpt lat="43.39417199085263" lon="10.793854008681182"><ele>115.5</ele><time>2026-04-25T16:21:59Z</time></trkpt><trkpt lat="43.39430446279509" lon="10.793912805449226"><ele>116.75</ele><time>2026-04-25T16:22:00Z</time></trkpt><trkpt lat="43.39442299465537" lon="10.79397392331388"><ele>118.0</ele><time>2026-04-25T16:22:01Z</time></trkpt><trkpt lat="43.39453461997175" lon="10.794030427447126"><ele>118.0</ele><time>2026-04-25T16:22:02Z</time></trkpt><trkpt lat="43.39464636606042" lon="10.794081062877087"><ele>118.0</ele><time>2026-04-25T16:22:03Z</time></trkpt><trkpt lat="43.394756692838556" lon="10.794112840847662"><ele>118.0</ele><time>2026-04-25T16:22:04Z</time></trkpt><trkpt lat="43.39487049163659" lon="10.794110026297819"><ele>118.0</ele><time>2026-04-25T16:22:05Z</time></trkpt><trkpt lat="43.394980407524514" lon="10.794067713585546"><ele>119.25</ele><time>2026-04-25T16:22:06Z</time></trkpt><trkpt lat="43.39508266037159" lon="10.793990805467745"><ele>120.5</ele><time>2026-04-25T16:22:07Z</time></trkpt><trkpt lat="43.39518100201952" lon="10.79388791091317"><ele>121.75</ele><time>2026-04-25T16:22:08Z</time></trkpt><trkpt lat="43.39528001409248" lon="10.793773274001078"><ele>123.0</ele><time>2026-04-25T16:22:09Z</time></trkpt><trkpt lat="43.395381937688924" lon="10.793651717620852"><ele>123.0</ele><time>2026-04-25T16:22:10Z</time></trkpt><trkpt lat="43.39547656537552" lon="10.793529791480106"><ele>123.00000000000001</ele><time>2026-04-25T16:22:11Z</time></trkpt><trkpt lat="43.39554714220717" lon="10.793425835069337"><ele>123.00000000000001</ele><time>2026-04-25T16:22:12Z</time></trkpt><trkpt lat="43.39562342649225" lon="10.793326006825287"><ele>123.0</ele><time>2026-04-25T16:22:14Z</time></trkpt><trkpt lat="43.39567600138301" lon="10.793270041829087"><ele>123.0</ele><time>2026-04-25T16:22:16Z</time></trkpt><trkpt lat="43.39572624637908" lon="10.793210067520892"><ele>123.66666666666667</ele><time>2026-04-25T16:23:06Z</time></trkpt><trkpt lat="43.395773850510764" lon="10.793131133969869"><ele>124.33333333333334</ele><time>2026-04-25T16:23:08Z</time></trkpt><trkpt lat="43.395829089707775" lon="10.79304400680144"><ele>125.0</ele><time>2026-04-25T16:23:12Z</time></trkpt><trkpt lat="43.39586831476118" lon="10.792971228701477"><ele>125.66666666666667</ele><time>2026-04-25T16:23:21Z</time></trkpt><trkpt lat="43.39595222124409" lon="10.7928489722683"><ele>126.33333333333334</ele><time>2026-04-25T16:23:23Z</time></trkpt><trkpt lat="43.396008176589625" lon="10.792778692722088"><ele>127.0</ele><time>2026-04-25T16:23:24Z</time></trkpt><trkpt lat="43.396077425784306" lon="10.792696807072279"><ele>128.79999999999998</ele><time>2026-04-25T16:23:25Z</time></trkpt><trkpt lat="43.396153139941994" lon="10.792629192739984"><ele>130.6</ele><time>2026-04-25T16:23:26Z</time></trkpt><trkpt lat="43.396237687685385" lon="10.792571963006823"><ele>132.39999999999998</ele><time>2026-04-25T16:23:27Z</time></trkpt><trkpt lat="43.396326397905945" lon="10.792522594527309"><ele>134.2</ele><time>2026-04-25T16:23:28Z</time></trkpt><trkpt lat="43.396419446836546" lon="10.792481822533624"><ele>136.0</ele><time>2026-04-25T16:23:29Z</time></trkpt><trkpt lat="43.396517831400324" lon="10.792449797400229"><ele>136.0</ele><time>2026-04-25T16:23:30Z</time></trkpt><trkpt lat="43.39662021645178" lon="10.79242689410802"><ele>136.0</ele><time>2026-04-25T16:23:31Z</time></trkpt><trkpt lat="43.39673044613109" lon="10.792414228240881"><ele>136.0</ele><time>2026-04-25T16:23:32Z</time></trkpt><trkpt lat="43.39684506745895" lon="10.79244460483858"><ele>136.0</ele><time>2026-04-25T16:23:33Z</time></trkpt><trkpt lat="43.39696577347541" lon="10.792463344036616"><ele>136.0</ele><time>2026-04-25T16:23:34Z</time></trkpt><trkpt lat="43.39708976499119" lon="10.792480505009408"><ele>136.0</ele><time>2026-04-25T16:23:35Z</time></trkpt><trkpt lat="43.39721732780422" lon="10.792482197966295"><ele>136.0</ele><time>2026-04-25T16:23:36Z</time></trkpt><trkpt lat="43.39735121760785" lon="10.792464342311817"><ele>136.0</ele><time>2026-04-25T16:23:37Z</time></trkpt><trkpt lat="43.39748675642162" lon="10.792423642752881"><ele>136.0</ele><time>2026-04-25T16:23:38Z</time></trkpt><trkpt lat="43.39762275353023" lon="10.792402590779739"><ele>136.0</ele><time>2026-04-25T16:23:39Z</time></trkpt><trkpt lat="43.39775179073884" lon="10.792386148291971"><ele>136.0</ele><time>2026-04-25T16:23:40Z</time></trkpt><trkpt lat="43.397883053475375" lon="10.792379429234614"><ele>136.0</ele><time>2026-04-25T16:23:41Z</time></trkpt><trkpt lat="43.39801949399463" lon="10.792401305737997"><ele>136.0</ele><time>2026-04-25T16:23:42Z</time></trkpt><trkpt lat="43.39815426773411" lon="10.79244678090605"><ele>136.0</ele><time>2026-04-25T16:23:43Z</time></trkpt><trkpt lat="43.3982881788481" lon="10.792509906718106"><ele>136.0</ele><time>2026-04-25T16:23:44Z</time></trkpt><trkpt lat="43.398421245313145" lon="10.792582009563233"><ele>136.0</ele><time>2026-04-25T16:23:45Z</time></trkpt><trkpt lat="43.39855386568133" lon="10.792655433026713"><ele>135.75</ele><time>2026-04-25T16:23:46Z</time></trkpt><trkpt lat="43.39868697419742" lon="10.792729328833348"><ele>135.5</ele><time>2026-04-25T16:23:47Z</time></trkpt><trkpt lat="43.39881595290083" lon="10.792803006263963"><ele>135.25</ele><time>2026-04-25T16:23:48Z</time></trkpt><trkpt lat="43.398933378362734" lon="10.792869027515211"><ele>135.0</ele><time>2026-04-25T16:23:49Z</time></trkpt><trkpt lat="43.39905357621424" lon="10.792919609824159"><ele>136.0</ele><time>2026-04-25T16:23:50Z</time></trkpt><trkpt lat="43.399180321918614" lon="10.792968581390703"><ele>137.0</ele><time>2026-04-25T16:23:51Z</time></trkpt><trkpt lat="43.399317911610424" lon="10.792937154433163"><ele>138.0</ele><time>2026-04-25T16:23:52Z</time></trkpt><trkpt lat="43.39945058222996" lon="10.792907037307675"><ele>139.0</ele><time>2026-04-25T16:23:53Z</time></trkpt><trkpt lat="43.399574504531735" lon="10.792853442080103"><ele>139.5</ele><time>2026-04-25T16:23:54Z</time></trkpt><trkpt lat="43.399679222648764" lon="10.792792686167017"><ele>140.0</ele><time>2026-04-25T16:23:55Z</time></trkpt><trkpt lat="43.39977489905139" lon="10.792714456121974"><ele>140.5</ele><time>2026-04-25T16:23:56Z</time></trkpt><trkpt lat="43.399861819655385" lon="10.792603864414225"><ele>141.0</ele><time>2026-04-25T16:23:57Z</time></trkpt><trkpt lat="43.39993154664409" lon="10.79246504218381"><ele>141.75</ele><time>2026-04-25T16:23:58Z</time></trkpt><trkpt lat="43.39998484989129" lon="10.792307422341324"><ele>142.5</ele><time>2026-04-25T16:23:59Z</time></trkpt><trkpt lat="43.40003178131392" lon="10.792141077584215"><ele>143.25</ele><time>2026-04-25T16:24:00Z</time></trkpt><trkpt lat="43.40007879697485" lon="10.791988388676662"><ele>144.0</ele><time>2026-04-25T16:24:01Z</time></trkpt><trkpt lat="43.40013193334291" lon="10.791857429817885"><ele>143.25</ele><time>2026-04-25T16:24:02Z</time></trkpt><trkpt lat="43.40019860052155" lon="10.79174292066153"><ele>142.5</ele><time>2026-04-25T16:24:03Z</time></trkpt><trkpt lat="43.40028230023674" lon="10.791640423366221"><ele>141.75</ele><time>2026-04-25T16:24:04Z</time></trkpt><trkpt lat="43.4003827509495" lon="10.791558621205064"><ele>141.0</ele><time>2026-04-25T16:24:05Z</time></trkpt><trkpt lat="43.400496453742825" lon="10.7914944036226"><ele>143.25</ele><time>2026-04-25T16:24:06Z</time></trkpt><trkpt lat="43.40061584231427" lon="10.791445475272461"><ele>145.5</ele><time>2026-04-25T16:24:07Z</time></trkpt><trkpt lat="43.40073954202479" lon="10.79140337364804"><ele>147.75</ele><time>2026-04-25T16:24:08Z</time></trkpt><trkpt lat="43.400868770346136" lon="10.791350789216123"><ele>150.0</ele><time>2026-04-25T16:24:09Z</time></trkpt><trkpt lat="43.400997079043634" lon="10.791287404866662"><ele>150.0</ele><time>2026-04-25T16:24:10Z</time></trkpt><trkpt lat="43.40112133656465" lon="10.79121563590171"><ele>150.0</ele><time>2026-04-25T16:24:11Z</time></trkpt><trkpt lat="43.40123387715354" lon="10.791132904064137"><ele>150.0</ele><time>2026-04-25T16:24:12Z</time></trkpt><trkpt lat="43.40132739475952" lon="10.79104787533064"><ele>150.0</ele><time>2026-04-25T16:24:13Z</time></trkpt><trkpt lat="43.401407888183066" lon="10.790960109183533"><ele>152.0</ele><time>2026-04-25T16:24:14Z</time></trkpt><trkpt lat="43.401465189272976" lon="10.790864829856032"><ele>154.0</ele><time>2026-04-25T16:24:15Z</time></trkpt><trkpt lat="43.40150207834182" lon="10.790753951805428"><ele>156.0</ele><time>2026-04-25T16:24:16Z</time></trkpt><trkpt lat="43.40151495306494" lon="10.790630025722411"><ele>158.0</ele><time>2026-04-25T16:24:17Z</time></trkpt><trkpt lat="43.401497554963" lon="10.790499981999778"><ele>160.0</ele><time>2026-04-25T16:24:18Z</time></trkpt><trkpt lat="43.4014542800742" lon="10.79036914043643"><ele>160.0</ele><time>2026-04-25T16:24:19Z</time></trkpt><trkpt lat="43.40139146505951" lon="10.790246204012016"><ele>160.0</ele><time>2026-04-25T16:24:20Z</time></trkpt><trkpt lat="43.4013189245222" lon="10.790124168861984"><ele>160.0</ele><time>2026-04-25T16:24:21Z</time></trkpt><trkpt lat="43.4012418333134" lon="10.789994813238668"><ele>160.0</ele><time>2026-04-25T16:24:22Z</time></trkpt><trkpt lat="43.40117589907013" lon="10.789874868417405"><ele>159.4</ele><time>2026-04-25T16:24:23Z</time></trkpt><trkpt lat="43.40112474110688" lon="10.789761148111014"><ele>158.8</ele><time>2026-04-25T16:24:24Z</time></trkpt><trkpt lat="43.40108986157212" lon="10.789637140670171"><ele>158.2</ele><time>2026-04-25T16:24:25Z</time></trkpt><trkpt lat="43.40107021124863" lon="10.789506422157755"><ele>157.6</ele><time>2026-04-25T16:24:26Z</time></trkpt><trkpt lat="43.40107084827634" lon="10.789376646870227"><ele>157.0</ele><time>2026-04-25T16:24:27Z</time></trkpt><trkpt lat="43.40109725069424" lon="10.789255283323552"><ele>157.0</ele><time>2026-04-25T16:24:28Z</time></trkpt><trkpt lat="43.401143092641" lon="10.789160971952743"><ele>157.0</ele><time>2026-04-25T16:24:29Z</time></trkpt><trkpt lat="43.40120730851466" lon="10.789085168286585"><ele>157.0</ele><time>2026-04-25T16:24:30Z</time></trkpt><trkpt lat="43.40129570021254" lon="10.789049322152662"><ele>157.0</ele><time>2026-04-25T16:24:31Z</time></trkpt><trkpt lat="43.401392236584876" lon="10.789035610826627"><ele>157.0</ele><time>2026-04-25T16:24:32Z</time></trkpt><trkpt lat="43.401496592002715" lon="10.789048755554422"><ele>160.0</ele><time>2026-04-25T16:24:33Z</time></trkpt><trkpt lat="43.40160473560642" lon="10.789083326611902"><ele>163.0</ele><time>2026-04-25T16:24:34Z</time></trkpt><trkpt lat="43.40171528890753" lon="10.789123617604265"><ele>166.0</ele><time>2026-04-25T16:24:35Z</time></trkpt><trkpt lat="43.401826428070436" lon="10.789154150356458"><ele>169.0</ele><time>2026-04-25T16:24:36Z</time></trkpt><trkpt lat="43.40193691667623" lon="10.789162437548782"><ele>172.0</ele><time>2026-04-25T16:24:37Z</time></trkpt><trkpt lat="43.402050721528056" lon="10.78917104773772"><ele>172.0</ele><time>2026-04-25T16:24:38Z</time></trkpt><trkpt lat="43.40215992499254" lon="10.789123273616605"><ele>172.0</ele><time>2026-04-25T16:24:39Z</time></trkpt><trkpt lat="43.40225684575474" lon="10.789025527261844"><ele>172.0</ele><time>2026-04-25T16:24:40Z</time></trkpt><trkpt lat="43.40235587257267" lon="10.788922386216223"><ele>172.0</ele><time>2026-04-25T16:24:41Z</time></trkpt><trkpt lat="43.402446518405014" lon="10.78880852488656"><ele>172.75</ele><time>2026-04-25T16:24:42Z</time></trkpt><trkpt lat="43.40253349848061" lon="10.788689606568532"><ele>173.5</ele><time>2026-04-25T16:24:43Z</time></trkpt><trkpt lat="43.40262232693521" lon="10.78856665541343"><ele>174.25</ele><time>2026-04-25T16:24:44Z</time></trkpt><trkpt lat="43.402710347848306" lon="10.788438965142683"><ele>175.0</ele><time>2026-04-25T16:24:45Z</time></trkpt><trkpt lat="43.40278406532882" lon="10.788317430187888"><ele>175.0</ele><time>2026-04-25T16:24:46Z</time></trkpt><trkpt lat="43.40283596604272" lon="10.7882015150752"><ele>175.0</ele><time>2026-04-25T16:24:47Z</time></trkpt><trkpt lat="43.40287678749035" lon="10.788099435339241"><ele>175.0</ele><time>2026-04-25T16:24:48Z</time></trkpt><trkpt lat="43.402905920586704" lon="10.788008728018891"><ele>175.0</ele><time>2026-04-25T16:24:49Z</time></trkpt><trkpt lat="43.40292784972586" lon="10.787914266330686"><ele>175.0</ele><time>2026-04-25T16:24:50Z</time></trkpt><trkpt lat="43.402943065473366" lon="10.787807985875663"><ele>175.0</ele><time>2026-04-25T16:24:51Z</time></trkpt><trkpt lat="43.40294863676532" lon="10.787698204558701"><ele>173.83333333333334</ele><time>2026-04-25T16:24:52Z</time></trkpt><trkpt lat="43.4029407408176" lon="10.787549249312272"><ele>172.66666666666669</ele><time>2026-04-25T16:24:54Z</time></trkpt><trkpt lat="43.40291336417855" lon="10.787463201826528"><ele>171.5</ele><time>2026-04-25T16:25:41Z</time></trkpt><trkpt lat="43.40287183162725" lon="10.787336334873077"><ele>170.33333333333334</ele><time>2026-04-25T16:25:43Z</time></trkpt><trkpt lat="43.40284894145512" lon="10.78724516771018"><ele>169.16666666666666</ele><time>2026-04-25T16:25:44Z</time></trkpt><trkpt lat="43.40282301162184" lon="10.787131217169417"><ele>168.0</ele><time>2026-04-25T16:25:45Z</time></trkpt><trkpt lat="43.402794225648" lon="10.787006151979202"><ele>168.0</ele><time>2026-04-25T16:25:46Z</time></trkpt><trkpt lat="43.4027597951563" lon="10.786876367272598"><ele>168.0</ele><time>2026-04-25T16:25:47Z</time></trkpt><trkpt lat="43.402724101211085" lon="10.78673937089425"><ele>168.0</ele><time>2026-04-25T16:25:48Z</time></trkpt><trkpt lat="43.4026887338961" lon="10.786598800730369"><ele>168.0</ele><time>2026-04-25T16:25:49Z</time></trkpt><trkpt lat="43.40264984890487" lon="10.786445480458333"><ele>168.0</ele><time>2026-04-25T16:25:50Z</time></trkpt><trkpt lat="43.4026104878017" lon="10.786288377417877"><ele>167.5</ele><time>2026-04-25T16:25:51Z</time></trkpt><trkpt lat="43.402571313913626" lon="10.786124936962187"><ele>167.0</ele><time>2026-04-25T16:25:52Z</time></trkpt><trkpt lat="43.402529361043996" lon="10.78595278646437"><ele>166.5</ele><time>2026-04-25T16:25:53Z</time></trkpt><trkpt lat="43.40248580794472" lon="10.785775158989859"><ele>166.0</ele><time>2026-04-25T16:25:54Z</time></trkpt><trkpt lat="43.402442465300936" lon="10.785596343159554"><ele>165.5</ele><time>2026-04-25T16:25:55Z</time></trkpt><trkpt lat="43.40239853489805" lon="10.785418834589496"><ele>165.0</ele><time>2026-04-25T16:25:56Z</time></trkpt><trkpt lat="43.402357027620965" lon="10.785251868596676"><ele>164.5</ele><time>2026-04-25T16:25:57Z</time></trkpt><trkpt lat="43.4023128857159" lon="10.785081001209347"><ele>164.0</ele><time>2026-04-25T16:25:58Z</time></trkpt><trkpt lat="43.40226823823639" lon="10.78490720456728"><ele>164.0</ele><time>2026-04-25T16:25:59Z</time></trkpt><trkpt lat="43.40222503464373" lon="10.784733265601078"><ele>164.0</ele><time>2026-04-25T16:26:00Z</time></trkpt><trkpt lat="43.40217874022543" lon="10.784560583192667"><ele>164.0</ele><time>2026-04-25T16:26:01Z</time></trkpt><trkpt lat="43.4021381158158" lon="10.784382572374732"><ele>164.0</ele><time>2026-04-25T16:26:02Z</time></trkpt><trkpt lat="43.40210730352183" lon="10.784197128258725"><ele>163.25</ele><time>2026-04-25T16:26:03Z</time></trkpt><trkpt lat="43.402084708806264" lon="10.784007933445748"><ele>162.5</ele><time>2026-04-25T16:26:04Z</time></trkpt><trkpt lat="43.40206685577085" lon="10.783813722500598"><ele>161.75</ele><time>2026-04-25T16:26:05Z</time></trkpt><trkpt lat="43.402046142449436" lon="10.783615879054443"><ele>161.0</ele><time>2026-04-25T16:26:06Z</time></trkpt><trkpt lat="43.402025119579896" lon="10.783419854910528"><ele>161.0</ele><time>2026-04-25T16:26:07Z</time></trkpt><trkpt lat="43.40200436036328" lon="10.783225418154371"><ele>161.0</ele><time>2026-04-25T16:26:08Z</time></trkpt><trkpt lat="43.40198517580067" lon="10.78302963279503"><ele>161.0</ele><time>2026-04-25T16:26:09Z</time></trkpt><trkpt lat="43.401969035934435" lon="10.782835920533431"><ele>161.0</ele><time>2026-04-25T16:26:10Z</time></trkpt><trkpt lat="43.40195119687765" lon="10.782638271650974"><ele>161.75</ele><time>2026-04-25T16:26:11Z</time></trkpt><trkpt lat="43.401934317002706" lon="10.782442456961972"><ele>162.5</ele><time>2026-04-25T16:26:12Z</time></trkpt><trkpt lat="43.401918262593526" lon="10.78224270602406"><ele>163.25</ele><time>2026-04-25T16:26:13Z</time></trkpt><trkpt lat="43.401902152622476" lon="10.782032292788026"><ele>164.0</ele><time>2026-04-25T16:26:14Z</time></trkpt><trkpt lat="43.4018915647497" lon="10.781816477655623"><ele>164.33333333333331</ele><time>2026-04-25T16:26:15Z</time></trkpt><trkpt lat="43.40189080345602" lon="10.781594388205791"><ele>164.66666666666666</ele><time>2026-04-25T16:26:16Z</time></trkpt><trkpt lat="43.40190283569999" lon="10.78136830643705"><ele>165.0</ele><time>2026-04-25T16:26:17Z</time></trkpt><trkpt lat="43.40192718529206" lon="10.781143143816182"><ele>165.0</ele><time>2026-04-25T16:26:18Z</time></trkpt><trkpt lat="43.40195641918536" lon="10.780917274031136"><ele>165.0</ele><time>2026-04-25T16:26:19Z</time></trkpt><trkpt lat="43.40198573647768" lon="10.780690360256852"><ele>165.0</ele><time>2026-04-25T16:26:20Z</time></trkpt><trkpt lat="43.4020118516749" lon="10.780462772409104"><ele>165.0</ele><time>2026-04-25T16:26:21Z</time></trkpt><trkpt lat="43.40203600174913" lon="10.780245850977108"><ele>165.0</ele><time>2026-04-25T16:26:22Z</time></trkpt><trkpt lat="43.40205596614847" lon="10.780030183223534"><ele>165.0</ele><time>2026-04-25T16:26:23Z</time></trkpt><trkpt lat="43.402066433456326" lon="10.779807554550045"><ele>165.33333333333334</ele><time>2026-04-25T16:26:24Z</time></trkpt><trkpt lat="43.40206187068333" lon="10.779578287490855"><ele>165.66666666666669</ele><time>2026-04-25T16:26:25Z</time></trkpt><trkpt lat="43.40205184838042" lon="10.779347845561702"><ele>166.0</ele><time>2026-04-25T16:26:26Z</time></trkpt><trkpt lat="43.40204260339555" lon="10.77912030705729"><ele>166.0</ele><time>2026-04-25T16:26:27Z</time></trkpt><trkpt lat="43.402034773866845" lon="10.778907541572934"><ele>166.0</ele><time>2026-04-25T16:26:28Z</time></trkpt><trkpt lat="43.402025634084325" lon="10.778694750566197"><ele>166.0</ele><time>2026-04-25T16:26:29Z</time></trkpt><trkpt lat="43.40201957097975" lon="10.77847953591554"><ele>166.0</ele><time>2026-04-25T16:26:30Z</time></trkpt><trkpt lat="43.40202647599272" lon="10.778255474839188"><ele>166.0</ele><time>2026-04-25T16:26:31Z</time></trkpt><trkpt lat="43.40204281780663" lon="10.778033557841985"><ele>166.0</ele><time>2026-04-25T16:26:32Z</time></trkpt><trkpt lat="43.402065451464594" lon="10.777812566645517"><ele>165.33333333333334</ele><time>2026-04-25T16:26:33Z</time></trkpt><trkpt lat="43.40209644911462" lon="10.77759516810458"><ele>164.66666666666666</ele><time>2026-04-25T16:26:34Z</time></trkpt><trkpt lat="43.402137823122196" lon="10.777380892528676"><ele>164.0</ele><time>2026-04-25T16:26:35Z</time></trkpt><trkpt lat="43.402189422190936" lon="10.777179315500291"><ele>162.5</ele><time>2026-04-25T16:26:36Z</time></trkpt><trkpt lat="43.40224133547476" lon="10.776997306586358"><ele>161.0</ele><time>2026-04-25T16:26:37Z</time></trkpt><trkpt lat="43.4022870829039" lon="10.77682540355171"><ele>159.5</ele><time>2026-04-25T16:26:38Z</time></trkpt><trkpt lat="43.40231944320381" lon="10.776647293330168"><ele>158.0</ele><time>2026-04-25T16:26:39Z</time></trkpt><trkpt lat="43.40233912067657" lon="10.776465778797439"><ele>158.0</ele><time>2026-04-25T16:26:40Z</time></trkpt><trkpt lat="43.40235491724846" lon="10.776280369292184"><ele>158.0</ele><time>2026-04-25T16:26:41Z</time></trkpt><trkpt lat="43.402367126682" lon="10.776109730139629"><ele>158.0</ele><time>2026-04-25T16:26:42Z</time></trkpt><trkpt lat="43.40239002145326" lon="10.775943875824446"><ele>158.0</ele><time>2026-04-25T16:26:43Z</time></trkpt><trkpt lat="43.40242257611419" lon="10.775794346923792"><ele>158.0</ele><time>2026-04-25T16:26:44Z</time></trkpt><trkpt lat="43.40249101031773" lon="10.775666869744764"><ele>158.0</ele><time>2026-04-25T16:26:45Z</time></trkpt><trkpt lat="43.40258337186131" lon="10.775555389781209"><ele>158.0</ele><time>2026-04-25T16:26:46Z</time></trkpt><trkpt lat="43.402700485608186" lon="10.77548556671298"><ele>158.0</ele><time>2026-04-25T16:26:47Z</time></trkpt><trkpt lat="43.402824794223676" lon="10.77539969183963"><ele>158.0</ele><time>2026-04-25T16:26:48Z</time></trkpt><trkpt lat="43.402954585168295" lon="10.77529787973405"><ele>158.0</ele><time>2026-04-25T16:26:49Z</time></trkpt><trkpt lat="43.40309023157428" lon="10.77521388518016"><ele>158.0</ele><time>2026-04-25T16:26:50Z</time></trkpt><trkpt lat="43.40321556358746" lon="10.775132949237683"><ele>158.0</ele><time>2026-04-25T16:26:51Z</time></trkpt><trkpt lat="43.40333630588663" lon="10.775056524164503"><ele>158.0</ele><time>2026-04-25T16:26:52Z</time></trkpt><trkpt lat="43.40345211695588" lon="10.774980765529335"><ele>158.0</ele><time>2026-04-25T16:26:53Z</time></trkpt><trkpt lat="43.403567373854166" lon="10.774907776800273"><ele>158.0</ele><time>2026-04-25T16:26:54Z</time></trkpt><trkpt lat="43.40369028115339" lon="10.774826357026072"><ele>158.0</ele><time>2026-04-25T16:26:55Z</time></trkpt><trkpt lat="43.40380715745977" lon="10.774748407348666"><ele>156.0</ele><time>2026-04-25T16:26:56Z</time></trkpt><trkpt lat="43.40392195001577" lon="10.774679379189598"><ele>154.0</ele><time>2026-04-25T16:26:57Z</time></trkpt><trkpt lat="43.40404997386885" lon="10.774630819794167"><ele>152.0</ele><time>2026-04-25T16:26:58Z</time></trkpt><trkpt lat="43.40418802171191" lon="10.774613063723054"><ele>150.0</ele><time>2026-04-25T16:26:59Z</time></trkpt><trkpt lat="43.404330371317194" lon="10.77464736755971"><ele>150.0</ele><time>2026-04-25T16:27:00Z</time></trkpt><trkpt lat="43.40447924405768" lon="10.774660345072432"><ele>150.0</ele><time>2026-04-25T16:27:01Z</time></trkpt><trkpt lat="43.40462735116473" lon="10.77471941796663"><ele>150.0</ele><time>2026-04-25T16:27:02Z</time></trkpt><trkpt lat="43.404775983995705" lon="10.774787626983619"><ele>150.0</ele><time>2026-04-25T16:27:03Z</time></trkpt><trkpt lat="43.40492504929678" lon="10.774866536147739"><ele>150.0</ele><time>2026-04-25T16:27:04Z</time></trkpt><trkpt lat="43.40507600867573" lon="10.774945096859348"><ele>150.0</ele><time>2026-04-25T16:27:05Z</time></trkpt><trkpt lat="43.405229016034" lon="10.775021048608654"><ele>150.0</ele><time>2026-04-25T16:27:06Z</time></trkpt><trkpt lat="43.405374296673145" lon="10.77509345686905"><ele>150.0</ele><time>2026-04-25T16:27:07Z</time></trkpt><trkpt lat="43.40551394950288" lon="10.775188906389168"><ele>150.0</ele><time>2026-04-25T16:27:08Z</time></trkpt><trkpt lat="43.40566111182918" lon="10.775265159457362"><ele>148.33333333333334</ele><time>2026-04-25T16:27:09Z</time></trkpt><trkpt lat="43.40580470702767" lon="10.775339564085888"><ele>146.66666666666669</ele><time>2026-04-25T16:27:10Z</time></trkpt><trkpt lat="43.40595142843828" lon="10.775396229600027"><ele>145.0</ele><time>2026-04-25T16:27:11Z</time></trkpt><trkpt lat="43.40609366160059" lon="10.775469127245596"><ele>145.0</ele><time>2026-04-25T16:27:12Z</time></trkpt><trkpt lat="43.40623196162812" lon="10.775528114675978"><ele>145.0</ele><time>2026-04-25T16:27:13Z</time></trkpt><trkpt lat="43.40637570902641" lon="10.775574184680876"><ele>145.0</ele><time>2026-04-25T16:27:14Z</time></trkpt><trkpt lat="43.40652397407417" lon="10.775603003928815"><ele>145.0</ele><time>2026-04-25T16:27:15Z</time></trkpt><trkpt lat="43.40667235492462" lon="10.77561411622335"><ele>145.0</ele><time>2026-04-25T16:27:16Z</time></trkpt><trkpt lat="43.40681999975663" lon="10.775599840857618"><ele>145.0</ele><time>2026-04-25T16:27:17Z</time></trkpt><trkpt lat="43.40696671310992" lon="10.775563082524037"><ele>145.0</ele><time>2026-04-25T16:27:18Z</time></trkpt><trkpt lat="43.407109155224674" lon="10.775508329167751"><ele>145.0</ele><time>2026-04-25T16:27:19Z</time></trkpt><trkpt lat="43.40724839371215" lon="10.775460613161782"><ele>145.0</ele><time>2026-04-25T16:27:20Z</time></trkpt><trkpt lat="43.4073974208642" lon="10.775441816022894"><ele>145.0</ele><time>2026-04-25T16:27:21Z</time></trkpt><trkpt lat="43.407548857958325" lon="10.775442670539372"><ele>145.0</ele><time>2026-04-25T16:27:22Z</time></trkpt><trkpt lat="43.4077033113944" lon="10.775442171796056"><ele>145.0</ele><time>2026-04-25T16:27:23Z</time></trkpt><trkpt lat="43.40785890692385" lon="10.775432535396241"><ele>145.0</ele><time>2026-04-25T16:27:24Z</time></trkpt><trkpt lat="43.4080149630955" lon="10.775410541676717"><ele>145.0</ele><time>2026-04-25T16:27:25Z</time></trkpt><trkpt lat="43.408160127729985" lon="10.775378169551344"><ele>144.25</ele><time>2026-04-25T16:27:26Z</time></trkpt><trkpt lat="43.40830255028726" lon="10.775336416665407"><ele>143.5</ele><time>2026-04-25T16:27:27Z</time></trkpt><trkpt lat="43.40844495502875" lon="10.775291609280115"><ele>142.75</ele><time>2026-04-25T16:27:28Z</time></trkpt><trkpt lat="43.40858328015391" lon="10.775239483020929"><ele>142.0</ele><time>2026-04-25T16:27:29Z</time></trkpt><trkpt lat="43.408718788287715" lon="10.7751727183608"><ele>142.5</ele><time>2026-04-25T16:27:30Z</time></trkpt><trkpt lat="43.40885157264291" lon="10.775101651582798"><ele>143.0</ele><time>2026-04-25T16:27:31Z</time></trkpt><trkpt lat="43.40898214215449" lon="10.775019266195612"><ele>143.5</ele><time>2026-04-25T16:27:32Z</time></trkpt><trkpt lat="43.40911111204534" lon="10.774931236856585"><ele>144.0</ele><time>2026-04-25T16:27:33Z</time></trkpt><trkpt lat="43.40923480816809" lon="10.774836952477356"><ele>144.0</ele><time>2026-04-25T16:27:34Z</time></trkpt><trkpt lat="43.409344044724946" lon="10.774743603427783"><ele>144.0</ele><time>2026-04-25T16:27:35Z</time></trkpt><trkpt lat="43.409437643696464" lon="10.774638999550165"><ele>144.0</ele><time>2026-04-25T16:27:36Z</time></trkpt><trkpt lat="43.409522239858006" lon="10.774511730563727"><ele>144.0</ele><time>2026-04-25T16:27:37Z</time></trkpt><trkpt lat="43.409590518531914" lon="10.774358392839622"><ele>142.75</ele><time>2026-04-25T16:27:38Z</time></trkpt><trkpt lat="43.40963906788699" lon="10.774186230894665"><ele>141.5</ele><time>2026-04-25T16:27:39Z</time></trkpt><trkpt lat="43.409672144713426" lon="10.774004986908938"><ele>140.25</ele><time>2026-04-25T16:27:40Z</time></trkpt><trkpt lat="43.40969883127309" lon="10.773846984517071"><ele>139.0</ele><time>2026-04-25T16:27:41Z</time></trkpt><trkpt lat="43.40973944329822" lon="10.773724037202506"><ele>139.0</ele><time>2026-04-25T16:27:42Z</time></trkpt><trkpt lat="43.40980267271366" lon="10.773624736640938"><ele>139.0</ele><time>2026-04-25T16:27:43Z</time></trkpt><trkpt lat="43.40988921040747" lon="10.773543754081015"><ele>139.0</ele><time>2026-04-25T16:27:44Z</time></trkpt><trkpt lat="43.40998701004897" lon="10.773498045393355"><ele>139.0</ele><time>2026-04-25T16:27:45Z</time></trkpt><trkpt lat="43.410094765846665" lon="10.773499346543755"><ele>139.0</ele><time>2026-04-25T16:27:46Z</time></trkpt><trkpt lat="43.41020319515146" lon="10.77352870912839"><ele>139.0</ele><time>2026-04-25T16:27:47Z</time></trkpt><trkpt lat="43.41031059511902" lon="10.77358229157107"><ele>139.0</ele><time>2026-04-25T16:27:48Z</time></trkpt><trkpt lat="43.4104209438493" lon="10.773640262876196"><ele>139.0</ele><time>2026-04-25T16:27:49Z</time></trkpt><trkpt lat="43.41052546339029" lon="10.773671502077052"><ele>139.0</ele><time>2026-04-25T16:27:50Z</time></trkpt><trkpt lat="43.410639545098064" lon="10.773675544821685"><ele>139.0</ele><time>2026-04-25T16:27:51Z</time></trkpt><trkpt lat="43.410758271017265" lon="10.773666833322288"><ele>139.0</ele><time>2026-04-25T16:27:52Z</time></trkpt><trkpt lat="43.410885383549754" lon="10.773655267396835"><ele>139.0</ele><time>2026-04-25T16:27:53Z</time></trkpt><trkpt lat="43.41101798630878" lon="10.773650776819764"><ele>139.0</ele><time>2026-04-25T16:27:54Z</time></trkpt><trkpt lat="43.41115165636591" lon="10.773660596497178"><ele>139.0</ele><time>2026-04-25T16:27:55Z</time></trkpt><trkpt lat="43.41128492540812" lon="10.773694080840885"><ele>139.0</ele><time>2026-04-25T16:27:56Z</time></trkpt><trkpt lat="43.41141730062056" lon="10.773740646418016"><ele>139.0</ele><time>2026-04-25T16:27:57Z</time></trkpt><trkpt lat="43.41154345326012" lon="10.7737666079496"><ele>139.0</ele><time>2026-04-25T16:27:58Z</time></trkpt><trkpt lat="43.411672960288726" lon="10.773760786008566"><ele>139.0</ele><time>2026-04-25T16:27:59Z</time></trkpt><trkpt lat="43.41180586101601" lon="10.773725008701232"><ele>139.0</ele><time>2026-04-25T16:28:00Z</time></trkpt><trkpt lat="43.41193543669579" lon="10.773669369323729"><ele>139.0</ele><time>2026-04-25T16:28:01Z</time></trkpt><trkpt lat="43.41206396074684" lon="10.773597660952522"><ele>139.0</ele><time>2026-04-25T16:28:02Z</time></trkpt><trkpt lat="43.41219154755371" lon="10.77351513227447"><ele>139.0</ele><time>2026-04-25T16:28:03Z</time></trkpt><trkpt lat="43.41230274050091" lon="10.773423674351298"><ele>139.0</ele><time>2026-04-25T16:28:04Z</time></trkpt><trkpt lat="43.41239366714264" lon="10.773325802154762"><ele>139.0</ele><time>2026-04-25T16:28:05Z</time></trkpt><trkpt lat="43.412468460557925" lon="10.773241154582038"><ele>139.0</ele><time>2026-04-25T16:28:06Z</time></trkpt><trkpt lat="43.412554910250996" lon="10.773181995178902"><ele>139.0</ele><time>2026-04-25T16:28:07Z</time></trkpt><trkpt lat="43.412662533625664" lon="10.77316371748893"><ele>139.0</ele><time>2026-04-25T16:28:08Z</time></trkpt><trkpt lat="43.41277481614439" lon="10.773179075407421"><ele>139.0</ele><time>2026-04-25T16:28:09Z</time></trkpt><trkpt lat="43.412893527153955" lon="10.773210588448869"><ele>139.0</ele><time>2026-04-25T16:28:10Z</time></trkpt><trkpt lat="43.41300771823684" lon="10.773256427587883"><ele>139.0</ele><time>2026-04-25T16:28:11Z</time></trkpt><trkpt lat="43.41312281202426" lon="10.773315443922543"><ele>139.75</ele><time>2026-04-25T16:28:12Z</time></trkpt><trkpt lat="43.413242062512204" lon="10.773378522009367"><ele>140.5</ele><time>2026-04-25T16:28:13Z</time></trkpt><trkpt lat="43.41335174080361" lon="10.773477261217629"><ele>141.25</ele><time>2026-04-25T16:28:14Z</time></trkpt><trkpt lat="43.41346935871157" lon="10.773561610323213"><ele>142.0</ele><time>2026-04-25T16:28:15Z</time></trkpt><trkpt lat="43.413595722623356" lon="10.773630345745682"><ele>140.75</ele><time>2026-04-25T16:28:16Z</time></trkpt><trkpt lat="43.413716718005546" lon="10.773721302150792"><ele>139.5</ele><time>2026-04-25T16:28:17Z</time></trkpt><trkpt lat="43.413839618189726" lon="10.773811975671508"><ele>138.25</ele><time>2026-04-25T16:28:18Z</time></trkpt><trkpt lat="43.413966409513904" lon="10.773899741984435"><ele>137.0</ele><time>2026-04-25T16:28:19Z</time></trkpt><trkpt lat="43.41409238345852" lon="10.773990856312336"><ele>137.0</ele><time>2026-04-25T16:28:20Z</time></trkpt><trkpt lat="43.414210971617294" lon="10.774083264813312"><ele>137.0</ele><time>2026-04-25T16:28:21Z</time></trkpt><trkpt lat="43.414321968240564" lon="10.774168109096795"><ele>137.0</ele><time>2026-04-25T16:28:22Z</time></trkpt><trkpt lat="43.41443281967892" lon="10.774236400845222"><ele>137.0</ele><time>2026-04-25T16:28:23Z</time></trkpt><trkpt lat="43.41454324268433" lon="10.774276396162524"><ele>137.0</ele><time>2026-04-25T16:28:24Z</time></trkpt><trkpt lat="43.41465405078773" lon="10.774291004690388"><ele>137.0</ele><time>2026-04-25T16:28:25Z</time></trkpt><trkpt lat="43.41477352315663" lon="10.774274559386704"><ele>137.0</ele><time>2026-04-25T16:28:26Z</time></trkpt><trkpt lat="43.41490021994995" lon="10.774229618101542"><ele>137.0</ele><time>2026-04-25T16:28:27Z</time></trkpt><trkpt lat="43.41503232365313" lon="10.774169099254678"><ele>136.75</ele><time>2026-04-25T16:28:28Z</time></trkpt><trkpt lat="43.41517261247689" lon="10.774101704564922"><ele>136.5</ele><time>2026-04-25T16:28:29Z</time></trkpt><trkpt lat="43.41531364389705" lon="10.774037143794898"><ele>136.25</ele><time>2026-04-25T16:28:30Z</time></trkpt><trkpt lat="43.41545483487666" lon="10.77397569789595"><ele>136.0</ele><time>2026-04-25T16:28:31Z</time></trkpt><trkpt lat="43.41559670649856" lon="10.77391610151188"><ele>135.0</ele><time>2026-04-25T16:28:32Z</time></trkpt><trkpt lat="43.415732772174245" lon="10.773859052922631"><ele>134.0</ele><time>2026-04-25T16:28:33Z</time></trkpt><trkpt lat="43.41585976673167" lon="10.773806013557417"><ele>133.0</ele><time>2026-04-25T16:28:34Z</time></trkpt><trkpt lat="43.41597963586858" lon="10.773752296405183"><ele>132.0</ele><time>2026-04-25T16:28:35Z</time></trkpt><trkpt lat="43.416092052258875" lon="10.773683488113507"><ele>132.0</ele><time>2026-04-25T16:28:36Z</time></trkpt><trkpt lat="43.416197048944404" lon="10.773577880446652"><ele>132.0</ele><time>2026-04-25T16:28:37Z</time></trkpt><trkpt lat="43.41629929708013" lon="10.773451212093265"><ele>132.0</ele><time>2026-04-25T16:28:38Z</time></trkpt><trkpt lat="43.41639336143912" lon="10.773302823698112"><ele>132.0</ele><time>2026-04-25T16:28:39Z</time></trkpt><trkpt lat="43.416479557696505" lon="10.773159591316725"><ele>132.25</ele><time>2026-04-25T16:28:40Z</time></trkpt><trkpt lat="43.41654580686385" lon="10.773004755033051"><ele>132.5</ele><time>2026-04-25T16:28:41Z</time></trkpt><trkpt lat="43.41663692983714" lon="10.772893190493873"><ele>132.75</ele><time>2026-04-25T16:28:42Z</time></trkpt><trkpt lat="43.41674303883242" lon="10.772810849113256"><ele>133.0</ele><time>2026-04-25T16:28:43Z</time></trkpt><trkpt lat="43.41686517287041" lon="10.772756670900502"><ele>133.0</ele><time>2026-04-25T16:28:44Z</time></trkpt><trkpt lat="43.41699836417535" lon="10.772740049639186"><ele>133.0</ele><time>2026-04-25T16:28:45Z</time></trkpt><trkpt lat="43.41713835559864" lon="10.772759455298756"><ele>133.0</ele><time>2026-04-25T16:28:46Z</time></trkpt><trkpt lat="43.41728258269038" lon="10.772796349074573"><ele>133.0</ele><time>2026-04-25T16:28:47Z</time></trkpt><trkpt lat="43.417430046977" lon="10.772844209127816"><ele>132.33333333333334</ele><time>2026-04-25T16:28:48Z</time></trkpt><trkpt lat="43.417583661232406" lon="10.772894166306735"><ele>131.66666666666666</ele><time>2026-04-25T16:28:49Z</time></trkpt><trkpt lat="43.41774216613526" lon="10.772940905270646"><ele>131.0</ele><time>2026-04-25T16:28:50Z</time></trkpt><trkpt lat="43.4179055294719" lon="10.77298846976573"><ele>130.66666666666666</ele><time>2026-04-25T16:28:51Z</time></trkpt><trkpt lat="43.418067060101116" lon="10.773040544267214"><ele>130.33333333333334</ele><time>2026-04-25T16:28:52Z</time></trkpt><trkpt lat="43.418232194153326" lon="10.773093135234046"><ele>130.0</ele><time>2026-04-25T16:28:53Z</time></trkpt><trkpt lat="43.41840286112834" lon="10.773143710994212"><ele>130.0</ele><time>2026-04-25T16:28:54Z</time></trkpt><trkpt lat="43.418574673712165" lon="10.773194165023822"><ele>130.0</ele><time>2026-04-25T16:28:55Z</time></trkpt><trkpt lat="43.418747969352175" lon="10.773244959244831"><ele>130.0</ele><time>2026-04-25T16:28:56Z</time></trkpt><trkpt lat="43.418923035318485" lon="10.773299539322233"><ele>129.33333333333334</ele><time>2026-04-25T16:28:57Z</time></trkpt><trkpt lat="43.419099895714126" lon="10.773355143004888"><ele>128.66666666666666</ele><time>2026-04-25T16:28:58Z</time></trkpt><trkpt lat="43.41927859563941" lon="10.773407975170317"><ele>128.0</ele><time>2026-04-25T16:28:59Z</time></trkpt><trkpt lat="43.41945833771644" lon="10.773461778122737"><ele>128.0</ele><time>2026-04-25T16:29:00Z</time></trkpt><trkpt lat="43.419636767367464" lon="10.773517063845455"><ele>128.0</ele><time>2026-04-25T16:29:01Z</time></trkpt><trkpt lat="43.41980890337946" lon="10.773571174219994"><ele>128.0</ele><time>2026-04-25T16:29:02Z</time></trkpt><trkpt lat="43.4199766734774" lon="10.77362356904414"><ele>128.33333333333331</ele><time>2026-04-25T16:29:03Z</time></trkpt><trkpt lat="43.42014485022943" lon="10.773673600471684"><ele>128.66666666666666</ele><time>2026-04-25T16:29:04Z</time></trkpt><trkpt lat="43.42031206771927" lon="10.77372249954207"><ele>129.0</ele><time>2026-04-25T16:29:05Z</time></trkpt><trkpt lat="43.42047736486312" lon="10.773774051503157"><ele>129.66666666666666</ele><time>2026-04-25T16:29:06Z</time></trkpt><trkpt lat="43.420642422795424" lon="10.77382290979621"><ele>130.33333333333331</ele><time>2026-04-25T16:29:07Z</time></trkpt><trkpt lat="43.4208066829967" lon="10.773888560158525"><ele>131.0</ele><time>2026-04-25T16:29:08Z</time></trkpt><trkpt lat="43.42097726933084" lon="10.773905900882017"><ele>131.0</ele><time>2026-04-25T16:29:09Z</time></trkpt><trkpt lat="43.42114508265937" lon="10.773940012238944"><ele>131.0</ele><time>2026-04-25T16:29:10Z</time></trkpt><trkpt lat="43.42131257761064" lon="10.773968426731935"><ele>131.0</ele><time>2026-04-25T16:29:11Z</time></trkpt><trkpt lat="43.42147233914457" lon="10.773993409889354"><ele>130.5</ele><time>2026-04-25T16:29:12Z</time></trkpt><trkpt lat="43.421621994859606" lon="10.774014745340416"><ele>130.0</ele><time>2026-04-25T16:29:13Z</time></trkpt><trkpt lat="43.42175976804404" lon="10.77403494130343"><ele>129.5</ele><time>2026-04-25T16:29:14Z</time></trkpt><trkpt lat="43.42188254333279" lon="10.7740584353516"><ele>129.0</ele><time>2026-04-25T16:29:15Z</time></trkpt><trkpt lat="43.42199302348978" lon="10.774097924349403"><ele>129.0</ele><time>2026-04-25T16:29:16Z</time></trkpt><trkpt lat="43.42209646173897" lon="10.77409948218185"><ele>129.0</ele><time>2026-04-25T16:29:17Z</time></trkpt><trkpt lat="43.42219758011249" lon="10.774076404538437"><ele>129.0</ele><time>2026-04-25T16:29:18Z</time></trkpt><trkpt lat="43.42230301519186" lon="10.773983240870868"><ele>129.0</ele><time>2026-04-25T16:29:19Z</time></trkpt><trkpt lat="43.422412507096276" lon="10.773889429421033"><ele>128.25</ele><time>2026-04-25T16:29:20Z</time></trkpt><trkpt lat="43.42251967092526" lon="10.77377404783505"><ele>127.5</ele><time>2026-04-25T16:29:21Z</time></trkpt><trkpt lat="43.42262764951731" lon="10.77365309680661"><ele>126.75</ele><time>2026-04-25T16:29:22Z</time></trkpt><trkpt lat="43.42274009695872" lon="10.773527991960528"><ele>126.0</ele><time>2026-04-25T16:29:23Z</time></trkpt><trkpt lat="43.42283868215788" lon="10.773420610619215"><ele>125.66666666666667</ele><time>2026-04-25T16:29:24Z</time></trkpt><trkpt lat="43.42291377471835" lon="10.773341611000518"><ele>125.33333333333334</ele><time>2026-04-25T16:29:25Z</time></trkpt><trkpt lat="43.42298054725498" lon="10.773269046903765"><ele>125.0</ele><time>2026-04-25T16:29:26Z</time></trkpt><trkpt lat="43.42304173894028" lon="10.773201533468328"><ele>124.66666666666667</ele><time>2026-04-25T16:29:27Z</time></trkpt><trkpt lat="43.42311800847042" lon="10.773111803037143"><ele>124.33333333333334</ele><time>2026-04-25T16:29:29Z</time></trkpt><trkpt lat="43.423168112371904" lon="10.77304977497413"><ele>124.0</ele><time>2026-04-25T16:31:25Z</time></trkpt><trkpt lat="43.42324927080369" lon="10.7729202417487"><ele>124.00000000000001</ele><time>2026-04-25T16:31:27Z</time></trkpt><trkpt lat="43.42328306959407" lon="10.772823929801339"><ele>124.0</ele><time>2026-04-25T16:31:28Z</time></trkpt><trkpt lat="43.42330953498896" lon="10.772713053067184"><ele>124.0</ele><time>2026-04-25T16:31:29Z</time></trkpt><trkpt lat="43.4233128280185" lon="10.772589634971279"><ele>124.0</ele><time>2026-04-25T16:31:30Z</time></trkpt><trkpt lat="43.42329432651428" lon="10.77246356106639"><ele>124.00000000000001</ele><time>2026-04-25T16:31:31Z</time></trkpt><trkpt lat="43.423267660712995" lon="10.772350935109346"><ele>124.0</ele><time>2026-04-25T16:31:32Z</time></trkpt><trkpt lat="43.42325082783964" lon="10.772237973897601"><ele>124.0</ele><time>2026-04-25T16:31:33Z</time></trkpt><trkpt lat="43.423255226430115" lon="10.772129838535726"><ele>124.0</ele><time>2026-04-25T16:31:34Z</time></trkpt><trkpt lat="43.42329318153086" lon="10.772010104310215"><ele>124.0</ele><time>2026-04-25T16:31:35Z</time></trkpt><trkpt lat="43.42336929670017" lon="10.77189432932016"><ele>124.0</ele><time>2026-04-25T16:31:36Z</time></trkpt><trkpt lat="43.42346003410018" lon="10.771799695789912"><ele>124.0</ele><time>2026-04-25T16:31:37Z</time></trkpt><trkpt lat="43.42357449567171" lon="10.77174184286803"><ele>124.25</ele><time>2026-04-25T16:31:38Z</time></trkpt><trkpt lat="43.42367448895022" lon="10.771637595202812"><ele>124.5</ele><time>2026-04-25T16:31:39Z</time></trkpt><trkpt lat="43.42377517407217" lon="10.771538477990351"><ele>124.75</ele><time>2026-04-25T16:31:40Z</time></trkpt><trkpt lat="43.42386848030186" lon="10.771406168419311"><ele>125.0</ele><time>2026-04-25T16:31:41Z</time></trkpt><trkpt lat="43.4239671403872" lon="10.771259939338167"><ele>125.0</ele><time>2026-04-25T16:31:42Z</time></trkpt><trkpt lat="43.42406122921429" lon="10.771122431263995"><ele>125.0</ele><time>2026-04-25T16:31:43Z</time></trkpt><trkpt lat="43.42413765615892" lon="10.770989598860362"><ele>125.0</ele><time>2026-04-25T16:31:44Z</time></trkpt><trkpt lat="43.424210682248855" lon="10.770864734332916"><ele>125.0</ele><time>2026-04-25T16:31:45Z</time></trkpt><trkpt lat="43.424273229006474" lon="10.770733595044916"><ele>125.5</ele><time>2026-04-25T16:31:46Z</time></trkpt><trkpt lat="43.4243117483627" lon="10.7705937631593"><ele>126.0</ele><time>2026-04-25T16:31:47Z</time></trkpt><trkpt lat="43.42433227825245" lon="10.77044865729334"><ele>126.5</ele><time>2026-04-25T16:31:48Z</time></trkpt><trkpt lat="43.424324287945" lon="10.770289265491794"><ele>127.0</ele><time>2026-04-25T16:31:49Z</time></trkpt><trkpt lat="43.42429275491085" lon="10.770129140086553"><ele>126.0</ele><time>2026-04-25T16:31:50Z</time></trkpt><trkpt lat="43.424232889324394" lon="10.769975269993065"><ele>125.0</ele><time>2026-04-25T16:31:51Z</time></trkpt><trkpt lat="43.42415981636081" lon="10.769818943671844"><ele>124.0</ele><time>2026-04-25T16:31:52Z</time></trkpt><trkpt lat="43.424087049716974" lon="10.769668496841652"><ele>123.0</ele><time>2026-04-25T16:31:53Z</time></trkpt><trkpt lat="43.424024020547606" lon="10.769529721296859"><ele>123.0</ele><time>2026-04-25T16:31:54Z</time></trkpt><trkpt lat="43.42396719405309" lon="10.769413385698625"><ele>123.0</ele><time>2026-04-25T16:31:55Z</time></trkpt><trkpt lat="43.423936393994786" lon="10.769316705262481"><ele>123.0</ele><time>2026-04-25T16:31:56Z</time></trkpt><trkpt lat="43.423930888083405" lon="10.769216974299642"><ele>123.0</ele><time>2026-04-25T16:31:57Z</time></trkpt><trkpt lat="43.4239438527291" lon="10.769112123325616"><ele>123.0</ele><time>2026-04-25T16:31:58Z</time></trkpt><trkpt lat="43.42398038701054" lon="10.7690116307638"><ele>123.0</ele><time>2026-04-25T16:31:59Z</time></trkpt><trkpt lat="43.424038418987074" lon="10.768926182485979"><ele>122.5</ele><time>2026-04-25T16:32:00Z</time></trkpt><trkpt lat="43.424110464173566" lon="10.768832552949991"><ele>122.0</ele><time>2026-04-25T16:32:01Z</time></trkpt><trkpt lat="43.424188155898484" lon="10.768720560343558"><ele>121.5</ele><time>2026-04-25T16:32:02Z</time></trkpt><trkpt lat="43.424274588442316" lon="10.768601638426201"><ele>121.0</ele><time>2026-04-25T16:32:03Z</time></trkpt><trkpt lat="43.42436298420426" lon="10.768477875251934"><ele>122.0</ele><time>2026-04-25T16:32:04Z</time></trkpt><trkpt lat="43.424457380398685" lon="10.768348036856603"><ele>123.0</ele><time>2026-04-25T16:32:05Z</time></trkpt><trkpt lat="43.424557999255775" lon="10.768211132284087"><ele>124.0</ele><time>2026-04-25T16:32:06Z</time></trkpt><trkpt lat="43.42466638180762" lon="10.768081659597833"><ele>125.0</ele><time>2026-04-25T16:32:07Z</time></trkpt><trkpt lat="43.424786235825756" lon="10.767968993769495"><ele>125.0</ele><time>2026-04-25T16:32:08Z</time></trkpt><trkpt lat="43.42489905135008" lon="10.767855751992299"><ele>125.0</ele><time>2026-04-25T16:32:09Z</time></trkpt><trkpt lat="43.42499537395924" lon="10.767725017260911"><ele>125.0</ele><time>2026-04-25T16:32:10Z</time></trkpt><trkpt lat="43.425076583811155" lon="10.767574979508115"><ele>125.0</ele><time>2026-04-25T16:32:11Z</time></trkpt><trkpt lat="43.425144894075785" lon="10.767411986387643"><ele>126.0</ele><time>2026-04-25T16:32:12Z</time></trkpt><trkpt lat="43.42520797791328" lon="10.767244797523762"><ele>127.0</ele><time>2026-04-25T16:32:13Z</time></trkpt><trkpt lat="43.42527187724156" lon="10.767072556781407"><ele>128.0</ele><time>2026-04-25T16:32:14Z</time></trkpt><trkpt lat="43.425336079652595" lon="10.766900893044044"><ele>129.0</ele><time>2026-04-25T16:32:15Z</time></trkpt><trkpt lat="43.425402787326476" lon="10.766731395308003"><ele>129.0</ele><time>2026-04-25T16:32:16Z</time></trkpt><trkpt lat="43.425469131370726" lon="10.766556241938401"><ele>129.0</ele><time>2026-04-25T16:32:17Z</time></trkpt><trkpt lat="43.42553741193665" lon="10.76638773630695"><ele>129.0</ele><time>2026-04-25T16:32:18Z</time></trkpt><trkpt lat="43.42559798881727" lon="10.766222991566467"><ele>129.0</ele><time>2026-04-25T16:32:19Z</time></trkpt><trkpt lat="43.42566173997909" lon="10.766077962387875"><ele>130.75</ele><time>2026-04-25T16:32:20Z</time></trkpt><trkpt lat="43.42573316127841" lon="10.765943562393218"><ele>132.5</ele><time>2026-04-25T16:32:21Z</time></trkpt><trkpt lat="43.42582063832155" lon="10.765822270455317"><ele>134.25</ele><time>2026-04-25T16:32:22Z</time></trkpt><trkpt lat="43.425901446987076" lon="10.76570229795362"><ele>136.0</ele><time>2026-04-25T16:32:23Z</time></trkpt><trkpt lat="43.42598527865411" lon="10.765612226336385"><ele>136.0</ele><time>2026-04-25T16:32:24Z</time></trkpt><trkpt lat="43.42604748035316" lon="10.765520629794423"><ele>136.0</ele><time>2026-04-25T16:32:25Z</time></trkpt><trkpt lat="43.4260964747296" lon="10.765400864118368"><ele>136.0</ele><time>2026-04-25T16:32:26Z</time></trkpt><trkpt lat="43.42612849745495" lon="10.76526592434305"><ele>136.0</ele><time>2026-04-25T16:32:27Z</time></trkpt><trkpt lat="43.42613988579542" lon="10.765116339260773"><ele>136.0</ele><time>2026-04-25T16:32:28Z</time></trkpt><trkpt lat="43.42612901949988" lon="10.764964839074906"><ele>136.0</ele><time>2026-04-25T16:32:29Z</time></trkpt><trkpt lat="43.426119483578226" lon="10.764817021585525"><ele>136.0</ele><time>2026-04-25T16:32:30Z</time></trkpt><trkpt lat="43.42612568954159" lon="10.76466696060072"><ele>136.0</ele><time>2026-04-25T16:32:31Z</time></trkpt><trkpt lat="43.42614880933944" lon="10.764543017474981"><ele>136.0</ele><time>2026-04-25T16:32:32Z</time></trkpt><trkpt lat="43.426207947341666" lon="10.764410328729271"><ele>136.0</ele><time>2026-04-25T16:32:33Z</time></trkpt><trkpt lat="43.42628613381351" lon="10.76430597419242"><ele>138.4</ele><time>2026-04-25T16:32:34Z</time></trkpt><trkpt lat="43.426369981097636" lon="10.764232794935342"><ele>140.8</ele><time>2026-04-25T16:32:35Z</time></trkpt><trkpt lat="43.42645811583215" lon="10.76418324686759"><ele>143.20000000000002</ele><time>2026-04-25T16:32:36Z</time></trkpt><trkpt lat="43.42652284938662" lon="10.764125297342842"><ele>145.6</ele><time>2026-04-25T16:32:37Z</time></trkpt><trkpt lat="43.42658988785997" lon="10.764017965042575"><ele>148.0</ele><time>2026-04-25T16:32:38Z</time></trkpt><trkpt lat="43.42660257682809" lon="10.763869032008262"><ele>148.0</ele><time>2026-04-25T16:32:39Z</time></trkpt><trkpt lat="43.42661152394431" lon="10.763706661787504"><ele>148.0</ele><time>2026-04-25T16:32:40Z</time></trkpt><trkpt lat="43.42663263651497" lon="10.763556860930414"><ele>148.0</ele><time>2026-04-25T16:32:41Z</time></trkpt><trkpt lat="43.42666867880113" lon="10.763416645916063"><ele>148.0</ele><time>2026-04-25T16:32:42Z</time></trkpt><trkpt lat="43.426732782377094" lon="10.763302647289606"><ele>148.0</ele><time>2026-04-25T16:32:43Z</time></trkpt><trkpt lat="43.42681246464132" lon="10.763203961472719"><ele>147.25</ele><time>2026-04-25T16:32:44Z</time></trkpt><trkpt lat="43.426911169891895" lon="10.763125462190983"><ele>146.5</ele><time>2026-04-25T16:32:45Z</time></trkpt><trkpt lat="43.42702070157193" lon="10.76306744394615"><ele>145.75</ele><time>2026-04-25T16:32:46Z</time></trkpt><trkpt lat="43.42712561276143" lon="10.763012292459749"><ele>145.0</ele><time>2026-04-25T16:32:47Z</time></trkpt><trkpt lat="43.42723247369617" lon="10.762961414229732"><ele>146.8</ele><time>2026-04-25T16:32:48Z</time></trkpt><trkpt lat="43.42731804521606" lon="10.762915436985518"><ele>148.6</ele><time>2026-04-25T16:32:49Z</time></trkpt><trkpt lat="43.42739527424006" lon="10.762832150381122"><ele>150.4</ele><time>2026-04-25T16:32:50Z</time></trkpt><trkpt lat="43.42745184268819" lon="10.762722012214335"><ele>152.2</ele><time>2026-04-25T16:32:51Z</time></trkpt><trkpt lat="43.42751226331098" lon="10.7626019915803"><ele>154.0</ele><time>2026-04-25T16:32:52Z</time></trkpt><trkpt lat="43.42749934553579" lon="10.762453707903088"><ele>154.0</ele><time>2026-04-25T16:32:53Z</time></trkpt><trkpt lat="43.42748233591947" lon="10.76230640980531"><ele>154.0</ele><time>2026-04-25T16:32:54Z</time></trkpt><trkpt lat="43.427472515706654" lon="10.76214182563576"><ele>154.0</ele><time>2026-04-25T16:32:55Z</time></trkpt><trkpt lat="43.42746345722513" lon="10.761973288276106"><ele>154.0</ele><time>2026-04-25T16:32:56Z</time></trkpt><trkpt lat="43.42747208137368" lon="10.761809156311848"><ele>153.75</ele><time>2026-04-25T16:32:57Z</time></trkpt><trkpt lat="43.42750217627071" lon="10.761646513091883"><ele>153.5</ele><time>2026-04-25T16:32:58Z</time></trkpt><trkpt lat="43.42755065651431" lon="10.76149606372379"><ele>153.25</ele><time>2026-04-25T16:32:59Z</time></trkpt><trkpt lat="43.427623555104475" lon="10.761346752871905"><ele>153.0</ele><time>2026-04-25T16:33:00Z</time></trkpt><trkpt lat="43.42769597235248" lon="10.761205957263547"><ele>153.0</ele><time>2026-04-25T16:33:01Z</time></trkpt><trkpt lat="43.42776844523078" lon="10.761056705020255"><ele>153.0</ele><time>2026-04-25T16:33:02Z</time></trkpt><trkpt lat="43.42783624011947" lon="10.760894090444598"><ele>153.0</ele><time>2026-04-25T16:33:03Z</time></trkpt><trkpt lat="43.42790099879738" lon="10.760745333915951"><ele>153.0</ele><time>2026-04-25T16:33:04Z</time></trkpt><trkpt lat="43.427950712532564" lon="10.760601492843332"><ele>154.0</ele><time>2026-04-25T16:33:05Z</time></trkpt><trkpt lat="43.42800290244942" lon="10.76047949004275"><ele>155.0</ele><time>2026-04-25T16:33:06Z</time></trkpt><trkpt lat="43.42807386649667" lon="10.760392778492417"><ele>156.0</ele><time>2026-04-25T16:33:07Z</time></trkpt><trkpt lat="43.428159286870546" lon="10.76033835771522"><ele>157.0</ele><time>2026-04-25T16:33:08Z</time></trkpt><trkpt lat="43.42826531149328" lon="10.760308436101932"><ele>158.0</ele><time>2026-04-25T16:33:09Z</time></trkpt><trkpt lat="43.42837271053595" lon="10.760277577554058"><ele>158.0</ele><time>2026-04-25T16:33:10Z</time></trkpt><trkpt lat="43.42847338490466" lon="10.760236474210613"><ele>158.0</ele><time>2026-04-25T16:33:11Z</time></trkpt><trkpt lat="43.42857964613658" lon="10.760156533188091"><ele>158.0</ele><time>2026-04-25T16:33:12Z</time></trkpt><trkpt lat="43.42867846217087" lon="10.76006312524096"><ele>158.0</ele><time>2026-04-25T16:33:13Z</time></trkpt><trkpt lat="43.42877267380524" lon="10.759948223046676"><ele>156.5</ele><time>2026-04-25T16:33:14Z</time></trkpt><trkpt lat="43.4288718680268" lon="10.759819163569755"><ele>155.0</ele><time>2026-04-25T16:33:15Z</time></trkpt><trkpt lat="43.428967216819196" lon="10.759706147234828"><ele>153.5</ele><time>2026-04-25T16:33:16Z</time></trkpt><trkpt lat="43.42907601130329" lon="10.759609195541335"><ele>152.0</ele><time>2026-04-25T16:33:17Z</time></trkpt><trkpt lat="43.42918796856421" lon="10.759537502099091"><ele>152.0</ele><time>2026-04-25T16:33:18Z</time></trkpt><trkpt lat="43.429307723781754" lon="10.759507696237236"><ele>152.0</ele><time>2026-04-25T16:33:19Z</time></trkpt><trkpt lat="43.429430128470685" lon="10.759506910574176"><ele>152.0</ele><time>2026-04-25T16:33:20Z</time></trkpt><trkpt lat="43.42955822193165" lon="10.75953653957791"><ele>152.0</ele><time>2026-04-25T16:33:21Z</time></trkpt><trkpt lat="43.429682684168334" lon="10.759595091628942"><ele>150.75</ele><time>2026-04-25T16:33:22Z</time></trkpt><trkpt lat="43.42981120824315" lon="10.75966757615614"><ele>149.5</ele><time>2026-04-25T16:33:23Z</time></trkpt><trkpt lat="43.42993521874576" lon="10.759716851542024"><ele>148.25</ele><time>2026-04-25T16:33:24Z</time></trkpt><trkpt lat="43.43003907230944" lon="10.75977295951269"><ele>147.0</ele><time>2026-04-25T16:33:25Z</time></trkpt><trkpt lat="43.43015627421888" lon="10.75980834972482"><ele>147.0</ele><time>2026-04-25T16:33:26Z</time></trkpt><trkpt lat="43.430270623213616" lon="10.759824806301863"><ele>147.0</ele><time>2026-04-25T16:33:27Z</time></trkpt><trkpt lat="43.43035269190882" lon="10.759823813656183"><ele>147.0</ele><time>2026-04-25T16:33:28Z</time></trkpt><trkpt lat="43.43042195578111" lon="10.759815040234392"><ele>147.0</ele><time>2026-04-25T16:33:29Z</time></trkpt><trkpt lat="43.430497537655896" lon="10.759807240869684"><ele>147.0</ele><time>2026-04-25T16:33:32Z</time></trkpt><trkpt lat="43.43057376595714" lon="10.759786662877513"><ele>147.0</ele><time>2026-04-25T16:35:59Z</time></trkpt><trkpt lat="43.430656694838426" lon="10.759730140760059"><ele>147.28571428571428</ele><time>2026-04-25T16:36:01Z</time></trkpt><trkpt lat="43.430719207982094" lon="10.759714655479566"><ele>147.57142857142856</ele><time>2026-04-25T16:36:02Z</time></trkpt><trkpt lat="43.43079153795522" lon="10.759697510705985"><ele>147.85714285714286</ele><time>2026-04-25T16:36:03Z</time></trkpt><trkpt lat="43.43086759140066" lon="10.759675830157613"><ele>148.14285714285714</ele><time>2026-04-25T16:36:04Z</time></trkpt><trkpt lat="43.43093321038693" lon="10.759655227128535"><ele>148.42857142857142</ele><time>2026-04-25T16:36:05Z</time></trkpt><trkpt lat="43.431001245528044" lon="10.759631355372898"><ele>148.71428571428572</ele><time>2026-04-25T16:36:06Z</time></trkpt><trkpt lat="43.43107944192851" lon="10.75960453243774"><ele>149.0</ele><time>2026-04-25T16:36:07Z</time></trkpt><trkpt lat="43.431162435350174" lon="10.759579587194272"><ele>149.0</ele><time>2026-04-25T16:36:08Z</time></trkpt><trkpt lat="43.43124888383818" lon="10.75955312197819"><ele>149.0</ele><time>2026-04-25T16:36:09Z</time></trkpt><trkpt lat="43.431341658831236" lon="10.759522331700884"><ele>149.0</ele><time>2026-04-25T16:36:10Z</time></trkpt><trkpt lat="43.43144140428174" lon="10.759492735042448"><ele>149.0</ele><time>2026-04-25T16:36:11Z</time></trkpt><trkpt lat="43.431549007472825" lon="10.759463274268853"><ele>149.0</ele><time>2026-04-25T16:36:12Z</time></trkpt><trkpt lat="43.431655605086306" lon="10.75943135747387"><ele>149.4</ele><time>2026-04-25T16:36:13Z</time></trkpt><trkpt lat="43.43175820390877" lon="10.759400169732421"><ele>149.8</ele><time>2026-04-25T16:36:14Z</time></trkpt><trkpt lat="43.43186569744974" lon="10.759372554492215"><ele>150.2</ele><time>2026-04-25T16:36:15Z</time></trkpt><trkpt lat="43.431974409488255" lon="10.759343177109379"><ele>150.6</ele><time>2026-04-25T16:36:16Z</time></trkpt><trkpt lat="43.432082727426604" lon="10.759319477739515"><ele>151.0</ele><time>2026-04-25T16:36:17Z</time></trkpt><trkpt lat="43.43219386940026" lon="10.759306561509169"><ele>150.2</ele><time>2026-04-25T16:36:18Z</time></trkpt><trkpt lat="43.43230178735621" lon="10.759312939978466"><ele>149.39999999999998</ele><time>2026-04-25T16:36:19Z</time></trkpt><trkpt lat="43.432411125364084" lon="10.759319154215826"><ele>148.6</ele><time>2026-04-25T16:36:20Z</time></trkpt><trkpt lat="43.432523355222365" lon="10.759329814570597"><ele>147.79999999999998</ele><time>2026-04-25T16:36:21Z</time></trkpt><trkpt lat="43.43263866137321" lon="10.759347978558903"><ele>147.0</ele><time>2026-04-25T16:36:22Z</time></trkpt><trkpt lat="43.4327563457894" lon="10.759374131404899"><ele>147.0</ele><time>2026-04-25T16:36:23Z</time></trkpt><trkpt lat="43.43287535091002" lon="10.759404450012399"><ele>147.0</ele><time>2026-04-25T16:36:24Z</time></trkpt><trkpt lat="43.43299872894904" lon="10.759441736725773"><ele>147.0</ele><time>2026-04-25T16:36:25Z</time></trkpt><trkpt lat="43.43312835771856" lon="10.75948436105498"><ele>147.0</ele><time>2026-04-25T16:36:26Z</time></trkpt><trkpt lat="43.43325813258879" lon="10.759527389078803"><ele>145.25</ele><time>2026-04-25T16:36:27Z</time></trkpt><trkpt lat="43.43337750249053" lon="10.759572178718178"><ele>143.5</ele><time>2026-04-25T16:36:28Z</time></trkpt><trkpt lat="43.43349189608853" lon="10.759625398486108"><ele>141.75</ele><time>2026-04-25T16:36:29Z</time></trkpt><trkpt lat="43.43360519784753" lon="10.759699723626568"><ele>140.0</ele><time>2026-04-25T16:36:30Z</time></trkpt><trkpt lat="43.43371958388764" lon="10.759800417880749"><ele>138.0</ele><time>2026-04-25T16:36:31Z</time></trkpt><trkpt lat="43.433837879994094" lon="10.759920881206174"><ele>136.0</ele><time>2026-04-25T16:36:32Z</time></trkpt><trkpt lat="43.43395621681848" lon="10.760055713589821"><ele>134.0</ele><time>2026-04-25T16:36:33Z</time></trkpt><trkpt lat="43.434074236862614" lon="10.760194141519188"><ele>134.75</ele><time>2026-04-25T16:36:34Z</time></trkpt><trkpt lat="43.434185730588204" lon="10.760320535979966"><ele>135.5</ele><time>2026-04-25T16:36:35Z</time></trkpt><trkpt lat="43.43428971637867" lon="10.76043912877963"><ele>136.25</ele><time>2026-04-25T16:36:36Z</time></trkpt><trkpt lat="43.43438827014445" lon="10.76055569827052"><ele>137.0</ele><time>2026-04-25T16:36:37Z</time></trkpt><trkpt lat="43.43448062654633" lon="10.76067139166931"><ele>137.0</ele><time>2026-04-25T16:36:38Z</time></trkpt><trkpt lat="43.43456586339041" lon="10.760793395810028"><ele>137.0</ele><time>2026-04-25T16:36:39Z</time></trkpt><trkpt lat="43.43464454029231" lon="10.76093108677536"><ele>137.0</ele><time>2026-04-25T16:36:40Z</time></trkpt><trkpt lat="43.43472015212956" lon="10.761092833310558"><ele>137.0</ele><time>2026-04-25T16:36:41Z</time></trkpt><trkpt lat="43.434792347920855" lon="10.761268110757769"><ele>135.33333333333331</ele><time>2026-04-25T16:36:42Z</time></trkpt><trkpt lat="43.43486517865733" lon="10.761451629280037"><ele>133.66666666666666</ele><time>2026-04-25T16:36:43Z</time></trkpt><trkpt lat="43.43493618768073" lon="10.761642299235609"><ele>132.0</ele><time>2026-04-25T16:36:44Z</time></trkpt><trkpt lat="43.43501114278263" lon="10.761834895227235"><ele>132.33333333333334</ele><time>2026-04-25T16:36:45Z</time></trkpt><trkpt lat="43.43508248493392" lon="10.762013318765927"><ele>132.66666666666669</ele><time>2026-04-25T16:36:46Z</time></trkpt><trkpt lat="43.43515082438993" lon="10.762199552860963"><ele>133.0</ele><time>2026-04-25T16:36:47Z</time></trkpt><trkpt lat="43.43522380456179" lon="10.762389262538907"><ele>133.0</ele><time>2026-04-25T16:36:48Z</time></trkpt><trkpt lat="43.435301317355204" lon="10.76258526782015"><ele>133.0</ele><time>2026-04-25T16:36:49Z</time></trkpt><trkpt lat="43.43538047858531" lon="10.762786509898275"><ele>133.0</ele><time>2026-04-25T16:36:50Z</time></trkpt><trkpt lat="43.43545809931877" lon="10.762991467993244"><ele>132.33333333333334</ele><time>2026-04-25T16:36:51Z</time></trkpt><trkpt lat="43.43553628477398" lon="10.763198760093845"><ele>131.66666666666666</ele><time>2026-04-25T16:36:52Z</time></trkpt><trkpt lat="43.43562105819482" lon="10.763410932676159"><ele>131.0</ele><time>2026-04-25T16:36:53Z</time></trkpt><trkpt lat="43.435706450072885" lon="10.763626325927955"><ele>131.0</ele><time>2026-04-25T16:36:54Z</time></trkpt><trkpt lat="43.43578895269685" lon="10.76384140943892"><ele>131.0</ele><time>2026-04-25T16:36:55Z</time></trkpt><trkpt lat="43.43587216243504" lon="10.764063801322461"><ele>131.0</ele><time>2026-04-25T16:36:56Z</time></trkpt><trkpt lat="43.43595795678458" lon="10.764291345103087"><ele>131.66666666666666</ele><time>2026-04-25T16:36:57Z</time></trkpt><trkpt lat="43.43604397662122" lon="10.764516611304403"><ele>132.33333333333334</ele><time>2026-04-25T16:36:58Z</time></trkpt><trkpt lat="43.4361287966356" lon="10.764735389277405"><ele>133.0</ele><time>2026-04-25T16:36:59Z</time></trkpt><trkpt lat="43.43620981519017" lon="10.764957566511798"><ele>133.0</ele><time>2026-04-25T16:37:00Z</time></trkpt><trkpt lat="43.43629172851205" lon="10.765174445153765"><ele>133.0</ele><time>2026-04-25T16:37:01Z</time></trkpt><trkpt lat="43.43636780562139" lon="10.765379867120641"><ele>133.0</ele><time>2026-04-25T16:37:02Z</time></trkpt><trkpt lat="43.43644562360972" lon="10.765583937202468"><ele>130.66666666666669</ele><time>2026-04-25T16:37:03Z</time></trkpt><trkpt lat="43.43652419613367" lon="10.765784893541333"><ele>128.33333333333334</ele><time>2026-04-25T16:37:04Z</time></trkpt><trkpt lat="43.436601526159414" lon="10.765984047507988"><ele>126.0</ele><time>2026-04-25T16:37:05Z</time></trkpt><trkpt lat="43.436677101188934" lon="10.766181687995777"><ele>126.0</ele><time>2026-04-25T16:37:06Z</time></trkpt><trkpt lat="43.43675399242429" lon="10.766377336333932"><ele>126.0</ele><time>2026-04-25T16:37:07Z</time></trkpt><trkpt lat="43.43683362436697" lon="10.766567649713096"><ele>126.0</ele><time>2026-04-25T16:37:08Z</time></trkpt><trkpt lat="43.43692271336668" lon="10.766750877187485"><ele>125.33333333333334</ele><time>2026-04-25T16:37:09Z</time></trkpt><trkpt lat="43.43702764958126" lon="10.766930288250633"><ele>124.66666666666667</ele><time>2026-04-25T16:37:10Z</time></trkpt><trkpt lat="43.43714079675476" lon="10.767102436573579"><ele>124.0</ele><time>2026-04-25T16:37:11Z</time></trkpt><trkpt lat="43.437258253235036" lon="10.767267475731185"><ele>124.0</ele><time>2026-04-25T16:37:12Z</time></trkpt><trkpt lat="43.43737663433351" lon="10.767425150982806"><ele>124.0</ele><time>2026-04-25T16:37:13Z</time></trkpt><trkpt lat="43.43749456175228" lon="10.767583632001333"><ele>124.0</ele><time>2026-04-25T16:37:14Z</time></trkpt><trkpt lat="43.43761409704579" lon="10.767739970988595"><ele>124.33333333333334</ele><time>2026-04-25T16:37:15Z</time></trkpt><trkpt lat="43.43773681526711" lon="10.767899174151516"><ele>124.66666666666666</ele><time>2026-04-25T16:37:16Z</time></trkpt><trkpt lat="43.43785936789727" lon="10.7680608670372"><ele>125.0</ele><time>2026-04-25T16:37:17Z</time></trkpt><trkpt lat="43.43798446067603" lon="10.768227449456585"><ele>124.33333333333333</ele><time>2026-04-25T16:37:18Z</time></trkpt><trkpt lat="43.43810959142682" lon="10.768397811480272"><ele>123.66666666666666</ele><time>2026-04-25T16:37:19Z</time></trkpt><trkpt lat="43.438238978332585" lon="10.76857004114533"><ele>123.0</ele><time>2026-04-25T16:37:20Z</time></trkpt><trkpt lat="43.43836991771681" lon="10.768745853417531"><ele>123.0</ele><time>2026-04-25T16:37:21Z</time></trkpt><trkpt lat="43.43850412291567" lon="10.768922455638696"><ele>123.0</ele><time>2026-04-25T16:37:22Z</time></trkpt><trkpt lat="43.43864020735428" lon="10.769100124802872"><ele>123.0</ele><time>2026-04-25T16:37:23Z</time></trkpt><trkpt lat="43.438775529506344" lon="10.769281466257873"><ele>122.33333333333334</ele><time>2026-04-25T16:37:24Z</time></trkpt><trkpt lat="43.43890957869352" lon="10.769463038412413"><ele>121.66666666666667</ele><time>2026-04-25T16:37:25Z</time></trkpt><trkpt lat="43.43904415019782" lon="10.769643189533092"><ele>121.0</ele><time>2026-04-25T16:37:26Z</time></trkpt><trkpt lat="43.439176697664855" lon="10.769823424718375"><ele>121.0</ele><time>2026-04-25T16:37:27Z</time></trkpt><trkpt lat="43.43930880523283" lon="10.770000615836688"><ele>121.0</ele><time>2026-04-25T16:37:28Z</time></trkpt><trkpt lat="43.43944035240705" lon="10.770178031009896"><ele>121.0</ele><time>2026-04-25T16:37:29Z</time></trkpt><trkpt lat="43.439570019311944" lon="10.770354561206021"><ele>120.33333333333334</ele><time>2026-04-25T16:37:30Z</time></trkpt><trkpt lat="43.43969576702317" lon="10.770523407758896"><ele>119.66666666666666</ele><time>2026-04-25T16:37:31Z</time></trkpt><trkpt lat="43.43981978823751" lon="10.770692426922928"><ele>119.0</ele><time>2026-04-25T16:37:32Z</time></trkpt><trkpt lat="43.43994404834061" lon="10.77085921507062"><ele>119.0</ele><time>2026-04-25T16:37:33Z</time></trkpt><trkpt lat="43.44006248942164" lon="10.771018874874924"><ele>119.0</ele><time>2026-04-25T16:37:34Z</time></trkpt><trkpt lat="43.44017838143066" lon="10.771166569046157"><ele>119.0</ele><time>2026-04-25T16:37:35Z</time></trkpt><trkpt lat="43.440282578455765" lon="10.771319441572203"><ele>118.66666666666666</ele><time>2026-04-25T16:37:36Z</time></trkpt><trkpt lat="43.44040350904305" lon="10.771441067409668"><ele>118.33333333333334</ele><time>2026-04-25T16:37:37Z</time></trkpt><trkpt lat="43.440553468930936" lon="10.771514765638825"><ele>118.0</ele><time>2026-04-25T16:37:38Z</time></trkpt><trkpt lat="43.4407064927732" lon="10.771591613642217"><ele>118.0</ele><time>2026-04-25T16:37:39Z</time></trkpt><trkpt lat="43.44086982409877" lon="10.771654308846635"><ele>118.0</ele><time>2026-04-25T16:37:40Z</time></trkpt><trkpt lat="43.44103472166859" lon="10.771719891106725"><ele>118.0</ele><time>2026-04-25T16:37:41Z</time></trkpt><trkpt lat="43.44120259209833" lon="10.771789229329212"><ele>118.66666666666667</ele><time>2026-04-25T16:37:42Z</time></trkpt><trkpt lat="43.44137024071633" lon="10.77185689437858"><ele>119.33333333333334</ele><time>2026-04-25T16:37:43Z</time></trkpt><trkpt lat="43.4415379717376" lon="10.771923898195366"><ele>120.0</ele><time>2026-04-25T16:37:44Z</time></trkpt><trkpt lat="43.441709105841184" lon="10.771993145576886"><ele>120.0</ele><time>2026-04-25T16:37:45Z</time></trkpt><trkpt lat="43.441880357307305" lon="10.77206255182881"><ele>120.0</ele><time>2026-04-25T16:37:46Z</time></trkpt><trkpt lat="43.442052530664526" lon="10.77213881856977"><ele>120.0</ele><time>2026-04-25T16:37:47Z</time></trkpt><trkpt lat="43.44221661026686" lon="10.77221749999194"><ele>118.33333333333334</ele><time>2026-04-25T16:37:48Z</time></trkpt><trkpt lat="43.442386687470396" lon="10.772288916258848"><ele>116.66666666666667</ele><time>2026-04-25T16:37:49Z</time></trkpt><trkpt lat="43.442545357102716" lon="10.772350126307103"><ele>115.0</ele><time>2026-04-25T16:37:50Z</time></trkpt><trkpt lat="43.442712583545934" lon="10.772420751353296"><ele>115.0</ele><time>2026-04-25T16:37:51Z</time></trkpt><trkpt lat="43.44286435527257" lon="10.772485364396482"><ele>115.0</ele><time>2026-04-25T16:37:52Z</time></trkpt><trkpt lat="43.44302029046995" lon="10.772548305643287"><ele>115.0</ele><time>2026-04-25T16:37:53Z</time></trkpt><trkpt lat="43.44317969791054" lon="10.772605343781361"><ele>114.66666666666667</ele><time>2026-04-25T16:37:54Z</time></trkpt><trkpt lat="43.4433262922404" lon="10.772664613892095"><ele>114.33333333333334</ele><time>2026-04-25T16:37:55Z</time></trkpt><trkpt lat="43.44347742877512" lon="10.772720115844415"><ele>114.0</ele><time>2026-04-25T16:37:56Z</time></trkpt><trkpt lat="43.44363802353227" lon="10.772742935919696"><ele>111.66666666666666</ele><time>2026-04-25T16:37:57Z</time></trkpt><trkpt lat="43.44380351728834" lon="10.772746921324014"><ele>109.33333333333333</ele><time>2026-04-25T16:37:58Z</time></trkpt><trkpt lat="43.443972243991944" lon="10.772735598031396"><ele>107.0</ele><time>2026-04-25T16:37:59Z</time></trkpt><trkpt lat="43.44414487617049" lon="10.772726744415547"><ele>107.0</ele><time>2026-04-25T16:38:00Z</time></trkpt><trkpt lat="43.44431884617693" lon="10.772715903699645"><ele>107.0</ele><time>2026-04-25T16:38:01Z</time></trkpt><trkpt lat="43.44449390228158" lon="10.772700225113038"><ele>107.0</ele><time>2026-04-25T16:38:02Z</time></trkpt><trkpt lat="43.44467004492162" lon="10.772685509273098"><ele>108.33333333333333</ele><time>2026-04-25T16:38:03Z</time></trkpt><trkpt lat="43.44484947178573" lon="10.772671822719433"><ele>109.66666666666666</ele><time>2026-04-25T16:38:04Z</time></trkpt><trkpt lat="43.445030586125945" lon="10.772659112571858"><ele>111.0</ele><time>2026-04-25T16:38:05Z</time></trkpt><trkpt lat="43.44521216606923" lon="10.77264448469566"><ele>111.0</ele><time>2026-04-25T16:38:06Z</time></trkpt><trkpt lat="43.44539455981203" lon="10.77263303064596"><ele>111.0</ele><time>2026-04-25T16:38:07Z</time></trkpt><trkpt lat="43.4455779684123" lon="10.772618646195635"><ele>111.0</ele><time>2026-04-25T16:38:08Z</time></trkpt><trkpt lat="43.445760282507045" lon="10.772606797972514"><ele>110.33333333333334</ele><time>2026-04-25T16:38:09Z</time></trkpt><trkpt lat="43.44594687686048" lon="10.772590593984916"><ele>109.66666666666667</ele><time>2026-04-25T16:38:10Z</time></trkpt><trkpt lat="43.446134550185185" lon="10.77256769987698"><ele>109.0</ele><time>2026-04-25T16:38:11Z</time></trkpt><trkpt lat="43.44632373410352" lon="10.772538540031093"><ele>108.66666666666667</ele><time>2026-04-25T16:38:12Z</time></trkpt><trkpt lat="43.44651504105893" lon="10.772510739501012"><ele>108.33333333333334</ele><time>2026-04-25T16:38:13Z</time></trkpt><trkpt lat="43.446702939088865" lon="10.772483084387"><ele>108.0</ele><time>2026-04-25T16:38:14Z</time></trkpt><trkpt lat="43.44688747759354" lon="10.77245523972137"><ele>108.0</ele><time>2026-04-25T16:38:15Z</time></trkpt><trkpt lat="43.44707246611914" lon="10.77242264306201"><ele>108.0</ele><time>2026-04-25T16:38:16Z</time></trkpt><trkpt lat="43.44725248150983" lon="10.772394064053488"><ele>108.0</ele><time>2026-04-25T16:38:17Z</time></trkpt><trkpt lat="43.447432808572216" lon="10.772362379150426"><ele>108.33333333333334</ele><time>2026-04-25T16:38:18Z</time></trkpt><trkpt lat="43.44760915436151" lon="10.772333727130265"><ele>108.66666666666667</ele><time>2026-04-25T16:38:19Z</time></trkpt><trkpt lat="43.447781910798575" lon="10.772308028993937"><ele>109.0</ele><time>2026-04-25T16:38:20Z</time></trkpt><trkpt lat="43.447948625592964" lon="10.772281536567577"><ele>109.0</ele><time>2026-04-25T16:38:21Z</time></trkpt><trkpt lat="43.44810605946546" lon="10.77225503948814"><ele>109.0</ele><time>2026-04-25T16:38:22Z</time></trkpt><trkpt lat="43.448260240291226" lon="10.772233240594192"><ele>109.0</ele><time>2026-04-25T16:38:23Z</time></trkpt><trkpt lat="43.448413564410444" lon="10.772216694351325"><ele>109.0</ele><time>2026-04-25T16:38:24Z</time></trkpt><trkpt lat="43.44856964059915" lon="10.772207063124643"><ele>109.0</ele><time>2026-04-25T16:38:25Z</time></trkpt><trkpt lat="43.44872630067782" lon="10.772208907968452"><ele>109.0</ele><time>2026-04-25T16:38:26Z</time></trkpt><trkpt lat="43.44888819093228" lon="10.772224184324175"><ele>106.66666666666667</ele><time>2026-04-25T16:38:27Z</time></trkpt><trkpt lat="43.449053075124404" lon="10.77225000943875"><ele>104.33333333333334</ele><time>2026-04-25T16:38:28Z</time></trkpt><trkpt lat="43.44920544260223" lon="10.77227698227363"><ele>102.0</ele><time>2026-04-25T16:38:29Z</time></trkpt><trkpt lat="43.4493460451827" lon="10.772299739223392"><ele>102.0</ele><time>2026-04-25T16:38:30Z</time></trkpt><trkpt lat="43.44947301483947" lon="10.772319705787591"><ele>102.0</ele><time>2026-04-25T16:38:31Z</time></trkpt><trkpt lat="43.44958123525705" lon="10.772334921906877"><ele>102.0</ele><time>2026-04-25T16:38:32Z</time></trkpt><trkpt lat="43.44967736615343" lon="10.772332568758491"><ele>102.0</ele><time>2026-04-25T16:38:33Z</time></trkpt><trkpt lat="43.44976693700587" lon="10.772307823796408"><ele>102.0</ele><time>2026-04-25T16:38:34Z</time></trkpt><trkpt lat="43.449845795811065" lon="10.77225337000707"><ele>101.39999999999999</ele><time>2026-04-25T16:38:35Z</time></trkpt><trkpt lat="43.4499104621121" lon="10.772164048101477"><ele>100.8</ele><time>2026-04-25T16:38:36Z</time></trkpt><trkpt lat="43.44995701575413" lon="10.772050533649937"><ele>100.2</ele><time>2026-04-25T16:38:37Z</time></trkpt><trkpt lat="43.44997833984715" lon="10.771912366506758"><ele>99.6</ele><time>2026-04-25T16:38:38Z</time></trkpt><trkpt lat="43.44997904465558" lon="10.771761496307473"><ele>99.0</ele><time>2026-04-25T16:38:39Z</time></trkpt><trkpt lat="43.44997659809731" lon="10.771597674164811"><ele>99.0</ele><time>2026-04-25T16:38:40Z</time></trkpt><trkpt lat="43.44997379066722" lon="10.77142781631602"><ele>99.0</ele><time>2026-04-25T16:38:41Z</time></trkpt><trkpt lat="43.44996992662059" lon="10.771264765071933"><ele>99.0</ele><time>2026-04-25T16:38:42Z</time></trkpt><trkpt lat="43.4499630275089" lon="10.771113498888964"><ele>99.0</ele><time>2026-04-25T16:38:43Z</time></trkpt><trkpt lat="43.449962670041764" lon="10.770965909608714"><ele>99.5</ele><time>2026-04-25T16:38:44Z</time></trkpt><trkpt lat="43.449989808271994" lon="10.77082566422662"><ele>100.0</ele><time>2026-04-25T16:38:45Z</time></trkpt><trkpt lat="43.45004012716256" lon="10.770693759972295"><ele>100.5</ele><time>2026-04-25T16:38:46Z</time></trkpt><trkpt lat="43.45011632917665" lon="10.770574935651661"><ele>101.0</ele><time>2026-04-25T16:38:47Z</time></trkpt><trkpt lat="43.450225646214136" lon="10.77049033279158"><ele>101.0</ele><time>2026-04-25T16:38:48Z</time></trkpt><trkpt lat="43.450341469734354" lon="10.770417172870461"><ele>101.0</ele><time>2026-04-25T16:38:49Z</time></trkpt><trkpt lat="43.45046625742397" lon="10.770354020666971"><ele>101.0</ele><time>2026-04-25T16:38:50Z</time></trkpt><trkpt lat="43.45059506707686" lon="10.770286681680561"><ele>101.0</ele><time>2026-04-25T16:38:51Z</time></trkpt><trkpt lat="43.450726343387835" lon="10.77020817506214"><ele>101.0</ele><time>2026-04-25T16:38:52Z</time></trkpt><trkpt lat="43.450858432522836" lon="10.770131453993011"><ele>101.0</ele><time>2026-04-25T16:38:53Z</time></trkpt><trkpt lat="43.45099245071165" lon="10.770057059805202"><ele>101.0</ele><time>2026-04-25T16:38:54Z</time></trkpt><trkpt lat="43.45113101782462" lon="10.769976096947184"><ele>101.0</ele><time>2026-04-25T16:38:55Z</time></trkpt><trkpt lat="43.45127526893345" lon="10.769893689925592"><ele>100.33333333333333</ele><time>2026-04-25T16:38:56Z</time></trkpt><trkpt lat="43.45142219957702" lon="10.769811691920715"><ele>99.66666666666666</ele><time>2026-04-25T16:38:57Z</time></trkpt><trkpt lat="43.45157329607597" lon="10.769726457121326"><ele>99.0</ele><time>2026-04-25T16:38:58Z</time></trkpt><trkpt lat="43.45172421994532" lon="10.769635095659515"><ele>99.0</ele><time>2026-04-25T16:38:59Z</time></trkpt><trkpt lat="43.45186563679934" lon="10.76955627834837"><ele>99.0</ele><time>2026-04-25T16:39:00Z</time></trkpt><trkpt lat="43.452005520774996" lon="10.769477246110574"><ele>99.0</ele><time>2026-04-25T16:39:01Z</time></trkpt><trkpt lat="43.45214451849484" lon="10.769403284286637"><ele>99.0</ele><time>2026-04-25T16:39:02Z</time></trkpt><trkpt lat="43.4522805790332" lon="10.769331755627837"><ele>99.0</ele><time>2026-04-25T16:39:03Z</time></trkpt><trkpt lat="43.45242163216103" lon="10.769249504566462"><ele>99.0</ele><time>2026-04-25T16:39:04Z</time></trkpt><trkpt lat="43.45255695684676" lon="10.769169165885245"><ele>99.0</ele><time>2026-04-25T16:39:05Z</time></trkpt><trkpt lat="43.45269565591414" lon="10.769091118837123"><ele>99.0</ele><time>2026-04-25T16:39:06Z</time></trkpt><trkpt lat="43.45283304192566" lon="10.769016156822035"><ele>99.0</ele><time>2026-04-25T16:39:07Z</time></trkpt><trkpt lat="43.45297286165759" lon="10.768939105700806"><ele>99.0</ele><time>2026-04-25T16:39:08Z</time></trkpt><trkpt lat="43.45311122208664" lon="10.768860016896191"><ele>99.0</ele><time>2026-04-25T16:39:09Z</time></trkpt><trkpt lat="43.45324837273413" lon="10.768780882264245"><ele>98.33333333333334</ele><time>2026-04-25T16:39:10Z</time></trkpt><trkpt lat="43.45339091725863" lon="10.768701181436883"><ele>97.66666666666667</ele><time>2026-04-25T16:39:11Z</time></trkpt><trkpt lat="43.45353786761775" lon="10.768623027087257"><ele>97.0</ele><time>2026-04-25T16:39:12Z</time></trkpt><trkpt lat="43.45368597772636" lon="10.76854263749195"><ele>96.66666666666667</ele><time>2026-04-25T16:39:13Z</time></trkpt><trkpt lat="43.453830598212825" lon="10.768461272174802"><ele>96.33333333333334</ele><time>2026-04-25T16:39:14Z</time></trkpt><trkpt lat="43.453966592160185" lon="10.768382491946442"><ele>96.0</ele><time>2026-04-25T16:39:15Z</time></trkpt><trkpt lat="43.454101995260935" lon="10.76830613763833"><ele>96.0</ele><time>2026-04-25T16:39:16Z</time></trkpt><trkpt lat="43.4542349784744" lon="10.768231022830982"><ele>96.0</ele><time>2026-04-25T16:39:17Z</time></trkpt><trkpt lat="43.45436802205947" lon="10.768150000572723"><ele>96.0</ele><time>2026-04-25T16:39:18Z</time></trkpt><trkpt lat="43.454497100346245" lon="10.768053423885906"><ele>96.0</ele><time>2026-04-25T16:39:19Z</time></trkpt><trkpt lat="43.454622056604485" lon="10.767941847936733"><ele>95.66666666666667</ele><time>2026-04-25T16:39:20Z</time></trkpt><trkpt lat="43.45473978220409" lon="10.767820060400139"><ele>95.33333333333334</ele><time>2026-04-25T16:39:21Z</time></trkpt><trkpt lat="43.45485889603631" lon="10.767691815238996"><ele>95.0</ele><time>2026-04-25T16:39:22Z</time></trkpt><trkpt lat="43.4549829526021" lon="10.767559082374603"><ele>95.0</ele><time>2026-04-25T16:39:23Z</time></trkpt><trkpt lat="43.45510744360763" lon="10.767419340038796"><ele>95.0</ele><time>2026-04-25T16:39:24Z</time></trkpt><trkpt lat="43.45523869309797" lon="10.767269870112127"><ele>95.0</ele><time>2026-04-25T16:39:25Z</time></trkpt><trkpt lat="43.45537095681692" lon="10.76711621314525"><ele>94.0</ele><time>2026-04-25T16:39:26Z</time></trkpt><trkpt lat="43.455508535483574" lon="10.766957052840223"><ele>93.0</ele><time>2026-04-25T16:39:27Z</time></trkpt><trkpt lat="43.45565183026898" lon="10.766793144390249"><ele>92.0</ele><time>2026-04-25T16:39:28Z</time></trkpt><trkpt lat="43.455797388489145" lon="10.766632527238585"><ele>92.0</ele><time>2026-04-25T16:39:29Z</time></trkpt><trkpt lat="43.45593615224016" lon="10.766479476749103"><ele>92.0</ele><time>2026-04-25T16:39:30Z</time></trkpt><trkpt lat="43.45607336358008" lon="10.766326991392015"><ele>92.0</ele><time>2026-04-25T16:39:31Z</time></trkpt><trkpt lat="43.456213769099676" lon="10.766169404195201"><ele>91.33333333333334</ele><time>2026-04-25T16:39:32Z</time></trkpt><trkpt lat="43.45635744940082" lon="10.766005140357306"><ele>90.66666666666667</ele><time>2026-04-25T16:39:33Z</time></trkpt><trkpt lat="43.45650385061724" lon="10.765840789456133"><ele>90.0</ele><time>2026-04-25T16:39:34Z</time></trkpt><trkpt lat="43.45665014569031" lon="10.765674701140252"><ele>90.0</ele><time>2026-04-25T16:39:35Z</time></trkpt><trkpt lat="43.456796166738144" lon="10.7655083575152"><ele>90.0</ele><time>2026-04-25T16:39:36Z</time></trkpt><trkpt lat="43.45694001189402" lon="10.765344064853142"><ele>90.0</ele><time>2026-04-25T16:39:37Z</time></trkpt><trkpt lat="43.4570840945404" lon="10.76517819704042"><ele>89.66666666666667</ele><time>2026-04-25T16:39:38Z</time></trkpt><trkpt lat="43.457221740398396" lon="10.765015319092926"><ele>89.33333333333334</ele><time>2026-04-25T16:39:39Z</time></trkpt><trkpt lat="43.4573655746669" lon="10.764853464156774"><ele>89.0</ele><time>2026-04-25T16:39:40Z</time></trkpt><trkpt lat="43.4575153769247" lon="10.764681724296917"><ele>89.0</ele><time>2026-04-25T16:39:41Z</time></trkpt><trkpt lat="43.457664863937495" lon="10.764514323166635"><ele>89.0</ele><time>2026-04-25T16:39:42Z</time></trkpt><trkpt lat="43.4578088408344" lon="10.764353085295019"><ele>89.0</ele><time>2026-04-25T16:39:43Z</time></trkpt><trkpt lat="43.457942347294" lon="10.764201725703096"><ele>88.5</ele><time>2026-04-25T16:39:44Z</time></trkpt><trkpt lat="43.4580686539326" lon="10.764060378388837"><ele>88.0</ele><time>2026-04-25T16:39:45Z</time></trkpt><trkpt lat="43.45818289705288" lon="10.763927098710877"><ele>87.5</ele><time>2026-04-25T16:39:46Z</time></trkpt><trkpt lat="43.45828462914166" lon="10.763804567532164"><ele>87.0</ele><time>2026-04-25T16:39:47Z</time></trkpt><trkpt lat="43.45836506438508" lon="10.763686727146652"><ele>87.0</ele><time>2026-04-25T16:39:48Z</time></trkpt><trkpt lat="43.45843084141468" lon="10.76355464663427"><ele>87.0</ele><time>2026-04-25T16:39:49Z</time></trkpt><trkpt lat="43.45848024461696" lon="10.76340191114806"><ele>87.0</ele><time>2026-04-25T16:39:50Z</time></trkpt><trkpt lat="43.458510013076875" lon="10.763230077694818"><ele>87.0</ele><time>2026-04-25T16:39:51Z</time></trkpt><trkpt lat="43.45852263196389" lon="10.763041470621275"><ele>87.75</ele><time>2026-04-25T16:39:52Z</time></trkpt><trkpt lat="43.45851988567151" lon="10.762843576375833"><ele>88.5</ele><time>2026-04-25T16:39:53Z</time></trkpt><trkpt lat="43.458515391843456" lon="10.76264989960412"><ele>89.25</ele><time>2026-04-25T16:39:54Z</time></trkpt><trkpt lat="43.45851469478783" lon="10.762464371641231"><ele>90.0</ele><time>2026-04-25T16:39:55Z</time></trkpt><trkpt lat="43.45852173557392" lon="10.7622816745146"><ele>90.25</ele><time>2026-04-25T16:39:56Z</time></trkpt><trkpt lat="43.458544898317534" lon="10.762098903008672"><ele>90.5</ele><time>2026-04-25T16:39:57Z</time></trkpt><trkpt lat="43.458585010046" lon="10.761916380053071"><ele>90.75</ele><time>2026-04-25T16:39:58Z</time></trkpt><trkpt lat="43.45863878830996" lon="10.761735710678032"><ele>91.0</ele><time>2026-04-25T16:39:59Z</time></trkpt><trkpt lat="43.45870378873197" lon="10.7615562357349"><ele>90.33333333333333</ele><time>2026-04-25T16:40:00Z</time></trkpt><trkpt lat="43.45877070442846" lon="10.76137195895881"><ele>89.66666666666667</ele><time>2026-04-25T16:40:01Z</time></trkpt><trkpt lat="43.45883386329017" lon="10.761186121224096"><ele>89.0</ele><time>2026-04-25T16:40:02Z</time></trkpt><trkpt lat="43.45889992178592" lon="10.760995757876431"><ele>88.0</ele><time>2026-04-25T16:40:03Z</time></trkpt><trkpt lat="43.45896182558427" lon="10.760818230083409"><ele>87.0</ele><time>2026-04-25T16:40:04Z</time></trkpt><trkpt lat="43.45902938098161" lon="10.76063530641736"><ele>86.0</ele><time>2026-04-25T16:40:05Z</time></trkpt><trkpt lat="43.459097778327084" lon="10.760451017025282"><ele>85.0</ele><time>2026-04-25T16:40:06Z</time></trkpt><trkpt lat="43.459164076700276" lon="10.760274973850057"><ele>85.0</ele><time>2026-04-25T16:40:07Z</time></trkpt><trkpt lat="43.45922445146198" lon="10.760113730438693"><ele>85.0</ele><time>2026-04-25T16:40:08Z</time></trkpt><trkpt lat="43.459286939193234" lon="10.759953442762148"><ele>85.0</ele><time>2026-04-25T16:40:09Z</time></trkpt><trkpt lat="43.459350562869524" lon="10.759817641343297"><ele>85.0</ele><time>2026-04-25T16:40:10Z</time></trkpt><trkpt lat="43.45942750739539" lon="10.759701099882694"><ele>85.0</ele><time>2026-04-25T16:40:11Z</time></trkpt><trkpt lat="43.45952122874359" lon="10.75960872215735"><ele>85.0</ele><time>2026-04-25T16:40:12Z</time></trkpt><trkpt lat="43.459615305440764" lon="10.759542070852904"><ele>85.0</ele><time>2026-04-25T16:40:13Z</time></trkpt><trkpt lat="43.459720188154925" lon="10.759500349642265"><ele>85.0</ele><time>2026-04-25T16:40:14Z</time></trkpt><trkpt lat="43.45983203093378" lon="10.75947776796019"><ele>85.0</ele><time>2026-04-25T16:40:15Z</time></trkpt><trkpt lat="43.459937147215285" lon="10.75948674207918"><ele>85.5</ele><time>2026-04-25T16:40:16Z</time></trkpt><trkpt lat="43.46002901711153" lon="10.75950672392965"><ele>86.0</ele><time>2026-04-25T16:40:17Z</time></trkpt><trkpt lat="43.460104258681525" lon="10.75954987426313"><ele>86.5</ele><time>2026-04-25T16:40:18Z</time></trkpt><trkpt lat="43.460174300091566" lon="10.759604626032887"><ele>87.0</ele><time>2026-04-25T16:40:19Z</time></trkpt><trkpt lat="43.46024961015469" lon="10.759679458769531"><ele>87.5</ele><time>2026-04-25T16:40:21Z</time></trkpt><trkpt lat="43.4603144069577" lon="10.75973470181071"><ele>88.0</ele><time>2026-04-25T16:41:36Z</time></trkpt><trkpt lat="43.460415264922375" lon="10.759779892386797"><ele>88.66666666666666</ele><time>2026-04-25T16:41:41Z</time></trkpt><trkpt lat="43.46047859971741" lon="10.7598014199052"><ele>89.33333333333333</ele><time>2026-04-25T16:41:42Z</time></trkpt><trkpt lat="43.46054914039253" lon="10.759853897412322"><ele>90.0</ele><time>2026-04-25T16:41:43Z</time></trkpt><trkpt lat="43.460629024785874" lon="10.759909631345431"><ele>90.66666666666667</ele><time>2026-04-25T16:41:44Z</time></trkpt><trkpt lat="43.4607165881039" lon="10.759974787182337"><ele>91.33333333333334</ele><time>2026-04-25T16:41:45Z</time></trkpt><trkpt lat="43.46081998806822" lon="10.760040724229336"><ele>92.0</ele><time>2026-04-25T16:41:46Z</time></trkpt><trkpt lat="43.46091006246669" lon="10.760107164647637"><ele>92.0</ele><time>2026-04-25T16:41:47Z</time></trkpt><trkpt lat="43.46099856719037" lon="10.760169701203221"><ele>92.0</ele><time>2026-04-25T16:41:48Z</time></trkpt><trkpt lat="43.46109442942569" lon="10.760237201453233"><ele>92.0</ele><time>2026-04-25T16:41:49Z</time></trkpt><trkpt lat="43.46119951769249" lon="10.760307258691562"><ele>92.0</ele><time>2026-04-25T16:41:50Z</time></trkpt><trkpt lat="43.46131271234994" lon="10.760383538799047"><ele>91.0</ele><time>2026-04-25T16:41:51Z</time></trkpt><trkpt lat="43.461431216924304" lon="10.760466766850548"><ele>90.0</ele><time>2026-04-25T16:41:52Z</time></trkpt><trkpt lat="43.461554132853344" lon="10.760552160981169"><ele>89.0</ele><time>2026-04-25T16:41:53Z</time></trkpt><trkpt lat="43.46166853923505" lon="10.76062757073063"><ele>88.0</ele><time>2026-04-25T16:41:54Z</time></trkpt><trkpt lat="43.46177321270841" lon="10.760707753943018"><ele>88.0</ele><time>2026-04-25T16:41:55Z</time></trkpt><trkpt lat="43.46188517125242" lon="10.760762842976904"><ele>88.0</ele><time>2026-04-25T16:41:56Z</time></trkpt><trkpt lat="43.462003296919725" lon="10.760800812855706"><ele>88.0</ele><time>2026-04-25T16:41:57Z</time></trkpt><trkpt lat="43.462128836966535" lon="10.760821904070214"><ele>88.0</ele><time>2026-04-25T16:41:58Z</time></trkpt><trkpt lat="43.46227155326793" lon="10.760811078227725"><ele>88.0</ele><time>2026-04-25T16:41:59Z</time></trkpt><trkpt lat="43.46241789151958" lon="10.760786287980226"><ele>88.0</ele><time>2026-04-25T16:42:00Z</time></trkpt><trkpt lat="43.46256980770851" lon="10.760743450814532"><ele>88.0</ele><time>2026-04-25T16:42:01Z</time></trkpt><trkpt lat="43.46270975997693" lon="10.760697568900705"><ele>88.0</ele><time>2026-04-25T16:42:02Z</time></trkpt><trkpt lat="43.462843018839784" lon="10.76065567177284"><ele>87.5</ele><time>2026-04-25T16:42:03Z</time></trkpt><trkpt lat="43.462980684136504" lon="10.760613139174273"><ele>87.0</ele><time>2026-04-25T16:42:04Z</time></trkpt><trkpt lat="43.46312548456731" lon="10.76059702107854"><ele>86.5</ele><time>2026-04-25T16:42:05Z</time></trkpt><trkpt lat="43.46327607842111" lon="10.760603936323522"><ele>86.0</ele><time>2026-04-25T16:42:06Z</time></trkpt><trkpt lat="43.46342383228382" lon="10.760617145849302"><ele>86.0</ele><time>2026-04-25T16:42:07Z</time></trkpt><trkpt lat="43.46356634966292" lon="10.760633457094638"><ele>86.0</ele><time>2026-04-25T16:42:08Z</time></trkpt><trkpt lat="43.463708031480934" lon="10.760648572042241"><ele>86.0</ele><time>2026-04-25T16:42:09Z</time></trkpt><trkpt lat="43.46385118141319" lon="10.76065686977066"><ele>86.0</ele><time>2026-04-25T16:42:10Z</time></trkpt><trkpt lat="43.46399592107301" lon="10.760656489794547"><ele>85.25</ele><time>2026-04-25T16:42:11Z</time></trkpt><trkpt lat="43.46413142225958" lon="10.760645779483347"><ele>84.5</ele><time>2026-04-25T16:42:12Z</time></trkpt><trkpt lat="43.464254043771504" lon="10.76063092679007"><ele>83.75</ele><time>2026-04-25T16:42:13Z</time></trkpt><trkpt lat="43.4643815066217" lon="10.7606080697628"><ele>83.0</ele><time>2026-04-25T16:42:14Z</time></trkpt><trkpt lat="43.46451683346026" lon="10.760582211032453"><ele>82.75</ele><time>2026-04-25T16:42:15Z</time></trkpt><trkpt lat="43.464651743464294" lon="10.760571033805668"><ele>82.5</ele><time>2026-04-25T16:42:16Z</time></trkpt><trkpt lat="43.464788593645395" lon="10.760545959730585"><ele>82.25</ele><time>2026-04-25T16:42:17Z</time></trkpt><trkpt lat="43.464922126953475" lon="10.76052404648405"><ele>82.0</ele><time>2026-04-25T16:42:18Z</time></trkpt><trkpt lat="43.46505455288852" lon="10.760508527942012"><ele>82.0</ele><time>2026-04-25T16:42:19Z</time></trkpt><trkpt lat="43.46519154909366" lon="10.76049554205765"><ele>82.0</ele><time>2026-04-25T16:42:20Z</time></trkpt><trkpt lat="43.46533021633796" lon="10.760476898221292"><ele>82.0</ele><time>2026-04-25T16:42:21Z</time></trkpt><trkpt lat="43.4654724112918" lon="10.760468117361302"><ele>82.0</ele><time>2026-04-25T16:42:22Z</time></trkpt><trkpt lat="43.465616418115374" lon="10.760469930213905"><ele>81.75</ele><time>2026-04-25T16:42:23Z</time></trkpt><trkpt lat="43.465760745319784" lon="10.760479999762094"><ele>81.5</ele><time>2026-04-25T16:42:24Z</time></trkpt><trkpt lat="43.46590681732121" lon="10.760500826014567"><ele>81.25</ele><time>2026-04-25T16:42:25Z</time></trkpt><trkpt lat="43.46605559458906" lon="10.7605371686001"><ele>81.0</ele><time>2026-04-25T16:42:26Z</time></trkpt><trkpt lat="43.46620885895859" lon="10.760584576225657"><ele>81.66666666666667</ele><time>2026-04-25T16:42:27Z</time></trkpt><trkpt lat="43.466363803973806" lon="10.760628369846792"><ele>82.33333333333334</ele><time>2026-04-25T16:42:28Z</time></trkpt><trkpt lat="43.4665192890673" lon="10.760674786209309"><ele>83.0</ele><time>2026-04-25T16:42:29Z</time></trkpt><trkpt lat="43.466670443907475" lon="10.760719271568655"><ele>83.0</ele><time>2026-04-25T16:42:30Z</time></trkpt><trkpt lat="43.46681721440183" lon="10.760765063199194"><ele>83.0</ele><time>2026-04-25T16:42:31Z</time></trkpt><trkpt lat="43.466961239962345" lon="10.760811087292767"><ele>83.0</ele><time>2026-04-25T16:42:32Z</time></trkpt><trkpt lat="43.467101292981965" lon="10.760854785119196"><ele>83.0</ele><time>2026-04-25T16:42:33Z</time></trkpt><trkpt lat="43.46724588335452" lon="10.760897422300625"><ele>82.33333333333334</ele><time>2026-04-25T16:42:34Z</time></trkpt><trkpt lat="43.46739100717916" lon="10.760941282217518"><ele>81.66666666666667</ele><time>2026-04-25T16:42:35Z</time></trkpt><trkpt lat="43.467537807821756" lon="10.760985717890312"><ele>81.0</ele><time>2026-04-25T16:42:36Z</time></trkpt><trkpt lat="43.46769105572598" lon="10.76103603375541"><ele>81.0</ele><time>2026-04-25T16:42:37Z</time></trkpt><trkpt lat="43.46784808564536" lon="10.761084056344025"><ele>81.0</ele><time>2026-04-25T16:42:38Z</time></trkpt><trkpt lat="43.46801166600912" lon="10.761132538366537"><ele>81.0</ele><time>2026-04-25T16:42:39Z</time></trkpt><trkpt lat="43.46817410333418" lon="10.761184525809167"><ele>81.0</ele><time>2026-04-25T16:42:40Z</time></trkpt><trkpt lat="43.46833827967788" lon="10.76123613148864"><ele>81.0</ele><time>2026-04-25T16:42:41Z</time></trkpt><trkpt lat="43.46850394009928" lon="10.761289214027983"><ele>81.0</ele><time>2026-04-25T16:42:42Z</time></trkpt><trkpt lat="43.46866748097577" lon="10.761339028867297"><ele>82.0</ele><time>2026-04-25T16:42:43Z</time></trkpt><trkpt lat="43.468832862216495" lon="10.761388643025452"><ele>83.0</ele><time>2026-04-25T16:42:44Z</time></trkpt><trkpt lat="43.46899722741624" lon="10.76144213959505"><ele>84.0</ele><time>2026-04-25T16:42:45Z</time></trkpt><trkpt lat="43.469163929143654" lon="10.761493578792686"><ele>84.0</ele><time>2026-04-25T16:42:46Z</time></trkpt><trkpt lat="43.46932960010231" lon="10.761543595943454"><ele>84.0</ele><time>2026-04-25T16:42:47Z</time></trkpt><trkpt lat="43.469496114115806" lon="10.761597548137008"><ele>84.0</ele><time>2026-04-25T16:42:48Z</time></trkpt><trkpt lat="43.46966287653684" lon="10.76165485324892"><ele>84.0</ele><time>2026-04-25T16:42:49Z</time></trkpt><trkpt lat="43.46982124098199" lon="10.761727576158892"><ele>84.0</ele><time>2026-04-25T16:42:50Z</time></trkpt><trkpt lat="43.46998573321415" lon="10.761809128853821"><ele>84.0</ele><time>2026-04-25T16:42:51Z</time></trkpt><trkpt lat="43.47015188340181" lon="10.76190443646636"><ele>83.66666666666667</ele><time>2026-04-25T16:42:52Z</time></trkpt><trkpt lat="43.47031438840261" lon="10.762002737752026"><ele>83.33333333333334</ele><time>2026-04-25T16:42:53Z</time></trkpt><trkpt lat="43.47047445871365" lon="10.762099291507436"><ele>83.0</ele><time>2026-04-25T16:42:54Z</time></trkpt><trkpt lat="43.470623765602134" lon="10.762189389103522"><ele>83.0</ele><time>2026-04-25T16:42:55Z</time></trkpt><trkpt lat="43.47077157710796" lon="10.762284972067782"><ele>83.0</ele><time>2026-04-25T16:42:56Z</time></trkpt><trkpt lat="43.47091878966279" lon="10.762372298008504"><ele>83.0</ele><time>2026-04-25T16:42:57Z</time></trkpt><trkpt lat="43.471069404613004" lon="10.762463106138172"><ele>83.0</ele><time>2026-04-25T16:42:58Z</time></trkpt><trkpt lat="43.47122257533333" lon="10.762557450823717"><ele>83.0</ele><time>2026-04-25T16:42:59Z</time></trkpt><trkpt lat="43.4713752692467" lon="10.76264703062056"><ele>83.0</ele><time>2026-04-25T16:43:00Z</time></trkpt><trkpt lat="43.47152637047697" lon="10.76273847413513"><ele>82.0</ele><time>2026-04-25T16:43:01Z</time></trkpt><trkpt lat="43.47167177848301" lon="10.762830351231186"><ele>81.0</ele><time>2026-04-25T16:43:02Z</time></trkpt><trkpt lat="43.47181385556403" lon="10.762912372387655"><ele>80.0</ele><time>2026-04-25T16:43:03Z</time></trkpt><trkpt lat="43.47195129757199" lon="10.762995532526162"><ele>80.0</ele><time>2026-04-25T16:43:04Z</time></trkpt><trkpt lat="43.47208650335522" lon="10.76307038581237"><ele>80.0</ele><time>2026-04-25T16:43:05Z</time></trkpt><trkpt lat="43.472214058652646" lon="10.76313533729371"><ele>80.0</ele><time>2026-04-25T16:43:06Z</time></trkpt><trkpt lat="43.47233969926305" lon="10.76318912322941"><ele>80.0</ele><time>2026-04-25T16:43:07Z</time></trkpt><trkpt lat="43.47246810002717" lon="10.763233443840749"><ele>80.2</ele><time>2026-04-25T16:43:08Z</time></trkpt><trkpt lat="43.4725960792717" lon="10.763263849363508"><ele>80.4</ele><time>2026-04-25T16:43:09Z</time></trkpt><trkpt lat="43.47270776430821" lon="10.76327606584023"><ele>80.6</ele><time>2026-04-25T16:43:10Z</time></trkpt><trkpt lat="43.47280290217251" lon="10.763288582913757"><ele>80.8</ele><time>2026-04-25T16:43:11Z</time></trkpt><trkpt lat="43.472881220087515" lon="10.763302396034133"><ele>81.0</ele><time>2026-04-25T16:43:12Z</time></trkpt><trkpt lat="43.472989738611965" lon="10.763342765746609"><ele>80.5</ele><time>2026-04-25T16:43:14Z</time></trkpt><trkpt lat="43.47301247971259" lon="10.763583358815946"><ele>80.0</ele><time>2026-04-25T16:43:17Z</time></trkpt><trkpt lat="43.47299162846553" lon="10.76369601570888"><ele>79.5</ele><time>2026-04-25T16:43:18Z</time></trkpt><trkpt lat="43.47298388641918" lon="10.763827069760497"><ele>79.0</ele><time>2026-04-25T16:43:19Z</time></trkpt><trkpt lat="43.47298015866561" lon="10.763973514009432"><ele>79.0</ele><time>2026-04-25T16:43:20Z</time></trkpt><trkpt lat="43.47297790286153" lon="10.764141402632545"><ele>79.0</ele><time>2026-04-25T16:43:21Z</time></trkpt><trkpt lat="43.47295431770335" lon="10.764306864064348"><ele>79.0</ele><time>2026-04-25T16:43:22Z</time></trkpt><trkpt lat="43.47294596591899" lon="10.764475142583676"><ele>79.0</ele><time>2026-04-25T16:43:23Z</time></trkpt><trkpt lat="43.47292868257423" lon="10.76465953487922"><ele>79.0</ele><time>2026-04-25T16:43:24Z</time></trkpt><trkpt lat="43.47288814006388" lon="10.76484386487577"><ele>79.0</ele><time>2026-04-25T16:43:25Z</time></trkpt><trkpt lat="43.4728552491178" lon="10.765034769400186"><ele>79.0</ele><time>2026-04-25T16:43:26Z</time></trkpt><trkpt lat="43.47281751589428" lon="10.765220422768234"><ele>79.0</ele><time>2026-04-25T16:43:27Z</time></trkpt><trkpt lat="43.47277567586075" lon="10.765404500347946"><ele>78.75</ele><time>2026-04-25T16:43:28Z</time></trkpt><trkpt lat="43.472722648902334" lon="10.765589989582855"><ele>78.5</ele><time>2026-04-25T16:43:29Z</time></trkpt><trkpt lat="43.47267338905728" lon="10.765774677791494"><ele>78.25</ele><time>2026-04-25T16:43:30Z</time></trkpt><trkpt lat="43.472619187468" lon="10.765962240899954"><ele>78.0</ele><time>2026-04-25T16:43:31Z</time></trkpt><trkpt lat="43.47256783768096" lon="10.766152119253027"><ele>77.5</ele><time>2026-04-25T16:43:32Z</time></trkpt><trkpt lat="43.47251157912348" lon="10.766337881159211"><ele>77.0</ele><time>2026-04-25T16:43:33Z</time></trkpt><trkpt lat="43.472458873237905" lon="10.766526411169185"><ele>76.5</ele><time>2026-04-25T16:43:34Z</time></trkpt><trkpt lat="43.47241038436152" lon="10.766704350501493"><ele>76.0</ele><time>2026-04-25T16:43:35Z</time></trkpt><trkpt lat="43.47236518708328" lon="10.766888126492903"><ele>76.0</ele><time>2026-04-25T16:43:36Z</time></trkpt><trkpt lat="43.472315670937846" lon="10.76706399293062"><ele>76.0</ele><time>2026-04-25T16:43:37Z</time></trkpt><trkpt lat="43.47226554125586" lon="10.767240139869036"><ele>76.0</ele><time>2026-04-25T16:43:38Z</time></trkpt><trkpt lat="43.47221926147734" lon="10.767422600180433"><ele>76.0</ele><time>2026-04-25T16:43:39Z</time></trkpt><trkpt lat="43.47217062481032" lon="10.767594954964908"><ele>75.75</ele><time>2026-04-25T16:43:40Z</time></trkpt><trkpt lat="43.472121647865166" lon="10.767764123779054"><ele>75.5</ele><time>2026-04-25T16:43:41Z</time></trkpt><trkpt lat="43.47206563873403" lon="10.767937801668028"><ele>75.25</ele><time>2026-04-25T16:43:42Z</time></trkpt><trkpt lat="43.47202307173895" lon="10.768102467429445"><ele>75.0</ele><time>2026-04-25T16:43:43Z</time></trkpt><trkpt lat="43.471989240884845" lon="10.76825307359127"><ele>75.75</ele><time>2026-04-25T16:43:44Z</time></trkpt><trkpt lat="43.47194928386136" lon="10.768397016864732"><ele>76.5</ele><time>2026-04-25T16:43:45Z</time></trkpt><trkpt lat="43.471898035479875" lon="10.768555811130579"><ele>77.25</ele><time>2026-04-25T16:43:46Z</time></trkpt><trkpt lat="43.47184965305199" lon="10.76872368513244"><ele>78.0</ele><time>2026-04-25T16:43:47Z</time></trkpt><trkpt lat="43.47180718208923" lon="10.76890134916177"><ele>78.75</ele><time>2026-04-25T16:43:48Z</time></trkpt><trkpt lat="43.471759901968085" lon="10.769074493128635"><ele>79.5</ele><time>2026-04-25T16:43:49Z</time></trkpt><trkpt lat="43.47169620001042" lon="10.769243309063423"><ele>80.25</ele><time>2026-04-25T16:43:50Z</time></trkpt><trkpt lat="43.47162098094891" lon="10.76939255852615"><ele>81.0</ele><time>2026-04-25T16:43:51Z</time></trkpt><trkpt lat="43.471543748738675" lon="10.769551576439614"><ele>82.0</ele><time>2026-04-25T16:43:52Z</time></trkpt><trkpt lat="43.47146927303274" lon="10.769708252654302"><ele>83.0</ele><time>2026-04-25T16:43:53Z</time></trkpt><trkpt lat="43.47136972247872" lon="10.769861544350045"><ele>84.0</ele><time>2026-04-25T16:43:54Z</time></trkpt><trkpt lat="43.47128760438494" lon="10.770013201064073"><ele>85.0</ele><time>2026-04-25T16:43:55Z</time></trkpt><trkpt lat="43.47120269483691" lon="10.770167972470983"><ele>83.5</ele><time>2026-04-25T16:43:56Z</time></trkpt><trkpt lat="43.47111183036702" lon="10.770314235034409"><ele>82.0</ele><time>2026-04-25T16:43:57Z</time></trkpt><trkpt lat="43.4710194489654" lon="10.770460937827364"><ele>80.5</ele><time>2026-04-25T16:43:58Z</time></trkpt><trkpt lat="43.47091819528673" lon="10.770612376760816"><ele>79.0</ele><time>2026-04-25T16:43:59Z</time></trkpt><trkpt lat="43.470808086152175" lon="10.770763546930068"><ele>79.0</ele><time>2026-04-25T16:44:00Z</time></trkpt><trkpt lat="43.47069751853298" lon="10.770914114497996"><ele>79.0</ele><time>2026-04-25T16:44:01Z</time></trkpt><trkpt lat="43.47057609667686" lon="10.771060380046395"><ele>79.0</ele><time>2026-04-25T16:44:02Z</time></trkpt><trkpt lat="43.47045075868093" lon="10.771202450611636"><ele>80.33333333333333</ele><time>2026-04-25T16:44:03Z</time></trkpt><trkpt lat="43.47032803132915" lon="10.771347899780652"><ele>81.66666666666667</ele><time>2026-04-25T16:44:04Z</time></trkpt><trkpt lat="43.470205546882234" lon="10.771494108084353"><ele>83.0</ele><time>2026-04-25T16:44:05Z</time></trkpt><trkpt lat="43.47008290643261" lon="10.771641024217951"><ele>83.0</ele><time>2026-04-25T16:44:06Z</time></trkpt><trkpt lat="43.46996096714402" lon="10.771786073706059"><ele>83.0</ele><time>2026-04-25T16:44:07Z</time></trkpt><trkpt lat="43.46983834259306" lon="10.771929939247228"><ele>83.0</ele><time>2026-04-25T16:44:08Z</time></trkpt><trkpt lat="43.469716803852364" lon="10.772073581964996"><ele>82.66666666666667</ele><time>2026-04-25T16:44:09Z</time></trkpt><trkpt lat="43.469592300537286" lon="10.772212108019783"><ele>82.33333333333333</ele><time>2026-04-25T16:44:10Z</time></trkpt><trkpt lat="43.46946421416819" lon="10.772346798136414"><ele>82.0</ele><time>2026-04-25T16:44:11Z</time></trkpt><trkpt lat="43.46933375531176" lon="10.772478885348203"><ele>82.0</ele><time>2026-04-25T16:44:12Z</time></trkpt><trkpt lat="43.46920268617424" lon="10.772613397385983"><ele>82.0</ele><time>2026-04-25T16:44:13Z</time></trkpt><trkpt lat="43.46907135956384" lon="10.772745315155626"><ele>82.0</ele><time>2026-04-25T16:44:14Z</time></trkpt><trkpt lat="43.46893936532934" lon="10.772879367128976"><ele>83.33333333333333</ele><time>2026-04-25T16:44:15Z</time></trkpt><trkpt lat="43.468807530828734" lon="10.773017018001505"><ele>84.66666666666667</ele><time>2026-04-25T16:44:16Z</time></trkpt><trkpt lat="43.46867924004447" lon="10.773148407527081"><ele>86.0</ele><time>2026-04-25T16:44:17Z</time></trkpt><trkpt lat="43.46855546583695" lon="10.773277816181416"><ele>86.0</ele><time>2026-04-25T16:44:18Z</time></trkpt><trkpt lat="43.468433431264906" lon="10.773401635181768"><ele>86.0</ele><time>2026-04-25T16:44:19Z</time></trkpt><trkpt lat="43.468312759754674" lon="10.77352547766016"><ele>86.0</ele><time>2026-04-25T16:44:20Z</time></trkpt><trkpt lat="43.468195238845816" lon="10.773649354978632"><ele>85.25</ele><time>2026-04-25T16:44:21Z</time></trkpt><trkpt lat="43.46808267938333" lon="10.773768706089573"><ele>84.5</ele><time>2026-04-25T16:44:22Z</time></trkpt><trkpt lat="43.467976896554205" lon="10.773874090937817"><ele>83.75</ele><time>2026-04-25T16:44:23Z</time></trkpt><trkpt lat="43.46787228309647" lon="10.773971613553819"><ele>83.0</ele><time>2026-04-25T16:44:24Z</time></trkpt><trkpt lat="43.467762870139005" lon="10.774064829227253"><ele>83.0</ele><time>2026-04-25T16:44:25Z</time></trkpt><trkpt lat="43.46764021300934" lon="10.77415051459255"><ele>83.0</ele><time>2026-04-25T16:44:26Z</time></trkpt><trkpt lat="43.46750430111932" lon="10.774219952251478"><ele>83.0</ele><time>2026-04-25T16:44:27Z</time></trkpt><trkpt lat="43.46735801167112" lon="10.774279885827363"><ele>83.0</ele><time>2026-04-25T16:44:28Z</time></trkpt><trkpt lat="43.46720476968901" lon="10.774327041953816"><ele>81.0</ele><time>2026-04-25T16:44:29Z</time></trkpt><trkpt lat="43.467053476089035" lon="10.774362459512874"><ele>79.0</ele><time>2026-04-25T16:44:30Z</time></trkpt><trkpt lat="43.46689340623387" lon="10.774409195271064"><ele>77.0</ele><time>2026-04-25T16:44:31Z</time></trkpt><trkpt lat="43.46672949460853" lon="10.774463901332904"><ele>77.0</ele><time>2026-04-25T16:44:32Z</time></trkpt><trkpt lat="43.46656831272565" lon="10.774512178410468"><ele>77.0</ele><time>2026-04-25T16:44:33Z</time></trkpt><trkpt lat="43.46640676739045" lon="10.774558459364304"><ele>77.0</ele><time>2026-04-25T16:44:34Z</time></trkpt><trkpt lat="43.466247270043645" lon="10.774606837523113"><ele>77.33333333333334</ele><time>2026-04-25T16:44:35Z</time></trkpt><trkpt lat="43.46608981847531" lon="10.774657493103389"><ele>77.66666666666667</ele><time>2026-04-25T16:44:36Z</time></trkpt><trkpt lat="43.46593622318218" lon="10.774716323775714"><ele>78.0</ele><time>2026-04-25T16:44:37Z</time></trkpt><trkpt lat="43.465786280605094" lon="10.774795531137578"><ele>78.0</ele><time>2026-04-25T16:44:38Z</time></trkpt><trkpt lat="43.465638096849354" lon="10.774887524914725"><ele>78.0</ele><time>2026-04-25T16:44:39Z</time></trkpt><trkpt lat="43.46549351641519" lon="10.774996162126694"><ele>78.0</ele><time>2026-04-25T16:44:40Z</time></trkpt><trkpt lat="43.4653485265351" lon="10.775111087153647"><ele>78.33333333333333</ele><time>2026-04-25T16:44:41Z</time></trkpt><trkpt lat="43.4651992925144" lon="10.775229252784595"><ele>78.66666666666666</ele><time>2026-04-25T16:44:42Z</time></trkpt><trkpt lat="43.465049760520515" lon="10.775346373909308"><ele>79.0</ele><time>2026-04-25T16:44:43Z</time></trkpt><trkpt lat="43.464898891321184" lon="10.775467162139872"><ele>79.0</ele><time>2026-04-25T16:44:44Z</time></trkpt><trkpt lat="43.46475127659541" lon="10.7755830094167"><ele>79.0</ele><time>2026-04-25T16:44:45Z</time></trkpt><trkpt lat="43.464603481101726" lon="10.775698700024092"><ele>79.0</ele><time>2026-04-25T16:44:46Z</time></trkpt><trkpt lat="43.46445574151925" lon="10.77581781876277"><ele>79.0</ele><time>2026-04-25T16:44:47Z</time></trkpt><trkpt lat="43.46430884002349" lon="10.775933774516387"><ele>79.0</ele><time>2026-04-25T16:44:48Z</time></trkpt><trkpt lat="43.4641603310684" lon="10.776049316605672"><ele>79.0</ele><time>2026-04-25T16:44:49Z</time></trkpt><trkpt lat="43.464013439806976" lon="10.776164176738558"><ele>79.0</ele><time>2026-04-25T16:44:50Z</time></trkpt><trkpt lat="43.46386796334418" lon="10.776279104734366"><ele>79.0</ele><time>2026-04-25T16:44:51Z</time></trkpt><trkpt lat="43.46372359409222" lon="10.77639421240816"><ele>79.0</ele><time>2026-04-25T16:44:52Z</time></trkpt><trkpt lat="43.46357838166588" lon="10.776510557303254"><ele>79.0</ele><time>2026-04-25T16:44:53Z</time></trkpt><trkpt lat="43.46343415944458" lon="10.776628319060483"><ele>79.0</ele><time>2026-04-25T16:44:54Z</time></trkpt><trkpt lat="43.463286633531716" lon="10.776742331679053"><ele>79.0</ele><time>2026-04-25T16:44:55Z</time></trkpt><trkpt lat="43.463140294735055" lon="10.776859749492285"><ele>79.0</ele><time>2026-04-25T16:44:56Z</time></trkpt><trkpt lat="43.462994073872316" lon="10.77697814282965"><ele>79.0</ele><time>2026-04-25T16:44:57Z</time></trkpt><trkpt lat="43.462843906528335" lon="10.777092872268653"><ele>79.0</ele><time>2026-04-25T16:44:58Z</time></trkpt><trkpt lat="43.462699050104774" lon="10.777204431931338"><ele>80.33333333333333</ele><time>2026-04-25T16:44:59Z</time></trkpt><trkpt lat="43.46255093446261" lon="10.777318984844484"><ele>81.66666666666667</ele><time>2026-04-25T16:45:00Z</time></trkpt><trkpt lat="43.462404057971455" lon="10.77743322454916"><ele>83.0</ele><time>2026-04-25T16:45:01Z</time></trkpt><trkpt lat="43.462257849136954" lon="10.777545173389228"><ele>83.0</ele><time>2026-04-25T16:45:02Z</time></trkpt><trkpt lat="43.46211438667642" lon="10.777659689572513"><ele>83.0</ele><time>2026-04-25T16:45:03Z</time></trkpt><trkpt lat="43.46196786784624" lon="10.777771948687317"><ele>83.0</ele><time>2026-04-25T16:45:04Z</time></trkpt><trkpt lat="43.46182259030146" lon="10.777885191461857"><ele>83.0</ele><time>2026-04-25T16:45:05Z</time></trkpt><trkpt lat="43.46167834489455" lon="10.777999982365097"><ele>83.0</ele><time>2026-04-25T16:45:06Z</time></trkpt><trkpt lat="43.461534060062185" lon="10.778116119726953"><ele>83.0</ele><time>2026-04-25T16:45:07Z</time></trkpt><trkpt lat="43.46139244872858" lon="10.77823811229861"><ele>83.66666666666667</ele><time>2026-04-25T16:45:08Z</time></trkpt><trkpt lat="43.46125148047462" lon="10.778369030238752"><ele>84.33333333333333</ele><time>2026-04-25T16:45:09Z</time></trkpt><trkpt lat="43.461111413800204" lon="10.77851096647955"><ele>85.0</ele><time>2026-04-25T16:45:10Z</time></trkpt><trkpt lat="43.46097235188571" lon="10.77865615310937"><ele>85.0</ele><time>2026-04-25T16:45:11Z</time></trkpt><trkpt lat="43.460832754934174" lon="10.778803839255936"><ele>85.0</ele><time>2026-04-25T16:45:12Z</time></trkpt><trkpt lat="43.460691537686046" lon="10.77895256993088"><ele>85.0</ele><time>2026-04-25T16:45:13Z</time></trkpt><trkpt lat="43.46054949148483" lon="10.77910194058664"><ele>85.0</ele><time>2026-04-25T16:45:14Z</time></trkpt><trkpt lat="43.460408253484616" lon="10.779247518518195"><ele>85.0</ele><time>2026-04-25T16:45:15Z</time></trkpt><trkpt lat="43.46027082465728" lon="10.779392370061144"><ele>85.0</ele><time>2026-04-25T16:45:16Z</time></trkpt><trkpt lat="43.46013212424162" lon="10.779536524379182"><ele>84.66666666666666</ele><time>2026-04-25T16:45:17Z</time></trkpt><trkpt lat="43.45999288814423" lon="10.779683087649609"><ele>84.33333333333333</ele><time>2026-04-25T16:45:18Z</time></trkpt><trkpt lat="43.45985238830581" lon="10.779830086119647"><ele>84.0</ele><time>2026-04-25T16:45:19Z</time></trkpt><trkpt lat="43.459712827529" lon="10.779979770328058"><ele>84.33333333333333</ele><time>2026-04-25T16:45:20Z</time></trkpt><trkpt lat="43.459569526918024" lon="10.780125550528416"><ele>84.66666666666666</ele><time>2026-04-25T16:45:21Z</time></trkpt><trkpt lat="43.45942906812643" lon="10.780274108945925"><ele>85.0</ele><time>2026-04-25T16:45:22Z</time></trkpt><trkpt lat="43.45928867928541" lon="10.78042114619918"><ele>84.0</ele><time>2026-04-25T16:45:23Z</time></trkpt><trkpt lat="43.45914700513949" lon="10.780570404657592"><ele>83.0</ele><time>2026-04-25T16:45:24Z</time></trkpt><trkpt lat="43.45900488793904" lon="10.780714568563631"><ele>82.0</ele><time>2026-04-25T16:45:25Z</time></trkpt><trkpt lat="43.458864786449155" lon="10.780859480506583"><ele>82.33333333333333</ele><time>2026-04-25T16:45:26Z</time></trkpt><trkpt lat="43.4587255575395" lon="10.781002125371684"><ele>82.66666666666667</ele><time>2026-04-25T16:45:27Z</time></trkpt><trkpt lat="43.458588471290206" lon="10.781147253870476"><ele>83.0</ele><time>2026-04-25T16:45:28Z</time></trkpt><trkpt lat="43.45845144376561" lon="10.781287323651371"><ele>83.0</ele><time>2026-04-25T16:45:29Z</time></trkpt><trkpt lat="43.45831678345672" lon="10.781429212821882"><ele>83.0</ele><time>2026-04-25T16:45:30Z</time></trkpt><trkpt lat="43.45818263128522" lon="10.781573172137367"><ele>83.0</ele><time>2026-04-25T16:45:31Z</time></trkpt><trkpt lat="43.4580475011082" lon="10.781717798812377"><ele>83.0</ele><time>2026-04-25T16:45:32Z</time></trkpt><trkpt lat="43.457910599081906" lon="10.781861194932123"><ele>83.0</ele><time>2026-04-25T16:45:33Z</time></trkpt><trkpt lat="43.45777737238253" lon="10.782002637779877"><ele>83.0</ele><time>2026-04-25T16:45:34Z</time></trkpt><trkpt lat="43.457648242938824" lon="10.782138008204681"><ele>83.0</ele><time>2026-04-25T16:45:35Z</time></trkpt><trkpt lat="43.45751932806028" lon="10.782271669465585"><ele>83.0</ele><time>2026-04-25T16:45:36Z</time></trkpt><trkpt lat="43.45738986078552" lon="10.782408107094815"><ele>83.0</ele><time>2026-04-25T16:45:37Z</time></trkpt><trkpt lat="43.457256469601845" lon="10.782550971887405"><ele>82.66666666666667</ele><time>2026-04-25T16:45:38Z</time></trkpt><trkpt lat="43.45711756816871" lon="10.782693237102523"><ele>82.33333333333333</ele><time>2026-04-25T16:45:39Z</time></trkpt><trkpt lat="43.45697314816988" lon="10.782841276594409"><ele>82.0</ele><time>2026-04-25T16:45:40Z</time></trkpt><trkpt lat="43.4568362362983" lon="10.78298452916202"><ele>82.0</ele><time>2026-04-25T16:45:41Z</time></trkpt><trkpt lat="43.45670416758976" lon="10.78312382133435"><ele>82.0</ele><time>2026-04-25T16:45:42Z</time></trkpt><trkpt lat="43.456574674338455" lon="10.783260773820405"><ele>82.0</ele><time>2026-04-25T16:45:43Z</time></trkpt><trkpt lat="43.456446355716935" lon="10.783393020264384"><ele>82.0</ele><time>2026-04-25T16:45:44Z</time></trkpt><trkpt lat="43.45631888003928" lon="10.783529755866027"><ele>82.0</ele><time>2026-04-25T16:45:45Z</time></trkpt><trkpt lat="43.456194850048355" lon="10.783657632469163"><ele>82.0</ele><time>2026-04-25T16:45:46Z</time></trkpt><trkpt lat="43.45607313677727" lon="10.783788200375746"><ele>83.0</ele><time>2026-04-25T16:45:47Z</time></trkpt><trkpt lat="43.45594698744077" lon="10.783919450003056"><ele>84.0</ele><time>2026-04-25T16:45:48Z</time></trkpt><trkpt lat="43.455821855679666" lon="10.78404779743874"><ele>85.0</ele><time>2026-04-25T16:45:49Z</time></trkpt><trkpt lat="43.455702004074375" lon="10.7841828094471"><ele>85.0</ele><time>2026-04-25T16:45:50Z</time></trkpt><trkpt lat="43.45558745374413" lon="10.784331880724666"><ele>85.0</ele><time>2026-04-25T16:45:51Z</time></trkpt><trkpt lat="43.45548451234434" lon="10.7845038815424"><ele>85.0</ele><time>2026-04-25T16:45:52Z</time></trkpt><trkpt lat="43.455393142050475" lon="10.784697704155985"><ele>85.0</ele><time>2026-04-25T16:45:53Z</time></trkpt><trkpt lat="43.455301920002455" lon="10.784896727727993"><ele>85.0</ele><time>2026-04-25T16:45:54Z</time></trkpt><trkpt lat="43.45520898169229" lon="10.78510098306792"><ele>85.0</ele><time>2026-04-25T16:45:55Z</time></trkpt><trkpt lat="43.45512006391512" lon="10.785299416499438"><ele>85.0</ele><time>2026-04-25T16:45:56Z</time></trkpt><trkpt lat="43.45503042167072" lon="10.785499519480215"><ele>85.0</ele><time>2026-04-25T16:45:57Z</time></trkpt><trkpt lat="43.45493777433732" lon="10.785697303631856"><ele>85.0</ele><time>2026-04-25T16:45:58Z</time></trkpt><trkpt lat="43.45485360319783" lon="10.78589979788942"><ele>85.33333333333333</ele><time>2026-04-25T16:45:59Z</time></trkpt><trkpt lat="43.454766535131554" lon="10.786102424076095"><ele>85.66666666666667</ele><time>2026-04-25T16:46:00Z</time></trkpt><trkpt lat="43.45468117531055" lon="10.786308388296932"><ele>86.0</ele><time>2026-04-25T16:46:01Z</time></trkpt><trkpt lat="43.454600828126644" lon="10.786518644242358"><ele>86.33333333333334</ele><time>2026-04-25T16:46:02Z</time></trkpt><trkpt lat="43.45452384456861" lon="10.786732068702765"><ele>86.66666666666667</ele><time>2026-04-25T16:46:03Z</time></trkpt><trkpt lat="43.454447107505224" lon="10.786944246316889"><ele>87.0</ele><time>2026-04-25T16:46:04Z</time></trkpt><trkpt lat="43.45437121018312" lon="10.787156955449618"><ele>86.33333333333333</ele><time>2026-04-25T16:46:05Z</time></trkpt><trkpt lat="43.45429413030593" lon="10.78736565965567"><ele>85.66666666666666</ele><time>2026-04-25T16:46:06Z</time></trkpt><trkpt lat="43.4542191563834" lon="10.787576336510444"><ele>85.0</ele><time>2026-04-25T16:46:07Z</time></trkpt><trkpt lat="43.4541442572954" lon="10.787787648387088"><ele>84.66666666666666</ele><time>2026-04-25T16:46:08Z</time></trkpt><trkpt lat="43.45405411061597" lon="10.787996301560103"><ele>84.33333333333333</ele><time>2026-04-25T16:46:09Z</time></trkpt><trkpt lat="43.45398731549169" lon="10.788219794445897"><ele>84.0</ele><time>2026-04-25T16:46:10Z</time></trkpt><trkpt lat="43.45391225745411" lon="10.788432109123034"><ele>84.0</ele><time>2026-04-25T16:46:11Z</time></trkpt><trkpt lat="43.4538408538995" lon="10.788642953852408"><ele>84.0</ele><time>2026-04-25T16:46:12Z</time></trkpt><trkpt lat="43.45376742886783" lon="10.788839991785032"><ele>84.0</ele><time>2026-04-25T16:46:13Z</time></trkpt><trkpt lat="43.453699789817264" lon="10.789028221661011"><ele>84.25</ele><time>2026-04-25T16:46:14Z</time></trkpt><trkpt lat="43.45363328395486" lon="10.789206617785968"><ele>84.5</ele><time>2026-04-25T16:46:15Z</time></trkpt><trkpt lat="43.453558794779866" lon="10.789364335753971"><ele>84.75</ele><time>2026-04-25T16:46:16Z</time></trkpt><trkpt lat="43.45350084728136" lon="10.789522295123259"><ele>85.0</ele><time>2026-04-25T16:46:17Z</time></trkpt><trkpt lat="43.45344123014918" lon="10.789693289817874"><ele>85.25</ele><time>2026-04-25T16:46:18Z</time></trkpt><trkpt lat="43.45337558664221" lon="10.789869989684803"><ele>85.5</ele><time>2026-04-25T16:46:19Z</time></trkpt><trkpt lat="43.45331605310183" lon="10.790048321769634"><ele>85.75</ele><time>2026-04-25T16:46:20Z</time></trkpt><trkpt lat="43.45325436985031" lon="10.790219765587151"><ele>86.0</ele><time>2026-04-25T16:46:21Z</time></trkpt><trkpt lat="43.45320859317481" lon="10.790398268210893"><ele>86.25</ele><time>2026-04-25T16:46:22Z</time></trkpt><trkpt lat="43.45317581279758" lon="10.79058270936305"><ele>86.5</ele><time>2026-04-25T16:46:23Z</time></trkpt><trkpt lat="43.45315586582499" lon="10.790776292323548"><ele>86.75</ele><time>2026-04-25T16:46:24Z</time></trkpt><trkpt lat="43.4531479760219" lon="10.790969369929641"><ele>87.0</ele><time>2026-04-25T16:46:25Z</time></trkpt><trkpt lat="43.45313555890722" lon="10.791166641724432"><ele>87.0</ele><time>2026-04-25T16:46:26Z</time></trkpt><trkpt lat="43.45312447379783" lon="10.79135271785406"><ele>87.0</ele><time>2026-04-25T16:46:27Z</time></trkpt><trkpt lat="43.45310764880963" lon="10.791543913711978"><ele>87.0</ele><time>2026-04-25T16:46:28Z</time></trkpt><trkpt lat="43.45313667921002" lon="10.791742971377161"><ele>87.0</ele><time>2026-04-25T16:46:29Z</time></trkpt><trkpt lat="43.45315952268309" lon="10.791949042353854"><ele>86.66666666666667</ele><time>2026-04-25T16:46:30Z</time></trkpt><trkpt lat="43.453187751456106" lon="10.792159820987814"><ele>86.33333333333334</ele><time>2026-04-25T16:46:31Z</time></trkpt><trkpt lat="43.45321844184892" lon="10.792376217416738"><ele>86.0</ele><time>2026-04-25T16:46:32Z</time></trkpt><trkpt lat="43.45324919040084" lon="10.792594381209241"><ele>86.0</ele><time>2026-04-25T16:46:33Z</time></trkpt><trkpt lat="43.45328153661235" lon="10.792813412096066"><ele>86.0</ele><time>2026-04-25T16:46:34Z</time></trkpt><trkpt lat="43.45331615835404" lon="10.79303359378933"><ele>86.0</ele><time>2026-04-25T16:46:35Z</time></trkpt><trkpt lat="43.45334667770645" lon="10.793253837900888"><ele>86.0</ele><time>2026-04-25T16:46:36Z</time></trkpt><trkpt lat="43.45338034343989" lon="10.793475970134148"><ele>86.0</ele><time>2026-04-25T16:46:37Z</time></trkpt><trkpt lat="43.45341406257979" lon="10.793700506108307"><ele>86.0</ele><time>2026-04-25T16:46:38Z</time></trkpt><trkpt lat="43.45344453195092" lon="10.793920606668449"><ele>86.0</ele><time>2026-04-25T16:46:39Z</time></trkpt><trkpt lat="43.45346881528065" lon="10.794132450110087"><ele>86.0</ele><time>2026-04-25T16:46:40Z</time></trkpt><trkpt lat="43.45348150220773" lon="10.794347924053742"><ele>86.0</ele><time>2026-04-25T16:46:41Z</time></trkpt><trkpt lat="43.45347744518492" lon="10.794566462185797"><ele>86.0</ele><time>2026-04-25T16:46:42Z</time></trkpt><trkpt lat="43.45345404154181" lon="10.794770088552923"><ele>86.0</ele><time>2026-04-25T16:46:43Z</time></trkpt><trkpt lat="43.45341133762162" lon="10.79497839754971"><ele>86.0</ele><time>2026-04-25T16:46:44Z</time></trkpt><trkpt lat="43.45336082253991" lon="10.795187953264085"><ele>86.66666666666667</ele><time>2026-04-25T16:46:45Z</time></trkpt><trkpt lat="43.45330074916852" lon="10.79540365612344"><ele>87.33333333333333</ele><time>2026-04-25T16:46:46Z</time></trkpt><trkpt lat="43.45324434660367" lon="10.795624509101893"><ele>88.0</ele><time>2026-04-25T16:46:47Z</time></trkpt><trkpt lat="43.45318723692695" lon="10.7958420033283"><ele>88.66666666666666</ele><time>2026-04-25T16:46:48Z</time></trkpt><trkpt lat="43.45312701219575" lon="10.796058215454845"><ele>89.33333333333333</ele><time>2026-04-25T16:46:49Z</time></trkpt><trkpt lat="43.45307029204781" lon="10.796279210586105"><ele>90.0</ele><time>2026-04-25T16:46:50Z</time></trkpt><trkpt lat="43.45301642853043" lon="10.796497268151978"><ele>90.0</ele><time>2026-04-25T16:46:51Z</time></trkpt><trkpt lat="43.452960040878125" lon="10.796714087808592"><ele>90.0</ele><time>2026-04-25T16:46:52Z</time></trkpt><trkpt lat="43.452901695609555" lon="10.796933459643585"><ele>90.0</ele><time>2026-04-25T16:46:53Z</time></trkpt><trkpt lat="43.45284273216309" lon="10.797149647403065"><ele>89.66666666666667</ele><time>2026-04-25T16:46:54Z</time></trkpt><trkpt lat="43.45278438549217" lon="10.797370367365538"><ele>89.33333333333334</ele><time>2026-04-25T16:46:55Z</time></trkpt><trkpt lat="43.452726992708385" lon="10.797590861636133"><ele>89.0</ele><time>2026-04-25T16:46:56Z</time></trkpt><trkpt lat="43.45266905036202" lon="10.797805986892127"><ele>89.0</ele><time>2026-04-25T16:46:57Z</time></trkpt><trkpt lat="43.45261191783235" lon="10.798023158113"><ele>89.0</ele><time>2026-04-25T16:46:58Z</time></trkpt><trkpt lat="43.45255473550706" lon="10.798238825914138"><ele>89.0</ele><time>2026-04-25T16:46:59Z</time></trkpt><trkpt lat="43.45249735563172" lon="10.798454957208737"><ele>89.0</ele><time>2026-04-25T16:47:00Z</time></trkpt><trkpt lat="43.45244070400657" lon="10.798672941910304"><ele>89.0</ele><time>2026-04-25T16:47:01Z</time></trkpt><trkpt lat="43.45238479810183" lon="10.798890833584277"><ele>89.0</ele><time>2026-04-25T16:47:02Z</time></trkpt><trkpt lat="43.45232689393332" lon="10.799110787296385"><ele>89.0</ele><time>2026-04-25T16:47:03Z</time></trkpt><trkpt lat="43.45226643465311" lon="10.799332547569064"><ele>89.0</ele><time>2026-04-25T16:47:04Z</time></trkpt><trkpt lat="43.452206271689036" lon="10.799550214377874"><ele>89.0</ele><time>2026-04-25T16:47:05Z</time></trkpt><trkpt lat="43.45214977538512" lon="10.799763501224543"><ele>89.66666666666667</ele><time>2026-04-25T16:47:06Z</time></trkpt><trkpt lat="43.45209326869633" lon="10.799974688964564"><ele>90.33333333333333</ele><time>2026-04-25T16:47:07Z</time></trkpt><trkpt lat="43.45203890760967" lon="10.800184939047035"><ele>91.0</ele><time>2026-04-25T16:47:08Z</time></trkpt><trkpt lat="43.45198328594231" lon="10.80039645358329"><ele>91.33333333333333</ele><time>2026-04-25T16:47:09Z</time></trkpt><trkpt lat="43.4519285166595" lon="10.800605273988447"><ele>91.66666666666667</ele><time>2026-04-25T16:47:10Z</time></trkpt><trkpt lat="43.45187522565664" lon="10.800817769737664"><ele>92.0</ele><time>2026-04-25T16:47:11Z</time></trkpt><trkpt lat="43.4518072689471" lon="10.801019763353597"><ele>92.0</ele><time>2026-04-25T16:47:12Z</time></trkpt><trkpt lat="43.45175121244095" lon="10.801228766608784"><ele>92.0</ele><time>2026-04-25T16:47:13Z</time></trkpt><trkpt lat="43.45171067699802" lon="10.801443178588414"><ele>92.0</ele><time>2026-04-25T16:47:14Z</time></trkpt><trkpt lat="43.45165218143199" lon="10.801652406110968"><ele>92.33333333333334</ele><time>2026-04-25T16:47:15Z</time></trkpt><trkpt lat="43.45159525675334" lon="10.80185491729634"><ele>92.66666666666667</ele><time>2026-04-25T16:47:16Z</time></trkpt><trkpt lat="43.451539541721175" lon="10.802054202779749"><ele>93.0</ele><time>2026-04-25T16:47:17Z</time></trkpt><trkpt lat="43.45149216070061" lon="10.802272284202722"><ele>93.0</ele><time>2026-04-25T16:47:18Z</time></trkpt><trkpt lat="43.451437339459964" lon="10.802484996303347"><ele>93.0</ele><time>2026-04-25T16:47:19Z</time></trkpt><trkpt lat="43.451410582137385" lon="10.802713036689068"><ele>93.0</ele><time>2026-04-25T16:47:20Z</time></trkpt><trkpt lat="43.451402613196215" lon="10.802945516091182"><ele>93.33333333333333</ele><time>2026-04-25T16:47:21Z</time></trkpt><trkpt lat="43.451395238304585" lon="10.803159448923237"><ele>93.66666666666666</ele><time>2026-04-25T16:47:22Z</time></trkpt><trkpt lat="43.45138653980496" lon="10.803361407387081"><ele>94.0</ele><time>2026-04-25T16:47:23Z</time></trkpt><trkpt lat="43.451385955873725" lon="10.80357345295806"><ele>94.0</ele><time>2026-04-25T16:47:24Z</time></trkpt><trkpt lat="43.451351729112616" lon="10.803782316369844"><ele>94.0</ele><time>2026-04-25T16:47:25Z</time></trkpt><trkpt lat="43.451304308790775" lon="10.803993763380657"><ele>94.0</ele><time>2026-04-25T16:47:26Z</time></trkpt><trkpt lat="43.45125098630659" lon="10.804204404383468"><ele>95.0</ele><time>2026-04-25T16:47:27Z</time></trkpt><trkpt lat="43.45119961654226" lon="10.804424551074591"><ele>96.0</ele><time>2026-04-25T16:47:28Z</time></trkpt><trkpt lat="43.451148970401626" lon="10.804646625968097"><ele>97.0</ele><time>2026-04-25T16:47:29Z</time></trkpt><trkpt lat="43.45109546893038" lon="10.80486323964041"><ele>97.0</ele><time>2026-04-25T16:47:30Z</time></trkpt><trkpt lat="43.4510469505023" lon="10.805082186675635"><ele>97.0</ele><time>2026-04-25T16:47:31Z</time></trkpt><trkpt lat="43.450995783559314" lon="10.805298893815454"><ele>97.0</ele><time>2026-04-25T16:47:32Z</time></trkpt><trkpt lat="43.45094438723668" lon="10.805512985542494"><ele>96.66666666666667</ele><time>2026-04-25T16:47:33Z</time></trkpt><trkpt lat="43.450881427028094" lon="10.805717275289915"><ele>96.33333333333334</ele><time>2026-04-25T16:47:34Z</time></trkpt><trkpt lat="43.450835562510704" lon="10.80593260302923"><ele>96.0</ele><time>2026-04-25T16:47:35Z</time></trkpt><trkpt lat="43.45079969797075" lon="10.80615308323927"><ele>95.33333333333333</ele><time>2026-04-25T16:47:36Z</time></trkpt><trkpt lat="43.45077982699495" lon="10.806382219938405"><ele>94.66666666666666</ele><time>2026-04-25T16:47:37Z</time></trkpt><trkpt lat="43.450780729877124" lon="10.806604968107195"><ele>94.0</ele><time>2026-04-25T16:47:38Z</time></trkpt><trkpt lat="43.45076761365092" lon="10.80682025695926"><ele>94.33333333333333</ele><time>2026-04-25T16:47:39Z</time></trkpt><trkpt lat="43.45075129264752" lon="10.80703558247034"><ele>94.66666666666667</ele><time>2026-04-25T16:47:40Z</time></trkpt><trkpt lat="43.450738697773374" lon="10.80725476823877"><ele>95.0</ele><time>2026-04-25T16:47:41Z</time></trkpt><trkpt lat="43.450726045782744" lon="10.807476350807745"><ele>95.0</ele><time>2026-04-25T16:47:42Z</time></trkpt><trkpt lat="43.45072059481839" lon="10.807697042893738"><ele>95.0</ele><time>2026-04-25T16:47:43Z</time></trkpt><trkpt lat="43.45070974836791" lon="10.807923489577346"><ele>95.0</ele><time>2026-04-25T16:47:44Z</time></trkpt><trkpt lat="43.450724997340686" lon="10.808148188874531"><ele>95.0</ele><time>2026-04-25T16:47:45Z</time></trkpt><trkpt lat="43.45074397800461" lon="10.808376296524314"><ele>95.0</ele><time>2026-04-25T16:47:46Z</time></trkpt><trkpt lat="43.4507792201427" lon="10.808603230478205"><ele>95.0</ele><time>2026-04-25T16:47:47Z</time></trkpt><trkpt lat="43.45080067036741" lon="10.808832335904741"><ele>95.33333333333334</ele><time>2026-04-25T16:47:48Z</time></trkpt><trkpt lat="43.450820794003846" lon="10.809059847860478"><ele>95.66666666666667</ele><time>2026-04-25T16:47:49Z</time></trkpt><trkpt lat="43.450841285680916" lon="10.809290615335916"><ele>96.0</ele><time>2026-04-25T16:47:50Z</time></trkpt><trkpt lat="43.45084536045624" lon="10.809521997247515"><ele>96.33333333333334</ele><time>2026-04-25T16:47:51Z</time></trkpt><trkpt lat="43.45086600314728" lon="10.809752333799516"><ele>96.66666666666667</ele><time>2026-04-25T16:47:52Z</time></trkpt><trkpt lat="43.45089016106503" lon="10.809984792697247"><ele>97.0</ele><time>2026-04-25T16:47:53Z</time></trkpt><trkpt lat="43.45093506041836" lon="10.810205827760646"><ele>99.0</ele><time>2026-04-25T16:47:54Z</time></trkpt><trkpt lat="43.45095788916576" lon="10.810434861602847"><ele>101.0</ele><time>2026-04-25T16:47:55Z</time></trkpt><trkpt lat="43.45100831653199" lon="10.810657241918529"><ele>103.0</ele><time>2026-04-25T16:47:56Z</time></trkpt><trkpt lat="43.45107793205731" lon="10.810865425180133"><ele>104.33333333333334</ele><time>2026-04-25T16:47:57Z</time></trkpt><trkpt lat="43.45112900685321" lon="10.811071907687824"><ele>105.66666666666666</ele><time>2026-04-25T16:47:58Z</time></trkpt><trkpt lat="43.45117915810922" lon="10.811281425212192"><ele>107.0</ele><time>2026-04-25T16:47:59Z</time></trkpt><trkpt lat="43.45122764000094" lon="10.811491507011699"><ele>107.0</ele><time>2026-04-25T16:48:00Z</time></trkpt><trkpt lat="43.45127133004061" lon="10.81168963104693"><ele>107.0</ele><time>2026-04-25T16:48:01Z</time></trkpt><trkpt lat="43.45131256502681" lon="10.811891706281278"><ele>107.0</ele><time>2026-04-25T16:48:02Z</time></trkpt><trkpt lat="43.45134653275075" lon="10.81210199040679"><ele>104.66666666666666</ele><time>2026-04-25T16:48:03Z</time></trkpt><trkpt lat="43.451364082187" lon="10.81231929990169"><ele>102.33333333333334</ele><time>2026-04-25T16:48:04Z</time></trkpt><trkpt lat="43.45137514380756" lon="10.812538809685575"><ele>100.0</ele><time>2026-04-25T16:48:05Z</time></trkpt><trkpt lat="43.451381186376565" lon="10.812763791665235"><ele>100.0</ele><time>2026-04-25T16:48:06Z</time></trkpt><trkpt lat="43.45138929304423" lon="10.812986421229805"><ele>100.0</ele><time>2026-04-25T16:48:07Z</time></trkpt><trkpt lat="43.45139672478759" lon="10.813198421701042"><ele>100.0</ele><time>2026-04-25T16:48:08Z</time></trkpt><trkpt lat="43.451400901188386" lon="10.813414529333821"><ele>100.33333333333334</ele><time>2026-04-25T16:48:09Z</time></trkpt><trkpt lat="43.45141654204631" lon="10.813629943656506"><ele>100.66666666666666</ele><time>2026-04-25T16:48:10Z</time></trkpt><trkpt lat="43.45142241399329" lon="10.813851811256898"><ele>101.0</ele><time>2026-04-25T16:48:11Z</time></trkpt><trkpt lat="43.45145193461715" lon="10.81407038800772"><ele>101.0</ele><time>2026-04-25T16:48:12Z</time></trkpt><trkpt lat="43.45148997730648" lon="10.8142936062867"><ele>101.0</ele><time>2026-04-25T16:48:13Z</time></trkpt><trkpt lat="43.451539696763646" lon="10.814515248675107"><ele>101.0</ele><time>2026-04-25T16:48:14Z</time></trkpt><trkpt lat="43.45159629405844" lon="10.814731652294013"><ele>101.0</ele><time>2026-04-25T16:48:15Z</time></trkpt><trkpt lat="43.45165410558701" lon="10.814945202295014"><ele>101.0</ele><time>2026-04-25T16:48:16Z</time></trkpt><trkpt lat="43.451712741088286" lon="10.815157916825948"><ele>101.0</ele><time>2026-04-25T16:48:17Z</time></trkpt><trkpt lat="43.4517854487029" lon="10.815363157141567"><ele>100.0</ele><time>2026-04-25T16:48:18Z</time></trkpt><trkpt lat="43.4518400702593" lon="10.815577447898258"><ele>99.0</ele><time>2026-04-25T16:48:19Z</time></trkpt><trkpt lat="43.45189551360204" lon="10.81578669334166"><ele>98.0</ele><time>2026-04-25T16:48:20Z</time></trkpt><trkpt lat="43.451951631447876" lon="10.8159927854337"><ele>98.0</ele><time>2026-04-25T16:48:21Z</time></trkpt><trkpt lat="43.45201156771924" lon="10.816200770679275"><ele>98.0</ele><time>2026-04-25T16:48:22Z</time></trkpt><trkpt lat="43.45206808794806" lon="10.81641222695913"><ele>98.0</ele><time>2026-04-25T16:48:23Z</time></trkpt><trkpt lat="43.452128233257746" lon="10.81662967753131"><ele>99.0</ele><time>2026-04-25T16:48:24Z</time></trkpt><trkpt lat="43.452188435624116" lon="10.816842609482874"><ele>100.0</ele><time>2026-04-25T16:48:25Z</time></trkpt><trkpt lat="43.45224860712775" lon="10.817059203988148"><ele>101.0</ele><time>2026-04-25T16:48:26Z</time></trkpt><trkpt lat="43.452302553066836" lon="10.817279133829787"><ele>101.0</ele><time>2026-04-25T16:48:27Z</time></trkpt><trkpt lat="43.452349003269354" lon="10.817499745575272"><ele>101.0</ele><time>2026-04-25T16:48:28Z</time></trkpt><trkpt lat="43.452392549733375" lon="10.817715736844873"><ele>101.0</ele><time>2026-04-25T16:48:29Z</time></trkpt><trkpt lat="43.45241492673853" lon="10.817941447800278"><ele>103.0</ele><time>2026-04-25T16:48:30Z</time></trkpt><trkpt lat="43.45245165246752" lon="10.818166122354343"><ele>105.0</ele><time>2026-04-25T16:48:31Z</time></trkpt><trkpt lat="43.45248767866794" lon="10.81838883284878"><ele>107.0</ele><time>2026-04-25T16:48:32Z</time></trkpt><trkpt lat="43.452523989340634" lon="10.818613301952293"><ele>109.33333333333333</ele><time>2026-04-25T16:48:33Z</time></trkpt><trkpt lat="43.45256234896491" lon="10.818834963923296"><ele>111.66666666666666</ele><time>2026-04-25T16:48:34Z</time></trkpt><trkpt lat="43.45260743255303" lon="10.819052539258786"><ele>114.0</ele><time>2026-04-25T16:48:35Z</time></trkpt><trkpt lat="43.45266207156261" lon="10.819265526364669"><ele>118.0</ele><time>2026-04-25T16:48:36Z</time></trkpt><trkpt lat="43.45272867340728" lon="10.819473338482505"><ele>122.0</ele><time>2026-04-25T16:48:37Z</time></trkpt><trkpt lat="43.45280964213761" lon="10.819671068035259"><ele>126.0</ele><time>2026-04-25T16:48:38Z</time></trkpt><trkpt lat="43.45286815983452" lon="10.81987279765065"><ele>126.0</ele><time>2026-04-25T16:48:39Z</time></trkpt><trkpt lat="43.45293147610335" lon="10.82007635787044"><ele>126.0</ele><time>2026-04-25T16:48:40Z</time></trkpt><trkpt lat="43.452983006273904" lon="10.820286190124614"><ele>126.0</ele><time>2026-04-25T16:48:41Z</time></trkpt><trkpt lat="43.45303738296713" lon="10.820509714756762"><ele>119.33333333333334</ele><time>2026-04-25T16:48:42Z</time></trkpt><trkpt lat="43.45309183729581" lon="10.820727338482623"><ele>112.66666666666667</ele><time>2026-04-25T16:48:43Z</time></trkpt><trkpt lat="43.45314528387848" lon="10.82094563502968"><ele>106.0</ele><time>2026-04-25T16:48:44Z</time></trkpt><trkpt lat="43.453194927895524" lon="10.821170775311325"><ele>106.0</ele><time>2026-04-25T16:48:45Z</time></trkpt><trkpt lat="43.453252958493074" lon="10.821397166764916"><ele>106.0</ele><time>2026-04-25T16:48:46Z</time></trkpt><trkpt lat="43.45330607191766" lon="10.821622475730742"><ele>106.0</ele><time>2026-04-25T16:48:47Z</time></trkpt><trkpt lat="43.453364132721184" lon="10.821844531932944"><ele>109.0</ele><time>2026-04-25T16:48:48Z</time></trkpt><trkpt lat="43.45341929158109" lon="10.822064989143584"><ele>112.0</ele><time>2026-04-25T16:48:49Z</time></trkpt><trkpt lat="43.45347564236108" lon="10.82228920350867"><ele>115.0</ele><time>2026-04-25T16:48:50Z</time></trkpt><trkpt lat="43.45352996820669" lon="10.82250419335539"><ele>118.66666666666667</ele><time>2026-04-25T16:48:51Z</time></trkpt><trkpt lat="43.45358102477315" lon="10.822713378593784"><ele>122.33333333333334</ele><time>2026-04-25T16:48:52Z</time></trkpt><trkpt lat="43.45363002379361" lon="10.822922109200308"><ele>126.0</ele><time>2026-04-25T16:48:53Z</time></trkpt><trkpt lat="43.453675707174426" lon="10.823135933845862"><ele>126.0</ele><time>2026-04-25T16:48:54Z</time></trkpt><trkpt lat="43.45371825645494" lon="10.823355555533391"><ele>126.0</ele><time>2026-04-25T16:48:55Z</time></trkpt><trkpt lat="43.453756896196616" lon="10.823579667720923"><ele>126.0</ele><time>2026-04-25T16:48:56Z</time></trkpt><trkpt lat="43.45379199708981" lon="10.82380447877595"><ele>117.66666666666666</ele><time>2026-04-25T16:48:57Z</time></trkpt><trkpt lat="43.453822367573295" lon="10.824032206969013"><ele>109.33333333333333</ele><time>2026-04-25T16:48:58Z</time></trkpt><trkpt lat="43.45385128246863" lon="10.82425450471148"><ele>101.0</ele><time>2026-04-25T16:48:59Z</time></trkpt><trkpt lat="43.45387893625412" lon="10.824479240641573"><ele>101.0</ele><time>2026-04-25T16:49:00Z</time></trkpt><trkpt lat="43.45390494604181" lon="10.82470462714558"><ele>101.0</ele><time>2026-04-25T16:49:01Z</time></trkpt><trkpt lat="43.45393586085106" lon="10.82492548795958"><ele>101.0</ele><time>2026-04-25T16:49:02Z</time></trkpt><trkpt lat="43.45394943847366" lon="10.825154157090148"><ele>102.33333333333333</ele><time>2026-04-25T16:49:03Z</time></trkpt><trkpt lat="43.45397797598158" lon="10.825380383607303"><ele>103.66666666666666</ele><time>2026-04-25T16:49:04Z</time></trkpt><trkpt lat="43.45400745859579" lon="10.825610875682717"><ele>105.0</ele><time>2026-04-25T16:49:05Z</time></trkpt><trkpt lat="43.45403532970855" lon="10.82582876925585"><ele>105.0</ele><time>2026-04-25T16:49:06Z</time></trkpt><trkpt lat="43.45406134877359" lon="10.826032183747762"><ele>105.0</ele><time>2026-04-25T16:49:07Z</time></trkpt><trkpt lat="43.45408657369177" lon="10.826229389493026"><ele>105.0</ele><time>2026-04-25T16:49:08Z</time></trkpt><trkpt lat="43.45411142343582" lon="10.826423660890292"><ele>105.0</ele><time>2026-04-25T16:49:09Z</time></trkpt><trkpt lat="43.45413717039358" lon="10.826619015019569"><ele>105.0</ele><time>2026-04-25T16:49:10Z</time></trkpt><trkpt lat="43.454160294753464" lon="10.826795993843689"><ele>105.0</ele><time>2026-04-25T16:49:11Z</time></trkpt><trkpt lat="43.454207235073625" lon="10.826965797890939"><ele>105.0</ele><time>2026-04-25T16:49:12Z</time></trkpt><trkpt lat="43.454228643005024" lon="10.827142378152894"><ele>105.0</ele><time>2026-04-25T16:49:13Z</time></trkpt><trkpt lat="43.45424810187431" lon="10.82732048648913"><ele>105.25</ele><time>2026-04-25T16:49:14Z</time></trkpt><trkpt lat="43.45425802266414" lon="10.827489189854292"><ele>105.5</ele><time>2026-04-25T16:49:15Z</time></trkpt><trkpt lat="43.45426206533316" lon="10.827655541308694"><ele>105.75</ele><time>2026-04-25T16:49:16Z</time></trkpt><trkpt lat="43.45425011307806" lon="10.82782863452751"><ele>106.0</ele><time>2026-04-25T16:49:17Z</time></trkpt><trkpt lat="43.4542222073553" lon="10.82800725613145"><ele>106.0</ele><time>2026-04-25T16:49:18Z</time></trkpt><trkpt lat="43.454163794180715" lon="10.828196554146718"><ele>106.0</ele><time>2026-04-25T16:49:19Z</time></trkpt><trkpt lat="43.45412886231914" lon="10.828351852342035"><ele>106.0</ele><time>2026-04-25T16:49:20Z</time></trkpt><trkpt lat="43.454097787879576" lon="10.828522181326454"><ele>106.0</ele><time>2026-04-25T16:49:21Z</time></trkpt><trkpt lat="43.45407716321842" lon="10.828702522192238"><ele>105.75</ele><time>2026-04-25T16:49:22Z</time></trkpt><trkpt lat="43.45407285823656" lon="10.828895988106673"><ele>105.5</ele><time>2026-04-25T16:49:23Z</time></trkpt><trkpt lat="43.45408052754561" lon="10.829081960592907"><ele>105.25</ele><time>2026-04-25T16:49:24Z</time></trkpt><trkpt lat="43.45408956613111" lon="10.829270419299608"><ele>105.0</ele><time>2026-04-25T16:49:25Z</time></trkpt><trkpt lat="43.454097703456505" lon="10.829440086406589"><ele>105.0</ele><time>2026-04-25T16:49:26Z</time></trkpt><trkpt lat="43.4541141060442" lon="10.829607007119467"><ele>105.0</ele><time>2026-04-25T16:49:27Z</time></trkpt><trkpt lat="43.45411496923705" lon="10.829774971927957"><ele>105.0</ele><time>2026-04-25T16:49:28Z</time></trkpt><trkpt lat="43.45412062315491" lon="10.82992573555322"><ele>105.0</ele><time>2026-04-25T16:49:29Z</time></trkpt><trkpt lat="43.45413141173732" lon="10.830061347201427"><ele>104.83333333333333</ele><time>2026-04-25T16:49:30Z</time></trkpt><trkpt lat="43.45415019489184" lon="10.83017863439666"><ele>104.66666666666666</ele><time>2026-04-25T16:49:31Z</time></trkpt><trkpt lat="43.454189553730615" lon="10.830282254105516"><ele>104.5</ele><time>2026-04-25T16:49:32Z</time></trkpt><trkpt lat="43.45424546571747" lon="10.830374697776422"><ele>104.33333333333333</ele><time>2026-04-25T16:49:33Z</time></trkpt><trkpt lat="43.454314426120234" lon="10.830439185661591"><ele>104.16666666666666</ele><time>2026-04-25T16:49:34Z</time></trkpt><trkpt lat="43.454395994872954" lon="10.830478939096395"><ele>104.0</ele><time>2026-04-25T16:49:35Z</time></trkpt><trkpt lat="43.45448962311011" lon="10.830490680425456"><ele>104.0</ele><time>2026-04-25T16:49:36Z</time></trkpt><trkpt lat="43.454595749513594" lon="10.830480045474532"><ele>104.0</ele><time>2026-04-25T16:49:37Z</time></trkpt><trkpt lat="43.45470885251626" lon="10.830454902395577"><ele>104.0</ele><time>2026-04-25T16:49:38Z</time></trkpt><trkpt lat="43.45482124253812" lon="10.830422719676765"><ele>104.0</ele><time>2026-04-25T16:49:39Z</time></trkpt><trkpt lat="43.454924736410355" lon="10.83039157122371"><ele>104.0</ele><time>2026-04-25T16:49:40Z</time></trkpt><trkpt lat="43.455018971076186" lon="10.830364355949142"><ele>103.6</ele><time>2026-04-25T16:49:41Z</time></trkpt><trkpt lat="43.455103187144324" lon="10.830338924405563"><ele>103.2</ele><time>2026-04-25T16:49:42Z</time></trkpt><trkpt lat="43.45517795185108" lon="10.830311129488729"><ele>102.8</ele><time>2026-04-25T16:49:43Z</time></trkpt><trkpt lat="43.455270318860464" lon="10.830273739897851"><ele>102.39999999999999</ele><time>2026-04-25T16:49:45Z</time></trkpt><trkpt lat="43.45537512041257" lon="10.830201424746729"><ele>102.0</ele><time>2026-04-25T16:50:01Z</time></trkpt><trkpt lat="43.455507167629555" lon="10.83012963263298"><ele>102.0</ele><time>2026-04-25T16:50:03Z</time></trkpt><trkpt lat="43.45557807323989" lon="10.830106054215827"><ele>102.0</ele><time>2026-04-25T16:50:04Z</time></trkpt><trkpt lat="43.455703452459325" lon="10.830053181452955"><ele>102.0</ele><time>2026-04-25T16:50:06Z</time></trkpt><trkpt lat="43.45577561375815" lon="10.830020762200926"><ele>102.0</ele><time>2026-04-25T16:50:07Z</time></trkpt><trkpt lat="43.455855825337956" lon="10.829985874781423"><ele>102.0</ele><time>2026-04-25T16:50:08Z</time></trkpt><trkpt lat="43.45594177616249" lon="10.829953245036604"><ele>102.0</ele><time>2026-04-25T16:50:09Z</time></trkpt><trkpt lat="43.45603682206334" lon="10.829917435959501"><ele>102.0</ele><time>2026-04-25T16:50:10Z</time></trkpt><trkpt lat="43.456142143273176" lon="10.829885474632174"><ele>102.0</ele><time>2026-04-25T16:50:11Z</time></trkpt><trkpt lat="43.45624198417114" lon="10.829852493231016"><ele>102.0</ele><time>2026-04-25T16:50:12Z</time></trkpt><trkpt lat="43.45633481265982" lon="10.829828504881128"><ele>102.0</ele><time>2026-04-25T16:50:13Z</time></trkpt><trkpt lat="43.45642584694678" lon="10.82980684295526"><ele>101.66666666666667</ele><time>2026-04-25T16:50:14Z</time></trkpt><trkpt lat="43.45651568014338" lon="10.829788895576838"><ele>101.33333333333334</ele><time>2026-04-25T16:50:15Z</time></trkpt><trkpt lat="43.45659797858637" lon="10.829775689374104"><ele>101.0</ele><time>2026-04-25T16:50:16Z</time></trkpt><trkpt lat="43.456675142409594" lon="10.829773531916628"><ele>100.66666666666667</ele><time>2026-04-25T16:50:17Z</time></trkpt><trkpt lat="43.45674199190457" lon="10.829791118496225"><ele>100.33333333333334</ele><time>2026-04-25T16:50:18Z</time></trkpt><trkpt lat="43.45684628639079" lon="10.829831767539853"><ele>100.0</ele><time>2026-04-25T16:50:20Z</time></trkpt><trkpt lat="43.45691156684043" lon="10.829916640131438"><ele>100.0</ele><time>2026-04-25T16:50:22Z</time></trkpt><trkpt lat="43.45705871135158" lon="10.829816162029351"><ele>100.0</ele><time>2026-04-25T16:50:24Z</time></trkpt><trkpt lat="43.45712805786077" lon="10.829789625325809"><ele>100.0</ele><time>2026-04-25T16:50:25Z</time></trkpt><trkpt lat="43.45721313942126" lon="10.82979159302429"><ele>100.0</ele><time>2026-04-25T16:50:26Z</time></trkpt><trkpt lat="43.45730569670518" lon="10.829813275371114"><ele>100.0</ele><time>2026-04-25T16:50:27Z</time></trkpt><trkpt lat="43.45740333310349" lon="10.829845019061022"><ele>100.25</ele><time>2026-04-25T16:50:28Z</time></trkpt><trkpt lat="43.457515418233164" lon="10.829878330098612"><ele>100.5</ele><time>2026-04-25T16:50:29Z</time></trkpt><trkpt lat="43.45763400072726" lon="10.829921436421126"><ele>100.75</ele><time>2026-04-25T16:50:30Z</time></trkpt><trkpt lat="43.45775450447638" lon="10.829965215755417"><ele>101.0</ele><time>2026-04-25T16:50:31Z</time></trkpt><trkpt lat="43.45788176720316" lon="10.830016472723692"><ele>101.0</ele><time>2026-04-25T16:50:32Z</time></trkpt><trkpt lat="43.45801432399575" lon="10.830076914848584"><ele>101.0</ele><time>2026-04-25T16:50:33Z</time></trkpt><trkpt lat="43.45814666359198" lon="10.830141515748911"><ele>101.0</ele><time>2026-04-25T16:50:34Z</time></trkpt><trkpt lat="43.458286116809205" lon="10.830199636501908"><ele>101.0</ele><time>2026-04-25T16:50:35Z</time></trkpt><trkpt lat="43.4584250867855" lon="10.83026109082413"><ele>101.0</ele><time>2026-04-25T16:50:36Z</time></trkpt><trkpt lat="43.458568590436954" lon="10.830320843873599"><ele>101.0</ele><time>2026-04-25T16:50:37Z</time></trkpt><trkpt lat="43.4587150231719" lon="10.830379076705102"><ele>101.0</ele><time>2026-04-25T16:50:38Z</time></trkpt><trkpt lat="43.458862698764136" lon="10.830440960553611"><ele>104.33333333333333</ele><time>2026-04-25T16:50:39Z</time></trkpt><trkpt lat="43.45901251481447" lon="10.830504073477666"><ele>107.66666666666666</ele><time>2026-04-25T16:50:40Z</time></trkpt><trkpt lat="43.4591644006082" lon="10.830566980115096"><ele>111.0</ele><time>2026-04-25T16:50:41Z</time></trkpt><trkpt lat="43.45930545163296" lon="10.830632659690805"><ele>111.0</ele><time>2026-04-25T16:50:42Z</time></trkpt><trkpt lat="43.45944766260858" lon="10.830695235453009"><ele>111.0</ele><time>2026-04-25T16:50:43Z</time></trkpt><trkpt lat="43.45959158119613" lon="10.830758298014546"><ele>111.0</ele><time>2026-04-25T16:50:44Z</time></trkpt><trkpt lat="43.45973285650836" lon="10.830820140809825"><ele>111.0</ele><time>2026-04-25T16:50:45Z</time></trkpt><trkpt lat="43.459874049538215" lon="10.830880035643272"><ele>113.0</ele><time>2026-04-25T16:50:46Z</time></trkpt><trkpt lat="43.4600109743536" lon="10.830942557328722"><ele>115.0</ele><time>2026-04-25T16:50:47Z</time></trkpt><trkpt lat="43.460145054448965" lon="10.831003992030062"><ele>117.0</ele><time>2026-04-25T16:50:48Z</time></trkpt><trkpt lat="43.46027736972023" lon="10.83106315672453"><ele>119.0</ele><time>2026-04-25T16:50:49Z</time></trkpt><trkpt lat="43.46040904472141" lon="10.831119191671815"><ele>122.25</ele><time>2026-04-25T16:50:50Z</time></trkpt><trkpt lat="43.46053845550739" lon="10.83117412026435"><ele>125.5</ele><time>2026-04-25T16:50:51Z</time></trkpt><trkpt lat="43.460666308235176" lon="10.831229823127059"><ele>128.75</ele><time>2026-04-25T16:50:52Z</time></trkpt><trkpt lat="43.46079547841305" lon="10.83128663436153"><ele>132.0</ele><time>2026-04-25T16:50:53Z</time></trkpt><trkpt lat="43.460927729142334" lon="10.831344334628465"><ele>132.0</ele><time>2026-04-25T16:50:54Z</time></trkpt><trkpt lat="43.46106010397179" lon="10.831401857114662"><ele>132.0</ele><time>2026-04-25T16:50:55Z</time></trkpt><trkpt lat="43.461195084507864" lon="10.83146276009744"><ele>132.0</ele><time>2026-04-25T16:50:56Z</time></trkpt><trkpt lat="43.46133016016546" lon="10.831525284522428"><ele>132.0</ele><time>2026-04-25T16:50:57Z</time></trkpt><trkpt lat="43.46146556640887" lon="10.831587517573759"><ele>132.0</ele><time>2026-04-25T16:50:58Z</time></trkpt><trkpt lat="43.46160264427882" lon="10.83164566722884"><ele>132.0</ele><time>2026-04-25T16:50:59Z</time></trkpt><trkpt lat="43.46173885120963" lon="10.831705139723535"><ele>132.0</ele><time>2026-04-25T16:51:00Z</time></trkpt><trkpt lat="43.46187174421628" lon="10.831765915162592"><ele>132.0</ele><time>2026-04-25T16:51:01Z</time></trkpt><trkpt lat="43.46201134524075" lon="10.831826513043154"><ele>132.5</ele><time>2026-04-25T16:51:02Z</time></trkpt><trkpt lat="43.46215017129464" lon="10.83188711982487"><ele>133.0</ele><time>2026-04-25T16:51:03Z</time></trkpt><trkpt lat="43.462287635073665" lon="10.831950669282131"><ele>133.5</ele><time>2026-04-25T16:51:04Z</time></trkpt><trkpt lat="43.46242702419578" lon="10.832006645634118"><ele>134.0</ele><time>2026-04-25T16:51:05Z</time></trkpt><trkpt lat="43.46256964315883" lon="10.832066867579194"><ele>134.0</ele><time>2026-04-25T16:51:06Z</time></trkpt><trkpt lat="43.46270932601206" lon="10.832119673433134"><ele>134.0</ele><time>2026-04-25T16:51:07Z</time></trkpt><trkpt lat="43.462855209093725" lon="10.83216638969078"><ele>134.0</ele><time>2026-04-25T16:51:08Z</time></trkpt><trkpt lat="43.4630019970321" lon="10.83220792871365"><ele>134.0</ele><time>2026-04-25T16:51:09Z</time></trkpt><trkpt lat="43.463149080732606" lon="10.83224283637703"><ele>137.5</ele><time>2026-04-25T16:51:10Z</time></trkpt><trkpt lat="43.463295210624544" lon="10.832276084790625"><ele>141.0</ele><time>2026-04-25T16:51:11Z</time></trkpt><trkpt lat="43.46343829876329" lon="10.832311099985812"><ele>144.5</ele><time>2026-04-25T16:51:12Z</time></trkpt><trkpt lat="43.46357769771124" lon="10.832346266376186"><ele>148.0</ele><time>2026-04-25T16:51:13Z</time></trkpt><trkpt lat="43.463716814167206" lon="10.832378585426953"><ele>150.25</ele><time>2026-04-25T16:51:14Z</time></trkpt><trkpt lat="43.46385178209441" lon="10.832414327233163"><ele>152.5</ele><time>2026-04-25T16:51:15Z</time></trkpt><trkpt lat="43.4639809595226" lon="10.832455166616578"><ele>154.75</ele><time>2026-04-25T16:51:16Z</time></trkpt><trkpt lat="43.46410973194112" lon="10.832511234436954"><ele>157.0</ele><time>2026-04-25T16:51:17Z</time></trkpt><trkpt lat="43.46423528972498" lon="10.832590452071067"><ele>157.75</ele><time>2026-04-25T16:51:18Z</time></trkpt><trkpt lat="43.464360290751095" lon="10.832677122085622"><ele>158.5</ele><time>2026-04-25T16:51:19Z</time></trkpt><trkpt lat="43.46447888665015" lon="10.832782089604578"><ele>159.25</ele><time>2026-04-25T16:51:20Z</time></trkpt><trkpt lat="43.46458848945974" lon="10.832900661435994"><ele>160.0</ele><time>2026-04-25T16:51:21Z</time></trkpt><trkpt lat="43.46468581746263" lon="10.83303476144802"><ele>160.0</ele><time>2026-04-25T16:51:22Z</time></trkpt><trkpt lat="43.46477974296444" lon="10.833185775853272"><ele>160.0</ele><time>2026-04-25T16:51:23Z</time></trkpt><trkpt lat="43.464870949942046" lon="10.833344753339771"><ele>160.0</ele><time>2026-04-25T16:51:24Z</time></trkpt><trkpt lat="43.4649513637222" lon="10.83351220121438"><ele>160.0</ele><time>2026-04-25T16:51:25Z</time></trkpt><trkpt lat="43.46501640583949" lon="10.833684902710798"><ele>160.75</ele><time>2026-04-25T16:51:26Z</time></trkpt><trkpt lat="43.46510083328222" lon="10.83384623844165"><ele>161.5</ele><time>2026-04-25T16:51:27Z</time></trkpt><trkpt lat="43.46518578481767" lon="10.83401467816854"><ele>162.25</ele><time>2026-04-25T16:51:28Z</time></trkpt><trkpt lat="43.46526904232945" lon="10.834188047855625"><ele>163.0</ele><time>2026-04-25T16:51:29Z</time></trkpt><trkpt lat="43.465351627626156" lon="10.834359040721955"><ele>163.33333333333334</ele><time>2026-04-25T16:51:30Z</time></trkpt><trkpt lat="43.465435634848" lon="10.834529679719177"><ele>163.66666666666666</ele><time>2026-04-25T16:51:31Z</time></trkpt><trkpt lat="43.46552151323119" lon="10.83470343731716"><ele>164.0</ele><time>2026-04-25T16:51:32Z</time></trkpt><trkpt lat="43.46560546201931" lon="10.83487713072134"><ele>164.75</ele><time>2026-04-25T16:51:33Z</time></trkpt><trkpt lat="43.46568862351916" lon="10.835048816046974"><ele>165.5</ele><time>2026-04-25T16:51:34Z</time></trkpt><trkpt lat="43.465773366483845" lon="10.835215136115671"><ele>166.25</ele><time>2026-04-25T16:51:35Z</time></trkpt><trkpt lat="43.465849955535916" lon="10.835369148003917"><ele>167.0</ele><time>2026-04-25T16:51:36Z</time></trkpt><trkpt lat="43.46592283822969" lon="10.83551452209104"><ele>169.0</ele><time>2026-04-25T16:51:37Z</time></trkpt><trkpt lat="43.46599534043136" lon="10.835651375854445"><ele>171.0</ele><time>2026-04-25T16:51:38Z</time></trkpt><trkpt lat="43.4660736695173" lon="10.835796573269256"><ele>173.0</ele><time>2026-04-25T16:51:39Z</time></trkpt><trkpt lat="43.46615925531389" lon="10.83593669667228"><ele>175.0</ele><time>2026-04-25T16:51:40Z</time></trkpt><trkpt lat="43.466259483225684" lon="10.836066768137927"><ele>175.75</ele><time>2026-04-25T16:51:41Z</time></trkpt><trkpt lat="43.46636278070847" lon="10.836193516002348"><ele>176.5</ele><time>2026-04-25T16:51:42Z</time></trkpt><trkpt lat="43.46646923386307" lon="10.8363193829412"><ele>177.25</ele><time>2026-04-25T16:51:43Z</time></trkpt><trkpt lat="43.46658372955281" lon="10.836428131009903"><ele>178.0</ele><time>2026-04-25T16:51:44Z</time></trkpt><trkpt lat="43.46670539666393" lon="10.836526606851839"><ele>178.0</ele><time>2026-04-25T16:51:45Z</time></trkpt><trkpt lat="43.46682899058374" lon="10.83661215672284"><ele>178.0</ele><time>2026-04-25T16:51:46Z</time></trkpt><trkpt lat="43.46695892923184" lon="10.836686350365593"><ele>178.0</ele><time>2026-04-25T16:51:47Z</time></trkpt><trkpt lat="43.467090274832735" lon="10.836750364542679"><ele>178.0</ele><time>2026-04-25T16:51:48Z</time></trkpt><trkpt lat="43.46721692761946" lon="10.836809004967066"><ele>180.5</ele><time>2026-04-25T16:51:49Z</time></trkpt><trkpt lat="43.4673353982471" lon="10.836858896607463"><ele>183.0</ele><time>2026-04-25T16:51:50Z</time></trkpt><trkpt lat="43.467443199573204" lon="10.836901932661306"><ele>185.5</ele><time>2026-04-25T16:51:51Z</time></trkpt><trkpt lat="43.46755635439466" lon="10.836948532374848"><ele>188.0</ele><time>2026-04-25T16:51:52Z</time></trkpt><trkpt lat="43.46766950902181" lon="10.837010964126163"><ele>188.0</ele><time>2026-04-25T16:51:53Z</time></trkpt><trkpt lat="43.467784507641575" lon="10.837083661528137"><ele>188.0</ele><time>2026-04-25T16:51:54Z</time></trkpt><trkpt lat="43.4678942440294" lon="10.837168044331703"><ele>188.0</ele><time>2026-04-25T16:51:55Z</time></trkpt><trkpt lat="43.46800407763499" lon="10.837271657409236"><ele>188.0</ele><time>2026-04-25T16:51:56Z</time></trkpt><trkpt lat="43.468110097566566" lon="10.837388972838342"><ele>189.5</ele><time>2026-04-25T16:51:57Z</time></trkpt><trkpt lat="43.4682076316736" lon="10.837506571498658"><ele>191.0</ele><time>2026-04-25T16:51:58Z</time></trkpt><trkpt lat="43.468288018802525" lon="10.837628396118198"><ele>192.5</ele><time>2026-04-25T16:51:59Z</time></trkpt><trkpt lat="43.4683713161463" lon="10.837763288352315"><ele>194.0</ele><time>2026-04-25T16:52:00Z</time></trkpt><trkpt lat="43.46845488086981" lon="10.837909328242327"><ele>194.0</ele><time>2026-04-25T16:52:01Z</time></trkpt><trkpt lat="43.46852613065631" lon="10.838057222107453"><ele>194.0</ele><time>2026-04-25T16:52:02Z</time></trkpt><trkpt lat="43.46858271930455" lon="10.838199685185309"><ele>194.0</ele><time>2026-04-25T16:52:03Z</time></trkpt><trkpt lat="43.46863383552487" lon="10.83833421599066"><ele>194.0</ele><time>2026-04-25T16:52:04Z</time></trkpt><trkpt lat="43.468679649943674" lon="10.83846214046657"><ele>195.0</ele><time>2026-04-25T16:52:05Z</time></trkpt><trkpt lat="43.46871685924674" lon="10.838587127942223"><ele>196.0</ele><time>2026-04-25T16:52:06Z</time></trkpt><trkpt lat="43.46875503915253" lon="10.838724326298854"><ele>197.0</ele><time>2026-04-25T16:52:07Z</time></trkpt><trkpt lat="43.468797809303794" lon="10.838867456996866"><ele>198.0</ele><time>2026-04-25T16:52:08Z</time></trkpt><trkpt lat="43.4688452468792" lon="10.839017787892496"><ele>199.0</ele><time>2026-04-25T16:52:09Z</time></trkpt><trkpt lat="43.46889452844165" lon="10.839172556646563"><ele>197.0</ele><time>2026-04-25T16:52:10Z</time></trkpt><trkpt lat="43.46894235964317" lon="10.839332976264046"><ele>195.0</ele><time>2026-04-25T16:52:11Z</time></trkpt><trkpt lat="43.468989536480144" lon="10.839498600037603"><ele>193.0</ele><time>2026-04-25T16:52:12Z</time></trkpt><trkpt lat="43.46903889896615" lon="10.839671437036909"><ele>191.0</ele><time>2026-04-25T16:52:13Z</time></trkpt><trkpt lat="43.469091931023705" lon="10.839842305638781"><ele>191.0</ele><time>2026-04-25T16:52:14Z</time></trkpt><trkpt lat="43.469147984809034" lon="10.840015598972391"><ele>191.0</ele><time>2026-04-25T16:52:15Z</time></trkpt><trkpt lat="43.46920167121396" lon="10.840190698876064"><ele>191.0</ele><time>2026-04-25T16:52:16Z</time></trkpt><trkpt lat="43.469250108388856" lon="10.840349310460619"><ele>191.0</ele><time>2026-04-25T16:52:17Z</time></trkpt><trkpt lat="43.4692952434206" lon="10.840493508881298"><ele>191.4</ele><time>2026-04-25T16:52:18Z</time></trkpt><trkpt lat="43.4693356792622" lon="10.84063547675784"><ele>191.8</ele><time>2026-04-25T16:52:19Z</time></trkpt><trkpt lat="43.469370045690994" lon="10.840778312752342"><ele>192.20000000000002</ele><time>2026-04-25T16:52:20Z</time></trkpt><trkpt lat="43.46938045584184" lon="10.84091710858652"><ele>192.60000000000002</ele><time>2026-04-25T16:52:21Z</time></trkpt><trkpt lat="43.4693822032449" lon="10.841057906911985"><ele>193.0</ele><time>2026-04-25T16:52:22Z</time></trkpt><trkpt lat="43.469362712706115" lon="10.84121042080643"><ele>193.0</ele><time>2026-04-25T16:52:23Z</time></trkpt><trkpt lat="43.469307353243515" lon="10.841347763657762"><ele>193.0</ele><time>2026-04-25T16:52:24Z</time></trkpt><trkpt lat="43.46926053136477" lon="10.84150915589229"><ele>193.0</ele><time>2026-04-25T16:52:25Z</time></trkpt><trkpt lat="43.469201726974156" lon="10.841642472331786"><ele>193.0</ele><time>2026-04-25T16:52:26Z</time></trkpt><trkpt lat="43.46915571540466" lon="10.841776396791246"><ele>192.75</ele><time>2026-04-25T16:52:27Z</time></trkpt><trkpt lat="43.46912051512673" lon="10.841924849020607"><ele>192.5</ele><time>2026-04-25T16:52:28Z</time></trkpt><trkpt lat="43.46909128804726" lon="10.842086875423778"><ele>192.25</ele><time>2026-04-25T16:52:29Z</time></trkpt><trkpt lat="43.46910008031521" lon="10.842264346646303"><ele>192.0</ele><time>2026-04-25T16:52:30Z</time></trkpt><trkpt lat="43.469136776095596" lon="10.84244000570113"><ele>192.0</ele><time>2026-04-25T16:52:31Z</time></trkpt><trkpt lat="43.46918288957493" lon="10.842610475815219"><ele>192.0</ele><time>2026-04-25T16:52:32Z</time></trkpt><trkpt lat="43.46922990327678" lon="10.842783258111803"><ele>192.0</ele><time>2026-04-25T16:52:33Z</time></trkpt><trkpt lat="43.46927870649026" lon="10.842962613851325"><ele>192.0</ele><time>2026-04-25T16:52:34Z</time></trkpt><trkpt lat="43.469340471992155" lon="10.843133424776347"><ele>191.75</ele><time>2026-04-25T16:52:35Z</time></trkpt><trkpt lat="43.469380544128114" lon="10.843304766858713"><ele>191.5</ele><time>2026-04-25T16:52:36Z</time></trkpt><trkpt lat="43.46942595885678" lon="10.843475764643898"><ele>191.25</ele><time>2026-04-25T16:52:37Z</time></trkpt><trkpt lat="43.46946839485825" lon="10.843636762802317"><ele>191.0</ele><time>2026-04-25T16:52:38Z</time></trkpt><trkpt lat="43.46949533763638" lon="10.843805522383903"><ele>189.5</ele><time>2026-04-25T16:52:39Z</time></trkpt><trkpt lat="43.4695146731249" lon="10.843981207174618"><ele>188.0</ele><time>2026-04-25T16:52:40Z</time></trkpt><trkpt lat="43.46952736081539" lon="10.84416520758517"><ele>186.5</ele><time>2026-04-25T16:52:41Z</time></trkpt><trkpt lat="43.46953346206041" lon="10.844350362044521"><ele>185.0</ele><time>2026-04-25T16:52:42Z</time></trkpt><trkpt lat="43.469525851140936" lon="10.844537591930548"><ele>185.0</ele><time>2026-04-25T16:52:43Z</time></trkpt><trkpt lat="43.46951439501784" lon="10.844727754470057"><ele>185.0</ele><time>2026-04-25T16:52:44Z</time></trkpt><trkpt lat="43.46950521682882" lon="10.844912230202041"><ele>185.0</ele><time>2026-04-25T16:52:45Z</time></trkpt><trkpt lat="43.469486710321064" lon="10.845092966493079"><ele>185.0</ele><time>2026-04-25T16:52:46Z</time></trkpt><trkpt lat="43.469480474212574" lon="10.845274289506564"><ele>184.25</ele><time>2026-04-25T16:52:47Z</time></trkpt><trkpt lat="43.469472166019976" lon="10.845442059141844"><ele>183.5</ele><time>2026-04-25T16:52:48Z</time></trkpt><trkpt lat="43.46946620585564" lon="10.845599040434516"><ele>182.75</ele><time>2026-04-25T16:52:49Z</time></trkpt><trkpt lat="43.46947042458899" lon="10.84575095244467"><ele>182.0</ele><time>2026-04-25T16:52:50Z</time></trkpt><trkpt lat="43.46946920655326" lon="10.845894715957032"><ele>179.5</ele><time>2026-04-25T16:52:51Z</time></trkpt><trkpt lat="43.46950232338469" lon="10.8460424088555"><ele>177.0</ele><time>2026-04-25T16:52:52Z</time></trkpt><trkpt lat="43.46955236939912" lon="10.846192293386641"><ele>174.5</ele><time>2026-04-25T16:52:53Z</time></trkpt><trkpt lat="43.469635956157134" lon="10.84632637771108"><ele>172.0</ele><time>2026-04-25T16:52:54Z</time></trkpt><trkpt lat="43.46970970565269" lon="10.84647500777118"><ele>176.5</ele><time>2026-04-25T16:52:55Z</time></trkpt><trkpt lat="43.46979027665271" lon="10.84662105287571"><ele>181.0</ele><time>2026-04-25T16:52:56Z</time></trkpt><trkpt lat="43.469870592189075" lon="10.846769875024412"><ele>185.5</ele><time>2026-04-25T16:52:57Z</time></trkpt><trkpt lat="43.46994707324386" lon="10.846924195648452"><ele>190.0</ele><time>2026-04-25T16:52:58Z</time></trkpt><trkpt lat="43.47002029680906" lon="10.847084073861977"><ele>190.0</ele><time>2026-04-25T16:52:59Z</time></trkpt><trkpt lat="43.47009273471928" lon="10.847243588115745"><ele>190.0</ele><time>2026-04-25T16:53:00Z</time></trkpt><trkpt lat="43.470161346907695" lon="10.84740863659618"><ele>190.0</ele><time>2026-04-25T16:53:01Z</time></trkpt><trkpt lat="43.470225472030776" lon="10.84757899208097"><ele>190.0</ele><time>2026-04-25T16:53:02Z</time></trkpt><trkpt lat="43.47028396769704" lon="10.847755449765762"><ele>187.75</ele><time>2026-04-25T16:53:03Z</time></trkpt><trkpt lat="43.47033769247157" lon="10.84792617789058"><ele>185.5</ele><time>2026-04-25T16:53:04Z</time></trkpt><trkpt lat="43.47038861080424" lon="10.84809732986518"><ele>183.25</ele><time>2026-04-25T16:53:05Z</time></trkpt><trkpt lat="43.470433269743744" lon="10.848268809614147"><ele>181.0</ele><time>2026-04-25T16:53:06Z</time></trkpt><trkpt lat="43.47049146899596" lon="10.848430720517744"><ele>186.25</ele><time>2026-04-25T16:53:07Z</time></trkpt><trkpt lat="43.47054022879344" lon="10.84860645622367"><ele>191.5</ele><time>2026-04-25T16:53:08Z</time></trkpt><trkpt lat="43.470579760025736" lon="10.848783340764877"><ele>196.75</ele><time>2026-04-25T16:53:09Z</time></trkpt><trkpt lat="43.470627817999265" lon="10.848955051717777"><ele>202.0</ele><time>2026-04-25T16:53:10Z</time></trkpt><trkpt lat="43.470674284990174" lon="10.849128893192239"><ele>200.25</ele><time>2026-04-25T16:53:11Z</time></trkpt><trkpt lat="43.4707200738839" lon="10.849302280844842"><ele>198.5</ele><time>2026-04-25T16:53:12Z</time></trkpt><trkpt lat="43.47076619002935" lon="10.849482232852674"><ele>196.75</ele><time>2026-04-25T16:53:13Z</time></trkpt><trkpt lat="43.47081213585975" lon="10.849664001402672"><ele>195.0</ele><time>2026-04-25T16:53:14Z</time></trkpt><trkpt lat="43.47085762892608" lon="10.84984650305071"><ele>195.0</ele><time>2026-04-25T16:53:15Z</time></trkpt><trkpt lat="43.47089727752789" lon="10.85003194816183"><ele>195.0</ele><time>2026-04-25T16:53:16Z</time></trkpt><trkpt lat="43.47093920759555" lon="10.850217568409732"><ele>195.0</ele><time>2026-04-25T16:53:17Z</time></trkpt><trkpt lat="43.47098023665402" lon="10.850395621515794"><ele>195.0</ele><time>2026-04-25T16:53:18Z</time></trkpt><trkpt lat="43.47101943025073" lon="10.850572014140138"><ele>193.75</ele><time>2026-04-25T16:53:19Z</time></trkpt><trkpt lat="43.47105836215694" lon="10.850745035148885"><ele>192.5</ele><time>2026-04-25T16:53:20Z</time></trkpt><trkpt lat="43.47109542197" lon="10.850916729087734"><ele>191.25</ele><time>2026-04-25T16:53:21Z</time></trkpt><trkpt lat="43.471132786751504" lon="10.851082843223926"><ele>190.0</ele><time>2026-04-25T16:53:22Z</time></trkpt><trkpt lat="43.47116667594885" lon="10.85123889219489"><ele>189.5</ele><time>2026-04-25T16:53:23Z</time></trkpt><trkpt lat="43.47120339267445" lon="10.851396880958525"><ele>189.0</ele><time>2026-04-25T16:53:24Z</time></trkpt><trkpt lat="43.47123530271734" lon="10.851557758701528"><ele>188.5</ele><time>2026-04-25T16:53:25Z</time></trkpt><trkpt lat="43.47126174613881" lon="10.851722554504214"><ele>188.0</ele><time>2026-04-25T16:53:26Z</time></trkpt><trkpt lat="43.471277599049" lon="10.851898711649353"><ele>189.25</ele><time>2026-04-25T16:53:27Z</time></trkpt><trkpt lat="43.47127755036107" lon="10.85208146696413"><ele>190.5</ele><time>2026-04-25T16:53:28Z</time></trkpt><trkpt lat="43.47126068364196" lon="10.85226266273218"><ele>191.75</ele><time>2026-04-25T16:53:29Z</time></trkpt><trkpt lat="43.47122898796164" lon="10.852441362094858"><ele>193.0</ele><time>2026-04-25T16:53:30Z</time></trkpt><trkpt lat="43.47119173653703" lon="10.852617330831029"><ele>194.25</ele><time>2026-04-25T16:53:31Z</time></trkpt><trkpt lat="43.47115302532064" lon="10.852793574196093"><ele>195.5</ele><time>2026-04-25T16:53:32Z</time></trkpt><trkpt lat="43.471114293441026" lon="10.85296992427486"><ele>196.75</ele><time>2026-04-25T16:53:33Z</time></trkpt><trkpt lat="43.471079899355054" lon="10.853146263764742"><ele>198.0</ele><time>2026-04-25T16:53:34Z</time></trkpt><trkpt lat="43.471046425470895" lon="10.853313214396241"><ele>199.0</ele><time>2026-04-25T16:53:35Z</time></trkpt><trkpt lat="43.47101637267001" lon="10.853464194632757"><ele>200.0</ele><time>2026-04-25T16:53:36Z</time></trkpt><trkpt lat="43.47098649738595" lon="10.853601734796092"><ele>201.0</ele><time>2026-04-25T16:53:37Z</time></trkpt><trkpt lat="43.470957070539015" lon="10.853722824466852"><ele>202.0</ele><time>2026-04-25T16:53:38Z</time></trkpt><trkpt lat="43.470936474868296" lon="10.853822914866148"><ele>203.0</ele><time>2026-04-25T16:53:39Z</time></trkpt><trkpt lat="43.47090952499358" lon="10.853969117088797"><ele>203.0</ele><time>2026-04-25T16:53:41Z</time></trkpt><trkpt lat="43.4709035582229" lon="10.85406078521246"><ele>203.0</ele><time>2026-04-25T16:53:44Z</time></trkpt><trkpt lat="43.4603144069577" lon="10.75973470181071"><ele>184.50000000000003</ele><time>2026-04-25T16:41:36Z</time></trkpt><trkpt lat="43.460415264922375" lon="10.759779892386797"><ele>166.0</ele><time>2026-04-25T16:41:41Z</time></trkpt><trkpt lat="43.46047859971741" lon="10.7598014199052"><ele>147.5</ele><time>2026-04-25T16:41:42Z</time></trkpt><trkpt lat="43.46054914039253" lon="10.759853897412322"><ele>129.0</ele><time>2026-04-25T16:41:43Z</time></trkpt><trkpt lat="43.460629024785874" lon="10.759909631345431"><ele>110.5</ele><time>2026-04-25T16:41:44Z</time></trkpt><trkpt lat="43.4607165881039" lon="10.759974787182337"><ele>92.0</ele><time>2026-04-25T16:41:45Z</time></trkpt><trkpt lat="43.46081998806822" lon="10.760040724229336"><ele>92.0</ele><time>2026-04-25T16:41:46Z</time></trkpt><trkpt lat="43.46091006246669" lon="10.760107164647637"><ele>92.0</ele><time>2026-04-25T16:41:47Z</time></trkpt><trkpt lat="43.46099856719037" lon="10.760169701203221"><ele>92.0</ele><time>2026-04-25T16:41:48Z</time></trkpt><trkpt lat="43.46109442942569" lon="10.760237201453233"><ele>92.0</ele><time>2026-04-25T16:41:49Z</time></trkpt><trkpt lat="43.46119951769249" lon="10.760307258691562"><ele>92.0</ele><time>2026-04-25T16:41:50Z</time></trkpt><trkpt lat="43.46131271234994" lon="10.760383538799047"><ele>91.0</ele><time>2026-04-25T16:41:51Z</time></trkpt><trkpt lat="43.461431216924304" lon="10.760466766850548"><ele>90.0</ele><time>2026-04-25T16:41:52Z</time></trkpt><trkpt lat="43.461554132853344" lon="10.760552160981169"><ele>89.0</ele><time>2026-04-25T16:41:53Z</time></trkpt><trkpt lat="43.46166853923505" lon="10.76062757073063"><ele>88.0</ele><time>2026-04-25T16:41:54Z</time></trkpt><trkpt lat="43.46177321270841" lon="10.760707753943018"><ele>88.0</ele><time>2026-04-25T16:41:55Z</time></trkpt><trkpt lat="43.46188517125242" lon="10.760762842976904"><ele>88.0</ele><time>2026-04-25T16:41:56Z</time></trkpt><trkpt lat="43.462003296919725" lon="10.760800812855706"><ele>88.0</ele><time>2026-04-25T16:41:57Z</time></trkpt><trkpt lat="43.462128836966535" lon="10.760821904070214"><ele>88.0</ele><time>2026-04-25T16:41:58Z</time></trkpt><trkpt lat="43.46227155326793" lon="10.760811078227725"><ele>88.0</ele><time>2026-04-25T16:41:59Z</time></trkpt><trkpt lat="43.46241789151958" lon="10.760786287980226"><ele>88.0</ele><time>2026-04-25T16:42:00Z</time></trkpt><trkpt lat="43.46256980770851" lon="10.760743450814532"><ele>88.0</ele><time>2026-04-25T16:42:01Z</time></trkpt><trkpt lat="43.46270975997693" lon="10.760697568900705"><ele>88.0</ele><time>2026-04-25T16:42:02Z</time></trkpt><trkpt lat="43.462843018839784" lon="10.76065567177284"><ele>87.5</ele><time>2026-04-25T16:42:03Z</time></trkpt><trkpt lat="43.462980684136504" lon="10.760613139174273"><ele>87.0</ele><time>2026-04-25T16:42:04Z</time></trkpt><trkpt lat="43.46312548456731" lon="10.76059702107854"><ele>86.5</ele><time>2026-04-25T16:42:05Z</time></trkpt><trkpt lat="43.46327607842111" lon="10.760603936323522"><ele>86.0</ele><time>2026-04-25T16:42:06Z</time></trkpt><trkpt lat="43.46342383228382" lon="10.760617145849302"><ele>86.0</ele><time>2026-04-25T16:42:07Z</time></trkpt><trkpt lat="43.46356634966292" lon="10.760633457094638"><ele>86.0</ele><time>2026-04-25T16:42:08Z</time></trkpt><trkpt lat="43.463708031480934" lon="10.760648572042241"><ele>86.0</ele><time>2026-04-25T16:42:09Z</time></trkpt><trkpt lat="43.46385118141319" lon="10.76065686977066"><ele>86.0</ele><time>2026-04-25T16:42:10Z</time></trkpt><trkpt lat="43.46399592107301" lon="10.760656489794547"><ele>85.25</ele><time>2026-04-25T16:42:11Z</time></trkpt><trkpt lat="43.46413142225958" lon="10.760645779483347"><ele>84.5</ele><time>2026-04-25T16:42:12Z</time></trkpt><trkpt lat="43.464254043771504" lon="10.76063092679007"><ele>83.75</ele><time>2026-04-25T16:42:13Z</time></trkpt><trkpt lat="43.4643815066217" lon="10.7606080697628"><ele>83.0</ele><time>2026-04-25T16:42:14Z</time></trkpt><trkpt lat="43.46451683346026" lon="10.760582211032453"><ele>82.75</ele><time>2026-04-25T16:42:15Z</time></trkpt><trkpt lat="43.464651743464294" lon="10.760571033805668"><ele>82.5</ele><time>2026-04-25T16:42:16Z</time></trkpt><trkpt lat="43.464788593645395" lon="10.760545959730585"><ele>82.25</ele><time>2026-04-25T16:42:17Z</time></trkpt><trkpt lat="43.464922126953475" lon="10.76052404648405"><ele>82.0</ele><time>2026-04-25T16:42:18Z</time></trkpt><trkpt lat="43.46505455288852" lon="10.760508527942012"><ele>82.0</ele><time>2026-04-25T16:42:19Z</time></trkpt><trkpt lat="43.46519154909366" lon="10.76049554205765"><ele>82.0</ele><time>2026-04-25T16:42:20Z</time></trkpt><trkpt lat="43.46533021633796" lon="10.760476898221292"><ele>82.0</ele><time>2026-04-25T16:42:21Z</time></trkpt><trkpt lat="43.4654724112918" lon="10.760468117361302"><ele>82.0</ele><time>2026-04-25T16:42:22Z</time></trkpt><trkpt lat="43.465616418115374" lon="10.760469930213905"><ele>81.75</ele><time>2026-04-25T16:42:23Z</time></trkpt><trkpt lat="43.465760745319784" lon="10.760479999762094"><ele>81.5</ele><time>2026-04-25T16:42:24Z</time></trkpt><trkpt lat="43.46590681732121" lon="10.760500826014567"><ele>81.25</ele><time>2026-04-25T16:42:25Z</time></trkpt><trkpt lat="43.46605559458906" lon="10.7605371686001"><ele>81.0</ele><time>2026-04-25T16:42:26Z</time></trkpt><trkpt lat="43.46620885895859" lon="10.760584576225657"><ele>81.66666666666667</ele><time>2026-04-25T16:42:27Z</time></trkpt><trkpt lat="43.466363803973806" lon="10.760628369846792"><ele>82.33333333333334</ele><time>2026-04-25T16:42:28Z</time></trkpt><trkpt lat="43.4665192890673" lon="10.760674786209309"><ele>83.0</ele><time>2026-04-25T16:42:29Z</time></trkpt><trkpt lat="43.466670443907475" lon="10.760719271568655"><ele>83.0</ele><time>2026-04-25T16:42:30Z</time></trkpt><trkpt lat="43.46681721440183" lon="10.760765063199194"><ele>83.0</ele><time>2026-04-25T16:42:31Z</time></trkpt><trkpt lat="43.466961239962345" lon="10.760811087292767"><ele>83.0</ele><time>2026-04-25T16:42:32Z</time></trkpt><trkpt lat="43.467101292981965" lon="10.760854785119196"><ele>83.0</ele><time>2026-04-25T16:42:33Z</time></trkpt><trkpt lat="43.46724588335452" lon="10.760897422300625"><ele>82.33333333333334</ele><time>2026-04-25T16:42:34Z</time></trkpt><trkpt lat="43.46739100717916" lon="10.760941282217518"><ele>81.66666666666667</ele><time>2026-04-25T16:42:35Z</time></trkpt><trkpt lat="43.467537807821756" lon="10.760985717890312"><ele>81.0</ele><time>2026-04-25T16:42:36Z</time></trkpt><trkpt lat="43.46769105572598" lon="10.76103603375541"><ele>81.0</ele><time>2026-04-25T16:42:37Z</time></trkpt><trkpt lat="43.46784808564536" lon="10.761084056344025"><ele>81.0</ele><time>2026-04-25T16:42:38Z</time></trkpt><trkpt lat="43.46801166600912" lon="10.761132538366537"><ele>81.0</ele><time>2026-04-25T16:42:39Z</time></trkpt><trkpt lat="43.46817410333418" lon="10.761184525809167"><ele>81.0</ele><time>2026-04-25T16:42:40Z</time></trkpt><trkpt lat="43.46833827967788" lon="10.76123613148864"><ele>81.0</ele><time>2026-04-25T16:42:41Z</time></trkpt><trkpt lat="43.46850394009928" lon="10.761289214027983"><ele>81.0</ele><time>2026-04-25T16:42:42Z</time></trkpt><trkpt lat="43.46866748097577" lon="10.761339028867297"><ele>82.0</ele><time>2026-04-25T16:42:43Z</time></trkpt><trkpt lat="43.468832862216495" lon="10.761388643025452"><ele>83.0</ele><time>2026-04-25T16:42:44Z</time></trkpt><trkpt lat="43.46899722741624" lon="10.76144213959505"><ele>84.0</ele><time>2026-04-25T16:42:45Z</time></trkpt><trkpt lat="43.469163929143654" lon="10.761493578792686"><ele>84.0</ele><time>2026-04-25T16:42:46Z</time></trkpt><trkpt lat="43.46932960010231" lon="10.761543595943454"><ele>84.0</ele><time>2026-04-25T16:42:47Z</time></trkpt><trkpt lat="43.469496114115806" lon="10.761597548137008"><ele>84.0</ele><time>2026-04-25T16:42:48Z</time></trkpt><trkpt lat="43.46966287653684" lon="10.76165485324892"><ele>84.0</ele><time>2026-04-25T16:42:49Z</time></trkpt><trkpt lat="43.46982124098199" lon="10.761727576158892"><ele>84.0</ele><time>2026-04-25T16:42:50Z</time></trkpt><trkpt lat="43.46998573321415" lon="10.761809128853821"><ele>84.0</ele><time>2026-04-25T16:42:51Z</time></trkpt><trkpt lat="43.47015188340181" lon="10.76190443646636"><ele>83.66666666666667</ele><time>2026-04-25T16:42:52Z</time></trkpt><trkpt lat="43.47031438840261" lon="10.762002737752026"><ele>83.33333333333334</ele><time>2026-04-25T16:42:53Z</time></trkpt><trkpt lat="43.47047445871365" lon="10.762099291507436"><ele>83.0</ele><time>2026-04-25T16:42:54Z</time></trkpt><trkpt lat="43.470623765602134" lon="10.762189389103522"><ele>83.0</ele><time>2026-04-25T16:42:55Z</time></trkpt><trkpt lat="43.47077157710796" lon="10.762284972067782"><ele>83.0</ele><time>2026-04-25T16:42:56Z</time></trkpt><trkpt lat="43.47091878966279" lon="10.762372298008504"><ele>83.0</ele><time>2026-04-25T16:42:57Z</time></trkpt><trkpt lat="43.471069404613004" lon="10.762463106138172"><ele>83.0</ele><time>2026-04-25T16:42:58Z</time></trkpt><trkpt lat="43.47122257533333" lon="10.762557450823717"><ele>83.0</ele><time>2026-04-25T16:42:59Z</time></trkpt><trkpt lat="43.4713752692467" lon="10.76264703062056"><ele>83.0</ele><time>2026-04-25T16:43:00Z</time></trkpt><trkpt lat="43.47152637047697" lon="10.76273847413513"><ele>82.0</ele><time>2026-04-25T16:43:01Z</time></trkpt><trkpt lat="43.47167177848301" lon="10.762830351231186"><ele>81.0</ele><time>2026-04-25T16:43:02Z</time></trkpt><trkpt lat="43.47181385556403" lon="10.762912372387655"><ele>80.0</ele><time>2026-04-25T16:43:03Z</time></trkpt><trkpt lat="43.47195129757199" lon="10.762995532526162"><ele>80.0</ele><time>2026-04-25T16:43:04Z</time></trkpt><trkpt lat="43.47208650335522" lon="10.76307038581237"><ele>80.0</ele><time>2026-04-25T16:43:05Z</time></trkpt><trkpt lat="43.472214058652646" lon="10.76313533729371"><ele>80.0</ele><time>2026-04-25T16:43:06Z</time></trkpt><trkpt lat="43.47233969926305" lon="10.76318912322941"><ele>80.0</ele><time>2026-04-25T16:43:07Z</time></trkpt><trkpt lat="43.47246810002717" lon="10.763233443840749"><ele>80.2</ele><time>2026-04-25T16:43:08Z</time></trkpt><trkpt lat="43.4725960792717" lon="10.763263849363508"><ele>80.4</ele><time>2026-04-25T16:43:09Z</time></trkpt><trkpt lat="43.47270776430821" lon="10.76327606584023"><ele>80.6</ele><time>2026-04-25T16:43:10Z</time></trkpt><trkpt lat="43.47280290217251" lon="10.763288582913757"><ele>80.8</ele><time>2026-04-25T16:43:11Z</time></trkpt><trkpt lat="43.472881220087515" lon="10.763302396034133"><ele>81.0</ele><time>2026-04-25T16:43:12Z</time></trkpt><trkpt lat="43.472989738611965" lon="10.763342765746609"><ele>80.5</ele><time>2026-04-25T16:43:14Z</time></trkpt><trkpt lat="43.47301247971259" lon="10.763583358815946"><ele>80.0</ele><time>2026-04-25T16:43:17Z</time></trkpt><trkpt lat="43.47299162846553" lon="10.76369601570888"><ele>79.5</ele><time>2026-04-25T16:43:18Z</time></trkpt><trkpt lat="43.47298388641918" lon="10.763827069760497"><ele>79.0</ele><time>2026-04-25T16:43:19Z</time></trkpt><trkpt lat="43.47298015866561" lon="10.763973514009432"><ele>79.0</ele><time>2026-04-25T16:43:20Z</time></trkpt><trkpt lat="43.47297790286153" lon="10.764141402632545"><ele>79.0</ele><time>2026-04-25T16:43:21Z</time></trkpt><trkpt lat="43.47295431770335" lon="10.764306864064348"><ele>79.0</ele><time>2026-04-25T16:43:22Z</time></trkpt><trkpt lat="43.47294596591899" lon="10.764475142583676"><ele>79.0</ele><time>2026-04-25T16:43:23Z</time></trkpt><trkpt lat="43.47292868257423" lon="10.76465953487922"><ele>79.0</ele><time>2026-04-25T16:43:24Z</time></trkpt><trkpt lat="43.47288814006388" lon="10.76484386487577"><ele>79.0</ele><time>2026-04-25T16:43:25Z</time></trkpt><trkpt lat="43.4728552491178" lon="10.765034769400186"><ele>79.0</ele><time>2026-04-25T16:43:26Z</time></trkpt><trkpt lat="43.47281751589428" lon="10.765220422768234"><ele>79.0</ele><time>2026-04-25T16:43:27Z</time></trkpt><trkpt lat="43.47277567586075" lon="10.765404500347946"><ele>78.75</ele><time>2026-04-25T16:43:28Z</time></trkpt><trkpt lat="43.472722648902334" lon="10.765589989582855"><ele>78.5</ele><time>2026-04-25T16:43:29Z</time></trkpt><trkpt lat="43.47267338905728" lon="10.765774677791494"><ele>78.25</ele><time>2026-04-25T16:43:30Z</time></trkpt><trkpt lat="43.472619187468" lon="10.765962240899954"><ele>78.0</ele><time>2026-04-25T16:43:31Z</time></trkpt><trkpt lat="43.47256783768096" lon="10.766152119253027"><ele>77.5</ele><time>2026-04-25T16:43:32Z</time></trkpt><trkpt lat="43.47251157912348" lon="10.766337881159211"><ele>77.0</ele><time>2026-04-25T16:43:33Z</time></trkpt><trkpt lat="43.472458873237905" lon="10.766526411169185"><ele>76.5</ele><time>2026-04-25T16:43:34Z</time></trkpt><trkpt lat="43.47241038436152" lon="10.766704350501493"><ele>76.0</ele><time>2026-04-25T16:43:35Z</time></trkpt><trkpt lat="43.47236518708328" lon="10.766888126492903"><ele>76.0</ele><time>2026-04-25T16:43:36Z</time></trkpt><trkpt lat="43.472315670937846" lon="10.76706399293062"><ele>76.0</ele><time>2026-04-25T16:43:37Z</time></trkpt><trkpt lat="43.47226554125586" lon="10.767240139869036"><ele>76.0</ele><time>2026-04-25T16:43:38Z</time></trkpt><trkpt lat="43.47221926147734" lon="10.767422600180433"><ele>76.0</ele><time>2026-04-25T16:43:39Z</time></trkpt><trkpt lat="43.47217062481032" lon="10.767594954964908"><ele>75.75</ele><time>2026-04-25T16:43:40Z</time></trkpt><trkpt lat="43.472121647865166" lon="10.767764123779054"><ele>75.5</ele><time>2026-04-25T16:43:41Z</time></trkpt><trkpt lat="43.47206563873403" lon="10.767937801668028"><ele>75.25</ele><time>2026-04-25T16:43:42Z</time></trkpt><trkpt lat="43.47202307173895" lon="10.768102467429445"><ele>75.0</ele><time>2026-04-25T16:43:43Z</time></trkpt><trkpt lat="43.471989240884845" lon="10.76825307359127"><ele>75.75</ele><time>2026-04-25T16:43:44Z</time></trkpt><trkpt lat="43.47194928386136" lon="10.768397016864732"><ele>76.5</ele><time>2026-04-25T16:43:45Z</time></trkpt><trkpt lat="43.471898035479875" lon="10.768555811130579"><ele>77.25</ele><time>2026-04-25T16:43:46Z</time></trkpt><trkpt lat="43.47184965305199" lon="10.76872368513244"><ele>78.0</ele><time>2026-04-25T16:43:47Z</time></trkpt><trkpt lat="43.47180718208923" lon="10.76890134916177"><ele>78.75</ele><time>2026-04-25T16:43:48Z</time></trkpt><trkpt lat="43.471759901968085" lon="10.769074493128635"><ele>79.5</ele><time>2026-04-25T16:43:49Z</time></trkpt><trkpt lat="43.47169620001042" lon="10.769243309063423"><ele>80.25</ele><time>2026-04-25T16:43:50Z</time></trkpt><trkpt lat="43.47162098094891" lon="10.76939255852615"><ele>81.0</ele><time>2026-04-25T16:43:51Z</time></trkpt><trkpt lat="43.471543748738675" lon="10.769551576439614"><ele>82.0</ele><time>2026-04-25T16:43:52Z</time></trkpt><trkpt lat="43.47146927303274" lon="10.769708252654302"><ele>83.0</ele><time>2026-04-25T16:43:53Z</time></trkpt><trkpt lat="43.47136972247872" lon="10.769861544350045"><ele>84.0</ele><time>2026-04-25T16:43:54Z</time></trkpt><trkpt lat="43.47128760438494" lon="10.770013201064073"><ele>85.0</ele><time>2026-04-25T16:43:55Z</time></trkpt><trkpt lat="43.47120269483691" lon="10.770167972470983"><ele>83.5</ele><time>2026-04-25T16:43:56Z</time></trkpt><trkpt lat="43.47111183036702" lon="10.770314235034409"><ele>82.0</ele><time>2026-04-25T16:43:57Z</time></trkpt><trkpt lat="43.4710194489654" lon="10.770460937827364"><ele>80.5</ele><time>2026-04-25T16:43:58Z</time></trkpt><trkpt lat="43.47091819528673" lon="10.770612376760816"><ele>79.0</ele><time>2026-04-25T16:43:59Z</time></trkpt><trkpt lat="43.470808086152175" lon="10.770763546930068"><ele>79.0</ele><time>2026-04-25T16:44:00Z</time></trkpt><trkpt lat="43.47069751853298" lon="10.770914114497996"><ele>79.0</ele><time>2026-04-25T16:44:01Z</time></trkpt><trkpt lat="43.47057609667686" lon="10.771060380046395"><ele>79.0</ele><time>2026-04-25T16:44:02Z</time></trkpt><trkpt lat="43.47045075868093" lon="10.771202450611636"><ele>80.33333333333333</ele><time>2026-04-25T16:44:03Z</time></trkpt><trkpt lat="43.47032803132915" lon="10.771347899780652"><ele>81.66666666666667</ele><time>2026-04-25T16:44:04Z</time></trkpt><trkpt lat="43.470205546882234" lon="10.771494108084353"><ele>83.0</ele><time>2026-04-25T16:44:05Z</time></trkpt><trkpt lat="43.47008290643261" lon="10.771641024217951"><ele>83.0</ele><time>2026-04-25T16:44:06Z</time></trkpt><trkpt lat="43.46996096714402" lon="10.771786073706059"><ele>83.0</ele><time>2026-04-25T16:44:07Z</time></trkpt><trkpt lat="43.46983834259306" lon="10.771929939247228"><ele>83.0</ele><time>2026-04-25T16:44:08Z</time></trkpt><trkpt lat="43.469716803852364" lon="10.772073581964996"><ele>82.66666666666667</ele><time>2026-04-25T16:44:09Z</time></trkpt><trkpt lat="43.469592300537286" lon="10.772212108019783"><ele>82.33333333333333</ele><time>2026-04-25T16:44:10Z</time></trkpt><trkpt lat="43.46946421416819" lon="10.772346798136414"><ele>82.0</ele><time>2026-04-25T16:44:11Z</time></trkpt><trkpt lat="43.46933375531176" lon="10.772478885348203"><ele>82.0</ele><time>2026-04-25T16:44:12Z</time></trkpt><trkpt lat="43.46920268617424" lon="10.772613397385983"><ele>82.0</ele><time>2026-04-25T16:44:13Z</time></trkpt><trkpt lat="43.46907135956384" lon="10.772745315155626"><ele>82.0</ele><time>2026-04-25T16:44:14Z</time></trkpt><trkpt lat="43.46893936532934" lon="10.772879367128976"><ele>83.33333333333333</ele><time>2026-04-25T16:44:15Z</time></trkpt><trkpt lat="43.468807530828734" lon="10.773017018001505"><ele>84.66666666666667</ele><time>2026-04-25T16:44:16Z</time></trkpt><trkpt lat="43.46867924004447" lon="10.773148407527081"><ele>86.0</ele><time>2026-04-25T16:44:17Z</time></trkpt><trkpt lat="43.46855546583695" lon="10.773277816181416"><ele>86.0</ele><time>2026-04-25T16:44:18Z</time></trkpt><trkpt lat="43.468433431264906" lon="10.773401635181768"><ele>86.0</ele><time>2026-04-25T16:44:19Z</time></trkpt><trkpt lat="43.468312759754674" lon="10.77352547766016"><ele>86.0</ele><time>2026-04-25T16:44:20Z</time></trkpt><trkpt lat="43.468195238845816" lon="10.773649354978632"><ele>85.25</ele><time>2026-04-25T16:44:21Z</time></trkpt><trkpt lat="43.46808267938333" lon="10.773768706089573"><ele>84.5</ele><time>2026-04-25T16:44:22Z</time></trkpt><trkpt lat="43.467976896554205" lon="10.773874090937817"><ele>83.75</ele><time>2026-04-25T16:44:23Z</time></trkpt><trkpt lat="43.46787228309647" lon="10.773971613553819"><ele>83.0</ele><time>2026-04-25T16:44:24Z</time></trkpt><trkpt lat="43.467762870139005" lon="10.774064829227253"><ele>83.0</ele><time>2026-04-25T16:44:25Z</time></trkpt><trkpt lat="43.46764021300934" lon="10.77415051459255"><ele>83.0</ele><time>2026-04-25T16:44:26Z</time></trkpt><trkpt lat="43.46750430111932" lon="10.774219952251478"><ele>83.0</ele><time>2026-04-25T16:44:27Z</time></trkpt><trkpt lat="43.46735801167112" lon="10.774279885827363"><ele>83.0</ele><time>2026-04-25T16:44:28Z</time></trkpt><trkpt lat="43.46720476968901" lon="10.774327041953816"><ele>81.0</ele><time>2026-04-25T16:44:29Z</time></trkpt><trkpt lat="43.467053476089035" lon="10.774362459512874"><ele>79.0</ele><time>2026-04-25T16:44:30Z</time></trkpt><trkpt lat="43.46689340623387" lon="10.774409195271064"><ele>77.0</ele><time>2026-04-25T16:44:31Z</time></trkpt><trkpt lat="43.46672949460853" lon="10.774463901332904"><ele>77.0</ele><time>2026-04-25T16:44:32Z</time></trkpt><trkpt lat="43.46656831272565" lon="10.774512178410468"><ele>77.0</ele><time>2026-04-25T16:44:33Z</time></trkpt><trkpt lat="43.46640676739045" lon="10.774558459364304"><ele>77.0</ele><time>2026-04-25T16:44:34Z</time></trkpt><trkpt lat="43.466247270043645" lon="10.774606837523113"><ele>77.33333333333334</ele><time>2026-04-25T16:44:35Z</time></trkpt><trkpt lat="43.46608981847531" lon="10.774657493103389"><ele>77.66666666666667</ele><time>2026-04-25T16:44:36Z</time></trkpt><trkpt lat="43.46593622318218" lon="10.774716323775714"><ele>78.0</ele><time>2026-04-25T16:44:37Z</time></trkpt><trkpt lat="43.465786280605094" lon="10.774795531137578"><ele>78.0</ele><time>2026-04-25T16:44:38Z</time></trkpt><trkpt lat="43.465638096849354" lon="10.774887524914725"><ele>78.0</ele><time>2026-04-25T16:44:39Z</time></trkpt><trkpt lat="43.46549351641519" lon="10.774996162126694"><ele>78.0</ele><time>2026-04-25T16:44:40Z</time></trkpt><trkpt lat="43.4653485265351" lon="10.775111087153647"><ele>78.33333333333333</ele><time>2026-04-25T16:44:41Z</time></trkpt><trkpt lat="43.4651992925144" lon="10.775229252784595"><ele>78.66666666666666</ele><time>2026-04-25T16:44:42Z</time></trkpt><trkpt lat="43.465049760520515" lon="10.775346373909308"><ele>79.0</ele><time>2026-04-25T16:44:43Z</time></trkpt><trkpt lat="43.464898891321184" lon="10.775467162139872"><ele>79.0</ele><time>2026-04-25T16:44:44Z</time></trkpt><trkpt lat="43.46475127659541" lon="10.7755830094167"><ele>79.0</ele><time>2026-04-25T16:44:45Z</time></trkpt><trkpt lat="43.464603481101726" lon="10.775698700024092"><ele>79.0</ele><time>2026-04-25T16:44:46Z</time></trkpt><trkpt lat="43.46445574151925" lon="10.77581781876277"><ele>79.0</ele><time>2026-04-25T16:44:47Z</time></trkpt><trkpt lat="43.46430884002349" lon="10.775933774516387"><ele>79.0</ele><time>2026-04-25T16:44:48Z</time></trkpt><trkpt lat="43.4641603310684" lon="10.776049316605672"><ele>79.0</ele><time>2026-04-25T16:44:49Z</time></trkpt><trkpt lat="43.464013439806976" lon="10.776164176738558"><ele>79.0</ele><time>2026-04-25T16:44:50Z</time></trkpt><trkpt lat="43.46386796334418" lon="10.776279104734366"><ele>79.0</ele><time>2026-04-25T16:44:51Z</time></trkpt><trkpt lat="43.46372359409222" lon="10.77639421240816"><ele>79.0</ele><time>2026-04-25T16:44:52Z</time></trkpt><trkpt lat="43.46357838166588" lon="10.776510557303254"><ele>79.0</ele><time>2026-04-25T16:44:53Z</time></trkpt><trkpt lat="43.46343415944458" lon="10.776628319060483"><ele>79.0</ele><time>2026-04-25T16:44:54Z</time></trkpt><trkpt lat="43.463286633531716" lon="10.776742331679053"><ele>79.0</ele><time>2026-04-25T16:44:55Z</time></trkpt><trkpt lat="43.463140294735055" lon="10.776859749492285"><ele>79.0</ele><time>2026-04-25T16:44:56Z</time></trkpt><trkpt lat="43.462994073872316" lon="10.77697814282965"><ele>79.0</ele><time>2026-04-25T16:44:57Z</time></trkpt><trkpt lat="43.462843906528335" lon="10.777092872268653"><ele>79.0</ele><time>2026-04-25T16:44:58Z</time></trkpt><trkpt lat="43.462699050104774" lon="10.777204431931338"><ele>80.33333333333333</ele><time>2026-04-25T16:44:59Z</time></trkpt><trkpt lat="43.46255093446261" lon="10.777318984844484"><ele>81.66666666666667</ele><time>2026-04-25T16:45:00Z</time></trkpt><trkpt lat="43.462404057971455" lon="10.77743322454916"><ele>83.0</ele><time>2026-04-25T16:45:01Z</time></trkpt><trkpt lat="43.462257849136954" lon="10.777545173389228"><ele>83.0</ele><time>2026-04-25T16:45:02Z</time></trkpt><trkpt lat="43.46211438667642" lon="10.777659689572513"><ele>83.0</ele><time>2026-04-25T16:45:03Z</time></trkpt><trkpt lat="43.46196786784624" lon="10.777771948687317"><ele>83.0</ele><time>2026-04-25T16:45:04Z</time></trkpt><trkpt lat="43.46182259030146" lon="10.777885191461857"><ele>83.0</ele><time>2026-04-25T16:45:05Z</time></trkpt><trkpt lat="43.46167834489455" lon="10.777999982365097"><ele>83.0</ele><time>2026-04-25T16:45:06Z</time></trkpt><trkpt lat="43.461534060062185" lon="10.778116119726953"><ele>83.0</ele><time>2026-04-25T16:45:07Z</time></trkpt><trkpt lat="43.46139244872858" lon="10.77823811229861"><ele>83.66666666666667</ele><time>2026-04-25T16:45:08Z</time></trkpt><trkpt lat="43.46125148047462" lon="10.778369030238752"><ele>84.33333333333333</ele><time>2026-04-25T16:45:09Z</time></trkpt><trkpt lat="43.461111413800204" lon="10.77851096647955"><ele>85.0</ele><time>2026-04-25T16:45:10Z</time></trkpt><trkpt lat="43.46097235188571" lon="10.77865615310937"><ele>85.0</ele><time>2026-04-25T16:45:11Z</time></trkpt><trkpt lat="43.460832754934174" lon="10.778803839255936"><ele>85.0</ele><time>2026-04-25T16:45:12Z</time></trkpt><trkpt lat="43.460691537686046" lon="10.77895256993088"><ele>85.0</ele><time>2026-04-25T16:45:13Z</time></trkpt><trkpt lat="43.46054949148483" lon="10.77910194058664"><ele>85.0</ele><time>2026-04-25T16:45:14Z</time></trkpt><trkpt lat="43.460408253484616" lon="10.779247518518195"><ele>85.0</ele><time>2026-04-25T16:45:15Z</time></trkpt><trkpt lat="43.46027082465728" lon="10.779392370061144"><ele>85.0</ele><time>2026-04-25T16:45:16Z</time></trkpt><trkpt lat="43.46013212424162" lon="10.779536524379182"><ele>84.66666666666666</ele><time>2026-04-25T16:45:17Z</time></trkpt><trkpt lat="43.45999288814423" lon="10.779683087649609"><ele>84.33333333333333</ele><time>2026-04-25T16:45:18Z</time></trkpt><trkpt lat="43.45985238830581" lon="10.779830086119647"><ele>84.0</ele><time>2026-04-25T16:45:19Z</time></trkpt><trkpt lat="43.459712827529" lon="10.779979770328058"><ele>84.33333333333333</ele><time>2026-04-25T16:45:20Z</time></trkpt><trkpt lat="43.459569526918024" lon="10.780125550528416"><ele>84.66666666666666</ele><time>2026-04-25T16:45:21Z</time></trkpt><trkpt lat="43.45942906812643" lon="10.780274108945925"><ele>85.0</ele><time>2026-04-25T16:45:22Z</time></trkpt><trkpt lat="43.45928867928541" lon="10.78042114619918"><ele>84.0</ele><time>2026-04-25T16:45:23Z</time></trkpt><trkpt lat="43.45914700513949" lon="10.780570404657592"><ele>83.0</ele><time>2026-04-25T16:45:24Z</time></trkpt><trkpt lat="43.45900488793904" lon="10.780714568563631"><ele>82.0</ele><time>2026-04-25T16:45:25Z</time></trkpt><trkpt lat="43.458864786449155" lon="10.780859480506583"><ele>82.33333333333333</ele><time>2026-04-25T16:45:26Z</time></trkpt><trkpt lat="43.4587255575395" lon="10.781002125371684"><ele>82.66666666666667</ele><time>2026-04-25T16:45:27Z</time></trkpt><trkpt lat="43.458588471290206" lon="10.781147253870476"><ele>83.0</ele><time>2026-04-25T16:45:28Z</time></trkpt><trkpt lat="43.45845144376561" lon="10.781287323651371"><ele>83.0</ele><time>2026-04-25T16:45:29Z</time></trkpt><trkpt lat="43.45831678345672" lon="10.781429212821882"><ele>83.0</ele><time>2026-04-25T16:45:30Z</time></trkpt><trkpt lat="43.45818263128522" lon="10.781573172137367"><ele>83.0</ele><time>2026-04-25T16:45:31Z</time></trkpt><trkpt lat="43.4580475011082" lon="10.781717798812377"><ele>83.0</ele><time>2026-04-25T16:45:32Z</time></trkpt><trkpt lat="43.457910599081906" lon="10.781861194932123"><ele>83.0</ele><time>2026-04-25T16:45:33Z</time></trkpt><trkpt lat="43.45777737238253" lon="10.782002637779877"><ele>83.0</ele><time>2026-04-25T16:45:34Z</time></trkpt><trkpt lat="43.457648242938824" lon="10.782138008204681"><ele>83.0</ele><time>2026-04-25T16:45:35Z</time></trkpt><trkpt lat="43.45751932806028" lon="10.782271669465585"><ele>83.0</ele><time>2026-04-25T16:45:36Z</time></trkpt><trkpt lat="43.45738986078552" lon="10.782408107094815"><ele>83.0</ele><time>2026-04-25T16:45:37Z</time></trkpt><trkpt lat="43.457256469601845" lon="10.782550971887405"><ele>82.66666666666667</ele><time>2026-04-25T16:45:38Z</time></trkpt><trkpt lat="43.45711756816871" lon="10.782693237102523"><ele>82.33333333333333</ele><time>2026-04-25T16:45:39Z</time></trkpt><trkpt lat="43.45697314816988" lon="10.782841276594409"><ele>82.0</ele><time>2026-04-25T16:45:40Z</time></trkpt><trkpt lat="43.4568362362983" lon="10.78298452916202"><ele>82.0</ele><time>2026-04-25T16:45:41Z</time></trkpt><trkpt lat="43.45670416758976" lon="10.78312382133435"><ele>82.0</ele><time>2026-04-25T16:45:42Z</time></trkpt><trkpt lat="43.456574674338455" lon="10.783260773820405"><ele>82.0</ele><time>2026-04-25T16:45:43Z</time></trkpt><trkpt lat="43.456446355716935" lon="10.783393020264384"><ele>82.0</ele><time>2026-04-25T16:45:44Z</time></trkpt><trkpt lat="43.45631888003928" lon="10.783529755866027"><ele>82.0</ele><time>2026-04-25T16:45:45Z</time></trkpt><trkpt lat="43.456194850048355" lon="10.783657632469163"><ele>82.0</ele><time>2026-04-25T16:45:46Z</time></trkpt><trkpt lat="43.45607313677727" lon="10.783788200375746"><ele>83.0</ele><time>2026-04-25T16:45:47Z</time></trkpt><trkpt lat="43.45594698744077" lon="10.783919450003056"><ele>84.0</ele><time>2026-04-25T16:45:48Z</time></trkpt><trkpt lat="43.455821855679666" lon="10.78404779743874"><ele>85.0</ele><time>2026-04-25T16:45:49Z</time></trkpt><trkpt lat="43.455702004074375" lon="10.7841828094471"><ele>85.0</ele><time>2026-04-25T16:45:50Z</time></trkpt><trkpt lat="43.45558745374413" lon="10.784331880724666"><ele>85.0</ele><time>2026-04-25T16:45:51Z</time></trkpt><trkpt lat="43.45548451234434" lon="10.7845038815424"><ele>85.0</ele><time>2026-04-25T16:45:52Z</time></trkpt><trkpt lat="43.455393142050475" lon="10.784697704155985"><ele>85.0</ele><time>2026-04-25T16:45:53Z</time></trkpt><trkpt lat="43.455301920002455" lon="10.784896727727993"><ele>85.0</ele><time>2026-04-25T16:45:54Z</time></trkpt><trkpt lat="43.45520898169229" lon="10.78510098306792"><ele>85.0</ele><time>2026-04-25T16:45:55Z</time></trkpt><trkpt lat="43.45512006391512" lon="10.785299416499438"><ele>85.0</ele><time>2026-04-25T16:45:56Z</time></trkpt><trkpt lat="43.45503042167072" lon="10.785499519480215"><ele>85.0</ele><time>2026-04-25T16:45:57Z</time></trkpt><trkpt lat="43.45493777433732" lon="10.785697303631856"><ele>85.0</ele><time>2026-04-25T16:45:58Z</time></trkpt><trkpt lat="43.45485360319783" lon="10.78589979788942"><ele>85.33333333333333</ele><time>2026-04-25T16:45:59Z</time></trkpt><trkpt lat="43.454766535131554" lon="10.786102424076095"><ele>85.66666666666667</ele><time>2026-04-25T16:46:00Z</time></trkpt><trkpt lat="43.45468117531055" lon="10.786308388296932"><ele>86.0</ele><time>2026-04-25T16:46:01Z</time></trkpt><trkpt lat="43.454600828126644" lon="10.786518644242358"><ele>86.33333333333334</ele><time>2026-04-25T16:46:02Z</time></trkpt><trkpt lat="43.45452384456861" lon="10.786732068702765"><ele>86.66666666666667</ele><time>2026-04-25T16:46:03Z</time></trkpt><trkpt lat="43.454447107505224" lon="10.786944246316889"><ele>87.0</ele><time>2026-04-25T16:46:04Z</time></trkpt><trkpt lat="43.45437121018312" lon="10.787156955449618"><ele>86.33333333333333</ele><time>2026-04-25T16:46:05Z</time></trkpt><trkpt lat="43.45429413030593" lon="10.78736565965567"><ele>85.66666666666666</ele><time>2026-04-25T16:46:06Z</time></trkpt><trkpt lat="43.4542191563834" lon="10.787576336510444"><ele>85.0</ele><time>2026-04-25T16:46:07Z</time></trkpt><trkpt lat="43.4541442572954" lon="10.787787648387088"><ele>84.66666666666666</ele><time>2026-04-25T16:46:08Z</time></trkpt><trkpt lat="43.45405411061597" lon="10.787996301560103"><ele>84.33333333333333</ele><time>2026-04-25T16:46:09Z</time></trkpt><trkpt lat="43.45398731549169" lon="10.788219794445897"><ele>84.0</ele><time>2026-04-25T16:46:10Z</time></trkpt><trkpt lat="43.45391225745411" lon="10.788432109123034"><ele>84.0</ele><time>2026-04-25T16:46:11Z</time></trkpt><trkpt lat="43.4538408538995" lon="10.788642953852408"><ele>84.0</ele><time>2026-04-25T16:46:12Z</time></trkpt><trkpt lat="43.45376742886783" lon="10.788839991785032"><ele>84.0</ele><time>2026-04-25T16:46:13Z</time></trkpt><trkpt lat="43.453699789817264" lon="10.789028221661011"><ele>84.25</ele><time>2026-04-25T16:46:14Z</time></trkpt><trkpt lat="43.45363328395486" lon="10.789206617785968"><ele>84.5</ele><time>2026-04-25T16:46:15Z</time></trkpt><trkpt lat="43.453558794779866" lon="10.789364335753971"><ele>84.75</ele><time>2026-04-25T16:46:16Z</time></trkpt><trkpt lat="43.45350084728136" lon="10.789522295123259"><ele>85.0</ele><time>2026-04-25T16:46:17Z</time></trkpt><trkpt lat="43.45344123014918" lon="10.789693289817874"><ele>85.25</ele><time>2026-04-25T16:46:18Z</time></trkpt><trkpt lat="43.45337558664221" lon="10.789869989684803"><ele>85.5</ele><time>2026-04-25T16:46:19Z</time></trkpt><trkpt lat="43.45331605310183" lon="10.790048321769634"><ele>85.75</ele><time>2026-04-25T16:46:20Z</time></trkpt><trkpt lat="43.45325436985031" lon="10.790219765587151"><ele>86.0</ele><time>2026-04-25T16:46:21Z</time></trkpt><trkpt lat="43.45320859317481" lon="10.790398268210893"><ele>86.25</ele><time>2026-04-25T16:46:22Z</time></trkpt><trkpt lat="43.45317581279758" lon="10.79058270936305"><ele>86.5</ele><time>2026-04-25T16:46:23Z</time></trkpt><trkpt lat="43.45315586582499" lon="10.790776292323548"><ele>86.75</ele><time>2026-04-25T16:46:24Z</time></trkpt><trkpt lat="43.4531479760219" lon="10.790969369929641"><ele>87.0</ele><time>2026-04-25T16:46:25Z</time></trkpt><trkpt lat="43.45313555890722" lon="10.791166641724432"><ele>87.0</ele><time>2026-04-25T16:46:26Z</time></trkpt><trkpt lat="43.45312447379783" lon="10.79135271785406"><ele>87.0</ele><time>2026-04-25T16:46:27Z</time></trkpt><trkpt lat="43.45310764880963" lon="10.791543913711978"><ele>87.0</ele><time>2026-04-25T16:46:28Z</time></trkpt><trkpt lat="43.45313667921002" lon="10.791742971377161"><ele>87.0</ele><time>2026-04-25T16:46:29Z</time></trkpt><trkpt lat="43.45315952268309" lon="10.791949042353854"><ele>86.66666666666667</ele><time>2026-04-25T16:46:30Z</time></trkpt><trkpt lat="43.453187751456106" lon="10.792159820987814"><ele>86.33333333333334</ele><time>2026-04-25T16:46:31Z</time></trkpt><trkpt lat="43.45321844184892" lon="10.792376217416738"><ele>86.0</ele><time>2026-04-25T16:46:32Z</time></trkpt><trkpt lat="43.45324919040084" lon="10.792594381209241"><ele>86.0</ele><time>2026-04-25T16:46:33Z</time></trkpt><trkpt lat="43.45328153661235" lon="10.792813412096066"><ele>86.0</ele><time>2026-04-25T16:46:34Z</time></trkpt><trkpt lat="43.45331615835404" lon="10.79303359378933"><ele>86.0</ele><time>2026-04-25T16:46:35Z</time></trkpt><trkpt lat="43.45334667770645" lon="10.793253837900888"><ele>86.0</ele><time>2026-04-25T16:46:36Z</time></trkpt><trkpt lat="43.45338034343989" lon="10.793475970134148"><ele>86.0</ele><time>2026-04-25T16:46:37Z</time></trkpt><trkpt lat="43.45341406257979" lon="10.793700506108307"><ele>86.0</ele><time>2026-04-25T16:46:38Z</time></trkpt><trkpt lat="43.45344453195092" lon="10.793920606668449"><ele>86.0</ele><time>2026-04-25T16:46:39Z</time></trkpt><trkpt lat="43.45346881528065" lon="10.794132450110087"><ele>86.0</ele><time>2026-04-25T16:46:40Z</time></trkpt><trkpt lat="43.45348150220773" lon="10.794347924053742"><ele>86.0</ele><time>2026-04-25T16:46:41Z</time></trkpt><trkpt lat="43.45347744518492" lon="10.794566462185797"><ele>86.0</ele><time>2026-04-25T16:46:42Z</time></trkpt><trkpt lat="43.45345404154181" lon="10.794770088552923"><ele>86.0</ele><time>2026-04-25T16:46:43Z</time></trkpt><trkpt lat="43.45341133762162" lon="10.79497839754971"><ele>86.0</ele><time>2026-04-25T16:46:44Z</time></trkpt><trkpt lat="43.45336082253991" lon="10.795187953264085"><ele>86.66666666666667</ele><time>2026-04-25T16:46:45Z</time></trkpt><trkpt lat="43.45330074916852" lon="10.79540365612344"><ele>87.33333333333333</ele><time>2026-04-25T16:46:46Z</time></trkpt><trkpt lat="43.45324434660367" lon="10.795624509101893"><ele>88.0</ele><time>2026-04-25T16:46:47Z</time></trkpt><trkpt lat="43.45318723692695" lon="10.7958420033283"><ele>88.66666666666666</ele><time>2026-04-25T16:46:48Z</time></trkpt><trkpt lat="43.45312701219575" lon="10.796058215454845"><ele>89.33333333333333</ele><time>2026-04-25T16:46:49Z</time></trkpt><trkpt lat="43.45307029204781" lon="10.796279210586105"><ele>90.0</ele><time>2026-04-25T16:46:50Z</time></trkpt><trkpt lat="43.45301642853043" lon="10.796497268151978"><ele>90.0</ele><time>2026-04-25T16:46:51Z</time></trkpt><trkpt lat="43.452960040878125" lon="10.796714087808592"><ele>90.0</ele><time>2026-04-25T16:46:52Z</time></trkpt><trkpt lat="43.452901695609555" lon="10.796933459643585"><ele>90.0</ele><time>2026-04-25T16:46:53Z</time></trkpt><trkpt lat="43.45284273216309" lon="10.797149647403065"><ele>89.66666666666667</ele><time>2026-04-25T16:46:54Z</time></trkpt><trkpt lat="43.45278438549217" lon="10.797370367365538"><ele>89.33333333333334</ele><time>2026-04-25T16:46:55Z</time></trkpt><trkpt lat="43.452726992708385" lon="10.797590861636133"><ele>89.0</ele><time>2026-04-25T16:46:56Z</time></trkpt><trkpt lat="43.45266905036202" lon="10.797805986892127"><ele>89.0</ele><time>2026-04-25T16:46:57Z</time></trkpt><trkpt lat="43.45261191783235" lon="10.798023158113"><ele>89.0</ele><time>2026-04-25T16:46:58Z</time></trkpt><trkpt lat="43.45255473550706" lon="10.798238825914138"><ele>89.0</ele><time>2026-04-25T16:46:59Z</time></trkpt><trkpt lat="43.45249735563172" lon="10.798454957208737"><ele>89.0</ele><time>2026-04-25T16:47:00Z</time></trkpt><trkpt lat="43.45244070400657" lon="10.798672941910304"><ele>89.0</ele><time>2026-04-25T16:47:01Z</time></trkpt><trkpt lat="43.45238479810183" lon="10.798890833584277"><ele>89.0</ele><time>2026-04-25T16:47:02Z</time></trkpt><trkpt lat="43.45232689393332" lon="10.799110787296385"><ele>89.0</ele><time>2026-04-25T16:47:03Z</time></trkpt><trkpt lat="43.45226643465311" lon="10.799332547569064"><ele>89.0</ele><time>2026-04-25T16:47:04Z</time></trkpt><trkpt lat="43.452206271689036" lon="10.799550214377874"><ele>89.0</ele><time>2026-04-25T16:47:05Z</time></trkpt><trkpt lat="43.45214977538512" lon="10.799763501224543"><ele>89.66666666666667</ele><time>2026-04-25T16:47:06Z</time></trkpt><trkpt lat="43.45209326869633" lon="10.799974688964564"><ele>90.33333333333333</ele><time>2026-04-25T16:47:07Z</time></trkpt><trkpt lat="43.45203890760967" lon="10.800184939047035"><ele>91.0</ele><time>2026-04-25T16:47:08Z</time></trkpt><trkpt lat="43.45198328594231" lon="10.80039645358329"><ele>91.33333333333333</ele><time>2026-04-25T16:47:09Z</time></trkpt><trkpt lat="43.4519285166595" lon="10.800605273988447"><ele>91.66666666666667</ele><time>2026-04-25T16:47:10Z</time></trkpt><trkpt lat="43.45187522565664" lon="10.800817769737664"><ele>92.0</ele><time>2026-04-25T16:47:11Z</time></trkpt><trkpt lat="43.4518072689471" lon="10.801019763353597"><ele>92.0</ele><time>2026-04-25T16:47:12Z</time></trkpt><trkpt lat="43.45175121244095" lon="10.801228766608784"><ele>92.0</ele><time>2026-04-25T16:47:13Z</time></trkpt><trkpt lat="43.45171067699802" lon="10.801443178588414"><ele>92.0</ele><time>2026-04-25T16:47:14Z</time></trkpt><trkpt lat="43.45165218143199" lon="10.801652406110968"><ele>92.33333333333334</ele><time>2026-04-25T16:47:15Z</time></trkpt><trkpt lat="43.45159525675334" lon="10.80185491729634"><ele>92.66666666666667</ele><time>2026-04-25T16:47:16Z</time></trkpt><trkpt lat="43.451539541721175" lon="10.802054202779749"><ele>93.0</ele><time>2026-04-25T16:47:17Z</time></trkpt><trkpt lat="43.45149216070061" lon="10.802272284202722"><ele>93.0</ele><time>2026-04-25T16:47:18Z</time></trkpt><trkpt lat="43.451437339459964" lon="10.802484996303347"><ele>93.0</ele><time>2026-04-25T16:47:19Z</time></trkpt><trkpt lat="43.451410582137385" lon="10.802713036689068"><ele>93.0</ele><time>2026-04-25T16:47:20Z</time></trkpt><trkpt lat="43.451402613196215" lon="10.802945516091182"><ele>93.33333333333333</ele><time>2026-04-25T16:47:21Z</time></trkpt><trkpt lat="43.451395238304585" lon="10.803159448923237"><ele>93.66666666666666</ele><time>2026-04-25T16:47:22Z</time></trkpt><trkpt lat="43.45138653980496" lon="10.803361407387081"><ele>94.0</ele><time>2026-04-25T16:47:23Z</time></trkpt><trkpt lat="43.451385955873725" lon="10.80357345295806"><ele>94.0</ele><time>2026-04-25T16:47:24Z</time></trkpt><trkpt lat="43.451351729112616" lon="10.803782316369844"><ele>94.0</ele><time>2026-04-25T16:47:25Z</time></trkpt><trkpt lat="43.451304308790775" lon="10.803993763380657"><ele>94.0</ele><time>2026-04-25T16:47:26Z</time></trkpt><trkpt lat="43.45125098630659" lon="10.804204404383468"><ele>95.0</ele><time>2026-04-25T16:47:27Z</time></trkpt><trkpt lat="43.45119961654226" lon="10.804424551074591"><ele>96.0</ele><time>2026-04-25T16:47:28Z</time></trkpt><trkpt lat="43.451148970401626" lon="10.804646625968097"><ele>97.0</ele><time>2026-04-25T16:47:29Z</time></trkpt><trkpt lat="43.45109546893038" lon="10.80486323964041"><ele>97.0</ele><time>2026-04-25T16:47:30Z</time></trkpt><trkpt lat="43.4510469505023" lon="10.805082186675635"><ele>97.0</ele><time>2026-04-25T16:47:31Z</time></trkpt><trkpt lat="43.450995783559314" lon="10.805298893815454"><ele>97.0</ele><time>2026-04-25T16:47:32Z</time></trkpt><trkpt lat="43.45094438723668" lon="10.805512985542494"><ele>96.66666666666667</ele><time>2026-04-25T16:47:33Z</time></trkpt><trkpt lat="43.450881427028094" lon="10.805717275289915"><ele>96.33333333333334</ele><time>2026-04-25T16:47:34Z</time></trkpt><trkpt lat="43.450835562510704" lon="10.80593260302923"><ele>96.0</ele><time>2026-04-25T16:47:35Z</time></trkpt><trkpt lat="43.45079969797075" lon="10.80615308323927"><ele>95.33333333333333</ele><time>2026-04-25T16:47:36Z</time></trkpt><trkpt lat="43.45077982699495" lon="10.806382219938405"><ele>94.66666666666666</ele><time>2026-04-25T16:47:37Z</time></trkpt><trkpt lat="43.450780729877124" lon="10.806604968107195"><ele>94.0</ele><time>2026-04-25T16:47:38Z</time></trkpt><trkpt lat="43.45076761365092" lon="10.80682025695926"><ele>94.33333333333333</ele><time>2026-04-25T16:47:39Z</time></trkpt><trkpt lat="43.45075129264752" lon="10.80703558247034"><ele>94.66666666666667</ele><time>2026-04-25T16:47:40Z</time></trkpt><trkpt lat="43.450738697773374" lon="10.80725476823877"><ele>95.0</ele><time>2026-04-25T16:47:41Z</time></trkpt><trkpt lat="43.450726045782744" lon="10.807476350807745"><ele>95.0</ele><time>2026-04-25T16:47:42Z</time></trkpt><trkpt lat="43.45072059481839" lon="10.807697042893738"><ele>95.0</ele><time>2026-04-25T16:47:43Z</time></trkpt><trkpt lat="43.45070974836791" lon="10.807923489577346"><ele>95.0</ele><time>2026-04-25T16:47:44Z</time></trkpt><trkpt lat="43.450724997340686" lon="10.808148188874531"><ele>95.0</ele><time>2026-04-25T16:47:45Z</time></trkpt><trkpt lat="43.45074397800461" lon="10.808376296524314"><ele>95.0</ele><time>2026-04-25T16:47:46Z</time></trkpt><trkpt lat="43.4507792201427" lon="10.808603230478205"><ele>95.0</ele><time>2026-04-25T16:47:47Z</time></trkpt><trkpt lat="43.45080067036741" lon="10.808832335904741"><ele>95.33333333333334</ele><time>2026-04-25T16:47:48Z</time></trkpt><trkpt lat="43.450820794003846" lon="10.809059847860478"><ele>95.66666666666667</ele><time>2026-04-25T16:47:49Z</time></trkpt><trkpt lat="43.450841285680916" lon="10.809290615335916"><ele>96.0</ele><time>2026-04-25T16:47:50Z</time></trkpt><trkpt lat="43.45084536045624" lon="10.809521997247515"><ele>96.33333333333334</ele><time>2026-04-25T16:47:51Z</time></trkpt><trkpt lat="43.45086600314728" lon="10.809752333799516"><ele>96.66666666666667</ele><time>2026-04-25T16:47:52Z</time></trkpt><trkpt lat="43.45089016106503" lon="10.809984792697247"><ele>97.0</ele><time>2026-04-25T16:47:53Z</time></trkpt><trkpt lat="43.45093506041836" lon="10.810205827760646"><ele>99.0</ele><time>2026-04-25T16:47:54Z</time></trkpt><trkpt lat="43.45095788916576" lon="10.810434861602847"><ele>101.0</ele><time>2026-04-25T16:47:55Z</time></trkpt><trkpt lat="43.45100831653199" lon="10.810657241918529"><ele>103.0</ele><time>2026-04-25T16:47:56Z</time></trkpt><trkpt lat="43.45107793205731" lon="10.810865425180133"><ele>104.33333333333334</ele><time>2026-04-25T16:47:57Z</time></trkpt><trkpt lat="43.45112900685321" lon="10.811071907687824"><ele>105.66666666666666</ele><time>2026-04-25T16:47:58Z</time></trkpt><trkpt lat="43.45117915810922" lon="10.811281425212192"><ele>107.0</ele><time>2026-04-25T16:47:59Z</time></trkpt><trkpt lat="43.45122764000094" lon="10.811491507011699"><ele>107.0</ele><time>2026-04-25T16:48:00Z</time></trkpt><trkpt lat="43.45127133004061" lon="10.81168963104693"><ele>107.0</ele><time>2026-04-25T16:48:01Z</time></trkpt><trkpt lat="43.45131256502681" lon="10.811891706281278"><ele>107.0</ele><time>2026-04-25T16:48:02Z</time></trkpt><trkpt lat="43.45134653275075" lon="10.81210199040679"><ele>104.66666666666666</ele><time>2026-04-25T16:48:03Z</time></trkpt><trkpt lat="43.451364082187" lon="10.81231929990169"><ele>102.33333333333334</ele><time>2026-04-25T16:48:04Z</time></trkpt><trkpt lat="43.45137514380756" lon="10.812538809685575"><ele>100.0</ele><time>2026-04-25T16:48:05Z</time></trkpt><trkpt lat="43.451381186376565" lon="10.812763791665235"><ele>100.0</ele><time>2026-04-25T16:48:06Z</time></trkpt><trkpt lat="43.45138929304423" lon="10.812986421229805"><ele>100.0</ele><time>2026-04-25T16:48:07Z</time></trkpt><trkpt lat="43.45139672478759" lon="10.813198421701042"><ele>100.0</ele><time>2026-04-25T16:48:08Z</time></trkpt><trkpt lat="43.451400901188386" lon="10.813414529333821"><ele>100.33333333333334</ele><time>2026-04-25T16:48:09Z</time></trkpt><trkpt lat="43.45141654204631" lon="10.813629943656506"><ele>100.66666666666666</ele><time>2026-04-25T16:48:10Z</time></trkpt><trkpt lat="43.45142241399329" lon="10.813851811256898"><ele>101.0</ele><time>2026-04-25T16:48:11Z</time></trkpt><trkpt lat="43.45145193461715" lon="10.81407038800772"><ele>101.0</ele><time>2026-04-25T16:48:12Z</time></trkpt><trkpt lat="43.45148997730648" lon="10.8142936062867"><ele>101.0</ele><time>2026-04-25T16:48:13Z</time></trkpt><trkpt lat="43.451539696763646" lon="10.814515248675107"><ele>101.0</ele><time>2026-04-25T16:48:14Z</time></trkpt><trkpt lat="43.45159629405844" lon="10.814731652294013"><ele>101.0</ele><time>2026-04-25T16:48:15Z</time></trkpt><trkpt lat="43.45165410558701" lon="10.814945202295014"><ele>101.0</ele><time>2026-04-25T16:48:16Z</time></trkpt><trkpt lat="43.451712741088286" lon="10.815157916825948"><ele>101.0</ele><time>2026-04-25T16:48:17Z</time></trkpt><trkpt lat="43.4517854487029" lon="10.815363157141567"><ele>100.0</ele><time>2026-04-25T16:48:18Z</time></trkpt><trkpt lat="43.4518400702593" lon="10.815577447898258"><ele>99.0</ele><time>2026-04-25T16:48:19Z</time></trkpt><trkpt lat="43.45189551360204" lon="10.81578669334166"><ele>98.0</ele><time>2026-04-25T16:48:20Z</time></trkpt><trkpt lat="43.451951631447876" lon="10.8159927854337"><ele>98.0</ele><time>2026-04-25T16:48:21Z</time></trkpt><trkpt lat="43.45201156771924" lon="10.816200770679275"><ele>98.0</ele><time>2026-04-25T16:48:22Z</time></trkpt><trkpt lat="43.45206808794806" lon="10.81641222695913"><ele>98.0</ele><time>2026-04-25T16:48:23Z</time></trkpt><trkpt lat="43.452128233257746" lon="10.81662967753131"><ele>99.0</ele><time>2026-04-25T16:48:24Z</time></trkpt><trkpt lat="43.452188435624116" lon="10.816842609482874"><ele>100.0</ele><time>2026-04-25T16:48:25Z</time></trkpt><trkpt lat="43.45224860712775" lon="10.817059203988148"><ele>101.0</ele><time>2026-04-25T16:48:26Z</time></trkpt><trkpt lat="43.452302553066836" lon="10.817279133829787"><ele>101.0</ele><time>2026-04-25T16:48:27Z</time></trkpt><trkpt lat="43.452349003269354" lon="10.817499745575272"><ele>101.0</ele><time>2026-04-25T16:48:28Z</time></trkpt><trkpt lat="43.452392549733375" lon="10.817715736844873"><ele>101.0</ele><time>2026-04-25T16:48:29Z</time></trkpt><trkpt lat="43.45241492673853" lon="10.817941447800278"><ele>103.0</ele><time>2026-04-25T16:48:30Z</time></trkpt><trkpt lat="43.45245165246752" lon="10.818166122354343"><ele>105.0</ele><time>2026-04-25T16:48:31Z</time></trkpt><trkpt lat="43.45248767866794" lon="10.81838883284878"><ele>107.0</ele><time>2026-04-25T16:48:32Z</time></trkpt><trkpt lat="43.452523989340634" lon="10.818613301952293"><ele>109.33333333333333</ele><time>2026-04-25T16:48:33Z</time></trkpt><trkpt lat="43.45256234896491" lon="10.818834963923296"><ele>111.66666666666666</ele><time>2026-04-25T16:48:34Z</time></trkpt><trkpt lat="43.45260743255303" lon="10.819052539258786"><ele>114.0</ele><time>2026-04-25T16:48:35Z</time></trkpt><trkpt lat="43.45266207156261" lon="10.819265526364669"><ele>118.0</ele><time>2026-04-25T16:48:36Z</time></trkpt><trkpt lat="43.45272867340728" lon="10.819473338482505"><ele>122.0</ele><time>2026-04-25T16:48:37Z</time></trkpt><trkpt lat="43.45280964213761" lon="10.819671068035259"><ele>126.0</ele><time>2026-04-25T16:48:38Z</time></trkpt><trkpt lat="43.45286815983452" lon="10.81987279765065"><ele>126.0</ele><time>2026-04-25T16:48:39Z</time></trkpt><trkpt lat="43.45293147610335" lon="10.82007635787044"><ele>126.0</ele><time>2026-04-25T16:48:40Z</time></trkpt><trkpt lat="43.452983006273904" lon="10.820286190124614"><ele>126.0</ele><time>2026-04-25T16:48:41Z</time></trkpt><trkpt lat="43.45303738296713" lon="10.820509714756762"><ele>119.33333333333334</ele><time>2026-04-25T16:48:42Z</time></trkpt><trkpt lat="43.45309183729581" lon="10.820727338482623"><ele>112.66666666666667</ele><time>2026-04-25T16:48:43Z</time></trkpt><trkpt lat="43.45314528387848" lon="10.82094563502968"><ele>106.0</ele><time>2026-04-25T16:48:44Z</time></trkpt><trkpt lat="43.453194927895524" lon="10.821170775311325"><ele>106.0</ele><time>2026-04-25T16:48:45Z</time></trkpt><trkpt lat="43.453252958493074" lon="10.821397166764916"><ele>106.0</ele><time>2026-04-25T16:48:46Z</time></trkpt><trkpt lat="43.45330607191766" lon="10.821622475730742"><ele>106.0</ele><time>2026-04-25T16:48:47Z</time></trkpt><trkpt lat="43.453364132721184" lon="10.821844531932944"><ele>109.0</ele><time>2026-04-25T16:48:48Z</time></trkpt><trkpt lat="43.45341929158109" lon="10.822064989143584"><ele>112.0</ele><time>2026-04-25T16:48:49Z</time></trkpt><trkpt lat="43.45347564236108" lon="10.82228920350867"><ele>115.0</ele><time>2026-04-25T16:48:50Z</time></trkpt><trkpt lat="43.45352996820669" lon="10.82250419335539"><ele>118.66666666666667</ele><time>2026-04-25T16:48:51Z</time></trkpt><trkpt lat="43.45358102477315" lon="10.822713378593784"><ele>122.33333333333334</ele><time>2026-04-25T16:48:52Z</time></trkpt><trkpt lat="43.45363002379361" lon="10.822922109200308"><ele>126.0</ele><time>2026-04-25T16:48:53Z</time></trkpt><trkpt lat="43.453675707174426" lon="10.823135933845862"><ele>126.0</ele><time>2026-04-25T16:48:54Z</time></trkpt><trkpt lat="43.45371825645494" lon="10.823355555533391"><ele>126.0</ele><time>2026-04-25T16:48:55Z</time></trkpt><trkpt lat="43.453756896196616" lon="10.823579667720923"><ele>126.0</ele><time>2026-04-25T16:48:56Z</time></trkpt><trkpt lat="43.45379199708981" lon="10.82380447877595"><ele>117.66666666666666</ele><time>2026-04-25T16:48:57Z</time></trkpt><trkpt lat="43.453822367573295" lon="10.824032206969013"><ele>109.33333333333333</ele><time>2026-04-25T16:48:58Z</time></trkpt><trkpt lat="43.45385128246863" lon="10.82425450471148"><ele>101.0</ele><time>2026-04-25T16:48:59Z</time></trkpt><trkpt lat="43.45387893625412" lon="10.824479240641573"><ele>101.0</ele><time>2026-04-25T16:49:00Z</time></trkpt><trkpt lat="43.45390494604181" lon="10.82470462714558"><ele>101.0</ele><time>2026-04-25T16:49:01Z</time></trkpt><trkpt lat="43.45393586085106" lon="10.82492548795958"><ele>101.0</ele><time>2026-04-25T16:49:02Z</time></trkpt><trkpt lat="43.45394943847366" lon="10.825154157090148"><ele>102.33333333333333</ele><time>2026-04-25T16:49:03Z</time></trkpt><trkpt lat="43.45397797598158" lon="10.825380383607303"><ele>103.66666666666666</ele><time>2026-04-25T16:49:04Z</time></trkpt><trkpt lat="43.45400745859579" lon="10.825610875682717"><ele>105.0</ele><time>2026-04-25T16:49:05Z</time></trkpt><trkpt lat="43.45403532970855" lon="10.82582876925585"><ele>105.0</ele><time>2026-04-25T16:49:06Z</time></trkpt><trkpt lat="43.45406134877359" lon="10.826032183747762"><ele>105.0</ele><time>2026-04-25T16:49:07Z</time></trkpt><trkpt lat="43.45408657369177" lon="10.826229389493026"><ele>105.0</ele><time>2026-04-25T16:49:08Z</time></trkpt><trkpt lat="43.45411142343582" lon="10.826423660890292"><ele>105.0</ele><time>2026-04-25T16:49:09Z</time></trkpt><trkpt lat="43.45413717039358" lon="10.826619015019569"><ele>105.0</ele><time>2026-04-25T16:49:10Z</time></trkpt><trkpt lat="43.454160294753464" lon="10.826795993843689"><ele>105.0</ele><time>2026-04-25T16:49:11Z</time></trkpt><trkpt lat="43.454207235073625" lon="10.826965797890939"><ele>105.0</ele><time>2026-04-25T16:49:12Z</time></trkpt><trkpt lat="43.454228643005024" lon="10.827142378152894"><ele>105.0</ele><time>2026-04-25T16:49:13Z</time></trkpt><trkpt lat="43.45424810187431" lon="10.82732048648913"><ele>105.25</ele><time>2026-04-25T16:49:14Z</time></trkpt><trkpt lat="43.45425802266414" lon="10.827489189854292"><ele>105.5</ele><time>2026-04-25T16:49:15Z</time></trkpt><trkpt lat="43.45426206533316" lon="10.827655541308694"><ele>105.75</ele><time>2026-04-25T16:49:16Z</time></trkpt><trkpt lat="43.45425011307806" lon="10.82782863452751"><ele>106.0</ele><time>2026-04-25T16:49:17Z</time></trkpt><trkpt lat="43.4542222073553" lon="10.82800725613145"><ele>106.0</ele><time>2026-04-25T16:49:18Z</time></trkpt><trkpt lat="43.454163794180715" lon="10.828196554146718"><ele>106.0</ele><time>2026-04-25T16:49:19Z</time></trkpt><trkpt lat="43.45412886231914" lon="10.828351852342035"><ele>106.0</ele><time>2026-04-25T16:49:20Z</time></trkpt><trkpt lat="43.454097787879576" lon="10.828522181326454"><ele>106.0</ele><time>2026-04-25T16:49:21Z</time></trkpt><trkpt lat="43.45407716321842" lon="10.828702522192238"><ele>105.75</ele><time>2026-04-25T16:49:22Z</time></trkpt><trkpt lat="43.45407285823656" lon="10.828895988106673"><ele>105.5</ele><time>2026-04-25T16:49:23Z</time></trkpt><trkpt lat="43.45408052754561" lon="10.829081960592907"><ele>105.25</ele><time>2026-04-25T16:49:24Z</time></trkpt><trkpt lat="43.45408956613111" lon="10.829270419299608"><ele>105.0</ele><time>2026-04-25T16:49:25Z</time></trkpt><trkpt lat="43.454097703456505" lon="10.829440086406589"><ele>105.0</ele><time>2026-04-25T16:49:26Z</time></trkpt><trkpt lat="43.4541141060442" lon="10.829607007119467"><ele>105.0</ele><time>2026-04-25T16:49:27Z</time></trkpt><trkpt lat="43.45411496923705" lon="10.829774971927957"><ele>105.0</ele><time>2026-04-25T16:49:28Z</time></trkpt><trkpt lat="43.45412062315491" lon="10.82992573555322"><ele>105.0</ele><time>2026-04-25T16:49:29Z</time></trkpt><trkpt lat="43.45413141173732" lon="10.830061347201427"><ele>104.83333333333333</ele><time>2026-04-25T16:49:30Z</time></trkpt><trkpt lat="43.45415019489184" lon="10.83017863439666"><ele>104.66666666666666</ele><time>2026-04-25T16:49:31Z</time></trkpt><trkpt lat="43.454189553730615" lon="10.830282254105516"><ele>104.5</ele><time>2026-04-25T16:49:32Z</time></trkpt><trkpt lat="43.45424546571747" lon="10.830374697776422"><ele>104.33333333333333</ele><time>2026-04-25T16:49:33Z</time></trkpt><trkpt lat="43.454314426120234" lon="10.830439185661591"><ele>104.16666666666666</ele><time>2026-04-25T16:49:34Z</time></trkpt><trkpt lat="43.454395994872954" lon="10.830478939096395"><ele>104.0</ele><time>2026-04-25T16:49:35Z</time></trkpt><trkpt lat="43.45448962311011" lon="10.830490680425456"><ele>104.0</ele><time>2026-04-25T16:49:36Z</time></trkpt><trkpt lat="43.454595749513594" lon="10.830480045474532"><ele>104.0</ele><time>2026-04-25T16:49:37Z</time></trkpt><trkpt lat="43.45470885251626" lon="10.830454902395577"><ele>104.0</ele><time>2026-04-25T16:49:38Z</time></trkpt><trkpt lat="43.45482124253812" lon="10.830422719676765"><ele>104.0</ele><time>2026-04-25T16:49:39Z</time></trkpt><trkpt lat="43.454924736410355" lon="10.83039157122371"><ele>104.0</ele><time>2026-04-25T16:49:40Z</time></trkpt><trkpt lat="43.455018971076186" lon="10.830364355949142"><ele>103.6</ele><time>2026-04-25T16:49:41Z</time></trkpt><trkpt lat="43.455103187144324" lon="10.830338924405563"><ele>103.2</ele><time>2026-04-25T16:49:42Z</time></trkpt><trkpt lat="43.45517795185108" lon="10.830311129488729"><ele>102.8</ele><time>2026-04-25T16:49:43Z</time></trkpt><trkpt lat="43.455270318860464" lon="10.830273739897851"><ele>102.39999999999999</ele><time>2026-04-25T16:49:45Z</time></trkpt><trkpt lat="43.45537512041257" lon="10.830201424746729"><ele>102.0</ele><time>2026-04-25T16:50:01Z</time></trkpt><trkpt lat="43.455507167629555" lon="10.83012963263298"><ele>102.0</ele><time>2026-04-25T16:50:03Z</time></trkpt><trkpt lat="43.45557807323989" lon="10.830106054215827"><ele>102.0</ele><time>2026-04-25T16:50:04Z</time></trkpt><trkpt lat="43.455703452459325" lon="10.830053181452955"><ele>102.0</ele><time>2026-04-25T16:50:06Z</time></trkpt><trkpt lat="43.45577561375815" lon="10.830020762200926"><ele>102.0</ele><time>2026-04-25T16:50:07Z</time></trkpt><trkpt lat="43.455855825337956" lon="10.829985874781423"><ele>102.0</ele><time>2026-04-25T16:50:08Z</time></trkpt><trkpt lat="43.45594177616249" lon="10.829953245036604"><ele>102.0</ele><time>2026-04-25T16:50:09Z</time></trkpt><trkpt lat="43.45603682206334" lon="10.829917435959501"><ele>102.0</ele><time>2026-04-25T16:50:10Z</time></trkpt><trkpt lat="43.456142143273176" lon="10.829885474632174"><ele>102.0</ele><time>2026-04-25T16:50:11Z</time></trkpt><trkpt lat="43.45624198417114" lon="10.829852493231016"><ele>102.0</ele><time>2026-04-25T16:50:12Z</time></trkpt><trkpt lat="43.45633481265982" lon="10.829828504881128"><ele>102.0</ele><time>2026-04-25T16:50:13Z</time></trkpt><trkpt lat="43.45642584694678" lon="10.82980684295526"><ele>101.66666666666667</ele><time>2026-04-25T16:50:14Z</time></trkpt><trkpt lat="43.45651568014338" lon="10.829788895576838"><ele>101.33333333333334</ele><time>2026-04-25T16:50:15Z</time></trkpt><trkpt lat="43.45659797858637" lon="10.829775689374104"><ele>101.0</ele><time>2026-04-25T16:50:16Z</time></trkpt><trkpt lat="43.456675142409594" lon="10.829773531916628"><ele>100.66666666666667</ele><time>2026-04-25T16:50:17Z</time></trkpt><trkpt lat="43.45674199190457" lon="10.829791118496225"><ele>100.33333333333334</ele><time>2026-04-25T16:50:18Z</time></trkpt><trkpt lat="43.45684628639079" lon="10.829831767539853"><ele>100.0</ele><time>2026-04-25T16:50:20Z</time></trkpt><trkpt lat="43.45691156684043" lon="10.829916640131438"><ele>100.0</ele><time>2026-04-25T16:50:22Z</time></trkpt><trkpt lat="43.45705871135158" lon="10.829816162029351"><ele>100.0</ele><time>2026-04-25T16:50:24Z</time></trkpt><trkpt lat="43.45712805786077" lon="10.829789625325809"><ele>100.0</ele><time>2026-04-25T16:50:25Z</time></trkpt><trkpt lat="43.45721313942126" lon="10.82979159302429"><ele>100.0</ele><time>2026-04-25T16:50:26Z</time></trkpt><trkpt lat="43.45730569670518" lon="10.829813275371114"><ele>100.0</ele><time>2026-04-25T16:50:27Z</time></trkpt><trkpt lat="43.45740333310349" lon="10.829845019061022"><ele>100.25</ele><time>2026-04-25T16:50:28Z</time></trkpt><trkpt lat="43.457515418233164" lon="10.829878330098612"><ele>100.5</ele><time>2026-04-25T16:50:29Z</time></trkpt><trkpt lat="43.45763400072726" lon="10.829921436421126"><ele>100.75</ele><time>2026-04-25T16:50:30Z</time></trkpt><trkpt lat="43.45775450447638" lon="10.829965215755417"><ele>101.0</ele><time>2026-04-25T16:50:31Z</time></trkpt><trkpt lat="43.45788176720316" lon="10.830016472723692"><ele>101.0</ele><time>2026-04-25T16:50:32Z</time></trkpt><trkpt lat="43.45801432399575" lon="10.830076914848584"><ele>101.0</ele><time>2026-04-25T16:50:33Z</time></trkpt><trkpt lat="43.45814666359198" lon="10.830141515748911"><ele>101.0</ele><time>2026-04-25T16:50:34Z</time></trkpt><trkpt lat="43.458286116809205" lon="10.830199636501908"><ele>101.0</ele><time>2026-04-25T16:50:35Z</time></trkpt><trkpt lat="43.4584250867855" lon="10.83026109082413"><ele>101.0</ele><time>2026-04-25T16:50:36Z</time></trkpt><trkpt lat="43.458568590436954" lon="10.830320843873599"><ele>101.0</ele><time>2026-04-25T16:50:37Z</time></trkpt><trkpt lat="43.4587150231719" lon="10.830379076705102"><ele>101.0</ele><time>2026-04-25T16:50:38Z</time></trkpt><trkpt lat="43.458862698764136" lon="10.830440960553611"><ele>104.33333333333333</ele><time>2026-04-25T16:50:39Z</time></trkpt><trkpt lat="43.45901251481447" lon="10.830504073477666"><ele>107.66666666666666</ele><time>2026-04-25T16:50:40Z</time></trkpt><trkpt lat="43.4591644006082" lon="10.830566980115096"><ele>111.0</ele><time>2026-04-25T16:50:41Z</time></trkpt><trkpt lat="43.45930545163296" lon="10.830632659690805"><ele>111.0</ele><time>2026-04-25T16:50:42Z</time></trkpt><trkpt lat="43.45944766260858" lon="10.830695235453009"><ele>111.0</ele><time>2026-04-25T16:50:43Z</time></trkpt><trkpt lat="43.45959158119613" lon="10.830758298014546"><ele>111.0</ele><time>2026-04-25T16:50:44Z</time></trkpt><trkpt lat="43.45973285650836" lon="10.830820140809825"><ele>111.0</ele><time>2026-04-25T16:50:45Z</time></trkpt><trkpt lat="43.459874049538215" lon="10.830880035643272"><ele>113.0</ele><time>2026-04-25T16:50:46Z</time></trkpt><trkpt lat="43.4600109743536" lon="10.830942557328722"><ele>115.0</ele><time>2026-04-25T16:50:47Z</time></trkpt><trkpt lat="43.460145054448965" lon="10.831003992030062"><ele>117.0</ele><time>2026-04-25T16:50:48Z</time></trkpt><trkpt lat="43.46027736972023" lon="10.83106315672453"><ele>119.0</ele><time>2026-04-25T16:50:49Z</time></trkpt><trkpt lat="43.46040904472141" lon="10.831119191671815"><ele>122.25</ele><time>2026-04-25T16:50:50Z</time></trkpt><trkpt lat="43.46053845550739" lon="10.83117412026435"><ele>125.5</ele><time>2026-04-25T16:50:51Z</time></trkpt><trkpt lat="43.460666308235176" lon="10.831229823127059"><ele>128.75</ele><time>2026-04-25T16:50:52Z</time></trkpt><trkpt lat="43.46079547841305" lon="10.83128663436153"><ele>132.0</ele><time>2026-04-25T16:50:53Z</time></trkpt><trkpt lat="43.460927729142334" lon="10.831344334628465"><ele>132.0</ele><time>2026-04-25T16:50:54Z</time></trkpt><trkpt lat="43.46106010397179" lon="10.831401857114662"><ele>132.0</ele><time>2026-04-25T16:50:55Z</time></trkpt><trkpt lat="43.461195084507864" lon="10.83146276009744"><ele>132.0</ele><time>2026-04-25T16:50:56Z</time></trkpt><trkpt lat="43.46133016016546" lon="10.831525284522428"><ele>132.0</ele><time>2026-04-25T16:50:57Z</time></trkpt><trkpt lat="43.46146556640887" lon="10.831587517573759"><ele>132.0</ele><time>2026-04-25T16:50:58Z</time></trkpt><trkpt lat="43.46160264427882" lon="10.83164566722884"><ele>132.0</ele><time>2026-04-25T16:50:59Z</time></trkpt><trkpt lat="43.46173885120963" lon="10.831705139723535"><ele>132.0</ele><time>2026-04-25T16:51:00Z</time></trkpt><trkpt lat="43.46187174421628" lon="10.831765915162592"><ele>132.0</ele><time>2026-04-25T16:51:01Z</time></trkpt><trkpt lat="43.46201134524075" lon="10.831826513043154"><ele>132.5</ele><time>2026-04-25T16:51:02Z</time></trkpt><trkpt lat="43.46215017129464" lon="10.83188711982487"><ele>133.0</ele><time>2026-04-25T16:51:03Z</time></trkpt><trkpt lat="43.462287635073665" lon="10.831950669282131"><ele>133.5</ele><time>2026-04-25T16:51:04Z</time></trkpt><trkpt lat="43.46242702419578" lon="10.832006645634118"><ele>134.0</ele><time>2026-04-25T16:51:05Z</time></trkpt><trkpt lat="43.46256964315883" lon="10.832066867579194"><ele>134.0</ele><time>2026-04-25T16:51:06Z</time></trkpt><trkpt lat="43.46270932601206" lon="10.832119673433134"><ele>134.0</ele><time>2026-04-25T16:51:07Z</time></trkpt><trkpt lat="43.462855209093725" lon="10.83216638969078"><ele>134.0</ele><time>2026-04-25T16:51:08Z</time></trkpt><trkpt lat="43.4630019970321" lon="10.83220792871365"><ele>134.0</ele><time>2026-04-25T16:51:09Z</time></trkpt><trkpt lat="43.463149080732606" lon="10.83224283637703"><ele>137.5</ele><time>2026-04-25T16:51:10Z</time></trkpt><trkpt lat="43.463295210624544" lon="10.832276084790625"><ele>141.0</ele><time>2026-04-25T16:51:11Z</time></trkpt><trkpt lat="43.46343829876329" lon="10.832311099985812"><ele>144.5</ele><time>2026-04-25T16:51:12Z</time></trkpt><trkpt lat="43.46357769771124" lon="10.832346266376186"><ele>148.0</ele><time>2026-04-25T16:51:13Z</time></trkpt><trkpt lat="43.463716814167206" lon="10.832378585426953"><ele>150.25</ele><time>2026-04-25T16:51:14Z</time></trkpt><trkpt lat="43.46385178209441" lon="10.832414327233163"><ele>152.5</ele><time>2026-04-25T16:51:15Z</time></trkpt><trkpt lat="43.4639809595226" lon="10.832455166616578"><ele>154.75</ele><time>2026-04-25T16:51:16Z</time></trkpt><trkpt lat="43.46410973194112" lon="10.832511234436954"><ele>157.0</ele><time>2026-04-25T16:51:17Z</time></trkpt><trkpt lat="43.46423528972498" lon="10.832590452071067"><ele>157.75</ele><time>2026-04-25T16:51:18Z</time></trkpt><trkpt lat="43.464360290751095" lon="10.832677122085622"><ele>158.5</ele><time>2026-04-25T16:51:19Z</time></trkpt><trkpt lat="43.46447888665015" lon="10.832782089604578"><ele>159.25</ele><time>2026-04-25T16:51:20Z</time></trkpt><trkpt lat="43.46458848945974" lon="10.832900661435994"><ele>160.0</ele><time>2026-04-25T16:51:21Z</time></trkpt><trkpt lat="43.46468581746263" lon="10.83303476144802"><ele>160.0</ele><time>2026-04-25T16:51:22Z</time></trkpt><trkpt lat="43.46477974296444" lon="10.833185775853272"><ele>160.0</ele><time>2026-04-25T16:51:23Z</time></trkpt><trkpt lat="43.464870949942046" lon="10.833344753339771"><ele>160.0</ele><time>2026-04-25T16:51:24Z</time></trkpt><trkpt lat="43.4649513637222" lon="10.83351220121438"><ele>160.0</ele><time>2026-04-25T16:51:25Z</time></trkpt><trkpt lat="43.46501640583949" lon="10.833684902710798"><ele>160.75</ele><time>2026-04-25T16:51:26Z</time></trkpt><trkpt lat="43.46510083328222" lon="10.83384623844165"><ele>161.5</ele><time>2026-04-25T16:51:27Z</time></trkpt><trkpt lat="43.46518578481767" lon="10.83401467816854"><ele>162.25</ele><time>2026-04-25T16:51:28Z</time></trkpt><trkpt lat="43.46526904232945" lon="10.834188047855625"><ele>163.0</ele><time>2026-04-25T16:51:29Z</time></trkpt><trkpt lat="43.465351627626156" lon="10.834359040721955"><ele>163.33333333333334</ele><time>2026-04-25T16:51:30Z</time></trkpt><trkpt lat="43.465435634848" lon="10.834529679719177"><ele>163.66666666666666</ele><time>2026-04-25T16:51:31Z</time></trkpt><trkpt lat="43.46552151323119" lon="10.83470343731716"><ele>164.0</ele><time>2026-04-25T16:51:32Z</time></trkpt><trkpt lat="43.46560546201931" lon="10.83487713072134"><ele>164.75</ele><time>2026-04-25T16:51:33Z</time></trkpt><trkpt lat="43.46568862351916" lon="10.835048816046974"><ele>165.5</ele><time>2026-04-25T16:51:34Z</time></trkpt><trkpt lat="43.465773366483845" lon="10.835215136115671"><ele>166.25</ele><time>2026-04-25T16:51:35Z</time></trkpt><trkpt lat="43.465849955535916" lon="10.835369148003917"><ele>167.0</ele><time>2026-04-25T16:51:36Z</time></trkpt><trkpt lat="43.46592283822969" lon="10.83551452209104"><ele>169.0</ele><time>2026-04-25T16:51:37Z</time></trkpt><trkpt lat="43.46599534043136" lon="10.835651375854445"><ele>171.0</ele><time>2026-04-25T16:51:38Z</time></trkpt><trkpt lat="43.4660736695173" lon="10.835796573269256"><ele>173.0</ele><time>2026-04-25T16:51:39Z</time></trkpt><trkpt lat="43.46615925531389" lon="10.83593669667228"><ele>175.0</ele><time>2026-04-25T16:51:40Z</time></trkpt><trkpt lat="43.466259483225684" lon="10.836066768137927"><ele>175.75</ele><time>2026-04-25T16:51:41Z</time></trkpt><trkpt lat="43.46636278070847" lon="10.836193516002348"><ele>176.5</ele><time>2026-04-25T16:51:42Z</time></trkpt><trkpt lat="43.46646923386307" lon="10.8363193829412"><ele>177.25</ele><time>2026-04-25T16:51:43Z</time></trkpt><trkpt lat="43.46658372955281" lon="10.836428131009903"><ele>178.0</ele><time>2026-04-25T16:51:44Z</time></trkpt><trkpt lat="43.46670539666393" lon="10.836526606851839"><ele>178.0</ele><time>2026-04-25T16:51:45Z</time></trkpt><trkpt lat="43.46682899058374" lon="10.83661215672284"><ele>178.0</ele><time>2026-04-25T16:51:46Z</time></trkpt><trkpt lat="43.46695892923184" lon="10.836686350365593"><ele>178.0</ele><time>2026-04-25T16:51:47Z</time></trkpt><trkpt lat="43.467090274832735" lon="10.836750364542679"><ele>178.0</ele><time>2026-04-25T16:51:48Z</time></trkpt><trkpt lat="43.46721692761946" lon="10.836809004967066"><ele>180.5</ele><time>2026-04-25T16:51:49Z</time></trkpt><trkpt lat="43.4673353982471" lon="10.836858896607463"><ele>183.0</ele><time>2026-04-25T16:51:50Z</time></trkpt><trkpt lat="43.467443199573204" lon="10.836901932661306"><ele>185.5</ele><time>2026-04-25T16:51:51Z</time></trkpt><trkpt lat="43.46755635439466" lon="10.836948532374848"><ele>188.0</ele><time>2026-04-25T16:51:52Z</time></trkpt><trkpt lat="43.46766950902181" lon="10.837010964126163"><ele>188.0</ele><time>2026-04-25T16:51:53Z</time></trkpt><trkpt lat="43.467784507641575" lon="10.837083661528137"><ele>188.0</ele><time>2026-04-25T16:51:54Z</time></trkpt><trkpt lat="43.4678942440294" lon="10.837168044331703"><ele>188.0</ele><time>2026-04-25T16:51:55Z</time></trkpt><trkpt lat="43.46800407763499" lon="10.837271657409236"><ele>188.0</ele><time>2026-04-25T16:51:56Z</time></trkpt><trkpt lat="43.468110097566566" lon="10.837388972838342"><ele>189.5</ele><time>2026-04-25T16:51:57Z</time></trkpt><trkpt lat="43.4682076316736" lon="10.837506571498658"><ele>191.0</ele><time>2026-04-25T16:51:58Z</time></trkpt><trkpt lat="43.468288018802525" lon="10.837628396118198"><ele>192.5</ele><time>2026-04-25T16:51:59Z</time></trkpt><trkpt lat="43.4683713161463" lon="10.837763288352315"><ele>194.0</ele><time>2026-04-25T16:52:00Z</time></trkpt><trkpt lat="43.46845488086981" lon="10.837909328242327"><ele>194.0</ele><time>2026-04-25T16:52:01Z</time></trkpt><trkpt lat="43.46852613065631" lon="10.838057222107453"><ele>194.0</ele><time>2026-04-25T16:52:02Z</time></trkpt><trkpt lat="43.46858271930455" lon="10.838199685185309"><ele>194.0</ele><time>2026-04-25T16:52:03Z</time></trkpt><trkpt lat="43.46863383552487" lon="10.83833421599066"><ele>194.0</ele><time>2026-04-25T16:52:04Z</time></trkpt><trkpt lat="43.468679649943674" lon="10.83846214046657"><ele>195.0</ele><time>2026-04-25T16:52:05Z</time></trkpt><trkpt lat="43.46871685924674" lon="10.838587127942223"><ele>196.0</ele><time>2026-04-25T16:52:06Z</time></trkpt><trkpt lat="43.46875503915253" lon="10.838724326298854"><ele>197.0</ele><time>2026-04-25T16:52:07Z</time></trkpt><trkpt lat="43.468797809303794" lon="10.838867456996866"><ele>198.0</ele><time>2026-04-25T16:52:08Z</time></trkpt><trkpt lat="43.4688452468792" lon="10.839017787892496"><ele>199.0</ele><time>2026-04-25T16:52:09Z</time></trkpt><trkpt lat="43.46889452844165" lon="10.839172556646563"><ele>197.0</ele><time>2026-04-25T16:52:10Z</time></trkpt><trkpt lat="43.46894235964317" lon="10.839332976264046"><ele>195.0</ele><time>2026-04-25T16:52:11Z</time></trkpt><trkpt lat="43.468989536480144" lon="10.839498600037603"><ele>193.0</ele><time>2026-04-25T16:52:12Z</time></trkpt><trkpt lat="43.46903889896615" lon="10.839671437036909"><ele>191.0</ele><time>2026-04-25T16:52:13Z</time></trkpt><trkpt lat="43.469091931023705" lon="10.839842305638781"><ele>191.0</ele><time>2026-04-25T16:52:14Z</time></trkpt><trkpt lat="43.469147984809034" lon="10.840015598972391"><ele>191.0</ele><time>2026-04-25T16:52:15Z</time></trkpt><trkpt lat="43.46920167121396" lon="10.840190698876064"><ele>191.0</ele><time>2026-04-25T16:52:16Z</time></trkpt><trkpt lat="43.469250108388856" lon="10.840349310460619"><ele>191.0</ele><time>2026-04-25T16:52:17Z</time></trkpt><trkpt lat="43.4692952434206" lon="10.840493508881298"><ele>191.4</ele><time>2026-04-25T16:52:18Z</time></trkpt><trkpt lat="43.4693356792622" lon="10.84063547675784"><ele>191.8</ele><time>2026-04-25T16:52:19Z</time></trkpt><trkpt lat="43.469370045690994" lon="10.840778312752342"><ele>192.20000000000002</ele><time>2026-04-25T16:52:20Z</time></trkpt><trkpt lat="43.46938045584184" lon="10.84091710858652"><ele>192.60000000000002</ele><time>2026-04-25T16:52:21Z</time></trkpt><trkpt lat="43.4693822032449" lon="10.841057906911985"><ele>193.0</ele><time>2026-04-25T16:52:22Z</time></trkpt><trkpt lat="43.469362712706115" lon="10.84121042080643"><ele>193.0</ele><time>2026-04-25T16:52:23Z</time></trkpt><trkpt lat="43.469307353243515" lon="10.841347763657762"><ele>193.0</ele><time>2026-04-25T16:52:24Z</time></trkpt><trkpt lat="43.46926053136477" lon="10.84150915589229"><ele>193.0</ele><time>2026-04-25T16:52:25Z</time></trkpt><trkpt lat="43.469201726974156" lon="10.841642472331786"><ele>193.0</ele><time>2026-04-25T16:52:26Z</time></trkpt><trkpt lat="43.46915571540466" lon="10.841776396791246"><ele>192.75</ele><time>2026-04-25T16:52:27Z</time></trkpt><trkpt lat="43.46912051512673" lon="10.841924849020607"><ele>192.5</ele><time>2026-04-25T16:52:28Z</time></trkpt><trkpt lat="43.46909128804726" lon="10.842086875423778"><ele>192.25</ele><time>2026-04-25T16:52:29Z</time></trkpt><trkpt lat="43.46910008031521" lon="10.842264346646303"><ele>192.0</ele><time>2026-04-25T16:52:30Z</time></trkpt><trkpt lat="43.469136776095596" lon="10.84244000570113"><ele>192.0</ele><time>2026-04-25T16:52:31Z</time></trkpt><trkpt lat="43.46918288957493" lon="10.842610475815219"><ele>192.0</ele><time>2026-04-25T16:52:32Z</time></trkpt><trkpt lat="43.46922990327678" lon="10.842783258111803"><ele>192.0</ele><time>2026-04-25T16:52:33Z</time></trkpt><trkpt lat="43.46927870649026" lon="10.842962613851325"><ele>192.0</ele><time>2026-04-25T16:52:34Z</time></trkpt><trkpt lat="43.469340471992155" lon="10.843133424776347"><ele>191.75</ele><time>2026-04-25T16:52:35Z</time></trkpt><trkpt lat="43.469380544128114" lon="10.843304766858713"><ele>191.5</ele><time>2026-04-25T16:52:36Z</time></trkpt><trkpt lat="43.46942595885678" lon="10.843475764643898"><ele>191.25</ele><time>2026-04-25T16:52:37Z</time></trkpt><trkpt lat="43.46946839485825" lon="10.843636762802317"><ele>191.0</ele><time>2026-04-25T16:52:38Z</time></trkpt><trkpt lat="43.46949533763638" lon="10.843805522383903"><ele>189.5</ele><time>2026-04-25T16:52:39Z</time></trkpt><trkpt lat="43.4695146731249" lon="10.843981207174618"><ele>188.0</ele><time>2026-04-25T16:52:40Z</time></trkpt><trkpt lat="43.46952736081539" lon="10.84416520758517"><ele>186.5</ele><time>2026-04-25T16:52:41Z</time></trkpt><trkpt lat="43.46953346206041" lon="10.844350362044521"><ele>185.0</ele><time>2026-04-25T16:52:42Z</time></trkpt><trkpt lat="43.469525851140936" lon="10.844537591930548"><ele>185.0</ele><time>2026-04-25T16:52:43Z</time></trkpt><trkpt lat="43.46951439501784" lon="10.844727754470057"><ele>185.0</ele><time>2026-04-25T16:52:44Z</time></trkpt><trkpt lat="43.46950521682882" lon="10.844912230202041"><ele>185.0</ele><time>2026-04-25T16:52:45Z</time></trkpt><trkpt lat="43.469486710321064" lon="10.845092966493079"><ele>185.0</ele><time>2026-04-25T16:52:46Z</time></trkpt><trkpt lat="43.469480474212574" lon="10.845274289506564"><ele>184.25</ele><time>2026-04-25T16:52:47Z</time></trkpt><trkpt lat="43.469472166019976" lon="10.845442059141844"><ele>183.5</ele><time>2026-04-25T16:52:48Z</time></trkpt><trkpt lat="43.46946620585564" lon="10.845599040434516"><ele>182.75</ele><time>2026-04-25T16:52:49Z</time></trkpt><trkpt lat="43.46947042458899" lon="10.84575095244467"><ele>182.0</ele><time>2026-04-25T16:52:50Z</time></trkpt><trkpt lat="43.46946920655326" lon="10.845894715957032"><ele>179.5</ele><time>2026-04-25T16:52:51Z</time></trkpt><trkpt lat="43.46950232338469" lon="10.8460424088555"><ele>177.0</ele><time>2026-04-25T16:52:52Z</time></trkpt><trkpt lat="43.46955236939912" lon="10.846192293386641"><ele>174.5</ele><time>2026-04-25T16:52:53Z</time></trkpt><trkpt lat="43.469635956157134" lon="10.84632637771108"><ele>172.0</ele><time>2026-04-25T16:52:54Z</time></trkpt><trkpt lat="43.46970970565269" lon="10.84647500777118"><ele>176.5</ele><time>2026-04-25T16:52:55Z</time></trkpt><trkpt lat="43.46979027665271" lon="10.84662105287571"><ele>181.0</ele><time>2026-04-25T16:52:56Z</time></trkpt><trkpt lat="43.469870592189075" lon="10.846769875024412"><ele>185.5</ele><time>2026-04-25T16:52:57Z</time></trkpt><trkpt lat="43.46994707324386" lon="10.846924195648452"><ele>190.0</ele><time>2026-04-25T16:52:58Z</time></trkpt><trkpt lat="43.47002029680906" lon="10.847084073861977"><ele>190.0</ele><time>2026-04-25T16:52:59Z</time></trkpt><trkpt lat="43.47009273471928" lon="10.847243588115745"><ele>190.0</ele><time>2026-04-25T16:53:00Z</time></trkpt><trkpt lat="43.470161346907695" lon="10.84740863659618"><ele>190.0</ele><time>2026-04-25T16:53:01Z</time></trkpt><trkpt lat="43.470225472030776" lon="10.84757899208097"><ele>190.0</ele><time>2026-04-25T16:53:02Z</time></trkpt><trkpt lat="43.47028396769704" lon="10.847755449765762"><ele>187.75</ele><time>2026-04-25T16:53:03Z</time></trkpt><trkpt lat="43.47033769247157" lon="10.84792617789058"><ele>185.5</ele><time>2026-04-25T16:53:04Z</time></trkpt><trkpt lat="43.47038861080424" lon="10.84809732986518"><ele>183.25</ele><time>2026-04-25T16:53:05Z</time></trkpt><trkpt lat="43.470433269743744" lon="10.848268809614147"><ele>181.0</ele><time>2026-04-25T16:53:06Z</time></trkpt><trkpt lat="43.47049146899596" lon="10.848430720517744"><ele>186.25</ele><time>2026-04-25T16:53:07Z</time></trkpt><trkpt lat="43.47054022879344" lon="10.84860645622367"><ele>191.5</ele><time>2026-04-25T16:53:08Z</time></trkpt><trkpt lat="43.470579760025736" lon="10.848783340764877"><ele>196.75</ele><time>2026-04-25T16:53:09Z</time></trkpt><trkpt lat="43.470627817999265" lon="10.848955051717777"><ele>202.0</ele><time>2026-04-25T16:53:10Z</time></trkpt><trkpt lat="43.470674284990174" lon="10.849128893192239"><ele>200.25</ele><time>2026-04-25T16:53:11Z</time></trkpt><trkpt lat="43.4707200738839" lon="10.849302280844842"><ele>198.5</ele><time>2026-04-25T16:53:12Z</time></trkpt><trkpt lat="43.47076619002935" lon="10.849482232852674"><ele>196.75</ele><time>2026-04-25T16:53:13Z</time></trkpt><trkpt lat="43.47081213585975" lon="10.849664001402672"><ele>195.0</ele><time>2026-04-25T16:53:14Z</time></trkpt><trkpt lat="43.47085762892608" lon="10.84984650305071"><ele>195.0</ele><time>2026-04-25T16:53:15Z</time></trkpt><trkpt lat="43.47089727752789" lon="10.85003194816183"><ele>195.0</ele><time>2026-04-25T16:53:16Z</time></trkpt><trkpt lat="43.47093920759555" lon="10.850217568409732"><ele>195.0</ele><time>2026-04-25T16:53:17Z</time></trkpt><trkpt lat="43.47098023665402" lon="10.850395621515794"><ele>195.0</ele><time>2026-04-25T16:53:18Z</time></trkpt><trkpt lat="43.47101943025073" lon="10.850572014140138"><ele>193.75</ele><time>2026-04-25T16:53:19Z</time></trkpt><trkpt lat="43.47105836215694" lon="10.850745035148885"><ele>192.5</ele><time>2026-04-25T16:53:20Z</time></trkpt><trkpt lat="43.47109542197" lon="10.850916729087734"><ele>191.25</ele><time>2026-04-25T16:53:21Z</time></trkpt><trkpt lat="43.471132786751504" lon="10.851082843223926"><ele>190.0</ele><time>2026-04-25T16:53:22Z</time></trkpt><trkpt lat="43.47116667594885" lon="10.85123889219489"><ele>189.5</ele><time>2026-04-25T16:53:23Z</time></trkpt><trkpt lat="43.47120339267445" lon="10.851396880958525"><ele>189.0</ele><time>2026-04-25T16:53:24Z</time></trkpt><trkpt lat="43.47123530271734" lon="10.851557758701528"><ele>188.5</ele><time>2026-04-25T16:53:25Z</time></trkpt><trkpt lat="43.47126174613881" lon="10.851722554504214"><ele>188.0</ele><time>2026-04-25T16:53:26Z</time></trkpt><trkpt lat="43.471277599049" lon="10.851898711649353"><ele>189.25</ele><time>2026-04-25T16:53:27Z</time></trkpt><trkpt lat="43.47127755036107" lon="10.85208146696413"><ele>190.5</ele><time>2026-04-25T16:53:28Z</time></trkpt><trkpt lat="43.47126068364196" lon="10.85226266273218"><ele>191.75</ele><time>2026-04-25T16:53:29Z</time></trkpt><trkpt lat="43.47122898796164" lon="10.852441362094858"><ele>193.0</ele><time>2026-04-25T16:53:30Z</time></trkpt><trkpt lat="43.47119173653703" lon="10.852617330831029"><ele>194.25</ele><time>2026-04-25T16:53:31Z</time></trkpt><trkpt lat="43.47115302532064" lon="10.852793574196093"><ele>195.5</ele><time>2026-04-25T16:53:32Z</time></trkpt><trkpt lat="43.471114293441026" lon="10.85296992427486"><ele>196.75</ele><time>2026-04-25T16:53:33Z</time></trkpt><trkpt lat="43.471079899355054" lon="10.853146263764742"><ele>198.0</ele><time>2026-04-25T16:53:34Z</time></trkpt><trkpt lat="43.471046425470895" lon="10.853313214396241"><ele>199.0</ele><time>2026-04-25T16:53:35Z</time></trkpt><trkpt lat="43.47101637267001" lon="10.853464194632757"><ele>200.0</ele><time>2026-04-25T16:53:36Z</time></trkpt><trkpt lat="43.47098649738595" lon="10.853601734796092"><ele>201.0</ele><time>2026-04-25T16:53:37Z</time></trkpt><trkpt lat="43.470957070539015" lon="10.853722824466852"><ele>202.0</ele><time>2026-04-25T16:53:38Z</time></trkpt><trkpt lat="43.470936474868296" lon="10.853822914866148"><ele>203.0</ele><time>2026-04-25T16:53:39Z</time></trkpt><trkpt lat="43.47090952499358" lon="10.853969117088797"><ele>203.00000000000003</ele><time>2026-04-25T16:53:41Z</time></trkpt><trkpt lat="43.4709035582229" lon="10.85406078521246"><ele>203.0</ele><time>2026-04-25T16:53:44Z</time></trkpt><trkpt lat="43.47093372293325" lon="10.854145499692798"><ele>203.0</ele><time>2026-04-25T16:55:01Z</time></trkpt><trkpt lat="43.470947463197746" lon="10.854231871071752"><ele>203.0</ele><time>2026-04-25T16:55:02Z</time></trkpt><trkpt lat="43.47096582811991" lon="10.854336179348618"><ele>203.00000000000003</ele><time>2026-04-25T16:55:03Z</time></trkpt><trkpt lat="43.470983415134384" lon="10.854456644529211"><ele>203.0</ele><time>2026-04-25T16:55:04Z</time></trkpt><trkpt lat="43.47100751964409" lon="10.854590414327767"><ele>204.75</ele><time>2026-04-25T16:55:05Z</time></trkpt><trkpt lat="43.471034397529706" lon="10.854728860678318"><ele>206.5</ele><time>2026-04-25T16:55:06Z</time></trkpt><trkpt lat="43.47105268109323" lon="10.854882989929301"><ele>208.25</ele><time>2026-04-25T16:55:07Z</time></trkpt><trkpt lat="43.47108031726652" lon="10.855046938009997"><ele>210.0</ele><time>2026-04-25T16:55:08Z</time></trkpt><trkpt lat="43.47111292888296" lon="10.855213578061495"><ele>210.5</ele><time>2026-04-25T16:55:09Z</time></trkpt><trkpt lat="43.47114513968481" lon="10.855389117092097"><ele>211.0</ele><time>2026-04-25T16:55:10Z</time></trkpt><trkpt lat="43.47117137421296" lon="10.85557520038828"><ele>211.5</ele><time>2026-04-25T16:55:11Z</time></trkpt><trkpt lat="43.47118889571627" lon="10.855767846402923"><ele>212.0</ele><time>2026-04-25T16:55:12Z</time></trkpt><trkpt lat="43.47119020896718" lon="10.855962456617007"><ele>211.0</ele><time>2026-04-25T16:55:13Z</time></trkpt><trkpt lat="43.47117935470835" lon="10.856156102786764"><ele>210.0</ele><time>2026-04-25T16:55:14Z</time></trkpt><trkpt lat="43.471163848720046" lon="10.85633989289337"><ele>209.0</ele><time>2026-04-25T16:55:15Z</time></trkpt><trkpt lat="43.47114236483941" lon="10.856526673640483"><ele>208.0</ele><time>2026-04-25T16:55:16Z</time></trkpt><trkpt lat="43.47112454195245" lon="10.856716647847023"><ele>206.5</ele><time>2026-04-25T16:55:17Z</time></trkpt><trkpt lat="43.471111673918664" lon="10.856905117619643"><ele>205.0</ele><time>2026-04-25T16:55:18Z</time></trkpt><trkpt lat="43.47110987463927" lon="10.857093946046668"><ele>203.5</ele><time>2026-04-25T16:55:19Z</time></trkpt><trkpt lat="43.47112142982509" lon="10.857288723342378"><ele>202.0</ele><time>2026-04-25T16:55:20Z</time></trkpt><trkpt lat="43.47114524574372" lon="10.857486925831038"><ele>202.25</ele><time>2026-04-25T16:55:21Z</time></trkpt><trkpt lat="43.47117265094081" lon="10.85767306390083"><ele>202.5</ele><time>2026-04-25T16:55:22Z</time></trkpt><trkpt lat="43.4712062014594" lon="10.857858270051732"><ele>202.75</ele><time>2026-04-25T16:55:23Z</time></trkpt><trkpt lat="43.47124615162308" lon="10.85804048986035"><ele>203.0</ele><time>2026-04-25T16:55:24Z</time></trkpt><trkpt lat="43.47128744000464" lon="10.858220840182383"><ele>203.0</ele><time>2026-04-25T16:55:25Z</time></trkpt><trkpt lat="43.47132830339867" lon="10.858392099156529"><ele>203.0</ele><time>2026-04-25T16:55:26Z</time></trkpt><trkpt lat="43.471362531622404" lon="10.858552285179876"><ele>203.0</ele><time>2026-04-25T16:55:27Z</time></trkpt><trkpt lat="43.471392606712385" lon="10.858705125451632"><ele>203.0</ele><time>2026-04-25T16:55:28Z</time></trkpt><trkpt lat="43.471423061821106" lon="10.858853164125124"><ele>203.25</ele><time>2026-04-25T16:55:29Z</time></trkpt><trkpt lat="43.47145647303766" lon="10.859007048166733"><ele>203.5</ele><time>2026-04-25T16:55:30Z</time></trkpt><trkpt lat="43.47148921137189" lon="10.859164818952163"><ele>203.75</ele><time>2026-04-25T16:55:31Z</time></trkpt><trkpt lat="43.47152851420674" lon="10.859334975288922"><ele>204.0</ele><time>2026-04-25T16:55:32Z</time></trkpt><trkpt lat="43.47156686140468" lon="10.85950554131764"><ele>204.75</ele><time>2026-04-25T16:55:33Z</time></trkpt><trkpt lat="43.47160936059062" lon="10.859682538445503"><ele>205.5</ele><time>2026-04-25T16:55:34Z</time></trkpt><trkpt lat="43.47166766353032" lon="10.859858633593042"><ele>206.25</ele><time>2026-04-25T16:55:35Z</time></trkpt><trkpt lat="43.47172495992462" lon="10.860040542557455"><ele>207.0</ele><time>2026-04-25T16:55:36Z</time></trkpt><trkpt lat="43.471783703699764" lon="10.860210108874615"><ele>207.75</ele><time>2026-04-25T16:55:37Z</time></trkpt><trkpt lat="43.47183946845782" lon="10.86037587153325"><ele>208.5</ele><time>2026-04-25T16:55:38Z</time></trkpt><trkpt lat="43.471901514686195" lon="10.860540892773983"><ele>209.25</ele><time>2026-04-25T16:55:39Z</time></trkpt><trkpt lat="43.471963786407656" lon="10.860705545591317"><ele>210.0</ele><time>2026-04-25T16:55:40Z</time></trkpt><trkpt lat="43.472017259462966" lon="10.860879764404752"><ele>210.0</ele><time>2026-04-25T16:55:41Z</time></trkpt><trkpt lat="43.47205606630739" lon="10.861057995969302"><ele>210.0</ele><time>2026-04-25T16:55:42Z</time></trkpt><trkpt lat="43.47208872345673" lon="10.861231421033338"><ele>210.0</ele><time>2026-04-25T16:55:43Z</time></trkpt><trkpt lat="43.47210974020696" lon="10.861414972020583"><ele>210.0</ele><time>2026-04-25T16:55:44Z</time></trkpt><trkpt lat="43.47211897389313" lon="10.861594567864168"><ele>208.5</ele><time>2026-04-25T16:55:45Z</time></trkpt><trkpt lat="43.4721154487671" lon="10.861772178316189"><ele>207.0</ele><time>2026-04-25T16:55:46Z</time></trkpt><trkpt lat="43.472115972055214" lon="10.861957204075582"><ele>205.5</ele><time>2026-04-25T16:55:47Z</time></trkpt><trkpt lat="43.47210892281118" lon="10.862133320919792"><ele>204.0</ele><time>2026-04-25T16:55:48Z</time></trkpt><trkpt lat="43.47210684119346" lon="10.862296236778592"><ele>204.16666666666666</ele><time>2026-04-25T16:55:49Z</time></trkpt><trkpt lat="43.472098392078486" lon="10.86244363764669"><ele>204.33333333333331</ele><time>2026-04-25T16:55:50Z</time></trkpt><trkpt lat="43.472094566014434" lon="10.862564071558255"><ele>204.5</ele><time>2026-04-25T16:55:51Z</time></trkpt><trkpt lat="43.472088640872215" lon="10.862670678352014"><ele>204.66666666666666</ele><time>2026-04-25T16:55:52Z</time></trkpt><trkpt lat="43.47208372163132" lon="10.86281304034602"><ele>204.83333333333331</ele><time>2026-04-25T16:55:54Z</time></trkpt><trkpt lat="43.47207211464578" lon="10.862899600267486"><ele>205.0</ele><time>2026-04-25T16:55:58Z</time></trkpt><trkpt lat="43.47209038892172" lon="10.863008505605592"><ele>204.99999999999997</ele><time>2026-04-25T16:56:52Z</time></trkpt><trkpt lat="43.47209422655488" lon="10.863098646771617"><ele>205.0</ele><time>2026-04-25T16:56:53Z</time></trkpt><trkpt lat="43.472088825102254" lon="10.863210002208907"><ele>205.0</ele><time>2026-04-25T16:56:54Z</time></trkpt><trkpt lat="43.472089549021746" lon="10.863329634304922"><ele>205.0</ele><time>2026-04-25T16:56:55Z</time></trkpt><trkpt lat="43.47208313400714" lon="10.863464499712714"><ele>204.99999999999997</ele><time>2026-04-25T16:56:56Z</time></trkpt><trkpt lat="43.4721088863676" lon="10.863604536125491"><ele>205.0</ele><time>2026-04-25T16:56:57Z</time></trkpt><trkpt lat="43.472143994673644" lon="10.863759198335043"><ele>205.5</ele><time>2026-04-25T16:56:58Z</time></trkpt><trkpt lat="43.47219357716112" lon="10.863921568984225"><ele>206.0</ele><time>2026-04-25T16:56:59Z</time></trkpt><trkpt lat="43.47226191591435" lon="10.864084073076663"><ele>206.5</ele><time>2026-04-25T16:57:00Z</time></trkpt><trkpt lat="43.472345499267405" lon="10.864235517196416"><ele>207.0</ele><time>2026-04-25T16:57:01Z</time></trkpt><trkpt lat="43.472440041270815" lon="10.864392720270398"><ele>208.33333333333331</ele><time>2026-04-25T16:57:02Z</time></trkpt><trkpt lat="43.47253538083443" lon="10.864557205999569"><ele>209.66666666666666</ele><time>2026-04-25T16:57:03Z</time></trkpt><trkpt lat="43.47263444613022" lon="10.864729634624254"><ele>211.0</ele><time>2026-04-25T16:57:04Z</time></trkpt><trkpt lat="43.472738181834984" lon="10.864909062347802"><ele>211.0</ele><time>2026-04-25T16:57:05Z</time></trkpt><trkpt lat="43.47284689041822" lon="10.865088770643913"><ele>211.0</ele><time>2026-04-25T16:57:06Z</time></trkpt><trkpt lat="43.472946814019885" lon="10.865259553045785"><ele>211.0</ele><time>2026-04-25T16:57:07Z</time></trkpt><trkpt lat="43.473039421395626" lon="10.865419372108086"><ele>211.0</ele><time>2026-04-25T16:57:08Z</time></trkpt><trkpt lat="43.47313571700359" lon="10.865579795314611"><ele>211.0</ele><time>2026-04-25T16:57:09Z</time></trkpt><trkpt lat="43.47323449892663" lon="10.86574115823088"><ele>211.0</ele><time>2026-04-25T16:57:10Z</time></trkpt><trkpt lat="43.47333349600242" lon="10.865906719732681"><ele>210.75</ele><time>2026-04-25T16:57:11Z</time></trkpt><trkpt lat="43.47342994712442" lon="10.866068675367691"><ele>210.5</ele><time>2026-04-25T16:57:12Z</time></trkpt><trkpt lat="43.47352281565197" lon="10.866221721559898"><ele>210.25</ele><time>2026-04-25T16:57:13Z</time></trkpt><trkpt lat="43.47361433078261" lon="10.866376955484151"><ele>210.0</ele><time>2026-04-25T16:57:14Z</time></trkpt><trkpt lat="43.47370772913252" lon="10.866535057221055"><ele>210.75</ele><time>2026-04-25T16:57:15Z</time></trkpt><trkpt lat="43.473800529851026" lon="10.86669094212339"><ele>211.5</ele><time>2026-04-25T16:57:16Z</time></trkpt><trkpt lat="43.4738947449307" lon="10.866849258077751"><ele>212.25</ele><time>2026-04-25T16:57:17Z</time></trkpt><trkpt lat="43.47398449577083" lon="10.867001081247945"><ele>213.0</ele><time>2026-04-25T16:57:18Z</time></trkpt><trkpt lat="43.47406906259541" lon="10.867137419309522"><ele>213.0</ele><time>2026-04-25T16:57:19Z</time></trkpt><trkpt lat="43.47414546163216" lon="10.867263139009275"><ele>213.0</ele><time>2026-04-25T16:57:20Z</time></trkpt><trkpt lat="43.47422186187939" lon="10.867388347234348"><ele>213.0</ele><time>2026-04-25T16:57:21Z</time></trkpt><trkpt lat="43.47430474819293" lon="10.867523449150916"><ele>213.0</ele><time>2026-04-25T16:57:22Z</time></trkpt><trkpt lat="43.474392262653986" lon="10.867666157961654"><ele>212.5</ele><time>2026-04-25T16:57:23Z</time></trkpt><trkpt lat="43.47447969594431" lon="10.867815001156112"><ele>212.0</ele><time>2026-04-25T16:57:24Z</time></trkpt><trkpt lat="43.47456494104209" lon="10.867968907272795"><ele>211.5</ele><time>2026-04-25T16:57:25Z</time></trkpt><trkpt lat="43.4746414119586" lon="10.868131405514253"><ele>211.0</ele><time>2026-04-25T16:57:26Z</time></trkpt><trkpt lat="43.47470104296061" lon="10.868304987906"><ele>213.0</ele><time>2026-04-25T16:57:27Z</time></trkpt><trkpt lat="43.474755012290295" lon="10.868486620663784"><ele>215.0</ele><time>2026-04-25T16:57:28Z</time></trkpt><trkpt lat="43.4747985118491" lon="10.868678991629912"><ele>217.0</ele><time>2026-04-25T16:57:29Z</time></trkpt><trkpt lat="43.474834526356425" lon="10.86887650333211"><ele>219.0</ele><time>2026-04-25T16:57:30Z</time></trkpt><trkpt lat="43.47486944125573" lon="10.869079001689062"><ele>219.0</ele><time>2026-04-25T16:57:31Z</time></trkpt><trkpt lat="43.47490516819805" lon="10.869285663347231"><ele>219.0</ele><time>2026-04-25T16:57:32Z</time></trkpt><trkpt lat="43.4749418821824" lon="10.869497728871767"><ele>219.0</ele><time>2026-04-25T16:57:33Z</time></trkpt><trkpt lat="43.474976321081314" lon="10.869716028260461"><ele>219.0</ele><time>2026-04-25T16:57:34Z</time></trkpt><trkpt lat="43.47501192495751" lon="10.869920896982293"><ele>219.0</ele><time>2026-04-25T16:57:35Z</time></trkpt><trkpt lat="43.47504697760923" lon="10.87012613520744"><ele>219.0</ele><time>2026-04-25T16:57:36Z</time></trkpt><trkpt lat="43.47508197384217" lon="10.870323161890175"><ele>218.75</ele><time>2026-04-25T16:57:37Z</time></trkpt><trkpt lat="43.47511097136906" lon="10.870520695601867"><ele>218.5</ele><time>2026-04-25T16:57:38Z</time></trkpt><trkpt lat="43.47514955926836" lon="10.870720880482791"><ele>218.25</ele><time>2026-04-25T16:57:39Z</time></trkpt><trkpt lat="43.475183698249616" lon="10.870921852885136"><ele>218.0</ele><time>2026-04-25T16:57:40Z</time></trkpt><trkpt lat="43.475219041154865" lon="10.87112382630962"><ele>217.0</ele><time>2026-04-25T16:57:41Z</time></trkpt><trkpt lat="43.47526051669386" lon="10.871322894855252"><ele>216.0</ele><time>2026-04-25T16:57:42Z</time></trkpt><trkpt lat="43.475310550058936" lon="10.871523285920526"><ele>215.0</ele><time>2026-04-25T16:57:43Z</time></trkpt><trkpt lat="43.47537815797001" lon="10.871721183215287"><ele>217.0</ele><time>2026-04-25T16:57:44Z</time></trkpt><trkpt lat="43.47545315885601" lon="10.87191769814924"><ele>219.0</ele><time>2026-04-25T16:57:45Z</time></trkpt><trkpt lat="43.475532364718646" lon="10.872114266783383"><ele>221.0</ele><time>2026-04-25T16:57:46Z</time></trkpt><trkpt lat="43.47561145989403" lon="10.872297691324151"><ele>221.0</ele><time>2026-04-25T16:57:47Z</time></trkpt><trkpt lat="43.47569522468893" lon="10.872470442409142"><ele>221.0</ele><time>2026-04-25T16:57:48Z</time></trkpt><trkpt lat="43.47579121417684" lon="10.872629766763808"><ele>221.0</ele><time>2026-04-25T16:57:49Z</time></trkpt><trkpt lat="43.4759037057492" lon="10.872783487802948"><ele>219.66666666666669</ele><time>2026-04-25T16:57:50Z</time></trkpt><trkpt lat="43.47602736174407" lon="10.87292254751917"><ele>218.33333333333331</ele><time>2026-04-25T16:57:51Z</time></trkpt><trkpt lat="43.47615305396858" lon="10.873053785062533"><ele>217.0</ele><time>2026-04-25T16:57:52Z</time></trkpt><trkpt lat="43.4762800141479" lon="10.873182957074965"><ele>220.0</ele><time>2026-04-25T16:57:53Z</time></trkpt><trkpt lat="43.47641288822489" lon="10.873316335136627"><ele>223.0</ele><time>2026-04-25T16:57:54Z</time></trkpt><trkpt lat="43.476541041270835" lon="10.873449382808168"><ele>226.0</ele><time>2026-04-25T16:57:55Z</time></trkpt><trkpt lat="43.47666863448831" lon="10.873583376208455"><ele>227.66666666666666</ele><time>2026-04-25T16:57:56Z</time></trkpt><trkpt lat="43.47680065547342" lon="10.873716192386174"><ele>229.33333333333331</ele><time>2026-04-25T16:57:57Z</time></trkpt><trkpt lat="43.47693296676891" lon="10.873849395067133"><ele>231.0</ele><time>2026-04-25T16:57:58Z</time></trkpt><trkpt lat="43.477066736465794" lon="10.873984188048407"><ele>231.33333333333331</ele><time>2026-04-25T16:57:59Z</time></trkpt><trkpt lat="43.4771991789801" lon="10.874118961800303"><ele>231.66666666666666</ele><time>2026-04-25T16:58:00Z</time></trkpt><trkpt lat="43.477335852788414" lon="10.874246840809532"><ele>232.0</ele><time>2026-04-25T16:58:01Z</time></trkpt><trkpt lat="43.477477936904165" lon="10.874367635710783"><ele>235.0</ele><time>2026-04-25T16:58:02Z</time></trkpt><trkpt lat="43.47762769500853" lon="10.874480894723327"><ele>238.0</ele><time>2026-04-25T16:58:03Z</time></trkpt><trkpt lat="43.477781106274826" lon="10.874590853465884"><ele>241.0</ele><time>2026-04-25T16:58:04Z</time></trkpt><trkpt lat="43.477934076311286" lon="10.874695875626212"><ele>241.66666666666666</ele><time>2026-04-25T16:58:05Z</time></trkpt><trkpt lat="43.47808795393014" lon="10.874795380241878"><ele>242.33333333333331</ele><time>2026-04-25T16:58:06Z</time></trkpt><trkpt lat="43.47823789156772" lon="10.874890760481373"><ele>243.0</ele><time>2026-04-25T16:58:07Z</time></trkpt><trkpt lat="43.478378998058346" lon="10.87498283189818"><ele>243.0</ele><time>2026-04-25T16:58:08Z</time></trkpt><trkpt lat="43.478510118963015" lon="10.875067814327556"><ele>243.0</ele><time>2026-04-25T16:58:09Z</time></trkpt><trkpt lat="43.47863270991693" lon="10.875148358785475"><ele>243.0</ele><time>2026-04-25T16:58:10Z</time></trkpt><trkpt lat="43.478744779278934" lon="10.875223281744837"><ele>243.0</ele><time>2026-04-25T16:58:11Z</time></trkpt><trkpt lat="43.478854063659746" lon="10.875292968320315"><ele>244.2</ele><time>2026-04-25T16:58:12Z</time></trkpt><trkpt lat="43.47895166804692" lon="10.875362527015458"><ele>245.4</ele><time>2026-04-25T16:58:13Z</time></trkpt><trkpt lat="43.47903521085003" lon="10.875436146570648"><ele>246.59999999999997</ele><time>2026-04-25T16:58:14Z</time></trkpt><trkpt lat="43.47911322756398" lon="10.875520676551226"><ele>247.79999999999998</ele><time>2026-04-25T16:58:15Z</time></trkpt><trkpt lat="43.47917576734358" lon="10.875636768682039"><ele>249.0</ele><time>2026-04-25T16:58:16Z</time></trkpt><trkpt lat="43.47922035826592" lon="10.875764780149476"><ele>249.0</ele><time>2026-04-25T16:58:17Z</time></trkpt><trkpt lat="43.4792492204829" lon="10.87590994545061"><ele>249.0</ele><time>2026-04-25T16:58:18Z</time></trkpt><trkpt lat="43.47926308413976" lon="10.876064966154988"><ele>249.0</ele><time>2026-04-25T16:58:19Z</time></trkpt><trkpt lat="43.47927303336002" lon="10.876226052304148"><ele>249.0</ele><time>2026-04-25T16:58:20Z</time></trkpt><trkpt lat="43.47928534036005" lon="10.876391230848519"><ele>249.75</ele><time>2026-04-25T16:58:21Z</time></trkpt><trkpt lat="43.47929767138111" lon="10.876558467990426"><ele>250.5</ele><time>2026-04-25T16:58:22Z</time></trkpt><trkpt lat="43.479322339313924" lon="10.876733198711978"><ele>251.25</ele><time>2026-04-25T16:58:23Z</time></trkpt><trkpt lat="43.479354462462524" lon="10.876913172934856"><ele>252.0</ele><time>2026-04-25T16:58:24Z</time></trkpt><trkpt lat="43.47940351374151" lon="10.877084190394559"><ele>252.0</ele><time>2026-04-25T16:58:25Z</time></trkpt><trkpt lat="43.47947066092388" lon="10.877253110737808"><ele>252.0</ele><time>2026-04-25T16:58:26Z</time></trkpt><trkpt lat="43.47954959130466" lon="10.877415092050425"><ele>252.0</ele><time>2026-04-25T16:58:27Z</time></trkpt><trkpt lat="43.47962612012959" lon="10.877587652045658"><ele>252.0</ele><time>2026-04-25T16:58:28Z</time></trkpt><trkpt lat="43.4797021188457" lon="10.877756613684035"><ele>252.0</ele><time>2026-04-25T16:58:29Z</time></trkpt><trkpt lat="43.47977215916585" lon="10.877908561609958"><ele>252.0</ele><time>2026-04-25T16:58:30Z</time></trkpt><trkpt lat="43.479831172084225" lon="10.878051506609863"><ele>252.0</ele><time>2026-04-25T16:58:31Z</time></trkpt><trkpt lat="43.479883773751915" lon="10.878177783617321"><ele>252.0</ele><time>2026-04-25T16:58:32Z</time></trkpt><trkpt lat="43.47992291115463" lon="10.878265764780794"><ele>252.0</ele><time>2026-04-25T16:58:33Z</time></trkpt><trkpt lat="43.47996899306091" lon="10.878376915616972"><ele>253.8</ele><time>2026-04-25T16:58:35Z</time></trkpt><trkpt lat="43.4800193573649" lon="10.87847772140448"><ele>255.6</ele><time>2026-04-25T16:59:02Z</time></trkpt><trkpt lat="43.480088396611464" lon="10.87860068943642"><ele>257.40000000000003</ele><time>2026-04-25T16:59:04Z</time></trkpt><trkpt lat="43.480127402790096" lon="10.878687360260283"><ele>259.2</ele><time>2026-04-25T16:59:05Z</time></trkpt><trkpt lat="43.48017176630368" lon="10.87878523911425"><ele>261.0</ele><time>2026-04-25T16:59:06Z</time></trkpt><trkpt lat="43.48022364243737" lon="10.87889501948024"><ele>261.0</ele><time>2026-04-25T16:59:07Z</time></trkpt><trkpt lat="43.48027585484406" lon="10.879007739497446"><ele>261.0</ele><time>2026-04-25T16:59:08Z</time></trkpt><trkpt lat="43.480328969108726" lon="10.879123514745434"><ele>261.0</ele><time>2026-04-25T16:59:09Z</time></trkpt><trkpt lat="43.480385234278124" lon="10.879245498293814"><ele>261.0</ele><time>2026-04-25T16:59:10Z</time></trkpt><trkpt lat="43.48044263780228" lon="10.879373100056753"><ele>261.0</ele><time>2026-04-25T16:59:11Z</time></trkpt><trkpt lat="43.48050596650599" lon="10.87951034688098"><ele>261.25</ele><time>2026-04-25T16:59:12Z</time></trkpt><trkpt lat="43.48057200053004" lon="10.879649542230124"><ele>261.5</ele><time>2026-04-25T16:59:13Z</time></trkpt><trkpt lat="43.480636515557244" lon="10.879793054546726"><ele>261.75</ele><time>2026-04-25T16:59:14Z</time></trkpt><trkpt lat="43.480704982630364" lon="10.879941177579026"><ele>262.0</ele><time>2026-04-25T16:59:15Z</time></trkpt><trkpt lat="43.48076295067264" lon="10.880103790711141"><ele>263.5</ele><time>2026-04-25T16:59:16Z</time></trkpt><trkpt lat="43.4808336546868" lon="10.88026010797979"><ele>265.0</ele><time>2026-04-25T16:59:17Z</time></trkpt><trkpt lat="43.48090721258249" lon="10.880416941581547"><ele>266.5</ele><time>2026-04-25T16:59:18Z</time></trkpt><trkpt lat="43.4809765122875" lon="10.88056491051519"><ele>268.0</ele><time>2026-04-25T16:59:19Z</time></trkpt><trkpt lat="43.481044828573445" lon="10.880713278009347"><ele>268.0</ele><time>2026-04-25T16:59:20Z</time></trkpt><trkpt lat="43.481119668165746" lon="10.88086363826666"><ele>268.0</ele><time>2026-04-25T16:59:21Z</time></trkpt><trkpt lat="43.481184332122695" lon="10.88101427217941"><ele>268.0</ele><time>2026-04-25T16:59:22Z</time></trkpt><trkpt lat="43.48123760584075" lon="10.881172802033362"><ele>268.0</ele><time>2026-04-25T16:59:23Z</time></trkpt><trkpt lat="43.481279373847315" lon="10.881341459612331"><ele>269.0</ele><time>2026-04-25T16:59:24Z</time></trkpt><trkpt lat="43.481308931993645" lon="10.881516539959177"><ele>270.0</ele><time>2026-04-25T16:59:25Z</time></trkpt><trkpt lat="43.48133430980662" lon="10.881698915038932"><ele>271.0</ele><time>2026-04-25T16:59:26Z</time></trkpt><trkpt lat="43.481362376979206" lon="10.881871218559521"><ele>272.0</ele><time>2026-04-25T16:59:27Z</time></trkpt><trkpt lat="43.48138747907412" lon="10.882024775582959"><ele>272.0</ele><time>2026-04-25T16:59:28Z</time></trkpt><trkpt lat="43.481413543525925" lon="10.882167603388101"><ele>272.0</ele><time>2026-04-25T16:59:29Z</time></trkpt><trkpt lat="43.48143166836451" lon="10.882296932965918"><ele>272.0</ele><time>2026-04-25T16:59:30Z</time></trkpt><trkpt lat="43.481466771303374" lon="10.88239763656616"><ele>272.0</ele><time>2026-04-25T16:59:31Z</time></trkpt><trkpt lat="43.48152077761485" lon="10.882469519904111"><ele>272.0</ele><time>2026-04-25T16:59:32Z</time></trkpt><trkpt lat="43.48159067057662" lon="10.882524812362757"><ele>272.0</ele><time>2026-04-25T16:59:33Z</time></trkpt><trkpt lat="43.48167237753686" lon="10.882552531969454"><ele>272.0</ele><time>2026-04-25T16:59:34Z</time></trkpt><trkpt lat="43.48175934692484" lon="10.882551966748755"><ele>272.0</ele><time>2026-04-25T16:59:35Z</time></trkpt><trkpt lat="43.48183997324904" lon="10.882517662670315"><ele>272.0</ele><time>2026-04-25T16:59:36Z</time></trkpt><trkpt lat="43.48192245853568" lon="10.88245211118424"><ele>272.0</ele><time>2026-04-25T16:59:37Z</time></trkpt><trkpt lat="43.482009224250554" lon="10.882364560307852"><ele>272.0</ele><time>2026-04-25T16:59:38Z</time></trkpt><trkpt lat="43.48209298703204" lon="10.882276056584418"><ele>274.0</ele><time>2026-04-25T16:59:39Z</time></trkpt><trkpt lat="43.4821815155034" lon="10.882186955110562"><ele>276.0</ele><time>2026-04-25T16:59:40Z</time></trkpt><trkpt lat="43.482276684758325" lon="10.882088310321276"><ele>278.0</ele><time>2026-04-25T16:59:41Z</time></trkpt><trkpt lat="43.48237173245761" lon="10.881991872921267"><ele>280.0</ele><time>2026-04-25T16:59:42Z</time></trkpt><trkpt lat="43.48246643908803" lon="10.881898152922101"><ele>280.0</ele><time>2026-04-25T16:59:43Z</time></trkpt><trkpt lat="43.48256764051601" lon="10.881812535766604"><ele>280.0</ele><time>2026-04-25T16:59:44Z</time></trkpt><trkpt lat="43.482669457203265" lon="10.881754862718445"><ele>280.0</ele><time>2026-04-25T16:59:45Z</time></trkpt><trkpt lat="43.48277774096891" lon="10.881720212265305"><ele>280.0</ele><time>2026-04-25T16:59:46Z</time></trkpt><trkpt lat="43.48289505099687" lon="10.881707182548766"><ele>280.0</ele><time>2026-04-25T16:59:47Z</time></trkpt><trkpt lat="43.483015887013856" lon="10.881718488251005"><ele>280.0</ele><time>2026-04-25T16:59:48Z</time></trkpt><trkpt lat="43.48313196871009" lon="10.881742409081623"><ele>280.0</ele><time>2026-04-25T16:59:49Z</time></trkpt><trkpt lat="43.483237079368344" lon="10.881769314432665"><ele>280.0</ele><time>2026-04-25T16:59:50Z</time></trkpt><trkpt lat="43.48331990756577" lon="10.881812229321078"><ele>280.0</ele><time>2026-04-25T16:59:51Z</time></trkpt><trkpt lat="43.48339455713577" lon="10.881866265991516"><ele>280.0</ele><time>2026-04-25T16:59:52Z</time></trkpt><trkpt lat="43.48346120940603" lon="10.881952926926012"><ele>280.0</ele><time>2026-04-25T16:59:53Z</time></trkpt><trkpt lat="43.48351781447702" lon="10.88206052260215"><ele>280.0</ele><time>2026-04-25T16:59:54Z</time></trkpt><trkpt lat="43.48354532853899" lon="10.882198068764596"><ele>280.0</ele><time>2026-04-25T16:59:55Z</time></trkpt><trkpt lat="43.48357633916097" lon="10.882345632318684"><ele>280.0</ele><time>2026-04-25T16:59:56Z</time></trkpt><trkpt lat="43.48360908732045" lon="10.882508924926675"><ele>280.0</ele><time>2026-04-25T16:59:57Z</time></trkpt><trkpt lat="43.483639707800634" lon="10.88267415921234"><ele>280.0</ele><time>2026-04-25T16:59:58Z</time></trkpt><trkpt lat="43.483678914625195" lon="10.882839162851177"><ele>280.0</ele><time>2026-04-25T16:59:59Z</time></trkpt><trkpt lat="43.483733572580014" lon="10.883005691890261"><ele>280.0</ele><time>2026-04-25T17:00:00Z</time></trkpt><trkpt lat="43.48380444232007" lon="10.883163869858587"><ele>280.0</ele><time>2026-04-25T17:00:01Z</time></trkpt><trkpt lat="43.48388888965847" lon="10.883315521268504"><ele>280.0</ele><time>2026-04-25T17:00:02Z</time></trkpt><trkpt lat="43.48396952534015" lon="10.883459099569027"><ele>280.0</ele><time>2026-04-25T17:00:03Z</time></trkpt><trkpt lat="43.48405024405068" lon="10.883569016299436"><ele>280.0</ele><time>2026-04-25T17:00:04Z</time></trkpt><trkpt lat="43.484134736037774" lon="10.883664110344144"><ele>281.75</ele><time>2026-04-25T17:00:05Z</time></trkpt><trkpt lat="43.48418895548215" lon="10.883795130970753"><ele>283.5</ele><time>2026-04-25T17:00:06Z</time></trkpt><trkpt lat="43.48423140752832" lon="10.883946834596411"><ele>285.25</ele><time>2026-04-25T17:00:07Z</time></trkpt><trkpt lat="43.48426085093062" lon="10.884112945532603"><ele>287.0</ele><time>2026-04-25T17:00:08Z</time></trkpt><trkpt lat="43.48427927516621" lon="10.88428983121718"><ele>288.0</ele><time>2026-04-25T17:00:09Z</time></trkpt><trkpt lat="43.48431170706676" lon="10.884469957944464"><ele>289.0</ele><time>2026-04-25T17:00:10Z</time></trkpt><trkpt lat="43.48434855036388" lon="10.884656746028808"><ele>290.0</ele><time>2026-04-25T17:00:11Z</time></trkpt><trkpt lat="43.48438707657326" lon="10.884847026432851"><ele>291.0</ele><time>2026-04-25T17:00:12Z</time></trkpt><trkpt lat="43.484423644558134" lon="10.885028113811309"><ele>292.0</ele><time>2026-04-25T17:00:13Z</time></trkpt><trkpt lat="43.48444620437054" lon="10.885206394479845"><ele>293.0</ele><time>2026-04-25T17:00:14Z</time></trkpt><trkpt lat="43.48448664381796" lon="10.885380386410686"><ele>294.0</ele><time>2026-04-25T17:00:15Z</time></trkpt><trkpt lat="43.48451382908103" lon="10.885535987330897"><ele>295.0</ele><time>2026-04-25T17:00:16Z</time></trkpt><trkpt lat="43.4845336494065" lon="10.885678471728458"><ele>295.0</ele><time>2026-04-25T17:00:17Z</time></trkpt><trkpt lat="43.48453532669941" lon="10.885817192084465"><ele>295.0</ele><time>2026-04-25T17:00:18Z</time></trkpt><trkpt lat="43.48450595325076" lon="10.885958192559995"><ele>295.0</ele><time>2026-04-25T17:00:19Z</time></trkpt><trkpt lat="43.48445425628413" lon="10.886088505671102"><ele>295.0</ele><time>2026-04-25T17:00:20Z</time></trkpt><trkpt lat="43.4843875650483" lon="10.886218871270431"><ele>295.0</ele><time>2026-04-25T17:00:21Z</time></trkpt><trkpt lat="43.48431658573975" lon="10.886352655008126"><ele>294.5</ele><time>2026-04-25T17:00:22Z</time></trkpt><trkpt lat="43.4842404344015" lon="10.88649728003908"><ele>294.0</ele><time>2026-04-25T17:00:23Z</time></trkpt><trkpt lat="43.484163602540335" lon="10.886643773624613"><ele>293.5</ele><time>2026-04-25T17:00:24Z</time></trkpt><trkpt lat="43.484094010395694" lon="10.88677128695414"><ele>293.0</ele><time>2026-04-25T17:00:25Z</time></trkpt><trkpt lat="43.48401732020049" lon="10.88690495887143"><ele>291.5</ele><time>2026-04-25T17:00:26Z</time></trkpt><trkpt lat="43.48393111443226" lon="10.88703843486318"><ele>290.0</ele><time>2026-04-25T17:00:27Z</time></trkpt><trkpt lat="43.48383731925688" lon="10.887155564349282"><ele>288.5</ele><time>2026-04-25T17:00:28Z</time></trkpt><trkpt lat="43.483732890773645" lon="10.887260131550796"><ele>287.0</ele><time>2026-04-25T17:00:29Z</time></trkpt><trkpt lat="43.483629777530574" lon="10.88735422755765"><ele>289.33333333333337</ele><time>2026-04-25T17:00:30Z</time></trkpt><trkpt lat="43.48354258192092" lon="10.887438385412896"><ele>291.6666666666667</ele><time>2026-04-25T17:00:31Z</time></trkpt><trkpt lat="43.4834719779398" lon="10.88752312506469"><ele>294.0</ele><time>2026-04-25T17:00:32Z</time></trkpt><trkpt lat="43.48341952087101" lon="10.887610628819663"><ele>296.3333333333333</ele><time>2026-04-25T17:00:33Z</time></trkpt><trkpt lat="43.483388125133146" lon="10.887716387038745"><ele>298.66666666666663</ele><time>2026-04-25T17:00:34Z</time></trkpt><trkpt lat="43.48336512457436" lon="10.887819273002817"><ele>301.0</ele><time>2026-04-25T17:00:35Z</time></trkpt><trkpt lat="43.48338842259246" lon="10.887935303600667"><ele>301.8</ele><time>2026-04-25T17:00:36Z</time></trkpt><trkpt lat="43.48344513664836" lon="10.888036098410288"><ele>302.6</ele><time>2026-04-25T17:00:37Z</time></trkpt><trkpt lat="43.48353490760488" lon="10.888083394096274"><ele>303.4</ele><time>2026-04-25T17:00:38Z</time></trkpt><trkpt lat="43.48361349892287" lon="10.88816725001594"><ele>304.2</ele><time>2026-04-25T17:00:39Z</time></trkpt><trkpt lat="43.483701534081575" lon="10.888245688870045"><ele>305.0</ele><time>2026-04-25T17:00:40Z</time></trkpt><trkpt lat="43.483782983577754" lon="10.888335443685119"><ele>303.4</ele><time>2026-04-25T17:00:41Z</time></trkpt><trkpt lat="43.48386142996056" lon="10.888427844934467"><ele>301.8</ele><time>2026-04-25T17:00:42Z</time></trkpt><trkpt lat="43.48391576301348" lon="10.888554496205957"><ele>300.2</ele><time>2026-04-25T17:00:43Z</time></trkpt><trkpt lat="43.48395533796383" lon="10.888693663396074"><ele>298.6</ele><time>2026-04-25T17:00:44Z</time></trkpt><trkpt lat="43.483972047143624" lon="10.888842398351972"><ele>297.0</ele><time>2026-04-25T17:00:45Z</time></trkpt><trkpt lat="43.4840207742541" lon="10.888982078194266"><ele>297.0</ele><time>2026-04-25T17:00:46Z</time></trkpt><trkpt lat="43.484058723836526" lon="10.889127575211702"><ele>297.0</ele><time>2026-04-25T17:00:47Z</time></trkpt><trkpt lat="43.484087151965305" lon="10.889279501411622"><ele>297.0</ele><time>2026-04-25T17:00:48Z</time></trkpt><trkpt lat="43.484156152796686" lon="10.88941516769933"><ele>297.0</ele><time>2026-04-25T17:00:49Z</time></trkpt><trkpt lat="43.48425119582946" lon="10.889524502589031"><ele>297.25</ele><time>2026-04-25T17:00:50Z</time></trkpt><trkpt lat="43.484350981745855" lon="10.889623840519974"><ele>297.5</ele><time>2026-04-25T17:00:51Z</time></trkpt><trkpt lat="43.484450952298324" lon="10.88971646275902"><ele>297.75</ele><time>2026-04-25T17:00:52Z</time></trkpt><trkpt lat="43.48454572940187" lon="10.889810965321683"><ele>298.0</ele><time>2026-04-25T17:00:53Z</time></trkpt><trkpt lat="43.48464395642759" lon="10.889890046491542"><ele>298.0</ele><time>2026-04-25T17:00:54Z</time></trkpt><trkpt lat="43.484723063874014" lon="10.890008522283484"><ele>298.0</ele><time>2026-04-25T17:00:55Z</time></trkpt><trkpt lat="43.48478028031241" lon="10.89016047339177"><ele>298.0</ele><time>2026-04-25T17:00:56Z</time></trkpt><trkpt lat="43.48484044628835" lon="10.890316252049479"><ele>298.0</ele><time>2026-04-25T17:00:57Z</time></trkpt><trkpt lat="43.48489306872738" lon="10.890470769007225"><ele>298.5</ele><time>2026-04-25T17:00:58Z</time></trkpt><trkpt lat="43.48494880807056" lon="10.890629498319297"><ele>299.0</ele><time>2026-04-25T17:00:59Z</time></trkpt><trkpt lat="43.48501944719778" lon="10.890776765729012"><ele>299.5</ele><time>2026-04-25T17:01:00Z</time></trkpt><trkpt lat="43.48506243981589" lon="10.890924283533442"><ele>300.0</ele><time>2026-04-25T17:01:01Z</time></trkpt><trkpt lat="43.48510152142616" lon="10.891054114596853"><ele>300.0</ele><time>2026-04-25T17:01:02Z</time></trkpt><trkpt lat="43.48513813598864" lon="10.891169721349254"><ele>300.0</ele><time>2026-04-25T17:01:03Z</time></trkpt><trkpt lat="43.485170402024735" lon="10.89126651526746"><ele>300.0</ele><time>2026-04-25T17:01:04Z</time></trkpt><trkpt lat="43.485211733276465" lon="10.891384720625089"><ele>300.0</ele><time>2026-04-25T17:01:06Z</time></trkpt><trkpt lat="43.48523081091662" lon="10.891473284321377"><ele>300.0</ele><time>2026-04-25T17:01:10Z</time></trkpt><trkpt lat="43.48525915685247" lon="10.891551383664828"><ele>300.0</ele><time>2026-04-25T17:01:14Z</time></trkpt><trkpt lat="43.48529552745354" lon="10.891631050251391"><ele>300.1666666666667</ele><time>2026-04-25T17:03:46Z</time></trkpt><trkpt lat="43.485355634430825" lon="10.89176044765151"><ele>300.3333333333333</ele><time>2026-04-25T17:03:48Z</time></trkpt><trkpt lat="43.48538409809535" lon="10.891844288515529"><ele>300.5</ele><time>2026-04-25T17:03:49Z</time></trkpt><trkpt lat="43.48542018958152" lon="10.891935768897303"><ele>300.66666666666663</ele><time>2026-04-25T17:03:50Z</time></trkpt><trkpt lat="43.4854577713445" lon="10.892045394219084"><ele>300.8333333333333</ele><time>2026-04-25T17:03:51Z</time></trkpt><trkpt lat="43.48549259743081" lon="10.892152185088301"><ele>301.0</ele><time>2026-04-25T17:03:52Z</time></trkpt><trkpt lat="43.48553132943528" lon="10.892258912835283"><ele>302.8</ele><time>2026-04-25T17:03:53Z</time></trkpt><trkpt lat="43.485568597696094" lon="10.892370695742704"><ele>304.6</ele><time>2026-04-25T17:03:54Z</time></trkpt><trkpt lat="43.485608877250925" lon="10.892483105401602"><ele>306.4</ele><time>2026-04-25T17:03:55Z</time></trkpt><trkpt lat="43.48564817551927" lon="10.89260372213158"><ele>308.2</ele><time>2026-04-25T17:03:56Z</time></trkpt><trkpt lat="43.48569184073883" lon="10.892733841116097"><ele>310.0</ele><time>2026-04-25T17:03:57Z</time></trkpt><trkpt lat="43.485733118880304" lon="10.892872262837344"><ele>310.25</ele><time>2026-04-25T17:03:58Z</time></trkpt><trkpt lat="43.485764966568375" lon="10.893019964560132"><ele>310.5</ele><time>2026-04-25T17:03:59Z</time></trkpt><trkpt lat="43.48578708531495" lon="10.893177348387045"><ele>310.75</ele><time>2026-04-25T17:04:00Z</time></trkpt><trkpt lat="43.485790417135284" lon="10.893340966354698"><ele>311.0</ele><time>2026-04-25T17:04:01Z</time></trkpt><trkpt lat="43.48580705436157" lon="10.893500326368933"><ele>311.0</ele><time>2026-04-25T17:04:02Z</time></trkpt><trkpt lat="43.485834718180314" lon="10.893662050688654"><ele>311.0</ele><time>2026-04-25T17:04:03Z</time></trkpt><trkpt lat="43.48587473995341" lon="10.893818992969866"><ele>311.0</ele><time>2026-04-25T17:04:04Z</time></trkpt><trkpt lat="43.48594198331548" lon="10.893961255069026"><ele>311.0</ele><time>2026-04-25T17:04:05Z</time></trkpt><trkpt lat="43.48603933057583" lon="10.894061622222335"><ele>311.0</ele><time>2026-04-25T17:04:06Z</time></trkpt><trkpt lat="43.486142652023105" lon="10.894151441731358"><ele>311.0</ele><time>2026-04-25T17:04:07Z</time></trkpt><trkpt lat="43.486252869856166" lon="10.89423028308642"><ele>311.0</ele><time>2026-04-25T17:04:08Z</time></trkpt><trkpt lat="43.48636849014213" lon="10.894306550919618"><ele>311.0</ele><time>2026-04-25T17:04:09Z</time></trkpt><trkpt lat="43.48648924868354" lon="10.894381256397056"><ele>312.25</ele><time>2026-04-25T17:04:10Z</time></trkpt><trkpt lat="43.4866097915429" lon="10.894462939259997"><ele>313.5</ele><time>2026-04-25T17:04:11Z</time></trkpt><trkpt lat="43.486732110702526" lon="10.894542409040245"><ele>314.75</ele><time>2026-04-25T17:04:12Z</time></trkpt><trkpt lat="43.48685512752494" lon="10.894617003932378"><ele>316.0</ele><time>2026-04-25T17:04:13Z</time></trkpt><trkpt lat="43.48698009426739" lon="10.894696524787745"><ele>320.0</ele><time>2026-04-25T17:04:14Z</time></trkpt><trkpt lat="43.48710685091663" lon="10.894772903242451"><ele>324.0</ele><time>2026-04-25T17:04:15Z</time></trkpt><trkpt lat="43.48722767540507" lon="10.894846147613869"><ele>328.0</ele><time>2026-04-25T17:04:16Z</time></trkpt><trkpt lat="43.48733443236459" lon="10.894920816087946"><ele>332.0</ele><time>2026-04-25T17:04:17Z</time></trkpt><trkpt lat="43.48742479826552" lon="10.894998281830722"><ele>331.5</ele><time>2026-04-25T17:04:18Z</time></trkpt><trkpt lat="43.48750795811807" lon="10.895100761931907"><ele>331.0</ele><time>2026-04-25T17:04:19Z</time></trkpt><trkpt lat="43.48757361560749" lon="10.895232854267448"><ele>330.5</ele><time>2026-04-25T17:04:20Z</time></trkpt><trkpt lat="43.487612888681916" lon="10.895381793265777"><ele>330.0</ele><time>2026-04-25T17:04:21Z</time></trkpt><trkpt lat="43.4876183853032" lon="10.895543060533187"><ele>330.0</ele><time>2026-04-25T17:04:22Z</time></trkpt><trkpt lat="43.48762034418015" lon="10.895708295825328"><ele>330.0</ele><time>2026-04-25T17:04:23Z</time></trkpt><trkpt lat="43.487620041802714" lon="10.895877204712429"><ele>330.0</ele><time>2026-04-25T17:04:24Z</time></trkpt><trkpt lat="43.48762304396582" lon="10.896049805172622"><ele>330.0</ele><time>2026-04-25T17:04:25Z</time></trkpt><trkpt lat="43.48762882596541" lon="10.896228165600595"><ele>330.5</ele><time>2026-04-25T17:04:26Z</time></trkpt><trkpt lat="43.487624556987086" lon="10.896409662423968"><ele>331.0</ele><time>2026-04-25T17:04:27Z</time></trkpt><trkpt lat="43.487662184676815" lon="10.896583806771966"><ele>331.5</ele><time>2026-04-25T17:04:28Z</time></trkpt><trkpt lat="43.48768804340498" lon="10.896771082191636"><ele>332.0</ele><time>2026-04-25T17:04:29Z</time></trkpt><trkpt lat="43.4877281753745" lon="10.896950535004885"><ele>332.75</ele><time>2026-04-25T17:04:30Z</time></trkpt><trkpt lat="43.4877608065867" lon="10.897109202849439"><ele>333.5</ele><time>2026-04-25T17:04:31Z</time></trkpt><trkpt lat="43.48778573827651" lon="10.897275256320135"><ele>334.25</ele><time>2026-04-25T17:04:32Z</time></trkpt><trkpt lat="43.487792424731445" lon="10.897458827451514"><ele>335.0</ele><time>2026-04-25T17:04:33Z</time></trkpt><trkpt lat="43.48777770598829" lon="10.897638747221396"><ele>337.0</ele><time>2026-04-25T17:04:34Z</time></trkpt><trkpt lat="43.48775230953454" lon="10.897826476823468"><ele>339.0</ele><time>2026-04-25T17:04:35Z</time></trkpt><trkpt lat="43.48771717784105" lon="10.898014012394013"><ele>341.0</ele><time>2026-04-25T17:04:36Z</time></trkpt><trkpt lat="43.48767105600143" lon="10.898207965973375"><ele>343.0</ele><time>2026-04-25T17:04:37Z</time></trkpt><trkpt lat="43.487638145452706" lon="10.898400532255025"><ele>344.0</ele><time>2026-04-25T17:04:38Z</time></trkpt><trkpt lat="43.487607029776484" lon="10.898584338752697"><ele>345.0</ele><time>2026-04-25T17:04:39Z</time></trkpt><trkpt lat="43.487574943059506" lon="10.898748532922676"><ele>346.0</ele><time>2026-04-25T17:04:40Z</time></trkpt><trkpt lat="43.48755138660104" lon="10.898911735271037"><ele>347.0</ele><time>2026-04-25T17:04:41Z</time></trkpt><trkpt lat="43.48753981141251" lon="10.899082555729866"><ele>346.5</ele><time>2026-04-25T17:04:42Z</time></trkpt><trkpt lat="43.487543679239316" lon="10.89925369755102"><ele>346.0</ele><time>2026-04-25T17:04:43Z</time></trkpt><trkpt lat="43.48755079789784" lon="10.899426640318808"><ele>345.5</ele><time>2026-04-25T17:04:44Z</time></trkpt><trkpt lat="43.48760058081774" lon="10.899604625254707"><ele>345.0</ele><time>2026-04-25T17:04:45Z</time></trkpt><trkpt lat="43.48766968141776" lon="10.899762634888548"><ele>345.0</ele><time>2026-04-25T17:04:46Z</time></trkpt><trkpt lat="43.487727212632784" lon="10.899901119646865"><ele>345.0</ele><time>2026-04-25T17:04:47Z</time></trkpt><trkpt lat="43.48778364176807" lon="10.900033935849324"><ele>345.0</ele><time>2026-04-25T17:04:48Z</time></trkpt><trkpt lat="43.48780085244428" lon="10.900165881541426"><ele>345.0</ele><time>2026-04-25T17:04:49Z</time></trkpt><trkpt lat="43.487792351062176" lon="10.900294671750348"><ele>345.0</ele><time>2026-04-25T17:04:50Z</time></trkpt><trkpt lat="43.48775844706157" lon="10.900421549396414"><ele>346.0</ele><time>2026-04-25T17:04:51Z</time></trkpt><trkpt lat="43.48770021939626" lon="10.90053097695395"><ele>347.0</ele><time>2026-04-25T17:04:52Z</time></trkpt><trkpt lat="43.487632103163875" lon="10.900632738398329"><ele>348.0</ele><time>2026-04-25T17:04:53Z</time></trkpt><trkpt lat="43.48757666516671" lon="10.90072485863976"><ele>349.0</ele><time>2026-04-25T17:04:54Z</time></trkpt><trkpt lat="43.487530504053204" lon="10.900804826406793"><ele>350.0</ele><time>2026-04-25T17:04:55Z</time></trkpt><trkpt lat="43.487499224021605" lon="10.900904343186257"><ele>351.0</ele><time>2026-04-25T17:04:56Z</time></trkpt><trkpt lat="43.487486369702744" lon="10.901032170214377"><ele>351.0</ele><time>2026-04-25T17:04:57Z</time></trkpt><trkpt lat="43.48748704815769" lon="10.901176179370829"><ele>351.0</ele><time>2026-04-25T17:04:58Z</time></trkpt><trkpt lat="43.48747221963137" lon="10.90133764794997"><ele>351.0</ele><time>2026-04-25T17:04:59Z</time></trkpt><trkpt lat="43.487491739279086" lon="10.901511188338706"><ele>351.0</ele><time>2026-04-25T17:05:00Z</time></trkpt><trkpt lat="43.4874879613889" lon="10.901689154784034"><ele>351.25</ele><time>2026-04-25T17:05:01Z</time></trkpt><trkpt lat="43.48748891504259" lon="10.901875025133842"><ele>351.5</ele><time>2026-04-25T17:05:02Z</time></trkpt><trkpt lat="43.48749029275105" lon="10.902050213918349"><ele>351.75</ele><time>2026-04-25T17:05:03Z</time></trkpt><trkpt lat="43.487495655309914" lon="10.902209328231605"><ele>352.0</ele><time>2026-04-25T17:05:04Z</time></trkpt><trkpt lat="43.48751654105518" lon="10.90237061470679"><ele>352.0</ele><time>2026-04-25T17:05:05Z</time></trkpt><trkpt lat="43.487561249507706" lon="10.902530804804941"><ele>352.0</ele><time>2026-04-25T17:05:06Z</time></trkpt><trkpt lat="43.48762026456938" lon="10.902664977678594"><ele>352.0</ele><time>2026-04-25T17:05:07Z</time></trkpt><trkpt lat="43.48769674393636" lon="10.902800013912707"><ele>352.0</ele><time>2026-04-25T17:05:08Z</time></trkpt><trkpt lat="43.4877675697646" lon="10.902943846228236"><ele>351.75</ele><time>2026-04-25T17:05:09Z</time></trkpt><trkpt lat="43.48781517229776" lon="10.90309716424324"><ele>351.5</ele><time>2026-04-25T17:05:10Z</time></trkpt><trkpt lat="43.48784226060804" lon="10.903262434043718"><ele>351.25</ele><time>2026-04-25T17:05:11Z</time></trkpt><trkpt lat="43.48784971094906" lon="10.903433743741987"><ele>351.0</ele><time>2026-04-25T17:05:12Z</time></trkpt><trkpt lat="43.48783965719685" lon="10.90362000614779"><ele>351.0</ele><time>2026-04-25T17:05:13Z</time></trkpt><trkpt lat="43.48781960419125" lon="10.903813848781468"><ele>351.0</ele><time>2026-04-25T17:05:14Z</time></trkpt><trkpt lat="43.48779605446199" lon="10.904010895469982"><ele>351.0</ele><time>2026-04-25T17:05:15Z</time></trkpt><trkpt lat="43.487787503695564" lon="10.904208760023767"><ele>351.0</ele><time>2026-04-25T17:05:16Z</time></trkpt><trkpt lat="43.48778784231381" lon="10.904403263095485"><ele>350.75</ele><time>2026-04-25T17:05:17Z</time></trkpt><trkpt lat="43.48779412628397" lon="10.904601555690496"><ele>350.5</ele><time>2026-04-25T17:05:18Z</time></trkpt><trkpt lat="43.487808460877154" lon="10.904805248538365"><ele>350.25</ele><time>2026-04-25T17:05:19Z</time></trkpt><trkpt lat="43.48782564161323" lon="10.905005885542774"><ele>350.0</ele><time>2026-04-25T17:05:20Z</time></trkpt><trkpt lat="43.487841183748095" lon="10.905214364690655"><ele>350.5</ele><time>2026-04-25T17:05:21Z</time></trkpt><trkpt lat="43.487858154493175" lon="10.905412271419085"><ele>351.0</ele><time>2026-04-25T17:05:22Z</time></trkpt><trkpt lat="43.487856367174636" lon="10.905610032513307"><ele>351.5</ele><time>2026-04-25T17:05:23Z</time></trkpt><trkpt lat="43.48787112315548" lon="10.905816228521411"><ele>352.0</ele><time>2026-04-25T17:05:24Z</time></trkpt><trkpt lat="43.48788551012091" lon="10.906017267805485"><ele>352.25</ele><time>2026-04-25T17:05:25Z</time></trkpt><trkpt lat="43.48789948113256" lon="10.906212494616625"><ele>352.5</ele><time>2026-04-25T17:05:26Z</time></trkpt><trkpt lat="43.48791229057529" lon="10.906391490132107"><ele>352.75</ele><time>2026-04-25T17:05:27Z</time></trkpt><trkpt lat="43.487924220067555" lon="10.90657655394488"><ele>353.0</ele><time>2026-04-25T17:05:28Z</time></trkpt><trkpt lat="43.48793712244621" lon="10.906753131085468"><ele>353.25</ele><time>2026-04-25T17:05:29Z</time></trkpt><trkpt lat="43.487944697025846" lon="10.906939356275577"><ele>353.5</ele><time>2026-04-25T17:05:30Z</time></trkpt><trkpt lat="43.487945136815576" lon="10.907127048451878"><ele>353.75</ele><time>2026-04-25T17:05:31Z</time></trkpt><trkpt lat="43.48793297227121" lon="10.907318734223924"><ele>354.0</ele><time>2026-04-25T17:05:32Z</time></trkpt><trkpt lat="43.48791230187073" lon="10.90750470893316"><ele>354.5</ele><time>2026-04-25T17:05:33Z</time></trkpt><trkpt lat="43.487885972218635" lon="10.907690359507733"><ele>355.0</ele><time>2026-04-25T17:05:34Z</time></trkpt><trkpt lat="43.487859187253086" lon="10.907884829822189"><ele>355.5</ele><time>2026-04-25T17:05:35Z</time></trkpt><trkpt lat="43.48783034255993" lon="10.908076107356102"><ele>356.0</ele><time>2026-04-25T17:05:36Z</time></trkpt><trkpt lat="43.48779970498727" lon="10.908263577500941"><ele>356.75</ele><time>2026-04-25T17:05:37Z</time></trkpt><trkpt lat="43.48777125285566" lon="10.908441404656568"><ele>357.5</ele><time>2026-04-25T17:05:38Z</time></trkpt><trkpt lat="43.48773387763575" lon="10.908621521482733"><ele>358.25</ele><time>2026-04-25T17:05:39Z</time></trkpt><trkpt lat="43.48768875388683" lon="10.908810000737132"><ele>359.0</ele><time>2026-04-25T17:05:40Z</time></trkpt><trkpt lat="43.48764190818616" lon="10.908981564375681"><ele>359.0</ele><time>2026-04-25T17:05:41Z</time></trkpt><trkpt lat="43.48758756164114" lon="10.909154897172582"><ele>359.0</ele><time>2026-04-25T17:05:42Z</time></trkpt><trkpt lat="43.487528366802565" lon="10.909314512051845"><ele>359.0</ele><time>2026-04-25T17:05:43Z</time></trkpt><trkpt lat="43.48746305842048" lon="10.909472927567977"><ele>359.0</ele><time>2026-04-25T17:05:44Z</time></trkpt><trkpt lat="43.48739182365038" lon="10.909627283218818"><ele>362.5</ele><time>2026-04-25T17:05:45Z</time></trkpt><trkpt lat="43.48732146093199" lon="10.909781735481547"><ele>366.0</ele><time>2026-04-25T17:05:46Z</time></trkpt><trkpt lat="43.4872387726451" lon="10.90992821562095"><ele>369.5</ele><time>2026-04-25T17:05:47Z</time></trkpt><trkpt lat="43.48714092845608" lon="10.910056711172983"><ele>373.0</ele><time>2026-04-25T17:05:48Z</time></trkpt><trkpt lat="43.4870401790654" lon="10.910168785592594"><ele>373.0</ele><time>2026-04-25T17:05:49Z</time></trkpt><trkpt lat="43.48694360407004" lon="10.910262752422145"><ele>373.0</ele><time>2026-04-25T17:05:50Z</time></trkpt><trkpt lat="43.48684724821563" lon="10.91034181327011"><ele>373.0</ele><time>2026-04-25T17:05:51Z</time></trkpt><trkpt lat="43.48673659225048" lon="10.910395508841532"><ele>373.0</ele><time>2026-04-25T17:05:52Z</time></trkpt><trkpt lat="43.48661732494163" lon="10.910409732898552"><ele>373.0</ele><time>2026-04-25T17:05:53Z</time></trkpt><trkpt lat="43.48649052822893" lon="10.91040755292424"><ele>373.0</ele><time>2026-04-25T17:05:54Z</time></trkpt><trkpt lat="43.486359613251146" lon="10.910404680269039"><ele>373.0</ele><time>2026-04-25T17:05:55Z</time></trkpt><trkpt lat="43.48622813299086" lon="10.910407977669509"><ele>373.0</ele><time>2026-04-25T17:05:56Z</time></trkpt><trkpt lat="43.48609554292151" lon="10.910408409043592"><ele>375.0</ele><time>2026-04-25T17:05:57Z</time></trkpt><trkpt lat="43.48596264398491" lon="10.910415572069015"><ele>377.0</ele><time>2026-04-25T17:05:58Z</time></trkpt><trkpt lat="43.48582938479849" lon="10.910433840182423"><ele>379.0</ele><time>2026-04-25T17:05:59Z</time></trkpt><trkpt lat="43.48569032049211" lon="10.910459474143071"><ele>381.0</ele><time>2026-04-25T17:06:00Z</time></trkpt><trkpt lat="43.485553463862985" lon="10.910485276912071"><ele>380.0</ele><time>2026-04-25T17:06:01Z</time></trkpt><trkpt lat="43.48541812794101" lon="10.910508008075233"><ele>379.0</ele><time>2026-04-25T17:06:02Z</time></trkpt><trkpt lat="43.48528605999953" lon="10.910531670809625"><ele>378.0</ele><time>2026-04-25T17:06:03Z</time></trkpt><trkpt lat="43.485162404147204" lon="10.910555998915843"><ele>377.0</ele><time>2026-04-25T17:06:04Z</time></trkpt><trkpt lat="43.48504989626681" lon="10.910584930260816"><ele>377.0</ele><time>2026-04-25T17:06:05Z</time></trkpt><trkpt lat="43.48493962199976" lon="10.910636054423193"><ele>377.0</ele><time>2026-04-25T17:06:06Z</time></trkpt><trkpt lat="43.48483293461761" lon="10.910720010126273"><ele>377.0</ele><time>2026-04-25T17:06:07Z</time></trkpt><trkpt lat="43.4847361524098" lon="10.910837687187433"><ele>377.0</ele><time>2026-04-25T17:06:08Z</time></trkpt><trkpt lat="43.48465210889564" lon="10.910977078373874"><ele>377.25</ele><time>2026-04-25T17:06:09Z</time></trkpt><trkpt lat="43.48457067690588" lon="10.91112754883949"><ele>377.5</ele><time>2026-04-25T17:06:10Z</time></trkpt><trkpt lat="43.484486498906215" lon="10.911281205690436"><ele>377.75</ele><time>2026-04-25T17:06:11Z</time></trkpt><trkpt lat="43.48439989243539" lon="10.91143533806618"><ele>378.0</ele><time>2026-04-25T17:06:12Z</time></trkpt><trkpt lat="43.48431429827028" lon="10.91158686587204"><ele>378.0</ele><time>2026-04-25T17:06:13Z</time></trkpt><trkpt lat="43.484225045765896" lon="10.911740227039678"><ele>378.0</ele><time>2026-04-25T17:06:14Z</time></trkpt><trkpt lat="43.48413955805662" lon="10.911890543488191"><ele>378.0</ele><time>2026-04-25T17:06:15Z</time></trkpt><trkpt lat="43.484066245665595" lon="10.912023598955475"><ele>378.0</ele><time>2026-04-25T17:06:16Z</time></trkpt><trkpt lat="43.48400152321788" lon="10.912146585492923"><ele>378.59999999999997</ele><time>2026-04-25T17:06:17Z</time></trkpt><trkpt lat="43.48395096601846" lon="10.912257344626385"><ele>379.2</ele><time>2026-04-25T17:06:18Z</time></trkpt><trkpt lat="43.48390462261353" lon="10.912354006472865"><ele>379.8</ele><time>2026-04-25T17:06:19Z</time></trkpt><trkpt lat="43.483909625255755" lon="10.91248018689508"><ele>380.4</ele><time>2026-04-25T17:06:20Z</time></trkpt><trkpt lat="43.483928116236235" lon="10.91260628294243"><ele>381.0</ele><time>2026-04-25T17:06:21Z</time></trkpt><trkpt lat="43.483968765660734" lon="10.912734416075322"><ele>381.0</ele><time>2026-04-25T17:06:22Z</time></trkpt><trkpt lat="43.484034474916385" lon="10.912857435647425"><ele>381.0</ele><time>2026-04-25T17:06:23Z</time></trkpt><trkpt lat="43.48410502314928" lon="10.912987758619778"><ele>381.0</ele><time>2026-04-25T17:06:24Z</time></trkpt><trkpt lat="43.484171318782096" lon="10.913126352165557"><ele>381.0</ele><time>2026-04-25T17:06:25Z</time></trkpt><trkpt lat="43.48424465803507" lon="10.913271904437721"><ele>379.75</ele><time>2026-04-25T17:06:26Z</time></trkpt><trkpt lat="43.48432146152836" lon="10.913420367969794"><ele>378.5</ele><time>2026-04-25T17:06:27Z</time></trkpt><trkpt lat="43.48440216453714" lon="10.9135710927023"><ele>377.25</ele><time>2026-04-25T17:06:28Z</time></trkpt><trkpt lat="43.484486703589674" lon="10.913727998279414"><ele>376.0</ele><time>2026-04-25T17:06:29Z</time></trkpt><trkpt lat="43.48456547076095" lon="10.913891914711291"><ele>381.25</ele><time>2026-04-25T17:06:30Z</time></trkpt><trkpt lat="43.48462954409851" lon="10.91407266798491"><ele>386.5</ele><time>2026-04-25T17:06:31Z</time></trkpt><trkpt lat="43.484678177785234" lon="10.914267816432098"><ele>391.75</ele><time>2026-04-25T17:06:32Z</time></trkpt><trkpt lat="43.48471820455135" lon="10.91446404980621"><ele>397.0</ele><time>2026-04-25T17:06:33Z</time></trkpt><trkpt lat="43.48474026236904" lon="10.914659705354943"><ele>397.0</ele><time>2026-04-25T17:06:34Z</time></trkpt><trkpt lat="43.48478023623274" lon="10.914845870846738"><ele>397.0</ele><time>2026-04-25T17:06:35Z</time></trkpt><trkpt lat="43.484846916216625" lon="10.915015611563586"><ele>397.0</ele><time>2026-04-25T17:06:36Z</time></trkpt><trkpt lat="43.48490518744637" lon="10.915190233618059"><ele>397.0</ele><time>2026-04-25T17:06:37Z</time></trkpt><trkpt lat="43.48496949544569" lon="10.915367213522643"><ele>395.25</ele><time>2026-04-25T17:06:38Z</time></trkpt><trkpt lat="43.48503746744328" lon="10.91554472808273"><ele>393.5</ele><time>2026-04-25T17:06:39Z</time></trkpt><trkpt lat="43.48510171745879" lon="10.915727798319852"><ele>391.75</ele><time>2026-04-25T17:06:40Z</time></trkpt><trkpt lat="43.48516710418591" lon="10.915909988409624"><ele>390.0</ele><time>2026-04-25T17:06:41Z</time></trkpt><trkpt lat="43.48523240270158" lon="10.916089162473384"><ele>388.25</ele><time>2026-04-25T17:06:42Z</time></trkpt><trkpt lat="43.485296965689166" lon="10.916268430140818"><ele>386.5</ele><time>2026-04-25T17:06:43Z</time></trkpt><trkpt lat="43.48535990210559" lon="10.916447191547858"><ele>384.75</ele><time>2026-04-25T17:06:44Z</time></trkpt><trkpt lat="43.48542313257894" lon="10.91662570954408"><ele>383.0</ele><time>2026-04-25T17:06:45Z</time></trkpt><trkpt lat="43.485484408594196" lon="10.916801909120963"><ele>387.0</ele><time>2026-04-25T17:06:46Z</time></trkpt><trkpt lat="43.485546052905235" lon="10.916970601704914"><ele>391.0</ele><time>2026-04-25T17:06:47Z</time></trkpt><trkpt lat="43.485603830628214" lon="10.917133025251864"><ele>395.0</ele><time>2026-04-25T17:06:48Z</time></trkpt><trkpt lat="43.485649195972336" lon="10.91730122203576"><ele>399.0</ele><time>2026-04-25T17:06:49Z</time></trkpt><trkpt lat="43.48570660610643" lon="10.917464243886606"><ele>397.0</ele><time>2026-04-25T17:06:50Z</time></trkpt><trkpt lat="43.48576663786892" lon="10.917626826360515"><ele>395.0</ele><time>2026-04-25T17:06:51Z</time></trkpt><trkpt lat="43.485826237731516" lon="10.917790302250232"><ele>393.0</ele><time>2026-04-25T17:06:52Z</time></trkpt><trkpt lat="43.48589233275602" lon="10.91794705042462"><ele>391.0</ele><time>2026-04-25T17:06:53Z</time></trkpt><trkpt lat="43.48597623875685" lon="10.91809531392101"><ele>391.0</ele><time>2026-04-25T17:06:54Z</time></trkpt><trkpt lat="43.48606942337946" lon="10.91823923394278"><ele>391.0</ele><time>2026-04-25T17:06:55Z</time></trkpt><trkpt lat="43.486169413339745" lon="10.918374062821545"><ele>391.0</ele><time>2026-04-25T17:06:56Z</time></trkpt><trkpt lat="43.486272812143206" lon="10.918509488597103"><ele>391.0</ele><time>2026-04-25T17:06:57Z</time></trkpt><trkpt lat="43.48638329123368" lon="10.918638373386148"><ele>392.25</ele><time>2026-04-25T17:06:58Z</time></trkpt><trkpt lat="43.48648916342859" lon="10.918771846123164"><ele>393.5</ele><time>2026-04-25T17:06:59Z</time></trkpt><trkpt lat="43.48659353077621" lon="10.918905776973196"><ele>394.75</ele><time>2026-04-25T17:07:00Z</time></trkpt><trkpt lat="43.48669276304657" lon="10.919051526255124"><ele>396.0</ele><time>2026-04-25T17:07:01Z</time></trkpt><trkpt lat="43.48680264903083" lon="10.919182617218379"><ele>394.75</ele><time>2026-04-25T17:07:02Z</time></trkpt><trkpt lat="43.48690935768285" lon="10.91931926087877"><ele>393.5</ele><time>2026-04-25T17:07:03Z</time></trkpt><trkpt lat="43.487016943270845" lon="10.91945765935037"><ele>392.25</ele><time>2026-04-25T17:07:04Z</time></trkpt><trkpt lat="43.487124768191315" lon="10.91959559571569"><ele>391.0</ele><time>2026-04-25T17:07:05Z</time></trkpt><trkpt lat="43.48723620864223" lon="10.919731074535381"><ele>393.0</ele><time>2026-04-25T17:07:06Z</time></trkpt><trkpt lat="43.48734887187952" lon="10.919866829761418"><ele>395.0</ele><time>2026-04-25T17:07:07Z</time></trkpt><trkpt lat="43.487457473379656" lon="10.920012089075684"><ele>397.0</ele><time>2026-04-25T17:07:08Z</time></trkpt><trkpt lat="43.48756717557547" lon="10.920156956426517"><ele>397.0</ele><time>2026-04-25T17:07:09Z</time></trkpt><trkpt lat="43.487680107589526" lon="10.920294812672536"><ele>397.0</ele><time>2026-04-25T17:07:10Z</time></trkpt><trkpt lat="43.48779143599164" lon="10.920434902205725"><ele>397.0</ele><time>2026-04-25T17:07:11Z</time></trkpt><trkpt lat="43.48790096772387" lon="10.920578149773302"><ele>399.33333333333337</ele><time>2026-04-25T17:07:12Z</time></trkpt><trkpt lat="43.48801305543566" lon="10.92071663354308"><ele>401.66666666666663</ele><time>2026-04-25T17:07:13Z</time></trkpt><trkpt lat="43.48812750140581" lon="10.92085819786974"><ele>404.0</ele><time>2026-04-25T17:07:14Z</time></trkpt><trkpt lat="43.48823910089339" lon="10.921003299459567"><ele>404.0</ele><time>2026-04-25T17:07:15Z</time></trkpt><trkpt lat="43.488351134710534" lon="10.921147633735195"><ele>404.0</ele><time>2026-04-25T17:07:16Z</time></trkpt><trkpt lat="43.48846085963748" lon="10.921294002558607"><ele>404.0</ele><time>2026-04-25T17:07:17Z</time></trkpt><trkpt lat="43.48857057025127" lon="10.921442834304232"><ele>404.0</ele><time>2026-04-25T17:07:18Z</time></trkpt><trkpt lat="43.48867460777641" lon="10.921588903257007"><ele>404.0</ele><time>2026-04-25T17:07:19Z</time></trkpt><trkpt lat="43.48877445082342" lon="10.921740307262645"><ele>404.0</ele><time>2026-04-25T17:07:20Z</time></trkpt><trkpt lat="43.48886552725577" lon="10.921900721382393"><ele>404.0</ele><time>2026-04-25T17:07:21Z</time></trkpt><trkpt lat="43.488948197540424" lon="10.922057499528089"><ele>406.0</ele><time>2026-04-25T17:07:22Z</time></trkpt><trkpt lat="43.48902539736145" lon="10.922206423327946"><ele>408.0</ele><time>2026-04-25T17:07:23Z</time></trkpt><trkpt lat="43.48911983887061" lon="10.922346861455944"><ele>410.0</ele><time>2026-04-25T17:07:24Z</time></trkpt><trkpt lat="43.489230680805335" lon="10.922472861209583"><ele>412.0</ele><time>2026-04-25T17:07:25Z</time></trkpt><trkpt lat="43.48935223489203" lon="10.922585329730254"><ele>412.0</ele><time>2026-04-25T17:07:26Z</time></trkpt><trkpt lat="43.48947616077176" lon="10.922681972855656"><ele>412.0</ele><time>2026-04-25T17:07:27Z</time></trkpt><trkpt lat="43.48958703077086" lon="10.922765221515746"><ele>412.0</ele><time>2026-04-25T17:07:28Z</time></trkpt><trkpt lat="43.48967763966444" lon="10.92284833388989"><ele>412.0</ele><time>2026-04-25T17:07:29Z</time></trkpt><trkpt lat="43.489754748928746" lon="10.92293034856798"><ele>414.1666666666667</ele><time>2026-04-25T17:07:30Z</time></trkpt><trkpt lat="43.489820268636116" lon="10.92300575940238"><ele>416.33333333333337</ele><time>2026-04-25T17:07:31Z</time></trkpt><trkpt lat="43.48984324528904" lon="10.923102152074025"><ele>418.5</ele><time>2026-04-25T17:07:32Z</time></trkpt><trkpt lat="43.48986383870542" lon="10.923197101179888"><ele>420.66666666666663</ele><time>2026-04-25T17:07:33Z</time></trkpt><trkpt lat="43.489882189941575" lon="10.923316707276676"><ele>422.8333333333333</ele><time>2026-04-25T17:07:34Z</time></trkpt><trkpt lat="43.48986309498857" lon="10.92345313218514"><ele>425.0</ele><time>2026-04-25T17:07:35Z</time></trkpt><trkpt lat="43.489838522120735" lon="10.923600608404689"><ele>425.0</ele><time>2026-04-25T17:07:36Z</time></trkpt><trkpt lat="43.489817729317075" lon="10.923763409852448"><ele>425.0</ele><time>2026-04-25T17:07:37Z</time></trkpt><trkpt lat="43.48979503757704" lon="10.923924000673438"><ele>425.0</ele><time>2026-04-25T17:07:38Z</time></trkpt><trkpt lat="43.48977136704501" lon="10.92409447142108"><ele>425.0</ele><time>2026-04-25T17:07:39Z</time></trkpt><trkpt lat="43.48974523691732" lon="10.924264410553244"><ele>425.0</ele><time>2026-04-25T17:07:40Z</time></trkpt><trkpt lat="43.48971062956186" lon="10.924440056084274"><ele>425.0</ele><time>2026-04-25T17:07:41Z</time></trkpt><trkpt lat="43.48967852112644" lon="10.924616887534839"><ele>425.0</ele><time>2026-04-25T17:07:42Z</time></trkpt><trkpt lat="43.48965096352608" lon="10.924790338229096"><ele>425.0</ele><time>2026-04-25T17:07:43Z</time></trkpt><trkpt lat="43.489624956427015" lon="10.924970300964016"><ele>426.5</ele><time>2026-04-25T17:07:44Z</time></trkpt><trkpt lat="43.48959707815803" lon="10.925151319408364"><ele>428.0</ele><time>2026-04-25T17:07:45Z</time></trkpt><trkpt lat="43.48956949370643" lon="10.92533276290111"><ele>429.5</ele><time>2026-04-25T17:07:46Z</time></trkpt><trkpt lat="43.489545995235005" lon="10.925512325639694"><ele>431.0</ele><time>2026-04-25T17:07:47Z</time></trkpt><trkpt lat="43.489521479111026" lon="10.925692789882978"><ele>429.5</ele><time>2026-04-25T17:07:48Z</time></trkpt><trkpt lat="43.48949656890923" lon="10.925878492237011"><ele>428.0</ele><time>2026-04-25T17:07:49Z</time></trkpt><trkpt lat="43.48947096894796" lon="10.926066629938733"><ele>426.5</ele><time>2026-04-25T17:07:50Z</time></trkpt><trkpt lat="43.48944196242763" lon="10.92625569282747"><ele>425.0</ele><time>2026-04-25T17:07:51Z</time></trkpt><trkpt lat="43.48941558103513" lon="10.926444170600645"><ele>425.0</ele><time>2026-04-25T17:07:52Z</time></trkpt><trkpt lat="43.48939014556732" lon="10.926631088957325"><ele>425.0</ele><time>2026-04-25T17:07:53Z</time></trkpt><trkpt lat="43.489364175061716" lon="10.926817152496975"><ele>425.0</ele><time>2026-04-25T17:07:54Z</time></trkpt><trkpt lat="43.489340299395224" lon="10.92700365155111"><ele>425.0</ele><time>2026-04-25T17:07:55Z</time></trkpt><trkpt lat="43.48932303524573" lon="10.927191030412512"><ele>426.75</ele><time>2026-04-25T17:07:56Z</time></trkpt><trkpt lat="43.48930313547469" lon="10.927393931795528"><ele>428.5</ele><time>2026-04-25T17:07:57Z</time></trkpt><trkpt lat="43.489291191309626" lon="10.927596480421682"><ele>430.25</ele><time>2026-04-25T17:07:58Z</time></trkpt><trkpt lat="43.48927612873279" lon="10.927796596957627"><ele>432.0</ele><time>2026-04-25T17:07:59Z</time></trkpt><trkpt lat="43.489260991205946" lon="10.9279945297745"><ele>432.5</ele><time>2026-04-25T17:08:00Z</time></trkpt><trkpt lat="43.489244351982784" lon="10.928191696455983"><ele>433.0</ele><time>2026-04-25T17:08:01Z</time></trkpt><trkpt lat="43.48922848696025" lon="10.928384458454973"><ele>433.5</ele><time>2026-04-25T17:08:02Z</time></trkpt><trkpt lat="43.4892157551693" lon="10.928574259689741"><ele>434.0</ele><time>2026-04-25T17:08:03Z</time></trkpt><trkpt lat="43.48920783037111" lon="10.928762342856626"><ele>434.5</ele><time>2026-04-25T17:08:04Z</time></trkpt><trkpt lat="43.48921588548274" lon="10.928949353349333"><ele>435.0</ele><time>2026-04-25T17:08:05Z</time></trkpt><trkpt lat="43.48922557700038" lon="10.929145587519645"><ele>435.5</ele><time>2026-04-25T17:08:06Z</time></trkpt><trkpt lat="43.48928629299852" lon="10.9293272475698"><ele>436.0</ele><time>2026-04-25T17:08:07Z</time></trkpt><trkpt lat="43.489340926039326" lon="10.929513807762824"><ele>436.25</ele><time>2026-04-25T17:08:08Z</time></trkpt><trkpt lat="43.48939682776865" lon="10.929698063892385"><ele>436.5</ele><time>2026-04-25T17:08:09Z</time></trkpt><trkpt lat="43.489448952749356" lon="10.929877017694015"><ele>436.75</ele><time>2026-04-25T17:08:10Z</time></trkpt><trkpt lat="43.489498352841046" lon="10.930052715726225"><ele>437.0</ele><time>2026-04-25T17:08:11Z</time></trkpt><trkpt lat="43.489539939958966" lon="10.930223366591687"><ele>437.25</ele><time>2026-04-25T17:08:12Z</time></trkpt><trkpt lat="43.48957564598872" lon="10.930402435963845"><ele>437.5</ele><time>2026-04-25T17:08:13Z</time></trkpt><trkpt lat="43.48960053340767" lon="10.930590954571947"><ele>437.75</ele><time>2026-04-25T17:08:14Z</time></trkpt><trkpt lat="43.48961642710301" lon="10.930778854439184"><ele>438.0</ele><time>2026-04-25T17:08:15Z</time></trkpt><trkpt lat="43.4896324063407" lon="10.930974527799822"><ele>443.75</ele><time>2026-04-25T17:08:16Z</time></trkpt><trkpt lat="43.489648632138916" lon="10.931163957658475"><ele>449.5</ele><time>2026-04-25T17:08:17Z</time></trkpt><trkpt lat="43.489662720085484" lon="10.931338695480669"><ele>455.25</ele><time>2026-04-25T17:08:18Z</time></trkpt><trkpt lat="43.489677119763904" lon="10.931521423727709"><ele>461.0</ele><time>2026-04-25T17:08:19Z</time></trkpt><trkpt lat="43.48969188517407" lon="10.931707481338416"><ele>460.25</ele><time>2026-04-25T17:08:20Z</time></trkpt><trkpt lat="43.489707016051476" lon="10.931885994470754"><ele>459.5</ele><time>2026-04-25T17:08:21Z</time></trkpt><trkpt lat="43.48971678279497" lon="10.932052127761681"><ele>458.75</ele><time>2026-04-25T17:08:22Z</time></trkpt><trkpt lat="43.48973061889904" lon="10.932196801776199"><ele>458.0</ele><time>2026-04-25T17:08:23Z</time></trkpt><trkpt lat="43.489749910149115" lon="10.93232215408069"><ele>458.0</ele><time>2026-04-25T17:08:24Z</time></trkpt><trkpt lat="43.489781000124786" lon="10.932422787112326"><ele>458.0</ele><time>2026-04-25T17:08:25Z</time></trkpt><trkpt lat="43.489815176408385" lon="10.932506435450701"><ele>458.0</ele><time>2026-04-25T17:08:26Z</time></trkpt><trkpt lat="43.48988569256954" lon="10.932526620819102"><ele>458.0</ele><time>2026-04-25T17:08:27Z</time></trkpt><trkpt lat="43.48996084949648" lon="10.932526568129541"><ele>458.0</ele><time>2026-04-25T17:08:28Z</time></trkpt><trkpt lat="43.49002175192631" lon="10.932487718773514"><ele>458.0</ele><time>2026-04-25T17:08:29Z</time></trkpt><trkpt lat="43.49008031768714" lon="10.93244106949979"><ele>458.0</ele><time>2026-04-25T17:08:30Z</time></trkpt><trkpt lat="43.49010173025771" lon="10.932312082496559"><ele>458.0</ele><time>2026-04-25T17:08:31Z</time></trkpt><trkpt lat="43.490111435428815" lon="10.93218806720527"><ele>457.99999999999994</ele><time>2026-04-25T17:08:32Z</time></trkpt><trkpt lat="43.49010922466251" lon="10.932052188044649"><ele>457.99999999999994</ele><time>2026-04-25T17:08:33Z</time></trkpt><trkpt lat="43.49011041902246" lon="10.931909744776728"><ele>458.0</ele><time>2026-04-25T17:08:34Z</time></trkpt><trkpt lat="43.49011131284997" lon="10.931761475508933"><ele>458.0</ele><time>2026-04-25T17:08:35Z</time></trkpt><trkpt lat="43.49010950007132" lon="10.931602694975847"><ele>458.75</ele><time>2026-04-25T17:08:36Z</time></trkpt><trkpt lat="43.490109466937284" lon="10.931443924188269"><ele>459.5</ele><time>2026-04-25T17:08:37Z</time></trkpt><trkpt lat="43.490114164036434" lon="10.931292906663293"><ele>460.25</ele><time>2026-04-25T17:08:38Z</time></trkpt><trkpt lat="43.49011919896496" lon="10.931139379944872"><ele>461.0</ele><time>2026-04-25T17:08:39Z</time></trkpt><trkpt lat="43.490143109485075" lon="10.930982552582394"><ele>461.25</ele><time>2026-04-25T17:08:40Z</time></trkpt><trkpt lat="43.49017850148639" lon="10.930825834054405"><ele>461.5</ele><time>2026-04-25T17:08:41Z</time></trkpt><trkpt lat="43.49023055617607" lon="10.930669897208784"><ele>461.75</ele><time>2026-04-25T17:08:42Z</time></trkpt><trkpt lat="43.490291217092434" lon="10.930518702982974"><ele>462.0</ele><time>2026-04-25T17:08:43Z</time></trkpt><trkpt lat="43.4903536709005" lon="10.930378782206322"><ele>462.0</ele><time>2026-04-25T17:08:44Z</time></trkpt><trkpt lat="43.49041479126171" lon="10.930234200975345"><ele>462.0</ele><time>2026-04-25T17:08:45Z</time></trkpt><trkpt lat="43.49047248777817" lon="10.930080648319713"><ele>462.0</ele><time>2026-04-25T17:08:46Z</time></trkpt><trkpt lat="43.49053512647171" lon="10.929936971584537"><ele>462.0</ele><time>2026-04-25T17:08:47Z</time></trkpt><trkpt lat="43.49059319605886" lon="10.929787127416486"><ele>465.25</ele><time>2026-04-25T17:08:48Z</time></trkpt><trkpt lat="43.4906565520811" lon="10.92963820705391"><ele>468.5</ele><time>2026-04-25T17:08:49Z</time></trkpt><trkpt lat="43.4907213783077" lon="10.929490546669879"><ele>471.75</ele><time>2026-04-25T17:08:50Z</time></trkpt><trkpt lat="43.490780509008964" lon="10.929351824296202"><ele>475.0</ele><time>2026-04-25T17:08:51Z</time></trkpt><trkpt lat="43.49084061289598" lon="10.929223194708017"><ele>475.0</ele><time>2026-04-25T17:08:52Z</time></trkpt><trkpt lat="43.49089323619448" lon="10.92909180235778"><ele>475.0</ele><time>2026-04-25T17:08:53Z</time></trkpt><trkpt lat="43.49095419615149" lon="10.928965297040056"><ele>475.0</ele><time>2026-04-25T17:08:54Z</time></trkpt><trkpt lat="43.49100699371708" lon="10.928841709431842"><ele>475.0</ele><time>2026-04-25T17:08:55Z</time></trkpt><trkpt lat="43.49106247675221" lon="10.928735258213017"><ele>475.0</ele><time>2026-04-25T17:08:56Z</time></trkpt><trkpt lat="43.4911421222596" lon="10.928640651710666"><ele>475.0</ele><time>2026-04-25T17:08:57Z</time></trkpt><trkpt lat="43.49123529630983" lon="10.928576673643784"><ele>475.0</ele><time>2026-04-25T17:08:58Z</time></trkpt><trkpt lat="43.49133118938187" lon="10.928537130278627"><ele>475.0</ele><time>2026-04-25T17:08:59Z</time></trkpt><trkpt lat="43.49142693582671" lon="10.928537964605376"><ele>475.0</ele><time>2026-04-25T17:09:00Z</time></trkpt><trkpt lat="43.49152296804317" lon="10.92856507304559"><ele>475.0</ele><time>2026-04-25T17:09:01Z</time></trkpt><trkpt lat="43.491613418721585" lon="10.92863025244756"><ele>476.8</ele><time>2026-04-25T17:09:02Z</time></trkpt><trkpt lat="43.491707812483796" lon="10.928703914639652"><ele>478.6</ele><time>2026-04-25T17:09:03Z</time></trkpt><trkpt lat="43.491803054463844" lon="10.928771096717185"><ele>480.4</ele><time>2026-04-25T17:09:04Z</time></trkpt><trkpt lat="43.49191430618848" lon="10.928821260176951"><ele>482.2</ele><time>2026-04-25T17:09:05Z</time></trkpt><trkpt lat="43.49201667143365" lon="10.928849308517893"><ele>484.0</ele><time>2026-04-25T17:09:06Z</time></trkpt><trkpt lat="43.49212061390727" lon="10.92885041090827"><ele>484.00000000000006</ele><time>2026-04-25T17:09:07Z</time></trkpt><trkpt lat="43.49221179766938" lon="10.928832674819295"><ele>484.0</ele><time>2026-04-25T17:09:08Z</time></trkpt><trkpt lat="43.492289079451865" lon="10.928816296924955"><ele>484.0</ele><time>2026-04-25T17:09:09Z</time></trkpt><trkpt lat="43.49235317982831" lon="10.92880836122062"><ele>484.0</ele><time>2026-04-25T17:09:10Z</time></trkpt><trkpt lat="43.49244229132672" lon="10.928799450323446"><ele>484.00000000000006</ele><time>2026-04-25T17:09:12Z</time></trkpt><trkpt lat="43.492497891280195" lon="10.928903703701016"><ele>484.0</ele><time>2026-04-25T17:09:14Z</time></trkpt><trkpt lat="43.49246714181839" lon="10.9286598104203"><ele>484.0</ele><time>2026-04-25T17:09:44Z</time></trkpt><trkpt lat="43.49262613138954" lon="10.928620662701213"><ele>484.0</ele><time>2026-04-25T17:13:00Z</time></trkpt><trkpt lat="43.492656530297594" lon="10.928459060081886"><ele>484.0</ele><time>2026-04-25T17:13:04Z</time></trkpt><trkpt lat="43.49273057071718" lon="10.928352633344048"><ele>484.0</ele><time>2026-04-25T17:13:06Z</time></trkpt><trkpt lat="43.492777370460274" lon="10.92829351348446"><ele>484.1666666666667</ele><time>2026-04-25T17:13:07Z</time></trkpt><trkpt lat="43.492826972239314" lon="10.928213595664586"><ele>484.33333333333337</ele><time>2026-04-25T17:13:08Z</time></trkpt><trkpt lat="43.49287999135435" lon="10.928126945176086"><ele>484.5</ele><time>2026-04-25T17:13:09Z</time></trkpt><trkpt lat="43.49294090614125" lon="10.928029632137656"><ele>484.66666666666663</ele><time>2026-04-25T17:13:10Z</time></trkpt><trkpt lat="43.49300749973339" lon="10.927937856638247"><ele>484.8333333333333</ele><time>2026-04-25T17:13:11Z</time></trkpt><trkpt lat="43.49307370348343" lon="10.927838095958021"><ele>485.0</ele><time>2026-04-25T17:13:12Z</time></trkpt><trkpt lat="43.493146287461904" lon="10.92773719959839"><ele>487.25</ele><time>2026-04-25T17:13:13Z</time></trkpt><trkpt lat="43.49321852631635" lon="10.927625874735195"><ele>489.5</ele><time>2026-04-25T17:13:14Z</time></trkpt><trkpt lat="43.49329013599932" lon="10.927512663023826"><ele>491.75</ele><time>2026-04-25T17:13:15Z</time></trkpt><trkpt lat="43.493365175828956" lon="10.927399594760018"><ele>494.0</ele><time>2026-04-25T17:13:16Z</time></trkpt><trkpt lat="43.493446200976145" lon="10.927274027686611"><ele>493.4</ele><time>2026-04-25T17:13:17Z</time></trkpt><trkpt lat="43.49352197665153" lon="10.927171141653231"><ele>492.79999999999995</ele><time>2026-04-25T17:13:18Z</time></trkpt><trkpt lat="43.49359349432568" lon="10.927075111542045"><ele>492.20000000000005</ele><time>2026-04-25T17:13:19Z</time></trkpt><trkpt lat="43.49367460148083" lon="10.926968416341493"><ele>491.6</ele><time>2026-04-25T17:13:20Z</time></trkpt><trkpt lat="43.49376522082874" lon="10.926870564147444"><ele>491.0</ele><time>2026-04-25T17:13:21Z</time></trkpt><trkpt lat="43.493868594564624" lon="10.92677390732077"><ele>492.75</ele><time>2026-04-25T17:13:22Z</time></trkpt><trkpt lat="43.49398310194139" lon="10.926685338676988"><ele>494.5</ele><time>2026-04-25T17:13:23Z</time></trkpt><trkpt lat="43.49409152396631" lon="10.926607648715184"><ele>496.25</ele><time>2026-04-25T17:13:24Z</time></trkpt><trkpt lat="43.49419996382186" lon="10.92652507535809"><ele>498.0</ele><time>2026-04-25T17:13:25Z</time></trkpt><trkpt lat="43.49430660087856" lon="10.926442094965289"><ele>498.0</ele><time>2026-04-25T17:13:26Z</time></trkpt><trkpt lat="43.49442887176751" lon="10.926347868392718"><ele>498.0</ele><time>2026-04-25T17:13:27Z</time></trkpt><trkpt lat="43.49454997742258" lon="10.926258350235791"><ele>498.0</ele><time>2026-04-25T17:13:28Z</time></trkpt><trkpt lat="43.49465153291914" lon="10.926189712679411"><ele>498.0</ele><time>2026-04-25T17:13:29Z</time></trkpt><trkpt lat="43.494745717481344" lon="10.926130447518549"><ele>497.59999999999997</ele><time>2026-04-25T17:13:30Z</time></trkpt><trkpt lat="43.494830290614686" lon="10.92608107804193"><ele>497.19999999999993</ele><time>2026-04-25T17:13:31Z</time></trkpt><trkpt lat="43.49492011183375" lon="10.926038557268043"><ele>496.8</ele><time>2026-04-25T17:13:32Z</time></trkpt><trkpt lat="43.49501639742255" lon="10.926029589731469"><ele>496.4</ele><time>2026-04-25T17:13:33Z</time></trkpt><trkpt lat="43.49512343235909" lon="10.926054971597095"><ele>496.0</ele><time>2026-04-25T17:13:34Z</time></trkpt><trkpt lat="43.49522042505812" lon="10.926099719439131"><ele>496.0</ele><time>2026-04-25T17:13:35Z</time></trkpt><trkpt lat="43.49531390992098" lon="10.926128643858528"><ele>496.0</ele><time>2026-04-25T17:13:36Z</time></trkpt><trkpt lat="43.49541719056523" lon="10.926129511469844"><ele>496.0</ele><time>2026-04-25T17:13:37Z</time></trkpt><trkpt lat="43.495530636186636" lon="10.926102047059185"><ele>496.0</ele><time>2026-04-25T17:13:38Z</time></trkpt><trkpt lat="43.495636313076375" lon="10.92605448722269"><ele>496.0</ele><time>2026-04-25T17:13:39Z</time></trkpt><trkpt lat="43.495722683315094" lon="10.926045645597146"><ele>497.8</ele><time>2026-04-25T17:13:40Z</time></trkpt><trkpt lat="43.495814334711" lon="10.926031901055847"><ele>499.6</ele><time>2026-04-25T17:13:41Z</time></trkpt><trkpt lat="43.49589698831515" lon="10.926102133157377"><ele>501.4</ele><time>2026-04-25T17:13:42Z</time></trkpt><trkpt lat="43.495987528517276" lon="10.926156395090029"><ele>503.2</ele><time>2026-04-25T17:13:43Z</time></trkpt><trkpt lat="43.49605236681484" lon="10.926279079420183"><ele>505.0</ele><time>2026-04-25T17:13:44Z</time></trkpt><trkpt lat="43.49612553280918" lon="10.926393703747404"><ele>505.0</ele><time>2026-04-25T17:13:45Z</time></trkpt><trkpt lat="43.49620388725354" lon="10.926519453441948"><ele>505.0</ele><time>2026-04-25T17:13:46Z</time></trkpt><trkpt lat="43.49628384508985" lon="10.926647397852198"><ele>505.0</ele><time>2026-04-25T17:13:47Z</time></trkpt><trkpt lat="43.49637475604122" lon="10.926754752837425"><ele>505.0</ele><time>2026-04-25T17:13:48Z</time></trkpt><trkpt lat="43.4964391827079" lon="10.926870153913507"><ele>506.2</ele><time>2026-04-25T17:13:49Z</time></trkpt><trkpt lat="43.496535418797485" lon="10.926935630353734"><ele>507.4</ele><time>2026-04-25T17:13:50Z</time></trkpt><trkpt lat="43.49663794130577" lon="10.926988116434504"><ele>508.6</ele><time>2026-04-25T17:13:51Z</time></trkpt><trkpt lat="43.49674537894672" lon="10.927023942948296"><ele>509.8</ele><time>2026-04-25T17:13:52Z</time></trkpt><trkpt lat="43.49685738543787" lon="10.927062852454185"><ele>511.0</ele><time>2026-04-25T17:13:53Z</time></trkpt><trkpt lat="43.49698603182972" lon="10.927069050013621"><ele>510.75</ele><time>2026-04-25T17:13:54Z</time></trkpt><trkpt lat="43.497114662195074" lon="10.927106130804308"><ele>510.5</ele><time>2026-04-25T17:13:55Z</time></trkpt><trkpt lat="43.49724589916589" lon="10.92713984157168"><ele>510.25</ele><time>2026-04-25T17:13:56Z</time></trkpt><trkpt lat="43.49738479501488" lon="10.927168026323418"><ele>510.0</ele><time>2026-04-25T17:13:57Z</time></trkpt><trkpt lat="43.497526217832544" lon="10.927196988486214"><ele>510.0</ele><time>2026-04-25T17:13:58Z</time></trkpt><trkpt lat="43.4976681334434" lon="10.927217032293164"><ele>510.0</ele><time>2026-04-25T17:13:59Z</time></trkpt><trkpt lat="43.497803114196046" lon="10.927240253261807"><ele>510.0</ele><time>2026-04-25T17:14:00Z</time></trkpt><trkpt lat="43.497932363737846" lon="10.927262256814231"><ele>510.0</ele><time>2026-04-25T17:14:01Z</time></trkpt><trkpt lat="43.49805673787579" lon="10.927290553904964"><ele>511.0</ele><time>2026-04-25T17:14:02Z</time></trkpt><trkpt lat="43.49816720074213" lon="10.9273276875574"><ele>512.0</ele><time>2026-04-25T17:14:03Z</time></trkpt><trkpt lat="43.49827438356594" lon="10.92736366551396"><ele>513.0</ele><time>2026-04-25T17:14:04Z</time></trkpt><trkpt lat="43.49838017360364" lon="10.927399380873334"><ele>514.0</ele><time>2026-04-25T17:14:05Z</time></trkpt><trkpt lat="43.498497995543765" lon="10.927435318366088"><ele>514.0</ele><time>2026-04-25T17:14:06Z</time></trkpt><trkpt lat="43.49862512923137" lon="10.927479455487283"><ele>514.0</ele><time>2026-04-25T17:14:07Z</time></trkpt><trkpt lat="43.49876126028261" lon="10.927524513154536"><ele>514.0</ele><time>2026-04-25T17:14:08Z</time></trkpt><trkpt lat="43.49890771107466" lon="10.927569805770574"><ele>514.0</ele><time>2026-04-25T17:14:09Z</time></trkpt><trkpt lat="43.499051554150675" lon="10.927631257470503"><ele>512.3333333333334</ele><time>2026-04-25T17:14:10Z</time></trkpt><trkpt lat="43.49919940434721" lon="10.927669765833198"><ele>510.66666666666663</ele><time>2026-04-25T17:14:11Z</time></trkpt><trkpt lat="43.49934950990051" lon="10.92771325009461"><ele>509.0</ele><time>2026-04-25T17:14:12Z</time></trkpt><trkpt lat="43.499495180937004" lon="10.927749307537404"><ele>509.0</ele><time>2026-04-25T17:14:13Z</time></trkpt><trkpt lat="43.49964695156743" lon="10.92777742052081"><ele>509.0</ele><time>2026-04-25T17:14:14Z</time></trkpt><trkpt lat="43.49980460343119" lon="10.927805117252449"><ele>509.0</ele><time>2026-04-25T17:14:15Z</time></trkpt><trkpt lat="43.4999512612209" lon="10.92784033669018"><ele>509.0</ele><time>2026-04-25T17:14:16Z</time></trkpt><trkpt lat="43.5001054801984" lon="10.927881710282236"><ele>509.0</ele><time>2026-04-25T17:14:17Z</time></trkpt><trkpt lat="43.50025741621605" lon="10.927922655886745"><ele>509.0</ele><time>2026-04-25T17:14:18Z</time></trkpt><trkpt lat="43.500411056275325" lon="10.927963308900281"><ele>509.25</ele><time>2026-04-25T17:14:19Z</time></trkpt><trkpt lat="43.50054705019647" lon="10.927997866175085"><ele>509.5</ele><time>2026-04-25T17:14:20Z</time></trkpt><trkpt lat="43.50068778741565" lon="10.928048298884507"><ele>509.75</ele><time>2026-04-25T17:14:21Z</time></trkpt><trkpt lat="43.50081242442604" lon="10.928095748616235"><ele>510.0</ele><time>2026-04-25T17:14:22Z</time></trkpt><trkpt lat="43.50092731693404" lon="10.928141155797197"><ele>510.0</ele><time>2026-04-25T17:14:23Z</time></trkpt><trkpt lat="43.5010492651411" lon="10.92818860441707"><ele>510.0</ele><time>2026-04-25T17:14:24Z</time></trkpt><trkpt lat="43.50117742373318" lon="10.928236348944266"><ele>510.0</ele><time>2026-04-25T17:14:25Z</time></trkpt><trkpt lat="43.501309373552886" lon="10.92828361205521"><ele>510.0</ele><time>2026-04-25T17:14:26Z</time></trkpt><trkpt lat="43.50144595365569" lon="10.928335549101918"><ele>510.0</ele><time>2026-04-25T17:14:27Z</time></trkpt><trkpt lat="43.501584823539424" lon="10.928387003508675"><ele>510.0</ele><time>2026-04-25T17:14:28Z</time></trkpt><trkpt lat="43.50171225961208" lon="10.928451628474207"><ele>510.0</ele><time>2026-04-25T17:14:29Z</time></trkpt><trkpt lat="43.50184825078186" lon="10.928503706683207"><ele>510.0</ele><time>2026-04-25T17:14:30Z</time></trkpt><trkpt lat="43.50201749099905" lon="10.928546622405506"><ele>511.66666666666663</ele><time>2026-04-25T17:14:31Z</time></trkpt><trkpt lat="43.50216051289977" lon="10.928614746413505"><ele>513.3333333333333</ele><time>2026-04-25T17:14:32Z</time></trkpt><trkpt lat="43.502313292083365" lon="10.928681271512449"><ele>515.0</ele><time>2026-04-25T17:14:33Z</time></trkpt><trkpt lat="43.50247053814303" lon="10.928743724120318"><ele>515.0</ele><time>2026-04-25T17:14:34Z</time></trkpt><trkpt lat="43.502634382078305" lon="10.928804405680538"><ele>515.0</ele><time>2026-04-25T17:14:35Z</time></trkpt><trkpt lat="43.50279640147929" lon="10.928862495744651"><ele>515.0</ele><time>2026-04-25T17:14:36Z</time></trkpt><trkpt lat="43.502964060052975" lon="10.92891872803157"><ele>516.3333333333333</ele><time>2026-04-25T17:14:37Z</time></trkpt><trkpt lat="43.50312370319429" lon="10.928984784434743"><ele>517.6666666666666</ele><time>2026-04-25T17:14:38Z</time></trkpt><trkpt lat="43.50327163225106" lon="10.929044298074672"><ele>519.0</ele><time>2026-04-25T17:14:39Z</time></trkpt><trkpt lat="43.50342333802765" lon="10.929101877172647"><ele>519.0</ele><time>2026-04-25T17:14:40Z</time></trkpt><trkpt lat="43.50357714203331" lon="10.929161523597864"><ele>519.0</ele><time>2026-04-25T17:14:41Z</time></trkpt><trkpt lat="43.503731209123444" lon="10.92920727138838"><ele>519.0</ele><time>2026-04-25T17:14:42Z</time></trkpt><trkpt lat="43.50388308920215" lon="10.929254674239173"><ele>519.75</ele><time>2026-04-25T17:14:43Z</time></trkpt><trkpt lat="43.504013421262954" lon="10.929302599377035"><ele>520.5</ele><time>2026-04-25T17:14:44Z</time></trkpt><trkpt lat="43.50413845947371" lon="10.929345236781526"><ele>521.25</ele><time>2026-04-25T17:14:45Z</time></trkpt><trkpt lat="43.50423424899529" lon="10.929385449988606"><ele>522.0</ele><time>2026-04-25T17:14:46Z</time></trkpt><trkpt lat="43.50436394344891" lon="10.929416303024814"><ele>522.0</ele><time>2026-04-25T17:14:47Z</time></trkpt><trkpt lat="43.50450092917787" lon="10.929472972218628"><ele>522.0</ele><time>2026-04-25T17:14:48Z</time></trkpt><trkpt lat="43.50461798948194" lon="10.929504231451416"><ele>522.0</ele><time>2026-04-25T17:14:49Z</time></trkpt><trkpt lat="43.50472539728136" lon="10.92950642758553"><ele>522.0</ele><time>2026-04-25T17:14:50Z</time></trkpt><trkpt lat="43.50484106511146" lon="10.929536514622328"><ele>519.5</ele><time>2026-04-25T17:14:51Z</time></trkpt><trkpt lat="43.504963632682916" lon="10.929555958566928"><ele>517.0</ele><time>2026-04-25T17:14:52Z</time></trkpt><trkpt lat="43.50508633708563" lon="10.929565899604155"><ele>514.5</ele><time>2026-04-25T17:14:53Z</time></trkpt><trkpt lat="43.50520810834641" lon="10.929575888734766"><ele>512.0</ele><time>2026-04-25T17:14:54Z</time></trkpt><trkpt lat="43.50533552289217" lon="10.929584869701916"><ele>509.75</ele><time>2026-04-25T17:14:55Z</time></trkpt><trkpt lat="43.50546674090162" lon="10.929594152497865"><ele>507.5</ele><time>2026-04-25T17:14:56Z</time></trkpt><trkpt lat="43.50559493899413" lon="10.929604119298293"><ele>505.25</ele><time>2026-04-25T17:14:57Z</time></trkpt><trkpt lat="43.505723444019274" lon="10.92961376068835"><ele>503.0</ele><time>2026-04-25T17:14:58Z</time></trkpt><trkpt lat="43.505848245524184" lon="10.929623069933857"><ele>503.0</ele><time>2026-04-25T17:14:59Z</time></trkpt><trkpt lat="43.50596069143097" lon="10.929631451771302"><ele>502.99999999999994</ele><time>2026-04-25T17:15:00Z</time></trkpt><trkpt lat="43.50606546098748" lon="10.929633699779448"><ele>502.99999999999994</ele><time>2026-04-25T17:15:01Z</time></trkpt><trkpt lat="43.50614893038521" lon="10.929630985810407"><ele>503.0</ele><time>2026-04-25T17:15:02Z</time></trkpt><trkpt lat="43.5062335438739" lon="10.929620842663624"><ele>503.0</ele><time>2026-04-25T17:15:03Z</time></trkpt><trkpt lat="43.506308738885124" lon="10.929573051916998"><ele>502.79999999999995</ele><time>2026-04-25T17:15:04Z</time></trkpt><trkpt lat="43.506377118629054" lon="10.929497794822446"><ele>502.59999999999997</ele><time>2026-04-25T17:15:05Z</time></trkpt><trkpt lat="43.50643873815552" lon="10.929392668785487"><ele>502.40000000000003</ele><time>2026-04-25T17:15:06Z</time></trkpt><trkpt lat="43.506488088712395" lon="10.92927149212552"><ele>502.20000000000005</ele><time>2026-04-25T17:15:07Z</time></trkpt><trkpt lat="43.50653494575843" lon="10.929150304506091"><ele>502.0</ele><time>2026-04-25T17:15:08Z</time></trkpt><trkpt lat="43.50659350963528" lon="10.929040251232797"><ele>502.0</ele><time>2026-04-25T17:15:09Z</time></trkpt><trkpt lat="43.506665617219596" lon="10.928954395438193"><ele>502.00000000000006</ele><time>2026-04-25T17:15:10Z</time></trkpt><trkpt lat="43.506752862175794" lon="10.928883608877499"><ele>502.00000000000006</ele><time>2026-04-25T17:15:11Z</time></trkpt><trkpt lat="43.50685549326667" lon="10.928832823003836"><ele>502.0</ele><time>2026-04-25T17:15:12Z</time></trkpt><trkpt lat="43.506966778838525" lon="10.928797587306951"><ele>502.0</ele><time>2026-04-25T17:15:13Z</time></trkpt><trkpt lat="43.5070774055746" lon="10.928766789568822"><ele>500.0</ele><time>2026-04-25T17:15:14Z</time></trkpt><trkpt lat="43.507201953845595" lon="10.928759191957305"><ele>498.0</ele><time>2026-04-25T17:15:15Z</time></trkpt><trkpt lat="43.50732490962477" lon="10.928738914691564"><ele>496.0</ele><time>2026-04-25T17:15:16Z</time></trkpt><trkpt lat="43.50744494785062" lon="10.928720959044098"><ele>494.0</ele><time>2026-04-25T17:15:17Z</time></trkpt><trkpt lat="43.50756926480811" lon="10.928713492219446"><ele>494.0</ele><time>2026-04-25T17:15:18Z</time></trkpt><trkpt lat="43.507698145323516" lon="10.928705236519695"><ele>494.0</ele><time>2026-04-25T17:15:19Z</time></trkpt><trkpt lat="43.50782647501964" lon="10.928688965547122"><ele>494.0</ele><time>2026-04-25T17:15:20Z</time></trkpt><trkpt lat="43.5079562397891" lon="10.928672665005303"><ele>494.0</ele><time>2026-04-25T17:15:21Z</time></trkpt><trkpt lat="43.508087205414164" lon="10.928664498446619"><ele>493.0</ele><time>2026-04-25T17:15:22Z</time></trkpt><trkpt lat="43.50821852862775" lon="10.928660405243608"><ele>492.0</ele><time>2026-04-25T17:15:23Z</time></trkpt><trkpt lat="43.5083586516272" lon="10.92864113006347"><ele>491.0</ele><time>2026-04-25T17:15:24Z</time></trkpt><trkpt lat="43.50849922354748" lon="10.928628589621347"><ele>490.0</ele><time>2026-04-25T17:15:25Z</time></trkpt><trkpt lat="43.50862339932448" lon="10.928613489599774"><ele>488.5</ele><time>2026-04-25T17:15:26Z</time></trkpt><trkpt lat="43.50875081047058" lon="10.928605169985847"><ele>487.0</ele><time>2026-04-25T17:15:27Z</time></trkpt><trkpt lat="43.508879172931735" lon="10.928598345857829"><ele>485.5</ele><time>2026-04-25T17:15:28Z</time></trkpt><trkpt lat="43.50902158544873" lon="10.928591902124893"><ele>484.0</ele><time>2026-04-25T17:15:29Z</time></trkpt><trkpt lat="43.50915459837182" lon="10.928590673554046"><ele>484.0</ele><time>2026-04-25T17:15:30Z</time></trkpt><trkpt lat="43.509292128506374" lon="10.928615666354434"><ele>484.0</ele><time>2026-04-25T17:15:31Z</time></trkpt><trkpt lat="43.50942201454343" lon="10.928644829096136"><ele>484.0</ele><time>2026-04-25T17:15:32Z</time></trkpt><trkpt lat="43.509558158133906" lon="10.928702643388412"><ele>484.0</ele><time>2026-04-25T17:15:33Z</time></trkpt><trkpt lat="43.509681373370995" lon="10.928782650852645"><ele>485.75</ele><time>2026-04-25T17:15:34Z</time></trkpt><trkpt lat="43.50981850808558" lon="10.928847860856717"><ele>487.5</ele><time>2026-04-25T17:15:35Z</time></trkpt><trkpt lat="43.50995477795289" lon="10.928917912566067"><ele>489.25</ele><time>2026-04-25T17:15:36Z</time></trkpt><trkpt lat="43.5100918350891" lon="10.928987260271747"><ele>491.0</ele><time>2026-04-25T17:15:37Z</time></trkpt><trkpt lat="43.510223900788496" lon="10.929057020421771"><ele>491.0</ele><time>2026-04-25T17:15:38Z</time></trkpt><trkpt lat="43.51034149406016" lon="10.929126772803288"><ele>491.0</ele><time>2026-04-25T17:15:39Z</time></trkpt><trkpt lat="43.510462088951826" lon="10.929194099475865"><ele>491.0</ele><time>2026-04-25T17:15:40Z</time></trkpt><trkpt lat="43.510586646912564" lon="10.929281088047082"><ele>491.0</ele><time>2026-04-25T17:15:41Z</time></trkpt><trkpt lat="43.51072510716762" lon="10.92937462889385"><ele>491.5</ele><time>2026-04-25T17:15:42Z</time></trkpt><trkpt lat="43.5108661572461" lon="10.92947304878725"><ele>492.0</ele><time>2026-04-25T17:15:43Z</time></trkpt><trkpt lat="43.51099828689811" lon="10.929564386735224"><ele>492.5</ele><time>2026-04-25T17:15:44Z</time></trkpt><trkpt lat="43.51111475196806" lon="10.929677944900552"><ele>493.0</ele><time>2026-04-25T17:15:45Z</time></trkpt><trkpt lat="43.51124797935668" lon="10.929770197662531"><ele>492.0</ele><time>2026-04-25T17:15:46Z</time></trkpt><trkpt lat="43.511379143834375" lon="10.929854149270387"><ele>491.0</ele><time>2026-04-25T17:15:47Z</time></trkpt><trkpt lat="43.511517056595295" lon="10.929933024163946"><ele>490.0</ele><time>2026-04-25T17:15:48Z</time></trkpt><trkpt lat="43.5116512604139" lon="10.930009512676232"><ele>489.0</ele><time>2026-04-25T17:15:49Z</time></trkpt><trkpt lat="43.51179991350231" lon="10.930064810231139"><ele>489.0</ele><time>2026-04-25T17:15:50Z</time></trkpt><trkpt lat="43.5119583125713" lon="10.930113922848314"><ele>489.0</ele><time>2026-04-25T17:15:51Z</time></trkpt><trkpt lat="43.512107663071255" lon="10.930154589744278"><ele>489.0</ele><time>2026-04-25T17:15:52Z</time></trkpt><trkpt lat="43.512249918262064" lon="10.930191667534743"><ele>487.75</ele><time>2026-04-25T17:15:53Z</time></trkpt><trkpt lat="43.512397760099915" lon="10.930223024314271"><ele>486.5</ele><time>2026-04-25T17:15:54Z</time></trkpt><trkpt lat="43.512541112753645" lon="10.930244430571664"><ele>485.25</ele><time>2026-04-25T17:15:55Z</time></trkpt><trkpt lat="43.512672467669084" lon="10.93026153322106"><ele>484.0</ele><time>2026-04-25T17:15:56Z</time></trkpt><trkpt lat="43.512804142688545" lon="10.930246589227659"><ele>483.5</ele><time>2026-04-25T17:15:57Z</time></trkpt><trkpt lat="43.51292731101439" lon="10.930206450920048"><ele>483.0</ele><time>2026-04-25T17:15:58Z</time></trkpt><trkpt lat="43.5130389218025" lon="10.930145952125722"><ele>482.5</ele><time>2026-04-25T17:15:59Z</time></trkpt><trkpt lat="43.51314448649859" lon="10.930069528118391"><ele>482.0</ele><time>2026-04-25T17:16:00Z</time></trkpt><trkpt lat="43.51323888743634" lon="10.929973258173932"><ele>481.75</ele><time>2026-04-25T17:16:01Z</time></trkpt><trkpt lat="43.51331356500542" lon="10.929855524433137"><ele>481.5</ele><time>2026-04-25T17:16:02Z</time></trkpt><trkpt lat="43.51338214081376" lon="10.92971102650484"><ele>481.25</ele><time>2026-04-25T17:16:03Z</time></trkpt><trkpt lat="43.513447736263934" lon="10.929562201337026"><ele>481.0</ele><time>2026-04-25T17:16:04Z</time></trkpt><trkpt lat="43.51352172188855" lon="10.929390687415035"><ele>481.0</ele><time>2026-04-25T17:16:05Z</time></trkpt><trkpt lat="43.51359463012904" lon="10.929259048903322"><ele>481.0</ele><time>2026-04-25T17:16:06Z</time></trkpt><trkpt lat="43.513676938020495" lon="10.929132723014058"><ele>481.0</ele><time>2026-04-25T17:16:07Z</time></trkpt><trkpt lat="43.513765405584685" lon="10.929021529787333"><ele>481.0</ele><time>2026-04-25T17:16:08Z</time></trkpt><trkpt lat="43.51385534899909" lon="10.928920677107936"><ele>479.75</ele><time>2026-04-25T17:16:09Z</time></trkpt><trkpt lat="43.51394916506294" lon="10.928827396697018"><ele>478.5</ele><time>2026-04-25T17:16:10Z</time></trkpt><trkpt lat="43.51405303689395" lon="10.928749794310981"><ele>477.25</ele><time>2026-04-25T17:16:11Z</time></trkpt><trkpt lat="43.51416154158012" lon="10.928687060607789"><ele>476.0</ele><time>2026-04-25T17:16:12Z</time></trkpt><trkpt lat="43.51427989317966" lon="10.92865449773508"><ele>476.0</ele><time>2026-04-25T17:16:13Z</time></trkpt><trkpt lat="43.51441152583703" lon="10.928638158943874"><ele>476.0</ele><time>2026-04-25T17:16:14Z</time></trkpt><trkpt lat="43.51454907357395" lon="10.928625241496642"><ele>476.0</ele><time>2026-04-25T17:16:15Z</time></trkpt><trkpt lat="43.514677161432196" lon="10.92860323208181"><ele>476.0</ele><time>2026-04-25T17:16:16Z</time></trkpt><trkpt lat="43.514819864291596" lon="10.928562378155156"><ele>473.25</ele><time>2026-04-25T17:16:17Z</time></trkpt><trkpt lat="43.514937520046814" lon="10.928489573660174"><ele>470.5</ele><time>2026-04-25T17:16:18Z</time></trkpt><trkpt lat="43.51505148239454" lon="10.928392949245644"><ele>467.75</ele><time>2026-04-25T17:16:19Z</time></trkpt><trkpt lat="43.51515896271063" lon="10.928289811923513"><ele>465.0</ele><time>2026-04-25T17:16:20Z</time></trkpt><trkpt lat="43.51526788558423" lon="10.928188180376704"><ele>464.5</ele><time>2026-04-25T17:16:21Z</time></trkpt><trkpt lat="43.515378142578726" lon="10.928089762922209"><ele>464.0</ele><time>2026-04-25T17:16:22Z</time></trkpt><trkpt lat="43.515485946184306" lon="10.92799110667369"><ele>463.5</ele><time>2026-04-25T17:16:23Z</time></trkpt><trkpt lat="43.51559069015908" lon="10.927884707073403"><ele>463.0</ele><time>2026-04-25T17:16:24Z</time></trkpt><trkpt lat="43.515681795994006" lon="10.927761615252736"><ele>460.5</ele><time>2026-04-25T17:16:25Z</time></trkpt><trkpt lat="43.51576391486679" lon="10.927622963216535"><ele>458.0</ele><time>2026-04-25T17:16:26Z</time></trkpt><trkpt lat="43.51583775598536" lon="10.927480210793073"><ele>455.5</ele><time>2026-04-25T17:16:27Z</time></trkpt><trkpt lat="43.515910374179356" lon="10.927335133741574"><ele>453.0</ele><time>2026-04-25T17:16:28Z</time></trkpt><trkpt lat="43.51597802466046" lon="10.927199603206295"><ele>453.0</ele><time>2026-04-25T17:16:29Z</time></trkpt><trkpt lat="43.516057334317935" lon="10.927076898103769"><ele>453.0</ele><time>2026-04-25T17:16:30Z</time></trkpt><trkpt lat="43.51615298658597" lon="10.926977629188473"><ele>453.0</ele><time>2026-04-25T17:16:31Z</time></trkpt><trkpt lat="43.51626873094782" lon="10.926916606412433"><ele>453.0</ele><time>2026-04-25T17:16:32Z</time></trkpt><trkpt lat="43.516393636936655" lon="10.926912755324922"><ele>450.0</ele><time>2026-04-25T17:16:33Z</time></trkpt><trkpt lat="43.5165186903617" lon="10.92692609517816"><ele>447.0</ele><time>2026-04-25T17:16:34Z</time></trkpt><trkpt lat="43.51665137500484" lon="10.926931798070521"><ele>444.0</ele><time>2026-04-25T17:16:35Z</time></trkpt><trkpt lat="43.51678648983354" lon="10.926947147811008"><ele>441.0</ele><time>2026-04-25T17:16:36Z</time></trkpt><trkpt lat="43.516916639889395" lon="10.926958716205203"><ele>441.0</ele><time>2026-04-25T17:16:37Z</time></trkpt><trkpt lat="43.51705116887801" lon="10.92697273139574"><ele>441.0</ele><time>2026-04-25T17:16:38Z</time></trkpt><trkpt lat="43.51718520807538" lon="10.926981162151217"><ele>441.0</ele><time>2026-04-25T17:16:39Z</time></trkpt><trkpt lat="43.51731746091109" lon="10.92699048639323"><ele>441.0</ele><time>2026-04-25T17:16:40Z</time></trkpt><trkpt lat="43.517449738116724" lon="10.927000280892248"><ele>440.5</ele><time>2026-04-25T17:16:41Z</time></trkpt><trkpt lat="43.51758513077889" lon="10.927012637676436"><ele>440.0</ele><time>2026-04-25T17:16:42Z</time></trkpt><trkpt lat="43.517728316351636" lon="10.927022922461468"><ele>439.5</ele><time>2026-04-25T17:16:43Z</time></trkpt><trkpt lat="43.51787508413899" lon="10.927030471396636"><ele>439.0</ele><time>2026-04-25T17:16:44Z</time></trkpt><trkpt lat="43.51801033425206" lon="10.927047510297873"><ele>439.0</ele><time>2026-04-25T17:16:45Z</time></trkpt><trkpt lat="43.518148950992114" lon="10.927054955621214"><ele>439.0</ele><time>2026-04-25T17:16:46Z</time></trkpt><trkpt lat="43.51828585782647" lon="10.927063568044266"><ele>439.0</ele><time>2026-04-25T17:16:47Z</time></trkpt><trkpt lat="43.518420052632464" lon="10.92707538902026"><ele>439.0</ele><time>2026-04-25T17:16:48Z</time></trkpt><trkpt lat="43.51855232336351" lon="10.92708675840419"><ele>439.0</ele><time>2026-04-25T17:16:49Z</time></trkpt><trkpt lat="43.51868483792052" lon="10.927096216594197"><ele>439.0</ele><time>2026-04-25T17:16:50Z</time></trkpt><trkpt lat="43.5188151025988" lon="10.927106638416177"><ele>439.0</ele><time>2026-04-25T17:16:51Z</time></trkpt><trkpt lat="43.518943748943904" lon="10.927116241478464"><ele>439.0</ele><time>2026-04-25T17:16:52Z</time></trkpt><trkpt lat="43.51906274150342" lon="10.927126685032519"><ele>439.25</ele><time>2026-04-25T17:16:53Z</time></trkpt><trkpt lat="43.51917655048111" lon="10.927143659529614"><ele>439.5</ele><time>2026-04-25T17:16:54Z</time></trkpt><trkpt lat="43.519298912161105" lon="10.927159815747356"><ele>439.75</ele><time>2026-04-25T17:16:55Z</time></trkpt><trkpt lat="43.51942905342819" lon="10.927181517113327"><ele>440.0</ele><time>2026-04-25T17:16:56Z</time></trkpt><trkpt lat="43.51957018737982" lon="10.927206443103069"><ele>440.0</ele><time>2026-04-25T17:16:57Z</time></trkpt><trkpt lat="43.51971290722654" lon="10.927243036890106"><ele>440.0</ele><time>2026-04-25T17:16:58Z</time></trkpt><trkpt lat="43.519856807560686" lon="10.927281700374019"><ele>440.0</ele><time>2026-04-25T17:16:59Z</time></trkpt><trkpt lat="43.520004299577586" lon="10.92732162465083"><ele>440.0</ele><time>2026-04-25T17:17:00Z</time></trkpt><trkpt lat="43.52014198645283" lon="10.927359794186714"><ele>440.0</ele><time>2026-04-25T17:17:01Z</time></trkpt><trkpt lat="43.52027348789959" lon="10.927399092185869"><ele>440.0</ele><time>2026-04-25T17:17:02Z</time></trkpt><trkpt lat="43.52040102456718" lon="10.927438020056032"><ele>440.0</ele><time>2026-04-25T17:17:03Z</time></trkpt><trkpt lat="43.520532503966685" lon="10.927473082313023"><ele>440.0</ele><time>2026-04-25T17:17:04Z</time></trkpt><trkpt lat="43.52066155505811" lon="10.92751035523615"><ele>439.25</ele><time>2026-04-25T17:17:05Z</time></trkpt><trkpt lat="43.520796598709246" lon="10.927547581205697"><ele>438.5</ele><time>2026-04-25T17:17:06Z</time></trkpt><trkpt lat="43.520935754725215" lon="10.927583093856057"><ele>437.75</ele><time>2026-04-25T17:17:07Z</time></trkpt><trkpt lat="43.52107570620274" lon="10.927621099478513"><ele>437.0</ele><time>2026-04-25T17:17:08Z</time></trkpt><trkpt lat="43.52121480943104" lon="10.927657276796351"><ele>435.25</ele><time>2026-04-25T17:17:09Z</time></trkpt><trkpt lat="43.52134959985134" lon="10.92769644112675"><ele>433.5</ele><time>2026-04-25T17:17:10Z</time></trkpt><trkpt lat="43.521482476596134" lon="10.927731269977532"><ele>431.75</ele><time>2026-04-25T17:17:11Z</time></trkpt><trkpt lat="43.521619743550254" lon="10.927754928994965"><ele>430.0</ele><time>2026-04-25T17:17:12Z</time></trkpt><trkpt lat="43.52176024850158" lon="10.927793664823534"><ele>430.0</ele><time>2026-04-25T17:17:13Z</time></trkpt><trkpt lat="43.521895842847876" lon="10.92783305531812"><ele>430.0</ele><time>2026-04-25T17:17:14Z</time></trkpt><trkpt lat="43.52203196714282" lon="10.927878461151288"><ele>430.0</ele><time>2026-04-25T17:17:15Z</time></trkpt><trkpt lat="43.52217099812642" lon="10.927934592050685"><ele>430.0</ele><time>2026-04-25T17:17:16Z</time></trkpt><trkpt lat="43.522308238255945" lon="10.928004431020653"><ele>430.5</ele><time>2026-04-25T17:17:17Z</time></trkpt><trkpt lat="43.522437768315754" lon="10.928078642074949"><ele>431.0</ele><time>2026-04-25T17:17:18Z</time></trkpt><trkpt lat="43.52257116132902" lon="10.928149495631091"><ele>431.5</ele><time>2026-04-25T17:17:19Z</time></trkpt><trkpt lat="43.52270626206622" lon="10.928225443006278"><ele>432.0</ele><time>2026-04-25T17:17:20Z</time></trkpt><trkpt lat="43.52283933401696" lon="10.928300128550354"><ele>432.75</ele><time>2026-04-25T17:17:21Z</time></trkpt><trkpt lat="43.52297462479122" lon="10.928374594037713"><ele>433.5</ele><time>2026-04-25T17:17:22Z</time></trkpt><trkpt lat="43.523108448770266" lon="10.928448776090983"><ele>434.25</ele><time>2026-04-25T17:17:23Z</time></trkpt><trkpt lat="43.523234658859984" lon="10.928513885558473"><ele>435.0</ele><time>2026-04-25T17:17:24Z</time></trkpt><trkpt lat="43.5233694310636" lon="10.92856670128413"><ele>432.0</ele><time>2026-04-25T17:17:25Z</time></trkpt><trkpt lat="43.52350949696054" lon="10.928607707433208"><ele>429.0</ele><time>2026-04-25T17:17:26Z</time></trkpt><trkpt lat="43.523653854274855" lon="10.928640834103247"><ele>426.0</ele><time>2026-04-25T17:17:27Z</time></trkpt><trkpt lat="43.52378865157419" lon="10.928675479099644"><ele>423.0</ele><time>2026-04-25T17:17:28Z</time></trkpt><trkpt lat="43.52392642252286" lon="10.928706239159926"><ele>422.5</ele><time>2026-04-25T17:17:29Z</time></trkpt><trkpt lat="43.524068059279486" lon="10.928733440233003"><ele>422.0</ele><time>2026-04-25T17:17:30Z</time></trkpt><trkpt lat="43.52420568502722" lon="10.928759543736442"><ele>421.5</ele><time>2026-04-25T17:17:31Z</time></trkpt><trkpt lat="43.5243452730209" lon="10.928806522534298"><ele>421.0</ele><time>2026-04-25T17:17:32Z</time></trkpt><trkpt lat="43.52448361330005" lon="10.928830875023813"><ele>420.75</ele><time>2026-04-25T17:17:33Z</time></trkpt><trkpt lat="43.52462197969138" lon="10.928861810437457"><ele>420.5</ele><time>2026-04-25T17:17:34Z</time></trkpt><trkpt lat="43.524767032611116" lon="10.928885029596136"><ele>420.25</ele><time>2026-04-25T17:17:35Z</time></trkpt><trkpt lat="43.52491724991318" lon="10.928899945627018"><ele>420.0</ele><time>2026-04-25T17:17:36Z</time></trkpt><trkpt lat="43.52505513260333" lon="10.928901304382293"><ele>420.0</ele><time>2026-04-25T17:17:37Z</time></trkpt><trkpt lat="43.5252005089598" lon="10.928892378879091"><ele>420.0</ele><time>2026-04-25T17:17:38Z</time></trkpt><trkpt lat="43.525346544493544" lon="10.928874732434846"><ele>420.0</ele><time>2026-04-25T17:17:39Z</time></trkpt><trkpt lat="43.52549140853631" lon="10.928854635652497"><ele>420.0</ele><time>2026-04-25T17:17:40Z</time></trkpt><trkpt lat="43.52563415775292" lon="10.928831087338652"><ele>421.5</ele><time>2026-04-25T17:17:41Z</time></trkpt><trkpt lat="43.52577399589114" lon="10.928807906346208"><ele>423.0</ele><time>2026-04-25T17:17:42Z</time></trkpt><trkpt lat="43.52592348316072" lon="10.928788950695573"><ele>424.5</ele><time>2026-04-25T17:17:43Z</time></trkpt><trkpt lat="43.526065249216835" lon="10.928768002422402"><ele>426.0</ele><time>2026-04-25T17:17:44Z</time></trkpt><trkpt lat="43.52620534449195" lon="10.928748950313576"><ele>426.5</ele><time>2026-04-25T17:17:45Z</time></trkpt><trkpt lat="43.52635141943459" lon="10.92872670659245"><ele>427.0</ele><time>2026-04-25T17:17:46Z</time></trkpt><trkpt lat="43.52649731726603" lon="10.928699996103354"><ele>427.5</ele><time>2026-04-25T17:17:47Z</time></trkpt><trkpt lat="43.526631061444924" lon="10.928675606440246"><ele>428.0</ele><time>2026-04-25T17:17:48Z</time></trkpt><trkpt lat="43.52676790902631" lon="10.928654162659324"><ele>428.0</ele><time>2026-04-25T17:17:49Z</time></trkpt><trkpt lat="43.526906965913874" lon="10.928637254253529"><ele>428.0</ele><time>2026-04-25T17:17:50Z</time></trkpt><trkpt lat="43.52704295307731" lon="10.928622591330711"><ele>428.0</ele><time>2026-04-25T17:17:51Z</time></trkpt><trkpt lat="43.527175827931345" lon="10.928606623913785"><ele>428.0</ele><time>2026-04-25T17:17:52Z</time></trkpt><trkpt lat="43.52731482009277" lon="10.928589974673741"><ele>428.25</ele><time>2026-04-25T17:17:53Z</time></trkpt><trkpt lat="43.52745460318409" lon="10.928577711229309"><ele>428.5</ele><time>2026-04-25T17:17:54Z</time></trkpt><trkpt lat="43.527591014197355" lon="10.928567974659712"><ele>428.75</ele><time>2026-04-25T17:17:55Z</time></trkpt><trkpt lat="43.527725328667934" lon="10.928560064375382"><ele>429.0</ele><time>2026-04-25T17:17:56Z</time></trkpt><trkpt lat="43.527859777946425" lon="10.928558382092755"><ele>429.25</ele><time>2026-04-25T17:17:57Z</time></trkpt><trkpt lat="43.52800142561537" lon="10.928551449791017"><ele>429.5</ele><time>2026-04-25T17:17:58Z</time></trkpt><trkpt lat="43.52813641852432" lon="10.928552111231348"><ele>429.75</ele><time>2026-04-25T17:17:59Z</time></trkpt><trkpt lat="43.52827445676245" lon="10.928554823950497"><ele>430.0</ele><time>2026-04-25T17:18:00Z</time></trkpt><trkpt lat="43.52840435558445" lon="10.928556427704404"><ele>430.0</ele><time>2026-04-25T17:18:01Z</time></trkpt><trkpt lat="43.52853916279676" lon="10.928556292727135"><ele>430.0</ele><time>2026-04-25T17:18:02Z</time></trkpt><trkpt lat="43.52867186839455" lon="10.92858610227465"><ele>430.0</ele><time>2026-04-25T17:18:03Z</time></trkpt><trkpt lat="43.528804749554766" lon="10.928635262989534"><ele>430.0</ele><time>2026-04-25T17:18:04Z</time></trkpt><trkpt lat="43.52892954124261" lon="10.928707157207796"><ele>430.75</ele><time>2026-04-25T17:18:05Z</time></trkpt><trkpt lat="43.52905018275739" lon="10.928781744577675"><ele>431.5</ele><time>2026-04-25T17:18:06Z</time></trkpt><trkpt lat="43.52915222479115" lon="10.928852200381856"><ele>432.25</ele><time>2026-04-25T17:18:07Z</time></trkpt><trkpt lat="43.52924816961606" lon="10.928932055874347"><ele>433.0</ele><time>2026-04-25T17:18:08Z</time></trkpt><trkpt lat="43.52933545578684" lon="10.929002978776339"><ele>433.00000000000006</ele><time>2026-04-25T17:18:09Z</time></trkpt><trkpt lat="43.52941458365324" lon="10.929064725271502"><ele>433.0</ele><time>2026-04-25T17:18:10Z</time></trkpt><trkpt lat="43.52948441180185" lon="10.929119840912026"><ele>433.0</ele><time>2026-04-25T17:18:11Z</time></trkpt><trkpt lat="43.52954702185035" lon="10.929165758389997"><ele>433.0</ele><time>2026-04-25T17:18:12Z</time></trkpt><trkpt lat="43.52963049713548" lon="10.929233034030824"><ele>433.00000000000006</ele><time>2026-04-25T17:18:14Z</time></trkpt><trkpt lat="43.52969466611269" lon="10.929276488790762"><ele>433.0</ele><time>2026-04-25T17:18:16Z</time></trkpt><trkpt lat="43.52978547672209" lon="10.929222766689513"><ele>433.83333333333337</ele><time>2026-04-25T17:18:18Z</time></trkpt><trkpt lat="43.52986610508538" lon="10.929101551193629"><ele>434.6666666666667</ele><time>2026-04-25T17:18:20Z</time></trkpt><trkpt lat="43.529926185425836" lon="10.929059760683733"><ele>435.5</ele><time>2026-04-25T17:18:21Z</time></trkpt><trkpt lat="43.52998553559946" lon="10.929030399506424"><ele>436.33333333333337</ele><time>2026-04-25T17:18:22Z</time></trkpt><trkpt lat="43.53007190426053" lon="10.929002349966183"><ele>437.1666666666667</ele><time>2026-04-25T17:18:24Z</time></trkpt><trkpt lat="43.530147065986" lon="10.928949025721728"><ele>438.0</ele><time>2026-04-25T17:18:27Z</time></trkpt><trkpt lat="43.53022220814322" lon="10.928806406210617"><ele>438.0</ele><time>2026-04-25T17:18:58Z</time></trkpt><trkpt lat="43.53026502709866" lon="10.928726689392713"><ele>438.0</ele><time>2026-04-25T17:18:59Z</time></trkpt><trkpt lat="43.5303071927743" lon="10.928619742672899"><ele>438.0</ele><time>2026-04-25T17:19:00Z</time></trkpt><trkpt lat="43.53035306526469" lon="10.928509986130154"><ele>438.0</ele><time>2026-04-25T17:19:01Z</time></trkpt><trkpt lat="43.53039580139479" lon="10.928396229227019"><ele>438.0</ele><time>2026-04-25T17:19:02Z</time></trkpt><trkpt lat="43.53043796140658" lon="10.92827185646478"><ele>438.0</ele><time>2026-04-25T17:19:03Z</time></trkpt><trkpt lat="43.530486132435584" lon="10.928141179766248"><ele>439.25</ele><time>2026-04-25T17:19:04Z</time></trkpt><trkpt lat="43.53053426545547" lon="10.92800736031374"><ele>440.5</ele><time>2026-04-25T17:19:05Z</time></trkpt><trkpt lat="43.53058601727094" lon="10.927867027453841"><ele>441.75</ele><time>2026-04-25T17:19:06Z</time></trkpt><trkpt lat="43.530637442988834" lon="10.927722976055524"><ele>443.0</ele><time>2026-04-25T17:19:07Z</time></trkpt><trkpt lat="43.53068663360634" lon="10.927577830483067"><ele>444.0</ele><time>2026-04-25T17:19:08Z</time></trkpt><trkpt lat="43.5307278030656" lon="10.927422767718685"><ele>445.0</ele><time>2026-04-25T17:19:09Z</time></trkpt><trkpt lat="43.530747770548416" lon="10.92725133245816"><ele>446.0</ele><time>2026-04-25T17:19:10Z</time></trkpt><trkpt lat="43.53075924362605" lon="10.927078703479786"><ele>447.0</ele><time>2026-04-25T17:19:11Z</time></trkpt><trkpt lat="43.53076020829158" lon="10.926902350112947"><ele>448.5</ele><time>2026-04-25T17:19:12Z</time></trkpt><trkpt lat="43.53075953584168" lon="10.926721851202128"><ele>450.0</ele><time>2026-04-25T17:19:13Z</time></trkpt><trkpt lat="43.53076072785968" lon="10.926539120303337"><ele>451.5</ele><time>2026-04-25T17:19:14Z</time></trkpt><trkpt lat="43.530762126475054" lon="10.92636263781983"><ele>453.0</ele><time>2026-04-25T17:19:15Z</time></trkpt><trkpt lat="43.53076333390091" lon="10.926194906667233"><ele>453.0</ele><time>2026-04-25T17:19:16Z</time></trkpt><trkpt lat="43.530770191639796" lon="10.926048527663555"><ele>452.99999999999994</ele><time>2026-04-25T17:19:17Z</time></trkpt><trkpt lat="43.53078932906282" lon="10.925903680780005"><ele>452.99999999999994</ele><time>2026-04-25T17:19:18Z</time></trkpt><trkpt lat="43.53081521508547" lon="10.925752469294567"><ele>453.0</ele><time>2026-04-25T17:19:19Z</time></trkpt><trkpt lat="43.53084126528708" lon="10.925608823139337"><ele>453.0</ele><time>2026-04-25T17:19:20Z</time></trkpt><trkpt lat="43.53085894970903" lon="10.925479436199454"><ele>453.2</ele><time>2026-04-25T17:19:21Z</time></trkpt><trkpt lat="43.53086745940784" lon="10.925349765022306"><ele>453.4</ele><time>2026-04-25T17:19:22Z</time></trkpt><trkpt lat="43.530866010074476" lon="10.925230098569546"><ele>453.59999999999997</ele><time>2026-04-25T17:19:23Z</time></trkpt><trkpt lat="43.530843557524975" lon="10.925100096245961"><ele>453.79999999999995</ele><time>2026-04-25T17:19:24Z</time></trkpt><trkpt lat="43.530813114895906" lon="10.924975384657664"><ele>454.0</ele><time>2026-04-25T17:19:25Z</time></trkpt><trkpt lat="43.530798699742626" lon="10.924863371722298"><ele>454.0</ele><time>2026-04-25T17:19:26Z</time></trkpt><trkpt lat="43.53079646236587" lon="10.924760646945359"><ele>454.0</ele><time>2026-04-25T17:19:27Z</time></trkpt><trkpt lat="43.53082799934331" lon="10.92464724260629"><ele>454.0</ele><time>2026-04-25T17:19:28Z</time></trkpt><trkpt lat="43.53088605135774" lon="10.924535599633929"><ele>454.0</ele><time>2026-04-25T17:19:29Z</time></trkpt><trkpt lat="43.530969696576754" lon="10.924458846598084"><ele>454.0</ele><time>2026-04-25T17:19:30Z</time></trkpt><trkpt lat="43.53106451160764" lon="10.924396887714678"><ele>454.0</ele><time>2026-04-25T17:19:31Z</time></trkpt><trkpt lat="43.53115401914041" lon="10.924335169910918"><ele>454.0</ele><time>2026-04-25T17:19:32Z</time></trkpt><trkpt lat="43.531242885752334" lon="10.924288643489005"><ele>454.0</ele><time>2026-04-25T17:19:33Z</time></trkpt><trkpt lat="43.53133642230034" lon="10.924267328010005"><ele>454.0</ele><time>2026-04-25T17:19:34Z</time></trkpt><trkpt lat="43.53142867861054" lon="10.924287238156007"><ele>454.0</ele><time>2026-04-25T17:19:35Z</time></trkpt><trkpt lat="43.531517026286984" lon="10.924326991449904"><ele>452.83333333333337</ele><time>2026-04-25T17:19:36Z</time></trkpt><trkpt lat="43.53160117739508" lon="10.924368856297574"><ele>451.6666666666667</ele><time>2026-04-25T17:19:37Z</time></trkpt><trkpt lat="43.53168186299584" lon="10.924392726526811"><ele>450.5</ele><time>2026-04-25T17:19:38Z</time></trkpt><trkpt lat="43.5317646337234" lon="10.924393733113378"><ele>449.33333333333337</ele><time>2026-04-25T17:19:39Z</time></trkpt><trkpt lat="43.531843670691735" lon="10.92436680216957"><ele>448.1666666666667</ele><time>2026-04-25T17:19:40Z</time></trkpt><trkpt lat="43.53193289895006" lon="10.924299797200383"><ele>447.0</ele><time>2026-04-25T17:19:41Z</time></trkpt><trkpt lat="43.53201806989555" lon="10.924202326468167"><ele>445.20000000000005</ele><time>2026-04-25T17:19:42Z</time></trkpt><trkpt lat="43.53209234376572" lon="10.92409733927367"><ele>443.40000000000003</ele><time>2026-04-25T17:19:43Z</time></trkpt><trkpt lat="43.53217478449558" lon="10.924009266773876"><ele>441.59999999999997</ele><time>2026-04-25T17:19:44Z</time></trkpt><trkpt lat="43.532267561699264" lon="10.923967075120206"><ele>439.79999999999995</ele><time>2026-04-25T17:19:45Z</time></trkpt><trkpt lat="43.532366546950044" lon="10.923953712026622"><ele>438.0</ele><time>2026-04-25T17:19:46Z</time></trkpt><trkpt lat="43.532467341619686" lon="10.923964564020695"><ele>438.0</ele><time>2026-04-25T17:19:47Z</time></trkpt><trkpt lat="43.53257252069667" lon="10.923992773262345"><ele>437.99999999999994</ele><time>2026-04-25T17:19:48Z</time></trkpt><trkpt lat="43.53267911932572" lon="10.924039685779128"><ele>437.99999999999994</ele><time>2026-04-25T17:19:49Z</time></trkpt><trkpt lat="43.53278189113718" lon="10.924077815776938"><ele>438.0</ele><time>2026-04-25T17:19:50Z</time></trkpt><trkpt lat="43.53287673241427" lon="10.924103823828762"><ele>438.0</ele><time>2026-04-25T17:19:51Z</time></trkpt><trkpt lat="43.532981073420366" lon="10.924117625605193"><ele>435.75</ele><time>2026-04-25T17:19:52Z</time></trkpt><trkpt lat="43.5330985932393" lon="10.924117614036215"><ele>433.5</ele><time>2026-04-25T17:19:53Z</time></trkpt><trkpt lat="43.533226031028065" lon="10.924113628068117"><ele>431.25</ele><time>2026-04-25T17:19:54Z</time></trkpt><trkpt lat="43.53336165049869" lon="10.924110958269493"><ele>429.0</ele><time>2026-04-25T17:19:55Z</time></trkpt><trkpt lat="43.5335018912661" lon="10.924095970021538"><ele>429.0</ele><time>2026-04-25T17:19:56Z</time></trkpt><trkpt lat="43.53363441986513" lon="10.924083271347223"><ele>429.0</ele><time>2026-04-25T17:19:57Z</time></trkpt><trkpt lat="43.53376874198596" lon="10.924068874660165"><ele>429.0</ele><time>2026-04-25T17:19:58Z</time></trkpt><trkpt lat="43.53390318241977" lon="10.924052711954614"><ele>429.0</ele><time>2026-04-25T17:19:59Z</time></trkpt><trkpt lat="43.534043169115385" lon="10.924042285050852"><ele>426.75</ele><time>2026-04-25T17:20:00Z</time></trkpt><trkpt lat="43.53418587589953" lon="10.924024477604233"><ele>424.5</ele><time>2026-04-25T17:20:01Z</time></trkpt><trkpt lat="43.53431688930439" lon="10.924012002964238"><ele>422.25</ele><time>2026-04-25T17:20:02Z</time></trkpt><trkpt lat="43.5344499051814" lon="10.923997721621868"><ele>420.0</ele><time>2026-04-25T17:20:03Z</time></trkpt><trkpt lat="43.534588901851656" lon="10.923980395354125"><ele>418.25</ele><time>2026-04-25T17:20:04Z</time></trkpt><trkpt lat="43.534725858426576" lon="10.92396071522208"><ele>416.5</ele><time>2026-04-25T17:20:05Z</time></trkpt><trkpt lat="43.53485293034132" lon="10.923950925328002"><ele>414.75</ele><time>2026-04-25T17:20:06Z</time></trkpt><trkpt lat="43.53498094367682" lon="10.923937681981405"><ele>413.0</ele><time>2026-04-25T17:20:07Z</time></trkpt><trkpt lat="43.53511181265498" lon="10.923925578441315"><ele>413.0</ele><time>2026-04-25T17:20:08Z</time></trkpt><trkpt lat="43.53523656678999" lon="10.923912665037653"><ele>413.0</ele><time>2026-04-25T17:20:09Z</time></trkpt><trkpt lat="43.53536372454454" lon="10.92390037837402"><ele>413.0</ele><time>2026-04-25T17:20:10Z</time></trkpt><trkpt lat="43.535497379460644" lon="10.923889738895042"><ele>413.0</ele><time>2026-04-25T17:20:11Z</time></trkpt><trkpt lat="43.53563188454216" lon="10.923877290997334"><ele>411.5</ele><time>2026-04-25T17:20:12Z</time></trkpt><trkpt lat="43.535761787636275" lon="10.923866895045602"><ele>410.0</ele><time>2026-04-25T17:20:13Z</time></trkpt><trkpt lat="43.535881969700064" lon="10.923862929289244"><ele>408.5</ele><time>2026-04-25T17:20:14Z</time></trkpt><trkpt lat="43.53601266935437" lon="10.923873013801375"><ele>407.0</ele><time>2026-04-25T17:20:15Z</time></trkpt><trkpt lat="43.536132873269196" lon="10.923901645718388"><ele>404.75</ele><time>2026-04-25T17:20:16Z</time></trkpt><trkpt lat="43.53626056981668" lon="10.923946366627915"><ele>402.5</ele><time>2026-04-25T17:20:17Z</time></trkpt><trkpt lat="43.536386215316405" lon="10.92399636668169"><ele>400.25</ele><time>2026-04-25T17:20:18Z</time></trkpt><trkpt lat="43.53651849042707" lon="10.924056657056639"><ele>398.0</ele><time>2026-04-25T17:20:19Z</time></trkpt><trkpt lat="43.536635104505784" lon="10.924130808200255"><ele>398.0</ele><time>2026-04-25T17:20:20Z</time></trkpt><trkpt lat="43.53675111730474" lon="10.924216820950365"><ele>398.0</ele><time>2026-04-25T17:20:21Z</time></trkpt><trkpt lat="43.53686905701612" lon="10.924310511542647"><ele>398.0</ele><time>2026-04-25T17:20:22Z</time></trkpt><trkpt lat="43.536982639132916" lon="10.924407325801182"><ele>398.0</ele><time>2026-04-25T17:20:23Z</time></trkpt><trkpt lat="43.537095836705696" lon="10.92449973119683"><ele>396.25</ele><time>2026-04-25T17:20:24Z</time></trkpt><trkpt lat="43.5372108348894" lon="10.92459579657613"><ele>394.5</ele><time>2026-04-25T17:20:25Z</time></trkpt><trkpt lat="43.537323729423605" lon="10.92469397899974"><ele>392.75</ele><time>2026-04-25T17:20:26Z</time></trkpt><trkpt lat="43.537439465879224" lon="10.924797716163155"><ele>391.0</ele><time>2026-04-25T17:20:27Z</time></trkpt><trkpt lat="43.53755598885518" lon="10.924901192778462"><ele>391.0</ele><time>2026-04-25T17:20:28Z</time></trkpt><trkpt lat="43.537670973454745" lon="10.92499816754207"><ele>391.0</ele><time>2026-04-25T17:20:29Z</time></trkpt><trkpt lat="43.537783113444995" lon="10.925093167252466"><ele>391.0</ele><time>2026-04-25T17:20:30Z</time></trkpt><trkpt lat="43.53789633994746" lon="10.925190684757206"><ele>391.0</ele><time>2026-04-25T17:20:31Z</time></trkpt><trkpt lat="43.538010640406355" lon="10.925288329233238"><ele>388.75</ele><time>2026-04-25T17:20:32Z</time></trkpt><trkpt lat="43.53812416499814" lon="10.925388293936656"><ele>386.5</ele><time>2026-04-25T17:20:33Z</time></trkpt><trkpt lat="43.53824148791509" lon="10.925486044093384"><ele>384.25</ele><time>2026-04-25T17:20:34Z</time></trkpt><trkpt lat="43.53835519467685" lon="10.92558318087139"><ele>382.0</ele><time>2026-04-25T17:20:35Z</time></trkpt><trkpt lat="43.538470241599" lon="10.925674753703179"><ele>382.0</ele><time>2026-04-25T17:20:36Z</time></trkpt><trkpt lat="43.53858982264279" lon="10.925760514449621"><ele>382.0</ele><time>2026-04-25T17:20:37Z</time></trkpt><trkpt lat="43.53870869066002" lon="10.925849717062873"><ele>382.0</ele><time>2026-04-25T17:20:38Z</time></trkpt><trkpt lat="43.53883706287803" lon="10.92591898822176"><ele>382.0</ele><time>2026-04-25T17:20:39Z</time></trkpt><trkpt lat="43.538962210198775" lon="10.925991969215785"><ele>381.0</ele><time>2026-04-25T17:20:40Z</time></trkpt><trkpt lat="43.53908861821005" lon="10.9260682698185"><ele>380.0</ele><time>2026-04-25T17:20:41Z</time></trkpt><trkpt lat="43.539214540748546" lon="10.926155983696896"><ele>379.0</ele><time>2026-04-25T17:20:42Z</time></trkpt><trkpt lat="43.539341638177646" lon="10.92624344948438"><ele>378.0</ele><time>2026-04-25T17:20:43Z</time></trkpt><trkpt lat="43.539454047587874" lon="10.926350093089834"><ele>374.75</ele><time>2026-04-25T17:20:44Z</time></trkpt><trkpt lat="43.539582002693784" lon="10.926439970367671"><ele>371.5</ele><time>2026-04-25T17:20:45Z</time></trkpt><trkpt lat="43.53971220779554" lon="10.926529171289381"><ele>368.25</ele><time>2026-04-25T17:20:46Z</time></trkpt><trkpt lat="43.53983762043539" lon="10.926620200872676"><ele>365.0</ele><time>2026-04-25T17:20:47Z</time></trkpt><trkpt lat="43.539961781113604" lon="10.926706727926016"><ele>364.75</ele><time>2026-04-25T17:20:48Z</time></trkpt><trkpt lat="43.5400748086064" lon="10.926788820523997"><ele>364.5</ele><time>2026-04-25T17:20:49Z</time></trkpt><trkpt lat="43.54018168438802" lon="10.926869062611363"><ele>364.25</ele><time>2026-04-25T17:20:50Z</time></trkpt><trkpt lat="43.54029282223403" lon="10.926942015791981"><ele>364.0</ele><time>2026-04-25T17:20:51Z</time></trkpt><trkpt lat="43.54039120536953" lon="10.927013370723033"><ele>362.6</ele><time>2026-04-25T17:20:52Z</time></trkpt><trkpt lat="43.540450090332584" lon="10.927109844247925"><ele>361.2</ele><time>2026-04-25T17:20:53Z</time></trkpt><trkpt lat="43.540531201371294" lon="10.927170969487321"><ele>359.8</ele><time>2026-04-25T17:20:54Z</time></trkpt><trkpt lat="43.54062035265696" lon="10.927226278926296"><ele>358.40000000000003</ele><time>2026-04-25T17:20:55Z</time></trkpt><trkpt lat="43.5407272426614" lon="10.927262302242307"><ele>357.0</ele><time>2026-04-25T17:20:56Z</time></trkpt><trkpt lat="43.540847163677604" lon="10.927283524613733"><ele>357.0</ele><time>2026-04-25T17:20:57Z</time></trkpt><trkpt lat="43.54097482199738" lon="10.927283941773"><ele>357.0</ele><time>2026-04-25T17:20:58Z</time></trkpt><trkpt lat="43.54109262689028" lon="10.927286612903039"><ele>357.0</ele><time>2026-04-25T17:20:59Z</time></trkpt><trkpt lat="43.54122140905145" lon="10.927288566015555"><ele>357.0</ele><time>2026-04-25T17:21:00Z</time></trkpt><trkpt lat="43.54135392514668" lon="10.92729334551546"><ele>355.0</ele><time>2026-04-25T17:21:01Z</time></trkpt><trkpt lat="43.54149329509944" lon="10.927298984132582"><ele>353.0</ele><time>2026-04-25T17:21:02Z</time></trkpt><trkpt lat="43.54163162209767" lon="10.927303620229125"><ele>351.0</ele><time>2026-04-25T17:21:03Z</time></trkpt><trkpt lat="43.541774455128625" lon="10.927309998308841"><ele>349.0</ele><time>2026-04-25T17:21:04Z</time></trkpt><trkpt lat="43.541913145376704" lon="10.927312931367407"><ele>347.25</ele><time>2026-04-25T17:21:05Z</time></trkpt><trkpt lat="43.54205094053854" lon="10.927311024458147"><ele>345.5</ele><time>2026-04-25T17:21:06Z</time></trkpt><trkpt lat="43.542178990565866" lon="10.927308497942189"><ele>343.75</ele><time>2026-04-25T17:21:07Z</time></trkpt><trkpt lat="43.542310623624786" lon="10.927317820722003"><ele>342.0</ele><time>2026-04-25T17:21:08Z</time></trkpt><trkpt lat="43.54244427566864" lon="10.927324292606324"><ele>342.0</ele><time>2026-04-25T17:21:09Z</time></trkpt><trkpt lat="43.54255601619242" lon="10.92735433013484"><ele>342.0</ele><time>2026-04-25T17:21:10Z</time></trkpt><trkpt lat="43.542662807823305" lon="10.927397892257094"><ele>342.0</ele><time>2026-04-25T17:21:11Z</time></trkpt><trkpt lat="43.54278251292681" lon="10.927459281367415"><ele>342.0</ele><time>2026-04-25T17:21:12Z</time></trkpt><trkpt lat="43.54290250329957" lon="10.927541596446927"><ele>340.25</ele><time>2026-04-25T17:21:13Z</time></trkpt><trkpt lat="43.54302565430968" lon="10.927613697453832"><ele>338.5</ele><time>2026-04-25T17:21:14Z</time></trkpt><trkpt lat="43.543142114531946" lon="10.927691927555136"><ele>336.75</ele><time>2026-04-25T17:21:15Z</time></trkpt><trkpt lat="43.543256908753115" lon="10.927765488931723"><ele>335.0</ele><time>2026-04-25T17:21:16Z</time></trkpt><trkpt lat="43.54337368193635" lon="10.927837096942454"><ele>335.0</ele><time>2026-04-25T17:21:17Z</time></trkpt><trkpt lat="43.543495564080835" lon="10.927908372219523"><ele>335.0</ele><time>2026-04-25T17:21:18Z</time></trkpt><trkpt lat="43.54362030633481" lon="10.927987045958274"><ele>335.0</ele><time>2026-04-25T17:21:19Z</time></trkpt><trkpt lat="43.54374212449417" lon="10.928066258743355"><ele>335.0</ele><time>2026-04-25T17:21:20Z</time></trkpt><trkpt lat="43.54386322172996" lon="10.928147508676505"><ele>333.5</ele><time>2026-04-25T17:21:21Z</time></trkpt><trkpt lat="43.54398498440221" lon="10.928222273688164"><ele>332.0</ele><time>2026-04-25T17:21:22Z</time></trkpt><trkpt lat="43.544107752671344" lon="10.928296523091417"><ele>330.5</ele><time>2026-04-25T17:21:23Z</time></trkpt><trkpt lat="43.54423680156111" lon="10.928368261072137"><ele>329.0</ele><time>2026-04-25T17:21:24Z</time></trkpt><trkpt lat="43.54436049921169" lon="10.928440900370846"><ele>326.75</ele><time>2026-04-25T17:21:25Z</time></trkpt><trkpt lat="43.54448687576908" lon="10.928515881835068"><ele>324.5</ele><time>2026-04-25T17:21:26Z</time></trkpt><trkpt lat="43.54461648764427" lon="10.928568088390847"><ele>322.25</ele><time>2026-04-25T17:21:27Z</time></trkpt><trkpt lat="43.54474399510008" lon="10.928618458659217"><ele>320.0</ele><time>2026-04-25T17:21:28Z</time></trkpt><trkpt lat="43.54486600416678" lon="10.928666087689336"><ele>318.5</ele><time>2026-04-25T17:21:29Z</time></trkpt><trkpt lat="43.5449896518524" lon="10.92870594859534"><ele>317.0</ele><time>2026-04-25T17:21:30Z</time></trkpt><trkpt lat="43.545114797361244" lon="10.928743681082747"><ele>315.5</ele><time>2026-04-25T17:21:31Z</time></trkpt><trkpt lat="43.5452402198411" lon="10.928767788036332"><ele>314.0</ele><time>2026-04-25T17:21:32Z</time></trkpt><trkpt lat="43.545361992266834" lon="10.928786539136082"><ele>313.0</ele><time>2026-04-25T17:21:33Z</time></trkpt><trkpt lat="43.54549168351113" lon="10.928793709118962"><ele>312.0</ele><time>2026-04-25T17:21:34Z</time></trkpt><trkpt lat="43.545611711196315" lon="10.928796891146025"><ele>311.0</ele><time>2026-04-25T17:21:35Z</time></trkpt><trkpt lat="43.54573299940427" lon="10.92880114487946"><ele>310.0</ele><time>2026-04-25T17:21:36Z</time></trkpt><trkpt lat="43.54585023873021" lon="10.928808575687327"><ele>310.0</ele><time>2026-04-25T17:21:37Z</time></trkpt><trkpt lat="43.54596801583976" lon="10.92881128278924"><ele>310.0</ele><time>2026-04-25T17:21:38Z</time></trkpt><trkpt lat="43.54608212045167" lon="10.928808594569528"><ele>310.0</ele><time>2026-04-25T17:21:39Z</time></trkpt><trkpt lat="43.54620221131458" lon="10.928818420878288"><ele>310.0</ele><time>2026-04-25T17:21:40Z</time></trkpt><trkpt lat="43.546317995361896" lon="10.928830726951114"><ele>308.0</ele><time>2026-04-25T17:21:41Z</time></trkpt><trkpt lat="43.5464388569682" lon="10.928835735053914"><ele>306.0</ele><time>2026-04-25T17:21:42Z</time></trkpt><trkpt lat="43.54656061222223" lon="10.928840452078296"><ele>304.0</ele><time>2026-04-25T17:21:43Z</time></trkpt><trkpt lat="43.54667877918765" lon="10.92884565512177"><ele>302.0</ele><time>2026-04-25T17:21:44Z</time></trkpt><trkpt lat="43.54680769694849" lon="10.928854492549652"><ele>302.0</ele><time>2026-04-25T17:21:45Z</time></trkpt><trkpt lat="43.54694458159901" lon="10.928865100170153"><ele>302.0</ele><time>2026-04-25T17:21:46Z</time></trkpt><trkpt lat="43.547076728887056" lon="10.928871809882471"><ele>302.0</ele><time>2026-04-25T17:21:47Z</time></trkpt><trkpt lat="43.547203455949564" lon="10.928876019947516"><ele>302.0</ele><time>2026-04-25T17:21:48Z</time></trkpt><trkpt lat="43.54732946834455" lon="10.92888458858747"><ele>300.5</ele><time>2026-04-25T17:21:49Z</time></trkpt><trkpt lat="43.54745292595017" lon="10.928892769868328"><ele>299.0</ele><time>2026-04-25T17:21:50Z</time></trkpt><trkpt lat="43.547578638212165" lon="10.928902032240718"><ele>297.5</ele><time>2026-04-25T17:21:51Z</time></trkpt><trkpt lat="43.54770755498885" lon="10.928921913293436"><ele>296.0</ele><time>2026-04-25T17:21:52Z</time></trkpt><trkpt lat="43.547829245581525" lon="10.928958623066091"><ele>295.25</ele><time>2026-04-25T17:21:53Z</time></trkpt><trkpt lat="43.54794666617682" lon="10.929016744101613"><ele>294.5</ele><time>2026-04-25T17:21:54Z</time></trkpt><trkpt lat="43.54806381193687" lon="10.929075539734209"><ele>293.75</ele><time>2026-04-25T17:21:55Z</time></trkpt><trkpt lat="43.548177575379" lon="10.929151081167685"><ele>293.0</ele><time>2026-04-25T17:21:56Z</time></trkpt><trkpt lat="43.54828808006711" lon="10.929238288518434"><ele>290.0</ele><time>2026-04-25T17:21:57Z</time></trkpt><trkpt lat="43.54839126841983" lon="10.92933462171225"><ele>287.0</ele><time>2026-04-25T17:21:58Z</time></trkpt><trkpt lat="43.54849223134847" lon="10.929438531851018"><ele>284.0</ele><time>2026-04-25T17:21:59Z</time></trkpt><trkpt lat="43.54857984848887" lon="10.929548328496216"><ele>281.0</ele><time>2026-04-25T17:22:00Z</time></trkpt><trkpt lat="43.548662460979564" lon="10.92966328038567"><ele>281.0</ele><time>2026-04-25T17:22:01Z</time></trkpt><trkpt lat="43.54874288865641" lon="10.92977808165646"><ele>281.0</ele><time>2026-04-25T17:22:02Z</time></trkpt><trkpt lat="43.548824971194186" lon="10.92988792699029"><ele>281.0</ele><time>2026-04-25T17:22:03Z</time></trkpt><trkpt lat="43.548906707865974" lon="10.929995060882971"><ele>281.0</ele><time>2026-04-25T17:22:04Z</time></trkpt><trkpt lat="43.54898710083264" lon="10.930112555619464"><ele>278.0</ele><time>2026-04-25T17:22:05Z</time></trkpt><trkpt lat="43.54907475249171" lon="10.93023285242794"><ele>275.0</ele><time>2026-04-25T17:22:06Z</time></trkpt><trkpt lat="43.54916977092842" lon="10.930330671595096"><ele>272.0</ele><time>2026-04-25T17:22:07Z</time></trkpt><trkpt lat="43.549267586863245" lon="10.930421791001784"><ele>269.0</ele><time>2026-04-25T17:22:08Z</time></trkpt><trkpt lat="43.549368083933885" lon="10.930509053121451"><ele>269.0</ele><time>2026-04-25T17:22:09Z</time></trkpt><trkpt lat="43.54947670065008" lon="10.930595711625555"><ele>269.0</ele><time>2026-04-25T17:22:10Z</time></trkpt><trkpt lat="43.54959032808475" lon="10.93068358308995"><ele>269.0</ele><time>2026-04-25T17:22:11Z</time></trkpt><trkpt lat="43.54970611664118" lon="10.93076725084128"><ele>269.0</ele><time>2026-04-25T17:22:12Z</time></trkpt><trkpt lat="43.54982442712026" lon="10.930839889318994"><ele>267.25</ele><time>2026-04-25T17:22:13Z</time></trkpt><trkpt lat="43.54994170408323" lon="10.930908461056614"><ele>265.5</ele><time>2026-04-25T17:22:14Z</time></trkpt><trkpt lat="43.55005953539344" lon="10.93097283166616"><ele>263.75</ele><time>2026-04-25T17:22:15Z</time></trkpt><trkpt lat="43.550179380538374" lon="10.931034073410936"><ele>262.0</ele><time>2026-04-25T17:22:16Z</time></trkpt><trkpt lat="43.55029995721213" lon="10.93109533635684"><ele>262.0</ele><time>2026-04-25T17:22:17Z</time></trkpt><trkpt lat="43.55041868227154" lon="10.931162667253464"><ele>262.0</ele><time>2026-04-25T17:22:18Z</time></trkpt><trkpt lat="43.55053762300248" lon="10.93122698609548"><ele>262.0</ele><time>2026-04-25T17:22:19Z</time></trkpt><trkpt lat="43.55065582731733" lon="10.931286266744735"><ele>262.0</ele><time>2026-04-25T17:22:20Z</time></trkpt><trkpt lat="43.55077032501485" lon="10.931351445600164"><ele>262.0</ele><time>2026-04-25T17:22:21Z</time></trkpt><trkpt lat="43.550883272550806" lon="10.93141611867362"><ele>262.0</ele><time>2026-04-25T17:22:22Z</time></trkpt><trkpt lat="43.55099658679328" lon="10.931484554262669"><ele>262.0</ele><time>2026-04-25T17:22:23Z</time></trkpt><trkpt lat="43.551104313679566" lon="10.931561210919616"><ele>262.0</ele><time>2026-04-25T17:22:24Z</time></trkpt><trkpt lat="43.55120725919624" lon="10.931649709240913"><ele>259.5</ele><time>2026-04-25T17:22:25Z</time></trkpt><trkpt lat="43.55130507469057" lon="10.93174355209935"><ele>257.0</ele><time>2026-04-25T17:22:26Z</time></trkpt><trkpt lat="43.55139638065101" lon="10.931847312309802"><ele>254.5</ele><time>2026-04-25T17:22:27Z</time></trkpt><trkpt lat="43.55148727404299" lon="10.931954525179362"><ele>252.0</ele><time>2026-04-25T17:22:28Z</time></trkpt><trkpt lat="43.55157497022024" lon="10.932074983053269"><ele>252.0</ele><time>2026-04-25T17:22:29Z</time></trkpt><trkpt lat="43.55165251303672" lon="10.932209619454536"><ele>252.0</ele><time>2026-04-25T17:22:30Z</time></trkpt><trkpt lat="43.55172778013148" lon="10.932353382255485"><ele>252.0</ele><time>2026-04-25T17:22:31Z</time></trkpt><trkpt lat="43.55179792312819" lon="10.932504546095792"><ele>252.0</ele><time>2026-04-25T17:22:32Z</time></trkpt><trkpt lat="43.55185823416488" lon="10.932667121258394"><ele>251.5</ele><time>2026-04-25T17:22:33Z</time></trkpt><trkpt lat="43.551911717858765" lon="10.932822048706118"><ele>251.0</ele><time>2026-04-25T17:22:34Z</time></trkpt><trkpt lat="43.551965368522346" lon="10.932973950589687"><ele>250.5</ele><time>2026-04-25T17:22:35Z</time></trkpt><trkpt lat="43.552018869893516" lon="10.933140047057364"><ele>250.0</ele><time>2026-04-25T17:22:36Z</time></trkpt><trkpt lat="43.552072840040296" lon="10.933308507025165"><ele>249.5</ele><time>2026-04-25T17:22:37Z</time></trkpt><trkpt lat="43.55213621140024" lon="10.93346841191139"><ele>249.0</ele><time>2026-04-25T17:22:38Z</time></trkpt><trkpt lat="43.55220832158529" lon="10.93362665949403"><ele>248.5</ele><time>2026-04-25T17:22:39Z</time></trkpt><trkpt lat="43.552286527113154" lon="10.933777379514147"><ele>248.0</ele><time>2026-04-25T17:22:40Z</time></trkpt><trkpt lat="43.552373672053534" lon="10.933910728439734"><ele>248.0</ele><time>2026-04-25T17:22:41Z</time></trkpt><trkpt lat="43.552468139449196" lon="10.934041700027082"><ele>248.0</ele><time>2026-04-25T17:22:42Z</time></trkpt><trkpt lat="43.55256573614696" lon="10.934164929585677"><ele>248.0</ele><time>2026-04-25T17:22:43Z</time></trkpt><trkpt lat="43.552672303487505" lon="10.934276842424993"><ele>248.0</ele><time>2026-04-25T17:22:44Z</time></trkpt><trkpt lat="43.55278824834902" lon="10.934382151252668"><ele>246.0</ele><time>2026-04-25T17:22:45Z</time></trkpt><trkpt lat="43.552903839731194" lon="10.934480211544155"><ele>244.0</ele><time>2026-04-25T17:22:46Z</time></trkpt><trkpt lat="43.553026073444876" lon="10.934556818649767"><ele>242.0</ele><time>2026-04-25T17:22:47Z</time></trkpt><trkpt lat="43.553155792646166" lon="10.934631204596101"><ele>240.0</ele><time>2026-04-25T17:22:48Z</time></trkpt><trkpt lat="43.5532791420469" lon="10.93469510172612"><ele>240.0</ele><time>2026-04-25T17:22:49Z</time></trkpt><trkpt lat="43.55341129397387" lon="10.93474248510443"><ele>240.0</ele><time>2026-04-25T17:22:50Z</time></trkpt><trkpt lat="43.55354623552136" lon="10.934778845194407"><ele>240.0</ele><time>2026-04-25T17:22:51Z</time></trkpt><trkpt lat="43.55367751075933" lon="10.93481249035624"><ele>240.0</ele><time>2026-04-25T17:22:52Z</time></trkpt><trkpt lat="43.55382269685705" lon="10.934827399487121"><ele>239.66666666666669</ele><time>2026-04-25T17:22:53Z</time></trkpt><trkpt lat="43.553968235645556" lon="10.934835661324067"><ele>239.33333333333334</ele><time>2026-04-25T17:22:54Z</time></trkpt><trkpt lat="43.55412248785054" lon="10.934835936645182"><ele>239.0</ele><time>2026-04-25T17:22:55Z</time></trkpt><trkpt lat="43.55427752046458" lon="10.934840822128615"><ele>239.0</ele><time>2026-04-25T17:22:56Z</time></trkpt><trkpt lat="43.5544263904352" lon="10.934848655910251"><ele>239.0</ele><time>2026-04-25T17:22:57Z</time></trkpt><trkpt lat="43.554577915512375" lon="10.934851953013716"><ele>239.0</ele><time>2026-04-25T17:22:58Z</time></trkpt><trkpt lat="43.55472938146339" lon="10.934856845830142"><ele>239.0</ele><time>2026-04-25T17:22:59Z</time></trkpt><trkpt lat="43.55488309202055" lon="10.934873002783105"><ele>239.0</ele><time>2026-04-25T17:23:00Z</time></trkpt><trkpt lat="43.555033442884806" lon="10.934874916725748"><ele>239.0</ele><time>2026-04-25T17:23:01Z</time></trkpt><trkpt lat="43.555180876421915" lon="10.934880943844073"><ele>239.0</ele><time>2026-04-25T17:23:02Z</time></trkpt><trkpt lat="43.55532998984715" lon="10.934887517549353"><ele>239.0</ele><time>2026-04-25T17:23:03Z</time></trkpt><trkpt lat="43.55547759875109" lon="10.934919055418902"><ele>239.0</ele><time>2026-04-25T17:23:04Z</time></trkpt><trkpt lat="43.55562293189253" lon="10.934966570283724"><ele>239.0</ele><time>2026-04-25T17:23:05Z</time></trkpt><trkpt lat="43.55575873431739" lon="10.935029600697202"><ele>239.25</ele><time>2026-04-25T17:23:06Z</time></trkpt><trkpt lat="43.555886050127064" lon="10.935109634494285"><ele>239.5</ele><time>2026-04-25T17:23:07Z</time></trkpt><trkpt lat="43.55600052442943" lon="10.93521547533808"><ele>239.75</ele><time>2026-04-25T17:23:08Z</time></trkpt><trkpt lat="43.556117278112794" lon="10.935328147440353"><ele>240.0</ele><time>2026-04-25T17:23:09Z</time></trkpt><trkpt lat="43.55621816387502" lon="10.935462782655481"><ele>238.25</ele><time>2026-04-25T17:23:10Z</time></trkpt><trkpt lat="43.55629769787146" lon="10.93561713455435"><ele>236.5</ele><time>2026-04-25T17:23:11Z</time></trkpt><trkpt lat="43.55636991450179" lon="10.935787738667758"><ele>234.75</ele><time>2026-04-25T17:23:12Z</time></trkpt><trkpt lat="43.55642794991536" lon="10.935965187418299"><ele>233.0</ele><time>2026-04-25T17:23:13Z</time></trkpt><trkpt lat="43.55647284584907" lon="10.936155950046519"><ele>232.5</ele><time>2026-04-25T17:23:14Z</time></trkpt><trkpt lat="43.55650836729145" lon="10.936355626119319"><ele>232.0</ele><time>2026-04-25T17:23:15Z</time></trkpt><trkpt lat="43.55653267246927" lon="10.936560622133195"><ele>231.5</ele><time>2026-04-25T17:23:16Z</time></trkpt><trkpt lat="43.556547810061815" lon="10.936757424482334"><ele>231.0</ele><time>2026-04-25T17:23:17Z</time></trkpt><trkpt lat="43.5565630963826" lon="10.936953008034365"><ele>231.0</ele><time>2026-04-25T17:23:18Z</time></trkpt><trkpt lat="43.55658640638526" lon="10.937146631609533"><ele>231.0</ele><time>2026-04-25T17:23:19Z</time></trkpt><trkpt lat="43.55662233261801" lon="10.937342561673068"><ele>231.0</ele><time>2026-04-25T17:23:20Z</time></trkpt><trkpt lat="43.55666765394012" lon="10.93752349226544"><ele>231.0</ele><time>2026-04-25T17:23:21Z</time></trkpt><trkpt lat="43.55672914222633" lon="10.937701686145981"><ele>230.75</ele><time>2026-04-25T17:23:22Z</time></trkpt><trkpt lat="43.5568005967177" lon="10.93787703241588"><ele>230.5</ele><time>2026-04-25T17:23:23Z</time></trkpt><trkpt lat="43.556876885692056" lon="10.938038787507688"><ele>230.25</ele><time>2026-04-25T17:23:24Z</time></trkpt><trkpt lat="43.55696839903215" lon="10.938191399455643"><ele>230.0</ele><time>2026-04-25T17:23:25Z</time></trkpt><trkpt lat="43.55707085886619" lon="10.938337928469961"><ele>229.5</ele><time>2026-04-25T17:23:26Z</time></trkpt><trkpt lat="43.557181533382405" lon="10.93846489931639"><ele>229.0</ele><time>2026-04-25T17:23:27Z</time></trkpt><trkpt lat="43.55729947858747" lon="10.938577590956777"><ele>228.5</ele><time>2026-04-25T17:23:28Z</time></trkpt><trkpt lat="43.55742171849132" lon="10.93867429982475"><ele>228.0</ele><time>2026-04-25T17:23:29Z</time></trkpt><trkpt lat="43.55755133945922" lon="10.938762968238347"><ele>228.0</ele><time>2026-04-25T17:23:30Z</time></trkpt><trkpt lat="43.557693212118394" lon="10.938825756618474"><ele>228.0</ele><time>2026-04-25T17:23:31Z</time></trkpt><trkpt lat="43.557837273802136" lon="10.938872850406067"><ele>228.0</ele><time>2026-04-25T17:23:32Z</time></trkpt><trkpt lat="43.55798666755097" lon="10.938906583905178"><ele>228.0</ele><time>2026-04-25T17:23:33Z</time></trkpt><trkpt lat="43.55813247215358" lon="10.938923177823458"><ele>227.5</ele><time>2026-04-25T17:23:34Z</time></trkpt><trkpt lat="43.558280422304" lon="10.938929997716247"><ele>227.0</ele><time>2026-04-25T17:23:35Z</time></trkpt><trkpt lat="43.55842974538362" lon="10.938923092094745"><ele>226.5</ele><time>2026-04-25T17:23:36Z</time></trkpt><trkpt lat="43.55857857159122" lon="10.938916767420048"><ele>226.0</ele><time>2026-04-25T17:23:37Z</time></trkpt><trkpt lat="43.55872744127297" lon="10.93891496913439"><ele>224.75</ele><time>2026-04-25T17:23:38Z</time></trkpt><trkpt lat="43.55888338279883" lon="10.93890881784524"><ele>223.5</ele><time>2026-04-25T17:23:39Z</time></trkpt><trkpt lat="43.559023063953035" lon="10.938902499131489"><ele>222.25</ele><time>2026-04-25T17:23:40Z</time></trkpt><trkpt lat="43.55917260345047" lon="10.93889422113484"><ele>221.0</ele><time>2026-04-25T17:23:41Z</time></trkpt><trkpt lat="43.559317648903885" lon="10.938896977989597"><ele>221.0</ele><time>2026-04-25T17:23:42Z</time></trkpt><trkpt lat="43.55946420754803" lon="10.93889367734542"><ele>221.0</ele><time>2026-04-25T17:23:43Z</time></trkpt><trkpt lat="43.55960696832797" lon="10.938900795768335"><ele>221.0</ele><time>2026-04-25T17:23:44Z</time></trkpt><trkpt lat="43.55974956717169" lon="10.938917803003859"><ele>221.0</ele><time>2026-04-25T17:23:45Z</time></trkpt><trkpt lat="43.5598888194877" lon="10.938946871793213"><ele>219.25</ele><time>2026-04-25T17:23:46Z</time></trkpt><trkpt lat="43.56002858555881" lon="10.938984713669061"><ele>217.5</ele><time>2026-04-25T17:23:47Z</time></trkpt><trkpt lat="43.56016894335768" lon="10.939034305220567"><ele>215.75</ele><time>2026-04-25T17:23:48Z</time></trkpt><trkpt lat="43.56030978821327" lon="10.939092183863378"><ele>214.0</ele><time>2026-04-25T17:23:49Z</time></trkpt><trkpt lat="43.56044953875569" lon="10.939147839427463"><ele>213.75</ele><time>2026-04-25T17:23:50Z</time></trkpt><trkpt lat="43.56058334480063" lon="10.939215496140594"><ele>213.5</ele><time>2026-04-25T17:23:51Z</time></trkpt><trkpt lat="43.56072366219492" lon="10.939281902839936"><ele>213.25</ele><time>2026-04-25T17:23:52Z</time></trkpt><trkpt lat="43.560859878140946" lon="10.939349433907715"><ele>213.0</ele><time>2026-04-25T17:23:53Z</time></trkpt><trkpt lat="43.5609946080418" lon="10.939408246888874"><ele>211.25</ele><time>2026-04-25T17:23:54Z</time></trkpt><trkpt lat="43.56113388860544" lon="10.939456655904369"><ele>209.5</ele><time>2026-04-25T17:23:55Z</time></trkpt><trkpt lat="43.561276673975215" lon="10.93949688677944"><ele>207.75</ele><time>2026-04-25T17:23:56Z</time></trkpt><trkpt lat="43.56142826616784" lon="10.93952119007427"><ele>206.0</ele><time>2026-04-25T17:23:57Z</time></trkpt><trkpt lat="43.561582360093816" lon="10.939535580979872"><ele>203.0</ele><time>2026-04-25T17:23:58Z</time></trkpt><trkpt lat="43.561737768440544" lon="10.939540013164617"><ele>200.0</ele><time>2026-04-25T17:23:59Z</time></trkpt><trkpt lat="43.56189147936436" lon="10.939528863074248"><ele>197.0</ele><time>2026-04-25T17:24:00Z</time></trkpt><trkpt lat="43.56204565522137" lon="10.939508336601225"><ele>194.33333333333334</ele><time>2026-04-25T17:24:01Z</time></trkpt><trkpt lat="43.56220168140566" lon="10.939487685397308"><ele>191.66666666666669</ele><time>2026-04-25T17:24:02Z</time></trkpt><trkpt lat="43.56235870138788" lon="10.939474142975554"><ele>189.0</ele><time>2026-04-25T17:24:03Z</time></trkpt><trkpt lat="43.56252388688141" lon="10.939462191048626"><ele>189.0</ele><time>2026-04-25T17:24:04Z</time></trkpt><trkpt lat="43.562682197351656" lon="10.939451337635898"><ele>189.0</ele><time>2026-04-25T17:24:05Z</time></trkpt><trkpt lat="43.562846633174665" lon="10.939441293128917"><ele>189.0</ele><time>2026-04-25T17:24:06Z</time></trkpt><trkpt lat="43.56300601270363" lon="10.939440488689437"><ele>189.0</ele><time>2026-04-25T17:24:07Z</time></trkpt><trkpt lat="43.563165565461155" lon="10.93944350740468"><ele>189.0</ele><time>2026-04-25T17:24:08Z</time></trkpt><trkpt lat="43.563321494307914" lon="10.939453580359928"><ele>189.0</ele><time>2026-04-25T17:24:09Z</time></trkpt><trkpt lat="43.56347373676208" lon="10.939464081966937"><ele>189.0</ele><time>2026-04-25T17:24:10Z</time></trkpt><trkpt lat="43.56362747665821" lon="10.939472236113708"><ele>189.0</ele><time>2026-04-25T17:24:11Z</time></trkpt><trkpt lat="43.56377334518364" lon="10.939480712562126"><ele>189.0</ele><time>2026-04-25T17:24:12Z</time></trkpt><trkpt lat="43.563916231632554" lon="10.939477035949176"><ele>189.0</ele><time>2026-04-25T17:24:13Z</time></trkpt><trkpt lat="43.56406606835362" lon="10.939467043845925"><ele>188.33333333333334</ele><time>2026-04-25T17:24:14Z</time></trkpt><trkpt lat="43.5642220545585" lon="10.93944905959921"><ele>187.66666666666669</ele><time>2026-04-25T17:24:15Z</time></trkpt><trkpt lat="43.564380169841826" lon="10.939414322664696"><ele>187.0</ele><time>2026-04-25T17:24:16Z</time></trkpt><trkpt lat="43.56453771392401" lon="10.939376956328871"><ele>184.33333333333334</ele><time>2026-04-25T17:24:17Z</time></trkpt><trkpt lat="43.56469730598218" lon="10.939327456543412"><ele>181.66666666666666</ele><time>2026-04-25T17:24:18Z</time></trkpt><trkpt lat="43.56485823929616" lon="10.939280041723944"><ele>179.0</ele><time>2026-04-25T17:24:19Z</time></trkpt><trkpt lat="43.56501374185782" lon="10.939225011049512"><ele>181.66666666666666</ele><time>2026-04-25T17:24:20Z</time></trkpt><trkpt lat="43.5651699315705" lon="10.939174559934546"><ele>184.33333333333334</ele><time>2026-04-25T17:24:21Z</time></trkpt><trkpt lat="43.56533084740037" lon="10.93911363868697"><ele>187.0</ele><time>2026-04-25T17:24:22Z</time></trkpt><trkpt lat="43.56548202224652" lon="10.939043730784366"><ele>187.0</ele><time>2026-04-25T17:24:23Z</time></trkpt><trkpt lat="43.565624408557426" lon="10.938973990453652"><ele>187.0</ele><time>2026-04-25T17:24:24Z</time></trkpt><trkpt lat="43.5657699876245" lon="10.938894979835615"><ele>187.0</ele><time>2026-04-25T17:24:25Z</time></trkpt><trkpt lat="43.5659112911566" lon="10.9388213239701"><ele>187.0</ele><time>2026-04-25T17:24:26Z</time></trkpt><trkpt lat="43.566045466686724" lon="10.938756237502323"><ele>187.0</ele><time>2026-04-25T17:24:27Z</time></trkpt><trkpt lat="43.56618575242462" lon="10.938701615650164"><ele>187.0</ele><time>2026-04-25T17:24:28Z</time></trkpt><trkpt lat="43.56633000221712" lon="10.938662437815735"><ele>187.0</ele><time>2026-04-25T17:24:29Z</time></trkpt><trkpt lat="43.56647861573967" lon="10.938640286377622"><ele>186.0</ele><time>2026-04-25T17:24:30Z</time></trkpt><trkpt lat="43.566624877155895" lon="10.938631370533209"><ele>185.0</ele><time>2026-04-25T17:24:31Z</time></trkpt><trkpt lat="43.56676364825179" lon="10.9386303963457"><ele>184.0</ele><time>2026-04-25T17:24:32Z</time></trkpt><trkpt lat="43.56691058089072" lon="10.938626874840658"><ele>183.0</ele><time>2026-04-25T17:24:33Z</time></trkpt><trkpt lat="43.56704451219599" lon="10.938605651014978"><ele>181.25</ele><time>2026-04-25T17:24:34Z</time></trkpt><trkpt lat="43.56718157918496" lon="10.938569133875863"><ele>179.5</ele><time>2026-04-25T17:24:35Z</time></trkpt><trkpt lat="43.5673169753959" lon="10.938518746976722"><ele>177.75</ele><time>2026-04-25T17:24:36Z</time></trkpt><trkpt lat="43.56745698020992" lon="10.93845013233225"><ele>176.0</ele><time>2026-04-25T17:24:37Z</time></trkpt><trkpt lat="43.56758281015101" lon="10.938370662400766"><ele>176.0</ele><time>2026-04-25T17:24:38Z</time></trkpt><trkpt lat="43.567707324480736" lon="10.938271149076753"><ele>176.0</ele><time>2026-04-25T17:24:39Z</time></trkpt><trkpt lat="43.56783929393259" lon="10.938157379591551"><ele>176.0</ele><time>2026-04-25T17:24:40Z</time></trkpt><trkpt lat="43.56796082006946" lon="10.938029283489389"><ele>173.0</ele><time>2026-04-25T17:24:41Z</time></trkpt><trkpt lat="43.5680662329947" lon="10.937912116139454"><ele>170.0</ele><time>2026-04-25T17:24:42Z</time></trkpt><trkpt lat="43.56815724381879" lon="10.937814601109627"><ele>167.0</ele><time>2026-04-25T17:24:43Z</time></trkpt><trkpt lat="43.56824774950886" lon="10.937724807042647"><ele>164.0</ele><time>2026-04-25T17:24:44Z</time></trkpt><trkpt lat="43.56834996227147" lon="10.937638442149671"><ele>164.0</ele><time>2026-04-25T17:24:45Z</time></trkpt><trkpt lat="43.568462082944976" lon="10.93757541483891"><ele>164.0</ele><time>2026-04-25T17:24:46Z</time></trkpt><trkpt lat="43.56858393844446" lon="10.937530726585765"><ele>164.0</ele><time>2026-04-25T17:24:47Z</time></trkpt><trkpt lat="43.56870756446397" lon="10.937503648172743"><ele>164.0</ele><time>2026-04-25T17:24:48Z</time></trkpt><trkpt lat="43.56883347813439" lon="10.937504386413591"><ele>161.5</ele><time>2026-04-25T17:24:49Z</time></trkpt><trkpt lat="43.568958755644616" lon="10.93752808859042"><ele>159.0</ele><time>2026-04-25T17:24:50Z</time></trkpt><trkpt lat="43.569091193787585" lon="10.937573438195313"><ele>156.5</ele><time>2026-04-25T17:24:51Z</time></trkpt><trkpt lat="43.569207508912896" lon="10.937636678069142"><ele>154.0</ele><time>2026-04-25T17:24:52Z</time></trkpt><trkpt lat="43.56932763819285" lon="10.937714912204353"><ele>152.25</ele><time>2026-04-25T17:24:53Z</time></trkpt><trkpt lat="43.56945125432436" lon="10.937793186809582"><ele>150.5</ele><time>2026-04-25T17:24:54Z</time></trkpt><trkpt lat="43.569584642754336" lon="10.937878858803638"><ele>148.75</ele><time>2026-04-25T17:24:55Z</time></trkpt><trkpt lat="43.56972499308023" lon="10.93797254614282"><ele>147.0</ele><time>2026-04-25T17:24:56Z</time></trkpt><trkpt lat="43.569862537257784" lon="10.938064350145886"><ele>144.66666666666666</ele><time>2026-04-25T17:24:57Z</time></trkpt><trkpt lat="43.56999382226739" lon="10.938156279401346"><ele>142.33333333333331</ele><time>2026-04-25T17:24:58Z</time></trkpt><trkpt lat="43.57013439708975" lon="10.938243738003367"><ele>140.0</ele><time>2026-04-25T17:24:59Z</time></trkpt><trkpt lat="43.57027558462759" lon="10.938340278747347"><ele>139.0</ele><time>2026-04-25T17:25:00Z</time></trkpt><trkpt lat="43.57041614561991" lon="10.938435209840147"><ele>138.0</ele><time>2026-04-25T17:25:01Z</time></trkpt><trkpt lat="43.5705532452198" lon="10.938520382908322"><ele>137.0</ele><time>2026-04-25T17:25:02Z</time></trkpt><trkpt lat="43.570678199136424" lon="10.938601656952798"><ele>136.0</ele><time>2026-04-25T17:25:03Z</time></trkpt><trkpt lat="43.57079096916832" lon="10.938696551155259"><ele>136.0</ele><time>2026-04-25T17:25:04Z</time></trkpt><trkpt lat="43.570892812231016" lon="10.93880174022465"><ele>136.0</ele><time>2026-04-25T17:25:05Z</time></trkpt><trkpt lat="43.570994675908985" lon="10.938931171441299"><ele>136.0</ele><time>2026-04-25T17:25:06Z</time></trkpt><trkpt lat="43.571084547970294" lon="10.939076903187617"><ele>136.0</ele><time>2026-04-25T17:25:07Z</time></trkpt><trkpt lat="43.5711607405047" lon="10.939216145123826"><ele>135.75</ele><time>2026-04-25T17:25:08Z</time></trkpt><trkpt lat="43.57122547783096" lon="10.939358993986028"><ele>135.5</ele><time>2026-04-25T17:25:09Z</time></trkpt><trkpt lat="43.571280167470164" lon="10.93950799349415"><ele>135.25</ele><time>2026-04-25T17:25:10Z</time></trkpt><trkpt lat="43.57133418689152" lon="10.939673349976818"><ele>135.0</ele><time>2026-04-25T17:25:11Z</time></trkpt><trkpt lat="43.57138610784732" lon="10.93984402514004"><ele>135.0</ele><time>2026-04-25T17:25:12Z</time></trkpt><trkpt lat="43.57144366137359" lon="10.940007779936142"><ele>135.0</ele><time>2026-04-25T17:25:13Z</time></trkpt><trkpt lat="43.571503044151775" lon="10.940170642181513"><ele>135.0</ele><time>2026-04-25T17:25:14Z</time></trkpt><trkpt lat="43.57157305327498" lon="10.940323477339085"><ele>135.0</ele><time>2026-04-25T17:25:15Z</time></trkpt><trkpt lat="43.571651673260405" lon="10.940462957392175"><ele>131.75</ele><time>2026-04-25T17:25:16Z</time></trkpt><trkpt lat="43.57173821057205" lon="10.940593644918659"><ele>128.5</ele><time>2026-04-25T17:25:17Z</time></trkpt><trkpt lat="43.57183272953649" lon="10.940711565352128"><ele>125.25</ele><time>2026-04-25T17:25:18Z</time></trkpt><trkpt lat="43.57192728630898" lon="10.940835636868224"><ele>122.0</ele><time>2026-04-25T17:25:19Z</time></trkpt><trkpt lat="43.57203103406997" lon="10.940936758131027"><ele>120.0</ele><time>2026-04-25T17:25:20Z</time></trkpt><trkpt lat="43.57213669401574" lon="10.941033366937809"><ele>118.0</ele><time>2026-04-25T17:25:21Z</time></trkpt><trkpt lat="43.57224159179725" lon="10.941130581719351"><ele>116.0</ele><time>2026-04-25T17:25:22Z</time></trkpt><trkpt lat="43.572343355834505" lon="10.941224941514117"><ele>114.0</ele><time>2026-04-25T17:25:23Z</time></trkpt><trkpt lat="43.57244821360771" lon="10.941319368349026"><ele>114.0</ele><time>2026-04-25T17:25:24Z</time></trkpt><trkpt lat="43.57254669257434" lon="10.94141945211754"><ele>114.0</ele><time>2026-04-25T17:25:25Z</time></trkpt><trkpt lat="43.57264801083383" lon="10.941514046202256"><ele>114.0</ele><time>2026-04-25T17:25:26Z</time></trkpt><trkpt lat="43.572746318620325" lon="10.941610214562779"><ele>114.0</ele><time>2026-04-25T17:25:27Z</time></trkpt><trkpt lat="43.572843828393275" lon="10.941708074438788"><ele>111.5</ele><time>2026-04-25T17:25:28Z</time></trkpt><trkpt lat="43.57294056628046" lon="10.94180604251506"><ele>109.0</ele><time>2026-04-25T17:25:29Z</time></trkpt><trkpt lat="43.5730374320141" lon="10.94190046806434"><ele>106.5</ele><time>2026-04-25T17:25:30Z</time></trkpt><trkpt lat="43.573136203564474" lon="10.941992975738259"><ele>104.0</ele><time>2026-04-25T17:25:31Z</time></trkpt><trkpt lat="43.57323487829405" lon="10.942081851285653"><ele>104.0</ele><time>2026-04-25T17:25:32Z</time></trkpt><trkpt lat="43.573330167586725" lon="10.94218007562793"><ele>104.0</ele><time>2026-04-25T17:25:33Z</time></trkpt><trkpt lat="43.57342030428451" lon="10.942279924831208"><ele>104.0</ele><time>2026-04-25T17:25:34Z</time></trkpt><trkpt lat="43.573502887608626" lon="10.942397643086862"><ele>104.0</ele><time>2026-04-25T17:25:35Z</time></trkpt><trkpt lat="43.573580944528416" lon="10.942531621664909"><ele>102.25</ele><time>2026-04-25T17:25:36Z</time></trkpt><trkpt lat="43.5736548701479" lon="10.94268513635516"><ele>100.5</ele><time>2026-04-25T17:25:37Z</time></trkpt><trkpt lat="43.573717690186804" lon="10.942855686714498"><ele>98.75</ele><time>2026-04-25T17:25:38Z</time></trkpt><trkpt lat="43.573761269172564" lon="10.94303041232032"><ele>97.0</ele><time>2026-04-25T17:25:39Z</time></trkpt><trkpt lat="43.57379258856849" lon="10.94320838536494"><ele>95.75</ele><time>2026-04-25T17:25:40Z</time></trkpt><trkpt lat="43.57381933136775" lon="10.943389384128954"><ele>94.5</ele><time>2026-04-25T17:25:41Z</time></trkpt><trkpt lat="43.573846842201526" lon="10.943565457340892"><ele>93.25</ele><time>2026-04-25T17:25:42Z</time></trkpt><trkpt lat="43.57388341537391" lon="10.943742313561899"><ele>92.0</ele><time>2026-04-25T17:25:43Z</time></trkpt><trkpt lat="43.57393648482935" lon="10.943910737643323"><ele>92.0</ele><time>2026-04-25T17:25:44Z</time></trkpt><trkpt lat="43.574005509171016" lon="10.944070680227291"><ele>92.0</ele><time>2026-04-25T17:25:45Z</time></trkpt><trkpt lat="43.57407705116412" lon="10.944226889827606"><ele>92.0</ele><time>2026-04-25T17:25:46Z</time></trkpt><trkpt lat="43.57416106290624" lon="10.944381314847247"><ele>92.0</ele><time>2026-04-25T17:25:47Z</time></trkpt><trkpt lat="43.574255851902144" lon="10.944512755230843"><ele>91.5</ele><time>2026-04-25T17:25:48Z</time></trkpt><trkpt lat="43.57436925626421" lon="10.94463295590706"><ele>91.0</ele><time>2026-04-25T17:25:49Z</time></trkpt><trkpt lat="43.574493846099244" lon="10.944739895825148"><ele>90.5</ele><time>2026-04-25T17:25:50Z</time></trkpt><trkpt lat="43.57461242153652" lon="10.944841141038264"><ele>90.0</ele><time>2026-04-25T17:25:51Z</time></trkpt><trkpt lat="43.574721879716364" lon="10.944945766894888"><ele>88.75</ele><time>2026-04-25T17:25:52Z</time></trkpt><trkpt lat="43.57483244521113" lon="10.945052887757305"><ele>87.5</ele><time>2026-04-25T17:25:53Z</time></trkpt><trkpt lat="43.57494093020649" lon="10.945166806878241"><ele>86.25</ele><time>2026-04-25T17:25:54Z</time></trkpt><trkpt lat="43.5750443226321" lon="10.945293017619013"><ele>85.0</ele><time>2026-04-25T17:25:55Z</time></trkpt><trkpt lat="43.57515156759307" lon="10.945425360852793"><ele>85.0</ele><time>2026-04-25T17:25:56Z</time></trkpt><trkpt lat="43.575257644130076" lon="10.945563802257837"><ele>85.0</ele><time>2026-04-25T17:25:57Z</time></trkpt><trkpt lat="43.575366840724094" lon="10.9457038065671"><ele>85.0</ele><time>2026-04-25T17:25:58Z</time></trkpt><trkpt lat="43.57547323786208" lon="10.945846862836191"><ele>85.0</ele><time>2026-04-25T17:25:59Z</time></trkpt><trkpt lat="43.575585849852665" lon="10.945987898639451"><ele>85.0</ele><time>2026-04-25T17:26:00Z</time></trkpt><trkpt lat="43.57569486119614" lon="10.946127626894336"><ele>85.0</ele><time>2026-04-25T17:26:01Z</time></trkpt><trkpt lat="43.575797934322416" lon="10.946262485636359"><ele>85.0</ele><time>2026-04-25T17:26:02Z</time></trkpt><trkpt lat="43.5758997054581" lon="10.946399238702817"><ele>85.0</ele><time>2026-04-25T17:26:03Z</time></trkpt><trkpt lat="43.57600171764353" lon="10.946532421353405"><ele>85.0</ele><time>2026-04-25T17:26:04Z</time></trkpt><trkpt lat="43.57610423922522" lon="10.946671263156357"><ele>85.0</ele><time>2026-04-25T17:26:05Z</time></trkpt><trkpt lat="43.576202426979535" lon="10.946798142391865"><ele>85.0</ele><time>2026-04-25T17:26:06Z</time></trkpt><trkpt lat="43.576297433819015" lon="10.946921914988806"><ele>85.0</ele><time>2026-04-25T17:26:07Z</time></trkpt><trkpt lat="43.576393496331164" lon="10.94705027413925"><ele>84.25</ele><time>2026-04-25T17:26:08Z</time></trkpt><trkpt lat="43.576485625837044" lon="10.947182796488198"><ele>83.5</ele><time>2026-04-25T17:26:09Z</time></trkpt><trkpt lat="43.5765816665856" lon="10.947314164545599"><ele>82.75</ele><time>2026-04-25T17:26:10Z</time></trkpt><trkpt lat="43.5766800581832" lon="10.94744828782478"><ele>82.0</ele><time>2026-04-25T17:26:11Z</time></trkpt><trkpt lat="43.576774961745016" lon="10.947585115279953"><ele>81.5</ele><time>2026-04-25T17:26:12Z</time></trkpt><trkpt lat="43.57686190224118" lon="10.947736596304631"><ele>81.0</ele><time>2026-04-25T17:26:13Z</time></trkpt><trkpt lat="43.5769394705628" lon="10.947901455782198"><ele>80.5</ele><time>2026-04-25T17:26:14Z</time></trkpt><trkpt lat="43.57701033652997" lon="10.948076313420689"><ele>80.0</ele><time>2026-04-25T17:26:15Z</time></trkpt><trkpt lat="43.577077808690625" lon="10.948251795138482"><ele>81.0</ele><time>2026-04-25T17:26:16Z</time></trkpt><trkpt lat="43.57714158216367" lon="10.948426129550546"><ele>82.0</ele><time>2026-04-25T17:26:17Z</time></trkpt><trkpt lat="43.57720165860023" lon="10.948606992398163"><ele>83.0</ele><time>2026-04-25T17:26:18Z</time></trkpt><trkpt lat="43.57725662318743" lon="10.948790272333667"><ele>84.0</ele><time>2026-04-25T17:26:19Z</time></trkpt><trkpt lat="43.57730917533778" lon="10.948959865976585"><ele>84.0</ele><time>2026-04-25T17:26:20Z</time></trkpt><trkpt lat="43.577370274191686" lon="10.949140947244697"><ele>84.0</ele><time>2026-04-25T17:26:21Z</time></trkpt><trkpt lat="43.57742475852575" lon="10.949311787884746"><ele>84.0</ele><time>2026-04-25T17:26:22Z</time></trkpt><trkpt lat="43.57748621909968" lon="10.94947988425544"><ele>84.0</ele><time>2026-04-25T17:26:23Z</time></trkpt><trkpt lat="43.577560397027746" lon="10.949646310646093"><ele>84.0</ele><time>2026-04-25T17:26:24Z</time></trkpt><trkpt lat="43.57764427185646" lon="10.94980932360465"><ele>84.0</ele><time>2026-04-25T17:26:25Z</time></trkpt><trkpt lat="43.57773916846101" lon="10.949966103366192"><ele>84.0</ele><time>2026-04-25T17:26:26Z</time></trkpt><trkpt lat="43.57784313103204" lon="10.950109199814472"><ele>84.0</ele><time>2026-04-25T17:26:27Z</time></trkpt><trkpt lat="43.5779584420428" lon="10.950236043270785"><ele>84.0</ele><time>2026-04-25T17:26:28Z</time></trkpt><trkpt lat="43.578082984616266" lon="10.950345892589288"><ele>84.0</ele><time>2026-04-25T17:26:29Z</time></trkpt><trkpt lat="43.578209725833666" lon="10.950443631632718"><ele>84.0</ele><time>2026-04-25T17:26:30Z</time></trkpt><trkpt lat="43.578334003390495" lon="10.950535709309003"><ele>84.0</ele><time>2026-04-25T17:26:31Z</time></trkpt><trkpt lat="43.5784616605415" lon="10.950633209285698"><ele>84.0</ele><time>2026-04-25T17:26:32Z</time></trkpt><trkpt lat="43.57858715019349" lon="10.950726974996806"><ele>84.0</ele><time>2026-04-25T17:26:33Z</time></trkpt><trkpt lat="43.57871012411406" lon="10.950816402805364"><ele>84.0</ele><time>2026-04-25T17:26:34Z</time></trkpt><trkpt lat="43.57882860437347" lon="10.95090627383336"><ele>84.0</ele><time>2026-04-25T17:26:35Z</time></trkpt><trkpt lat="43.57894163549953" lon="10.950993329136159"><ele>85.75</ele><time>2026-04-25T17:26:36Z</time></trkpt><trkpt lat="43.57905528089907" lon="10.951096629935694"><ele>87.5</ele><time>2026-04-25T17:26:37Z</time></trkpt><trkpt lat="43.57915925443976" lon="10.951218121715694"><ele>89.25</ele><time>2026-04-25T17:26:38Z</time></trkpt><trkpt lat="43.57925451002289" lon="10.951352476439798"><ele>91.0</ele><time>2026-04-25T17:26:39Z</time></trkpt><trkpt lat="43.579341450377164" lon="10.951493545651477"><ele>91.0</ele><time>2026-04-25T17:26:40Z</time></trkpt><trkpt lat="43.57942057391056" lon="10.951645437903627"><ele>91.0</ele><time>2026-04-25T17:26:41Z</time></trkpt><trkpt lat="43.57949657215466" lon="10.951807561070176"><ele>91.0</ele><time>2026-04-25T17:26:42Z</time></trkpt><trkpt lat="43.57957430769971" lon="10.951968091610704"><ele>91.0</ele><time>2026-04-25T17:26:43Z</time></trkpt><trkpt lat="43.57966217046574" lon="10.952120633438742"><ele>88.0</ele><time>2026-04-25T17:26:44Z</time></trkpt><trkpt lat="43.579733077731156" lon="10.952287978545815"><ele>85.0</ele><time>2026-04-25T17:26:45Z</time></trkpt><trkpt lat="43.579809254454936" lon="10.952444507597523"><ele>82.0</ele><time>2026-04-25T17:26:46Z</time></trkpt><trkpt lat="43.57988757460755" lon="10.952591639554509"><ele>79.0</ele><time>2026-04-25T17:26:47Z</time></trkpt><trkpt lat="43.5799662079857" lon="10.952736127587258"><ele>77.5</ele><time>2026-04-25T17:26:48Z</time></trkpt><trkpt lat="43.58005289997789" lon="10.95287719134155"><ele>76.0</ele><time>2026-04-25T17:26:49Z</time></trkpt><trkpt lat="43.58015213646699" lon="10.953011149458597"><ele>74.5</ele><time>2026-04-25T17:26:50Z</time></trkpt><trkpt lat="43.58025385555055" lon="10.95315414406408"><ele>73.0</ele><time>2026-04-25T17:26:51Z</time></trkpt><trkpt lat="43.58037729255256" lon="10.953271695827336"><ele>72.25</ele><time>2026-04-25T17:26:52Z</time></trkpt><trkpt lat="43.5805111701511" lon="10.953353070463551"><ele>71.5</ele><time>2026-04-25T17:26:53Z</time></trkpt><trkpt lat="43.58063544422522" lon="10.953441687748661"><ele>70.75</ele><time>2026-04-25T17:26:54Z</time></trkpt><trkpt lat="43.58075763529078" lon="10.95352686333225"><ele>70.0</ele><time>2026-04-25T17:26:55Z</time></trkpt><trkpt lat="43.58087593529579" lon="10.953617176008226"><ele>70.0</ele><time>2026-04-25T17:26:56Z</time></trkpt><trkpt lat="43.58100793366855" lon="10.953706167523073"><ele>70.0</ele><time>2026-04-25T17:26:57Z</time></trkpt><trkpt lat="43.5811310857682" lon="10.953813104226105"><ele>70.0</ele><time>2026-04-25T17:26:58Z</time></trkpt><trkpt lat="43.58126494854931" lon="10.953919125983022"><ele>70.0</ele><time>2026-04-25T17:26:59Z</time></trkpt><trkpt lat="43.5813893786384" lon="10.954044303291578"><ele>68.66666666666666</ele><time>2026-04-25T17:27:00Z</time></trkpt><trkpt lat="43.5814977354501" lon="10.954186870356247"><ele>67.33333333333333</ele><time>2026-04-25T17:27:01Z</time></trkpt><trkpt lat="43.58160009286164" lon="10.954351841753383"><ele>66.0</ele><time>2026-04-25T17:27:02Z</time></trkpt><trkpt lat="43.58169032356291" lon="10.95452952702105"><ele>65.33333333333333</ele><time>2026-04-25T17:27:03Z</time></trkpt><trkpt lat="43.58176834253953" lon="10.954718882610589"><ele>64.66666666666666</ele><time>2026-04-25T17:27:04Z</time></trkpt><trkpt lat="43.581835724902945" lon="10.954921194838004"><ele>64.0</ele><time>2026-04-25T17:27:05Z</time></trkpt><trkpt lat="43.58189767597369" lon="10.955129513820884"><ele>64.0</ele><time>2026-04-25T17:27:06Z</time></trkpt><trkpt lat="43.58195666054378" lon="10.955339301841697"><ele>64.0</ele><time>2026-04-25T17:27:07Z</time></trkpt><trkpt lat="43.582016666869634" lon="10.955548252857833"><ele>64.0</ele><time>2026-04-25T17:27:08Z</time></trkpt><trkpt lat="43.58207527539524" lon="10.955759684945171"><ele>64.0</ele><time>2026-04-25T17:27:09Z</time></trkpt><trkpt lat="43.58213311936132" lon="10.955958040500985"><ele>64.0</ele><time>2026-04-25T17:27:10Z</time></trkpt><trkpt lat="43.58218933046404" lon="10.956151193978334"><ele>64.0</ele><time>2026-04-25T17:27:11Z</time></trkpt><trkpt lat="43.58224393021307" lon="10.956351390456502"><ele>64.0</ele><time>2026-04-25T17:27:12Z</time></trkpt><trkpt lat="43.58230593853131" lon="10.956543396354647"><ele>64.0</ele><time>2026-04-25T17:27:13Z</time></trkpt><trkpt lat="43.58235792034221" lon="10.956737858074051"><ele>64.0</ele><time>2026-04-25T17:27:14Z</time></trkpt><trkpt lat="43.58241356763646" lon="10.956915462949768"><ele>64.0</ele><time>2026-04-25T17:27:15Z</time></trkpt><trkpt lat="43.58246629115742" lon="10.957103547858354"><ele>64.0</ele><time>2026-04-25T17:27:16Z</time></trkpt><trkpt lat="43.58252015479039" lon="10.957292070446975"><ele>64.0</ele><time>2026-04-25T17:27:17Z</time></trkpt><trkpt lat="43.58257572970743" lon="10.957483498353136"><ele>64.0</ele><time>2026-04-25T17:27:18Z</time></trkpt><trkpt lat="43.582633609271724" lon="10.95768500756299"><ele>63.33333333333333</ele><time>2026-04-25T17:27:19Z</time></trkpt><trkpt lat="43.582693145657906" lon="10.957876660349392"><ele>62.66666666666667</ele><time>2026-04-25T17:27:20Z</time></trkpt><trkpt lat="43.58275228891771" lon="10.958076753289543"><ele>62.0</ele><time>2026-04-25T17:27:21Z</time></trkpt><trkpt lat="43.582808465910794" lon="10.958278064626985"><ele>62.0</ele><time>2026-04-25T17:27:22Z</time></trkpt><trkpt lat="43.58286898052947" lon="10.958478277451059"><ele>62.0</ele><time>2026-04-25T17:27:23Z</time></trkpt><trkpt lat="43.582927390306374" lon="10.958685385029142"><ele>62.0</ele><time>2026-04-25T17:27:24Z</time></trkpt><trkpt lat="43.58298374842186" lon="10.958892831344395"><ele>62.0</ele><time>2026-04-25T17:27:25Z</time></trkpt><trkpt lat="43.58303492429496" lon="10.959078016596381"><ele>62.0</ele><time>2026-04-25T17:27:26Z</time></trkpt><trkpt lat="43.58309485584989" lon="10.95924784924723"><ele>62.0</ele><time>2026-04-25T17:27:27Z</time></trkpt><trkpt lat="43.58314747297747" lon="10.959410366033538"><ele>62.0</ele><time>2026-04-25T17:27:28Z</time></trkpt><trkpt lat="43.58319987331145" lon="10.959577275347542"><ele>61.75</ele><time>2026-04-25T17:27:29Z</time></trkpt><trkpt lat="43.58326550507986" lon="10.959739508260135"><ele>61.5</ele><time>2026-04-25T17:27:30Z</time></trkpt><trkpt lat="43.58333434123003" lon="10.959886078959073"><ele>61.25</ele><time>2026-04-25T17:27:31Z</time></trkpt><trkpt lat="43.58341820017147" lon="10.960032965419456"><ele>61.0</ele><time>2026-04-25T17:27:32Z</time></trkpt><trkpt lat="43.58351661556562" lon="10.96017580830736"><ele>60.666666666666664</ele><time>2026-04-25T17:27:33Z</time></trkpt><trkpt lat="43.58362222767218" lon="10.96032832031977"><ele>60.33333333333333</ele><time>2026-04-25T17:27:34Z</time></trkpt><trkpt lat="43.58373974502489" lon="10.9604640196819"><ele>60.0</ele><time>2026-04-25T17:27:35Z</time></trkpt><trkpt lat="43.583866144696835" lon="10.96059379970809"><ele>59.33333333333333</ele><time>2026-04-25T17:27:36Z</time></trkpt><trkpt lat="43.58399798267818" lon="10.960723640777099"><ele>58.666666666666664</ele><time>2026-04-25T17:27:37Z</time></trkpt><trkpt lat="43.58413572233541" lon="10.960846660164655"><ele>58.0</ele><time>2026-04-25T17:27:38Z</time></trkpt><trkpt lat="43.58427298216288" lon="10.96096187459925"><ele>58.0</ele><time>2026-04-25T17:27:39Z</time></trkpt><trkpt lat="43.58440623034764" lon="10.96107409063224"><ele>58.0</ele><time>2026-04-25T17:27:40Z</time></trkpt><trkpt lat="43.58452812215671" lon="10.961187689769517"><ele>58.0</ele><time>2026-04-25T17:27:41Z</time></trkpt><trkpt lat="43.58465917412334" lon="10.961293384579143"><ele>58.666666666666664</ele><time>2026-04-25T17:27:42Z</time></trkpt><trkpt lat="43.58478890737017" lon="10.961411883255115"><ele>59.33333333333333</ele><time>2026-04-25T17:27:43Z</time></trkpt><trkpt lat="43.5849110985491" lon="10.961535243999146"><ele>60.0</ele><time>2026-04-25T17:27:44Z</time></trkpt><trkpt lat="43.58502755687814" lon="10.961665699385533"><ele>60.0</ele><time>2026-04-25T17:27:45Z</time></trkpt><trkpt lat="43.58513626521039" lon="10.961796568055794"><ele>60.0</ele><time>2026-04-25T17:27:46Z</time></trkpt><trkpt lat="43.58524077294051" lon="10.961930656839257"><ele>60.0</ele><time>2026-04-25T17:27:47Z</time></trkpt><trkpt lat="43.58534911234247" lon="10.962065827884699"><ele>60.0</ele><time>2026-04-25T17:27:48Z</time></trkpt><trkpt lat="43.58544498802986" lon="10.962212472058138"><ele>60.0</ele><time>2026-04-25T17:27:49Z</time></trkpt><trkpt lat="43.58553547301389" lon="10.962364214580212"><ele>60.0</ele><time>2026-04-25T17:27:50Z</time></trkpt><trkpt lat="43.58562792444472" lon="10.962518463038867"><ele>60.0</ele><time>2026-04-25T17:27:51Z</time></trkpt><trkpt lat="43.585719041204634" lon="10.962672696516155"><ele>60.0</ele><time>2026-04-25T17:27:52Z</time></trkpt><trkpt lat="43.58581547705246" lon="10.962829728299866"><ele>59.33333333333333</ele><time>2026-04-25T17:27:53Z</time></trkpt><trkpt lat="43.58590036056335" lon="10.963002586026608"><ele>58.666666666666664</ele><time>2026-04-25T17:27:54Z</time></trkpt><trkpt lat="43.58600580430378" lon="10.963157496455016"><ele>58.0</ele><time>2026-04-25T17:27:55Z</time></trkpt><trkpt lat="43.586101583582874" lon="10.963321168108637"><ele>57.666666666666664</ele><time>2026-04-25T17:27:56Z</time></trkpt><trkpt lat="43.58619112516772" lon="10.963500969434685"><ele>57.33333333333333</ele><time>2026-04-25T17:27:57Z</time></trkpt><trkpt lat="43.58628779123496" lon="10.963658143014213"><ele>57.0</ele><time>2026-04-25T17:27:58Z</time></trkpt><trkpt lat="43.58637756280795" lon="10.963818149741575"><ele>57.0</ele><time>2026-04-25T17:27:59Z</time></trkpt><trkpt lat="43.58646864539501" lon="10.963978276346985"><ele>57.0</ele><time>2026-04-25T17:28:00Z</time></trkpt><trkpt lat="43.58655474949053" lon="10.964145708416071"><ele>57.0</ele><time>2026-04-25T17:28:01Z</time></trkpt><trkpt lat="43.58662994155563" lon="10.964324675546758"><ele>57.0</ele><time>2026-04-25T17:28:02Z</time></trkpt><trkpt lat="43.58668575654508" lon="10.964499460355428"><ele>56.75</ele><time>2026-04-25T17:28:03Z</time></trkpt><trkpt lat="43.586736386102864" lon="10.964679035371073"><ele>56.5</ele><time>2026-04-25T17:28:04Z</time></trkpt><trkpt lat="43.586777057719004" lon="10.964866586116205"><ele>56.25</ele><time>2026-04-25T17:28:05Z</time></trkpt><trkpt lat="43.586806940384335" lon="10.965058413249045"><ele>56.0</ele><time>2026-04-25T17:28:06Z</time></trkpt><trkpt lat="43.586828026548524" lon="10.965252597315981"><ele>55.75</ele><time>2026-04-25T17:28:07Z</time></trkpt><trkpt lat="43.58683467529815" lon="10.965430831001623"><ele>55.5</ele><time>2026-04-25T17:28:08Z</time></trkpt><trkpt lat="43.58682901601158" lon="10.965607021223231"><ele>55.25</ele><time>2026-04-25T17:28:09Z</time></trkpt><trkpt lat="43.58681449634914" lon="10.965784774790311"><ele>55.0</ele><time>2026-04-25T17:28:10Z</time></trkpt><trkpt lat="43.586794211471116" lon="10.965963998711283"><ele>54.75</ele><time>2026-04-25T17:28:11Z</time></trkpt><trkpt lat="43.586767709487596" lon="10.966134376634027"><ele>54.5</ele><time>2026-04-25T17:28:12Z</time></trkpt><trkpt lat="43.58673224068816" lon="10.966292030286265"><ele>54.25</ele><time>2026-04-25T17:28:13Z</time></trkpt><trkpt lat="43.58669359892496" lon="10.966435040512653"><ele>54.0</ele><time>2026-04-25T17:28:14Z</time></trkpt><trkpt lat="43.586654367361724" lon="10.966570129483578"><ele>54.2</ele><time>2026-04-25T17:28:15Z</time></trkpt><trkpt lat="43.58661233617616" lon="10.966708835346129"><ele>54.400000000000006</ele><time>2026-04-25T17:28:16Z</time></trkpt><trkpt lat="43.5865658848427" lon="10.966851205142802"><ele>54.6</ele><time>2026-04-25T17:28:17Z</time></trkpt><trkpt lat="43.586525490909104" lon="10.966990387949762"><ele>54.8</ele><time>2026-04-25T17:28:18Z</time></trkpt><trkpt lat="43.58648655977946" lon="10.967126138192247"><ele>55.0</ele><time>2026-04-25T17:28:19Z</time></trkpt><trkpt lat="43.58644788522656" lon="10.967259889428185"><ele>55.0</ele><time>2026-04-25T17:28:20Z</time></trkpt><trkpt lat="43.58641081201062" lon="10.967390612590938"><ele>55.0</ele><time>2026-04-25T17:28:21Z</time></trkpt><trkpt lat="43.586367228248136" lon="10.967537963598042"><ele>55.0</ele><time>2026-04-25T17:28:22Z</time></trkpt><trkpt lat="43.58632383955889" lon="10.967678983538779"><ele>55.0</ele><time>2026-04-25T17:28:23Z</time></trkpt><trkpt lat="43.58628343027069" lon="10.967807725357881"><ele>55.0</ele><time>2026-04-25T17:28:24Z</time></trkpt><trkpt lat="43.58625306391818" lon="10.967904079937501"><ele>54.83333333333333</ele><time>2026-04-25T17:28:25Z</time></trkpt><trkpt lat="43.58622680477861" lon="10.967984055988262"><ele>54.666666666666664</ele><time>2026-04-25T17:28:26Z</time></trkpt><trkpt lat="43.58619419417517" lon="10.968108318483187"><ele>54.5</ele><time>2026-04-25T17:28:28Z</time></trkpt><trkpt lat="43.58617516413576" lon="10.968204121936308"><ele>54.33333333333333</ele><time>2026-04-25T17:28:33Z</time></trkpt><trkpt lat="43.58613575432475" lon="10.968312361586074"><ele>54.166666666666664</ele><time>2026-04-25T17:28:58Z</time></trkpt><trkpt lat="43.586211598481796" lon="10.968409390504476"><ele>54.0</ele><time>2026-04-25T17:28:59Z</time></trkpt><trkpt lat="43.586256736732075" lon="10.96848163813695"><ele>54.0</ele><time>2026-04-25T17:29:00Z</time></trkpt><trkpt lat="43.58631717960026" lon="10.96855861388543"><ele>54.00000000000001</ele><time>2026-04-25T17:29:01Z</time></trkpt><trkpt lat="43.586387497029335" lon="10.968646941571139"><ele>54.00000000000001</ele><time>2026-04-25T17:29:02Z</time></trkpt><trkpt lat="43.58646796937406" lon="10.968726995469613"><ele>54.0</ele><time>2026-04-25T17:29:03Z</time></trkpt><trkpt lat="43.58655421568582" lon="10.968809344033"><ele>54.0</ele><time>2026-04-25T17:29:04Z</time></trkpt><trkpt lat="43.58664993805431" lon="10.968906353328494"><ele>54.0</ele><time>2026-04-25T17:29:05Z</time></trkpt><trkpt lat="43.586743003258924" lon="10.969015101864906"><ele>54.0</ele><time>2026-04-25T17:29:06Z</time></trkpt><trkpt lat="43.58684601251413" lon="10.969127672805937"><ele>54.0</ele><time>2026-04-25T17:29:07Z</time></trkpt><trkpt lat="43.5869597246993" lon="10.969241625622459"><ele>54.0</ele><time>2026-04-25T17:29:08Z</time></trkpt><trkpt lat="43.587076232882374" lon="10.969362330231851"><ele>55.33333333333333</ele><time>2026-04-25T17:29:09Z</time></trkpt><trkpt lat="43.58719544507225" lon="10.96948625314271"><ele>56.666666666666664</ele><time>2026-04-25T17:29:10Z</time></trkpt><trkpt lat="43.58731819787081" lon="10.969612441832167"><ele>58.0</ele><time>2026-04-25T17:29:11Z</time></trkpt><trkpt lat="43.58743469371809" lon="10.969737843835937"><ele>58.0</ele><time>2026-04-25T17:29:12Z</time></trkpt><trkpt lat="43.5875435020781" lon="10.969872311490482"><ele>58.0</ele><time>2026-04-25T17:29:13Z</time></trkpt><trkpt lat="43.58766176838509" lon="10.969999316924284"><ele>58.0</ele><time>2026-04-25T17:29:14Z</time></trkpt><trkpt lat="43.58778300418094" lon="10.970129455614549"><ele>58.0</ele><time>2026-04-25T17:29:15Z</time></trkpt><trkpt lat="43.58790720111761" lon="10.970256715517536"><ele>57.0</ele><time>2026-04-25T17:29:16Z</time></trkpt><trkpt lat="43.588027374983106" lon="10.970383966049356"><ele>56.0</ele><time>2026-04-25T17:29:17Z</time></trkpt><trkpt lat="43.588137716945816" lon="10.970505815336"><ele>55.0</ele><time>2026-04-25T17:29:18Z</time></trkpt><trkpt lat="43.588250142949434" lon="10.970619808769351"><ele>54.0</ele><time>2026-04-25T17:29:19Z</time></trkpt><trkpt lat="43.58835544955686" lon="10.970737486358995"><ele>54.0</ele><time>2026-04-25T17:29:20Z</time></trkpt><trkpt lat="43.58847172061506" lon="10.970853785585886"><ele>54.0</ele><time>2026-04-25T17:29:21Z</time></trkpt><trkpt lat="43.58859004750426" lon="10.970961166381391"><ele>54.0</ele><time>2026-04-25T17:29:22Z</time></trkpt><trkpt lat="43.58869568651616" lon="10.971066538141336"><ele>54.0</ele><time>2026-04-25T17:29:23Z</time></trkpt><trkpt lat="43.588794242604806" lon="10.971172554666392"><ele>53.800000000000004</ele><time>2026-04-25T17:29:24Z</time></trkpt><trkpt lat="43.58888720807421" lon="10.971270918103961"><ele>53.60000000000001</ele><time>2026-04-25T17:29:25Z</time></trkpt><trkpt lat="43.588990025489835" lon="10.971334424945994"><ele>53.4</ele><time>2026-04-25T17:29:26Z</time></trkpt><trkpt lat="43.58906683889447" lon="10.97142756194074"><ele>53.2</ele><time>2026-04-25T17:29:27Z</time></trkpt><trkpt lat="43.589123230377375" lon="10.971527399689641"><ele>53.0</ele><time>2026-04-25T17:29:28Z</time></trkpt><trkpt lat="43.589189394398126" lon="10.971617266486398"><ele>52.833333333333336</ele><time>2026-04-25T17:29:29Z</time></trkpt><trkpt lat="43.58923603592529" lon="10.971715091450793"><ele>52.66666666666667</ele><time>2026-04-25T17:29:30Z</time></trkpt><trkpt lat="43.58928187715751" lon="10.971801087424456"><ele>52.5</ele><time>2026-04-25T17:29:31Z</time></trkpt><trkpt lat="43.589334782746995" lon="10.971861745947187"><ele>52.33333333333333</ele><time>2026-04-25T17:29:32Z</time></trkpt><trkpt lat="43.589393351780096" lon="10.971909649706685"><ele>52.166666666666664</ele><time>2026-04-25T17:29:33Z</time></trkpt><trkpt lat="43.589465571441266" lon="10.971947787157506"><ele>52.0</ele><time>2026-04-25T17:29:34Z</time></trkpt><trkpt lat="43.589550025670356" lon="10.971961240080875"><ele>52.0</ele><time>2026-04-25T17:29:35Z</time></trkpt><trkpt lat="43.58965018358632" lon="10.97194635797103"><ele>52.0</ele><time>2026-04-25T17:29:36Z</time></trkpt><trkpt lat="43.589756767263644" lon="10.97192303055463"><ele>52.0</ele><time>2026-04-25T17:29:37Z</time></trkpt><trkpt lat="43.58987190794706" lon="10.971926366251292"><ele>52.0</ele><time>2026-04-25T17:29:38Z</time></trkpt><trkpt lat="43.589997682357144" lon="10.971943284239758"><ele>52.0</ele><time>2026-04-25T17:29:39Z</time></trkpt><trkpt lat="43.59012898783026" lon="10.971941445470506"><ele>52.0</ele><time>2026-04-25T17:29:40Z</time></trkpt><trkpt lat="43.590263951356036" lon="10.972005794473983"><ele>52.0</ele><time>2026-04-25T17:29:41Z</time></trkpt><trkpt lat="43.590406182098604" lon="10.97203857228554"><ele>52.0</ele><time>2026-04-25T17:29:42Z</time></trkpt><trkpt lat="43.590551047273124" lon="10.972070319048617"><ele>52.0</ele><time>2026-04-25T17:29:43Z</time></trkpt><trkpt lat="43.59069258222624" lon="10.972103742744045"><ele>52.0</ele><time>2026-04-25T17:29:44Z</time></trkpt><trkpt lat="43.59083662320876" lon="10.972132862236556"><ele>52.0</ele><time>2026-04-25T17:29:45Z</time></trkpt><trkpt lat="43.59097864369513" lon="10.972156054181731"><ele>52.0</ele><time>2026-04-25T17:29:46Z</time></trkpt><trkpt lat="43.591119677075405" lon="10.972183230005513"><ele>51.5</ele><time>2026-04-25T17:29:47Z</time></trkpt><trkpt lat="43.591267709116444" lon="10.972207748496883"><ele>51.0</ele><time>2026-04-25T17:29:48Z</time></trkpt><trkpt lat="43.59140529824472" lon="10.972230595951844"><ele>50.5</ele><time>2026-04-25T17:29:49Z</time></trkpt><trkpt lat="43.59154685706022" lon="10.97225145844519"><ele>50.0</ele><time>2026-04-25T17:29:50Z</time></trkpt><trkpt lat="43.59168764842627" lon="10.97226882581895"><ele>50.0</ele><time>2026-04-25T17:29:51Z</time></trkpt><trkpt lat="43.59181952280935" lon="10.972284816446084"><ele>50.0</ele><time>2026-04-25T17:29:52Z</time></trkpt><trkpt lat="43.59194321083092" lon="10.972291967583496"><ele>50.0</ele><time>2026-04-25T17:29:53Z</time></trkpt><trkpt lat="43.592066449147175" lon="10.972308985391384"><ele>50.0</ele><time>2026-04-25T17:29:54Z</time></trkpt><trkpt lat="43.59217979846822" lon="10.972324978378838"><ele>50.16666666666667</ele><time>2026-04-25T17:29:55Z</time></trkpt><trkpt lat="43.59227587879554" lon="10.972338221717006"><ele>50.333333333333336</ele><time>2026-04-25T17:29:56Z</time></trkpt><trkpt lat="43.59236446921449" lon="10.972348378625686"><ele>50.5</ele><time>2026-04-25T17:29:57Z</time></trkpt><trkpt lat="43.59244311767793" lon="10.972361081913519"><ele>50.66666666666667</ele><time>2026-04-25T17:29:58Z</time></trkpt><trkpt lat="43.592540306427075" lon="10.972409865892786"><ele>50.833333333333336</ele><time>2026-04-25T17:30:00Z</time></trkpt><trkpt lat="43.59259275287549" lon="10.972461385150176"><ele>51.0</ele><time>2026-04-25T17:30:01Z</time></trkpt><trkpt lat="43.592646479289954" lon="10.972522143906716"><ele>51.0</ele><time>2026-04-25T17:30:02Z</time></trkpt><trkpt lat="43.59276139765801" lon="10.972576166852948"><ele>51.0</ele><time>2026-04-25T17:30:04Z</time></trkpt><trkpt lat="43.59283057078675" lon="10.972559019345063"><ele>51.0</ele><time>2026-04-25T17:30:05Z</time></trkpt><trkpt lat="43.59289739582484" lon="10.972511764729592"><ele>51.0</ele><time>2026-04-25T17:30:06Z</time></trkpt><trkpt lat="43.592966351898404" lon="10.97244953064744"><ele>51.0</ele><time>2026-04-25T17:30:07Z</time></trkpt><trkpt lat="43.59305068317517" lon="10.972401010547046"><ele>51.0</ele><time>2026-04-25T17:30:08Z</time></trkpt><trkpt lat="43.59313674233717" lon="10.972366473564762"><ele>50.75</ele><time>2026-04-25T17:30:09Z</time></trkpt><trkpt lat="43.59324474487278" lon="10.972342366016443"><ele>50.5</ele><time>2026-04-25T17:30:10Z</time></trkpt><trkpt lat="43.59336028438643" lon="10.972330344423261"><ele>50.25</ele><time>2026-04-25T17:30:11Z</time></trkpt><trkpt lat="43.59347933421655" lon="10.972332353826692"><ele>50.0</ele><time>2026-04-25T17:30:12Z</time></trkpt><trkpt lat="43.59360512158084" lon="10.972331428671854"><ele>50.25</ele><time>2026-04-25T17:30:13Z</time></trkpt><trkpt lat="43.593736027743006" lon="10.972327339956932"><ele>50.5</ele><time>2026-04-25T17:30:14Z</time></trkpt><trkpt lat="43.59387440976434" lon="10.972320416969028"><ele>50.75</ele><time>2026-04-25T17:30:15Z</time></trkpt><trkpt lat="43.59400943917605" lon="10.972313627088885"><ele>51.0</ele><time>2026-04-25T17:30:16Z</time></trkpt><trkpt lat="43.594144946916515" lon="10.972309513411895"><ele>51.0</ele><time>2026-04-25T17:30:17Z</time></trkpt><trkpt lat="43.59428435518091" lon="10.972304569748433"><ele>51.0</ele><time>2026-04-25T17:30:18Z</time></trkpt><trkpt lat="43.59442163447278" lon="10.97230265655489"><ele>51.0</ele><time>2026-04-25T17:30:19Z</time></trkpt><trkpt lat="43.59456032888553" lon="10.972295547208148"><ele>51.0</ele><time>2026-04-25T17:30:20Z</time></trkpt><trkpt lat="43.594701596131664" lon="10.972286739453164"><ele>51.25</ele><time>2026-04-25T17:30:21Z</time></trkpt><trkpt lat="43.59483406081916" lon="10.972282012263758"><ele>51.5</ele><time>2026-04-25T17:30:22Z</time></trkpt><trkpt lat="43.594966815892576" lon="10.972279795651628"><ele>51.75</ele><time>2026-04-25T17:30:23Z</time></trkpt><trkpt lat="43.595101421956606" lon="10.972277388089864"><ele>52.0</ele><time>2026-04-25T17:30:24Z</time></trkpt><trkpt lat="43.59523486509602" lon="10.97227397810019"><ele>52.0</ele><time>2026-04-25T17:30:25Z</time></trkpt><trkpt lat="43.59536743475757" lon="10.972272405479623"><ele>52.0</ele><time>2026-04-25T17:30:26Z</time></trkpt><trkpt lat="43.59550035365382" lon="10.972277096634519"><ele>52.0</ele><time>2026-04-25T17:30:27Z</time></trkpt><trkpt lat="43.59563276783166" lon="10.972289966223434"><ele>52.0</ele><time>2026-04-25T17:30:28Z</time></trkpt><trkpt lat="43.59576556635638" lon="10.972313957320871"><ele>52.0</ele><time>2026-04-25T17:30:29Z</time></trkpt><trkpt lat="43.5958987338157" lon="10.972346106786317"><ele>52.0</ele><time>2026-04-25T17:30:30Z</time></trkpt><trkpt lat="43.596029093652845" lon="10.9723898275497"><ele>52.0</ele><time>2026-04-25T17:30:31Z</time></trkpt><trkpt lat="43.59615843198071" lon="10.972439529566119"><ele>52.0</ele><time>2026-04-25T17:30:32Z</time></trkpt><trkpt lat="43.59629026300765" lon="10.97250155597819"><ele>51.5</ele><time>2026-04-25T17:30:33Z</time></trkpt><trkpt lat="43.596419065538115" lon="10.972580279164488"><ele>51.0</ele><time>2026-04-25T17:30:34Z</time></trkpt><trkpt lat="43.59654548280316" lon="10.972674009490692"><ele>50.5</ele><time>2026-04-25T17:30:35Z</time></trkpt><trkpt lat="43.59666866951937" lon="10.972776478101064"><ele>50.0</ele><time>2026-04-25T17:30:36Z</time></trkpt><trkpt lat="43.596785053739154" lon="10.972881416719861"><ele>50.0</ele><time>2026-04-25T17:30:37Z</time></trkpt><trkpt lat="43.59690270537401" lon="10.972993045913"><ele>50.0</ele><time>2026-04-25T17:30:38Z</time></trkpt><trkpt lat="43.59701481103962" lon="10.973104266834838"><ele>50.0</ele><time>2026-04-25T17:30:39Z</time></trkpt><trkpt lat="43.59712153470084" lon="10.973220552866385"><ele>50.0</ele><time>2026-04-25T17:30:40Z</time></trkpt><trkpt lat="43.59722878766867" lon="10.973324472929653"><ele>51.0</ele><time>2026-04-25T17:30:41Z</time></trkpt><trkpt lat="43.597334803576615" lon="10.973434847447926"><ele>52.0</ele><time>2026-04-25T17:30:42Z</time></trkpt><trkpt lat="43.59744052001396" lon="10.973546763260769"><ele>53.0</ele><time>2026-04-25T17:30:43Z</time></trkpt><trkpt lat="43.59754753079169" lon="10.973659671139687"><ele>54.0</ele><time>2026-04-25T17:30:44Z</time></trkpt><trkpt lat="43.59765123663484" lon="10.973772544382198"><ele>54.0</ele><time>2026-04-25T17:30:45Z</time></trkpt><trkpt lat="43.59775734435835" lon="10.973887250704452"><ele>54.0</ele><time>2026-04-25T17:30:46Z</time></trkpt><trkpt lat="43.59786460935122" lon="10.973998749894555"><ele>54.0</ele><time>2026-04-25T17:30:47Z</time></trkpt><trkpt lat="43.59797308598626" lon="10.974109720193303"><ele>54.0</ele><time>2026-04-25T17:30:48Z</time></trkpt><trkpt lat="43.598087227020144" lon="10.974212570516718"><ele>55.5</ele><time>2026-04-25T17:30:49Z</time></trkpt><trkpt lat="43.59820496744969" lon="10.974309618346643"><ele>57.0</ele><time>2026-04-25T17:30:50Z</time></trkpt><trkpt lat="43.598326961143876" lon="10.974396503153066"><ele>58.5</ele><time>2026-04-25T17:30:51Z</time></trkpt><trkpt lat="43.59845409858423" lon="10.974477944675739"><ele>60.0</ele><time>2026-04-25T17:30:52Z</time></trkpt><trkpt lat="43.59858104033914" lon="10.97454597163479"><ele>59.75</ele><time>2026-04-25T17:30:53Z</time></trkpt><trkpt lat="43.598701532002586" lon="10.974605662410104"><ele>59.5</ele><time>2026-04-25T17:30:54Z</time></trkpt><trkpt lat="43.598828549832504" lon="10.974647308142867"><ele>59.25</ele><time>2026-04-25T17:30:55Z</time></trkpt><trkpt lat="43.59894737463135" lon="10.974684055475322"><ele>59.0</ele><time>2026-04-25T17:30:56Z</time></trkpt><trkpt lat="43.599069817759826" lon="10.974712598397423"><ele>59.0</ele><time>2026-04-25T17:30:57Z</time></trkpt><trkpt lat="43.59919742759029" lon="10.97473701267853"><ele>59.0</ele><time>2026-04-25T17:30:58Z</time></trkpt><trkpt lat="43.59933273546861" lon="10.974755801338999"><ele>59.0</ele><time>2026-04-25T17:30:59Z</time></trkpt><trkpt lat="43.59947164248703" lon="10.974775567652562"><ele>59.0</ele><time>2026-04-25T17:31:00Z</time></trkpt><trkpt lat="43.59961268260802" lon="10.97479585810758"><ele>59.5</ele><time>2026-04-25T17:31:01Z</time></trkpt><trkpt lat="43.599747453321974" lon="10.974813428887522"><ele>60.0</ele><time>2026-04-25T17:31:02Z</time></trkpt><trkpt lat="43.59988362692303" lon="10.97482844874445"><ele>60.5</ele><time>2026-04-25T17:31:03Z</time></trkpt><trkpt lat="43.60002063779178" lon="10.974842203441074"><ele>61.0</ele><time>2026-04-25T17:31:04Z</time></trkpt><trkpt lat="43.60016071253326" lon="10.974858042482937"><ele>61.0</ele><time>2026-04-25T17:31:05Z</time></trkpt><trkpt lat="43.60030380601964" lon="10.974872859076473"><ele>61.0</ele><time>2026-04-25T17:31:06Z</time></trkpt><trkpt lat="43.600441709154964" lon="10.97489287422785"><ele>61.0</ele><time>2026-04-25T17:31:07Z</time></trkpt><trkpt lat="43.60058323076835" lon="10.974914474552323"><ele>61.0</ele><time>2026-04-25T17:31:08Z</time></trkpt><trkpt lat="43.60072700069042" lon="10.974937116879124"><ele>61.0</ele><time>2026-04-25T17:31:09Z</time></trkpt><trkpt lat="43.60087128609132" lon="10.974961599857906"><ele>61.0</ele><time>2026-04-25T17:31:10Z</time></trkpt><trkpt lat="43.60100884186357" lon="10.974992062340837"><ele>61.0</ele><time>2026-04-25T17:31:11Z</time></trkpt><trkpt lat="43.60114477890795" lon="10.975026037845705"><ele>61.0</ele><time>2026-04-25T17:31:12Z</time></trkpt><trkpt lat="43.601277999154156" lon="10.975056163309434"><ele>61.0</ele><time>2026-04-25T17:31:13Z</time></trkpt><trkpt lat="43.60140343594582" lon="10.975085477349488"><ele>61.0</ele><time>2026-04-25T17:31:14Z</time></trkpt><trkpt lat="43.60151943399234" lon="10.975121035386234"><ele>61.0</ele><time>2026-04-25T17:31:15Z</time></trkpt><trkpt lat="43.60163598011901" lon="10.975154475280808"><ele>61.0</ele><time>2026-04-25T17:31:16Z</time></trkpt><trkpt lat="43.601746608130775" lon="10.975195167924293"><ele>61.0</ele><time>2026-04-25T17:31:17Z</time></trkpt><trkpt lat="43.601859407012505" lon="10.975232341134872"><ele>60.99999999999999</ele><time>2026-04-25T17:31:18Z</time></trkpt><trkpt lat="43.601975839327736" lon="10.97526513494274"><ele>60.99999999999999</ele><time>2026-04-25T17:31:19Z</time></trkpt><trkpt lat="43.60208120861457" lon="10.975293150999724"><ele>61.0</ele><time>2026-04-25T17:31:20Z</time></trkpt><trkpt lat="43.6021808387269" lon="10.97532824717061"><ele>61.0</ele><time>2026-04-25T17:31:21Z</time></trkpt><trkpt lat="43.602274857748085" lon="10.975357273778698"><ele>59.99999999999999</ele><time>2026-04-25T17:31:22Z</time></trkpt><trkpt lat="43.60235978266474" lon="10.975383086976201"><ele>59.0</ele><time>2026-04-25T17:31:23Z</time></trkpt><trkpt lat="43.60244004982656" lon="10.975407023374384"><ele>58.0</ele><time>2026-04-25T17:31:24Z</time></trkpt><trkpt lat="43.60251380708145" lon="10.975425541976838"><ele>57.0</ele><time>2026-04-25T17:31:25Z</time></trkpt><trkpt lat="43.60257968078607" lon="10.975441760658255"><ele>55.99999999999999</ele><time>2026-04-25T17:31:26Z</time></trkpt><trkpt lat="43.60268645356879" lon="10.975469797899322"><ele>55.0</ele><time>2026-04-25T17:31:28Z</time></trkpt><trkpt lat="43.6027900491286" lon="10.975479657362277"><ele>54.49999999999999</ele><time>2026-04-25T17:31:30Z</time></trkpt><trkpt lat="43.60288092292691" lon="10.975505447078092"><ele>54.0</ele><time>2026-04-25T17:31:32Z</time></trkpt><trkpt lat="43.602959949356126" lon="10.975525789317075"><ele>53.5</ele><time>2026-04-25T17:31:34Z</time></trkpt><trkpt lat="43.603034083538454" lon="10.975543498291492"><ele>53.0</ele><time>2026-04-25T17:31:36Z</time></trkpt><trkpt lat="43.60312402829214" lon="10.975552840342704"><ele>52.49999999999999</ele><time>2026-04-25T17:32:44Z</time></trkpt><trkpt lat="43.60323058440047" lon="10.975571488029066"><ele>52.0</ele><time>2026-04-25T17:32:46Z</time></trkpt><trkpt lat="43.603349087402876" lon="10.975601822914465"><ele>51.99999999999999</ele><time>2026-04-25T17:32:48Z</time></trkpt><trkpt lat="43.60341692338777" lon="10.97561960786843"><ele>52.0</ele><time>2026-04-25T17:32:49Z</time></trkpt><trkpt lat="43.60349648539603" lon="10.975637984130554"><ele>52.0</ele><time>2026-04-25T17:32:50Z</time></trkpt><trkpt lat="43.603572619112725" lon="10.97566288875536"><ele>52.0</ele><time>2026-04-25T17:32:51Z</time></trkpt><trkpt lat="43.60366163169292" lon="10.97568378371992"><ele>51.99999999999999</ele><time>2026-04-25T17:32:52Z</time></trkpt><trkpt lat="43.60375649209865" lon="10.975704365642043"><ele>52.0</ele><time>2026-04-25T17:32:53Z</time></trkpt><trkpt lat="43.60385359908904" lon="10.975726494680274"><ele>52.0</ele><time>2026-04-25T17:32:54Z</time></trkpt><trkpt lat="43.60394491859977" lon="10.975749771985624"><ele>52.0</ele><time>2026-04-25T17:32:55Z</time></trkpt><trkpt lat="43.60404507703925" lon="10.975780782148968"><ele>52.0</ele><time>2026-04-25T17:32:56Z</time></trkpt><trkpt lat="43.60415361771136" lon="10.975806982005103"><ele>52.0</ele><time>2026-04-25T17:32:57Z</time></trkpt><trkpt lat="43.60426092369262" lon="10.975832607046696"><ele>52.0</ele><time>2026-04-25T17:32:58Z</time></trkpt><trkpt lat="43.60437563978727" lon="10.975858543302312"><ele>51.75</ele><time>2026-04-25T17:32:59Z</time></trkpt><trkpt lat="43.6044906433479" lon="10.97588783552135"><ele>51.5</ele><time>2026-04-25T17:33:00Z</time></trkpt><trkpt lat="43.60461292981504" lon="10.975916473841213"><ele>51.25</ele><time>2026-04-25T17:33:01Z</time></trkpt><trkpt lat="43.604736534509875" lon="10.975943214322857"><ele>51.0</ele><time>2026-04-25T17:33:02Z</time></trkpt><trkpt lat="43.60485809972937" lon="10.975974881010593"><ele>51.0</ele><time>2026-04-25T17:33:03Z</time></trkpt><trkpt lat="43.604975111108644" lon="10.976009625576516"><ele>51.0</ele><time>2026-04-25T17:33:04Z</time></trkpt><trkpt lat="43.605101884696474" lon="10.976035154870578"><ele>51.0</ele><time>2026-04-25T17:33:05Z</time></trkpt><trkpt lat="43.605231410839295" lon="10.976062099021686"><ele>51.0</ele><time>2026-04-25T17:33:06Z</time></trkpt><trkpt lat="43.60536439525087" lon="10.976070025160702"><ele>51.25</ele><time>2026-04-25T17:33:07Z</time></trkpt><trkpt lat="43.60549912952263" lon="10.976065641829695"><ele>51.5</ele><time>2026-04-25T17:33:08Z</time></trkpt><trkpt lat="43.60562812346426" lon="10.9760565301474"><ele>51.75</ele><time>2026-04-25T17:33:09Z</time></trkpt><trkpt lat="43.605759302960365" lon="10.976027135934467"><ele>52.0</ele><time>2026-04-25T17:33:10Z</time></trkpt><trkpt lat="43.60588642388764" lon="10.97598298480932"><ele>52.0</ele><time>2026-04-25T17:33:11Z</time></trkpt><trkpt lat="43.60601461780498" lon="10.975919260012322"><ele>52.0</ele><time>2026-04-25T17:33:12Z</time></trkpt><trkpt lat="43.60612453871151" lon="10.975834988785284"><ele>52.0</ele><time>2026-04-25T17:33:13Z</time></trkpt><trkpt lat="43.606229780683115" lon="10.975730013988272"><ele>52.0</ele><time>2026-04-25T17:33:14Z</time></trkpt><trkpt lat="43.60632816900107" lon="10.975608892726383"><ele>53.5</ele><time>2026-04-25T17:33:15Z</time></trkpt><trkpt lat="43.606417153052774" lon="10.975473120273394"><ele>55.0</ele><time>2026-04-25T17:33:16Z</time></trkpt><trkpt lat="43.60649573837505" lon="10.97532545261671"><ele>56.5</ele><time>2026-04-25T17:33:17Z</time></trkpt><trkpt lat="43.606563506263" lon="10.975165093958749"><ele>58.0</ele><time>2026-04-25T17:33:18Z</time></trkpt><trkpt lat="43.60663872587749" lon="10.975011542696171"><ele>60.25</ele><time>2026-04-25T17:33:19Z</time></trkpt><trkpt lat="43.60669465182673" lon="10.974843027772135"><ele>62.5</ele><time>2026-04-25T17:33:20Z</time></trkpt><trkpt lat="43.6067519282776" lon="10.974671889694045"><ele>64.75</ele><time>2026-04-25T17:33:21Z</time></trkpt><trkpt lat="43.60680290958326" lon="10.974502035961834"><ele>67.0</ele><time>2026-04-25T17:33:22Z</time></trkpt><trkpt lat="43.60686019113256" lon="10.974329253022155"><ele>68.75</ele><time>2026-04-25T17:33:23Z</time></trkpt><trkpt lat="43.6069226337562" lon="10.974154117115605"><ele>70.5</ele><time>2026-04-25T17:33:24Z</time></trkpt><trkpt lat="43.60699320758694" lon="10.973989274025781"><ele>72.25</ele><time>2026-04-25T17:33:25Z</time></trkpt><trkpt lat="43.607073569740955" lon="10.973823532987367"><ele>74.0</ele><time>2026-04-25T17:33:26Z</time></trkpt><trkpt lat="43.607150627593946" lon="10.973670083786768"><ele>74.0</ele><time>2026-04-25T17:33:27Z</time></trkpt><trkpt lat="43.60723233718184" lon="10.973520683075135"><ele>74.0</ele><time>2026-04-25T17:33:28Z</time></trkpt><trkpt lat="43.607314868655735" lon="10.973374772039515"><ele>74.0</ele><time>2026-04-25T17:33:29Z</time></trkpt><trkpt lat="43.607390394982964" lon="10.973247330193505"><ele>74.0</ele><time>2026-04-25T17:33:30Z</time></trkpt><trkpt lat="43.607459456138955" lon="10.97312668886048"><ele>77.6</ele><time>2026-04-25T17:33:31Z</time></trkpt><trkpt lat="43.60752581658499" lon="10.97301601692188"><ele>81.2</ele><time>2026-04-25T17:33:32Z</time></trkpt><trkpt lat="43.60762585498116" lon="10.972933883737321"><ele>84.8</ele><time>2026-04-25T17:33:33Z</time></trkpt><trkpt lat="43.60771624376651" lon="10.97287152537724"><ele>88.39999999999999</ele><time>2026-04-25T17:33:34Z</time></trkpt><trkpt lat="43.60781739890224" lon="10.972832960687018"><ele>92.0</ele><time>2026-04-25T17:33:35Z</time></trkpt><trkpt lat="43.607925034898344" lon="10.972826351043492"><ele>92.0</ele><time>2026-04-25T17:33:36Z</time></trkpt><trkpt lat="43.60804144495614" lon="10.972844138475969"><ele>92.0</ele><time>2026-04-25T17:33:37Z</time></trkpt><trkpt lat="43.60814858124369" lon="10.972883022071374"><ele>92.0</ele><time>2026-04-25T17:33:38Z</time></trkpt><trkpt lat="43.60825937227998" lon="10.972941290529143"><ele>92.0</ele><time>2026-04-25T17:33:39Z</time></trkpt><trkpt lat="43.608389856601164" lon="10.973003619936991"><ele>92.0</ele><time>2026-04-25T17:33:40Z</time></trkpt><trkpt lat="43.60847282032348" lon="10.973029887951872"><ele>92.0</ele><time>2026-04-25T17:33:41Z</time></trkpt><trkpt lat="43.6085718684218" lon="10.973082857658358"><ele>92.0</ele><time>2026-04-25T17:33:42Z</time></trkpt><trkpt lat="43.608673489024774" lon="10.9731512182575"><ele>92.0</ele><time>2026-04-25T17:33:43Z</time></trkpt><trkpt lat="43.608778291178815" lon="10.97322611130482"><ele>92.0</ele><time>2026-04-25T17:33:44Z</time></trkpt><trkpt lat="43.60889151140031" lon="10.9733032267124"><ele>92.5</ele><time>2026-04-25T17:33:45Z</time></trkpt><trkpt lat="43.60900701649139" lon="10.97339122408536"><ele>93.0</ele><time>2026-04-25T17:33:46Z</time></trkpt><trkpt lat="43.6091211976411" lon="10.973486750238964"><ele>93.5</ele><time>2026-04-25T17:33:47Z</time></trkpt><trkpt lat="43.60924214491714" lon="10.973582260352165"><ele>94.0</ele><time>2026-04-25T17:33:48Z</time></trkpt><trkpt lat="43.60936114295399" lon="10.973678504883274"><ele>94.0</ele><time>2026-04-25T17:33:49Z</time></trkpt><trkpt lat="43.60948385301352" lon="10.973772194795389"><ele>94.0</ele><time>2026-04-25T17:33:50Z</time></trkpt><trkpt lat="43.60960564087749" lon="10.973868191420111"><ele>94.0</ele><time>2026-04-25T17:33:51Z</time></trkpt><trkpt lat="43.60972487017326" lon="10.973965880108226"><ele>94.0</ele><time>2026-04-25T17:33:52Z</time></trkpt><trkpt lat="43.609841169262374" lon="10.974058684748702"><ele>94.75</ele><time>2026-04-25T17:33:53Z</time></trkpt><trkpt lat="43.60995698246875" lon="10.974147314702362"><ele>95.5</ele><time>2026-04-25T17:33:54Z</time></trkpt><trkpt lat="43.61006884031004" lon="10.974241541859344"><ele>96.25</ele><time>2026-04-25T17:33:55Z</time></trkpt><trkpt lat="43.61018083001114" lon="10.974342801650536"><ele>97.0</ele><time>2026-04-25T17:33:56Z</time></trkpt><trkpt lat="43.61027732434954" lon="10.974457787888849"><ele>100.75</ele><time>2026-04-25T17:33:57Z</time></trkpt><trkpt lat="43.61037094611667" lon="10.974583864743607"><ele>104.5</ele><time>2026-04-25T17:33:58Z</time></trkpt><trkpt lat="43.61045841552628" lon="10.974720814779213"><ele>108.25</ele><time>2026-04-25T17:33:59Z</time></trkpt><trkpt lat="43.610532027490905" lon="10.9748697970529"><ele>112.0</ele><time>2026-04-25T17:34:00Z</time></trkpt><trkpt lat="43.61061643415763" lon="10.975012349152095"><ele>110.75</ele><time>2026-04-25T17:34:01Z</time></trkpt><trkpt lat="43.61072216257759" lon="10.975133971724826"><ele>109.5</ele><time>2026-04-25T17:34:02Z</time></trkpt><trkpt lat="43.61082575296273" lon="10.975248584291508"><ele>108.25</ele><time>2026-04-25T17:34:03Z</time></trkpt><trkpt lat="43.61093304599579" lon="10.975350908831555"><ele>107.0</ele><time>2026-04-25T17:34:04Z</time></trkpt><trkpt lat="43.611047805659055" lon="10.97542938383137"><ele>108.39999999999999</ele><time>2026-04-25T17:34:05Z</time></trkpt><trkpt lat="43.61115878993742" lon="10.97550099672165"><ele>109.79999999999998</ele><time>2026-04-25T17:34:06Z</time></trkpt><trkpt lat="43.611255649992835" lon="10.975566171130295"><ele>111.2</ele><time>2026-04-25T17:34:07Z</time></trkpt><trkpt lat="43.611339701677" lon="10.975631696902964"><ele>112.6</ele><time>2026-04-25T17:34:08Z</time></trkpt><trkpt lat="43.61141422088084" lon="10.975684293604115"><ele>114.0</ele><time>2026-04-25T17:34:09Z</time></trkpt><trkpt lat="43.61147595242368" lon="10.975729875076466"><ele>114.0</ele><time>2026-04-25T17:34:10Z</time></trkpt><trkpt lat="43.61157700825364" lon="10.97580895529668"><ele>114.0</ele><time>2026-04-25T17:34:12Z</time></trkpt><trkpt lat="43.61163210630642" lon="10.97585952200076"><ele>114.0</ele><time>2026-04-25T17:34:14Z</time></trkpt><trkpt lat="43.611713678405856" lon="10.975921448371082"><ele>114.0</ele><time>2026-04-25T17:38:12Z</time></trkpt><trkpt lat="43.61177394719275" lon="10.975956204445882"><ele>114.0</ele><time>2026-04-25T17:38:13Z</time></trkpt><trkpt lat="43.61184714001543" lon="10.976018363784734"><ele>114.0</ele><time>2026-04-25T17:38:14Z</time></trkpt><trkpt lat="43.61191531201163" lon="10.97609063034806"><ele>115.0</ele><time>2026-04-25T17:38:15Z</time></trkpt><trkpt lat="43.61199658449727" lon="10.976172829527973"><ele>116.0</ele><time>2026-04-25T17:38:16Z</time></trkpt><trkpt lat="43.61207818163666" lon="10.976257462948968"><ele>117.0</ele><time>2026-04-25T17:38:17Z</time></trkpt><trkpt lat="43.61215774533368" lon="10.976354852996492"><ele>118.0</ele><time>2026-04-25T17:38:18Z</time></trkpt><trkpt lat="43.612239985544754" lon="10.97646708565452"><ele>119.0</ele><time>2026-04-25T17:38:19Z</time></trkpt><trkpt lat="43.61231885490332" lon="10.976603313365874"><ele>119.5</ele><time>2026-04-25T17:38:20Z</time></trkpt><trkpt lat="43.612398328600335" lon="10.97673698159227"><ele>120.0</ele><time>2026-04-25T17:38:21Z</time></trkpt><trkpt lat="43.6124796649462" lon="10.976878121030433"><ele>120.5</ele><time>2026-04-25T17:38:22Z</time></trkpt><trkpt lat="43.6125569089715" lon="10.97704347385182"><ele>121.0</ele><time>2026-04-25T17:38:23Z</time></trkpt><trkpt lat="43.6126189160569" lon="10.977222341182571"><ele>121.0</ele><time>2026-04-25T17:38:24Z</time></trkpt><trkpt lat="43.612685928400964" lon="10.977377929222577"><ele>121.0</ele><time>2026-04-25T17:38:25Z</time></trkpt><trkpt lat="43.61275300180012" lon="10.977548694348235"><ele>121.0</ele><time>2026-04-25T17:38:26Z</time></trkpt><trkpt lat="43.61281816432682" lon="10.977707878476227"><ele>121.0</ele><time>2026-04-25T17:38:27Z</time></trkpt><trkpt lat="43.61288452993963" lon="10.977868595832433"><ele>121.25</ele><time>2026-04-25T17:38:28Z</time></trkpt><trkpt lat="43.61295171526628" lon="10.978034328798781"><ele>121.5</ele><time>2026-04-25T17:38:29Z</time></trkpt><trkpt lat="43.61301462110817" lon="10.978205405034675"><ele>121.75</ele><time>2026-04-25T17:38:30Z</time></trkpt><trkpt lat="43.61308247377229" lon="10.978374534710015"><ele>122.0</ele><time>2026-04-25T17:38:31Z</time></trkpt><trkpt lat="43.61315693633903" lon="10.978542780394863"><ele>121.0</ele><time>2026-04-25T17:38:32Z</time></trkpt><trkpt lat="43.613241111219764" lon="10.97870128628857"><ele>120.0</ele><time>2026-04-25T17:38:33Z</time></trkpt><trkpt lat="43.613333830607935" lon="10.978851829867352"><ele>119.0</ele><time>2026-04-25T17:38:34Z</time></trkpt><trkpt lat="43.61343671167084" lon="10.978994998945614"><ele>118.0</ele><time>2026-04-25T17:38:35Z</time></trkpt><trkpt lat="43.61354890067904" lon="10.97913639676585"><ele>118.25</ele><time>2026-04-25T17:38:36Z</time></trkpt><trkpt lat="43.61364644432869" lon="10.979278658995145"><ele>118.5</ele><time>2026-04-25T17:38:37Z</time></trkpt><trkpt lat="43.613766940081696" lon="10.979403861139692"><ele>118.75</ele><time>2026-04-25T17:38:38Z</time></trkpt><trkpt lat="43.61388844097869" lon="10.979535132467499"><ele>119.0</ele><time>2026-04-25T17:38:39Z</time></trkpt><trkpt lat="43.61400950686546" lon="10.979661416050833"><ele>119.0</ele><time>2026-04-25T17:38:40Z</time></trkpt><trkpt lat="43.6141269396074" lon="10.979790178351166"><ele>119.0</ele><time>2026-04-25T17:38:41Z</time></trkpt><trkpt lat="43.614244716836794" lon="10.979918969622192"><ele>119.0</ele><time>2026-04-25T17:38:42Z</time></trkpt><trkpt lat="43.61435965180114" lon="10.980049027679552"><ele>119.0</ele><time>2026-04-25T17:38:43Z</time></trkpt><trkpt lat="43.61446428507975" lon="10.980175538730784"><ele>121.0</ele><time>2026-04-25T17:38:44Z</time></trkpt><trkpt lat="43.61456288439807" lon="10.980286598904929"><ele>123.0</ele><time>2026-04-25T17:38:45Z</time></trkpt><trkpt lat="43.61467000797487" lon="10.980404285009001"><ele>125.0</ele><time>2026-04-25T17:38:46Z</time></trkpt><trkpt lat="43.61477129816357" lon="10.980536967724307"><ele>127.0</ele><time>2026-04-25T17:38:47Z</time></trkpt><trkpt lat="43.61485521176004" lon="10.98069199623963"><ele>127.0</ele><time>2026-04-25T17:38:48Z</time></trkpt><trkpt lat="43.6149437836457" lon="10.98084708875689"><ele>127.0</ele><time>2026-04-25T17:38:49Z</time></trkpt><trkpt lat="43.61501122958954" lon="10.981025175355127"><ele>127.0</ele><time>2026-04-25T17:38:50Z</time></trkpt><trkpt lat="43.61506555124799" lon="10.981195643642707"><ele>127.0</ele><time>2026-04-25T17:38:51Z</time></trkpt><trkpt lat="43.61510820008632" lon="10.981383941989197"><ele>128.75</ele><time>2026-04-25T17:38:52Z</time></trkpt><trkpt lat="43.61513300796443" lon="10.981584530663485"><ele>130.5</ele><time>2026-04-25T17:38:53Z</time></trkpt><trkpt lat="43.61515270929704" lon="10.981786953148118"><ele>132.25</ele><time>2026-04-25T17:38:54Z</time></trkpt><trkpt lat="43.61516575432883" lon="10.981986391364229"><ele>134.0</ele><time>2026-04-25T17:38:55Z</time></trkpt><trkpt lat="43.615183423244915" lon="10.982180711662416"><ele>134.25</ele><time>2026-04-25T17:38:56Z</time></trkpt><trkpt lat="43.61520413532693" lon="10.982359883173249"><ele>134.5</ele><time>2026-04-25T17:38:57Z</time></trkpt><trkpt lat="43.615239568645215" lon="10.982548921177584"><ele>134.75</ele><time>2026-04-25T17:38:58Z</time></trkpt><trkpt lat="43.61528274770138" lon="10.982732277489262"><ele>135.0</ele><time>2026-04-25T17:38:59Z</time></trkpt><trkpt lat="43.615341237079726" lon="10.982902138403912"><ele>135.25</ele><time>2026-04-25T17:39:00Z</time></trkpt><trkpt lat="43.61541704306898" lon="10.983057816121141"><ele>135.5</ele><time>2026-04-25T17:39:01Z</time></trkpt><trkpt lat="43.6154993673456" lon="10.983202494352168"><ele>135.75</ele><time>2026-04-25T17:39:02Z</time></trkpt><trkpt lat="43.615602787423185" lon="10.983333677226698"><ele>136.0</ele><time>2026-04-25T17:39:03Z</time></trkpt><trkpt lat="43.61571449075641" lon="10.983458950730888"><ele>135.5</ele><time>2026-04-25T17:39:04Z</time></trkpt><trkpt lat="43.61584081500859" lon="10.983573667470836"><ele>135.0</ele><time>2026-04-25T17:39:05Z</time></trkpt><trkpt lat="43.61596662770063" lon="10.983676527128864"><ele>134.5</ele><time>2026-04-25T17:39:06Z</time></trkpt><trkpt lat="43.61609254627432" lon="10.983765681499861"><ele>134.0</ele><time>2026-04-25T17:39:07Z</time></trkpt><trkpt lat="43.616217677730056" lon="10.983856087716601"><ele>134.0</ele><time>2026-04-25T17:39:08Z</time></trkpt><trkpt lat="43.61634218866601" lon="10.983961215832837"><ele>134.0</ele><time>2026-04-25T17:39:09Z</time></trkpt><trkpt lat="43.616471843942335" lon="10.98405549435362"><ele>134.0</ele><time>2026-04-25T17:39:10Z</time></trkpt><trkpt lat="43.61660238351741" lon="10.984144887775264"><ele>134.0</ele><time>2026-04-25T17:39:11Z</time></trkpt><trkpt lat="43.6167313004177" lon="10.984231548902995"><ele>131.5</ele><time>2026-04-25T17:39:12Z</time></trkpt><trkpt lat="43.616867456157664" lon="10.98430913622769"><ele>129.0</ele><time>2026-04-25T17:39:13Z</time></trkpt><trkpt lat="43.61700952623389" lon="10.984382647023304"><ele>126.5</ele><time>2026-04-25T17:39:14Z</time></trkpt><trkpt lat="43.61714990958881" lon="10.984448294957891"><ele>124.0</ele><time>2026-04-25T17:39:15Z</time></trkpt><trkpt lat="43.617291199612" lon="10.984508976182017"><ele>124.0</ele><time>2026-04-25T17:39:16Z</time></trkpt><trkpt lat="43.617433507750796" lon="10.984561923028178"><ele>124.0</ele><time>2026-04-25T17:39:17Z</time></trkpt><trkpt lat="43.61758597315992" lon="10.984595045144955"><ele>124.0</ele><time>2026-04-25T17:39:18Z</time></trkpt><trkpt lat="43.61773556841998" lon="10.984642426960791"><ele>123.75</ele><time>2026-04-25T17:39:19Z</time></trkpt><trkpt lat="43.617884333805655" lon="10.984689038031402"><ele>123.5</ele><time>2026-04-25T17:39:20Z</time></trkpt><trkpt lat="43.61803047218857" lon="10.984749742206263"><ele>123.25</ele><time>2026-04-25T17:39:21Z</time></trkpt><trkpt lat="43.618162710345345" lon="10.984809468156516"><ele>123.0</ele><time>2026-04-25T17:39:22Z</time></trkpt><trkpt lat="43.6182979159261" lon="10.984885780736038"><ele>123.0</ele><time>2026-04-25T17:39:23Z</time></trkpt><trkpt lat="43.61843099348856" lon="10.984979318362038"><ele>123.0</ele><time>2026-04-25T17:39:24Z</time></trkpt><trkpt lat="43.618549248897665" lon="10.98508498979589"><ele>123.0</ele><time>2026-04-25T17:39:25Z</time></trkpt><trkpt lat="43.61867973686717" lon="10.98518984591571"><ele>123.0</ele><time>2026-04-25T17:39:26Z</time></trkpt><trkpt lat="43.61881607744029" lon="10.985298345722358"><ele>121.33333333333334</ele><time>2026-04-25T17:39:27Z</time></trkpt><trkpt lat="43.618947879518814" lon="10.985402620774973"><ele>119.66666666666667</ele><time>2026-04-25T17:39:28Z</time></trkpt><trkpt lat="43.61908229943082" lon="10.985513500583496"><ele>118.0</ele><time>2026-04-25T17:39:29Z</time></trkpt><trkpt lat="43.619216609899645" lon="10.985628779623141"><ele>118.0</ele><time>2026-04-25T17:39:30Z</time></trkpt><trkpt lat="43.61934343512582" lon="10.985742246269082"><ele>118.0</ele><time>2026-04-25T17:39:31Z</time></trkpt><trkpt lat="43.61947107628468" lon="10.985861378249222"><ele>118.0</ele><time>2026-04-25T17:39:32Z</time></trkpt><trkpt lat="43.61959670807428" lon="10.985993114562476"><ele>118.66666666666667</ele><time>2026-04-25T17:39:33Z</time></trkpt><trkpt lat="43.61971579728401" lon="10.986146488315597"><ele>119.33333333333334</ele><time>2026-04-25T17:39:34Z</time></trkpt><trkpt lat="43.61982578640107" lon="10.986315424765225"><ele>120.0</ele><time>2026-04-25T17:39:35Z</time></trkpt><trkpt lat="43.619933086761485" lon="10.986490059520467"><ele>120.0</ele><time>2026-04-25T17:39:36Z</time></trkpt><trkpt lat="43.62004143667527" lon="10.986658643959968"><ele>120.0</ele><time>2026-04-25T17:39:37Z</time></trkpt><trkpt lat="43.62014304874328" lon="10.986824274779705"><ele>120.0</ele><time>2026-04-25T17:39:38Z</time></trkpt><trkpt lat="43.62023951188782" lon="10.98697776141139"><ele>120.5</ele><time>2026-04-25T17:39:39Z</time></trkpt><trkpt lat="43.620337961842964" lon="10.987129137869522"><ele>121.0</ele><time>2026-04-25T17:39:40Z</time></trkpt><trkpt lat="43.62043618477942" lon="10.987281706915855"><ele>121.5</ele><time>2026-04-25T17:39:41Z</time></trkpt><trkpt lat="43.620533233931454" lon="10.9874335959412"><ele>122.0</ele><time>2026-04-25T17:39:42Z</time></trkpt><trkpt lat="43.62063177362151" lon="10.987582250437551"><ele>122.75</ele><time>2026-04-25T17:39:43Z</time></trkpt><trkpt lat="43.620729648560236" lon="10.987728789363572"><ele>123.5</ele><time>2026-04-25T17:39:44Z</time></trkpt><trkpt lat="43.620837190399655" lon="10.987863540399436"><ele>124.25</ele><time>2026-04-25T17:39:45Z</time></trkpt><trkpt lat="43.62095205503179" lon="10.987986775547657"><ele>125.0</ele><time>2026-04-25T17:39:46Z</time></trkpt><trkpt lat="43.62108151956844" lon="10.98808952871799"><ele>123.33333333333333</ele><time>2026-04-25T17:39:47Z</time></trkpt><trkpt lat="43.62121766753972" lon="10.988175686013166"><ele>121.66666666666666</ele><time>2026-04-25T17:39:48Z</time></trkpt><trkpt lat="43.62135991152747" lon="10.988235827797043"><ele>120.0</ele><time>2026-04-25T17:39:49Z</time></trkpt><trkpt lat="43.6215113492945" lon="10.9882838814315"><ele>120.0</ele><time>2026-04-25T17:39:50Z</time></trkpt><trkpt lat="43.62166370376561" lon="10.988315209536037"><ele>120.0</ele><time>2026-04-25T17:39:51Z</time></trkpt><trkpt lat="43.62181852596719" lon="10.988335035580397"><ele>120.0</ele><time>2026-04-25T17:39:52Z</time></trkpt><trkpt lat="43.62198130213915" lon="10.988349238585931"><ele>120.33333333333334</ele><time>2026-04-25T17:39:53Z</time></trkpt><trkpt lat="43.62213456610374" lon="10.988359507699732"><ele>120.66666666666667</ele><time>2026-04-25T17:39:54Z</time></trkpt><trkpt lat="43.6222904965248" lon="10.988372816126867"><ele>121.0</ele><time>2026-04-25T17:39:55Z</time></trkpt><trkpt lat="43.62244973323172" lon="10.988389568394208"><ele>121.0</ele><time>2026-04-25T17:39:56Z</time></trkpt><trkpt lat="43.622598647875975" lon="10.988400982602016"><ele>121.0</ele><time>2026-04-25T17:39:57Z</time></trkpt><trkpt lat="43.62274558579822" lon="10.988409266273436"><ele>121.0</ele><time>2026-04-25T17:39:58Z</time></trkpt><trkpt lat="43.6228975875785" lon="10.98842550173919"><ele>121.0</ele><time>2026-04-25T17:39:59Z</time></trkpt><trkpt lat="43.62304943519081" lon="10.98844027998436"><ele>119.25</ele><time>2026-04-25T17:40:00Z</time></trkpt><trkpt lat="43.62319435963307" lon="10.988454399082617"><ele>117.5</ele><time>2026-04-25T17:40:01Z</time></trkpt><trkpt lat="43.62333666003125" lon="10.988472146541334"><ele>115.75</ele><time>2026-04-25T17:40:02Z</time></trkpt><trkpt lat="43.62347448512174" lon="10.98850102887267"><ele>114.0</ele><time>2026-04-25T17:40:03Z</time></trkpt><trkpt lat="43.62360578619819" lon="10.988573941311198"><ele>114.33333333333334</ele><time>2026-04-25T17:40:04Z</time></trkpt><trkpt lat="43.62373574624423" lon="10.988667667437305"><ele>114.66666666666667</ele><time>2026-04-25T17:40:05Z</time></trkpt><trkpt lat="43.623854796248395" lon="10.988795909629967"><ele>115.0</ele><time>2026-04-25T17:40:06Z</time></trkpt><trkpt lat="43.62397684171205" lon="10.988938791908053"><ele>115.0</ele><time>2026-04-25T17:40:07Z</time></trkpt><trkpt lat="43.62408123792157" lon="10.989083188992886"><ele>115.0</ele><time>2026-04-25T17:40:08Z</time></trkpt><trkpt lat="43.62418141815733" lon="10.989224223156153"><ele>115.0</ele><time>2026-04-25T17:40:09Z</time></trkpt><trkpt lat="43.62428960846017" lon="10.989355599856786"><ele>115.0</ele><time>2026-04-25T17:40:10Z</time></trkpt><trkpt lat="43.6244016061512" lon="10.98947777317344"><ele>116.75</ele><time>2026-04-25T17:40:11Z</time></trkpt><trkpt lat="43.62452107425297" lon="10.989587597500925"><ele>118.5</ele><time>2026-04-25T17:40:12Z</time></trkpt><trkpt lat="43.62463690285187" lon="10.989690001221847"><ele>120.25</ele><time>2026-04-25T17:40:13Z</time></trkpt><trkpt lat="43.62475713815695" lon="10.989776901231561"><ele>122.0</ele><time>2026-04-25T17:40:14Z</time></trkpt><trkpt lat="43.624888187479435" lon="10.989844602070653"><ele>122.0</ele><time>2026-04-25T17:40:15Z</time></trkpt><trkpt lat="43.625024498326425" lon="10.989896304458384"><ele>122.0</ele><time>2026-04-25T17:40:16Z</time></trkpt><trkpt lat="43.625171745968245" lon="10.989925635094215"><ele>122.0</ele><time>2026-04-25T17:40:17Z</time></trkpt><trkpt lat="43.62531637236636" lon="10.989937728607769"><ele>122.0</ele><time>2026-04-25T17:40:18Z</time></trkpt><trkpt lat="43.625463693611934" lon="10.989938115757965"><ele>122.0</ele><time>2026-04-25T17:40:19Z</time></trkpt><trkpt lat="43.625606672232024" lon="10.989926339657986"><ele>122.0</ele><time>2026-04-25T17:40:20Z</time></trkpt><trkpt lat="43.62575140908308" lon="10.989917387893676"><ele>122.0</ele><time>2026-04-25T17:40:21Z</time></trkpt><trkpt lat="43.62589409311991" lon="10.989912287968309"><ele>122.0</ele><time>2026-04-25T17:40:22Z</time></trkpt><trkpt lat="43.626036655488534" lon="10.989902566183657"><ele>122.75</ele><time>2026-04-25T17:40:23Z</time></trkpt><trkpt lat="43.626175974935535" lon="10.989894471881888"><ele>123.5</ele><time>2026-04-25T17:40:24Z</time></trkpt><trkpt lat="43.62632136246557" lon="10.989884021340316"><ele>124.25</ele><time>2026-04-25T17:40:25Z</time></trkpt><trkpt lat="43.62644886278856" lon="10.989891279108061"><ele>125.0</ele><time>2026-04-25T17:40:26Z</time></trkpt><trkpt lat="43.6265653928118" lon="10.989915589009193"><ele>125.0</ele><time>2026-04-25T17:40:27Z</time></trkpt><trkpt lat="43.626694544324785" lon="10.989955412917675"><ele>125.0</ele><time>2026-04-25T17:40:28Z</time></trkpt><trkpt lat="43.626816926083876" lon="10.990018214924293"><ele>125.0</ele><time>2026-04-25T17:40:29Z</time></trkpt><trkpt lat="43.626944543721265" lon="10.990099053481163"><ele>125.0</ele><time>2026-04-25T17:40:30Z</time></trkpt><trkpt lat="43.6270662908131" lon="10.990192438540003"><ele>126.25</ele><time>2026-04-25T17:40:31Z</time></trkpt><trkpt lat="43.62718823067594" lon="10.990281536287599"><ele>127.5</ele><time>2026-04-25T17:40:32Z</time></trkpt><trkpt lat="43.62730482383117" lon="10.990383992547983"><ele>128.75</ele><time>2026-04-25T17:40:33Z</time></trkpt><trkpt lat="43.627424897047256" lon="10.99048773000853"><ele>130.0</ele><time>2026-04-25T17:40:34Z</time></trkpt><trkpt lat="43.627541692349816" lon="10.990580161708904"><ele>130.0</ele><time>2026-04-25T17:40:35Z</time></trkpt><trkpt lat="43.627649691979684" lon="10.990669154728161"><ele>130.0</ele><time>2026-04-25T17:40:36Z</time></trkpt><trkpt lat="43.62775018156386" lon="10.990777326200302"><ele>130.0</ele><time>2026-04-25T17:40:37Z</time></trkpt><trkpt lat="43.627837803488916" lon="10.990910446701722"><ele>130.0</ele><time>2026-04-25T17:40:38Z</time></trkpt><trkpt lat="43.62791272883428" lon="10.991066661826762"><ele>131.5</ele><time>2026-04-25T17:40:39Z</time></trkpt><trkpt lat="43.62797691330395" lon="10.991234325587033"><ele>133.0</ele><time>2026-04-25T17:40:40Z</time></trkpt><trkpt lat="43.62802588389978" lon="10.991411818869974"><ele>134.5</ele><time>2026-04-25T17:40:41Z</time></trkpt><trkpt lat="43.62805996560727" lon="10.99160485521054"><ele>136.0</ele><time>2026-04-25T17:40:42Z</time></trkpt><trkpt lat="43.628094307222156" lon="10.991798291225685"><ele>136.5</ele><time>2026-04-25T17:40:43Z</time></trkpt><trkpt lat="43.62811810034" lon="10.991995003136982"><ele>137.0</ele><time>2026-04-25T17:40:44Z</time></trkpt><trkpt lat="43.628153492466275" lon="10.992193147565175"><ele>137.5</ele><time>2026-04-25T17:40:45Z</time></trkpt><trkpt lat="43.628187897490186" lon="10.992383761911547"><ele>138.0</ele><time>2026-04-25T17:40:46Z</time></trkpt><trkpt lat="43.62822692752423" lon="10.992567420336336"><ele>138.5</ele><time>2026-04-25T17:40:47Z</time></trkpt><trkpt lat="43.62826817226303" lon="10.99275848546924"><ele>139.0</ele><time>2026-04-25T17:40:48Z</time></trkpt><trkpt lat="43.6283002241491" lon="10.99295288642959"><ele>139.5</ele><time>2026-04-25T17:40:49Z</time></trkpt><trkpt lat="43.6283372657741" lon="10.993144364489583"><ele>140.0</ele><time>2026-04-25T17:40:50Z</time></trkpt><trkpt lat="43.628378747906645" lon="10.993333102869363"><ele>138.0</ele><time>2026-04-25T17:40:51Z</time></trkpt><trkpt lat="43.62842294148829" lon="10.99351955979652"><ele>136.0</ele><time>2026-04-25T17:40:52Z</time></trkpt><trkpt lat="43.628478016274585" lon="10.993704319272673"><ele>134.0</ele><time>2026-04-25T17:40:53Z</time></trkpt><trkpt lat="43.62854923766952" lon="10.99388624870342"><ele>132.0</ele><time>2026-04-25T17:40:54Z</time></trkpt><trkpt lat="43.62862452310595" lon="10.99405927365224"><ele>135.25</ele><time>2026-04-25T17:40:55Z</time></trkpt><trkpt lat="43.62871110750233" lon="10.99422355423463"><ele>138.5</ele><time>2026-04-25T17:40:56Z</time></trkpt><trkpt lat="43.62880460667988" lon="10.99438406674164"><ele>141.75</ele><time>2026-04-25T17:40:57Z</time></trkpt><trkpt lat="43.6288876346687" lon="10.99454411034366"><ele>145.0</ele><time>2026-04-25T17:40:58Z</time></trkpt><trkpt lat="43.628967361248556" lon="10.994712256970448"><ele>145.0</ele><time>2026-04-25T17:40:59Z</time></trkpt><trkpt lat="43.62904871542153" lon="10.994882758378774"><ele>145.0</ele><time>2026-04-25T17:41:00Z</time></trkpt><trkpt lat="43.62913227434459" lon="10.995050384456986"><ele>145.0</ele><time>2026-04-25T17:41:01Z</time></trkpt><trkpt lat="43.62922403954637" lon="10.995218130989224"><ele>145.0</ele><time>2026-04-25T17:41:02Z</time></trkpt><trkpt lat="43.62932653609525" lon="10.995370633062606"><ele>144.66666666666669</ele><time>2026-04-25T17:41:03Z</time></trkpt><trkpt lat="43.62943490799733" lon="10.99551677029222"><ele>144.33333333333334</ele><time>2026-04-25T17:41:04Z</time></trkpt><trkpt lat="43.62954312463395" lon="10.995668659948342"><ele>144.0</ele><time>2026-04-25T17:41:05Z</time></trkpt><trkpt lat="43.62965464443719" lon="10.99581823956103"><ele>143.0</ele><time>2026-04-25T17:41:06Z</time></trkpt><trkpt lat="43.62976683560823" lon="10.995968367081293"><ele>142.0</ele><time>2026-04-25T17:41:07Z</time></trkpt><trkpt lat="43.62988147580508" lon="10.99612040009693"><ele>141.0</ele><time>2026-04-25T17:41:08Z</time></trkpt><trkpt lat="43.62999952543783" lon="10.996273224931295"><ele>141.0</ele><time>2026-04-25T17:41:09Z</time></trkpt><trkpt lat="43.63011703328914" lon="10.996426655415815"><ele>141.0</ele><time>2026-04-25T17:41:10Z</time></trkpt><trkpt lat="43.630235458124936" lon="10.996582898418424"><ele>141.0</ele><time>2026-04-25T17:41:11Z</time></trkpt><trkpt lat="43.63035387382112" lon="10.99673508243169"><ele>141.66666666666666</ele><time>2026-04-25T17:41:12Z</time></trkpt><trkpt lat="43.63047113828214" lon="10.996887056023954"><ele>142.33333333333331</ele><time>2026-04-25T17:41:13Z</time></trkpt><trkpt lat="43.630580324270056" lon="10.997032184889244"><ele>143.0</ele><time>2026-04-25T17:41:14Z</time></trkpt><trkpt lat="43.63067842504434" lon="10.997190863478819"><ele>143.0</ele><time>2026-04-25T17:41:15Z</time></trkpt><trkpt lat="43.63076332395014" lon="10.997370228192016"><ele>143.0</ele><time>2026-04-25T17:41:16Z</time></trkpt><trkpt lat="43.63084150492929" lon="10.997559490892648"><ele>143.0</ele><time>2026-04-25T17:41:17Z</time></trkpt><trkpt lat="43.6309104180911" lon="10.997763199971851"><ele>143.33333333333331</ele><time>2026-04-25T17:41:18Z</time></trkpt><trkpt lat="43.63097533104199" lon="10.99797309083407"><ele>143.66666666666666</ele><time>2026-04-25T17:41:19Z</time></trkpt><trkpt lat="43.6310390861014" lon="10.998188025541921"><ele>144.0</ele><time>2026-04-25T17:41:20Z</time></trkpt><trkpt lat="43.63111069395948" lon="10.998403029181887"><ele>145.66666666666666</ele><time>2026-04-25T17:41:21Z</time></trkpt><trkpt lat="43.63118293103753" lon="10.998622075952827"><ele>147.33333333333331</ele><time>2026-04-25T17:41:22Z</time></trkpt><trkpt lat="43.63125943730747" lon="10.998839039109242"><ele>149.0</ele><time>2026-04-25T17:41:23Z</time></trkpt><trkpt lat="43.63133294166715" lon="10.99905537158617"><ele>148.33333333333331</ele><time>2026-04-25T17:41:24Z</time></trkpt><trkpt lat="43.6314094703858" lon="10.999266447447662"><ele>147.66666666666666</ele><time>2026-04-25T17:41:25Z</time></trkpt><trkpt lat="43.631495054097606" lon="10.99948002421695"><ele>147.0</ele><time>2026-04-25T17:41:26Z</time></trkpt><trkpt lat="43.63159654494993" lon="10.999681512065312"><ele>147.0</ele><time>2026-04-25T17:41:27Z</time></trkpt><trkpt lat="43.63170296459143" lon="10.999883056813479"><ele>147.0</ele><time>2026-04-25T17:41:28Z</time></trkpt><trkpt lat="43.631812036557044" lon="11.00007403346606"><ele>147.0</ele><time>2026-04-25T17:41:29Z</time></trkpt><trkpt lat="43.631921206523614" lon="11.000268767859595"><ele>148.33333333333334</ele><time>2026-04-25T17:41:30Z</time></trkpt><trkpt lat="43.632030564352775" lon="11.000459784569523"><ele>149.66666666666669</ele><time>2026-04-25T17:41:31Z</time></trkpt><trkpt lat="43.63213927623416" lon="11.000651106946853"><ele>151.0</ele><time>2026-04-25T17:41:32Z</time></trkpt><trkpt lat="43.632249974587914" lon="11.00084368912745"><ele>152.33333333333334</ele><time>2026-04-25T17:41:33Z</time></trkpt><trkpt lat="43.6323599986949" lon="11.00104915603075"><ele>153.66666666666666</ele><time>2026-04-25T17:41:34Z</time></trkpt><trkpt lat="43.63247677191713" lon="11.001234858521544"><ele>155.0</ele><time>2026-04-25T17:41:35Z</time></trkpt><trkpt lat="43.632584256582305" lon="11.001421933807979"><ele>155.0</ele><time>2026-04-25T17:41:36Z</time></trkpt><trkpt lat="43.63269037579314" lon="11.001615939380606"><ele>155.0</ele><time>2026-04-25T17:41:37Z</time></trkpt><trkpt lat="43.63280305248849" lon="11.001813826557546"><ele>155.0</ele><time>2026-04-25T17:41:38Z</time></trkpt><trkpt lat="43.63291255712845" lon="11.002005255937297"><ele>157.66666666666666</ele><time>2026-04-25T17:41:39Z</time></trkpt><trkpt lat="43.6330199636953" lon="11.002196594449806"><ele>160.33333333333334</ele><time>2026-04-25T17:41:40Z</time></trkpt><trkpt lat="43.63311588358717" lon="11.002378226597964"><ele>163.0</ele><time>2026-04-25T17:41:41Z</time></trkpt><trkpt lat="43.63321208624386" lon="11.002543436935628"><ele>163.0</ele><time>2026-04-25T17:41:42Z</time></trkpt><trkpt lat="43.63330198817769" lon="11.00270906047445"><ele>163.0</ele><time>2026-04-25T17:41:43Z</time></trkpt><trkpt lat="43.63337695610978" lon="11.002870796518877"><ele>163.0</ele><time>2026-04-25T17:41:44Z</time></trkpt><trkpt lat="43.63342016861257" lon="11.003044341019923"><ele>163.0</ele><time>2026-04-25T17:41:45Z</time></trkpt><trkpt lat="43.6334778728751" lon="11.00321588949256"><ele>163.25</ele><time>2026-04-25T17:41:46Z</time></trkpt><trkpt lat="43.63351156238432" lon="11.003401850116191"><ele>163.5</ele><time>2026-04-25T17:41:47Z</time></trkpt><trkpt lat="43.63350644952813" lon="11.003593279548635"><ele>163.75</ele><time>2026-04-25T17:41:48Z</time></trkpt><trkpt lat="43.6335166732961" lon="11.003794994044984"><ele>164.0</ele><time>2026-04-25T17:41:49Z</time></trkpt><trkpt lat="43.63349679675435" lon="11.003993621101218"><ele>164.5</ele><time>2026-04-25T17:41:50Z</time></trkpt><trkpt lat="43.633480629073844" lon="11.004170369268172"><ele>165.0</ele><time>2026-04-25T17:41:51Z</time></trkpt><trkpt lat="43.63346741484252" lon="11.004339271628815"><ele>165.5</ele><time>2026-04-25T17:41:52Z</time></trkpt><trkpt lat="43.633465147301436" lon="11.004511065827597"><ele>166.0</ele><time>2026-04-25T17:41:53Z</time></trkpt><trkpt lat="43.63348288872666" lon="11.004680324062026"><ele>166.0</ele><time>2026-04-25T17:41:54Z</time></trkpt><trkpt lat="43.633519906186834" lon="11.004842401723076"><ele>166.0</ele><time>2026-04-25T17:41:55Z</time></trkpt><trkpt lat="43.63357559196091" lon="11.005002133950786"><ele>166.0</ele><time>2026-04-25T17:41:56Z</time></trkpt><trkpt lat="43.63364931059825" lon="11.00515729318446"><ele>166.0</ele><time>2026-04-25T17:41:57Z</time></trkpt><trkpt lat="43.633724048280875" lon="11.005313861164359"><ele>167.0</ele><time>2026-04-25T17:41:58Z</time></trkpt><trkpt lat="43.63381603190358" lon="11.005441599877399"><ele>168.0</ele><time>2026-04-25T17:41:59Z</time></trkpt><trkpt lat="43.63391835962283" lon="11.005555933115307"><ele>169.0</ele><time>2026-04-25T17:42:00Z</time></trkpt><trkpt lat="43.634031176396476" lon="11.005647685050594"><ele>170.0</ele><time>2026-04-25T17:42:01Z</time></trkpt><trkpt lat="43.63414799531837" lon="11.005715729585466"><ele>170.0</ele><time>2026-04-25T17:42:02Z</time></trkpt><trkpt lat="43.634271391646536" lon="11.005771061842562"><ele>170.0</ele><time>2026-04-25T17:42:03Z</time></trkpt><trkpt lat="43.634410552647196" lon="11.005808797396767"><ele>170.0</ele><time>2026-04-25T17:42:04Z</time></trkpt><trkpt lat="43.63454403262975" lon="11.005838692261197"><ele>170.0</ele><time>2026-04-25T17:42:05Z</time></trkpt><trkpt lat="43.634671603992736" lon="11.00585656165827"><ele>168.25</ele><time>2026-04-25T17:42:06Z</time></trkpt><trkpt lat="43.63479078752841" lon="11.005885213627824"><ele>166.5</ele><time>2026-04-25T17:42:07Z</time></trkpt><trkpt lat="43.63490747519397" lon="11.005933618992486"><ele>164.75</ele><time>2026-04-25T17:42:08Z</time></trkpt><trkpt lat="43.635017522554364" lon="11.005977604660005"><ele>163.0</ele><time>2026-04-25T17:42:09Z</time></trkpt><trkpt lat="43.63512577830725" lon="11.006019902996506"><ele>163.0</ele><time>2026-04-25T17:42:10Z</time></trkpt><trkpt lat="43.6352338829303" lon="11.00608209038134"><ele>163.0</ele><time>2026-04-25T17:42:11Z</time></trkpt><trkpt lat="43.63534908450958" lon="11.006162752398462"><ele>163.0</ele><time>2026-04-25T17:42:12Z</time></trkpt><trkpt lat="43.63546909520704" lon="11.00626409448046"><ele>163.0</ele><time>2026-04-25T17:42:13Z</time></trkpt><trkpt lat="43.63558854681763" lon="11.006375928068609"><ele>159.75</ele><time>2026-04-25T17:42:14Z</time></trkpt><trkpt lat="43.63569160839049" lon="11.006494046802985"><ele>156.5</ele><time>2026-04-25T17:42:15Z</time></trkpt><trkpt lat="43.635784377072966" lon="11.006624847967274"><ele>153.25</ele><time>2026-04-25T17:42:16Z</time></trkpt><trkpt lat="43.6358773490487" lon="11.006762556706072"><ele>150.0</ele><time>2026-04-25T17:42:17Z</time></trkpt><trkpt lat="43.635963442700444" lon="11.006902340258012"><ele>149.75</ele><time>2026-04-25T17:42:18Z</time></trkpt><trkpt lat="43.636047124998115" lon="11.007044243512775"><ele>149.5</ele><time>2026-04-25T17:42:19Z</time></trkpt><trkpt lat="43.636122819857256" lon="11.00719478460935"><ele>149.25</ele><time>2026-04-25T17:42:20Z</time></trkpt><trkpt lat="43.63620469806107" lon="11.007349310903873"><ele>149.0</ele><time>2026-04-25T17:42:21Z</time></trkpt><trkpt lat="43.6362910838148" lon="11.007497575668328"><ele>147.0</ele><time>2026-04-25T17:42:22Z</time></trkpt><trkpt lat="43.63638479765806" lon="11.007647530520456"><ele>145.0</ele><time>2026-04-25T17:42:23Z</time></trkpt><trkpt lat="43.63648458971067" lon="11.007796685168373"><ele>143.0</ele><time>2026-04-25T17:42:24Z</time></trkpt><trkpt lat="43.636591661779015" lon="11.00794456949479"><ele>141.0</ele><time>2026-04-25T17:42:25Z</time></trkpt><trkpt lat="43.63670531825024" lon="11.008093567014598"><ele>141.0</ele><time>2026-04-25T17:42:26Z</time></trkpt><trkpt lat="43.636826018968996" lon="11.008241208094368"><ele>141.0</ele><time>2026-04-25T17:42:27Z</time></trkpt><trkpt lat="43.63694598900574" lon="11.008388228031716"><ele>141.0</ele><time>2026-04-25T17:42:28Z</time></trkpt><trkpt lat="43.637068690422026" lon="11.008533291669641"><ele>140.66666666666666</ele><time>2026-04-25T17:42:29Z</time></trkpt><trkpt lat="43.637193818374556" lon="11.008674143706795"><ele>140.33333333333331</ele><time>2026-04-25T17:42:30Z</time></trkpt><trkpt lat="43.63731873975838" lon="11.008810794762054"><ele>140.0</ele><time>2026-04-25T17:42:31Z</time></trkpt><trkpt lat="43.63744788241793" lon="11.008942565873063"><ele>140.0</ele><time>2026-04-25T17:42:32Z</time></trkpt><trkpt lat="43.6375755727749" lon="11.009076303469273"><ele>140.0</ele><time>2026-04-25T17:42:33Z</time></trkpt><trkpt lat="43.63769782142695" lon="11.009210686451937"><ele>140.0</ele><time>2026-04-25T17:42:34Z</time></trkpt><trkpt lat="43.63781796038704" lon="11.009346305786156"><ele>145.0</ele><time>2026-04-25T17:42:35Z</time></trkpt><trkpt lat="43.6379420195106" lon="11.009482917935738"><ele>150.0</ele><time>2026-04-25T17:42:36Z</time></trkpt><trkpt lat="43.63806433426332" lon="11.00961593495994"><ele>155.0</ele><time>2026-04-25T17:42:37Z</time></trkpt><trkpt lat="43.63818665754488" lon="11.009751200110614"><ele>155.0</ele><time>2026-04-25T17:42:38Z</time></trkpt><trkpt lat="43.63830405405934" lon="11.00988848280643"><ele>155.0</ele><time>2026-04-25T17:42:39Z</time></trkpt><trkpt lat="43.638404783875224" lon="11.010023551950166"><ele>155.0</ele><time>2026-04-25T17:42:40Z</time></trkpt><trkpt lat="43.63849325332821" lon="11.010171446681268"><ele>155.0</ele><time>2026-04-25T17:42:41Z</time></trkpt><trkpt lat="43.63856251648154" lon="11.010317216411584"><ele>154.5</ele><time>2026-04-25T17:42:42Z</time></trkpt><trkpt lat="43.63861961542553" lon="11.010467779611421"><ele>154.0</ele><time>2026-04-25T17:42:43Z</time></trkpt><trkpt lat="43.638670608910346" lon="11.010632708065831"><ele>153.5</ele><time>2026-04-25T17:42:44Z</time></trkpt><trkpt lat="43.63871099747492" lon="11.010806306243433"><ele>153.0</ele><time>2026-04-25T17:42:45Z</time></trkpt><trkpt lat="43.63873768761188" lon="11.010989982919074"><ele>156.25</ele><time>2026-04-25T17:42:46Z</time></trkpt><trkpt lat="43.63875174262725" lon="11.01117890885773"><ele>159.5</ele><time>2026-04-25T17:42:47Z</time></trkpt><trkpt lat="43.63876242722663" lon="11.011370834167664"><ele>162.75</ele><time>2026-04-25T17:42:48Z</time></trkpt><trkpt lat="43.63877044470392" lon="11.011567899524733"><ele>166.0</ele><time>2026-04-25T17:42:49Z</time></trkpt><trkpt lat="43.638774768777395" lon="11.011770251501922"><ele>166.25</ele><time>2026-04-25T17:42:50Z</time></trkpt><trkpt lat="43.63877734921831" lon="11.01197685785026"><ele>166.5</ele><time>2026-04-25T17:42:51Z</time></trkpt><trkpt lat="43.63878162951772" lon="11.012171651366282"><ele>166.75</ele><time>2026-04-25T17:42:52Z</time></trkpt><trkpt lat="43.63878748231372" lon="11.012365964097835"><ele>167.0</ele><time>2026-04-25T17:42:53Z</time></trkpt><trkpt lat="43.63879417791091" lon="11.012559815092859"><ele>167.25</ele><time>2026-04-25T17:42:54Z</time></trkpt><trkpt lat="43.638798403754414" lon="11.01273763741078"><ele>167.5</ele><time>2026-04-25T17:42:55Z</time></trkpt><trkpt lat="43.638802964768956" lon="11.012907679607197"><ele>167.75</ele><time>2026-04-25T17:42:56Z</time></trkpt><trkpt lat="43.63880136911029" lon="11.013059609461772"><ele>168.0</ele><time>2026-04-25T17:42:57Z</time></trkpt><trkpt lat="43.638777034559496" lon="11.013218291462742"><ele>169.0</ele><time>2026-04-25T17:42:58Z</time></trkpt><trkpt lat="43.63873643679146" lon="11.013384899963691"><ele>170.0</ele><time>2026-04-25T17:42:59Z</time></trkpt><trkpt lat="43.63867871463198" lon="11.013544902653582"><ele>171.0</ele><time>2026-04-25T17:43:00Z</time></trkpt><trkpt lat="43.63860722629087" lon="11.013691986471644"><ele>172.0</ele><time>2026-04-25T17:43:01Z</time></trkpt><trkpt lat="43.63852147831157" lon="11.013822402274315"><ele>167.25</ele><time>2026-04-25T17:43:02Z</time></trkpt><trkpt lat="43.638430533857374" lon="11.013938842321792"><ele>162.5</ele><time>2026-04-25T17:43:03Z</time></trkpt><trkpt lat="43.63833172471785" lon="11.01403355580493"><ele>157.75</ele><time>2026-04-25T17:43:04Z</time></trkpt><trkpt lat="43.638225510226476" lon="11.014109069019906"><ele>153.0</ele><time>2026-04-25T17:43:05Z</time></trkpt><trkpt lat="43.638110274828676" lon="11.014170271246998"><ele>153.0</ele><time>2026-04-25T17:43:06Z</time></trkpt><trkpt lat="43.6379780733973" lon="11.014221424327138"><ele>153.0</ele><time>2026-04-25T17:43:07Z</time></trkpt><trkpt lat="43.63783379743951" lon="11.014268329653493"><ele>153.0</ele><time>2026-04-25T17:43:08Z</time></trkpt><trkpt lat="43.637702534227536" lon="11.014305621287065"><ele>153.0</ele><time>2026-04-25T17:43:09Z</time></trkpt><trkpt lat="43.63755893327012" lon="11.014341421972583"><ele>151.75</ele><time>2026-04-25T17:43:10Z</time></trkpt><trkpt lat="43.63742395894646" lon="11.014376064429833"><ele>150.5</ele><time>2026-04-25T17:43:11Z</time></trkpt><trkpt lat="43.63729653810199" lon="11.01441526210553"><ele>149.25</ele><time>2026-04-25T17:43:12Z</time></trkpt><trkpt lat="43.63716731396299" lon="11.014463096816769"><ele>148.0</ele><time>2026-04-25T17:43:13Z</time></trkpt><trkpt lat="43.63704732360948" lon="11.014528446253433"><ele>148.25</ele><time>2026-04-25T17:43:14Z</time></trkpt><trkpt lat="43.63694183997665" lon="11.014606639458252"><ele>148.5</ele><time>2026-04-25T17:43:15Z</time></trkpt><trkpt lat="43.63683748303432" lon="11.01470992265129"><ele>148.75</ele><time>2026-04-25T17:43:16Z</time></trkpt><trkpt lat="43.63674133711041" lon="11.014840663685819"><ele>149.0</ele><time>2026-04-25T17:43:17Z</time></trkpt><trkpt lat="43.636651671943994" lon="11.01499143062885"><ele>150.25</ele><time>2026-04-25T17:43:18Z</time></trkpt><trkpt lat="43.63656929796752" lon="11.01514704382539"><ele>151.5</ele><time>2026-04-25T17:43:19Z</time></trkpt><trkpt lat="43.636505373375314" lon="11.01531743478927"><ele>152.75</ele><time>2026-04-25T17:43:20Z</time></trkpt><trkpt lat="43.63645998610747" lon="11.015467461290896"><ele>154.0</ele><time>2026-04-25T17:43:21Z</time></trkpt><trkpt lat="43.636418126624726" lon="11.015597876692834"><ele>154.0</ele><time>2026-04-25T17:43:22Z</time></trkpt><trkpt lat="43.63636120348429" lon="11.015721597033862"><ele>154.0</ele><time>2026-04-25T17:43:23Z</time></trkpt><trkpt lat="43.63628999254072" lon="11.015832158147678"><ele>154.0</ele><time>2026-04-25T17:43:24Z</time></trkpt><trkpt lat="43.63620441391955" lon="11.015932378848778"><ele>154.0</ele><time>2026-04-25T17:43:25Z</time></trkpt><trkpt lat="43.63610098150414" lon="11.016021991691852"><ele>154.0</ele><time>2026-04-25T17:43:26Z</time></trkpt><trkpt lat="43.63599057068133" lon="11.01610590145804"><ele>156.25</ele><time>2026-04-25T17:43:27Z</time></trkpt><trkpt lat="43.63588136227727" lon="11.016194475805248"><ele>158.5</ele><time>2026-04-25T17:43:28Z</time></trkpt><trkpt lat="43.63577862081245" lon="11.016279798817434"><ele>160.75</ele><time>2026-04-25T17:43:29Z</time></trkpt><trkpt lat="43.635685756796256" lon="11.016371236498962"><ele>163.0</ele><time>2026-04-25T17:43:30Z</time></trkpt><trkpt lat="43.6355944134397" lon="11.016465646639391"><ele>163.0</ele><time>2026-04-25T17:43:31Z</time></trkpt><trkpt lat="43.63550848574071" lon="11.016571139760078"><ele>163.0</ele><time>2026-04-25T17:43:32Z</time></trkpt><trkpt lat="43.635429716162555" lon="11.016687236888654"><ele>163.0</ele><time>2026-04-25T17:43:33Z</time></trkpt><trkpt lat="43.635350832034376" lon="11.016810308399762"><ele>163.0</ele><time>2026-04-25T17:43:34Z</time></trkpt><trkpt lat="43.63528271675778" lon="11.01694506536353"><ele>162.25</ele><time>2026-04-25T17:43:35Z</time></trkpt><trkpt lat="43.635231040332386" lon="11.017087671462154"><ele>161.5</ele><time>2026-04-25T17:43:36Z</time></trkpt><trkpt lat="43.63517895550263" lon="11.017232945715065"><ele>160.75</ele><time>2026-04-25T17:43:37Z</time></trkpt><trkpt lat="43.6351812476858" lon="11.017398173787967"><ele>160.0</ele><time>2026-04-25T17:43:38Z</time></trkpt><trkpt lat="43.63516173825266" lon="11.017560312019272"><ele>160.0</ele><time>2026-04-25T17:43:39Z</time></trkpt><trkpt lat="43.63517573325789" lon="11.017725674417433"><ele>160.0</ele><time>2026-04-25T17:43:40Z</time></trkpt><trkpt lat="43.63515967169502" lon="11.017891639099775"><ele>160.0</ele><time>2026-04-25T17:43:41Z</time></trkpt><trkpt lat="43.63515026523628" lon="11.018041532890614"><ele>160.0</ele><time>2026-04-25T17:43:42Z</time></trkpt><trkpt lat="43.635139758794026" lon="11.018179560855065"><ele>160.0</ele><time>2026-04-25T17:43:43Z</time></trkpt><trkpt lat="43.63512454228156" lon="11.018307682596111"><ele>160.0</ele><time>2026-04-25T17:43:44Z</time></trkpt><trkpt lat="43.63511235435183" lon="11.018427175402488"><ele>160.0</ele><time>2026-04-25T17:43:45Z</time></trkpt><trkpt lat="43.63510002827985" lon="11.018551300378423"><ele>160.0</ele><time>2026-04-25T17:43:46Z</time></trkpt><trkpt lat="43.63508780969704" lon="11.01868354825092"><ele>160.0</ele><time>2026-04-25T17:43:47Z</time></trkpt><trkpt lat="43.6350756837888" lon="11.018829068065617"><ele>160.4</ele><time>2026-04-25T17:43:48Z</time></trkpt><trkpt lat="43.635065570069195" lon="11.01898422724148"><ele>160.8</ele><time>2026-04-25T17:43:49Z</time></trkpt><trkpt lat="43.6350569693075" lon="11.019136040644085"><ele>161.2</ele><time>2026-04-25T17:43:50Z</time></trkpt><trkpt lat="43.63505934849175" lon="11.01928687624594"><ele>161.6</ele><time>2026-04-25T17:43:51Z</time></trkpt><trkpt lat="43.63505303588759" lon="11.01943739184047"><ele>162.0</ele><time>2026-04-25T17:43:52Z</time></trkpt><trkpt lat="43.63506789845879" lon="11.019592017065982"><ele>162.25</ele><time>2026-04-25T17:43:53Z</time></trkpt><trkpt lat="43.635078410625994" lon="11.01974743601862"><ele>162.5</ele><time>2026-04-25T17:43:54Z</time></trkpt><trkpt lat="43.635088809744815" lon="11.01990545601206"><ele>162.75</ele><time>2026-04-25T17:43:55Z</time></trkpt><trkpt lat="43.635092264931224" lon="11.020058236028035"><ele>163.0</ele><time>2026-04-25T17:43:56Z</time></trkpt><trkpt lat="43.63509531924708" lon="11.02021694260399"><ele>162.5</ele><time>2026-04-25T17:43:57Z</time></trkpt><trkpt lat="43.63510213599449" lon="11.020384671716602"><ele>162.0</ele><time>2026-04-25T17:43:58Z</time></trkpt><trkpt lat="43.63510249479728" lon="11.020552743225153"><ele>161.5</ele><time>2026-04-25T17:43:59Z</time></trkpt><trkpt lat="43.635103314431156" lon="11.020722533149694"><ele>161.0</ele><time>2026-04-25T17:44:00Z</time></trkpt><trkpt lat="43.6351063645536" lon="11.020886738175236"><ele>159.75</ele><time>2026-04-25T17:44:01Z</time></trkpt><trkpt lat="43.63511003181561" lon="11.021049861058902"><ele>158.5</ele><time>2026-04-25T17:44:02Z</time></trkpt><trkpt lat="43.63511280657649" lon="11.021207459892919"><ele>157.25</ele><time>2026-04-25T17:44:03Z</time></trkpt><trkpt lat="43.635119702188966" lon="11.021366576290376"><ele>156.0</ele><time>2026-04-25T17:44:04Z</time></trkpt><trkpt lat="43.635127524685345" lon="11.021521333285683"><ele>154.5</ele><time>2026-04-25T17:44:05Z</time></trkpt><trkpt lat="43.63514433810179" lon="11.021681143709273"><ele>153.0</ele><time>2026-04-25T17:44:06Z</time></trkpt><trkpt lat="43.63516740439454" lon="11.021846861217053"><ele>151.5</ele><time>2026-04-25T17:44:07Z</time></trkpt><trkpt lat="43.63519486799196" lon="11.02200642846189"><ele>150.0</ele><time>2026-04-25T17:44:08Z</time></trkpt><trkpt lat="43.63523894020724" lon="11.022157219528525"><ele>150.0</ele><time>2026-04-25T17:44:09Z</time></trkpt><trkpt lat="43.63529822411578" lon="11.022300668748919"><ele>150.0</ele><time>2026-04-25T17:44:10Z</time></trkpt><trkpt lat="43.63536496033437" lon="11.022441838218935"><ele>150.0</ele><time>2026-04-25T17:44:11Z</time></trkpt><trkpt lat="43.635433092733464" lon="11.022578250019645"><ele>150.0</ele><time>2026-04-25T17:44:12Z</time></trkpt><trkpt lat="43.63549980243444" lon="11.022717933869043"><ele>148.5</ele><time>2026-04-25T17:44:13Z</time></trkpt><trkpt lat="43.635567824746154" lon="11.022856154717054"><ele>147.0</ele><time>2026-04-25T17:44:14Z</time></trkpt><trkpt lat="43.635639959597256" lon="11.022991658361825"><ele>145.5</ele><time>2026-04-25T17:44:15Z</time></trkpt><trkpt lat="43.63571592881943" lon="11.023122040000782"><ele>144.0</ele><time>2026-04-25T17:44:16Z</time></trkpt><trkpt lat="43.6357968494751" lon="11.02324993336078"><ele>144.0</ele><time>2026-04-25T17:44:17Z</time></trkpt><trkpt lat="43.63588333934511" lon="11.023371332342732"><ele>144.0</ele><time>2026-04-25T17:44:18Z</time></trkpt><trkpt lat="43.63597853253993" lon="11.023481101128612"><ele>144.0</ele><time>2026-04-25T17:44:19Z</time></trkpt><trkpt lat="43.636069154216294" lon="11.023592756974445"><ele>144.0</ele><time>2026-04-25T17:44:20Z</time></trkpt><trkpt lat="43.6361609951361" lon="11.023705207356054"><ele>144.0</ele><time>2026-04-25T17:44:21Z</time></trkpt><trkpt lat="43.63625128794535" lon="11.023813339292376"><ele>144.0</ele><time>2026-04-25T17:44:22Z</time></trkpt><trkpt lat="43.636339051425665" lon="11.023912711926979"><ele>144.0</ele><time>2026-04-25T17:44:23Z</time></trkpt><trkpt lat="43.63643657098494" lon="11.02399850547144"><ele>144.0</ele><time>2026-04-25T17:44:24Z</time></trkpt><trkpt lat="43.63653287338056" lon="11.024063528806346"><ele>144.0</ele><time>2026-04-25T17:44:25Z</time></trkpt><trkpt lat="43.6366252527089" lon="11.024124618898432"><ele>144.0</ele><time>2026-04-25T17:44:26Z</time></trkpt><trkpt lat="43.6367165002281" lon="11.024175547032673"><ele>144.0</ele><time>2026-04-25T17:44:27Z</time></trkpt><trkpt lat="43.636804582281044" lon="11.024227121907945"><ele>144.0</ele><time>2026-04-25T17:44:28Z</time></trkpt><trkpt lat="43.63688981780466" lon="11.024274949502212"><ele>144.0</ele><time>2026-04-25T17:44:29Z</time></trkpt><trkpt lat="43.63698607334979" lon="11.024332386920065"><ele>144.5</ele><time>2026-04-25T17:44:30Z</time></trkpt><trkpt lat="43.637089076020175" lon="11.024402999188458"><ele>145.0</ele><time>2026-04-25T17:44:31Z</time></trkpt><trkpt lat="43.637192946980626" lon="11.024483556389638"><ele>145.5</ele><time>2026-04-25T17:44:32Z</time></trkpt><trkpt lat="43.63729109275698" lon="11.024584215441559"><ele>146.0</ele><time>2026-04-25T17:44:33Z</time></trkpt><trkpt lat="43.637380564794185" lon="11.024709864205956"><ele>146.0</ele><time>2026-04-25T17:44:34Z</time></trkpt><trkpt lat="43.63746457586787" lon="11.024848981503856"><ele>146.0</ele><time>2026-04-25T17:44:35Z</time></trkpt><trkpt lat="43.63754807066794" lon="11.024992654495412"><ele>146.0</ele><time>2026-04-25T17:44:36Z</time></trkpt><trkpt lat="43.63762784204028" lon="11.025143979799559"><ele>146.0</ele><time>2026-04-25T17:44:37Z</time></trkpt><trkpt lat="43.63770721434021" lon="11.025294263085009"><ele>145.75</ele><time>2026-04-25T17:44:38Z</time></trkpt><trkpt lat="43.63778552397748" lon="11.025451272824908"><ele>145.5</ele><time>2026-04-25T17:44:39Z</time></trkpt><trkpt lat="43.63786950009116" lon="11.02560785819973"><ele>145.25</ele><time>2026-04-25T17:44:40Z</time></trkpt><trkpt lat="43.63794572746602" lon="11.02575779429738"><ele>145.0</ele><time>2026-04-25T17:44:41Z</time></trkpt><trkpt lat="43.63801909581769" lon="11.02590814534653"><ele>144.25</ele><time>2026-04-25T17:44:42Z</time></trkpt><trkpt lat="43.63809529076389" lon="11.026052402088988"><ele>143.5</ele><time>2026-04-25T17:44:43Z</time></trkpt><trkpt lat="43.63816768643097" lon="11.026196474228392"><ele>142.75</ele><time>2026-04-25T17:44:44Z</time></trkpt><trkpt lat="43.638241132720815" lon="11.026343825015218"><ele>142.0</ele><time>2026-04-25T17:44:45Z</time></trkpt><trkpt lat="43.63831565979388" lon="11.026487224848024"><ele>142.0</ele><time>2026-04-25T17:44:46Z</time></trkpt><trkpt lat="43.63838884527702" lon="11.026629134075653"><ele>142.0</ele><time>2026-04-25T17:44:47Z</time></trkpt><trkpt lat="43.638458558534545" lon="11.02677541052373"><ele>142.0</ele><time>2026-04-25T17:44:48Z</time></trkpt><trkpt lat="43.63853098092308" lon="11.026913981213664"><ele>142.0</ele><time>2026-04-25T17:44:49Z</time></trkpt><trkpt lat="43.63859502397583" lon="11.02705172040346"><ele>141.6</ele><time>2026-04-25T17:44:50Z</time></trkpt><trkpt lat="43.638658218159016" lon="11.027179920515566"><ele>141.2</ele><time>2026-04-25T17:44:51Z</time></trkpt><trkpt lat="43.63871872253931" lon="11.027299190410716"><ele>140.8</ele><time>2026-04-25T17:44:52Z</time></trkpt><trkpt lat="43.63877432102101" lon="11.02740483439566"><ele>140.4</ele><time>2026-04-25T17:44:53Z</time></trkpt><trkpt lat="43.63883025886515" lon="11.027497547720612"><ele>140.0</ele><time>2026-04-25T17:44:54Z</time></trkpt><trkpt lat="43.638890557974925" lon="11.027603086913818"><ele>141.8</ele><time>2026-04-25T17:44:55Z</time></trkpt><trkpt lat="43.63894418811071" lon="11.027722072248185"><ele>143.6</ele><time>2026-04-25T17:44:56Z</time></trkpt><trkpt lat="43.6389942446633" lon="11.02785282562894"><ele>145.4</ele><time>2026-04-25T17:44:57Z</time></trkpt><trkpt lat="43.63904327880923" lon="11.027993185965922"><ele>147.2</ele><time>2026-04-25T17:44:58Z</time></trkpt><trkpt lat="43.639093782902954" lon="11.028146693665638"><ele>149.0</ele><time>2026-04-25T17:44:59Z</time></trkpt><trkpt lat="43.639150758121595" lon="11.02830795183861"><ele>150.25</ele><time>2026-04-25T17:45:00Z</time></trkpt><trkpt lat="43.63921071478843" lon="11.028468481631391"><ele>151.5</ele><time>2026-04-25T17:45:01Z</time></trkpt><trkpt lat="43.63927012249268" lon="11.028618852782882"><ele>152.75</ele><time>2026-04-25T17:45:02Z</time></trkpt><trkpt lat="43.6393367212975" lon="11.028788520389462"><ele>154.0</ele><time>2026-04-25T17:45:03Z</time></trkpt><trkpt lat="43.63939088560963" lon="11.028976081682314"><ele>153.75</ele><time>2026-04-25T17:45:04Z</time></trkpt><trkpt lat="43.6394598171304" lon="11.029153513406541"><ele>153.5</ele><time>2026-04-25T17:45:05Z</time></trkpt><trkpt lat="43.639547640057046" lon="11.029318668999327"><ele>153.25</ele><time>2026-04-25T17:45:06Z</time></trkpt><trkpt lat="43.63961753232007" lon="11.029505415595413"><ele>153.0</ele><time>2026-04-25T17:45:07Z</time></trkpt><trkpt lat="43.63968933937154" lon="11.029691872631597"><ele>153.0</ele><time>2026-04-25T17:45:08Z</time></trkpt><trkpt lat="43.63976378177782" lon="11.02987702854821"><ele>153.0</ele><time>2026-04-25T17:45:09Z</time></trkpt><trkpt lat="43.639834075488544" lon="11.030070639662284"><ele>153.0</ele><time>2026-04-25T17:45:10Z</time></trkpt><trkpt lat="43.639908940762076" lon="11.03026060533702"><ele>154.33333333333334</ele><time>2026-04-25T17:45:11Z</time></trkpt><trkpt lat="43.63998579096373" lon="11.030455376293153"><ele>155.66666666666669</ele><time>2026-04-25T17:45:12Z</time></trkpt><trkpt lat="43.640061046452324" lon="11.030652031387131"><ele>157.0</ele><time>2026-04-25T17:45:13Z</time></trkpt><trkpt lat="43.64013861693399" lon="11.030844619169999"><ele>160.0</ele><time>2026-04-25T17:45:14Z</time></trkpt><trkpt lat="43.640199669134155" lon="11.03104844371082"><ele>163.0</ele><time>2026-04-25T17:45:15Z</time></trkpt><trkpt lat="43.64027611635164" lon="11.031242893384727"><ele>166.0</ele><time>2026-04-25T17:45:16Z</time></trkpt><trkpt lat="43.640352553359136" lon="11.031437235805853"><ele>167.66666666666669</ele><time>2026-04-25T17:45:17Z</time></trkpt><trkpt lat="43.64042875988841" lon="11.031630992233902"><ele>169.33333333333334</ele><time>2026-04-25T17:45:18Z</time></trkpt><trkpt lat="43.64050466794933" lon="11.03182398979686"><ele>171.0</ele><time>2026-04-25T17:45:19Z</time></trkpt><trkpt lat="43.64058069996144" lon="11.03201839023335"><ele>173.0</ele><time>2026-04-25T17:45:20Z</time></trkpt><trkpt lat="43.64067040744327" lon="11.032203401251572"><ele>175.0</ele><time>2026-04-25T17:45:21Z</time></trkpt><trkpt lat="43.640734997046714" lon="11.032408764989109"><ele>177.0</ele><time>2026-04-25T17:45:22Z</time></trkpt><trkpt lat="43.640811430514084" lon="11.032603277967933"><ele>178.0</ele><time>2026-04-25T17:45:23Z</time></trkpt><trkpt lat="43.640887656204676" lon="11.032798815782366"><ele>179.0</ele><time>2026-04-25T17:45:24Z</time></trkpt><trkpt lat="43.6409649254422" lon="11.03299641651763"><ele>180.0</ele><time>2026-04-25T17:45:25Z</time></trkpt><trkpt lat="43.64104259108531" lon="11.033195206489694"><ele>181.0</ele><time>2026-04-25T17:45:26Z</time></trkpt><trkpt lat="43.64112177445332" lon="11.033397338106596"><ele>182.0</ele><time>2026-04-25T17:45:27Z</time></trkpt><trkpt lat="43.64119919044676" lon="11.033609022870877"><ele>183.0</ele><time>2026-04-25T17:45:28Z</time></trkpt><trkpt lat="43.64128263564816" lon="11.033818827879836"><ele>184.33333333333334</ele><time>2026-04-25T17:45:29Z</time></trkpt><trkpt lat="43.64136688957413" lon="11.034030890049955"><ele>185.66666666666669</ele><time>2026-04-25T17:45:30Z</time></trkpt><trkpt lat="43.64145873579941" lon="11.034241709557389"><ele>187.0</ele><time>2026-04-25T17:45:31Z</time></trkpt><trkpt lat="43.6415597893868" lon="11.034449395193182"><ele>187.0</ele><time>2026-04-25T17:45:32Z</time></trkpt><trkpt lat="43.64166737321525" lon="11.034658334435042"><ele>187.0</ele><time>2026-04-25T17:45:33Z</time></trkpt><trkpt lat="43.64176923818555" lon="11.034869329958171"><ele>187.0</ele><time>2026-04-25T17:45:34Z</time></trkpt><trkpt lat="43.6418723225472" lon="11.035074586148603"><ele>187.66666666666669</ele><time>2026-04-25T17:45:35Z</time></trkpt><trkpt lat="43.64197229246035" lon="11.035280528587354"><ele>188.33333333333334</ele><time>2026-04-25T17:45:36Z</time></trkpt><trkpt lat="43.64207376200603" lon="11.035484688782187"><ele>189.0</ele><time>2026-04-25T17:45:37Z</time></trkpt><trkpt lat="43.642169687574054" lon="11.035687126358427"><ele>188.0</ele><time>2026-04-25T17:45:38Z</time></trkpt><trkpt lat="43.64226540449247" lon="11.035891583194982"><ele>187.0</ele><time>2026-04-25T17:45:39Z</time></trkpt><trkpt lat="43.64235966813294" lon="11.036088161881185"><ele>186.0</ele><time>2026-04-25T17:45:40Z</time></trkpt><trkpt lat="43.64245016745796" lon="11.036287175804164"><ele>186.0</ele><time>2026-04-25T17:45:41Z</time></trkpt><trkpt lat="43.64254429491939" lon="11.036478427248731"><ele>186.0</ele><time>2026-04-25T17:45:42Z</time></trkpt><trkpt lat="43.64263425369901" lon="11.036673956218243"><ele>186.0</ele><time>2026-04-25T17:45:43Z</time></trkpt><trkpt lat="43.64272673733633" lon="11.036871960100244"><ele>182.33333333333334</ele><time>2026-04-25T17:45:44Z</time></trkpt><trkpt lat="43.64281941051523" lon="11.037068466458916"><ele>178.66666666666669</ele><time>2026-04-25T17:45:45Z</time></trkpt><trkpt lat="43.64291784326339" lon="11.037265275536768"><ele>175.0</ele><time>2026-04-25T17:45:46Z</time></trkpt><trkpt lat="43.64301636780883" lon="11.037465177889837"><ele>177.66666666666669</ele><time>2026-04-25T17:45:47Z</time></trkpt><trkpt lat="43.64310815267745" lon="11.037660553154023"><ele>180.33333333333334</ele><time>2026-04-25T17:45:48Z</time></trkpt><trkpt lat="43.643196357339505" lon="11.037845943061141"><ele>183.0</ele><time>2026-04-25T17:45:49Z</time></trkpt><trkpt lat="43.64327836789224" lon="11.038022348729436"><ele>183.0</ele><time>2026-04-25T17:45:50Z</time></trkpt><trkpt lat="43.6433482331803" lon="11.038191203003286"><ele>183.0</ele><time>2026-04-25T17:45:51Z</time></trkpt><trkpt lat="43.64340759344104" lon="11.038351336551207"><ele>183.0</ele><time>2026-04-25T17:45:52Z</time></trkpt><trkpt lat="43.64345897971853" lon="11.038516651747893"><ele>183.0</ele><time>2026-04-25T17:45:53Z</time></trkpt><trkpt lat="43.64350547965078" lon="11.038694743057004"><ele>182.75</ele><time>2026-04-25T17:45:54Z</time></trkpt><trkpt lat="43.643548635108445" lon="11.038880203865064"><ele>182.5</ele><time>2026-04-25T17:45:55Z</time></trkpt><trkpt lat="43.64358779777592" lon="11.039058728474183"><ele>182.25</ele><time>2026-04-25T17:45:56Z</time></trkpt><trkpt lat="43.643620270848906" lon="11.039229204504627"><ele>182.0</ele><time>2026-04-25T17:45:57Z</time></trkpt><trkpt lat="43.643655822441076" lon="11.039393521763593"><ele>182.0</ele><time>2026-04-25T17:45:58Z</time></trkpt><trkpt lat="43.64370495754374" lon="11.03956029810482"><ele>182.0</ele><time>2026-04-25T17:45:59Z</time></trkpt><trkpt lat="43.643770249908144" lon="11.039724818937152"><ele>182.0</ele><time>2026-04-25T17:46:00Z</time></trkpt><trkpt lat="43.64385874657674" lon="11.039874541854205"><ele>182.0</ele><time>2026-04-25T17:46:01Z</time></trkpt><trkpt lat="43.64396230404427" lon="11.040021160017544"><ele>182.5</ele><time>2026-04-25T17:46:02Z</time></trkpt><trkpt lat="43.64406858427911" lon="11.040167836675405"><ele>183.0</ele><time>2026-04-25T17:46:03Z</time></trkpt><trkpt lat="43.644181937596436" lon="11.040291973352272"><ele>183.5</ele><time>2026-04-25T17:46:04Z</time></trkpt><trkpt lat="43.644300232511846" lon="11.04038440639754"><ele>184.0</ele><time>2026-04-25T17:46:05Z</time></trkpt><trkpt lat="43.6444056360303" lon="11.040488635480404"><ele>185.25</ele><time>2026-04-25T17:46:06Z</time></trkpt><trkpt lat="43.64451160817033" lon="11.040590021453072"><ele>186.5</ele><time>2026-04-25T17:46:07Z</time></trkpt><trkpt lat="43.64461770060348" lon="11.04068847151811"><ele>187.75</ele><time>2026-04-25T17:46:08Z</time></trkpt><trkpt lat="43.64471472338936" lon="11.040777654596663"><ele>189.0</ele><time>2026-04-25T17:46:09Z</time></trkpt><trkpt lat="43.64480127089143" lon="11.040866241872108"><ele>189.0</ele><time>2026-04-25T17:46:10Z</time></trkpt><trkpt lat="43.644885856854714" lon="11.040959530715948"><ele>189.0</ele><time>2026-04-25T17:46:11Z</time></trkpt><trkpt lat="43.644952156774686" lon="11.041067970994908"><ele>189.0</ele><time>2026-04-25T17:46:12Z</time></trkpt><trkpt lat="43.64499830831129" lon="11.04119670772315"><ele>189.0</ele><time>2026-04-25T17:46:13Z</time></trkpt><trkpt lat="43.6450287938988" lon="11.041344247897781"><ele>189.0</ele><time>2026-04-25T17:46:14Z</time></trkpt><trkpt lat="43.64503729611349" lon="11.041497036689519"><ele>190.0</ele><time>2026-04-25T17:46:15Z</time></trkpt><trkpt lat="43.64503069769611" lon="11.04166483338139"><ele>191.0</ele><time>2026-04-25T17:46:16Z</time></trkpt><trkpt lat="43.645012414399574" lon="11.041834887330415"><ele>192.0</ele><time>2026-04-25T17:46:17Z</time></trkpt><trkpt lat="43.64499470144378" lon="11.042017054068161"><ele>193.0</ele><time>2026-04-25T17:46:18Z</time></trkpt><trkpt lat="43.644979904157516" lon="11.04219086734646"><ele>193.0</ele><time>2026-04-25T17:46:19Z</time></trkpt><trkpt lat="43.64496560670687" lon="11.042364151618754"><ele>193.0</ele><time>2026-04-25T17:46:20Z</time></trkpt><trkpt lat="43.644951573126185" lon="11.042540210027598"><ele>193.0</ele><time>2026-04-25T17:46:21Z</time></trkpt><trkpt lat="43.64494187988995" lon="11.04271944978511"><ele>193.0</ele><time>2026-04-25T17:46:22Z</time></trkpt><trkpt lat="43.64492616276148" lon="11.042898516170599"><ele>193.0</ele><time>2026-04-25T17:46:23Z</time></trkpt><trkpt lat="43.64492550391229" lon="11.043084199892409"><ele>193.0</ele><time>2026-04-25T17:46:24Z</time></trkpt><trkpt lat="43.64492072027603" lon="11.043266535448591"><ele>193.0</ele><time>2026-04-25T17:46:25Z</time></trkpt><trkpt lat="43.64491422659747" lon="11.043453527388968"><ele>193.0</ele><time>2026-04-25T17:46:26Z</time></trkpt><trkpt lat="43.64490293525371" lon="11.04364030837893"><ele>193.0</ele><time>2026-04-25T17:46:27Z</time></trkpt><trkpt lat="43.64488249874981" lon="11.043835610513728"><ele>193.0</ele><time>2026-04-25T17:46:28Z</time></trkpt><trkpt lat="43.6448606772969" lon="11.044030108508325"><ele>193.0</ele><time>2026-04-25T17:46:29Z</time></trkpt><trkpt lat="43.6448353855089" lon="11.044228815134803"><ele>193.0</ele><time>2026-04-25T17:46:30Z</time></trkpt><trkpt lat="43.64481000654198" lon="11.044419720307399"><ele>192.75</ele><time>2026-04-25T17:46:31Z</time></trkpt><trkpt lat="43.64478752302646" lon="11.04460813573285"><ele>192.5</ele><time>2026-04-25T17:46:32Z</time></trkpt><trkpt lat="43.64476793983953" lon="11.044792538717438"><ele>192.25</ele><time>2026-04-25T17:46:33Z</time></trkpt><trkpt lat="43.64473583961335" lon="11.044975715695752"><ele>192.0</ele><time>2026-04-25T17:46:34Z</time></trkpt><trkpt lat="43.644682764449115" lon="11.04514872239209"><ele>191.75</ele><time>2026-04-25T17:46:35Z</time></trkpt><trkpt lat="43.64462147622659" lon="11.04531879932782"><ele>191.5</ele><time>2026-04-25T17:46:36Z</time></trkpt><trkpt lat="43.64455583061848" lon="11.045483397307846"><ele>191.25</ele><time>2026-04-25T17:46:37Z</time></trkpt><trkpt lat="43.6444948128751" lon="11.045647496197953"><ele>191.0</ele><time>2026-04-25T17:46:38Z</time></trkpt><trkpt lat="43.64444562223598" lon="11.045805024460442"><ele>190.75</ele><time>2026-04-25T17:46:39Z</time></trkpt><trkpt lat="43.64439419141629" lon="11.04596869191961"><ele>190.5</ele><time>2026-04-25T17:46:40Z</time></trkpt><trkpt lat="43.644357050272234" lon="11.046137431682855"><ele>190.25</ele><time>2026-04-25T17:46:41Z</time></trkpt><trkpt lat="43.64432619059533" lon="11.046309548497277"><ele>190.0</ele><time>2026-04-25T17:46:42Z</time></trkpt><trkpt lat="43.644301474378764" lon="11.046483193065747"><ele>191.75</ele><time>2026-04-25T17:46:43Z</time></trkpt><trkpt lat="43.6442740327294" lon="11.046663394374155"><ele>193.5</ele><time>2026-04-25T17:46:44Z</time></trkpt><trkpt lat="43.64424813411636" lon="11.046842952674455"><ele>195.25</ele><time>2026-04-25T17:46:45Z</time></trkpt><trkpt lat="43.644224991237074" lon="11.047021044419688"><ele>197.0</ele><time>2026-04-25T17:46:46Z</time></trkpt><trkpt lat="43.64419602543634" lon="11.047198847213664"><ele>197.0</ele><time>2026-04-25T17:46:47Z</time></trkpt><trkpt lat="43.644153663155016" lon="11.047372911531202"><ele>197.0</ele><time>2026-04-25T17:46:48Z</time></trkpt><trkpt lat="43.64410047558547" lon="11.047540164855205"><ele>197.0</ele><time>2026-04-25T17:46:49Z</time></trkpt><trkpt lat="43.64404127556384" lon="11.047704538414436"><ele>197.0</ele><time>2026-04-25T17:46:50Z</time></trkpt><trkpt lat="43.6439739360522" lon="11.047857781234287"><ele>198.25</ele><time>2026-04-25T17:46:51Z</time></trkpt><trkpt lat="43.64391019836492" lon="11.048010335321576"><ele>199.5</ele><time>2026-04-25T17:46:52Z</time></trkpt><trkpt lat="43.643850272710374" lon="11.04817106781473"><ele>200.75</ele><time>2026-04-25T17:46:53Z</time></trkpt><trkpt lat="43.643778577025614" lon="11.048331211714192"><ele>202.0</ele><time>2026-04-25T17:46:54Z</time></trkpt><trkpt lat="43.64372060000779" lon="11.048506386031121"><ele>202.25</ele><time>2026-04-25T17:46:55Z</time></trkpt><trkpt lat="43.64366808743274" lon="11.048686835535573"><ele>202.5</ele><time>2026-04-25T17:46:56Z</time></trkpt><trkpt lat="43.643619530271756" lon="11.04885744000222"><ele>202.75</ele><time>2026-04-25T17:46:57Z</time></trkpt><trkpt lat="43.6435746764021" lon="11.049014975949044"><ele>203.0</ele><time>2026-04-25T17:46:58Z</time></trkpt><trkpt lat="43.643537803141214" lon="11.04917041642193"><ele>203.0</ele><time>2026-04-25T17:46:59Z</time></trkpt><trkpt lat="43.64351358506729" lon="11.049326020922917"><ele>203.0</ele><time>2026-04-25T17:47:00Z</time></trkpt><trkpt lat="43.64349563476967" lon="11.049494405507197"><ele>203.0</ele><time>2026-04-25T17:47:01Z</time></trkpt><trkpt lat="43.643492692175286" lon="11.04967122421328"><ele>203.0</ele><time>2026-04-25T17:47:02Z</time></trkpt><trkpt lat="43.643494501135685" lon="11.049854013735636"><ele>203.0</ele><time>2026-04-25T17:47:03Z</time></trkpt><trkpt lat="43.643505176041685" lon="11.050038363120047"><ele>203.0</ele><time>2026-04-25T17:47:04Z</time></trkpt><trkpt lat="43.643523729704" lon="11.05020751710661"><ele>203.0</ele><time>2026-04-25T17:47:05Z</time></trkpt><trkpt lat="43.64354948388878" lon="11.050355516250567"><ele>203.0</ele><time>2026-04-25T17:47:06Z</time></trkpt><trkpt lat="43.64358295512768" lon="11.050501217613302"><ele>203.0</ele><time>2026-04-25T17:47:07Z</time></trkpt><trkpt lat="43.64362801427604" lon="11.050641183582139"><ele>203.0</ele><time>2026-04-25T17:47:08Z</time></trkpt><trkpt lat="43.64368751149944" lon="11.050786047945957"><ele>203.0</ele><time>2026-04-25T17:47:09Z</time></trkpt><trkpt lat="43.643754500551054" lon="11.050928872664809"><ele>203.0</ele><time>2026-04-25T17:47:10Z</time></trkpt><trkpt lat="43.643819859237595" lon="11.051062327045983"><ele>204.75</ele><time>2026-04-25T17:47:11Z</time></trkpt><trkpt lat="43.643889138213154" lon="11.05119516305379"><ele>206.5</ele><time>2026-04-25T17:47:12Z</time></trkpt><trkpt lat="43.643936359096315" lon="11.051345361101692"><ele>208.25</ele><time>2026-04-25T17:47:13Z</time></trkpt><trkpt lat="43.64396717333585" lon="11.051514132299438"><ele>210.0</ele><time>2026-04-25T17:47:14Z</time></trkpt><trkpt lat="43.64399642690813" lon="11.051697403042542"><ele>210.0</ele><time>2026-04-25T17:47:15Z</time></trkpt><trkpt lat="43.644020774334635" lon="11.051886102889739"><ele>210.0</ele><time>2026-04-25T17:47:16Z</time></trkpt><trkpt lat="43.64402704894511" lon="11.052082257519226"><ele>210.0</ele><time>2026-04-25T17:47:17Z</time></trkpt><trkpt lat="43.64405505340268" lon="11.052270387967173"><ele>210.0</ele><time>2026-04-25T17:47:18Z</time></trkpt><trkpt lat="43.64408029225134" lon="11.05245002231104"><ele>209.5</ele><time>2026-04-25T17:47:19Z</time></trkpt><trkpt lat="43.644111285359685" lon="11.05263374661907"><ele>209.0</ele><time>2026-04-25T17:47:20Z</time></trkpt><trkpt lat="43.64414487919966" lon="11.05281670325738"><ele>208.5</ele><time>2026-04-25T17:47:21Z</time></trkpt><trkpt lat="43.644195808251176" lon="11.052984811048152"><ele>208.0</ele><time>2026-04-25T17:47:22Z</time></trkpt><trkpt lat="43.644208441880075" lon="11.053160949915677"><ele>206.25</ele><time>2026-04-25T17:47:23Z</time></trkpt><trkpt lat="43.64424873289996" lon="11.053334072441384"><ele>204.5</ele><time>2026-04-25T17:47:24Z</time></trkpt><trkpt lat="43.64426254112878" lon="11.053514775316707"><ele>202.75</ele><time>2026-04-25T17:47:25Z</time></trkpt><trkpt lat="43.64426038434006" lon="11.053707496549157"><ele>201.0</ele><time>2026-04-25T17:47:26Z</time></trkpt><trkpt lat="43.64424537457844" lon="11.053902855686383"><ele>201.0</ele><time>2026-04-25T17:47:27Z</time></trkpt><trkpt lat="43.64422031453665" lon="11.054092362793178"><ele>201.0</ele><time>2026-04-25T17:47:28Z</time></trkpt><trkpt lat="43.64418199916596" lon="11.054268614751612"><ele>201.0</ele><time>2026-04-25T17:47:29Z</time></trkpt><trkpt lat="43.64414661584279" lon="11.054446940526393"><ele>201.0</ele><time>2026-04-25T17:47:30Z</time></trkpt><trkpt lat="43.64411428700056" lon="11.05463297555242"><ele>200.5</ele><time>2026-04-25T17:47:31Z</time></trkpt><trkpt lat="43.64408709365634" lon="11.054828540519836"><ele>200.0</ele><time>2026-04-25T17:47:32Z</time></trkpt><trkpt lat="43.64405204415529" lon="11.055014397877109"><ele>199.5</ele><time>2026-04-25T17:47:33Z</time></trkpt><trkpt lat="43.6440380943026" lon="11.05520596671648"><ele>199.0</ele><time>2026-04-25T17:47:34Z</time></trkpt><trkpt lat="43.64403774190865" lon="11.055406057375688"><ele>200.0</ele><time>2026-04-25T17:47:35Z</time></trkpt><trkpt lat="43.64405318518911" lon="11.055598469253802"><ele>201.0</ele><time>2026-04-25T17:47:36Z</time></trkpt><trkpt lat="43.64408141130935" lon="11.05579336473289"><ele>202.0</ele><time>2026-04-25T17:47:37Z</time></trkpt><trkpt lat="43.644120614190726" lon="11.05597653133918"><ele>203.0</ele><time>2026-04-25T17:47:38Z</time></trkpt><trkpt lat="43.64417865648844" lon="11.056149049008312"><ele>204.25</ele><time>2026-04-25T17:47:39Z</time></trkpt><trkpt lat="43.644227095222526" lon="11.056332291314865"><ele>205.5</ele><time>2026-04-25T17:47:40Z</time></trkpt><trkpt lat="43.64425759044206" lon="11.056523736764433"><ele>206.75</ele><time>2026-04-25T17:47:41Z</time></trkpt><trkpt lat="43.64430384931123" lon="11.056707805142377"><ele>208.0</ele><time>2026-04-25T17:47:42Z</time></trkpt><trkpt lat="43.64434891140294" lon="11.056887111437879"><ele>208.25</ele><time>2026-04-25T17:47:43Z</time></trkpt><trkpt lat="43.64439259171602" lon="11.057060195987374"><ele>208.5</ele><time>2026-04-25T17:47:44Z</time></trkpt><trkpt lat="43.6444374978394" lon="11.057235193322446"><ele>208.75</ele><time>2026-04-25T17:47:45Z</time></trkpt><trkpt lat="43.64448336376866" lon="11.0574148786603"><ele>209.0</ele><time>2026-04-25T17:47:46Z</time></trkpt><trkpt lat="43.64452872394612" lon="11.057592710294301"><ele>209.0</ele><time>2026-04-25T17:47:47Z</time></trkpt><trkpt lat="43.6445869418122" lon="11.05775715691353"><ele>209.0</ele><time>2026-04-25T17:47:48Z</time></trkpt><trkpt lat="43.644619709920946" lon="11.057932726840075"><ele>209.0</ele><time>2026-04-25T17:47:49Z</time></trkpt><trkpt lat="43.64466481486028" lon="11.058097258629546"><ele>209.0</ele><time>2026-04-25T17:47:50Z</time></trkpt><trkpt lat="43.64471451096681" lon="11.058261158596752"><ele>210.75</ele><time>2026-04-25T17:47:51Z</time></trkpt><trkpt lat="43.64476925708118" lon="11.058425582769956"><ele>212.5</ele><time>2026-04-25T17:47:52Z</time></trkpt><trkpt lat="43.64483015587897" lon="11.058572444679212"><ele>214.25</ele><time>2026-04-25T17:47:53Z</time></trkpt><trkpt lat="43.644885786637765" lon="11.058705402618644"><ele>216.0</ele><time>2026-04-25T17:47:54Z</time></trkpt><trkpt lat="43.644939829107784" lon="11.05883717061393"><ele>216.0</ele><time>2026-04-25T17:47:55Z</time></trkpt><trkpt lat="43.64497973753956" lon="11.058985621286713"><ele>216.0</ele><time>2026-04-25T17:47:56Z</time></trkpt><trkpt lat="43.64505045693728" lon="11.059117674127274"><ele>216.0</ele><time>2026-04-25T17:47:57Z</time></trkpt><trkpt lat="43.64509543437783" lon="11.059272564745214"><ele>216.0</ele><time>2026-04-25T17:47:58Z</time></trkpt><trkpt lat="43.64515835699354" lon="11.05941995402818"><ele>215.25</ele><time>2026-04-25T17:47:59Z</time></trkpt><trkpt lat="43.64522810028292" lon="11.059573640537511"><ele>214.5</ele><time>2026-04-25T17:48:00Z</time></trkpt><trkpt lat="43.645295235906765" lon="11.059738615380418"><ele>213.75</ele><time>2026-04-25T17:48:01Z</time></trkpt><trkpt lat="43.645360696839404" lon="11.05990555861926"><ele>213.0</ele><time>2026-04-25T17:48:02Z</time></trkpt><trkpt lat="43.645417604888465" lon="11.06006492138644"><ele>216.0</ele><time>2026-04-25T17:48:03Z</time></trkpt><trkpt lat="43.64547480760442" lon="11.060222184219306"><ele>219.0</ele><time>2026-04-25T17:48:04Z</time></trkpt><trkpt lat="43.64552202077441" lon="11.060385334550917"><ele>222.0</ele><time>2026-04-25T17:48:05Z</time></trkpt><trkpt lat="43.64557116109038" lon="11.0605464687113"><ele>225.0</ele><time>2026-04-25T17:48:06Z</time></trkpt><trkpt lat="43.6456225928445" lon="11.06070184912831"><ele>225.75</ele><time>2026-04-25T17:48:07Z</time></trkpt><trkpt lat="43.645667830215366" lon="11.060861384809911"><ele>226.5</ele><time>2026-04-25T17:48:08Z</time></trkpt><trkpt lat="43.645710867331076" lon="11.061004838951964"><ele>227.25</ele><time>2026-04-25T17:48:09Z</time></trkpt><trkpt lat="43.645751145618824" lon="11.061141782218852"><ele>228.0</ele><time>2026-04-25T17:48:10Z</time></trkpt><trkpt lat="43.645812395029765" lon="11.061278910480649"><ele>228.0</ele><time>2026-04-25T17:48:11Z</time></trkpt><trkpt lat="43.64585045176352" lon="11.061436537886863"><ele>228.0</ele><time>2026-04-25T17:48:12Z</time></trkpt><trkpt lat="43.64590143125402" lon="11.061597088892926"><ele>228.0</ele><time>2026-04-25T17:48:13Z</time></trkpt><trkpt lat="43.64595079075589" lon="11.061753805349804"><ele>228.0</ele><time>2026-04-25T17:48:14Z</time></trkpt><trkpt lat="43.64599486007501" lon="11.061903420249033"><ele>227.75</ele><time>2026-04-25T17:48:15Z</time></trkpt><trkpt lat="43.646034085381" lon="11.062038927064561"><ele>227.5</ele><time>2026-04-25T17:48:16Z</time></trkpt><trkpt lat="43.64606750555064" lon="11.062185536186709"><ele>227.25</ele><time>2026-04-25T17:48:17Z</time></trkpt><trkpt lat="43.6460878314478" lon="11.062340310224473"><ele>227.0</ele><time>2026-04-25T17:48:18Z</time></trkpt><trkpt lat="43.646100914470644" lon="11.062507429584135"><ele>226.0</ele><time>2026-04-25T17:48:19Z</time></trkpt><trkpt lat="43.64608985512149" lon="11.062680892510896"><ele>225.0</ele><time>2026-04-25T17:48:20Z</time></trkpt><trkpt lat="43.64607271685151" lon="11.062855512760947"><ele>224.0</ele><time>2026-04-25T17:48:21Z</time></trkpt><trkpt lat="43.6460472184114" lon="11.06302783439951"><ele>223.0</ele><time>2026-04-25T17:48:22Z</time></trkpt><trkpt lat="43.646024440738536" lon="11.063205832514363"><ele>224.25</ele><time>2026-04-25T17:48:23Z</time></trkpt><trkpt lat="43.64599832346833" lon="11.063380707952886"><ele>225.5</ele><time>2026-04-25T17:48:24Z</time></trkpt><trkpt lat="43.64597644625624" lon="11.063552709238499"><ele>226.75</ele><time>2026-04-25T17:48:25Z</time></trkpt><trkpt lat="43.645953674240694" lon="11.06372953369969"><ele>228.0</ele><time>2026-04-25T17:48:26Z</time></trkpt><trkpt lat="43.64593746611822" lon="11.063895851072418"><ele>228.0</ele><time>2026-04-25T17:48:27Z</time></trkpt><trkpt lat="43.64592562770785" lon="11.064053542325496"><ele>228.0</ele><time>2026-04-25T17:48:28Z</time></trkpt><trkpt lat="43.64591874929753" lon="11.064201199112627"><ele>228.0</ele><time>2026-04-25T17:48:29Z</time></trkpt><trkpt lat="43.6459193483931" lon="11.064338385994754"><ele>228.0</ele><time>2026-04-25T17:48:30Z</time></trkpt><trkpt lat="43.64591662960596" lon="11.064465068759535"><ele>228.0</ele><time>2026-04-25T17:48:31Z</time></trkpt><trkpt lat="43.645919832082804" lon="11.064601363001533"><ele>228.8</ele><time>2026-04-25T17:48:32Z</time></trkpt><trkpt lat="43.645923363597554" lon="11.064748607173875"><ele>229.60000000000002</ele><time>2026-04-25T17:48:33Z</time></trkpt><trkpt lat="43.64592939753042" lon="11.064899164002107"><ele>230.39999999999998</ele><time>2026-04-25T17:48:34Z</time></trkpt><trkpt lat="43.64593165579823" lon="11.06506234118356"><ele>231.2</ele><time>2026-04-25T17:48:35Z</time></trkpt><trkpt lat="43.6459308268407" lon="11.065209642616244"><ele>232.0</ele><time>2026-04-25T17:48:36Z</time></trkpt><trkpt lat="43.64593235058228" lon="11.065338316654348"><ele>232.16666666666666</ele><time>2026-04-25T17:48:37Z</time></trkpt><trkpt lat="43.64593111345775" lon="11.06544622104146"><ele>232.33333333333331</ele><time>2026-04-25T17:48:38Z</time></trkpt><trkpt lat="43.64593358419107" lon="11.0655425626846"><ele>232.5</ele><time>2026-04-25T17:48:39Z</time></trkpt><trkpt lat="43.645919355650214" lon="11.065686757723874"><ele>232.66666666666669</ele><time>2026-04-25T17:48:41Z</time></trkpt><trkpt lat="43.646001206605725" lon="11.065749561789735"><ele>232.83333333333334</ele><time>2026-04-25T17:48:42Z</time></trkpt><trkpt lat="43.646073347608926" lon="11.065789474222159"><ele>233.0</ele><time>2026-04-25T17:48:43Z</time></trkpt><trkpt lat="43.64614562237232" lon="11.065830048553144"><ele>231.60000000000002</ele><time>2026-04-25T17:48:44Z</time></trkpt><trkpt lat="43.64620619383686" lon="11.065868944783956"><ele>230.20000000000002</ele><time>2026-04-25T17:48:45Z</time></trkpt><trkpt lat="43.64628753609585" lon="11.066009846557867"><ele>228.8</ele><time>2026-04-25T17:48:47Z</time></trkpt><trkpt lat="43.646322841596685" lon="11.06612792761263"><ele>227.4</ele><time>2026-04-25T17:48:48Z</time></trkpt><trkpt lat="43.646366768932154" lon="11.066256916110905"><ele>226.0</ele><time>2026-04-25T17:48:49Z</time></trkpt><trkpt lat="43.64640992128126" lon="11.06638751544189"><ele>225.99999999999997</ele><time>2026-04-25T17:48:50Z</time></trkpt><trkpt lat="43.64645215415123" lon="11.066514731286471"><ele>226.0</ele><time>2026-04-25T17:48:51Z</time></trkpt><trkpt lat="43.6464924074083" lon="11.066633323009498"><ele>226.0</ele><time>2026-04-25T17:48:52Z</time></trkpt><trkpt lat="43.64652179076295" lon="11.066736450314758"><ele>226.0</ele><time>2026-04-25T17:48:53Z</time></trkpt><trkpt lat="43.64653995975753" lon="11.066847698272893"><ele>225.99999999999997</ele><time>2026-04-25T17:48:54Z</time></trkpt><trkpt lat="43.64653512105821" lon="11.066961533877976"><ele>226.0</ele><time>2026-04-25T17:48:55Z</time></trkpt><trkpt lat="43.64650973413614" lon="11.067092026448197"><ele>224.75</ele><time>2026-04-25T17:48:56Z</time></trkpt><trkpt lat="43.64647794669218" lon="11.067242732667122"><ele>223.5</ele><time>2026-04-25T17:48:57Z</time></trkpt><trkpt lat="43.64644828467152" lon="11.067398970609188"><ele>222.25</ele><time>2026-04-25T17:48:58Z</time></trkpt><trkpt lat="43.6464169958488" lon="11.067549933037592"><ele>221.0</ele><time>2026-04-25T17:48:59Z</time></trkpt><trkpt lat="43.646385238645614" lon="11.067704871030088"><ele>219.25</ele><time>2026-04-25T17:49:00Z</time></trkpt><trkpt lat="43.64636255581582" lon="11.067858499535346"><ele>217.5</ele><time>2026-04-25T17:49:01Z</time></trkpt><trkpt lat="43.646347872985544" lon="11.068010759832918"><ele>215.75</ele><time>2026-04-25T17:49:02Z</time></trkpt><trkpt lat="43.64633347700447" lon="11.068168950609854"><ele>214.0</ele><time>2026-04-25T17:49:03Z</time></trkpt><trkpt lat="43.64631839926451" lon="11.068323901950292"><ele>212.75</ele><time>2026-04-25T17:49:04Z</time></trkpt><trkpt lat="43.64630304164173" lon="11.068481180648229"><ele>211.5</ele><time>2026-04-25T17:49:05Z</time></trkpt><trkpt lat="43.646291041087515" lon="11.068634755151276"><ele>210.25</ele><time>2026-04-25T17:49:06Z</time></trkpt><trkpt lat="43.64627612943535" lon="11.068790940368588"><ele>209.0</ele><time>2026-04-25T17:49:07Z</time></trkpt><trkpt lat="43.64625675296421" lon="11.068941590524716"><ele>209.0</ele><time>2026-04-25T17:49:08Z</time></trkpt><trkpt lat="43.646234512968086" lon="11.069088380395124"><ele>209.0</ele><time>2026-04-25T17:49:09Z</time></trkpt><trkpt lat="43.64619997096418" lon="11.069232162660654"><ele>209.0</ele><time>2026-04-25T17:49:10Z</time></trkpt><trkpt lat="43.64616658866144" lon="11.0693634550913"><ele>209.0</ele><time>2026-04-25T17:49:11Z</time></trkpt><trkpt lat="43.6461403783093" lon="11.069463816189371"><ele>209.0</ele><time>2026-04-25T17:49:12Z</time></trkpt><trkpt lat="43.6461091508102" lon="11.06959244726097"><ele>210.66666666666669</ele><time>2026-04-25T17:49:14Z</time></trkpt><trkpt lat="43.646080276248306" lon="11.069676243914412"><ele>212.33333333333334</ele><time>2026-04-25T17:49:17Z</time></trkpt><trkpt lat="43.64604150920972" lon="11.06977155740865"><ele>214.0</ele><time>2026-04-25T17:49:20Z</time></trkpt><trkpt lat="43.64601888155163" lon="11.069869140716891"><ele>215.66666666666669</ele><time>2026-04-25T17:49:22Z</time></trkpt><trkpt lat="43.6460004206911" lon="11.07002587241171"><ele>217.33333333333334</ele><time>2026-04-25T17:49:52Z</time></trkpt><trkpt lat="43.645986990393425" lon="11.070135547901572"><ele>219.0</ele><time>2026-04-25T17:49:53Z</time></trkpt><trkpt lat="43.64596216406368" lon="11.07024107214529"><ele>219.39999999999998</ele><time>2026-04-25T17:49:54Z</time></trkpt><trkpt lat="43.645931123967905" lon="11.07034771740444"><ele>219.79999999999998</ele><time>2026-04-25T17:49:55Z</time></trkpt><trkpt lat="43.64590245244137" lon="11.0704653696638"><ele>220.20000000000002</ele><time>2026-04-25T17:49:56Z</time></trkpt><trkpt lat="43.64586686620416" lon="11.070593580032668"><ele>220.60000000000002</ele><time>2026-04-25T17:49:57Z</time></trkpt><trkpt lat="43.64583052154106" lon="11.070725464738064"><ele>221.0</ele><time>2026-04-25T17:49:58Z</time></trkpt><trkpt lat="43.645786838727055" lon="11.070874011078208"><ele>221.20000000000002</ele><time>2026-04-25T17:49:59Z</time></trkpt><trkpt lat="43.645724984735885" lon="11.071015264257602"><ele>221.40000000000003</ele><time>2026-04-25T17:50:00Z</time></trkpt><trkpt lat="43.645686626195705" lon="11.07117134634852"><ele>221.6</ele><time>2026-04-25T17:50:01Z</time></trkpt><trkpt lat="43.6456532471802" lon="11.071268334646845"><ele>221.8</ele><time>2026-04-25T17:50:02Z</time></trkpt><trkpt lat="43.6455964774643" lon="11.07142242614288"><ele>222.0</ele><time>2026-04-25T17:50:04Z</time></trkpt><trkpt lat="43.64557021507907" lon="11.071527766443833"><ele>222.5</ele><time>2026-04-25T17:50:05Z</time></trkpt><trkpt lat="43.64554595533076" lon="11.071630100978942"><ele>223.0</ele><time>2026-04-25T17:50:06Z</time></trkpt><trkpt lat="43.64552279744945" lon="11.071740976078836"><ele>223.5</ele><time>2026-04-25T17:50:07Z</time></trkpt><trkpt lat="43.645498400552945" lon="11.071860110145646"><ele>224.0</ele><time>2026-04-25T17:50:08Z</time></trkpt><trkpt lat="43.64548606481504" lon="11.071998396191972"><ele>224.5</ele><time>2026-04-25T17:50:09Z</time></trkpt><trkpt lat="43.64547787593087" lon="11.072130690920174"><ele>225.0</ele><time>2026-04-25T17:50:10Z</time></trkpt><trkpt lat="43.64547674972452" lon="11.072258465803248"><ele>225.0</ele><time>2026-04-25T17:50:11Z</time></trkpt><trkpt lat="43.6455068463389" lon="11.072364872556758"><ele>225.0</ele><time>2026-04-25T17:50:12Z</time></trkpt><trkpt lat="43.64551591353259" lon="11.072519768400051"><ele>225.0</ele><time>2026-04-25T17:50:14Z</time></trkpt><trkpt lat="43.64550056993655" lon="11.072709632021397"><ele>225.0</ele><time>2026-04-25T17:50:16Z</time></trkpt><trkpt lat="43.645528208002865" lon="11.072824656050784"><ele>225.0</ele><time>2026-04-25T17:50:17Z</time></trkpt><trkpt lat="43.64554258444985" lon="11.072961812369527"><ele>225.6</ele><time>2026-04-25T17:50:18Z</time></trkpt><trkpt lat="43.645559346945426" lon="11.07310194985741"><ele>226.2</ele><time>2026-04-25T17:50:19Z</time></trkpt><trkpt lat="43.64557369382151" lon="11.073225535521567"><ele>226.8</ele><time>2026-04-25T17:50:20Z</time></trkpt><trkpt lat="43.64558754050615" lon="11.073331688705652"><ele>227.4</ele><time>2026-04-25T17:50:21Z</time></trkpt><trkpt lat="43.645624485007794" lon="11.07347041164134"><ele>228.0</ele><time>2026-04-25T17:50:23Z</time></trkpt><trkpt lat="43.64568348782949" lon="11.073592086079099"><ele>228.60000000000002</ele><time>2026-04-25T17:50:25Z</time></trkpt><trkpt lat="43.64574471479862" lon="11.073707568788612"><ele>229.20000000000002</ele><time>2026-04-25T17:50:27Z</time></trkpt><trkpt lat="43.645873177080986" lon="11.073707455444659"><ele>229.8</ele><time>2026-04-25T17:50:29Z</time></trkpt><trkpt lat="43.645943086068854" lon="11.07366356577162"><ele>230.4</ele><time>2026-04-25T17:50:30Z</time></trkpt><trkpt lat="43.646004727430295" lon="11.073616539701359"><ele>231.0</ele><time>2026-04-25T17:50:31Z</time></trkpt><trkpt lat="43.64608765838317" lon="11.073529655497024"><ele>230.4</ele><time>2026-04-25T17:50:33Z</time></trkpt><trkpt lat="43.64616388610773" lon="11.073440327479904"><ele>229.8</ele><time>2026-04-25T17:50:34Z</time></trkpt><trkpt lat="43.64624645823967" lon="11.073368048212533"><ele>229.20000000000002</ele><time>2026-04-25T17:50:35Z</time></trkpt><trkpt lat="43.64633644318132" lon="11.073284891379778"><ele>228.60000000000002</ele><time>2026-04-25T17:50:36Z</time></trkpt><trkpt lat="43.646429687671095" lon="11.073194073099451"><ele>228.0</ele><time>2026-04-25T17:50:37Z</time></trkpt><trkpt lat="43.64651693306563" lon="11.073092699816042"><ele>228.0</ele><time>2026-04-25T17:50:38Z</time></trkpt><trkpt lat="43.64661726087991" lon="11.073005085689472"><ele>228.0</ele><time>2026-04-25T17:50:39Z</time></trkpt><trkpt lat="43.646702637973334" lon="11.072876319136027"><ele>228.0</ele><time>2026-04-25T17:50:40Z</time></trkpt><trkpt lat="43.646793637883995" lon="11.072754771219369"><ele>228.0</ele><time>2026-04-25T17:50:41Z</time></trkpt><trkpt lat="43.64688870635405" lon="11.072628751868708"><ele>227.5</ele><time>2026-04-25T17:50:42Z</time></trkpt><trkpt lat="43.64698979087627" lon="11.072494493907351"><ele>227.0</ele><time>2026-04-25T17:50:43Z</time></trkpt><trkpt lat="43.64708547790194" lon="11.072356916711962"><ele>226.5</ele><time>2026-04-25T17:50:44Z</time></trkpt><trkpt lat="43.64718184225717" lon="11.07222404796134"><ele>226.0</ele><time>2026-04-25T17:50:45Z</time></trkpt><trkpt lat="43.64727889635577" lon="11.072085793089004"><ele>226.0</ele><time>2026-04-25T17:50:46Z</time></trkpt><trkpt lat="43.64737552935076" lon="11.071949252363058"><ele>226.0</ele><time>2026-04-25T17:50:47Z</time></trkpt><trkpt lat="43.647466010254824" lon="11.07181801798571"><ele>226.0</ele><time>2026-04-25T17:50:48Z</time></trkpt><trkpt lat="43.6475433033132" lon="11.071696001175612"><ele>226.0</ele><time>2026-04-25T17:50:49Z</time></trkpt><trkpt lat="43.647609966132805" lon="11.071581045055906"><ele>226.0</ele><time>2026-04-25T17:50:50Z</time></trkpt><trkpt lat="43.64767353193846" lon="11.07147089079233"><ele>226.00000000000003</ele><time>2026-04-25T17:50:51Z</time></trkpt><trkpt lat="43.647725640156956" lon="11.07137358928426"><ele>226.00000000000003</ele><time>2026-04-25T17:50:52Z</time></trkpt><trkpt lat="43.64777485598216" lon="11.071301203075768"><ele>226.0</ele><time>2026-04-25T17:50:53Z</time></trkpt><trkpt lat="43.64787059736695" lon="11.071217242654122"><ele>226.0</ele><time>2026-04-25T17:50:55Z</time></trkpt><trkpt lat="43.647947042971246" lon="11.071093845076511"><ele>225.83333333333331</ele><time>2026-04-25T17:50:57Z</time></trkpt><trkpt lat="43.6479978493709" lon="11.071016952265765"><ele>225.66666666666666</ele><time>2026-04-25T17:50:58Z</time></trkpt><trkpt lat="43.648051294395884" lon="11.070936066023254"><ele>225.5</ele><time>2026-04-25T17:50:59Z</time></trkpt><trkpt lat="43.64810851563963" lon="11.070859583848533"><ele>225.33333333333331</ele><time>2026-04-25T17:51:00Z</time></trkpt><trkpt lat="43.64815751692776" lon="11.070752895354566"><ele>225.16666666666666</ele><time>2026-04-25T17:51:01Z</time></trkpt><trkpt lat="43.64822386278772" lon="11.070639652356796"><ele>225.0</ele><time>2026-04-25T17:51:02Z</time></trkpt><trkpt lat="43.64829921217246" lon="11.070517740746713"><ele>225.0</ele><time>2026-04-25T17:51:03Z</time></trkpt><trkpt lat="43.648375404123335" lon="11.070403919437137"><ele>225.0</ele><time>2026-04-25T17:51:04Z</time></trkpt><trkpt lat="43.648452968158736" lon="11.07028832208706"><ele>225.0</ele><time>2026-04-25T17:51:05Z</time></trkpt><trkpt lat="43.648549985816324" lon="11.070168414453834"><ele>225.0</ele><time>2026-04-25T17:51:06Z</time></trkpt><trkpt lat="43.6486475454511" lon="11.070046132815373"><ele>225.0</ele><time>2026-04-25T17:51:07Z</time></trkpt><trkpt lat="43.6487351803801" lon="11.0699369104723"><ele>225.0</ele><time>2026-04-25T17:51:08Z</time></trkpt><trkpt lat="43.64881364751402" lon="11.069836287805778"><ele>225.0</ele><time>2026-04-25T17:51:09Z</time></trkpt><trkpt lat="43.64890071712915" lon="11.069743274226212"><ele>225.0</ele><time>2026-04-25T17:51:10Z</time></trkpt><trkpt lat="43.648987350795" lon="11.069655004172967"><ele>225.0</ele><time>2026-04-25T17:51:11Z</time></trkpt><trkpt lat="43.64907103858354" lon="11.06957730174791"><ele>225.0</ele><time>2026-04-25T17:51:12Z</time></trkpt><trkpt lat="43.64912799752107" lon="11.069521424471265"><ele>225.0</ele><time>2026-04-25T17:51:13Z</time></trkpt><trkpt lat="43.649211684695864" lon="11.069442454447723"><ele>225.0</ele><time>2026-04-25T17:51:15Z</time></trkpt><trkpt lat="43.64927586534754" lon="11.0693888666923"><ele>225.0</ele><time>2026-04-25T17:51:18Z</time></trkpt><trkpt lat="43.649177662283016" lon="11.069200901477837"><ele>225.0</ele><time>2026-04-25T17:51:19Z</time></trkpt><trkpt lat="43.64913026842768" lon="11.069120904043482"><ele>225.0</ele><time>2026-04-25T17:51:20Z</time></trkpt><trkpt lat="43.64908092242131" lon="11.069038098964922"><ele>225.0</ele><time>2026-04-25T17:51:21Z</time></trkpt><trkpt lat="43.64902955675731" lon="11.068907515826458"><ele>225.0</ele><time>2026-04-25T17:51:23Z</time></trkpt><trkpt lat="43.64894041369026" lon="11.068818313734969"><ele>225.0</ele><time>2026-04-25T17:51:25Z</time></trkpt><trkpt lat="43.64885748826056" lon="11.068816753825796"><ele>225.0</ele><time>2026-04-25T17:51:27Z</time></trkpt><trkpt lat="43.64880701495216" lon="11.06887450954414"><ele>225.0</ele><time>2026-04-25T17:52:15Z</time></trkpt><trkpt lat="43.648782539327826" lon="11.068970044458933"><ele>225.0</ele><time>2026-04-25T17:52:20Z</time></trkpt></trkseg></trk></gpx>